<?xml version='1.0' encoding='UTF-8'?><gpx version="1.1" creator="JPX - https://github.com/jenetics/jpx" xmlns="http://www.topografix.com/GPX/1/1"><trk><trkseg><trkpt lat="43.6274263" lon="11.5164431"><ele>147.0</ele><time>2026-03-22T08:20:05.502Z</time></trkpt><trkpt lat="43.6273768" lon="11.5165411"><ele>147.0</ele><time>2026-03-22T08:20:35.314Z</time></trkpt><trkpt lat="43.6273146" lon="11.516602"><ele>147.0</ele><time>2026-03-22T08:20:38.297Z</time></trkpt><trkpt lat="43.6270433" lon="11.5168733"><ele>147.0</ele><time>2026-03-22T08:20:41.228Z</time></trkpt><trkpt lat="43.626975" lon="11.5169567"><ele>147.0</ele><time>2026-03-22T08:20:43.225Z</time></trkpt><trkpt lat="43.6269067" lon="11.5170333"><ele>147.0</ele><time>2026-03-22T08:20:45.229Z</time></trkpt><trkpt lat="43.6269183" lon="11.5171233"><ele>147.0</ele><time>2026-03-22T08:20:47.224Z</time></trkpt><trkpt lat="43.62699" lon="11.5171683"><ele>147.0</ele><time>2026-03-22T08:20:49.227Z</time></trkpt><trkpt lat="43.6270883" lon="11.5172"><ele>147.0</ele><time>2026-03-22T08:20:51.225Z</time></trkpt><trkpt lat="43.6272117" lon="11.51723"><ele>147.5</ele><time>2026-03-22T08:20:53.225Z</time></trkpt><trkpt lat="43.6272833" lon="11.5172467"><ele>148.0</ele><time>2026-03-22T08:20:54.223Z</time></trkpt><trkpt lat="43.6273567" lon="11.51727"><ele>148.5</ele><time>2026-03-22T08:20:55.225Z</time></trkpt><trkpt lat="43.6274317" lon="11.517295"><ele>149.0</ele><time>2026-03-22T08:20:56.224Z</time></trkpt><trkpt lat="43.6274983" lon="11.51731"><ele>149.5</ele><time>2026-03-22T08:20:57.226Z</time></trkpt><trkpt lat="43.627615" lon="11.5173267"><ele>150.0</ele><time>2026-03-22T08:20:59.227Z</time></trkpt><trkpt lat="43.6276933" lon="11.5173517"><ele>150.0</ele><time>2026-03-22T08:21:01.228Z</time></trkpt><trkpt lat="43.62777" lon="11.517375"><ele>150.0</ele><time>2026-03-22T08:21:05.224Z</time></trkpt><trkpt lat="43.6278367" lon="11.517345"><ele>150.0</ele><time>2026-03-22T08:21:08.228Z</time></trkpt><trkpt lat="43.6278733" lon="11.5172633"><ele>150.0</ele><time>2026-03-22T08:21:10.224Z</time></trkpt><trkpt lat="43.6278933" lon="11.5170833"><ele>150.0</ele><time>2026-03-22T08:21:13.226Z</time></trkpt><trkpt lat="43.6278917" lon="11.51692"><ele>150.66666666666666</ele><time>2026-03-22T08:21:15.227Z</time></trkpt><trkpt lat="43.62789" lon="11.516825"><ele>151.33333333333334</ele><time>2026-03-22T08:21:16.226Z</time></trkpt><trkpt lat="43.6278883" lon="11.516725"><ele>152.0</ele><time>2026-03-22T08:21:17.226Z</time></trkpt><trkpt lat="43.6278883" lon="11.5166167"><ele>152.66666666666669</ele><time>2026-03-22T08:21:18.225Z</time></trkpt><trkpt lat="43.6278867" lon="11.516505"><ele>153.33333333333334</ele><time>2026-03-22T08:21:19.227Z</time></trkpt><trkpt lat="43.6278833" lon="11.5163883"><ele>154.0</ele><time>2026-03-22T08:21:20.225Z</time></trkpt><trkpt lat="43.62788" lon="11.5162667"><ele>154.0</ele><time>2026-03-22T08:21:21.227Z</time></trkpt><trkpt lat="43.62788" lon="11.5161417"><ele>154.0</ele><time>2026-03-22T08:21:22.225Z</time></trkpt><trkpt lat="43.6278733" lon="11.5160167"><ele>154.0</ele><time>2026-03-22T08:21:23.224Z</time></trkpt><trkpt lat="43.627865" lon="11.5158917"><ele>154.0</ele><time>2026-03-22T08:21:24.225Z</time></trkpt><trkpt lat="43.62786" lon="11.5157667"><ele>154.0</ele><time>2026-03-22T08:21:25.227Z</time></trkpt><trkpt lat="43.6278533" lon="11.5156417"><ele>154.0</ele><time>2026-03-22T08:21:26.226Z</time></trkpt><trkpt lat="43.6278433" lon="11.5155183"><ele>154.0</ele><time>2026-03-22T08:21:27.225Z</time></trkpt><trkpt lat="43.6278383" lon="11.5153933"><ele>154.0</ele><time>2026-03-22T08:21:28.226Z</time></trkpt><trkpt lat="43.6278317" lon="11.51527"><ele>154.0</ele><time>2026-03-22T08:21:29.225Z</time></trkpt><trkpt lat="43.6278283" lon="11.515145"><ele>154.0</ele><time>2026-03-22T08:21:30.226Z</time></trkpt><trkpt lat="43.6278233" lon="11.5150217"><ele>154.0</ele><time>2026-03-22T08:21:31.227Z</time></trkpt><trkpt lat="43.62782" lon="11.5148983"><ele>154.0</ele><time>2026-03-22T08:21:32.226Z</time></trkpt><trkpt lat="43.627815" lon="11.5147733"><ele>154.0</ele><time>2026-03-22T08:21:33.225Z</time></trkpt><trkpt lat="43.6278083" lon="11.5146517"><ele>154.0</ele><time>2026-03-22T08:21:34.226Z</time></trkpt><trkpt lat="43.6278033" lon="11.5145333"><ele>154.0</ele><time>2026-03-22T08:21:35.225Z</time></trkpt><trkpt lat="43.6277967" lon="11.514415"><ele>154.0</ele><time>2026-03-22T08:21:36.226Z</time></trkpt><trkpt lat="43.6277867" lon="11.514295"><ele>152.5</ele><time>2026-03-22T08:21:37.226Z</time></trkpt><trkpt lat="43.6277733" lon="11.51418"><ele>151.0</ele><time>2026-03-22T08:21:38.226Z</time></trkpt><trkpt lat="43.6277617" lon="11.514075"><ele>149.5</ele><time>2026-03-22T08:21:39.226Z</time></trkpt><trkpt lat="43.627755" lon="11.5139783"><ele>148.0</ele><time>2026-03-22T08:21:40.224Z</time></trkpt><trkpt lat="43.6277467" lon="11.513885"><ele>146.5</ele><time>2026-03-22T08:21:41.227Z</time></trkpt><trkpt lat="43.627735" lon="11.513795"><ele>145.0</ele><time>2026-03-22T08:21:42.225Z</time></trkpt><trkpt lat="43.62772" lon="11.51363"><ele>144.4</ele><time>2026-03-22T08:21:44.226Z</time></trkpt><trkpt lat="43.627725" lon="11.5134767"><ele>143.8</ele><time>2026-03-22T08:21:46.226Z</time></trkpt><trkpt lat="43.6277283" lon="11.51331"><ele>143.2</ele><time>2026-03-22T08:21:48.225Z</time></trkpt><trkpt lat="43.6276533" lon="11.5131683"><ele>142.6</ele><time>2026-03-22T08:21:50.226Z</time></trkpt><trkpt lat="43.627585" lon="11.5131183"><ele>142.0</ele><time>2026-03-22T08:21:51.225Z</time></trkpt><trkpt lat="43.6275067" lon="11.5130883"><ele>142.0</ele><time>2026-03-22T08:21:52.226Z</time></trkpt><trkpt lat="43.6274283" lon="11.5130617"><ele>142.0</ele><time>2026-03-22T08:21:53.227Z</time></trkpt><trkpt lat="43.6273433" lon="11.51305"><ele>142.0</ele><time>2026-03-22T08:21:54.225Z</time></trkpt><trkpt lat="43.62726" lon="11.5130233"><ele>142.0</ele><time>2026-03-22T08:21:55.226Z</time></trkpt><trkpt lat="43.627175" lon="11.5129917"><ele>142.0</ele><time>2026-03-22T08:21:56.226Z</time></trkpt><trkpt lat="43.62709" lon="11.5129617"><ele>142.0</ele><time>2026-03-22T08:21:57.227Z</time></trkpt><trkpt lat="43.62701" lon="11.5129233"><ele>141.83333333333334</ele><time>2026-03-22T08:21:58.227Z</time></trkpt><trkpt lat="43.62693" lon="11.5128967"><ele>141.66666666666669</ele><time>2026-03-22T08:21:59.227Z</time></trkpt><trkpt lat="43.6268483" lon="11.5128533"><ele>141.5</ele><time>2026-03-22T08:22:00.226Z</time></trkpt><trkpt lat="43.6267767" lon="11.512795"><ele>141.33333333333334</ele><time>2026-03-22T08:22:01.226Z</time></trkpt><trkpt lat="43.6267083" lon="11.5127317"><ele>141.16666666666666</ele><time>2026-03-22T08:22:02.226Z</time></trkpt><trkpt lat="43.6266367" lon="11.5126733"><ele>141.0</ele><time>2026-03-22T08:22:03.226Z</time></trkpt><trkpt lat="43.6265667" lon="11.5126217"><ele>141.0</ele><time>2026-03-22T08:22:04.224Z</time></trkpt><trkpt lat="43.6264883" lon="11.51258"><ele>141.0</ele><time>2026-03-22T08:22:05.226Z</time></trkpt><trkpt lat="43.6264067" lon="11.51254"><ele>141.0</ele><time>2026-03-22T08:22:06.224Z</time></trkpt><trkpt lat="43.626325" lon="11.5125033"><ele>141.0</ele><time>2026-03-22T08:22:07.225Z</time></trkpt><trkpt lat="43.6262417" lon="11.5124633"><ele>141.0</ele><time>2026-03-22T08:22:08.225Z</time></trkpt><trkpt lat="43.6261583" lon="11.51243"><ele>141.0</ele><time>2026-03-22T08:22:09.226Z</time></trkpt><trkpt lat="43.6260767" lon="11.5123967"><ele>140.83333333333334</ele><time>2026-03-22T08:22:10.226Z</time></trkpt><trkpt lat="43.625995" lon="11.5123633"><ele>140.66666666666666</ele><time>2026-03-22T08:22:11.226Z</time></trkpt><trkpt lat="43.6259133" lon="11.51233"><ele>140.5</ele><time>2026-03-22T08:22:12.227Z</time></trkpt><trkpt lat="43.62583" lon="11.5122983"><ele>140.33333333333331</ele><time>2026-03-22T08:22:13.226Z</time></trkpt><trkpt lat="43.6257517" lon="11.5122567"><ele>140.16666666666666</ele><time>2026-03-22T08:22:14.228Z</time></trkpt><trkpt lat="43.6256783" lon="11.5122017"><ele>140.0</ele><time>2026-03-22T08:22:15.226Z</time></trkpt><trkpt lat="43.6256083" lon="11.5121467"><ele>140.0</ele><time>2026-03-22T08:22:16.226Z</time></trkpt><trkpt lat="43.6255383" lon="11.5120833"><ele>140.0</ele><time>2026-03-22T08:22:17.226Z</time></trkpt><trkpt lat="43.6254683" lon="11.5120183"><ele>140.0</ele><time>2026-03-22T08:22:18.226Z</time></trkpt><trkpt lat="43.6253983" lon="11.5119483"><ele>140.0</ele><time>2026-03-22T08:22:19.227Z</time></trkpt><trkpt lat="43.62533" lon="11.5118767"><ele>140.0</ele><time>2026-03-22T08:22:20.228Z</time></trkpt><trkpt lat="43.625265" lon="11.5118"><ele>140.0</ele><time>2026-03-22T08:22:21.226Z</time></trkpt><trkpt lat="43.6252" lon="11.5117267"><ele>139.66666666666666</ele><time>2026-03-22T08:22:22.228Z</time></trkpt><trkpt lat="43.6251333" lon="11.511655"><ele>139.33333333333331</ele><time>2026-03-22T08:22:23.226Z</time></trkpt><trkpt lat="43.6250683" lon="11.511585"><ele>139.0</ele><time>2026-03-22T08:22:24.225Z</time></trkpt><trkpt lat="43.6250067" lon="11.511515"><ele>138.66666666666666</ele><time>2026-03-22T08:22:25.227Z</time></trkpt><trkpt lat="43.624945" lon="11.511445"><ele>138.33333333333334</ele><time>2026-03-22T08:22:26.226Z</time></trkpt><trkpt lat="43.624885" lon="11.511375"><ele>138.0</ele><time>2026-03-22T08:22:27.227Z</time></trkpt><trkpt lat="43.6248283" lon="11.5112983"><ele>138.0</ele><time>2026-03-22T08:22:28.226Z</time></trkpt><trkpt lat="43.6247717" lon="11.5112183"><ele>138.0</ele><time>2026-03-22T08:22:29.226Z</time></trkpt><trkpt lat="43.62472" lon="11.51113"><ele>138.0</ele><time>2026-03-22T08:22:30.227Z</time></trkpt><trkpt lat="43.6246733" lon="11.5110383"><ele>138.0</ele><time>2026-03-22T08:22:31.225Z</time></trkpt><trkpt lat="43.6246333" lon="11.51095"><ele>138.0</ele><time>2026-03-22T08:22:32.226Z</time></trkpt><trkpt lat="43.6246" lon="11.51085"><ele>138.0</ele><time>2026-03-22T08:22:33.227Z</time></trkpt><trkpt lat="43.62457" lon="11.5107517"><ele>138.0</ele><time>2026-03-22T08:22:34.225Z</time></trkpt><trkpt lat="43.6245417" lon="11.5106483"><ele>138.0</ele><time>2026-03-22T08:22:35.225Z</time></trkpt><trkpt lat="43.6245167" lon="11.5105417"><ele>138.0</ele><time>2026-03-22T08:22:36.224Z</time></trkpt><trkpt lat="43.62449" lon="11.5104383"><ele>138.0</ele><time>2026-03-22T08:22:37.223Z</time></trkpt><trkpt lat="43.6244583" lon="11.5103367"><ele>138.0</ele><time>2026-03-22T08:22:38.223Z</time></trkpt><trkpt lat="43.6244283" lon="11.51023"><ele>138.0</ele><time>2026-03-22T08:22:39.223Z</time></trkpt><trkpt lat="43.6243967" lon="11.5101233"><ele>137.83333333333334</ele><time>2026-03-22T08:22:40.223Z</time></trkpt><trkpt lat="43.62437" lon="11.510015"><ele>137.66666666666666</ele><time>2026-03-22T08:22:41.224Z</time></trkpt><trkpt lat="43.62434" lon="11.5099067"><ele>137.5</ele><time>2026-03-22T08:22:42.222Z</time></trkpt><trkpt lat="43.62431" lon="11.5097983"><ele>137.33333333333331</ele><time>2026-03-22T08:22:43.223Z</time></trkpt><trkpt lat="43.62428" lon="11.509685"><ele>137.16666666666666</ele><time>2026-03-22T08:22:44.223Z</time></trkpt><trkpt lat="43.6242533" lon="11.50957"><ele>137.0</ele><time>2026-03-22T08:22:45.222Z</time></trkpt><trkpt lat="43.6242233" lon="11.5094583"><ele>136.83333333333331</ele><time>2026-03-22T08:22:46.225Z</time></trkpt><trkpt lat="43.624195" lon="11.5093433"><ele>136.66666666666666</ele><time>2026-03-22T08:22:47.225Z</time></trkpt><trkpt lat="43.6241667" lon="11.5092283"><ele>136.5</ele><time>2026-03-22T08:22:48.225Z</time></trkpt><trkpt lat="43.6241383" lon="11.509115"><ele>136.33333333333334</ele><time>2026-03-22T08:22:49.226Z</time></trkpt><trkpt lat="43.6241117" lon="11.5089983"><ele>136.16666666666669</ele><time>2026-03-22T08:22:50.226Z</time></trkpt><trkpt lat="43.6240833" lon="11.508885"><ele>136.0</ele><time>2026-03-22T08:22:51.225Z</time></trkpt><trkpt lat="43.6240533" lon="11.50877"><ele>135.83333333333334</ele><time>2026-03-22T08:22:52.227Z</time></trkpt><trkpt lat="43.6240217" lon="11.5086583"><ele>135.66666666666669</ele><time>2026-03-22T08:22:53.226Z</time></trkpt><trkpt lat="43.6239867" lon="11.50855"><ele>135.5</ele><time>2026-03-22T08:22:54.226Z</time></trkpt><trkpt lat="43.6239483" lon="11.5084433"><ele>135.33333333333334</ele><time>2026-03-22T08:22:55.224Z</time></trkpt><trkpt lat="43.6239067" lon="11.5083367"><ele>135.16666666666666</ele><time>2026-03-22T08:22:56.225Z</time></trkpt><trkpt lat="43.6238617" lon="11.5082267"><ele>135.0</ele><time>2026-03-22T08:22:57.225Z</time></trkpt><trkpt lat="43.6238167" lon="11.50812"><ele>135.0</ele><time>2026-03-22T08:22:58.225Z</time></trkpt><trkpt lat="43.6237717" lon="11.5080167"><ele>135.0</ele><time>2026-03-22T08:22:59.226Z</time></trkpt><trkpt lat="43.62372" lon="11.5079217"><ele>135.0</ele><time>2026-03-22T08:23:00.225Z</time></trkpt><trkpt lat="43.6236667" lon="11.5078267"><ele>135.0</ele><time>2026-03-22T08:23:01.226Z</time></trkpt><trkpt lat="43.6236117" lon="11.5077367"><ele>135.0</ele><time>2026-03-22T08:23:02.226Z</time></trkpt><trkpt lat="43.623555" lon="11.5076467"><ele>135.0</ele><time>2026-03-22T08:23:03.226Z</time></trkpt><trkpt lat="43.6234967" lon="11.50756"><ele>134.66666666666666</ele><time>2026-03-22T08:23:04.224Z</time></trkpt><trkpt lat="43.6234317" lon="11.5074767"><ele>134.33333333333334</ele><time>2026-03-22T08:23:05.224Z</time></trkpt><trkpt lat="43.6233633" lon="11.50741"><ele>134.0</ele><time>2026-03-22T08:23:06.225Z</time></trkpt><trkpt lat="43.6232967" lon="11.5073417"><ele>133.66666666666669</ele><time>2026-03-22T08:23:07.227Z</time></trkpt><trkpt lat="43.623225" lon="11.5072783"><ele>133.33333333333334</ele><time>2026-03-22T08:23:08.225Z</time></trkpt><trkpt lat="43.6231533" lon="11.5072067"><ele>133.0</ele><time>2026-03-22T08:23:09.226Z</time></trkpt><trkpt lat="43.6230783" lon="11.5071367"><ele>133.16666666666669</ele><time>2026-03-22T08:23:10.224Z</time></trkpt><trkpt lat="43.6230017" lon="11.50707"><ele>133.33333333333334</ele><time>2026-03-22T08:23:11.225Z</time></trkpt><trkpt lat="43.6229233" lon="11.5070133"><ele>133.5</ele><time>2026-03-22T08:23:12.225Z</time></trkpt><trkpt lat="43.6228467" lon="11.50696"><ele>133.66666666666666</ele><time>2026-03-22T08:23:13.227Z</time></trkpt><trkpt lat="43.6227683" lon="11.5069067"><ele>133.83333333333331</ele><time>2026-03-22T08:23:14.225Z</time></trkpt><trkpt lat="43.6226917" lon="11.5068567"><ele>134.0</ele><time>2026-03-22T08:23:15.225Z</time></trkpt><trkpt lat="43.6226133" lon="11.5068067"><ele>134.0</ele><time>2026-03-22T08:23:16.226Z</time></trkpt><trkpt lat="43.6225383" lon="11.5067533"><ele>134.0</ele><time>2026-03-22T08:23:17.227Z</time></trkpt><trkpt lat="43.62246" lon="11.5066967"><ele>134.0</ele><time>2026-03-22T08:23:18.225Z</time></trkpt><trkpt lat="43.6223833" lon="11.5066417"><ele>134.0</ele><time>2026-03-22T08:23:19.225Z</time></trkpt><trkpt lat="43.6223067" lon="11.506585"><ele>134.0</ele><time>2026-03-22T08:23:20.226Z</time></trkpt><trkpt lat="43.6222283" lon="11.5065317"><ele>134.0</ele><time>2026-03-22T08:23:21.228Z</time></trkpt><trkpt lat="43.6221517" lon="11.5064767"><ele>134.0</ele><time>2026-03-22T08:23:22.226Z</time></trkpt><trkpt lat="43.6220733" lon="11.5064233"><ele>134.0</ele><time>2026-03-22T08:23:23.225Z</time></trkpt><trkpt lat="43.621995" lon="11.5063683"><ele>134.0</ele><time>2026-03-22T08:23:24.227Z</time></trkpt><trkpt lat="43.6219183" lon="11.5063117"><ele>134.0</ele><time>2026-03-22T08:23:25.225Z</time></trkpt><trkpt lat="43.6218417" lon="11.506255"><ele>134.0</ele><time>2026-03-22T08:23:26.226Z</time></trkpt><trkpt lat="43.6217667" lon="11.5062"><ele>134.0</ele><time>2026-03-22T08:23:27.224Z</time></trkpt><trkpt lat="43.6216917" lon="11.5061483"><ele>134.16666666666666</ele><time>2026-03-22T08:23:28.225Z</time></trkpt><trkpt lat="43.6216167" lon="11.5060933"><ele>134.33333333333331</ele><time>2026-03-22T08:23:29.225Z</time></trkpt><trkpt lat="43.6215433" lon="11.5060367"><ele>134.5</ele><time>2026-03-22T08:23:30.226Z</time></trkpt><trkpt lat="43.6214683" lon="11.5059817"><ele>134.66666666666666</ele><time>2026-03-22T08:23:31.225Z</time></trkpt><trkpt lat="43.6213967" lon="11.50593"><ele>134.83333333333334</ele><time>2026-03-22T08:23:32.224Z</time></trkpt><trkpt lat="43.6213233" lon="11.5058783"><ele>135.0</ele><time>2026-03-22T08:23:33.225Z</time></trkpt><trkpt lat="43.6212533" lon="11.5058233"><ele>135.0</ele><time>2026-03-22T08:23:34.228Z</time></trkpt><trkpt lat="43.6211833" lon="11.5057717"><ele>135.0</ele><time>2026-03-22T08:23:35.227Z</time></trkpt><trkpt lat="43.6211117" lon="11.5057283"><ele>135.0</ele><time>2026-03-22T08:23:36.225Z</time></trkpt><trkpt lat="43.6210383" lon="11.50568"><ele>135.0</ele><time>2026-03-22T08:23:37.226Z</time></trkpt><trkpt lat="43.6209667" lon="11.5056317"><ele>135.0</ele><time>2026-03-22T08:23:38.228Z</time></trkpt><trkpt lat="43.62089" lon="11.5055933"><ele>135.0</ele><time>2026-03-22T08:23:39.227Z</time></trkpt><trkpt lat="43.620815" lon="11.505555"><ele>134.66666666666666</ele><time>2026-03-22T08:23:40.226Z</time></trkpt><trkpt lat="43.62074" lon="11.50553"><ele>134.33333333333334</ele><time>2026-03-22T08:23:41.225Z</time></trkpt><trkpt lat="43.6206617" lon="11.5055"><ele>134.0</ele><time>2026-03-22T08:23:42.227Z</time></trkpt><trkpt lat="43.6205833" lon="11.505475"><ele>133.66666666666669</ele><time>2026-03-22T08:23:43.225Z</time></trkpt><trkpt lat="43.6205083" lon="11.5054483"><ele>133.33333333333334</ele><time>2026-03-22T08:23:44.225Z</time></trkpt><trkpt lat="43.62043" lon="11.505425"><ele>133.0</ele><time>2026-03-22T08:23:45.227Z</time></trkpt><trkpt lat="43.62035" lon="11.505405"><ele>133.5</ele><time>2026-03-22T08:23:46.227Z</time></trkpt><trkpt lat="43.62027" lon="11.5053867"><ele>134.0</ele><time>2026-03-22T08:23:47.226Z</time></trkpt><trkpt lat="43.6201917" lon="11.5053733"><ele>134.5</ele><time>2026-03-22T08:23:48.225Z</time></trkpt><trkpt lat="43.6201133" lon="11.505365"><ele>135.0</ele><time>2026-03-22T08:23:49.227Z</time></trkpt><trkpt lat="43.6200333" lon="11.5053583"><ele>135.5</ele><time>2026-03-22T08:23:50.226Z</time></trkpt><trkpt lat="43.619955" lon="11.5053517"><ele>136.0</ele><time>2026-03-22T08:23:51.227Z</time></trkpt><trkpt lat="43.6198783" lon="11.5053533"><ele>136.0</ele><time>2026-03-22T08:23:52.225Z</time></trkpt><trkpt lat="43.6198" lon="11.5053567"><ele>136.0</ele><time>2026-03-22T08:23:53.225Z</time></trkpt><trkpt lat="43.6197233" lon="11.50536"><ele>136.0</ele><time>2026-03-22T08:23:54.225Z</time></trkpt><trkpt lat="43.619645" lon="11.5053633"><ele>136.0</ele><time>2026-03-22T08:23:55.227Z</time></trkpt><trkpt lat="43.6195683" lon="11.5053717"><ele>136.0</ele><time>2026-03-22T08:23:56.227Z</time></trkpt><trkpt lat="43.6194917" lon="11.5053833"><ele>136.0</ele><time>2026-03-22T08:23:57.225Z</time></trkpt><trkpt lat="43.6194133" lon="11.50539"><ele>136.33333333333334</ele><time>2026-03-22T08:23:58.227Z</time></trkpt><trkpt lat="43.6193367" lon="11.5054017"><ele>136.66666666666669</ele><time>2026-03-22T08:23:59.226Z</time></trkpt><trkpt lat="43.6192617" lon="11.5054133"><ele>137.0</ele><time>2026-03-22T08:24:00.225Z</time></trkpt><trkpt lat="43.619185" lon="11.5054183"><ele>137.33333333333334</ele><time>2026-03-22T08:24:01.227Z</time></trkpt><trkpt lat="43.6191083" lon="11.50542"><ele>137.66666666666666</ele><time>2026-03-22T08:24:02.227Z</time></trkpt><trkpt lat="43.6190317" lon="11.5054183"><ele>138.0</ele><time>2026-03-22T08:24:03.225Z</time></trkpt><trkpt lat="43.6189567" lon="11.5054183"><ele>138.0</ele><time>2026-03-22T08:24:04.225Z</time></trkpt><trkpt lat="43.6188783" lon="11.5054083"><ele>138.0</ele><time>2026-03-22T08:24:05.225Z</time></trkpt><trkpt lat="43.6188033" lon="11.5053983"><ele>138.0</ele><time>2026-03-22T08:24:06.226Z</time></trkpt><trkpt lat="43.6187283" lon="11.5053833"><ele>138.0</ele><time>2026-03-22T08:24:07.224Z</time></trkpt><trkpt lat="43.6186517" lon="11.505365"><ele>138.0</ele><time>2026-03-22T08:24:08.226Z</time></trkpt><trkpt lat="43.6185733" lon="11.5053417"><ele>138.0</ele><time>2026-03-22T08:24:09.226Z</time></trkpt><trkpt lat="43.6184967" lon="11.5053133"><ele>138.33333333333334</ele><time>2026-03-22T08:24:10.227Z</time></trkpt><trkpt lat="43.61842" lon="11.5052883"><ele>138.66666666666666</ele><time>2026-03-22T08:24:11.225Z</time></trkpt><trkpt lat="43.618345" lon="11.5052567"><ele>139.0</ele><time>2026-03-22T08:24:12.226Z</time></trkpt><trkpt lat="43.6182717" lon="11.5052267"><ele>139.33333333333331</ele><time>2026-03-22T08:24:13.227Z</time></trkpt><trkpt lat="43.6181983" lon="11.5051983"><ele>139.66666666666666</ele><time>2026-03-22T08:24:14.225Z</time></trkpt><trkpt lat="43.6181233" lon="11.505165"><ele>140.0</ele><time>2026-03-22T08:24:15.227Z</time></trkpt><trkpt lat="43.6180517" lon="11.50513"><ele>140.0</ele><time>2026-03-22T08:24:16.225Z</time></trkpt><trkpt lat="43.6179783" lon="11.505095"><ele>140.0</ele><time>2026-03-22T08:24:17.227Z</time></trkpt><trkpt lat="43.617905" lon="11.50507"><ele>140.0</ele><time>2026-03-22T08:24:18.226Z</time></trkpt><trkpt lat="43.6178267" lon="11.50504"><ele>140.0</ele><time>2026-03-22T08:24:19.225Z</time></trkpt><trkpt lat="43.61775" lon="11.5050017"><ele>140.0</ele><time>2026-03-22T08:24:20.225Z</time></trkpt><trkpt lat="43.6176733" lon="11.5049667"><ele>140.0</ele><time>2026-03-22T08:24:21.227Z</time></trkpt><trkpt lat="43.6175983" lon="11.5049317"><ele>138.83333333333331</ele><time>2026-03-22T08:24:22.228Z</time></trkpt><trkpt lat="43.6175233" lon="11.50489"><ele>137.66666666666666</ele><time>2026-03-22T08:24:23.225Z</time></trkpt><trkpt lat="43.61745" lon="11.5048533"><ele>136.5</ele><time>2026-03-22T08:24:24.225Z</time></trkpt><trkpt lat="43.617375" lon="11.5048167"><ele>135.33333333333334</ele><time>2026-03-22T08:24:25.227Z</time></trkpt><trkpt lat="43.6172983" lon="11.5047833"><ele>134.16666666666669</ele><time>2026-03-22T08:24:26.226Z</time></trkpt><trkpt lat="43.6172233" lon="11.5047517"><ele>133.0</ele><time>2026-03-22T08:24:27.225Z</time></trkpt><trkpt lat="43.6171483" lon="11.5047167"><ele>133.0</ele><time>2026-03-22T08:24:28.224Z</time></trkpt><trkpt lat="43.6170717" lon="11.5046783"><ele>133.0</ele><time>2026-03-22T08:24:29.227Z</time></trkpt><trkpt lat="43.6169933" lon="11.5046383"><ele>133.0</ele><time>2026-03-22T08:24:30.228Z</time></trkpt><trkpt lat="43.6169167" lon="11.5046067"><ele>133.0</ele><time>2026-03-22T08:24:31.226Z</time></trkpt><trkpt lat="43.61684" lon="11.5045733"><ele>133.0</ele><time>2026-03-22T08:24:32.226Z</time></trkpt><trkpt lat="43.6167617" lon="11.504545"><ele>133.0</ele><time>2026-03-22T08:24:33.226Z</time></trkpt><trkpt lat="43.6166867" lon="11.50451"><ele>133.33333333333334</ele><time>2026-03-22T08:24:34.224Z</time></trkpt><trkpt lat="43.6166067" lon="11.5044817"><ele>133.66666666666669</ele><time>2026-03-22T08:24:35.225Z</time></trkpt><trkpt lat="43.61653" lon="11.5044483"><ele>134.0</ele><time>2026-03-22T08:24:36.227Z</time></trkpt><trkpt lat="43.6164517" lon="11.5044117"><ele>134.33333333333334</ele><time>2026-03-22T08:24:37.225Z</time></trkpt><trkpt lat="43.616375" lon="11.50437"><ele>134.66666666666666</ele><time>2026-03-22T08:24:38.225Z</time></trkpt><trkpt lat="43.6163" lon="11.5043333"><ele>135.0</ele><time>2026-03-22T08:24:39.225Z</time></trkpt><trkpt lat="43.6162217" lon="11.504295"><ele>133.83333333333334</ele><time>2026-03-22T08:24:40.225Z</time></trkpt><trkpt lat="43.6161467" lon="11.5042533"><ele>132.66666666666666</ele><time>2026-03-22T08:24:41.226Z</time></trkpt><trkpt lat="43.6160717" lon="11.504205"><ele>131.5</ele><time>2026-03-22T08:24:42.227Z</time></trkpt><trkpt lat="43.616" lon="11.5041383"><ele>130.33333333333331</ele><time>2026-03-22T08:24:43.226Z</time></trkpt><trkpt lat="43.615925" lon="11.5040733"><ele>129.16666666666666</ele><time>2026-03-22T08:24:44.226Z</time></trkpt><trkpt lat="43.6158533" lon="11.5040133"><ele>128.0</ele><time>2026-03-22T08:24:45.226Z</time></trkpt><trkpt lat="43.6157867" lon="11.5039483"><ele>127.99999999999999</ele><time>2026-03-22T08:24:46.225Z</time></trkpt><trkpt lat="43.61572" lon="11.5038783"><ele>128.0</ele><time>2026-03-22T08:24:47.228Z</time></trkpt><trkpt lat="43.6156583" lon="11.503805"><ele>128.0</ele><time>2026-03-22T08:24:48.226Z</time></trkpt><trkpt lat="43.6155983" lon="11.5037283"><ele>128.0</ele><time>2026-03-22T08:24:49.227Z</time></trkpt><trkpt lat="43.61554" lon="11.5036483"><ele>127.99999999999999</ele><time>2026-03-22T08:24:50.227Z</time></trkpt><trkpt lat="43.61548" lon="11.503565"><ele>128.0</ele><time>2026-03-22T08:24:51.226Z</time></trkpt><trkpt lat="43.61542" lon="11.50348"><ele>128.16666666666666</ele><time>2026-03-22T08:24:52.226Z</time></trkpt><trkpt lat="43.6153633" lon="11.5033917"><ele>128.33333333333331</ele><time>2026-03-22T08:24:53.226Z</time></trkpt><trkpt lat="43.6153083" lon="11.5033017"><ele>128.5</ele><time>2026-03-22T08:24:54.225Z</time></trkpt><trkpt lat="43.6152567" lon="11.5032133"><ele>128.66666666666666</ele><time>2026-03-22T08:24:55.226Z</time></trkpt><trkpt lat="43.6152067" lon="11.5031233"><ele>128.83333333333334</ele><time>2026-03-22T08:24:56.228Z</time></trkpt><trkpt lat="43.61516" lon="11.5030317"><ele>129.0</ele><time>2026-03-22T08:24:57.225Z</time></trkpt><trkpt lat="43.6151167" lon="11.50294"><ele>128.66666666666666</ele><time>2026-03-22T08:24:58.224Z</time></trkpt><trkpt lat="43.6150767" lon="11.5028417"><ele>128.33333333333334</ele><time>2026-03-22T08:24:59.225Z</time></trkpt><trkpt lat="43.61504" lon="11.5027417"><ele>128.0</ele><time>2026-03-22T08:25:00.226Z</time></trkpt><trkpt lat="43.615005" lon="11.5026433"><ele>127.66666666666667</ele><time>2026-03-22T08:25:01.226Z</time></trkpt><trkpt lat="43.6149733" lon="11.50254"><ele>127.33333333333334</ele><time>2026-03-22T08:25:02.225Z</time></trkpt><trkpt lat="43.6149467" lon="11.502435"><ele>127.0</ele><time>2026-03-22T08:25:03.225Z</time></trkpt><trkpt lat="43.6149267" lon="11.5023283"><ele>127.00000000000001</ele><time>2026-03-22T08:25:04.225Z</time></trkpt><trkpt lat="43.6149133" lon="11.5022167"><ele>127.0</ele><time>2026-03-22T08:25:05.225Z</time></trkpt><trkpt lat="43.6148983" lon="11.5021067"><ele>127.0</ele><time>2026-03-22T08:25:06.226Z</time></trkpt><trkpt lat="43.614885" lon="11.502"><ele>127.0</ele><time>2026-03-22T08:25:07.227Z</time></trkpt><trkpt lat="43.6148733" lon="11.501895"><ele>127.00000000000001</ele><time>2026-03-22T08:25:08.227Z</time></trkpt><trkpt lat="43.6148617" lon="11.5017817"><ele>127.0</ele><time>2026-03-22T08:25:09.226Z</time></trkpt><trkpt lat="43.6148483" lon="11.5016667"><ele>127.00000000000001</ele><time>2026-03-22T08:25:10.225Z</time></trkpt><trkpt lat="43.61484" lon="11.5015517"><ele>127.0</ele><time>2026-03-22T08:25:11.224Z</time></trkpt><trkpt lat="43.6148383" lon="11.5014383"><ele>127.0</ele><time>2026-03-22T08:25:12.224Z</time></trkpt><trkpt lat="43.61484" lon="11.501325"><ele>127.0</ele><time>2026-03-22T08:25:13.225Z</time></trkpt><trkpt lat="43.6148483" lon="11.5012117"><ele>127.00000000000001</ele><time>2026-03-22T08:25:14.227Z</time></trkpt><trkpt lat="43.614855" lon="11.501095"><ele>127.0</ele><time>2026-03-22T08:25:15.225Z</time></trkpt><trkpt lat="43.614865" lon="11.5009767"><ele>126.83333333333334</ele><time>2026-03-22T08:25:16.225Z</time></trkpt><trkpt lat="43.6148733" lon="11.500865"><ele>126.66666666666667</ele><time>2026-03-22T08:25:17.227Z</time></trkpt><trkpt lat="43.614885" lon="11.5007517"><ele>126.5</ele><time>2026-03-22T08:25:18.227Z</time></trkpt><trkpt lat="43.6149" lon="11.5006383"><ele>126.33333333333334</ele><time>2026-03-22T08:25:19.225Z</time></trkpt><trkpt lat="43.614915" lon="11.5005267"><ele>126.16666666666667</ele><time>2026-03-22T08:25:20.226Z</time></trkpt><trkpt lat="43.614915" lon="11.5004133"><ele>126.0</ele><time>2026-03-22T08:25:21.226Z</time></trkpt><trkpt lat="43.6148983" lon="11.5003033"><ele>125.83333333333333</ele><time>2026-03-22T08:25:22.226Z</time></trkpt><trkpt lat="43.6148633" lon="11.5002017"><ele>125.66666666666666</ele><time>2026-03-22T08:25:23.226Z</time></trkpt><trkpt lat="43.6148217" lon="11.5001133"><ele>125.5</ele><time>2026-03-22T08:25:24.226Z</time></trkpt><trkpt lat="43.6147783" lon="11.500045"><ele>125.33333333333333</ele><time>2026-03-22T08:25:25.226Z</time></trkpt><trkpt lat="43.6147067" lon="11.4999683"><ele>125.16666666666666</ele><time>2026-03-22T08:25:27.227Z</time></trkpt><trkpt lat="43.6146367" lon="11.4999417"><ele>125.0</ele><time>2026-03-22T08:25:30.226Z</time></trkpt><trkpt lat="43.614565" lon="11.499955"><ele>124.99999999999999</ele><time>2026-03-22T08:25:34.225Z</time></trkpt><trkpt lat="43.6145033" lon="11.4999917"><ele>125.0</ele><time>2026-03-22T08:25:37.226Z</time></trkpt><trkpt lat="43.6144133" lon="11.5000183"><ele>125.0</ele><time>2026-03-22T08:25:40.225Z</time></trkpt><trkpt lat="43.6143317" lon="11.50007"><ele>125.0</ele><time>2026-03-22T08:25:43.225Z</time></trkpt><trkpt lat="43.61427" lon="11.5001067"><ele>124.99999999999999</ele><time>2026-03-22T08:25:45.224Z</time></trkpt><trkpt lat="43.614205" lon="11.5001367"><ele>125.0</ele><time>2026-03-22T08:25:47.226Z</time></trkpt><trkpt lat="43.6141367" lon="11.500165"><ele>124.83333333333333</ele><time>2026-03-22T08:25:49.226Z</time></trkpt><trkpt lat="43.6140683" lon="11.5002"><ele>124.66666666666666</ele><time>2026-03-22T08:25:51.227Z</time></trkpt><trkpt lat="43.6139967" lon="11.5002383"><ele>124.5</ele><time>2026-03-22T08:25:53.225Z</time></trkpt><trkpt lat="43.6139133" lon="11.5002733"><ele>124.33333333333334</ele><time>2026-03-22T08:25:55.226Z</time></trkpt><trkpt lat="43.61383" lon="11.5003067"><ele>124.16666666666667</ele><time>2026-03-22T08:25:57.224Z</time></trkpt><trkpt lat="43.6137433" lon="11.500335"><ele>124.0</ele><time>2026-03-22T08:25:59.224Z</time></trkpt><trkpt lat="43.6136417" lon="11.5003717"><ele>124.28571428571429</ele><time>2026-03-22T08:26:01.226Z</time></trkpt><trkpt lat="43.613525" lon="11.5004133"><ele>124.57142857142858</ele><time>2026-03-22T08:26:03.225Z</time></trkpt><trkpt lat="43.613465" lon="11.50044"><ele>124.85714285714286</ele><time>2026-03-22T08:26:04.226Z</time></trkpt><trkpt lat="43.6134033" lon="11.5004683"><ele>125.14285714285714</ele><time>2026-03-22T08:26:05.225Z</time></trkpt><trkpt lat="43.61334" lon="11.50049"><ele>125.42857142857143</ele><time>2026-03-22T08:26:06.225Z</time></trkpt><trkpt lat="43.613275" lon="11.50051"><ele>125.71428571428572</ele><time>2026-03-22T08:26:07.225Z</time></trkpt><trkpt lat="43.6132117" lon="11.5005333"><ele>126.0</ele><time>2026-03-22T08:26:08.225Z</time></trkpt><trkpt lat="43.61315" lon="11.5005583"><ele>126.0</ele><time>2026-03-22T08:26:09.226Z</time></trkpt><trkpt lat="43.6130883" lon="11.5005767"><ele>126.0</ele><time>2026-03-22T08:26:10.227Z</time></trkpt><trkpt lat="43.6130233" lon="11.50059"><ele>126.0</ele><time>2026-03-22T08:26:11.226Z</time></trkpt><trkpt lat="43.61296" lon="11.5006067"><ele>126.0</ele><time>2026-03-22T08:26:12.225Z</time></trkpt><trkpt lat="43.612895" lon="11.500625"><ele>126.0</ele><time>2026-03-22T08:26:13.225Z</time></trkpt><trkpt lat="43.6128267" lon="11.5006433"><ele>126.0</ele><time>2026-03-22T08:26:14.226Z</time></trkpt><trkpt lat="43.6127567" lon="11.50066"><ele>126.0</ele><time>2026-03-22T08:26:15.225Z</time></trkpt><trkpt lat="43.612685" lon="11.50068"><ele>126.0</ele><time>2026-03-22T08:26:16.225Z</time></trkpt><trkpt lat="43.612615" lon="11.5006983"><ele>126.0</ele><time>2026-03-22T08:26:17.226Z</time></trkpt><trkpt lat="43.612545" lon="11.5007183"><ele>126.0</ele><time>2026-03-22T08:26:18.226Z</time></trkpt><trkpt lat="43.6124783" lon="11.5007383"><ele>126.0</ele><time>2026-03-22T08:26:19.226Z</time></trkpt><trkpt lat="43.6124117" lon="11.500755"><ele>126.0</ele><time>2026-03-22T08:26:20.225Z</time></trkpt><trkpt lat="43.6123433" lon="11.5007717"><ele>126.0</ele><time>2026-03-22T08:26:21.225Z</time></trkpt><trkpt lat="43.612275" lon="11.5007867"><ele>126.0</ele><time>2026-03-22T08:26:22.224Z</time></trkpt><trkpt lat="43.6122033" lon="11.5007983"><ele>126.0</ele><time>2026-03-22T08:26:23.225Z</time></trkpt><trkpt lat="43.612135" lon="11.5008133"><ele>126.0</ele><time>2026-03-22T08:26:24.224Z</time></trkpt><trkpt lat="43.6120683" lon="11.5008333"><ele>126.0</ele><time>2026-03-22T08:26:25.226Z</time></trkpt><trkpt lat="43.6120033" lon="11.5008533"><ele>126.0</ele><time>2026-03-22T08:26:26.226Z</time></trkpt><trkpt lat="43.6119367" lon="11.5008733"><ele>126.0</ele><time>2026-03-22T08:26:27.225Z</time></trkpt><trkpt lat="43.61187" lon="11.5008917"><ele>126.0</ele><time>2026-03-22T08:26:28.225Z</time></trkpt><trkpt lat="43.611805" lon="11.5009167"><ele>126.0</ele><time>2026-03-22T08:26:29.225Z</time></trkpt><trkpt lat="43.6117383" lon="11.5009417"><ele>125.71428571428572</ele><time>2026-03-22T08:26:30.225Z</time></trkpt><trkpt lat="43.611665" lon="11.5009667"><ele>125.42857142857143</ele><time>2026-03-22T08:26:31.225Z</time></trkpt><trkpt lat="43.6115917" lon="11.500985"><ele>125.14285714285714</ele><time>2026-03-22T08:26:32.225Z</time></trkpt><trkpt lat="43.6115183" lon="11.5010067"><ele>124.85714285714286</ele><time>2026-03-22T08:26:33.225Z</time></trkpt><trkpt lat="43.6114433" lon="11.5010267"><ele>124.57142857142858</ele><time>2026-03-22T08:26:34.226Z</time></trkpt><trkpt lat="43.6113733" lon="11.5010517"><ele>124.28571428571429</ele><time>2026-03-22T08:26:35.225Z</time></trkpt><trkpt lat="43.6113017" lon="11.5010733"><ele>124.0</ele><time>2026-03-22T08:26:36.225Z</time></trkpt><trkpt lat="43.61123" lon="11.5011017"><ele>124.00000000000001</ele><time>2026-03-22T08:26:37.228Z</time></trkpt><trkpt lat="43.6111617" lon="11.5011367"><ele>124.0</ele><time>2026-03-22T08:26:38.225Z</time></trkpt><trkpt lat="43.6110917" lon="11.5011733"><ele>124.0</ele><time>2026-03-22T08:26:39.226Z</time></trkpt><trkpt lat="43.6110167" lon="11.50121"><ele>124.0</ele><time>2026-03-22T08:26:40.226Z</time></trkpt><trkpt lat="43.6109467" lon="11.50124"><ele>124.00000000000001</ele><time>2026-03-22T08:26:41.226Z</time></trkpt><trkpt lat="43.610875" lon="11.50128"><ele>124.0</ele><time>2026-03-22T08:26:42.226Z</time></trkpt><trkpt lat="43.610805" lon="11.50132"><ele>124.50000000000001</ele><time>2026-03-22T08:26:43.225Z</time></trkpt><trkpt lat="43.6107383" lon="11.5013617"><ele>125.0</ele><time>2026-03-22T08:26:44.226Z</time></trkpt><trkpt lat="43.6106683" lon="11.5014033"><ele>125.5</ele><time>2026-03-22T08:26:45.227Z</time></trkpt><trkpt lat="43.6106" lon="11.5014433"><ele>126.0</ele><time>2026-03-22T08:26:46.224Z</time></trkpt><trkpt lat="43.61053" lon="11.501485"><ele>126.50000000000001</ele><time>2026-03-22T08:26:47.226Z</time></trkpt><trkpt lat="43.610455" lon="11.5015267"><ele>127.0</ele><time>2026-03-22T08:26:48.225Z</time></trkpt><trkpt lat="43.6103833" lon="11.5015617"><ele>126.85714285714286</ele><time>2026-03-22T08:26:49.225Z</time></trkpt><trkpt lat="43.6103133" lon="11.5015917"><ele>126.71428571428571</ele><time>2026-03-22T08:26:50.225Z</time></trkpt><trkpt lat="43.6102433" lon="11.5016217"><ele>126.57142857142857</ele><time>2026-03-22T08:26:51.226Z</time></trkpt><trkpt lat="43.6101767" lon="11.5016533"><ele>126.42857142857143</ele><time>2026-03-22T08:26:52.225Z</time></trkpt><trkpt lat="43.61011" lon="11.5016867"><ele>126.28571428571428</ele><time>2026-03-22T08:26:53.225Z</time></trkpt><trkpt lat="43.610045" lon="11.501725"><ele>126.14285714285714</ele><time>2026-03-22T08:26:54.224Z</time></trkpt><trkpt lat="43.6099833" lon="11.5017667"><ele>126.0</ele><time>2026-03-22T08:26:55.225Z</time></trkpt><trkpt lat="43.609915" lon="11.5018033"><ele>126.0</ele><time>2026-03-22T08:26:56.225Z</time></trkpt><trkpt lat="43.6098483" lon="11.50184"><ele>126.0</ele><time>2026-03-22T08:26:57.225Z</time></trkpt><trkpt lat="43.60978" lon="11.501875"><ele>126.0</ele><time>2026-03-22T08:26:58.223Z</time></trkpt><trkpt lat="43.6097133" lon="11.5019083"><ele>126.0</ele><time>2026-03-22T08:26:59.226Z</time></trkpt><trkpt lat="43.609645" lon="11.5019467"><ele>126.0</ele><time>2026-03-22T08:27:00.228Z</time></trkpt><trkpt lat="43.609575" lon="11.5019817"><ele>126.0</ele><time>2026-03-22T08:27:01.226Z</time></trkpt><trkpt lat="43.6095083" lon="11.5020133"><ele>126.0</ele><time>2026-03-22T08:27:02.228Z</time></trkpt><trkpt lat="43.6094383" lon="11.5020467"><ele>126.14285714285714</ele><time>2026-03-22T08:27:03.226Z</time></trkpt><trkpt lat="43.60937" lon="11.50209"><ele>126.28571428571428</ele><time>2026-03-22T08:27:04.225Z</time></trkpt><trkpt lat="43.6093" lon="11.5021283"><ele>126.42857142857143</ele><time>2026-03-22T08:27:05.225Z</time></trkpt><trkpt lat="43.6092333" lon="11.50217"><ele>126.57142857142857</ele><time>2026-03-22T08:27:06.226Z</time></trkpt><trkpt lat="43.60917" lon="11.5022167"><ele>126.71428571428571</ele><time>2026-03-22T08:27:07.225Z</time></trkpt><trkpt lat="43.6091033" lon="11.5022717"><ele>126.85714285714286</ele><time>2026-03-22T08:27:08.226Z</time></trkpt><trkpt lat="43.6090483" lon="11.50233"><ele>127.0</ele><time>2026-03-22T08:27:09.226Z</time></trkpt><trkpt lat="43.6089933" lon="11.50239"><ele>127.0</ele><time>2026-03-22T08:27:10.225Z</time></trkpt><trkpt lat="43.6089367" lon="11.5024567"><ele>127.0</ele><time>2026-03-22T08:27:11.225Z</time></trkpt><trkpt lat="43.6088833" lon="11.5025183"><ele>127.0</ele><time>2026-03-22T08:27:12.226Z</time></trkpt><trkpt lat="43.6088317" lon="11.5025833"><ele>127.0</ele><time>2026-03-22T08:27:13.226Z</time></trkpt><trkpt lat="43.6087833" lon="11.502645"><ele>127.0</ele><time>2026-03-22T08:27:14.226Z</time></trkpt><trkpt lat="43.6087283" lon="11.502705"><ele>127.0</ele><time>2026-03-22T08:27:15.225Z</time></trkpt><trkpt lat="43.6086667" lon="11.50276"><ele>127.0</ele><time>2026-03-22T08:27:16.225Z</time></trkpt><trkpt lat="43.6086083" lon="11.50282"><ele>127.0</ele><time>2026-03-22T08:27:17.223Z</time></trkpt><trkpt lat="43.608545" lon="11.502875"><ele>127.0</ele><time>2026-03-22T08:27:18.225Z</time></trkpt><trkpt lat="43.608485" lon="11.50293"><ele>127.0</ele><time>2026-03-22T08:27:19.227Z</time></trkpt><trkpt lat="43.6084267" lon="11.5029867"><ele>127.0</ele><time>2026-03-22T08:27:20.225Z</time></trkpt><trkpt lat="43.6083683" lon="11.5030383"><ele>127.0</ele><time>2026-03-22T08:27:21.226Z</time></trkpt><trkpt lat="43.6083083" lon="11.503085"><ele>127.0</ele><time>2026-03-22T08:27:22.225Z</time></trkpt><trkpt lat="43.608245" lon="11.503135"><ele>127.0</ele><time>2026-03-22T08:27:23.225Z</time></trkpt><trkpt lat="43.6081817" lon="11.50319"><ele>127.0</ele><time>2026-03-22T08:27:24.225Z</time></trkpt><trkpt lat="43.6081233" lon="11.5032467"><ele>127.0</ele><time>2026-03-22T08:27:25.227Z</time></trkpt><trkpt lat="43.6080633" lon="11.5033"><ele>127.0</ele><time>2026-03-22T08:27:26.225Z</time></trkpt><trkpt lat="43.6080033" lon="11.5033417"><ele>127.0</ele><time>2026-03-22T08:27:27.227Z</time></trkpt><trkpt lat="43.60794" lon="11.50338"><ele>127.0</ele><time>2026-03-22T08:27:28.227Z</time></trkpt><trkpt lat="43.6078733" lon="11.5034133"><ele>127.0</ele><time>2026-03-22T08:27:29.226Z</time></trkpt><trkpt lat="43.6078033" lon="11.5034367"><ele>127.0</ele><time>2026-03-22T08:27:30.226Z</time></trkpt><trkpt lat="43.6077333" lon="11.5034533"><ele>127.42857142857143</ele><time>2026-03-22T08:27:31.225Z</time></trkpt><trkpt lat="43.607665" lon="11.5034633"><ele>127.85714285714286</ele><time>2026-03-22T08:27:32.228Z</time></trkpt><trkpt lat="43.6075917" lon="11.5034717"><ele>128.28571428571428</ele><time>2026-03-22T08:27:33.228Z</time></trkpt><trkpt lat="43.6075133" lon="11.5034783"><ele>128.71428571428572</ele><time>2026-03-22T08:27:34.225Z</time></trkpt><trkpt lat="43.6074433" lon="11.5034883"><ele>129.14285714285714</ele><time>2026-03-22T08:27:35.226Z</time></trkpt><trkpt lat="43.6073733" lon="11.5034983"><ele>129.57142857142858</ele><time>2026-03-22T08:27:36.224Z</time></trkpt><trkpt lat="43.6073" lon="11.5035067"><ele>130.0</ele><time>2026-03-22T08:27:37.223Z</time></trkpt><trkpt lat="43.60723" lon="11.503515"><ele>130.0</ele><time>2026-03-22T08:27:38.224Z</time></trkpt><trkpt lat="43.6071583" lon="11.5035217"><ele>130.0</ele><time>2026-03-22T08:27:39.224Z</time></trkpt><trkpt lat="43.6070833" lon="11.50353"><ele>130.0</ele><time>2026-03-22T08:27:40.223Z</time></trkpt><trkpt lat="43.60701" lon="11.503545"><ele>130.0</ele><time>2026-03-22T08:27:41.224Z</time></trkpt><trkpt lat="43.606935" lon="11.5035567"><ele>130.0</ele><time>2026-03-22T08:27:42.225Z</time></trkpt><trkpt lat="43.6068617" lon="11.5035683"><ele>130.0</ele><time>2026-03-22T08:27:43.224Z</time></trkpt><trkpt lat="43.6067833" lon="11.5035833"><ele>129.83333333333334</ele><time>2026-03-22T08:27:44.227Z</time></trkpt><trkpt lat="43.6067083" lon="11.5036117"><ele>129.66666666666669</ele><time>2026-03-22T08:27:45.226Z</time></trkpt><trkpt lat="43.6066367" lon="11.5036467"><ele>129.5</ele><time>2026-03-22T08:27:46.225Z</time></trkpt><trkpt lat="43.6065633" lon="11.5036967"><ele>129.33333333333334</ele><time>2026-03-22T08:27:47.225Z</time></trkpt><trkpt lat="43.6064933" lon="11.50375"><ele>129.16666666666666</ele><time>2026-03-22T08:27:48.229Z</time></trkpt><trkpt lat="43.6064183" lon="11.5038017"><ele>129.0</ele><time>2026-03-22T08:27:49.227Z</time></trkpt><trkpt lat="43.6063483" lon="11.5038583"><ele>129.33333333333334</ele><time>2026-03-22T08:27:50.226Z</time></trkpt><trkpt lat="43.6062783" lon="11.5039133"><ele>129.66666666666666</ele><time>2026-03-22T08:27:51.226Z</time></trkpt><trkpt lat="43.606215" lon="11.5039733"><ele>130.0</ele><time>2026-03-22T08:27:52.226Z</time></trkpt><trkpt lat="43.6061567" lon="11.5040283"><ele>130.33333333333331</ele><time>2026-03-22T08:27:53.225Z</time></trkpt><trkpt lat="43.6060917" lon="11.5040833"><ele>130.66666666666666</ele><time>2026-03-22T08:27:54.224Z</time></trkpt><trkpt lat="43.606025" lon="11.504145"><ele>131.0</ele><time>2026-03-22T08:27:55.226Z</time></trkpt><trkpt lat="43.6059633" lon="11.5042067"><ele>131.0</ele><time>2026-03-22T08:27:56.226Z</time></trkpt><trkpt lat="43.6059033" lon="11.5042683"><ele>131.0</ele><time>2026-03-22T08:27:57.227Z</time></trkpt><trkpt lat="43.6058417" lon="11.50433"><ele>131.0</ele><time>2026-03-22T08:27:58.226Z</time></trkpt><trkpt lat="43.6057833" lon="11.5043917"><ele>131.0</ele><time>2026-03-22T08:27:59.225Z</time></trkpt><trkpt lat="43.6057267" lon="11.5044583"><ele>131.0</ele><time>2026-03-22T08:28:00.227Z</time></trkpt><trkpt lat="43.6056683" lon="11.5045267"><ele>131.0</ele><time>2026-03-22T08:28:01.225Z</time></trkpt><trkpt lat="43.60561" lon="11.5045983"><ele>130.57142857142858</ele><time>2026-03-22T08:28:02.228Z</time></trkpt><trkpt lat="43.6055583" lon="11.5046683"><ele>130.14285714285717</ele><time>2026-03-22T08:28:03.226Z</time></trkpt><trkpt lat="43.60551" lon="11.504745"><ele>129.71428571428572</ele><time>2026-03-22T08:28:04.227Z</time></trkpt><trkpt lat="43.605455" lon="11.5048183"><ele>129.28571428571428</ele><time>2026-03-22T08:28:05.228Z</time></trkpt><trkpt lat="43.6054" lon="11.504885"><ele>128.85714285714283</ele><time>2026-03-22T08:28:06.226Z</time></trkpt><trkpt lat="43.605345" lon="11.5049567"><ele>128.42857142857142</ele><time>2026-03-22T08:28:07.226Z</time></trkpt><trkpt lat="43.6052883" lon="11.5050283"><ele>128.0</ele><time>2026-03-22T08:28:08.225Z</time></trkpt><trkpt lat="43.6052367" lon="11.5051"><ele>128.0</ele><time>2026-03-22T08:28:09.225Z</time></trkpt><trkpt lat="43.6051833" lon="11.50517"><ele>127.99999999999999</ele><time>2026-03-22T08:28:10.225Z</time></trkpt><trkpt lat="43.60513" lon="11.5052417"><ele>128.0</ele><time>2026-03-22T08:28:11.226Z</time></trkpt><trkpt lat="43.6050783" lon="11.505315"><ele>128.0</ele><time>2026-03-22T08:28:12.224Z</time></trkpt><trkpt lat="43.6050267" lon="11.50539"><ele>127.99999999999999</ele><time>2026-03-22T08:28:13.224Z</time></trkpt><trkpt lat="43.6049733" lon="11.505465"><ele>128.0</ele><time>2026-03-22T08:28:14.223Z</time></trkpt><trkpt lat="43.604925" lon="11.5055383"><ele>128.0</ele><time>2026-03-22T08:28:15.227Z</time></trkpt><trkpt lat="43.6048733" lon="11.5056133"><ele>129.16666666666666</ele><time>2026-03-22T08:28:16.225Z</time></trkpt><trkpt lat="43.6048183" lon="11.5056867"><ele>130.33333333333331</ele><time>2026-03-22T08:28:17.227Z</time></trkpt><trkpt lat="43.6047633" lon="11.5057617"><ele>131.5</ele><time>2026-03-22T08:28:18.225Z</time></trkpt><trkpt lat="43.60471" lon="11.5058367"><ele>132.66666666666666</ele><time>2026-03-22T08:28:19.226Z</time></trkpt><trkpt lat="43.6046567" lon="11.50591"><ele>133.83333333333334</ele><time>2026-03-22T08:28:20.225Z</time></trkpt><trkpt lat="43.6046033" lon="11.50598"><ele>135.0</ele><time>2026-03-22T08:28:21.228Z</time></trkpt><trkpt lat="43.6045467" lon="11.50605"><ele>133.83333333333334</ele><time>2026-03-22T08:28:22.226Z</time></trkpt><trkpt lat="43.604495" lon="11.5061267"><ele>132.66666666666666</ele><time>2026-03-22T08:28:23.225Z</time></trkpt><trkpt lat="43.6044483" lon="11.5062083"><ele>131.5</ele><time>2026-03-22T08:28:24.225Z</time></trkpt><trkpt lat="43.6044067" lon="11.5063"><ele>130.33333333333331</ele><time>2026-03-22T08:28:25.226Z</time></trkpt><trkpt lat="43.6043683" lon="11.5063933"><ele>129.16666666666666</ele><time>2026-03-22T08:28:26.225Z</time></trkpt><trkpt lat="43.6043367" lon="11.5064833"><ele>128.0</ele><time>2026-03-22T08:28:27.226Z</time></trkpt><trkpt lat="43.604305" lon="11.5065783"><ele>128.0</ele><time>2026-03-22T08:28:28.227Z</time></trkpt><trkpt lat="43.6042833" lon="11.5066733"><ele>127.99999999999999</ele><time>2026-03-22T08:28:29.226Z</time></trkpt><trkpt lat="43.6042617" lon="11.5067683"><ele>128.0</ele><time>2026-03-22T08:28:30.228Z</time></trkpt><trkpt lat="43.6042417" lon="11.506865"><ele>128.0</ele><time>2026-03-22T08:28:31.225Z</time></trkpt><trkpt lat="43.6042267" lon="11.50696"><ele>127.99999999999999</ele><time>2026-03-22T08:28:32.227Z</time></trkpt><trkpt lat="43.6042117" lon="11.5070567"><ele>128.0</ele><time>2026-03-22T08:28:33.233Z</time></trkpt><trkpt lat="43.6041933" lon="11.5071533"><ele>128.0</ele><time>2026-03-22T08:28:34.226Z</time></trkpt><trkpt lat="43.6041783" lon="11.5072517"><ele>128.42857142857142</ele><time>2026-03-22T08:28:35.226Z</time></trkpt><trkpt lat="43.6041633" lon="11.5073467"><ele>128.85714285714283</ele><time>2026-03-22T08:28:36.225Z</time></trkpt><trkpt lat="43.6041433" lon="11.5074433"><ele>129.28571428571428</ele><time>2026-03-22T08:28:37.225Z</time></trkpt><trkpt lat="43.604125" lon="11.5075367"><ele>129.71428571428572</ele><time>2026-03-22T08:28:38.228Z</time></trkpt><trkpt lat="43.604105" lon="11.5076283"><ele>130.14285714285717</ele><time>2026-03-22T08:28:39.226Z</time></trkpt><trkpt lat="43.604085" lon="11.5077217"><ele>130.57142857142858</ele><time>2026-03-22T08:28:40.227Z</time></trkpt><trkpt lat="43.6040617" lon="11.5078117"><ele>131.0</ele><time>2026-03-22T08:28:41.226Z</time></trkpt><trkpt lat="43.604035" lon="11.5079017"><ele>131.14285714285714</ele><time>2026-03-22T08:28:42.225Z</time></trkpt><trkpt lat="43.60401" lon="11.507995"><ele>131.2857142857143</ele><time>2026-03-22T08:28:43.227Z</time></trkpt><trkpt lat="43.6039817" lon="11.5080867"><ele>131.42857142857144</ele><time>2026-03-22T08:28:44.227Z</time></trkpt><trkpt lat="43.6039567" lon="11.5081833"><ele>131.57142857142858</ele><time>2026-03-22T08:28:45.226Z</time></trkpt><trkpt lat="43.60393" lon="11.50828"><ele>131.71428571428572</ele><time>2026-03-22T08:28:46.225Z</time></trkpt><trkpt lat="43.6038967" lon="11.5083733"><ele>131.85714285714286</ele><time>2026-03-22T08:28:47.225Z</time></trkpt><trkpt lat="43.603865" lon="11.5084667"><ele>132.0</ele><time>2026-03-22T08:28:48.227Z</time></trkpt><trkpt lat="43.6038283" lon="11.5085567"><ele>132.0</ele><time>2026-03-22T08:28:49.226Z</time></trkpt><trkpt lat="43.6037833" lon="11.5086467"><ele>132.0</ele><time>2026-03-22T08:28:50.225Z</time></trkpt><trkpt lat="43.6037417" lon="11.5087283"><ele>132.0</ele><time>2026-03-22T08:28:51.227Z</time></trkpt><trkpt lat="43.603695" lon="11.508805"><ele>132.0</ele><time>2026-03-22T08:28:52.225Z</time></trkpt><trkpt lat="43.60365" lon="11.508875"><ele>132.0</ele><time>2026-03-22T08:28:53.227Z</time></trkpt><trkpt lat="43.6035983" lon="11.5089417"><ele>132.0</ele><time>2026-03-22T08:28:54.224Z</time></trkpt><trkpt lat="43.6035433" lon="11.5090033"><ele>132.0</ele><time>2026-03-22T08:28:55.226Z</time></trkpt><trkpt lat="43.603485" lon="11.5090717"><ele>131.71428571428572</ele><time>2026-03-22T08:28:56.227Z</time></trkpt><trkpt lat="43.6034233" lon="11.5091417"><ele>131.42857142857144</ele><time>2026-03-22T08:28:57.225Z</time></trkpt><trkpt lat="43.603365" lon="11.509205"><ele>131.14285714285717</ele><time>2026-03-22T08:28:58.225Z</time></trkpt><trkpt lat="43.6033117" lon="11.50927"><ele>130.85714285714286</ele><time>2026-03-22T08:28:59.225Z</time></trkpt><trkpt lat="43.6032633" lon="11.509345"><ele>130.57142857142858</ele><time>2026-03-22T08:29:00.225Z</time></trkpt><trkpt lat="43.6032183" lon="11.509425"><ele>130.2857142857143</ele><time>2026-03-22T08:29:01.226Z</time></trkpt><trkpt lat="43.60318" lon="11.5095083"><ele>130.0</ele><time>2026-03-22T08:29:02.226Z</time></trkpt><trkpt lat="43.6031417" lon="11.509595"><ele>130.85714285714286</ele><time>2026-03-22T08:29:03.225Z</time></trkpt><trkpt lat="43.6031133" lon="11.50968"><ele>131.71428571428572</ele><time>2026-03-22T08:29:04.226Z</time></trkpt><trkpt lat="43.603085" lon="11.5097667"><ele>132.57142857142856</ele><time>2026-03-22T08:29:05.225Z</time></trkpt><trkpt lat="43.60305" lon="11.509855"><ele>133.42857142857144</ele><time>2026-03-22T08:29:06.225Z</time></trkpt><trkpt lat="43.6030117" lon="11.5099417"><ele>134.28571428571428</ele><time>2026-03-22T08:29:07.225Z</time></trkpt><trkpt lat="43.6029717" lon="11.510025"><ele>135.14285714285714</ele><time>2026-03-22T08:29:08.226Z</time></trkpt><trkpt lat="43.6029317" lon="11.510105"><ele>136.0</ele><time>2026-03-22T08:29:09.225Z</time></trkpt><trkpt lat="43.6028983" lon="11.5101833"><ele>135.99999999999997</ele><time>2026-03-22T08:29:10.226Z</time></trkpt><trkpt lat="43.6028617" lon="11.51026"><ele>136.0</ele><time>2026-03-22T08:29:11.225Z</time></trkpt><trkpt lat="43.6028217" lon="11.51033"><ele>136.0</ele><time>2026-03-22T08:29:12.226Z</time></trkpt><trkpt lat="43.6027767" lon="11.5103967"><ele>136.0</ele><time>2026-03-22T08:29:13.228Z</time></trkpt><trkpt lat="43.6027233" lon="11.5104583"><ele>136.0</ele><time>2026-03-22T08:29:14.225Z</time></trkpt><trkpt lat="43.602665" lon="11.510515"><ele>135.99999999999997</ele><time>2026-03-22T08:29:15.226Z</time></trkpt><trkpt lat="43.6026033" lon="11.5105683"><ele>136.0</ele><time>2026-03-22T08:29:16.225Z</time></trkpt><trkpt lat="43.6025433" lon="11.51062"><ele>135.28571428571428</ele><time>2026-03-22T08:29:17.224Z</time></trkpt><trkpt lat="43.6024817" lon="11.5106733"><ele>134.57142857142856</ele><time>2026-03-22T08:29:18.225Z</time></trkpt><trkpt lat="43.6024183" lon="11.5107233"><ele>133.85714285714286</ele><time>2026-03-22T08:29:19.228Z</time></trkpt><trkpt lat="43.6023567" lon="11.51077"><ele>133.14285714285714</ele><time>2026-03-22T08:29:20.226Z</time></trkpt><trkpt lat="43.602295" lon="11.510815"><ele>132.42857142857144</ele><time>2026-03-22T08:29:21.226Z</time></trkpt><trkpt lat="43.6022367" lon="11.5108633"><ele>131.71428571428572</ele><time>2026-03-22T08:29:22.225Z</time></trkpt><trkpt lat="43.6021733" lon="11.5109117"><ele>131.0</ele><time>2026-03-22T08:29:23.226Z</time></trkpt><trkpt lat="43.60211" lon="11.5109633"><ele>131.0</ele><time>2026-03-22T08:29:24.225Z</time></trkpt><trkpt lat="43.60205" lon="11.5110117"><ele>131.0</ele><time>2026-03-22T08:29:25.226Z</time></trkpt><trkpt lat="43.60199" lon="11.5110617"><ele>131.0</ele><time>2026-03-22T08:29:26.225Z</time></trkpt><trkpt lat="43.601935" lon="11.5111133"><ele>131.0</ele><time>2026-03-22T08:29:27.225Z</time></trkpt><trkpt lat="43.601875" lon="11.5111617"><ele>131.0</ele><time>2026-03-22T08:29:28.225Z</time></trkpt><trkpt lat="43.6018183" lon="11.5112067"><ele>131.0</ele><time>2026-03-22T08:29:29.226Z</time></trkpt><trkpt lat="43.60176" lon="11.5112533"><ele>131.0</ele><time>2026-03-22T08:29:30.226Z</time></trkpt><trkpt lat="43.6016983" lon="11.5112983"><ele>131.14285714285714</ele><time>2026-03-22T08:29:31.225Z</time></trkpt><trkpt lat="43.6016333" lon="11.5113433"><ele>131.2857142857143</ele><time>2026-03-22T08:29:32.227Z</time></trkpt><trkpt lat="43.6015733" lon="11.51139"><ele>131.42857142857144</ele><time>2026-03-22T08:29:33.227Z</time></trkpt><trkpt lat="43.6015083" lon="11.5114367"><ele>131.57142857142858</ele><time>2026-03-22T08:29:34.228Z</time></trkpt><trkpt lat="43.6014467" lon="11.5114817"><ele>131.71428571428572</ele><time>2026-03-22T08:29:35.225Z</time></trkpt><trkpt lat="43.6013917" lon="11.51153"><ele>131.85714285714286</ele><time>2026-03-22T08:29:36.227Z</time></trkpt><trkpt lat="43.6013333" lon="11.51158"><ele>132.0</ele><time>2026-03-22T08:29:37.226Z</time></trkpt><trkpt lat="43.6012767" lon="11.5116333"><ele>132.0</ele><time>2026-03-22T08:29:38.227Z</time></trkpt><trkpt lat="43.60122" lon="11.5116883"><ele>132.0</ele><time>2026-03-22T08:29:39.225Z</time></trkpt><trkpt lat="43.6011667" lon="11.5117483"><ele>132.0</ele><time>2026-03-22T08:29:40.225Z</time></trkpt><trkpt lat="43.6011167" lon="11.51181"><ele>132.0</ele><time>2026-03-22T08:29:41.225Z</time></trkpt><trkpt lat="43.60107" lon="11.5118733"><ele>132.0</ele><time>2026-03-22T08:29:42.225Z</time></trkpt><trkpt lat="43.6010233" lon="11.5119367"><ele>132.0</ele><time>2026-03-22T08:29:43.226Z</time></trkpt><trkpt lat="43.6009767" lon="11.512"><ele>132.0</ele><time>2026-03-22T08:29:44.226Z</time></trkpt><trkpt lat="43.60093" lon="11.51207"><ele>132.28571428571428</ele><time>2026-03-22T08:29:45.227Z</time></trkpt><trkpt lat="43.600885" lon="11.51214"><ele>132.57142857142858</ele><time>2026-03-22T08:29:46.225Z</time></trkpt><trkpt lat="43.6008383" lon="11.5122117"><ele>132.85714285714286</ele><time>2026-03-22T08:29:47.225Z</time></trkpt><trkpt lat="43.60079" lon="11.5122817"><ele>133.14285714285714</ele><time>2026-03-22T08:29:48.226Z</time></trkpt><trkpt lat="43.6007467" lon="11.51235"><ele>133.42857142857142</ele><time>2026-03-22T08:29:49.227Z</time></trkpt><trkpt lat="43.6007" lon="11.512415"><ele>133.71428571428572</ele><time>2026-03-22T08:29:50.227Z</time></trkpt><trkpt lat="43.6006483" lon="11.5124783"><ele>134.0</ele><time>2026-03-22T08:29:51.227Z</time></trkpt><trkpt lat="43.6005983" lon="11.5125367"><ele>134.0</ele><time>2026-03-22T08:29:52.225Z</time></trkpt><trkpt lat="43.6005433" lon="11.5125933"><ele>134.0</ele><time>2026-03-22T08:29:53.225Z</time></trkpt><trkpt lat="43.6004883" lon="11.5126467"><ele>134.0</ele><time>2026-03-22T08:29:54.227Z</time></trkpt><trkpt lat="43.60043" lon="11.5126967"><ele>134.0</ele><time>2026-03-22T08:29:55.225Z</time></trkpt><trkpt lat="43.60037" lon="11.51275"><ele>134.0</ele><time>2026-03-22T08:29:56.226Z</time></trkpt><trkpt lat="43.6003167" lon="11.512805"><ele>134.0</ele><time>2026-03-22T08:29:57.226Z</time></trkpt><trkpt lat="43.60026" lon="11.5128617"><ele>134.0</ele><time>2026-03-22T08:29:58.225Z</time></trkpt><trkpt lat="43.6001983" lon="11.5129183"><ele>134.14285714285714</ele><time>2026-03-22T08:29:59.226Z</time></trkpt><trkpt lat="43.60014" lon="11.512975"><ele>134.28571428571428</ele><time>2026-03-22T08:30:00.225Z</time></trkpt><trkpt lat="43.600085" lon="11.5130333"><ele>134.42857142857142</ele><time>2026-03-22T08:30:01.228Z</time></trkpt><trkpt lat="43.6000233" lon="11.5130883"><ele>134.57142857142856</ele><time>2026-03-22T08:30:02.225Z</time></trkpt><trkpt lat="43.5999633" lon="11.5131433"><ele>134.7142857142857</ele><time>2026-03-22T08:30:03.227Z</time></trkpt><trkpt lat="43.5999083" lon="11.5131983"><ele>134.85714285714286</ele><time>2026-03-22T08:30:04.225Z</time></trkpt><trkpt lat="43.599855" lon="11.5132533"><ele>135.0</ele><time>2026-03-22T08:30:05.224Z</time></trkpt><trkpt lat="43.5998" lon="11.5133117"><ele>135.0</ele><time>2026-03-22T08:30:06.224Z</time></trkpt><trkpt lat="43.5997467" lon="11.513365"><ele>135.0</ele><time>2026-03-22T08:30:07.224Z</time></trkpt><trkpt lat="43.5996883" lon="11.5134183"><ele>135.0</ele><time>2026-03-22T08:30:08.223Z</time></trkpt><trkpt lat="43.5996267" lon="11.5134667"><ele>135.0</ele><time>2026-03-22T08:30:09.225Z</time></trkpt><trkpt lat="43.5995667" lon="11.5135233"><ele>135.0</ele><time>2026-03-22T08:30:10.224Z</time></trkpt><trkpt lat="43.5995067" lon="11.51358"><ele>135.0</ele><time>2026-03-22T08:30:11.225Z</time></trkpt><trkpt lat="43.5994433" lon="11.5136317"><ele>135.0</ele><time>2026-03-22T08:30:12.225Z</time></trkpt><trkpt lat="43.59938" lon="11.5136817"><ele>135.4</ele><time>2026-03-22T08:30:13.227Z</time></trkpt><trkpt lat="43.59932" lon="11.5137283"><ele>135.8</ele><time>2026-03-22T08:30:14.226Z</time></trkpt><trkpt lat="43.59921" lon="11.5138183"><ele>136.2</ele><time>2026-03-22T08:30:16.226Z</time></trkpt><trkpt lat="43.5991517" lon="11.5138633"><ele>136.6</ele><time>2026-03-22T08:30:17.227Z</time></trkpt><trkpt lat="43.5990467" lon="11.5139667"><ele>137.0</ele><time>2026-03-22T08:30:19.225Z</time></trkpt><trkpt lat="43.5989883" lon="11.5140183"><ele>137.00000000000003</ele><time>2026-03-22T08:30:20.225Z</time></trkpt><trkpt lat="43.5989267" lon="11.5140683"><ele>137.0</ele><time>2026-03-22T08:30:21.227Z</time></trkpt><trkpt lat="43.5988633" lon="11.5141167"><ele>137.0</ele><time>2026-03-22T08:30:22.223Z</time></trkpt><trkpt lat="43.5987967" lon="11.5141583"><ele>137.0</ele><time>2026-03-22T08:30:23.225Z</time></trkpt><trkpt lat="43.5987283" lon="11.5141933"><ele>137.0</ele><time>2026-03-22T08:30:24.225Z</time></trkpt><trkpt lat="43.5986667" lon="11.5142317"><ele>137.00000000000003</ele><time>2026-03-22T08:30:25.227Z</time></trkpt><trkpt lat="43.5986067" lon="11.514275"><ele>137.0</ele><time>2026-03-22T08:30:26.225Z</time></trkpt><trkpt lat="43.59855" lon="11.5143217"><ele>136.85714285714286</ele><time>2026-03-22T08:30:27.227Z</time></trkpt><trkpt lat="43.5984917" lon="11.5143717"><ele>136.71428571428572</ele><time>2026-03-22T08:30:28.227Z</time></trkpt><trkpt lat="43.5984333" lon="11.514425"><ele>136.57142857142856</ele><time>2026-03-22T08:30:29.227Z</time></trkpt><trkpt lat="43.59837" lon="11.5144733"><ele>136.42857142857144</ele><time>2026-03-22T08:30:30.226Z</time></trkpt><trkpt lat="43.59832" lon="11.51453"><ele>136.28571428571428</ele><time>2026-03-22T08:30:31.225Z</time></trkpt><trkpt lat="43.5982683" lon="11.514585"><ele>136.14285714285714</ele><time>2026-03-22T08:30:32.226Z</time></trkpt><trkpt lat="43.5982117" lon="11.5146417"><ele>136.0</ele><time>2026-03-22T08:30:33.226Z</time></trkpt><trkpt lat="43.5981533" lon="11.5146983"><ele>135.99999999999997</ele><time>2026-03-22T08:30:34.225Z</time></trkpt><trkpt lat="43.5980983" lon="11.5147567"><ele>136.0</ele><time>2026-03-22T08:30:35.225Z</time></trkpt><trkpt lat="43.5980383" lon="11.514815"><ele>136.0</ele><time>2026-03-22T08:30:36.226Z</time></trkpt><trkpt lat="43.5979833" lon="11.5148733"><ele>136.0</ele><time>2026-03-22T08:30:37.226Z</time></trkpt><trkpt lat="43.5979333" lon="11.5149317"><ele>136.0</ele><time>2026-03-22T08:30:38.227Z</time></trkpt><trkpt lat="43.59788" lon="11.5149883"><ele>135.99999999999997</ele><time>2026-03-22T08:30:39.226Z</time></trkpt><trkpt lat="43.5978283" lon="11.515045"><ele>136.0</ele><time>2026-03-22T08:30:40.224Z</time></trkpt><trkpt lat="43.5977733" lon="11.5150983"><ele>135.57142857142856</ele><time>2026-03-22T08:30:41.226Z</time></trkpt><trkpt lat="43.5977133" lon="11.5151533"><ele>135.14285714285714</ele><time>2026-03-22T08:30:42.225Z</time></trkpt><trkpt lat="43.5976533" lon="11.5152083"><ele>134.71428571428572</ele><time>2026-03-22T08:30:43.225Z</time></trkpt><trkpt lat="43.5975883" lon="11.51526"><ele>134.28571428571428</ele><time>2026-03-22T08:30:44.226Z</time></trkpt><trkpt lat="43.5975283" lon="11.5153183"><ele>133.85714285714286</ele><time>2026-03-22T08:30:45.226Z</time></trkpt><trkpt lat="43.5974717" lon="11.515375"><ele>133.42857142857142</ele><time>2026-03-22T08:30:46.225Z</time></trkpt><trkpt lat="43.5974133" lon="11.5154283"><ele>133.0</ele><time>2026-03-22T08:30:47.225Z</time></trkpt><trkpt lat="43.5973567" lon="11.51548"><ele>133.85714285714286</ele><time>2026-03-22T08:30:48.226Z</time></trkpt><trkpt lat="43.597305" lon="11.5155317"><ele>134.71428571428572</ele><time>2026-03-22T08:30:49.227Z</time></trkpt><trkpt lat="43.5972483" lon="11.51559"><ele>135.57142857142856</ele><time>2026-03-22T08:30:50.226Z</time></trkpt><trkpt lat="43.5971933" lon="11.5156433"><ele>136.42857142857144</ele><time>2026-03-22T08:30:51.226Z</time></trkpt><trkpt lat="43.5971383" lon="11.5156967"><ele>137.28571428571428</ele><time>2026-03-22T08:30:52.225Z</time></trkpt><trkpt lat="43.5970783" lon="11.51575"><ele>138.14285714285714</ele><time>2026-03-22T08:30:53.226Z</time></trkpt><trkpt lat="43.5970217" lon="11.5158033"><ele>139.0</ele><time>2026-03-22T08:30:54.226Z</time></trkpt><trkpt lat="43.5969667" lon="11.5158583"><ele>139.0</ele><time>2026-03-22T08:30:55.225Z</time></trkpt><trkpt lat="43.59691" lon="11.5159083"><ele>139.0</ele><time>2026-03-22T08:30:56.226Z</time></trkpt><trkpt lat="43.5968483" lon="11.515955"><ele>139.0</ele><time>2026-03-22T08:30:57.226Z</time></trkpt><trkpt lat="43.596785" lon="11.5159933"><ele>139.0</ele><time>2026-03-22T08:30:58.228Z</time></trkpt><trkpt lat="43.59672" lon="11.5160417"><ele>139.0</ele><time>2026-03-22T08:30:59.225Z</time></trkpt><trkpt lat="43.5966533" lon="11.5160933"><ele>139.0</ele><time>2026-03-22T08:31:00.228Z</time></trkpt><trkpt lat="43.5965867" lon="11.51614"><ele>139.0</ele><time>2026-03-22T08:31:01.228Z</time></trkpt><trkpt lat="43.5965233" lon="11.516185"><ele>139.0</ele><time>2026-03-22T08:31:02.225Z</time></trkpt><trkpt lat="43.5964617" lon="11.516225"><ele>139.0</ele><time>2026-03-22T08:31:03.225Z</time></trkpt><trkpt lat="43.5963967" lon="11.5162617"><ele>139.0</ele><time>2026-03-22T08:31:04.225Z</time></trkpt><trkpt lat="43.5963383" lon="11.516295"><ele>139.0</ele><time>2026-03-22T08:31:05.227Z</time></trkpt><trkpt lat="43.5962767" lon="11.516325"><ele>139.0</ele><time>2026-03-22T08:31:06.226Z</time></trkpt><trkpt lat="43.5962133" lon="11.516355"><ele>139.0</ele><time>2026-03-22T08:31:07.226Z</time></trkpt><trkpt lat="43.596155" lon="11.5163883"><ele>139.0</ele><time>2026-03-22T08:31:08.226Z</time></trkpt><trkpt lat="43.5960933" lon="11.516425"><ele>139.0</ele><time>2026-03-22T08:31:09.227Z</time></trkpt><trkpt lat="43.5959783" lon="11.516485"><ele>139.0</ele><time>2026-03-22T08:31:11.225Z</time></trkpt><trkpt lat="43.5958683" lon="11.5165483"><ele>139.0</ele><time>2026-03-22T08:31:13.225Z</time></trkpt><trkpt lat="43.59576" lon="11.51659"><ele>139.0</ele><time>2026-03-22T08:31:15.225Z</time></trkpt><trkpt lat="43.595695" lon="11.516605"><ele>139.0</ele><time>2026-03-22T08:31:16.227Z</time></trkpt><trkpt lat="43.5956317" lon="11.5166167"><ele>139.0</ele><time>2026-03-22T08:31:17.224Z</time></trkpt><trkpt lat="43.5955067" lon="11.516625"><ele>139.0</ele><time>2026-03-22T08:31:19.225Z</time></trkpt><trkpt lat="43.5953933" lon="11.5166433"><ele>139.0</ele><time>2026-03-22T08:31:21.228Z</time></trkpt><trkpt lat="43.5952783" lon="11.51666"><ele>139.0</ele><time>2026-03-22T08:31:23.226Z</time></trkpt><trkpt lat="43.5951567" lon="11.5166683"><ele>138.66666666666669</ele><time>2026-03-22T08:31:25.226Z</time></trkpt><trkpt lat="43.59509" lon="11.51667"><ele>138.33333333333334</ele><time>2026-03-22T08:31:26.226Z</time></trkpt><trkpt lat="43.5950233" lon="11.5166783"><ele>138.0</ele><time>2026-03-22T08:31:27.225Z</time></trkpt><trkpt lat="43.5949483" lon="11.516695"><ele>137.66666666666666</ele><time>2026-03-22T08:31:28.227Z</time></trkpt><trkpt lat="43.5948667" lon="11.5167133"><ele>137.33333333333331</ele><time>2026-03-22T08:31:29.228Z</time></trkpt><trkpt lat="43.5947833" lon="11.51673"><ele>137.0</ele><time>2026-03-22T08:31:30.226Z</time></trkpt><trkpt lat="43.594695" lon="11.516745"><ele>137.0</ele><time>2026-03-22T08:31:31.225Z</time></trkpt><trkpt lat="43.5946083" lon="11.5167583"><ele>137.0</ele><time>2026-03-22T08:31:32.226Z</time></trkpt><trkpt lat="43.594515" lon="11.5167617"><ele>137.0</ele><time>2026-03-22T08:31:33.226Z</time></trkpt><trkpt lat="43.5944183" lon="11.5167617"><ele>137.0</ele><time>2026-03-22T08:31:34.227Z</time></trkpt><trkpt lat="43.5943167" lon="11.5167517"><ele>137.0</ele><time>2026-03-22T08:31:35.228Z</time></trkpt><trkpt lat="43.5942167" lon="11.5167367"><ele>136.4</ele><time>2026-03-22T08:31:36.226Z</time></trkpt><trkpt lat="43.5941217" lon="11.5167083"><ele>135.79999999999998</ele><time>2026-03-22T08:31:37.226Z</time></trkpt><trkpt lat="43.594025" lon="11.5166767"><ele>135.2</ele><time>2026-03-22T08:31:38.227Z</time></trkpt><trkpt lat="43.5939333" lon="11.5166383"><ele>134.6</ele><time>2026-03-22T08:31:39.226Z</time></trkpt><trkpt lat="43.593845" lon="11.5165917"><ele>134.0</ele><time>2026-03-22T08:31:40.225Z</time></trkpt><trkpt lat="43.5937583" lon="11.5165383"><ele>134.0</ele><time>2026-03-22T08:31:41.227Z</time></trkpt><trkpt lat="43.5936767" lon="11.5164833"><ele>134.0</ele><time>2026-03-22T08:31:42.224Z</time></trkpt><trkpt lat="43.5936" lon="11.5164267"><ele>134.0</ele><time>2026-03-22T08:31:43.226Z</time></trkpt><trkpt lat="43.593525" lon="11.5163817"><ele>134.0</ele><time>2026-03-22T08:31:44.226Z</time></trkpt><trkpt lat="43.5934467" lon="11.516335"><ele>134.0</ele><time>2026-03-22T08:31:45.226Z</time></trkpt><trkpt lat="43.5933617" lon="11.516295"><ele>134.0</ele><time>2026-03-22T08:31:46.227Z</time></trkpt><trkpt lat="43.59328" lon="11.5162717"><ele>133.85714285714286</ele><time>2026-03-22T08:31:47.227Z</time></trkpt><trkpt lat="43.5932" lon="11.51628"><ele>133.71428571428572</ele><time>2026-03-22T08:31:48.225Z</time></trkpt><trkpt lat="43.59313" lon="11.5163183"><ele>133.57142857142856</ele><time>2026-03-22T08:31:49.224Z</time></trkpt><trkpt lat="43.59307" lon="11.5163733"><ele>133.42857142857144</ele><time>2026-03-22T08:31:50.228Z</time></trkpt><trkpt lat="43.5930083" lon="11.5164267"><ele>133.28571428571428</ele><time>2026-03-22T08:31:51.228Z</time></trkpt><trkpt lat="43.5929517" lon="11.5164833"><ele>133.14285714285714</ele><time>2026-03-22T08:31:52.225Z</time></trkpt><trkpt lat="43.5928933" lon="11.5165383"><ele>133.0</ele><time>2026-03-22T08:31:53.225Z</time></trkpt><trkpt lat="43.5928283" lon="11.51658"><ele>133.0</ele><time>2026-03-22T08:31:54.225Z</time></trkpt><trkpt lat="43.5927633" lon="11.5166067"><ele>133.0</ele><time>2026-03-22T08:31:55.225Z</time></trkpt><trkpt lat="43.592695" lon="11.51662"><ele>133.0</ele><time>2026-03-22T08:31:56.225Z</time></trkpt><trkpt lat="43.592625" lon="11.5166217"><ele>133.0</ele><time>2026-03-22T08:31:57.225Z</time></trkpt><trkpt lat="43.5925583" lon="11.516605"><ele>133.0</ele><time>2026-03-22T08:31:58.225Z</time></trkpt><trkpt lat="43.5924983" lon="11.516565"><ele>133.0</ele><time>2026-03-22T08:31:59.227Z</time></trkpt><trkpt lat="43.5924267" lon="11.516425"><ele>133.0</ele><time>2026-03-22T08:32:01.227Z</time></trkpt><trkpt lat="43.592405" lon="11.51634"><ele>133.0</ele><time>2026-03-22T08:32:02.227Z</time></trkpt><trkpt lat="43.59238" lon="11.5162583"><ele>133.0</ele><time>2026-03-22T08:32:03.229Z</time></trkpt><trkpt lat="43.5923433" lon="11.516185"><ele>133.0</ele><time>2026-03-22T08:32:04.227Z</time></trkpt><trkpt lat="43.592295" lon="11.5161267"><ele>133.0</ele><time>2026-03-22T08:32:05.225Z</time></trkpt><trkpt lat="43.5922367" lon="11.5160933"><ele>133.0</ele><time>2026-03-22T08:32:06.226Z</time></trkpt><trkpt lat="43.59217" lon="11.51608"><ele>133.0</ele><time>2026-03-22T08:32:07.226Z</time></trkpt><trkpt lat="43.5921033" lon="11.5160917"><ele>133.28571428571428</ele><time>2026-03-22T08:32:08.226Z</time></trkpt><trkpt lat="43.59204" lon="11.5161217"><ele>133.57142857142856</ele><time>2026-03-22T08:32:09.226Z</time></trkpt><trkpt lat="43.5919783" lon="11.51615"><ele>133.85714285714286</ele><time>2026-03-22T08:32:10.225Z</time></trkpt><trkpt lat="43.591915" lon="11.5161617"><ele>134.14285714285714</ele><time>2026-03-22T08:32:11.227Z</time></trkpt><trkpt lat="43.59185" lon="11.5161417"><ele>134.42857142857142</ele><time>2026-03-22T08:32:12.225Z</time></trkpt><trkpt lat="43.5917883" lon="11.516095"><ele>134.71428571428572</ele><time>2026-03-22T08:32:13.225Z</time></trkpt><trkpt lat="43.591735" lon="11.5160283"><ele>135.0</ele><time>2026-03-22T08:32:14.225Z</time></trkpt><trkpt lat="43.5916833" lon="11.5159633"><ele>135.0</ele><time>2026-03-22T08:32:15.228Z</time></trkpt><trkpt lat="43.5916317" lon="11.5158983"><ele>135.0</ele><time>2026-03-22T08:32:16.226Z</time></trkpt><trkpt lat="43.59158" lon="11.5158367"><ele>135.0</ele><time>2026-03-22T08:32:17.226Z</time></trkpt><trkpt lat="43.5915267" lon="11.515775"><ele>135.0</ele><time>2026-03-22T08:32:18.226Z</time></trkpt><trkpt lat="43.591475" lon="11.5157133"><ele>135.0</ele><time>2026-03-22T08:32:19.226Z</time></trkpt><trkpt lat="43.59142" lon="11.51565"><ele>135.0</ele><time>2026-03-22T08:32:20.224Z</time></trkpt><trkpt lat="43.5913667" lon="11.5155867"><ele>135.0</ele><time>2026-03-22T08:32:21.227Z</time></trkpt><trkpt lat="43.59131" lon="11.5155267"><ele>135.0</ele><time>2026-03-22T08:32:22.227Z</time></trkpt><trkpt lat="43.5912517" lon="11.5154667"><ele>135.0</ele><time>2026-03-22T08:32:23.225Z</time></trkpt><trkpt lat="43.5911933" lon="11.5154117"><ele>135.0</ele><time>2026-03-22T08:32:24.226Z</time></trkpt><trkpt lat="43.5911383" lon="11.51536"><ele>135.0</ele><time>2026-03-22T08:32:25.227Z</time></trkpt><trkpt lat="43.5910817" lon="11.5153117"><ele>135.0</ele><time>2026-03-22T08:32:26.226Z</time></trkpt><trkpt lat="43.5910233" lon="11.5152667"><ele>135.0</ele><time>2026-03-22T08:32:27.226Z</time></trkpt><trkpt lat="43.5909617" lon="11.5152267"><ele>135.0</ele><time>2026-03-22T08:32:28.225Z</time></trkpt><trkpt lat="43.5909" lon="11.51519"><ele>134.42857142857142</ele><time>2026-03-22T08:32:29.228Z</time></trkpt><trkpt lat="43.5908333" lon="11.5151583"><ele>133.85714285714283</ele><time>2026-03-22T08:32:30.225Z</time></trkpt><trkpt lat="43.590765" lon="11.515125"><ele>133.28571428571428</ele><time>2026-03-22T08:32:31.227Z</time></trkpt><trkpt lat="43.5906967" lon="11.5150967"><ele>132.71428571428572</ele><time>2026-03-22T08:32:32.226Z</time></trkpt><trkpt lat="43.590625" lon="11.515075"><ele>132.14285714285717</ele><time>2026-03-22T08:32:33.228Z</time></trkpt><trkpt lat="43.590555" lon="11.515065"><ele>131.57142857142858</ele><time>2026-03-22T08:32:34.227Z</time></trkpt><trkpt lat="43.590485" lon="11.5150583"><ele>131.0</ele><time>2026-03-22T08:32:35.225Z</time></trkpt><trkpt lat="43.5904133" lon="11.51505"><ele>131.0</ele><time>2026-03-22T08:32:36.226Z</time></trkpt><trkpt lat="43.5903433" lon="11.5150483"><ele>131.0</ele><time>2026-03-22T08:32:37.227Z</time></trkpt><trkpt lat="43.590275" lon="11.5150483"><ele>131.0</ele><time>2026-03-22T08:32:38.225Z</time></trkpt><trkpt lat="43.59021" lon="11.5150533"><ele>131.0</ele><time>2026-03-22T08:32:39.226Z</time></trkpt><trkpt lat="43.5901417" lon="11.5150633"><ele>131.0</ele><time>2026-03-22T08:32:40.225Z</time></trkpt><trkpt lat="43.5900733" lon="11.5150767"><ele>131.0</ele><time>2026-03-22T08:32:41.225Z</time></trkpt><trkpt lat="43.590005" lon="11.5150967"><ele>131.0</ele><time>2026-03-22T08:32:42.224Z</time></trkpt><trkpt lat="43.58994" lon="11.51512"><ele>131.14285714285714</ele><time>2026-03-22T08:32:43.226Z</time></trkpt><trkpt lat="43.5898733" lon="11.5151517"><ele>131.2857142857143</ele><time>2026-03-22T08:32:44.227Z</time></trkpt><trkpt lat="43.589805" lon="11.515185"><ele>131.42857142857144</ele><time>2026-03-22T08:32:45.226Z</time></trkpt><trkpt lat="43.5897433" lon="11.515225"><ele>131.57142857142858</ele><time>2026-03-22T08:32:46.226Z</time></trkpt><trkpt lat="43.5896783" lon="11.5152667"><ele>131.71428571428572</ele><time>2026-03-22T08:32:47.226Z</time></trkpt><trkpt lat="43.5896133" lon="11.5153117"><ele>131.85714285714286</ele><time>2026-03-22T08:32:48.226Z</time></trkpt><trkpt lat="43.58955" lon="11.5153667"><ele>132.0</ele><time>2026-03-22T08:32:49.227Z</time></trkpt><trkpt lat="43.5894883" lon="11.5154217"><ele>132.28571428571428</ele><time>2026-03-22T08:32:50.225Z</time></trkpt><trkpt lat="43.589425" lon="11.5154783"><ele>132.57142857142858</ele><time>2026-03-22T08:32:51.226Z</time></trkpt><trkpt lat="43.589365" lon="11.5155333"><ele>132.85714285714286</ele><time>2026-03-22T08:32:52.225Z</time></trkpt><trkpt lat="43.589315" lon="11.515595"><ele>133.14285714285714</ele><time>2026-03-22T08:32:53.225Z</time></trkpt><trkpt lat="43.58926" lon="11.5156567"><ele>133.42857142857142</ele><time>2026-03-22T08:32:54.227Z</time></trkpt><trkpt lat="43.5892067" lon="11.51572"><ele>133.71428571428572</ele><time>2026-03-22T08:32:55.225Z</time></trkpt><trkpt lat="43.5891483" lon="11.5157867"><ele>134.0</ele><time>2026-03-22T08:32:56.226Z</time></trkpt><trkpt lat="43.58909" lon="11.515855"><ele>134.0</ele><time>2026-03-22T08:32:57.225Z</time></trkpt><trkpt lat="43.58904" lon="11.515925"><ele>134.0</ele><time>2026-03-22T08:32:58.226Z</time></trkpt><trkpt lat="43.58899" lon="11.515995"><ele>134.0</ele><time>2026-03-22T08:32:59.225Z</time></trkpt><trkpt lat="43.5889367" lon="11.516065"><ele>134.0</ele><time>2026-03-22T08:33:00.227Z</time></trkpt><trkpt lat="43.588885" lon="11.5161383"><ele>134.0</ele><time>2026-03-22T08:33:01.225Z</time></trkpt><trkpt lat="43.5888333" lon="11.5162133"><ele>134.0</ele><time>2026-03-22T08:33:02.226Z</time></trkpt><trkpt lat="43.5887817" lon="11.516285"><ele>134.0</ele><time>2026-03-22T08:33:03.225Z</time></trkpt><trkpt lat="43.5887283" lon="11.5163567"><ele>133.71428571428572</ele><time>2026-03-22T08:33:04.224Z</time></trkpt><trkpt lat="43.5886767" lon="11.5164317"><ele>133.42857142857142</ele><time>2026-03-22T08:33:05.226Z</time></trkpt><trkpt lat="43.588625" lon="11.5165033"><ele>133.14285714285714</ele><time>2026-03-22T08:33:06.227Z</time></trkpt><trkpt lat="43.5885733" lon="11.5165783"><ele>132.85714285714286</ele><time>2026-03-22T08:33:07.227Z</time></trkpt><trkpt lat="43.5885217" lon="11.516655"><ele>132.57142857142858</ele><time>2026-03-22T08:33:08.225Z</time></trkpt><trkpt lat="43.5884683" lon="11.5167283"><ele>132.28571428571428</ele><time>2026-03-22T08:33:09.226Z</time></trkpt><trkpt lat="43.5884167" lon="11.5168017"><ele>132.0</ele><time>2026-03-22T08:33:10.227Z</time></trkpt><trkpt lat="43.5883617" lon="11.516875"><ele>132.0</ele><time>2026-03-22T08:33:11.226Z</time></trkpt><trkpt lat="43.58831" lon="11.5169533"><ele>132.0</ele><time>2026-03-22T08:33:12.226Z</time></trkpt><trkpt lat="43.5882583" lon="11.5170317"><ele>132.0</ele><time>2026-03-22T08:33:13.225Z</time></trkpt><trkpt lat="43.5882033" lon="11.5171117"><ele>132.0</ele><time>2026-03-22T08:33:14.225Z</time></trkpt><trkpt lat="43.5881467" lon="11.5171883"><ele>132.0</ele><time>2026-03-22T08:33:15.225Z</time></trkpt><trkpt lat="43.5880933" lon="11.517265"><ele>132.0</ele><time>2026-03-22T08:33:16.225Z</time></trkpt><trkpt lat="43.58804" lon="11.5173417"><ele>132.16666666666666</ele><time>2026-03-22T08:33:17.226Z</time></trkpt><trkpt lat="43.5879867" lon="11.51742"><ele>132.33333333333334</ele><time>2026-03-22T08:33:18.226Z</time></trkpt><trkpt lat="43.5879333" lon="11.5174967"><ele>132.5</ele><time>2026-03-22T08:33:19.225Z</time></trkpt><trkpt lat="43.5878817" lon="11.517575"><ele>132.66666666666669</ele><time>2026-03-22T08:33:20.226Z</time></trkpt><trkpt lat="43.58783" lon="11.5176533"><ele>132.83333333333334</ele><time>2026-03-22T08:33:21.226Z</time></trkpt><trkpt lat="43.5877767" lon="11.51773"><ele>133.0</ele><time>2026-03-22T08:33:22.225Z</time></trkpt><trkpt lat="43.5877217" lon="11.517805"><ele>132.66666666666669</ele><time>2026-03-22T08:33:23.225Z</time></trkpt><trkpt lat="43.5876667" lon="11.51788"><ele>132.33333333333334</ele><time>2026-03-22T08:33:24.225Z</time></trkpt><trkpt lat="43.5876133" lon="11.51796"><ele>132.0</ele><time>2026-03-22T08:33:25.225Z</time></trkpt><trkpt lat="43.5875567" lon="11.51804"><ele>131.66666666666666</ele><time>2026-03-22T08:33:26.225Z</time></trkpt><trkpt lat="43.5875033" lon="11.51812"><ele>131.33333333333331</ele><time>2026-03-22T08:33:27.226Z</time></trkpt><trkpt lat="43.58745" lon="11.5181983"><ele>131.0</ele><time>2026-03-22T08:33:28.226Z</time></trkpt><trkpt lat="43.5873967" lon="11.518275"><ele>131.0</ele><time>2026-03-22T08:33:29.226Z</time></trkpt><trkpt lat="43.5873433" lon="11.518355"><ele>131.0</ele><time>2026-03-22T08:33:30.227Z</time></trkpt><trkpt lat="43.5872883" lon="11.5184317"><ele>131.0</ele><time>2026-03-22T08:33:31.226Z</time></trkpt><trkpt lat="43.5872333" lon="11.5185067"><ele>131.0</ele><time>2026-03-22T08:33:32.225Z</time></trkpt><trkpt lat="43.5871783" lon="11.518585"><ele>131.0</ele><time>2026-03-22T08:33:33.225Z</time></trkpt><trkpt lat="43.5871217" lon="11.5186617"><ele>131.0</ele><time>2026-03-22T08:33:34.225Z</time></trkpt><trkpt lat="43.5870667" lon="11.5187417"><ele>130.83333333333331</ele><time>2026-03-22T08:33:35.224Z</time></trkpt><trkpt lat="43.58701" lon="11.5188167"><ele>130.66666666666666</ele><time>2026-03-22T08:33:36.224Z</time></trkpt><trkpt lat="43.5869567" lon="11.51889"><ele>130.5</ele><time>2026-03-22T08:33:37.225Z</time></trkpt><trkpt lat="43.586905" lon="11.5189683"><ele>130.33333333333334</ele><time>2026-03-22T08:33:38.225Z</time></trkpt><trkpt lat="43.5868517" lon="11.5190467"><ele>130.16666666666669</ele><time>2026-03-22T08:33:39.225Z</time></trkpt><trkpt lat="43.5868" lon="11.5191233"><ele>130.0</ele><time>2026-03-22T08:33:40.226Z</time></trkpt><trkpt lat="43.5867483" lon="11.5191967"><ele>130.0</ele><time>2026-03-22T08:33:41.227Z</time></trkpt><trkpt lat="43.5866933" lon="11.5192683"><ele>130.0</ele><time>2026-03-22T08:33:42.225Z</time></trkpt><trkpt lat="43.58664" lon="11.51934"><ele>130.0</ele><time>2026-03-22T08:33:43.225Z</time></trkpt><trkpt lat="43.5865867" lon="11.5194133"><ele>130.0</ele><time>2026-03-22T08:33:44.225Z</time></trkpt><trkpt lat="43.5865333" lon="11.5194883"><ele>130.0</ele><time>2026-03-22T08:33:45.226Z</time></trkpt><trkpt lat="43.5864783" lon="11.5195633"><ele>130.0</ele><time>2026-03-22T08:33:46.226Z</time></trkpt><trkpt lat="43.586425" lon="11.5196367"><ele>130.33333333333334</ele><time>2026-03-22T08:33:47.226Z</time></trkpt><trkpt lat="43.5863733" lon="11.5197133"><ele>130.66666666666669</ele><time>2026-03-22T08:33:48.227Z</time></trkpt><trkpt lat="43.5863217" lon="11.5197867"><ele>131.0</ele><time>2026-03-22T08:33:49.226Z</time></trkpt><trkpt lat="43.5862683" lon="11.5198583"><ele>131.33333333333334</ele><time>2026-03-22T08:33:50.225Z</time></trkpt><trkpt lat="43.5862133" lon="11.519935"><ele>131.66666666666666</ele><time>2026-03-22T08:33:51.225Z</time></trkpt><trkpt lat="43.5861583" lon="11.5200133"><ele>132.0</ele><time>2026-03-22T08:33:52.225Z</time></trkpt><trkpt lat="43.5861033" lon="11.5200917"><ele>132.0</ele><time>2026-03-22T08:33:53.225Z</time></trkpt><trkpt lat="43.5860483" lon="11.5201683"><ele>132.0</ele><time>2026-03-22T08:33:54.225Z</time></trkpt><trkpt lat="43.5859983" lon="11.5202483"><ele>132.0</ele><time>2026-03-22T08:33:55.225Z</time></trkpt><trkpt lat="43.5859433" lon="11.5203233"><ele>132.0</ele><time>2026-03-22T08:33:56.227Z</time></trkpt><trkpt lat="43.58589" lon="11.5203983"><ele>132.0</ele><time>2026-03-22T08:33:57.227Z</time></trkpt><trkpt lat="43.5858367" lon="11.5204767"><ele>132.0</ele><time>2026-03-22T08:33:58.227Z</time></trkpt><trkpt lat="43.585785" lon="11.5205483"><ele>132.33333333333334</ele><time>2026-03-22T08:33:59.225Z</time></trkpt><trkpt lat="43.5857333" lon="11.5206217"><ele>132.66666666666666</ele><time>2026-03-22T08:34:00.225Z</time></trkpt><trkpt lat="43.58568" lon="11.520695"><ele>133.0</ele><time>2026-03-22T08:34:01.227Z</time></trkpt><trkpt lat="43.5856233" lon="11.52077"><ele>133.33333333333331</ele><time>2026-03-22T08:34:02.227Z</time></trkpt><trkpt lat="43.5855667" lon="11.5208433"><ele>133.66666666666666</ele><time>2026-03-22T08:34:03.226Z</time></trkpt><trkpt lat="43.58551" lon="11.5209167"><ele>134.0</ele><time>2026-03-22T08:34:04.225Z</time></trkpt><trkpt lat="43.585455" lon="11.5209933"><ele>134.0</ele><time>2026-03-22T08:34:05.225Z</time></trkpt><trkpt lat="43.5853983" lon="11.521065"><ele>134.0</ele><time>2026-03-22T08:34:06.226Z</time></trkpt><trkpt lat="43.5853433" lon="11.52114"><ele>134.0</ele><time>2026-03-22T08:34:07.227Z</time></trkpt><trkpt lat="43.58529" lon="11.5212117"><ele>134.0</ele><time>2026-03-22T08:34:08.226Z</time></trkpt><trkpt lat="43.5852333" lon="11.52129"><ele>134.0</ele><time>2026-03-22T08:34:09.226Z</time></trkpt><trkpt lat="43.5851783" lon="11.5213667"><ele>134.0</ele><time>2026-03-22T08:34:10.227Z</time></trkpt><trkpt lat="43.5851233" lon="11.5214467"><ele>133.66666666666666</ele><time>2026-03-22T08:34:11.228Z</time></trkpt><trkpt lat="43.5850717" lon="11.5215233"><ele>133.33333333333331</ele><time>2026-03-22T08:34:12.225Z</time></trkpt><trkpt lat="43.58502" lon="11.5216033"><ele>133.0</ele><time>2026-03-22T08:34:13.225Z</time></trkpt><trkpt lat="43.5849683" lon="11.52168"><ele>132.66666666666666</ele><time>2026-03-22T08:34:14.225Z</time></trkpt><trkpt lat="43.5849167" lon="11.521755"><ele>132.33333333333334</ele><time>2026-03-22T08:34:15.225Z</time></trkpt><trkpt lat="43.584865" lon="11.52183"><ele>132.0</ele><time>2026-03-22T08:34:16.226Z</time></trkpt><trkpt lat="43.5848083" lon="11.521905"><ele>132.0</ele><time>2026-03-22T08:34:17.226Z</time></trkpt><trkpt lat="43.5847567" lon="11.52198"><ele>132.0</ele><time>2026-03-22T08:34:18.226Z</time></trkpt><trkpt lat="43.5847033" lon="11.522055"><ele>132.0</ele><time>2026-03-22T08:34:19.226Z</time></trkpt><trkpt lat="43.5846467" lon="11.52213"><ele>132.0</ele><time>2026-03-22T08:34:20.226Z</time></trkpt><trkpt lat="43.5845917" lon="11.5222083"><ele>132.0</ele><time>2026-03-22T08:34:21.227Z</time></trkpt><trkpt lat="43.5845367" lon="11.5222817"><ele>132.0</ele><time>2026-03-22T08:34:22.225Z</time></trkpt><trkpt lat="43.5844817" lon="11.522355"><ele>131.83333333333334</ele><time>2026-03-22T08:34:23.227Z</time></trkpt><trkpt lat="43.5844283" lon="11.5224267"><ele>131.66666666666666</ele><time>2026-03-22T08:34:24.226Z</time></trkpt><trkpt lat="43.5843767" lon="11.5225"><ele>131.5</ele><time>2026-03-22T08:34:25.225Z</time></trkpt><trkpt lat="43.584325" lon="11.5225733"><ele>131.33333333333331</ele><time>2026-03-22T08:34:26.227Z</time></trkpt><trkpt lat="43.5842683" lon="11.52265"><ele>131.16666666666666</ele><time>2026-03-22T08:34:27.225Z</time></trkpt><trkpt lat="43.5842167" lon="11.5227267"><ele>131.0</ele><time>2026-03-22T08:34:28.226Z</time></trkpt><trkpt lat="43.5841617" lon="11.5228033"><ele>131.0</ele><time>2026-03-22T08:34:29.23Z</time></trkpt><trkpt lat="43.5841083" lon="11.5228817"><ele>131.0</ele><time>2026-03-22T08:34:30.226Z</time></trkpt><trkpt lat="43.5840517" lon="11.522955"><ele>131.0</ele><time>2026-03-22T08:34:31.225Z</time></trkpt><trkpt lat="43.5839983" lon="11.5230283"><ele>131.0</ele><time>2026-03-22T08:34:32.225Z</time></trkpt><trkpt lat="43.5839467" lon="11.523105"><ele>131.0</ele><time>2026-03-22T08:34:33.229Z</time></trkpt><trkpt lat="43.5838917" lon="11.5231767"><ele>131.0</ele><time>2026-03-22T08:34:34.224Z</time></trkpt><trkpt lat="43.58384" lon="11.5232483"><ele>131.33333333333331</ele><time>2026-03-22T08:34:35.225Z</time></trkpt><trkpt lat="43.5837883" lon="11.5233217"><ele>131.66666666666666</ele><time>2026-03-22T08:34:36.226Z</time></trkpt><trkpt lat="43.5837367" lon="11.5233967"><ele>132.0</ele><time>2026-03-22T08:34:37.227Z</time></trkpt><trkpt lat="43.583685" lon="11.5234717"><ele>132.33333333333334</ele><time>2026-03-22T08:34:38.226Z</time></trkpt><trkpt lat="43.5836283" lon="11.5235433"><ele>132.66666666666669</ele><time>2026-03-22T08:34:39.226Z</time></trkpt><trkpt lat="43.5835767" lon="11.5236183"><ele>133.0</ele><time>2026-03-22T08:34:40.226Z</time></trkpt><trkpt lat="43.5835267" lon="11.523695"><ele>133.0</ele><time>2026-03-22T08:34:41.225Z</time></trkpt><trkpt lat="43.5834767" lon="11.5237683"><ele>133.0</ele><time>2026-03-22T08:34:42.226Z</time></trkpt><trkpt lat="43.583425" lon="11.5238383"><ele>133.0</ele><time>2026-03-22T08:34:43.226Z</time></trkpt><trkpt lat="43.5833733" lon="11.52391"><ele>133.0</ele><time>2026-03-22T08:34:44.226Z</time></trkpt><trkpt lat="43.5833233" lon="11.5239817"><ele>133.0</ele><time>2026-03-22T08:34:45.227Z</time></trkpt><trkpt lat="43.5832733" lon="11.5240533"><ele>133.0</ele><time>2026-03-22T08:34:46.225Z</time></trkpt><trkpt lat="43.5832217" lon="11.524125"><ele>133.0</ele><time>2026-03-22T08:34:47.226Z</time></trkpt><trkpt lat="43.5831733" lon="11.5241983"><ele>133.0</ele><time>2026-03-22T08:34:48.227Z</time></trkpt><trkpt lat="43.5831233" lon="11.5242667"><ele>133.0</ele><time>2026-03-22T08:34:49.226Z</time></trkpt><trkpt lat="43.5830767" lon="11.5243367"><ele>133.0</ele><time>2026-03-22T08:34:50.225Z</time></trkpt><trkpt lat="43.58303" lon="11.5244033"><ele>133.0</ele><time>2026-03-22T08:34:51.227Z</time></trkpt><trkpt lat="43.5829833" lon="11.52447"><ele>133.0</ele><time>2026-03-22T08:34:52.226Z</time></trkpt><trkpt lat="43.5829367" lon="11.5245367"><ele>133.0</ele><time>2026-03-22T08:34:53.226Z</time></trkpt><trkpt lat="43.5828883" lon="11.524605"><ele>133.0</ele><time>2026-03-22T08:34:54.227Z</time></trkpt><trkpt lat="43.5828417" lon="11.5246733"><ele>132.85714285714286</ele><time>2026-03-22T08:34:55.225Z</time></trkpt><trkpt lat="43.5827967" lon="11.524735"><ele>132.71428571428572</ele><time>2026-03-22T08:34:56.225Z</time></trkpt><trkpt lat="43.5827533" lon="11.5248033"><ele>132.57142857142856</ele><time>2026-03-22T08:34:57.224Z</time></trkpt><trkpt lat="43.5827083" lon="11.5248733"><ele>132.42857142857144</ele><time>2026-03-22T08:34:58.225Z</time></trkpt><trkpt lat="43.582665" lon="11.524945"><ele>132.28571428571428</ele><time>2026-03-22T08:34:59.225Z</time></trkpt><trkpt lat="43.58262" lon="11.5250183"><ele>132.14285714285714</ele><time>2026-03-22T08:35:00.225Z</time></trkpt><trkpt lat="43.5825767" lon="11.5250883"><ele>132.0</ele><time>2026-03-22T08:35:01.226Z</time></trkpt><trkpt lat="43.582535" lon="11.52516"><ele>132.0</ele><time>2026-03-22T08:35:02.228Z</time></trkpt><trkpt lat="43.5824917" lon="11.52524"><ele>132.0</ele><time>2026-03-22T08:35:03.225Z</time></trkpt><trkpt lat="43.5824483" lon="11.525315"><ele>132.0</ele><time>2026-03-22T08:35:04.225Z</time></trkpt><trkpt lat="43.582405" lon="11.5253917"><ele>132.0</ele><time>2026-03-22T08:35:05.226Z</time></trkpt><trkpt lat="43.582365" lon="11.5254733"><ele>132.0</ele><time>2026-03-22T08:35:06.226Z</time></trkpt><trkpt lat="43.5823233" lon="11.52555"><ele>132.0</ele><time>2026-03-22T08:35:07.226Z</time></trkpt><trkpt lat="43.58228" lon="11.5256317"><ele>132.0</ele><time>2026-03-22T08:35:08.226Z</time></trkpt><trkpt lat="43.5822367" lon="11.52571"><ele>132.0</ele><time>2026-03-22T08:35:09.225Z</time></trkpt><trkpt lat="43.5821967" lon="11.52579"><ele>132.0</ele><time>2026-03-22T08:35:10.227Z</time></trkpt><trkpt lat="43.582155" lon="11.5258667"><ele>132.0</ele><time>2026-03-22T08:35:11.227Z</time></trkpt><trkpt lat="43.5821133" lon="11.5259433"><ele>132.0</ele><time>2026-03-22T08:35:12.227Z</time></trkpt><trkpt lat="43.5820717" lon="11.52602"><ele>132.0</ele><time>2026-03-22T08:35:13.227Z</time></trkpt><trkpt lat="43.5820317" lon="11.526095"><ele>132.0</ele><time>2026-03-22T08:35:14.226Z</time></trkpt><trkpt lat="43.5819933" lon="11.5261783"><ele>132.0</ele><time>2026-03-22T08:35:15.228Z</time></trkpt><trkpt lat="43.5819533" lon="11.52626"><ele>132.14285714285714</ele><time>2026-03-22T08:35:16.225Z</time></trkpt><trkpt lat="43.5819133" lon="11.526345"><ele>132.28571428571428</ele><time>2026-03-22T08:35:17.226Z</time></trkpt><trkpt lat="43.5818733" lon="11.52643"><ele>132.42857142857144</ele><time>2026-03-22T08:35:18.228Z</time></trkpt><trkpt lat="43.5818317" lon="11.5265133"><ele>132.57142857142856</ele><time>2026-03-22T08:35:19.225Z</time></trkpt><trkpt lat="43.58179" lon="11.5265983"><ele>132.71428571428572</ele><time>2026-03-22T08:35:20.226Z</time></trkpt><trkpt lat="43.5817483" lon="11.526685"><ele>132.85714285714286</ele><time>2026-03-22T08:35:21.225Z</time></trkpt><trkpt lat="43.5817067" lon="11.526775"><ele>133.0</ele><time>2026-03-22T08:35:22.227Z</time></trkpt><trkpt lat="43.5816633" lon="11.5268617"><ele>133.0</ele><time>2026-03-22T08:35:23.227Z</time></trkpt><trkpt lat="43.5816217" lon="11.5269483"><ele>133.0</ele><time>2026-03-22T08:35:24.225Z</time></trkpt><trkpt lat="43.581585" lon="11.5270367"><ele>133.0</ele><time>2026-03-22T08:35:25.226Z</time></trkpt><trkpt lat="43.5815517" lon="11.527125"><ele>133.0</ele><time>2026-03-22T08:35:26.226Z</time></trkpt><trkpt lat="43.5815183" lon="11.52722"><ele>133.0</ele><time>2026-03-22T08:35:27.226Z</time></trkpt><trkpt lat="43.581485" lon="11.5273067"><ele>133.0</ele><time>2026-03-22T08:35:28.226Z</time></trkpt><trkpt lat="43.5814533" lon="11.5273967"><ele>133.0</ele><time>2026-03-22T08:35:29.227Z</time></trkpt><trkpt lat="43.5814233" lon="11.5274867"><ele>133.14285714285714</ele><time>2026-03-22T08:35:30.225Z</time></trkpt><trkpt lat="43.5813917" lon="11.5275767"><ele>133.28571428571428</ele><time>2026-03-22T08:35:31.227Z</time></trkpt><trkpt lat="43.58136" lon="11.5276717"><ele>133.42857142857144</ele><time>2026-03-22T08:35:32.226Z</time></trkpt><trkpt lat="43.5813283" lon="11.5277633"><ele>133.57142857142856</ele><time>2026-03-22T08:35:33.226Z</time></trkpt><trkpt lat="43.581295" lon="11.527855"><ele>133.71428571428572</ele><time>2026-03-22T08:35:34.228Z</time></trkpt><trkpt lat="43.5812667" lon="11.5279483"><ele>133.85714285714286</ele><time>2026-03-22T08:35:35.226Z</time></trkpt><trkpt lat="43.581235" lon="11.52804"><ele>134.0</ele><time>2026-03-22T08:35:36.226Z</time></trkpt><trkpt lat="43.5812033" lon="11.5281333"><ele>133.5</ele><time>2026-03-22T08:35:37.225Z</time></trkpt><trkpt lat="43.5811683" lon="11.528225"><ele>133.0</ele><time>2026-03-22T08:35:38.226Z</time></trkpt><trkpt lat="43.5811367" lon="11.52832"><ele>132.5</ele><time>2026-03-22T08:35:39.227Z</time></trkpt><trkpt lat="43.5811033" lon="11.5284133"><ele>132.0</ele><time>2026-03-22T08:35:40.225Z</time></trkpt><trkpt lat="43.5810733" lon="11.5285083"><ele>131.5</ele><time>2026-03-22T08:35:41.227Z</time></trkpt><trkpt lat="43.581045" lon="11.5286067"><ele>131.0</ele><time>2026-03-22T08:35:42.225Z</time></trkpt><trkpt lat="43.5810117" lon="11.5287017"><ele>130.66666666666666</ele><time>2026-03-22T08:35:43.227Z</time></trkpt><trkpt lat="43.58098" lon="11.528795"><ele>130.33333333333331</ele><time>2026-03-22T08:35:44.226Z</time></trkpt><trkpt lat="43.5809467" lon="11.5288883"><ele>130.0</ele><time>2026-03-22T08:35:45.225Z</time></trkpt><trkpt lat="43.5809117" lon="11.5289783"><ele>129.66666666666666</ele><time>2026-03-22T08:35:46.225Z</time></trkpt><trkpt lat="43.5808733" lon="11.5290683"><ele>129.33333333333334</ele><time>2026-03-22T08:35:47.226Z</time></trkpt><trkpt lat="43.5808317" lon="11.5291567"><ele>129.0</ele><time>2026-03-22T08:35:48.226Z</time></trkpt><trkpt lat="43.5807833" lon="11.5292417"><ele>129.0</ele><time>2026-03-22T08:35:49.228Z</time></trkpt><trkpt lat="43.580735" lon="11.5293267"><ele>129.0</ele><time>2026-03-22T08:35:50.227Z</time></trkpt><trkpt lat="43.5806833" lon="11.5294067"><ele>129.0</ele><time>2026-03-22T08:35:51.227Z</time></trkpt><trkpt lat="43.5806317" lon="11.5294817"><ele>129.0</ele><time>2026-03-22T08:35:52.226Z</time></trkpt><trkpt lat="43.5805767" lon="11.529555"><ele>129.0</ele><time>2026-03-22T08:35:53.226Z</time></trkpt><trkpt lat="43.5805167" lon="11.5296217"><ele>129.0</ele><time>2026-03-22T08:35:54.226Z</time></trkpt><trkpt lat="43.580455" lon="11.529685"><ele>129.0</ele><time>2026-03-22T08:35:55.227Z</time></trkpt><trkpt lat="43.5803933" lon="11.529745"><ele>129.0</ele><time>2026-03-22T08:35:56.226Z</time></trkpt><trkpt lat="43.5803267" lon="11.5298"><ele>129.0</ele><time>2026-03-22T08:35:57.225Z</time></trkpt><trkpt lat="43.5802583" lon="11.529855"><ele>129.0</ele><time>2026-03-22T08:35:58.227Z</time></trkpt><trkpt lat="43.5801883" lon="11.5299067"><ele>129.0</ele><time>2026-03-22T08:35:59.227Z</time></trkpt><trkpt lat="43.5801233" lon="11.5299617"><ele>129.0</ele><time>2026-03-22T08:36:00.225Z</time></trkpt><trkpt lat="43.58006" lon="11.53002"><ele>129.0</ele><time>2026-03-22T08:36:01.226Z</time></trkpt><trkpt lat="43.5799967" lon="11.5300783"><ele>129.0</ele><time>2026-03-22T08:36:02.226Z</time></trkpt><trkpt lat="43.579935" lon="11.5301417"><ele>129.0</ele><time>2026-03-22T08:36:03.225Z</time></trkpt><trkpt lat="43.5798767" lon="11.53021"><ele>129.0</ele><time>2026-03-22T08:36:04.225Z</time></trkpt><trkpt lat="43.5798217" lon="11.5302833"><ele>129.0</ele><time>2026-03-22T08:36:05.225Z</time></trkpt><trkpt lat="43.57977" lon="11.5303583"><ele>129.0</ele><time>2026-03-22T08:36:06.226Z</time></trkpt><trkpt lat="43.5797183" lon="11.530435"><ele>129.0</ele><time>2026-03-22T08:36:07.226Z</time></trkpt><trkpt lat="43.5796683" lon="11.530515"><ele>129.0</ele><time>2026-03-22T08:36:08.226Z</time></trkpt><trkpt lat="43.5796217" lon="11.5305933"><ele>129.0</ele><time>2026-03-22T08:36:09.227Z</time></trkpt><trkpt lat="43.579575" lon="11.5306717"><ele>129.0</ele><time>2026-03-22T08:36:10.225Z</time></trkpt><trkpt lat="43.5795283" lon="11.530755"><ele>129.0</ele><time>2026-03-22T08:36:11.226Z</time></trkpt><trkpt lat="43.57948" lon="11.5308433"><ele>129.0</ele><time>2026-03-22T08:36:12.225Z</time></trkpt><trkpt lat="43.5794383" lon="11.53093"><ele>129.28571428571428</ele><time>2026-03-22T08:36:13.226Z</time></trkpt><trkpt lat="43.579395" lon="11.531015"><ele>129.57142857142856</ele><time>2026-03-22T08:36:14.226Z</time></trkpt><trkpt lat="43.5793533" lon="11.5310933"><ele>129.85714285714286</ele><time>2026-03-22T08:36:15.225Z</time></trkpt><trkpt lat="43.5793133" lon="11.5311733"><ele>130.14285714285714</ele><time>2026-03-22T08:36:16.228Z</time></trkpt><trkpt lat="43.5792717" lon="11.5312583"><ele>130.42857142857144</ele><time>2026-03-22T08:36:17.225Z</time></trkpt><trkpt lat="43.57923" lon="11.5313383"><ele>130.71428571428572</ele><time>2026-03-22T08:36:18.226Z</time></trkpt><trkpt lat="43.5791917" lon="11.5314217"><ele>131.0</ele><time>2026-03-22T08:36:19.225Z</time></trkpt><trkpt lat="43.57915" lon="11.5315033"><ele>131.0</ele><time>2026-03-22T08:36:20.226Z</time></trkpt><trkpt lat="43.5791083" lon="11.5315833"><ele>131.0</ele><time>2026-03-22T08:36:21.228Z</time></trkpt><trkpt lat="43.5790667" lon="11.531665"><ele>131.0</ele><time>2026-03-22T08:36:22.227Z</time></trkpt><trkpt lat="43.5790217" lon="11.5317467"><ele>131.0</ele><time>2026-03-22T08:36:23.225Z</time></trkpt><trkpt lat="43.5789783" lon="11.5318267"><ele>131.0</ele><time>2026-03-22T08:36:24.226Z</time></trkpt><trkpt lat="43.5789367" lon="11.5319067"><ele>131.0</ele><time>2026-03-22T08:36:25.228Z</time></trkpt><trkpt lat="43.5788933" lon="11.531985"><ele>131.0</ele><time>2026-03-22T08:36:26.226Z</time></trkpt><trkpt lat="43.57885" lon="11.532065"><ele>130.85714285714286</ele><time>2026-03-22T08:36:27.227Z</time></trkpt><trkpt lat="43.5788067" lon="11.5321483"><ele>130.71428571428572</ele><time>2026-03-22T08:36:28.225Z</time></trkpt><trkpt lat="43.57876" lon="11.53223"><ele>130.57142857142858</ele><time>2026-03-22T08:36:29.226Z</time></trkpt><trkpt lat="43.578715" lon="11.5323117"><ele>130.42857142857144</ele><time>2026-03-22T08:36:30.227Z</time></trkpt><trkpt lat="43.5786683" lon="11.532395"><ele>130.28571428571428</ele><time>2026-03-22T08:36:31.226Z</time></trkpt><trkpt lat="43.578625" lon="11.532475"><ele>130.14285714285717</ele><time>2026-03-22T08:36:32.226Z</time></trkpt><trkpt lat="43.5785817" lon="11.532555"><ele>130.0</ele><time>2026-03-22T08:36:33.227Z</time></trkpt><trkpt lat="43.5785383" lon="11.53263"><ele>130.5</ele><time>2026-03-22T08:36:34.225Z</time></trkpt><trkpt lat="43.5785" lon="11.5327083"><ele>131.0</ele><time>2026-03-22T08:36:35.227Z</time></trkpt><trkpt lat="43.5784633" lon="11.5327883"><ele>131.5</ele><time>2026-03-22T08:36:36.225Z</time></trkpt><trkpt lat="43.57842" lon="11.5328733"><ele>132.0</ele><time>2026-03-22T08:36:37.225Z</time></trkpt><trkpt lat="43.57838" lon="11.5329533"><ele>132.5</ele><time>2026-03-22T08:36:38.225Z</time></trkpt><trkpt lat="43.578345" lon="11.53303"><ele>133.0</ele><time>2026-03-22T08:36:39.225Z</time></trkpt><trkpt lat="43.5782717" lon="11.5331733"><ele>133.0</ele><time>2026-03-22T08:36:41.226Z</time></trkpt><trkpt lat="43.578235" lon="11.5332483"><ele>133.0</ele><time>2026-03-22T08:36:42.227Z</time></trkpt><trkpt lat="43.5782017" lon="11.5333233"><ele>133.0</ele><time>2026-03-22T08:36:43.227Z</time></trkpt><trkpt lat="43.5781417" lon="11.5334717"><ele>133.0</ele><time>2026-03-22T08:36:45.225Z</time></trkpt><trkpt lat="43.5781117" lon="11.5335483"><ele>133.0</ele><time>2026-03-22T08:36:46.225Z</time></trkpt><trkpt lat="43.5780817" lon="11.5336267"><ele>133.0</ele><time>2026-03-22T08:36:47.225Z</time></trkpt><trkpt lat="43.5780467" lon="11.5337083"><ele>133.0</ele><time>2026-03-22T08:36:48.225Z</time></trkpt><trkpt lat="43.5780083" lon="11.533785"><ele>133.6</ele><time>2026-03-22T08:36:49.225Z</time></trkpt><trkpt lat="43.5779367" lon="11.5339117"><ele>134.20000000000002</ele><time>2026-03-22T08:36:51.225Z</time></trkpt><trkpt lat="43.57786" lon="11.5340017"><ele>134.8</ele><time>2026-03-22T08:36:53.225Z</time></trkpt><trkpt lat="43.5777733" lon="11.5340633"><ele>135.4</ele><time>2026-03-22T08:36:55.225Z</time></trkpt><trkpt lat="43.5776917" lon="11.534125"><ele>136.0</ele><time>2026-03-22T08:36:57.225Z</time></trkpt><trkpt lat="43.57763" lon="11.534225"><ele>136.0</ele><time>2026-03-22T08:36:59.228Z</time></trkpt><trkpt lat="43.5775883" lon="11.534365"><ele>136.0</ele><time>2026-03-22T08:37:01.225Z</time></trkpt><trkpt lat="43.57755" lon="11.5345233"><ele>136.0</ele><time>2026-03-22T08:37:03.226Z</time></trkpt><trkpt lat="43.5774867" lon="11.5346767"><ele>136.0</ele><time>2026-03-22T08:37:05.225Z</time></trkpt><trkpt lat="43.5774417" lon="11.534745"><ele>136.0</ele><time>2026-03-22T08:37:06.226Z</time></trkpt><trkpt lat="43.5773933" lon="11.5348067"><ele>136.0</ele><time>2026-03-22T08:37:07.227Z</time></trkpt><trkpt lat="43.5773433" lon="11.534865"><ele>136.0</ele><time>2026-03-22T08:37:08.226Z</time></trkpt><trkpt lat="43.5772933" lon="11.5349233"><ele>136.0</ele><time>2026-03-22T08:37:09.226Z</time></trkpt><trkpt lat="43.5771933" lon="11.5350367"><ele>136.0</ele><time>2026-03-22T08:37:11.226Z</time></trkpt><trkpt lat="43.577145" lon="11.5350933"><ele>136.0</ele><time>2026-03-22T08:37:12.226Z</time></trkpt><trkpt lat="43.5770517" lon="11.5352033"><ele>136.0</ele><time>2026-03-22T08:37:14.225Z</time></trkpt><trkpt lat="43.576955" lon="11.5353067"><ele>135.75</ele><time>2026-03-22T08:37:16.225Z</time></trkpt><trkpt lat="43.5768667" lon="11.53541"><ele>135.5</ele><time>2026-03-22T08:37:18.226Z</time></trkpt><trkpt lat="43.5767783" lon="11.5355117"><ele>135.25</ele><time>2026-03-22T08:37:20.227Z</time></trkpt><trkpt lat="43.5766933" lon="11.5356267"><ele>135.0</ele><time>2026-03-22T08:37:22.227Z</time></trkpt><trkpt lat="43.5766067" lon="11.5357433"><ele>135.0</ele><time>2026-03-22T08:37:24.226Z</time></trkpt><trkpt lat="43.576515" lon="11.5358467"><ele>135.0</ele><time>2026-03-22T08:37:26.225Z</time></trkpt><trkpt lat="43.57642" lon="11.5359567"><ele>135.0</ele><time>2026-03-22T08:37:28.226Z</time></trkpt><trkpt lat="43.5763217" lon="11.536065"><ele>135.0</ele><time>2026-03-22T08:37:30.226Z</time></trkpt><trkpt lat="43.576275" lon="11.536125"><ele>135.0</ele><time>2026-03-22T08:37:31.227Z</time></trkpt><trkpt lat="43.576225" lon="11.5361867"><ele>135.57142857142856</ele><time>2026-03-22T08:37:32.226Z</time></trkpt><trkpt lat="43.5761717" lon="11.5362467"><ele>136.14285714285714</ele><time>2026-03-22T08:37:33.227Z</time></trkpt><trkpt lat="43.576115" lon="11.5363067"><ele>136.71428571428572</ele><time>2026-03-22T08:37:34.226Z</time></trkpt><trkpt lat="43.57606" lon="11.536375"><ele>137.28571428571428</ele><time>2026-03-22T08:37:35.227Z</time></trkpt><trkpt lat="43.576" lon="11.5364383"><ele>137.85714285714286</ele><time>2026-03-22T08:37:36.226Z</time></trkpt><trkpt lat="43.5759383" lon="11.5365033"><ele>138.42857142857142</ele><time>2026-03-22T08:37:37.225Z</time></trkpt><trkpt lat="43.5758767" lon="11.5365733"><ele>139.0</ele><time>2026-03-22T08:37:38.226Z</time></trkpt><trkpt lat="43.575815" lon="11.5366467"><ele>139.0</ele><time>2026-03-22T08:37:39.227Z</time></trkpt><trkpt lat="43.57575" lon="11.5367217"><ele>139.0</ele><time>2026-03-22T08:37:40.225Z</time></trkpt><trkpt lat="43.575685" lon="11.536795"><ele>139.0</ele><time>2026-03-22T08:37:41.225Z</time></trkpt><trkpt lat="43.5756183" lon="11.5368733"><ele>139.0</ele><time>2026-03-22T08:37:42.227Z</time></trkpt><trkpt lat="43.5755517" lon="11.536955"><ele>139.0</ele><time>2026-03-22T08:37:43.225Z</time></trkpt><trkpt lat="43.5754833" lon="11.5370333"><ele>139.0</ele><time>2026-03-22T08:37:44.226Z</time></trkpt><trkpt lat="43.5754133" lon="11.5371117"><ele>139.0</ele><time>2026-03-22T08:37:45.227Z</time></trkpt><trkpt lat="43.5753433" lon="11.5371917"><ele>139.0</ele><time>2026-03-22T08:37:46.224Z</time></trkpt><trkpt lat="43.575275" lon="11.5372733"><ele>139.0</ele><time>2026-03-22T08:37:47.226Z</time></trkpt><trkpt lat="43.5752017" lon="11.5373567"><ele>139.0</ele><time>2026-03-22T08:37:48.225Z</time></trkpt><trkpt lat="43.5751267" lon="11.5374333"><ele>139.0</ele><time>2026-03-22T08:37:49.226Z</time></trkpt><trkpt lat="43.575055" lon="11.5375167"><ele>139.0</ele><time>2026-03-22T08:37:50.225Z</time></trkpt><trkpt lat="43.574985" lon="11.5375983"><ele>139.0</ele><time>2026-03-22T08:37:51.226Z</time></trkpt><trkpt lat="43.574915" lon="11.5376817"><ele>139.0</ele><time>2026-03-22T08:37:52.226Z</time></trkpt><trkpt lat="43.574845" lon="11.5377633"><ele>139.0</ele><time>2026-03-22T08:37:53.226Z</time></trkpt><trkpt lat="43.5747783" lon="11.5378467"><ele>139.0</ele><time>2026-03-22T08:37:54.225Z</time></trkpt><trkpt lat="43.57471" lon="11.5379283"><ele>139.6</ele><time>2026-03-22T08:37:55.227Z</time></trkpt><trkpt lat="43.57464" lon="11.53801"><ele>140.2</ele><time>2026-03-22T08:37:56.226Z</time></trkpt><trkpt lat="43.57457" lon="11.5380933"><ele>140.79999999999998</ele><time>2026-03-22T08:37:57.227Z</time></trkpt><trkpt lat="43.5745" lon="11.53818"><ele>141.4</ele><time>2026-03-22T08:37:58.226Z</time></trkpt><trkpt lat="43.5744283" lon="11.538265"><ele>142.0</ele><time>2026-03-22T08:37:59.226Z</time></trkpt><trkpt lat="43.574355" lon="11.538345"><ele>140.79999999999998</ele><time>2026-03-22T08:38:00.227Z</time></trkpt><trkpt lat="43.5742817" lon="11.538425"><ele>139.6</ele><time>2026-03-22T08:38:01.225Z</time></trkpt><trkpt lat="43.5742117" lon="11.5385067"><ele>138.39999999999998</ele><time>2026-03-22T08:38:02.227Z</time></trkpt><trkpt lat="43.57414" lon="11.5385917"><ele>137.2</ele><time>2026-03-22T08:38:03.227Z</time></trkpt><trkpt lat="43.5740683" lon="11.538675"><ele>136.0</ele><time>2026-03-22T08:38:04.225Z</time></trkpt><trkpt lat="43.5739983" lon="11.5387583"><ele>136.0</ele><time>2026-03-22T08:38:05.226Z</time></trkpt><trkpt lat="43.5739283" lon="11.53884"><ele>136.0</ele><time>2026-03-22T08:38:06.227Z</time></trkpt><trkpt lat="43.57386" lon="11.538925"><ele>136.0</ele><time>2026-03-22T08:38:07.225Z</time></trkpt><trkpt lat="43.573795" lon="11.5390083"><ele>136.0</ele><time>2026-03-22T08:38:08.226Z</time></trkpt><trkpt lat="43.5737267" lon="11.5390917"><ele>136.0</ele><time>2026-03-22T08:38:09.228Z</time></trkpt><trkpt lat="43.5736583" lon="11.5391717"><ele>135.8</ele><time>2026-03-22T08:38:10.226Z</time></trkpt><trkpt lat="43.5735883" lon="11.5392517"><ele>135.6</ele><time>2026-03-22T08:38:11.226Z</time></trkpt><trkpt lat="43.5735183" lon="11.5393333"><ele>135.4</ele><time>2026-03-22T08:38:12.226Z</time></trkpt><trkpt lat="43.57345" lon="11.5394183"><ele>135.2</ele><time>2026-03-22T08:38:13.225Z</time></trkpt><trkpt lat="43.57338" lon="11.5395017"><ele>135.0</ele><time>2026-03-22T08:38:14.224Z</time></trkpt><trkpt lat="43.5733117" lon="11.5395883"><ele>135.0</ele><time>2026-03-22T08:38:15.225Z</time></trkpt><trkpt lat="43.5732417" lon="11.539675"><ele>135.0</ele><time>2026-03-22T08:38:16.226Z</time></trkpt><trkpt lat="43.5731733" lon="11.5397617"><ele>135.0</ele><time>2026-03-22T08:38:17.225Z</time></trkpt><trkpt lat="43.573105" lon="11.5398517"><ele>135.0</ele><time>2026-03-22T08:38:18.225Z</time></trkpt><trkpt lat="43.573035" lon="11.5399417"><ele>135.0</ele><time>2026-03-22T08:38:19.225Z</time></trkpt><trkpt lat="43.5729683" lon="11.540035"><ele>135.0</ele><time>2026-03-22T08:38:20.226Z</time></trkpt><trkpt lat="43.572905" lon="11.5401317"><ele>135.0</ele><time>2026-03-22T08:38:21.226Z</time></trkpt><trkpt lat="43.5728467" lon="11.54023"><ele>135.0</ele><time>2026-03-22T08:38:22.226Z</time></trkpt><trkpt lat="43.572785" lon="11.5403283"><ele>135.0</ele><time>2026-03-22T08:38:23.225Z</time></trkpt><trkpt lat="43.5727233" lon="11.5404233"><ele>135.0</ele><time>2026-03-22T08:38:24.227Z</time></trkpt><trkpt lat="43.5726617" lon="11.5405167"><ele>135.0</ele><time>2026-03-22T08:38:25.225Z</time></trkpt><trkpt lat="43.5726033" lon="11.5406117"><ele>135.0</ele><time>2026-03-22T08:38:26.225Z</time></trkpt><trkpt lat="43.572545" lon="11.5407083"><ele>135.0</ele><time>2026-03-22T08:38:27.227Z</time></trkpt><trkpt lat="43.572485" lon="11.5408"><ele>135.0</ele><time>2026-03-22T08:38:28.225Z</time></trkpt><trkpt lat="43.5724217" lon="11.5408867"><ele>135.0</ele><time>2026-03-22T08:38:29.226Z</time></trkpt><trkpt lat="43.57236" lon="11.5409733"><ele>135.0</ele><time>2026-03-22T08:38:30.226Z</time></trkpt><trkpt lat="43.5722967" lon="11.54106"><ele>135.0</ele><time>2026-03-22T08:38:31.225Z</time></trkpt><trkpt lat="43.5722333" lon="11.541145"><ele>135.0</ele><time>2026-03-22T08:38:32.226Z</time></trkpt><trkpt lat="43.5721667" lon="11.5412267"><ele>135.0</ele><time>2026-03-22T08:38:33.228Z</time></trkpt><trkpt lat="43.5720983" lon="11.5413017"><ele>135.0</ele><time>2026-03-22T08:38:34.226Z</time></trkpt><trkpt lat="43.5720283" lon="11.5413767"><ele>135.0</ele><time>2026-03-22T08:38:35.226Z</time></trkpt><trkpt lat="43.57196" lon="11.54145"><ele>135.0</ele><time>2026-03-22T08:38:36.226Z</time></trkpt><trkpt lat="43.5718933" lon="11.541525"><ele>135.33333333333334</ele><time>2026-03-22T08:38:37.226Z</time></trkpt><trkpt lat="43.571825" lon="11.5415933"><ele>135.66666666666666</ele><time>2026-03-22T08:38:38.226Z</time></trkpt><trkpt lat="43.5717567" lon="11.5416583"><ele>136.0</ele><time>2026-03-22T08:38:39.228Z</time></trkpt><trkpt lat="43.5716883" lon="11.54172"><ele>136.33333333333331</ele><time>2026-03-22T08:38:40.225Z</time></trkpt><trkpt lat="43.5716167" lon="11.5417783"><ele>136.66666666666666</ele><time>2026-03-22T08:38:41.226Z</time></trkpt><trkpt lat="43.5715417" lon="11.5418417"><ele>137.0</ele><time>2026-03-22T08:38:42.226Z</time></trkpt><trkpt lat="43.57147" lon="11.541905"><ele>137.0</ele><time>2026-03-22T08:38:43.226Z</time></trkpt><trkpt lat="43.5713967" lon="11.54197"><ele>137.0</ele><time>2026-03-22T08:38:44.226Z</time></trkpt><trkpt lat="43.5713267" lon="11.54204"><ele>137.0</ele><time>2026-03-22T08:38:45.225Z</time></trkpt><trkpt lat="43.571255" lon="11.5421067"><ele>137.0</ele><time>2026-03-22T08:38:46.227Z</time></trkpt><trkpt lat="43.5711867" lon="11.5421767"><ele>137.0</ele><time>2026-03-22T08:38:47.225Z</time></trkpt><trkpt lat="43.571115" lon="11.54224"><ele>137.0</ele><time>2026-03-22T08:38:48.227Z</time></trkpt><trkpt lat="43.5710467" lon="11.54231"><ele>137.16666666666666</ele><time>2026-03-22T08:38:49.225Z</time></trkpt><trkpt lat="43.5709783" lon="11.5423783"><ele>137.33333333333331</ele><time>2026-03-22T08:38:50.225Z</time></trkpt><trkpt lat="43.5709067" lon="11.542445"><ele>137.5</ele><time>2026-03-22T08:38:51.225Z</time></trkpt><trkpt lat="43.57084" lon="11.5425167"><ele>137.66666666666666</ele><time>2026-03-22T08:38:52.224Z</time></trkpt><trkpt lat="43.570775" lon="11.542585"><ele>137.83333333333334</ele><time>2026-03-22T08:38:53.225Z</time></trkpt><trkpt lat="43.5707083" lon="11.542655"><ele>138.0</ele><time>2026-03-22T08:38:54.226Z</time></trkpt><trkpt lat="43.5706433" lon="11.5427267"><ele>138.0</ele><time>2026-03-22T08:38:55.227Z</time></trkpt><trkpt lat="43.5705783" lon="11.5427967"><ele>138.0</ele><time>2026-03-22T08:38:56.225Z</time></trkpt><trkpt lat="43.57051" lon="11.542865"><ele>138.0</ele><time>2026-03-22T08:38:57.225Z</time></trkpt><trkpt lat="43.5704417" lon="11.542935"><ele>138.0</ele><time>2026-03-22T08:38:58.228Z</time></trkpt><trkpt lat="43.5703717" lon="11.543"><ele>138.0</ele><time>2026-03-22T08:38:59.223Z</time></trkpt><trkpt lat="43.5702933" lon="11.5430533"><ele>138.0</ele><time>2026-03-22T08:39:00.223Z</time></trkpt><trkpt lat="43.570215" lon="11.5430983"><ele>137.66666666666666</ele><time>2026-03-22T08:39:01.227Z</time></trkpt><trkpt lat="43.5701333" lon="11.5431267"><ele>137.33333333333334</ele><time>2026-03-22T08:39:02.226Z</time></trkpt><trkpt lat="43.57005" lon="11.5431433"><ele>137.0</ele><time>2026-03-22T08:39:03.226Z</time></trkpt><trkpt lat="43.5699667" lon="11.5431467"><ele>136.66666666666669</ele><time>2026-03-22T08:39:04.226Z</time></trkpt><trkpt lat="43.5698817" lon="11.5431433"><ele>136.33333333333334</ele><time>2026-03-22T08:39:05.225Z</time></trkpt><trkpt lat="43.5697983" lon="11.54313"><ele>136.0</ele><time>2026-03-22T08:39:06.225Z</time></trkpt><trkpt lat="43.569715" lon="11.543105"><ele>136.0</ele><time>2026-03-22T08:39:07.227Z</time></trkpt><trkpt lat="43.5696333" lon="11.543075"><ele>136.0</ele><time>2026-03-22T08:39:08.227Z</time></trkpt><trkpt lat="43.5695633" lon="11.5430583"><ele>136.0</ele><time>2026-03-22T08:39:09.224Z</time></trkpt><trkpt lat="43.5695" lon="11.54304"><ele>136.0</ele><time>2026-03-22T08:39:10.226Z</time></trkpt><trkpt lat="43.5694367" lon="11.54302"><ele>136.0</ele><time>2026-03-22T08:39:11.225Z</time></trkpt><trkpt lat="43.5693183" lon="11.5429883"><ele>136.0</ele><time>2026-03-22T08:39:13.225Z</time></trkpt><trkpt lat="43.5692067" lon="11.5429567"><ele>136.5</ele><time>2026-03-22T08:39:15.225Z</time></trkpt><trkpt lat="43.5690967" lon="11.5429433"><ele>137.0</ele><time>2026-03-22T08:39:17.225Z</time></trkpt><trkpt lat="43.568985" lon="11.542925"><ele>137.5</ele><time>2026-03-22T08:39:19.227Z</time></trkpt><trkpt lat="43.5688683" lon="11.54293"><ele>138.0</ele><time>2026-03-22T08:39:21.225Z</time></trkpt><trkpt lat="43.5687567" lon="11.5429433"><ele>138.0</ele><time>2026-03-22T08:39:23.225Z</time></trkpt><trkpt lat="43.5686483" lon="11.54296"><ele>138.0</ele><time>2026-03-22T08:39:25.226Z</time></trkpt><trkpt lat="43.568535" lon="11.542985"><ele>138.0</ele><time>2026-03-22T08:39:27.227Z</time></trkpt><trkpt lat="43.568415" lon="11.5430217"><ele>138.0</ele><time>2026-03-22T08:39:29.224Z</time></trkpt><trkpt lat="43.5683" lon="11.543065"><ele>138.0</ele><time>2026-03-22T08:39:31.227Z</time></trkpt><trkpt lat="43.568235" lon="11.54309"><ele>138.0</ele><time>2026-03-22T08:39:32.225Z</time></trkpt><trkpt lat="43.5681717" lon="11.54311"><ele>138.0</ele><time>2026-03-22T08:39:33.226Z</time></trkpt><trkpt lat="43.5681033" lon="11.54313"><ele>138.0</ele><time>2026-03-22T08:39:34.225Z</time></trkpt><trkpt lat="43.5680367" lon="11.5431517"><ele>138.0</ele><time>2026-03-22T08:39:35.227Z</time></trkpt><trkpt lat="43.5679717" lon="11.543175"><ele>138.0</ele><time>2026-03-22T08:39:36.226Z</time></trkpt><trkpt lat="43.5679067" lon="11.5431983"><ele>138.0</ele><time>2026-03-22T08:39:37.225Z</time></trkpt><trkpt lat="43.5678383" lon="11.543215"><ele>138.42857142857144</ele><time>2026-03-22T08:39:38.226Z</time></trkpt><trkpt lat="43.5677683" lon="11.5432333"><ele>138.85714285714286</ele><time>2026-03-22T08:39:39.226Z</time></trkpt><trkpt lat="43.5676933" lon="11.54325"><ele>139.28571428571428</ele><time>2026-03-22T08:39:40.225Z</time></trkpt><trkpt lat="43.5676183" lon="11.5432633"><ele>139.71428571428572</ele><time>2026-03-22T08:39:41.227Z</time></trkpt><trkpt lat="43.567545" lon="11.5432733"><ele>140.14285714285714</ele><time>2026-03-22T08:39:42.225Z</time></trkpt><trkpt lat="43.5674733" lon="11.54328"><ele>140.57142857142858</ele><time>2026-03-22T08:39:43.227Z</time></trkpt><trkpt lat="43.5674" lon="11.54328"><ele>141.0</ele><time>2026-03-22T08:39:44.227Z</time></trkpt><trkpt lat="43.5673183" lon="11.5432817"><ele>141.0</ele><time>2026-03-22T08:39:45.225Z</time></trkpt><trkpt lat="43.56724" lon="11.5432833"><ele>141.0</ele><time>2026-03-22T08:39:46.225Z</time></trkpt><trkpt lat="43.5671567" lon="11.543285"><ele>141.0</ele><time>2026-03-22T08:39:47.227Z</time></trkpt><trkpt lat="43.5670717" lon="11.5432833"><ele>141.0</ele><time>2026-03-22T08:39:48.225Z</time></trkpt><trkpt lat="43.5669883" lon="11.54328"><ele>141.0</ele><time>2026-03-22T08:39:49.226Z</time></trkpt><trkpt lat="43.5669083" lon="11.5432717"><ele>141.0</ele><time>2026-03-22T08:39:50.228Z</time></trkpt><trkpt lat="43.566825" lon="11.543265"><ele>141.8</ele><time>2026-03-22T08:39:51.226Z</time></trkpt><trkpt lat="43.5667417" lon="11.543255"><ele>142.6</ele><time>2026-03-22T08:39:52.226Z</time></trkpt><trkpt lat="43.566655" lon="11.5432467"><ele>143.4</ele><time>2026-03-22T08:39:53.226Z</time></trkpt><trkpt lat="43.5665633" lon="11.543235"><ele>144.2</ele><time>2026-03-22T08:39:54.225Z</time></trkpt><trkpt lat="43.56647" lon="11.5432233"><ele>145.0</ele><time>2026-03-22T08:39:55.225Z</time></trkpt><trkpt lat="43.5663767" lon="11.5432133"><ele>145.0</ele><time>2026-03-22T08:39:56.225Z</time></trkpt><trkpt lat="43.5662817" lon="11.54321"><ele>145.0</ele><time>2026-03-22T08:39:57.224Z</time></trkpt><trkpt lat="43.56619" lon="11.5432"><ele>145.0</ele><time>2026-03-22T08:39:58.224Z</time></trkpt><trkpt lat="43.5661" lon="11.5431883"><ele>145.0</ele><time>2026-03-22T08:39:59.228Z</time></trkpt><trkpt lat="43.56601" lon="11.5431767"><ele>145.0</ele><time>2026-03-22T08:40:00.225Z</time></trkpt><trkpt lat="43.5659233" lon="11.5431633"><ele>144.6</ele><time>2026-03-22T08:40:01.225Z</time></trkpt><trkpt lat="43.5658333" lon="11.543155"><ele>144.2</ele><time>2026-03-22T08:40:02.225Z</time></trkpt><trkpt lat="43.5657417" lon="11.5431433"><ele>143.8</ele><time>2026-03-22T08:40:03.227Z</time></trkpt><trkpt lat="43.565645" lon="11.5431283"><ele>143.4</ele><time>2026-03-22T08:40:04.226Z</time></trkpt><trkpt lat="43.5655517" lon="11.5431133"><ele>143.0</ele><time>2026-03-22T08:40:05.226Z</time></trkpt><trkpt lat="43.56546" lon="11.5431017"><ele>143.0</ele><time>2026-03-22T08:40:06.226Z</time></trkpt><trkpt lat="43.5653683" lon="11.5430867"><ele>143.0</ele><time>2026-03-22T08:40:07.225Z</time></trkpt><trkpt lat="43.5652733" lon="11.54307"><ele>143.0</ele><time>2026-03-22T08:40:08.229Z</time></trkpt><trkpt lat="43.5651783" lon="11.543055"><ele>143.0</ele><time>2026-03-22T08:40:09.225Z</time></trkpt><trkpt lat="43.5650883" lon="11.543045"><ele>143.0</ele><time>2026-03-22T08:40:10.227Z</time></trkpt><trkpt lat="43.564995" lon="11.543035"><ele>142.0</ele><time>2026-03-22T08:40:11.226Z</time></trkpt><trkpt lat="43.5649" lon="11.5430233"><ele>141.0</ele><time>2026-03-22T08:40:12.224Z</time></trkpt><trkpt lat="43.5648083" lon="11.5430133"><ele>140.0</ele><time>2026-03-22T08:40:13.226Z</time></trkpt><trkpt lat="43.5647167" lon="11.5430083"><ele>139.0</ele><time>2026-03-22T08:40:14.226Z</time></trkpt><trkpt lat="43.56462" lon="11.5430017"><ele>138.0</ele><time>2026-03-22T08:40:15.227Z</time></trkpt><trkpt lat="43.564525" lon="11.5429983"><ele>137.8</ele><time>2026-03-22T08:40:16.224Z</time></trkpt><trkpt lat="43.5644317" lon="11.5429917"><ele>137.60000000000002</ele><time>2026-03-22T08:40:17.226Z</time></trkpt><trkpt lat="43.5643383" lon="11.54299"><ele>137.39999999999998</ele><time>2026-03-22T08:40:18.225Z</time></trkpt><trkpt lat="43.564245" lon="11.54299"><ele>137.2</ele><time>2026-03-22T08:40:19.225Z</time></trkpt><trkpt lat="43.5641517" lon="11.5429917"><ele>137.0</ele><time>2026-03-22T08:40:20.225Z</time></trkpt><trkpt lat="43.5640583" lon="11.5429933"><ele>137.0</ele><time>2026-03-22T08:40:21.225Z</time></trkpt><trkpt lat="43.5639667" lon="11.5429933"><ele>137.0</ele><time>2026-03-22T08:40:22.227Z</time></trkpt><trkpt lat="43.5638767" lon="11.5429967"><ele>137.0</ele><time>2026-03-22T08:40:23.226Z</time></trkpt><trkpt lat="43.5637867" lon="11.5430017"><ele>137.0</ele><time>2026-03-22T08:40:24.226Z</time></trkpt><trkpt lat="43.563695" lon="11.5429983"><ele>137.0</ele><time>2026-03-22T08:40:25.226Z</time></trkpt><trkpt lat="43.563605" lon="11.5429917"><ele>137.0</ele><time>2026-03-22T08:40:26.227Z</time></trkpt><trkpt lat="43.5635133" lon="11.54298"><ele>137.0</ele><time>2026-03-22T08:40:27.227Z</time></trkpt><trkpt lat="43.5634233" lon="11.5429783"><ele>137.0</ele><time>2026-03-22T08:40:28.227Z</time></trkpt><trkpt lat="43.5633333" lon="11.5429833"><ele>137.0</ele><time>2026-03-22T08:40:29.227Z</time></trkpt><trkpt lat="43.5632467" lon="11.5429883"><ele>137.0</ele><time>2026-03-22T08:40:30.225Z</time></trkpt><trkpt lat="43.56316" lon="11.5429833"><ele>137.0</ele><time>2026-03-22T08:40:31.225Z</time></trkpt><trkpt lat="43.5630783" lon="11.542965"><ele>137.0</ele><time>2026-03-22T08:40:32.226Z</time></trkpt><trkpt lat="43.562995" lon="11.5429467"><ele>137.0</ele><time>2026-03-22T08:40:33.225Z</time></trkpt><trkpt lat="43.562915" lon="11.5429267"><ele>137.0</ele><time>2026-03-22T08:40:34.225Z</time></trkpt><trkpt lat="43.562835" lon="11.5429033"><ele>137.0</ele><time>2026-03-22T08:40:35.226Z</time></trkpt><trkpt lat="43.562755" lon="11.5428817"><ele>137.0</ele><time>2026-03-22T08:40:36.224Z</time></trkpt><trkpt lat="43.562675" lon="11.542865"><ele>137.0</ele><time>2026-03-22T08:40:37.226Z</time></trkpt><trkpt lat="43.5625933" lon="11.5428433"><ele>136.66666666666666</ele><time>2026-03-22T08:40:38.226Z</time></trkpt><trkpt lat="43.5625117" lon="11.542825"><ele>136.33333333333331</ele><time>2026-03-22T08:40:39.227Z</time></trkpt><trkpt lat="43.5624283" lon="11.5428083"><ele>136.0</ele><time>2026-03-22T08:40:40.227Z</time></trkpt><trkpt lat="43.5623467" lon="11.5427933"><ele>135.66666666666666</ele><time>2026-03-22T08:40:41.226Z</time></trkpt><trkpt lat="43.5622617" lon="11.5427767"><ele>135.33333333333334</ele><time>2026-03-22T08:40:42.228Z</time></trkpt><trkpt lat="43.5621783" lon="11.5427583"><ele>135.0</ele><time>2026-03-22T08:40:43.226Z</time></trkpt><trkpt lat="43.5620933" lon="11.54275"><ele>135.0</ele><time>2026-03-22T08:40:44.226Z</time></trkpt><trkpt lat="43.5620067" lon="11.54274"><ele>135.0</ele><time>2026-03-22T08:40:45.225Z</time></trkpt><trkpt lat="43.5619233" lon="11.5427233"><ele>135.0</ele><time>2026-03-22T08:40:46.225Z</time></trkpt><trkpt lat="43.5618367" lon="11.5427083"><ele>135.0</ele><time>2026-03-22T08:40:47.225Z</time></trkpt><trkpt lat="43.56175" lon="11.5426967"><ele>135.0</ele><time>2026-03-22T08:40:48.226Z</time></trkpt><trkpt lat="43.5616633" lon="11.54269"><ele>135.0</ele><time>2026-03-22T08:40:49.225Z</time></trkpt><trkpt lat="43.561575" lon="11.5426783"><ele>135.0</ele><time>2026-03-22T08:40:50.226Z</time></trkpt><trkpt lat="43.561485" lon="11.5426667"><ele>135.0</ele><time>2026-03-22T08:40:51.226Z</time></trkpt><trkpt lat="43.5613967" lon="11.5426533"><ele>135.0</ele><time>2026-03-22T08:40:52.226Z</time></trkpt><trkpt lat="43.561305" lon="11.5426383"><ele>135.0</ele><time>2026-03-22T08:40:53.225Z</time></trkpt><trkpt lat="43.5612167" lon="11.54263"><ele>135.0</ele><time>2026-03-22T08:40:54.226Z</time></trkpt><trkpt lat="43.5611267" lon="11.5426217"><ele>134.83333333333334</ele><time>2026-03-22T08:40:55.226Z</time></trkpt><trkpt lat="43.5610383" lon="11.5426117"><ele>134.66666666666666</ele><time>2026-03-22T08:40:56.227Z</time></trkpt><trkpt lat="43.56095" lon="11.5426"><ele>134.5</ele><time>2026-03-22T08:40:57.226Z</time></trkpt><trkpt lat="43.5608617" lon="11.54259"><ele>134.33333333333331</ele><time>2026-03-22T08:40:58.226Z</time></trkpt><trkpt lat="43.560775" lon="11.542585"><ele>134.16666666666666</ele><time>2026-03-22T08:40:59.227Z</time></trkpt><trkpt lat="43.5606867" lon="11.5425833"><ele>134.0</ele><time>2026-03-22T08:41:00.226Z</time></trkpt><trkpt lat="43.5605983" lon="11.5425817"><ele>134.0</ele><time>2026-03-22T08:41:01.225Z</time></trkpt><trkpt lat="43.5605083" lon="11.54258"><ele>134.0</ele><time>2026-03-22T08:41:02.226Z</time></trkpt><trkpt lat="43.5604217" lon="11.542575"><ele>134.0</ele><time>2026-03-22T08:41:03.225Z</time></trkpt><trkpt lat="43.5603383" lon="11.5425667"><ele>134.0</ele><time>2026-03-22T08:41:04.225Z</time></trkpt><trkpt lat="43.5602533" lon="11.54256"><ele>134.0</ele><time>2026-03-22T08:41:05.226Z</time></trkpt><trkpt lat="43.56017" lon="11.542555"><ele>134.0</ele><time>2026-03-22T08:41:06.225Z</time></trkpt><trkpt lat="43.5600883" lon="11.5425517"><ele>134.16666666666666</ele><time>2026-03-22T08:41:07.224Z</time></trkpt><trkpt lat="43.560005" lon="11.54255"><ele>134.33333333333331</ele><time>2026-03-22T08:41:08.225Z</time></trkpt><trkpt lat="43.5599233" lon="11.5425533"><ele>134.5</ele><time>2026-03-22T08:41:09.225Z</time></trkpt><trkpt lat="43.5598433" lon="11.5425583"><ele>134.66666666666666</ele><time>2026-03-22T08:41:10.227Z</time></trkpt><trkpt lat="43.5597633" lon="11.5425633"><ele>134.83333333333334</ele><time>2026-03-22T08:41:11.225Z</time></trkpt><trkpt lat="43.559685" lon="11.5425717"><ele>135.0</ele><time>2026-03-22T08:41:12.225Z</time></trkpt><trkpt lat="43.5596033" lon="11.5425767"><ele>135.33333333333334</ele><time>2026-03-22T08:41:13.225Z</time></trkpt><trkpt lat="43.5595217" lon="11.54258"><ele>135.66666666666666</ele><time>2026-03-22T08:41:14.225Z</time></trkpt><trkpt lat="43.5594433" lon="11.5425867"><ele>136.0</ele><time>2026-03-22T08:41:15.225Z</time></trkpt><trkpt lat="43.559365" lon="11.5425967"><ele>136.33333333333331</ele><time>2026-03-22T08:41:16.225Z</time></trkpt><trkpt lat="43.5592883" lon="11.5426083"><ele>136.66666666666666</ele><time>2026-03-22T08:41:17.226Z</time></trkpt><trkpt lat="43.5592117" lon="11.542625"><ele>137.0</ele><time>2026-03-22T08:41:18.225Z</time></trkpt><trkpt lat="43.5591367" lon="11.5426467"><ele>137.0</ele><time>2026-03-22T08:41:19.225Z</time></trkpt><trkpt lat="43.5590633" lon="11.5426717"><ele>137.0</ele><time>2026-03-22T08:41:20.225Z</time></trkpt><trkpt lat="43.5589883" lon="11.542695"><ele>137.0</ele><time>2026-03-22T08:41:21.225Z</time></trkpt><trkpt lat="43.5589133" lon="11.5427217"><ele>137.0</ele><time>2026-03-22T08:41:22.225Z</time></trkpt><trkpt lat="43.5588433" lon="11.5427517"><ele>137.0</ele><time>2026-03-22T08:41:23.225Z</time></trkpt><trkpt lat="43.558775" lon="11.54279"><ele>137.0</ele><time>2026-03-22T08:41:24.225Z</time></trkpt><trkpt lat="43.5587033" lon="11.542825"><ele>137.00000000000003</ele><time>2026-03-22T08:41:25.226Z</time></trkpt><trkpt lat="43.5586367" lon="11.5428617"><ele>137.0</ele><time>2026-03-22T08:41:26.225Z</time></trkpt><trkpt lat="43.5585733" lon="11.5429033"><ele>137.0</ele><time>2026-03-22T08:41:27.225Z</time></trkpt><trkpt lat="43.5585133" lon="11.542945"><ele>137.0</ele><time>2026-03-22T08:41:28.225Z</time></trkpt><trkpt lat="43.5584517" lon="11.5429883"><ele>137.0</ele><time>2026-03-22T08:41:29.226Z</time></trkpt><trkpt lat="43.5583917" lon="11.5430333"><ele>137.00000000000003</ele><time>2026-03-22T08:41:30.225Z</time></trkpt><trkpt lat="43.5583333" lon="11.5430817"><ele>137.0</ele><time>2026-03-22T08:41:31.226Z</time></trkpt><trkpt lat="43.5582717" lon="11.54313"><ele>137.00000000000003</ele><time>2026-03-22T08:41:32.226Z</time></trkpt><trkpt lat="43.5582133" lon="11.543185"><ele>137.0</ele><time>2026-03-22T08:41:33.225Z</time></trkpt><trkpt lat="43.558165" lon="11.543245"><ele>137.0</ele><time>2026-03-22T08:41:34.226Z</time></trkpt><trkpt lat="43.5581133" lon="11.5433067"><ele>137.0</ele><time>2026-03-22T08:41:35.223Z</time></trkpt><trkpt lat="43.558065" lon="11.5433667"><ele>137.0</ele><time>2026-03-22T08:41:36.226Z</time></trkpt><trkpt lat="43.5580167" lon="11.543425"><ele>137.00000000000003</ele><time>2026-03-22T08:41:37.226Z</time></trkpt><trkpt lat="43.55797" lon="11.5434867"><ele>137.0</ele><time>2026-03-22T08:41:38.225Z</time></trkpt><trkpt lat="43.5579233" lon="11.54355"><ele>137.0</ele><time>2026-03-22T08:41:39.226Z</time></trkpt><trkpt lat="43.5578767" lon="11.5436117"><ele>137.0</ele><time>2026-03-22T08:41:40.225Z</time></trkpt><trkpt lat="43.5577883" lon="11.543735"><ele>137.0</ele><time>2026-03-22T08:41:42.226Z</time></trkpt><trkpt lat="43.5577417" lon="11.5437967"><ele>137.0</ele><time>2026-03-22T08:41:43.227Z</time></trkpt><trkpt lat="43.5576967" lon="11.5438617"><ele>137.0</ele><time>2026-03-22T08:41:44.225Z</time></trkpt><trkpt lat="43.5576517" lon="11.5439267"><ele>137.0</ele><time>2026-03-22T08:41:45.226Z</time></trkpt><trkpt lat="43.5576033" lon="11.5439917"><ele>137.42857142857144</ele><time>2026-03-22T08:41:46.226Z</time></trkpt><trkpt lat="43.5575567" lon="11.5440567"><ele>137.85714285714286</ele><time>2026-03-22T08:41:47.226Z</time></trkpt><trkpt lat="43.5575083" lon="11.5441233"><ele>138.28571428571428</ele><time>2026-03-22T08:41:48.225Z</time></trkpt><trkpt lat="43.5574617" lon="11.544185"><ele>138.71428571428572</ele><time>2026-03-22T08:41:49.225Z</time></trkpt><trkpt lat="43.5574117" lon="11.5442483"><ele>139.14285714285714</ele><time>2026-03-22T08:41:50.227Z</time></trkpt><trkpt lat="43.5573617" lon="11.5443167"><ele>139.57142857142858</ele><time>2026-03-22T08:41:51.226Z</time></trkpt><trkpt lat="43.55731" lon="11.5443867"><ele>140.0</ele><time>2026-03-22T08:41:52.225Z</time></trkpt><trkpt lat="43.5572567" lon="11.5444567"><ele>140.0</ele><time>2026-03-22T08:41:53.226Z</time></trkpt><trkpt lat="43.5572017" lon="11.5445283"><ele>140.0</ele><time>2026-03-22T08:41:54.226Z</time></trkpt><trkpt lat="43.5571467" lon="11.5445983"><ele>140.0</ele><time>2026-03-22T08:41:55.227Z</time></trkpt><trkpt lat="43.5570867" lon="11.5446717"><ele>140.0</ele><time>2026-03-22T08:41:56.225Z</time></trkpt><trkpt lat="43.5570317" lon="11.5447417"><ele>140.0</ele><time>2026-03-22T08:41:57.225Z</time></trkpt><trkpt lat="43.5569767" lon="11.5448133"><ele>140.0</ele><time>2026-03-22T08:41:58.227Z</time></trkpt><trkpt lat="43.556925" lon="11.544885"><ele>140.16666666666666</ele><time>2026-03-22T08:41:59.225Z</time></trkpt><trkpt lat="43.55687" lon="11.5449567"><ele>140.33333333333331</ele><time>2026-03-22T08:42:00.225Z</time></trkpt><trkpt lat="43.5568117" lon="11.54503"><ele>140.5</ele><time>2026-03-22T08:42:01.227Z</time></trkpt><trkpt lat="43.5567583" lon="11.5451"><ele>140.66666666666666</ele><time>2026-03-22T08:42:02.225Z</time></trkpt><trkpt lat="43.5567033" lon="11.545175"><ele>140.83333333333334</ele><time>2026-03-22T08:42:03.228Z</time></trkpt><trkpt lat="43.5566417" lon="11.545255"><ele>141.0</ele><time>2026-03-22T08:42:04.226Z</time></trkpt><trkpt lat="43.55659" lon="11.5453383"><ele>141.83333333333334</ele><time>2026-03-22T08:42:05.227Z</time></trkpt><trkpt lat="43.5565383" lon="11.5454233"><ele>142.66666666666666</ele><time>2026-03-22T08:42:06.226Z</time></trkpt><trkpt lat="43.5564833" lon="11.54551"><ele>143.5</ele><time>2026-03-22T08:42:07.225Z</time></trkpt><trkpt lat="43.5564267" lon="11.5456033"><ele>144.33333333333331</ele><time>2026-03-22T08:42:08.225Z</time></trkpt><trkpt lat="43.5563717" lon="11.5457017"><ele>145.16666666666666</ele><time>2026-03-22T08:42:09.226Z</time></trkpt><trkpt lat="43.5563167" lon="11.5458017"><ele>146.0</ele><time>2026-03-22T08:42:10.225Z</time></trkpt><trkpt lat="43.55626" lon="11.5459017"><ele>146.0</ele><time>2026-03-22T08:42:11.225Z</time></trkpt><trkpt lat="43.5562033" lon="11.546"><ele>146.0</ele><time>2026-03-22T08:42:12.224Z</time></trkpt><trkpt lat="43.556145" lon="11.5461033"><ele>146.0</ele><time>2026-03-22T08:42:13.227Z</time></trkpt><trkpt lat="43.556085" lon="11.5462133"><ele>146.0</ele><time>2026-03-22T08:42:14.224Z</time></trkpt><trkpt lat="43.5560233" lon="11.5463267"><ele>146.0</ele><time>2026-03-22T08:42:15.225Z</time></trkpt><trkpt lat="43.5559617" lon="11.546445"><ele>145.4</ele><time>2026-03-22T08:42:16.226Z</time></trkpt><trkpt lat="43.5558967" lon="11.54656"><ele>144.8</ele><time>2026-03-22T08:42:17.225Z</time></trkpt><trkpt lat="43.55583" lon="11.5466717"><ele>144.20000000000002</ele><time>2026-03-22T08:42:18.225Z</time></trkpt><trkpt lat="43.5557633" lon="11.5467867"><ele>143.6</ele><time>2026-03-22T08:42:19.227Z</time></trkpt><trkpt lat="43.5556967" lon="11.546905"><ele>143.0</ele><time>2026-03-22T08:42:20.225Z</time></trkpt><trkpt lat="43.5556267" lon="11.547025"><ele>143.0</ele><time>2026-03-22T08:42:21.225Z</time></trkpt><trkpt lat="43.5555583" lon="11.5471433"><ele>143.0</ele><time>2026-03-22T08:42:22.227Z</time></trkpt><trkpt lat="43.5554883" lon="11.5472617"><ele>143.0</ele><time>2026-03-22T08:42:23.225Z</time></trkpt><trkpt lat="43.55542" lon="11.5473817"><ele>143.0</ele><time>2026-03-22T08:42:24.225Z</time></trkpt><trkpt lat="43.55535" lon="11.5475017"><ele>143.0</ele><time>2026-03-22T08:42:25.226Z</time></trkpt><trkpt lat="43.5552817" lon="11.5476233"><ele>141.8</ele><time>2026-03-22T08:42:26.226Z</time></trkpt><trkpt lat="43.5552133" lon="11.5477467"><ele>140.60000000000002</ele><time>2026-03-22T08:42:27.225Z</time></trkpt><trkpt lat="43.5551467" lon="11.5478667"><ele>139.39999999999998</ele><time>2026-03-22T08:42:28.226Z</time></trkpt><trkpt lat="43.5550817" lon="11.547985"><ele>138.2</ele><time>2026-03-22T08:42:29.225Z</time></trkpt><trkpt lat="43.5550133" lon="11.5481033"><ele>137.0</ele><time>2026-03-22T08:42:30.225Z</time></trkpt><trkpt lat="43.5549467" lon="11.5482233"><ele>137.0</ele><time>2026-03-22T08:42:31.225Z</time></trkpt><trkpt lat="43.55488" lon="11.548345"><ele>137.0</ele><time>2026-03-22T08:42:32.226Z</time></trkpt><trkpt lat="43.554815" lon="11.5484667"><ele>137.0</ele><time>2026-03-22T08:42:33.226Z</time></trkpt><trkpt lat="43.5547467" lon="11.548585"><ele>137.0</ele><time>2026-03-22T08:42:34.226Z</time></trkpt><trkpt lat="43.5546817" lon="11.5487033"><ele>137.0</ele><time>2026-03-22T08:42:35.227Z</time></trkpt><trkpt lat="43.5546133" lon="11.5488217"><ele>137.2</ele><time>2026-03-22T08:42:36.227Z</time></trkpt><trkpt lat="43.5545467" lon="11.5489417"><ele>137.39999999999998</ele><time>2026-03-22T08:42:37.227Z</time></trkpt><trkpt lat="43.5544817" lon="11.54906"><ele>137.60000000000002</ele><time>2026-03-22T08:42:38.226Z</time></trkpt><trkpt lat="43.554415" lon="11.5491767"><ele>137.8</ele><time>2026-03-22T08:42:39.225Z</time></trkpt><trkpt lat="43.5543483" lon="11.5492917"><ele>138.0</ele><time>2026-03-22T08:42:40.225Z</time></trkpt><trkpt lat="43.554285" lon="11.5494017"><ele>137.6</ele><time>2026-03-22T08:42:41.225Z</time></trkpt><trkpt lat="43.5542233" lon="11.549515"><ele>137.20000000000002</ele><time>2026-03-22T08:42:42.227Z</time></trkpt><trkpt lat="43.55416" lon="11.5496267"><ele>136.8</ele><time>2026-03-22T08:42:43.225Z</time></trkpt><trkpt lat="43.5540983" lon="11.54974"><ele>136.4</ele><time>2026-03-22T08:42:44.226Z</time></trkpt><trkpt lat="43.55404" lon="11.5498517"><ele>136.0</ele><time>2026-03-22T08:42:45.225Z</time></trkpt><trkpt lat="43.5539767" lon="11.549965"><ele>136.0</ele><time>2026-03-22T08:42:46.226Z</time></trkpt><trkpt lat="43.5539167" lon="11.5500767"><ele>136.0</ele><time>2026-03-22T08:42:47.226Z</time></trkpt><trkpt lat="43.5538567" lon="11.550185"><ele>136.0</ele><time>2026-03-22T08:42:48.225Z</time></trkpt><trkpt lat="43.5537967" lon="11.5502883"><ele>136.0</ele><time>2026-03-22T08:42:49.226Z</time></trkpt><trkpt lat="43.5537367" lon="11.5503933"><ele>136.0</ele><time>2026-03-22T08:42:50.225Z</time></trkpt><trkpt lat="43.5536733" lon="11.5505"><ele>136.0</ele><time>2026-03-22T08:42:51.227Z</time></trkpt><trkpt lat="43.553615" lon="11.5506067"><ele>136.0</ele><time>2026-03-22T08:42:52.225Z</time></trkpt><trkpt lat="43.5535533" lon="11.55071"><ele>136.0</ele><time>2026-03-22T08:42:53.226Z</time></trkpt><trkpt lat="43.5534933" lon="11.550815"><ele>136.0</ele><time>2026-03-22T08:42:54.225Z</time></trkpt><trkpt lat="43.5534333" lon="11.5509133"><ele>136.0</ele><time>2026-03-22T08:42:55.225Z</time></trkpt><trkpt lat="43.5533717" lon="11.551015"><ele>136.0</ele><time>2026-03-22T08:42:56.225Z</time></trkpt><trkpt lat="43.55331" lon="11.551115"><ele>136.0</ele><time>2026-03-22T08:42:57.225Z</time></trkpt><trkpt lat="43.5532467" lon="11.551215"><ele>136.0</ele><time>2026-03-22T08:42:58.225Z</time></trkpt><trkpt lat="43.5531867" lon="11.551315"><ele>136.0</ele><time>2026-03-22T08:42:59.224Z</time></trkpt><trkpt lat="43.5531233" lon="11.5514133"><ele>136.0</ele><time>2026-03-22T08:43:00.225Z</time></trkpt><trkpt lat="43.55306" lon="11.5515083"><ele>135.8</ele><time>2026-03-22T08:43:01.225Z</time></trkpt><trkpt lat="43.553" lon="11.551605"><ele>135.6</ele><time>2026-03-22T08:43:02.226Z</time></trkpt><trkpt lat="43.55294" lon="11.5517017"><ele>135.4</ele><time>2026-03-22T08:43:03.224Z</time></trkpt><trkpt lat="43.55288" lon="11.5517983"><ele>135.2</ele><time>2026-03-22T08:43:04.225Z</time></trkpt><trkpt lat="43.552815" lon="11.551895"><ele>135.0</ele><time>2026-03-22T08:43:05.225Z</time></trkpt><trkpt lat="43.5527517" lon="11.551985"><ele>135.4</ele><time>2026-03-22T08:43:06.224Z</time></trkpt><trkpt lat="43.5526883" lon="11.5520783"><ele>135.8</ele><time>2026-03-22T08:43:07.226Z</time></trkpt><trkpt lat="43.5526233" lon="11.5521733"><ele>136.2</ele><time>2026-03-22T08:43:08.226Z</time></trkpt><trkpt lat="43.5525567" lon="11.5522683"><ele>136.6</ele><time>2026-03-22T08:43:09.227Z</time></trkpt><trkpt lat="43.552485" lon="11.552365"><ele>137.0</ele><time>2026-03-22T08:43:10.225Z</time></trkpt><trkpt lat="43.5524183" lon="11.552455"><ele>137.0</ele><time>2026-03-22T08:43:11.224Z</time></trkpt><trkpt lat="43.552355" lon="11.5525467"><ele>137.0</ele><time>2026-03-22T08:43:12.227Z</time></trkpt><trkpt lat="43.55229" lon="11.5526333"><ele>137.0</ele><time>2026-03-22T08:43:13.226Z</time></trkpt><trkpt lat="43.5522267" lon="11.5527167"><ele>137.0</ele><time>2026-03-22T08:43:14.226Z</time></trkpt><trkpt lat="43.5521683" lon="11.5528"><ele>137.0</ele><time>2026-03-22T08:43:15.224Z</time></trkpt><trkpt lat="43.5521067" lon="11.5528833"><ele>137.0</ele><time>2026-03-22T08:43:16.225Z</time></trkpt><trkpt lat="43.5520483" lon="11.55297"><ele>137.16666666666666</ele><time>2026-03-22T08:43:17.227Z</time></trkpt><trkpt lat="43.55199" lon="11.5530583"><ele>137.33333333333331</ele><time>2026-03-22T08:43:18.225Z</time></trkpt><trkpt lat="43.5519367" lon="11.5531467"><ele>137.5</ele><time>2026-03-22T08:43:19.225Z</time></trkpt><trkpt lat="43.551885" lon="11.553235"><ele>137.66666666666666</ele><time>2026-03-22T08:43:20.225Z</time></trkpt><trkpt lat="43.5518333" lon="11.5533283"><ele>137.83333333333334</ele><time>2026-03-22T08:43:21.225Z</time></trkpt><trkpt lat="43.5517833" lon="11.553425"><ele>138.0</ele><time>2026-03-22T08:43:22.223Z</time></trkpt><trkpt lat="43.5517367" lon="11.5535183"><ele>138.0</ele><time>2026-03-22T08:43:23.224Z</time></trkpt><trkpt lat="43.5516933" lon="11.5536133"><ele>138.0</ele><time>2026-03-22T08:43:24.225Z</time></trkpt><trkpt lat="43.5516517" lon="11.5537117"><ele>138.0</ele><time>2026-03-22T08:43:25.225Z</time></trkpt><trkpt lat="43.5516133" lon="11.55381"><ele>138.0</ele><time>2026-03-22T08:43:26.227Z</time></trkpt><trkpt lat="43.55158" lon="11.5539083"><ele>138.0</ele><time>2026-03-22T08:43:27.225Z</time></trkpt><trkpt lat="43.5515483" lon="11.55401"><ele>138.0</ele><time>2026-03-22T08:43:28.226Z</time></trkpt><trkpt lat="43.5515217" lon="11.554115"><ele>138.33333333333334</ele><time>2026-03-22T08:43:29.225Z</time></trkpt><trkpt lat="43.5514983" lon="11.5542217"><ele>138.66666666666666</ele><time>2026-03-22T08:43:30.226Z</time></trkpt><trkpt lat="43.551475" lon="11.5543267"><ele>139.0</ele><time>2026-03-22T08:43:31.225Z</time></trkpt><trkpt lat="43.5514467" lon="11.554435"><ele>139.33333333333331</ele><time>2026-03-22T08:43:32.226Z</time></trkpt><trkpt lat="43.551425" lon="11.55454"><ele>139.66666666666666</ele><time>2026-03-22T08:43:33.228Z</time></trkpt><trkpt lat="43.5514017" lon="11.554645"><ele>140.0</ele><time>2026-03-22T08:43:34.225Z</time></trkpt><trkpt lat="43.55138" lon="11.5547483"><ele>140.0</ele><time>2026-03-22T08:43:35.226Z</time></trkpt><trkpt lat="43.551355" lon="11.5548533"><ele>140.0</ele><time>2026-03-22T08:43:36.226Z</time></trkpt><trkpt lat="43.55133" lon="11.55496"><ele>140.0</ele><time>2026-03-22T08:43:37.226Z</time></trkpt><trkpt lat="43.55131" lon="11.5550667"><ele>140.0</ele><time>2026-03-22T08:43:38.226Z</time></trkpt><trkpt lat="43.551285" lon="11.5551733"><ele>140.0</ele><time>2026-03-22T08:43:39.225Z</time></trkpt><trkpt lat="43.5512617" lon="11.55528"><ele>140.0</ele><time>2026-03-22T08:43:40.226Z</time></trkpt><trkpt lat="43.55124" lon="11.5553867"><ele>139.83333333333331</ele><time>2026-03-22T08:43:41.225Z</time></trkpt><trkpt lat="43.5512217" lon="11.5554983"><ele>139.66666666666666</ele><time>2026-03-22T08:43:42.225Z</time></trkpt><trkpt lat="43.5512067" lon="11.55561"><ele>139.5</ele><time>2026-03-22T08:43:43.227Z</time></trkpt><trkpt lat="43.5511967" lon="11.555725"><ele>139.33333333333334</ele><time>2026-03-22T08:43:44.225Z</time></trkpt><trkpt lat="43.5511967" lon="11.5558433"><ele>139.16666666666669</ele><time>2026-03-22T08:43:45.225Z</time></trkpt><trkpt lat="43.5511983" lon="11.5559533"><ele>139.0</ele><time>2026-03-22T08:43:46.225Z</time></trkpt><trkpt lat="43.5511983" lon="11.5560633"><ele>139.16666666666669</ele><time>2026-03-22T08:43:47.225Z</time></trkpt><trkpt lat="43.551195" lon="11.556175"><ele>139.33333333333334</ele><time>2026-03-22T08:43:48.227Z</time></trkpt><trkpt lat="43.55119" lon="11.55629"><ele>139.5</ele><time>2026-03-22T08:43:49.225Z</time></trkpt><trkpt lat="43.55118" lon="11.5564133"><ele>139.66666666666666</ele><time>2026-03-22T08:43:50.226Z</time></trkpt><trkpt lat="43.55117" lon="11.5565383"><ele>139.83333333333331</ele><time>2026-03-22T08:43:51.228Z</time></trkpt><trkpt lat="43.55115" lon="11.5566633"><ele>140.0</ele><time>2026-03-22T08:43:52.225Z</time></trkpt><trkpt lat="43.5511217" lon="11.5567883"><ele>140.0</ele><time>2026-03-22T08:43:53.226Z</time></trkpt><trkpt lat="43.5510867" lon="11.5569033"><ele>140.0</ele><time>2026-03-22T08:43:54.225Z</time></trkpt><trkpt lat="43.551045" lon="11.5570117"><ele>140.0</ele><time>2026-03-22T08:43:55.226Z</time></trkpt><trkpt lat="43.551005" lon="11.557115"><ele>140.0</ele><time>2026-03-22T08:43:56.225Z</time></trkpt><trkpt lat="43.5509633" lon="11.55721"><ele>140.0</ele><time>2026-03-22T08:43:57.225Z</time></trkpt><trkpt lat="43.5509217" lon="11.557305"><ele>140.0</ele><time>2026-03-22T08:43:58.227Z</time></trkpt><trkpt lat="43.5508783" lon="11.5574017"><ele>140.0</ele><time>2026-03-22T08:43:59.225Z</time></trkpt><trkpt lat="43.5508333" lon="11.5575"><ele>140.0</ele><time>2026-03-22T08:44:00.225Z</time></trkpt><trkpt lat="43.5507883" lon="11.5576033"><ele>140.0</ele><time>2026-03-22T08:44:01.226Z</time></trkpt><trkpt lat="43.550745" lon="11.5577133"><ele>140.0</ele><time>2026-03-22T08:44:02.227Z</time></trkpt><trkpt lat="43.5507067" lon="11.5578267"><ele>140.0</ele><time>2026-03-22T08:44:03.225Z</time></trkpt><trkpt lat="43.550675" lon="11.5579433"><ele>140.0</ele><time>2026-03-22T08:44:04.226Z</time></trkpt><trkpt lat="43.550645" lon="11.5580633"><ele>140.16666666666666</ele><time>2026-03-22T08:44:05.225Z</time></trkpt><trkpt lat="43.5506183" lon="11.5581817"><ele>140.33333333333331</ele><time>2026-03-22T08:44:06.226Z</time></trkpt><trkpt lat="43.5505933" lon="11.5583"><ele>140.5</ele><time>2026-03-22T08:44:07.227Z</time></trkpt><trkpt lat="43.5505683" lon="11.5584183"><ele>140.66666666666666</ele><time>2026-03-22T08:44:08.226Z</time></trkpt><trkpt lat="43.55055" lon="11.5585383"><ele>140.83333333333334</ele><time>2026-03-22T08:44:09.227Z</time></trkpt><trkpt lat="43.550525" lon="11.5586567"><ele>141.0</ele><time>2026-03-22T08:44:10.224Z</time></trkpt><trkpt lat="43.5505017" lon="11.558775"><ele>141.0</ele><time>2026-03-22T08:44:11.226Z</time></trkpt><trkpt lat="43.550475" lon="11.55889"><ele>141.0</ele><time>2026-03-22T08:44:12.226Z</time></trkpt><trkpt lat="43.5504483" lon="11.5590033"><ele>141.0</ele><time>2026-03-22T08:44:13.226Z</time></trkpt><trkpt lat="43.55042" lon="11.5591183"><ele>141.0</ele><time>2026-03-22T08:44:14.225Z</time></trkpt><trkpt lat="43.55039" lon="11.5592333"><ele>141.0</ele><time>2026-03-22T08:44:15.226Z</time></trkpt><trkpt lat="43.5503617" lon="11.559345"><ele>141.0</ele><time>2026-03-22T08:44:16.225Z</time></trkpt><trkpt lat="43.5503317" lon="11.5594583"><ele>140.83333333333334</ele><time>2026-03-22T08:44:17.227Z</time></trkpt><trkpt lat="43.5503" lon="11.55957"><ele>140.66666666666666</ele><time>2026-03-22T08:44:18.228Z</time></trkpt><trkpt lat="43.55027" lon="11.559685"><ele>140.5</ele><time>2026-03-22T08:44:19.226Z</time></trkpt><trkpt lat="43.55024" lon="11.5597983"><ele>140.33333333333331</ele><time>2026-03-22T08:44:20.226Z</time></trkpt><trkpt lat="43.55021" lon="11.5599117"><ele>140.16666666666666</ele><time>2026-03-22T08:44:21.225Z</time></trkpt><trkpt lat="43.5501783" lon="11.560025"><ele>140.0</ele><time>2026-03-22T08:44:22.225Z</time></trkpt><trkpt lat="43.5501467" lon="11.5601417"><ele>140.0</ele><time>2026-03-22T08:44:23.225Z</time></trkpt><trkpt lat="43.55011" lon="11.56025"><ele>140.0</ele><time>2026-03-22T08:44:24.225Z</time></trkpt><trkpt lat="43.5500783" lon="11.5603583"><ele>140.0</ele><time>2026-03-22T08:44:25.226Z</time></trkpt><trkpt lat="43.5500483" lon="11.56047"><ele>140.0</ele><time>2026-03-22T08:44:26.225Z</time></trkpt><trkpt lat="43.5500183" lon="11.5605817"><ele>140.0</ele><time>2026-03-22T08:44:27.225Z</time></trkpt><trkpt lat="43.54999" lon="11.5606933"><ele>140.0</ele><time>2026-03-22T08:44:28.225Z</time></trkpt><trkpt lat="43.54996" lon="11.560805"><ele>140.0</ele><time>2026-03-22T08:44:29.225Z</time></trkpt><trkpt lat="43.5499283" lon="11.5609167"><ele>140.0</ele><time>2026-03-22T08:44:30.225Z</time></trkpt><trkpt lat="43.549895" lon="11.5610267"><ele>140.0</ele><time>2026-03-22T08:44:31.225Z</time></trkpt><trkpt lat="43.5498583" lon="11.5611383"><ele>140.0</ele><time>2026-03-22T08:44:32.227Z</time></trkpt><trkpt lat="43.5498283" lon="11.5612533"><ele>140.0</ele><time>2026-03-22T08:44:33.226Z</time></trkpt><trkpt lat="43.549795" lon="11.561365"><ele>140.0</ele><time>2026-03-22T08:44:34.226Z</time></trkpt><trkpt lat="43.54976" lon="11.5614783"><ele>140.16666666666666</ele><time>2026-03-22T08:44:35.226Z</time></trkpt><trkpt lat="43.5497233" lon="11.56159"><ele>140.33333333333331</ele><time>2026-03-22T08:44:36.226Z</time></trkpt><trkpt lat="43.5496817" lon="11.5616983"><ele>140.5</ele><time>2026-03-22T08:44:37.227Z</time></trkpt><trkpt lat="43.5496417" lon="11.561805"><ele>140.66666666666666</ele><time>2026-03-22T08:44:38.227Z</time></trkpt><trkpt lat="43.549605" lon="11.5619117"><ele>140.83333333333334</ele><time>2026-03-22T08:44:39.225Z</time></trkpt><trkpt lat="43.5495633" lon="11.56202"><ele>141.0</ele><time>2026-03-22T08:44:40.225Z</time></trkpt><trkpt lat="43.549525" lon="11.562125"><ele>140.33333333333334</ele><time>2026-03-22T08:44:41.226Z</time></trkpt><trkpt lat="43.5494883" lon="11.5622283"><ele>139.66666666666666</ele><time>2026-03-22T08:44:42.228Z</time></trkpt><trkpt lat="43.5494533" lon="11.56233"><ele>139.0</ele><time>2026-03-22T08:44:43.227Z</time></trkpt><trkpt lat="43.54941" lon="11.5624317"><ele>138.33333333333331</ele><time>2026-03-22T08:44:44.226Z</time></trkpt><trkpt lat="43.5493683" lon="11.5625367"><ele>137.66666666666666</ele><time>2026-03-22T08:44:45.226Z</time></trkpt><trkpt lat="43.5493267" lon="11.562645"><ele>137.0</ele><time>2026-03-22T08:44:46.227Z</time></trkpt><trkpt lat="43.5492817" lon="11.56275"><ele>137.0</ele><time>2026-03-22T08:44:47.225Z</time></trkpt><trkpt lat="43.5492417" lon="11.5628567"><ele>137.0</ele><time>2026-03-22T08:44:48.225Z</time></trkpt><trkpt lat="43.5492083" lon="11.5629633"><ele>137.0</ele><time>2026-03-22T08:44:49.225Z</time></trkpt><trkpt lat="43.5491733" lon="11.5630667"><ele>137.0</ele><time>2026-03-22T08:44:50.226Z</time></trkpt><trkpt lat="43.5491383" lon="11.5631717"><ele>137.0</ele><time>2026-03-22T08:44:51.227Z</time></trkpt><trkpt lat="43.5491033" lon="11.563275"><ele>137.0</ele><time>2026-03-22T08:44:52.225Z</time></trkpt><trkpt lat="43.549065" lon="11.56338"><ele>137.5</ele><time>2026-03-22T08:44:53.226Z</time></trkpt><trkpt lat="43.54903" lon="11.563485"><ele>138.0</ele><time>2026-03-22T08:44:54.225Z</time></trkpt><trkpt lat="43.5489883" lon="11.5635883"><ele>138.5</ele><time>2026-03-22T08:44:55.224Z</time></trkpt><trkpt lat="43.5489483" lon="11.563695"><ele>139.0</ele><time>2026-03-22T08:44:56.227Z</time></trkpt><trkpt lat="43.5489083" lon="11.5638"><ele>139.5</ele><time>2026-03-22T08:44:57.225Z</time></trkpt><trkpt lat="43.5488683" lon="11.563905"><ele>140.0</ele><time>2026-03-22T08:44:58.227Z</time></trkpt><trkpt lat="43.5488267" lon="11.5640067"><ele>140.0</ele><time>2026-03-22T08:44:59.227Z</time></trkpt><trkpt lat="43.5487817" lon="11.5641117"><ele>140.0</ele><time>2026-03-22T08:45:00.226Z</time></trkpt><trkpt lat="43.5487383" lon="11.5642133"><ele>140.0</ele><time>2026-03-22T08:45:01.225Z</time></trkpt><trkpt lat="43.5487033" lon="11.5643167"><ele>140.0</ele><time>2026-03-22T08:45:02.227Z</time></trkpt><trkpt lat="43.5486633" lon="11.5644233"><ele>140.0</ele><time>2026-03-22T08:45:03.228Z</time></trkpt><trkpt lat="43.54862" lon="11.5645283"><ele>140.0</ele><time>2026-03-22T08:45:04.226Z</time></trkpt><trkpt lat="43.5485767" lon="11.5646367"><ele>140.0</ele><time>2026-03-22T08:45:05.227Z</time></trkpt><trkpt lat="43.54853" lon="11.5647417"><ele>140.0</ele><time>2026-03-22T08:45:06.225Z</time></trkpt><trkpt lat="43.54849" lon="11.564845"><ele>140.0</ele><time>2026-03-22T08:45:07.226Z</time></trkpt><trkpt lat="43.5484533" lon="11.5649483"><ele>140.0</ele><time>2026-03-22T08:45:08.226Z</time></trkpt><trkpt lat="43.548415" lon="11.5650517"><ele>140.0</ele><time>2026-03-22T08:45:09.227Z</time></trkpt><trkpt lat="43.54837" lon="11.5651533"><ele>140.0</ele><time>2026-03-22T08:45:10.225Z</time></trkpt><trkpt lat="43.54833" lon="11.565255"><ele>140.0</ele><time>2026-03-22T08:45:11.228Z</time></trkpt><trkpt lat="43.54829" lon="11.5653617"><ele>140.0</ele><time>2026-03-22T08:45:12.228Z</time></trkpt><trkpt lat="43.5482517" lon="11.5654633"><ele>140.0</ele><time>2026-03-22T08:45:13.225Z</time></trkpt><trkpt lat="43.548215" lon="11.565565"><ele>140.0</ele><time>2026-03-22T08:45:14.226Z</time></trkpt><trkpt lat="43.5481833" lon="11.5656633"><ele>140.0</ele><time>2026-03-22T08:45:15.226Z</time></trkpt><trkpt lat="43.5481467" lon="11.565765"><ele>140.0</ele><time>2026-03-22T08:45:16.225Z</time></trkpt><trkpt lat="43.5481117" lon="11.5658633"><ele>140.16666666666666</ele><time>2026-03-22T08:45:17.227Z</time></trkpt><trkpt lat="43.548075" lon="11.5659667"><ele>140.33333333333331</ele><time>2026-03-22T08:45:18.227Z</time></trkpt><trkpt lat="43.548035" lon="11.5660717"><ele>140.5</ele><time>2026-03-22T08:45:19.226Z</time></trkpt><trkpt lat="43.5479967" lon="11.566175"><ele>140.66666666666666</ele><time>2026-03-22T08:45:20.227Z</time></trkpt><trkpt lat="43.547965" lon="11.5662767"><ele>140.83333333333334</ele><time>2026-03-22T08:45:21.226Z</time></trkpt><trkpt lat="43.5479317" lon="11.566375"><ele>141.0</ele><time>2026-03-22T08:45:22.226Z</time></trkpt><trkpt lat="43.547895" lon="11.5664733"><ele>141.0</ele><time>2026-03-22T08:45:23.228Z</time></trkpt><trkpt lat="43.54786" lon="11.56657"><ele>141.0</ele><time>2026-03-22T08:45:24.226Z</time></trkpt><trkpt lat="43.5478217" lon="11.5666633"><ele>141.0</ele><time>2026-03-22T08:45:25.226Z</time></trkpt><trkpt lat="43.547785" lon="11.5667517"><ele>141.0</ele><time>2026-03-22T08:45:26.226Z</time></trkpt><trkpt lat="43.5477517" lon="11.5668517"><ele>141.0</ele><time>2026-03-22T08:45:27.226Z</time></trkpt><trkpt lat="43.5477167" lon="11.5669517"><ele>141.0</ele><time>2026-03-22T08:45:28.225Z</time></trkpt><trkpt lat="43.5476783" lon="11.56705"><ele>141.0</ele><time>2026-03-22T08:45:29.226Z</time></trkpt><trkpt lat="43.5476333" lon="11.5671517"><ele>141.0</ele><time>2026-03-22T08:45:30.228Z</time></trkpt><trkpt lat="43.54759" lon="11.56725"><ele>141.0</ele><time>2026-03-22T08:45:31.225Z</time></trkpt><trkpt lat="43.5475483" lon="11.56735"><ele>141.0</ele><time>2026-03-22T08:45:32.225Z</time></trkpt><trkpt lat="43.5475083" lon="11.5674483"><ele>141.0</ele><time>2026-03-22T08:45:33.226Z</time></trkpt><trkpt lat="43.54747" lon="11.5675483"><ele>141.0</ele><time>2026-03-22T08:45:34.227Z</time></trkpt><trkpt lat="43.547435" lon="11.5676517"><ele>141.0</ele><time>2026-03-22T08:45:35.227Z</time></trkpt><trkpt lat="43.5473983" lon="11.567755"><ele>141.0</ele><time>2026-03-22T08:45:36.225Z</time></trkpt><trkpt lat="43.5473617" lon="11.56786"><ele>141.0</ele><time>2026-03-22T08:45:37.228Z</time></trkpt><trkpt lat="43.547325" lon="11.56796"><ele>141.0</ele><time>2026-03-22T08:45:38.227Z</time></trkpt><trkpt lat="43.5472867" lon="11.5680583"><ele>141.0</ele><time>2026-03-22T08:45:39.225Z</time></trkpt><trkpt lat="43.5472483" lon="11.5681567"><ele>141.0</ele><time>2026-03-22T08:45:40.227Z</time></trkpt><trkpt lat="43.547215" lon="11.568255"><ele>141.0</ele><time>2026-03-22T08:45:41.225Z</time></trkpt><trkpt lat="43.5471867" lon="11.5683567"><ele>141.0</ele><time>2026-03-22T08:45:42.226Z</time></trkpt><trkpt lat="43.54715" lon="11.568455"><ele>141.0</ele><time>2026-03-22T08:45:43.227Z</time></trkpt><trkpt lat="43.5471133" lon="11.5685517"><ele>141.0</ele><time>2026-03-22T08:45:44.225Z</time></trkpt><trkpt lat="43.5470733" lon="11.56865"><ele>141.0</ele><time>2026-03-22T08:45:45.225Z</time></trkpt><trkpt lat="43.5470383" lon="11.5687467"><ele>141.0</ele><time>2026-03-22T08:45:46.225Z</time></trkpt><trkpt lat="43.5470017" lon="11.5688433"><ele>140.83333333333334</ele><time>2026-03-22T08:45:47.227Z</time></trkpt><trkpt lat="43.5469617" lon="11.56894"><ele>140.66666666666666</ele><time>2026-03-22T08:45:48.229Z</time></trkpt><trkpt lat="43.5469217" lon="11.5690367"><ele>140.5</ele><time>2026-03-22T08:45:49.226Z</time></trkpt><trkpt lat="43.5468767" lon="11.5691333"><ele>140.33333333333331</ele><time>2026-03-22T08:45:50.225Z</time></trkpt><trkpt lat="43.54684" lon="11.56923"><ele>140.16666666666666</ele><time>2026-03-22T08:45:51.225Z</time></trkpt><trkpt lat="43.5468" lon="11.569325"><ele>140.0</ele><time>2026-03-22T08:45:52.227Z</time></trkpt><trkpt lat="43.54676" lon="11.569425"><ele>140.0</ele><time>2026-03-22T08:45:53.227Z</time></trkpt><trkpt lat="43.5467233" lon="11.569525"><ele>140.0</ele><time>2026-03-22T08:45:54.226Z</time></trkpt><trkpt lat="43.546685" lon="11.5696267"><ele>140.0</ele><time>2026-03-22T08:45:55.226Z</time></trkpt><trkpt lat="43.5466433" lon="11.5697283"><ele>140.0</ele><time>2026-03-22T08:45:56.226Z</time></trkpt><trkpt lat="43.5466033" lon="11.56983"><ele>140.0</ele><time>2026-03-22T08:45:57.224Z</time></trkpt><trkpt lat="43.5465717" lon="11.5699333"><ele>140.0</ele><time>2026-03-22T08:45:58.226Z</time></trkpt><trkpt lat="43.546535" lon="11.5700333"><ele>140.33333333333331</ele><time>2026-03-22T08:45:59.226Z</time></trkpt><trkpt lat="43.5464983" lon="11.5701383"><ele>140.66666666666666</ele><time>2026-03-22T08:46:00.227Z</time></trkpt><trkpt lat="43.5464633" lon="11.57024"><ele>141.0</ele><time>2026-03-22T08:46:01.226Z</time></trkpt><trkpt lat="43.546425" lon="11.5703367"><ele>141.33333333333334</ele><time>2026-03-22T08:46:02.226Z</time></trkpt><trkpt lat="43.5463933" lon="11.5704383"><ele>141.66666666666669</ele><time>2026-03-22T08:46:03.226Z</time></trkpt><trkpt lat="43.5463567" lon="11.5705367"><ele>142.0</ele><time>2026-03-22T08:46:04.225Z</time></trkpt><trkpt lat="43.5463183" lon="11.5706333"><ele>142.16666666666669</ele><time>2026-03-22T08:46:05.226Z</time></trkpt><trkpt lat="43.546275" lon="11.5707267"><ele>142.33333333333334</ele><time>2026-03-22T08:46:06.226Z</time></trkpt><trkpt lat="43.5462217" lon="11.5708067"><ele>142.5</ele><time>2026-03-22T08:46:07.226Z</time></trkpt><trkpt lat="43.5461583" lon="11.570875"><ele>142.66666666666666</ele><time>2026-03-22T08:46:08.225Z</time></trkpt><trkpt lat="43.54608" lon="11.5709217"><ele>142.83333333333331</ele><time>2026-03-22T08:46:09.226Z</time></trkpt><trkpt lat="43.5460017" lon="11.570955"><ele>143.0</ele><time>2026-03-22T08:46:10.227Z</time></trkpt><trkpt lat="43.5459183" lon="11.570965"><ele>142.5</ele><time>2026-03-22T08:46:11.227Z</time></trkpt><trkpt lat="43.5458367" lon="11.5709683"><ele>142.0</ele><time>2026-03-22T08:46:12.226Z</time></trkpt><trkpt lat="43.5457567" lon="11.5709667"><ele>141.5</ele><time>2026-03-22T08:46:13.227Z</time></trkpt><trkpt lat="43.5456767" lon="11.5709683"><ele>141.0</ele><time>2026-03-22T08:46:14.225Z</time></trkpt><trkpt lat="43.545595" lon="11.5709767"><ele>140.5</ele><time>2026-03-22T08:46:15.227Z</time></trkpt><trkpt lat="43.5455133" lon="11.5709817"><ele>140.0</ele><time>2026-03-22T08:46:16.227Z</time></trkpt><trkpt lat="43.5454333" lon="11.5709817"><ele>140.16666666666666</ele><time>2026-03-22T08:46:17.227Z</time></trkpt><trkpt lat="43.545345" lon="11.5709783"><ele>140.33333333333331</ele><time>2026-03-22T08:46:18.226Z</time></trkpt><trkpt lat="43.5452617" lon="11.5709817"><ele>140.5</ele><time>2026-03-22T08:46:19.228Z</time></trkpt><trkpt lat="43.54518" lon="11.5709933"><ele>140.66666666666666</ele><time>2026-03-22T08:46:20.226Z</time></trkpt><trkpt lat="43.5450983" lon="11.5710117"><ele>140.83333333333334</ele><time>2026-03-22T08:46:21.225Z</time></trkpt><trkpt lat="43.5450117" lon="11.57104"><ele>141.0</ele><time>2026-03-22T08:46:22.225Z</time></trkpt><trkpt lat="43.54493" lon="11.5710783"><ele>141.0</ele><time>2026-03-22T08:46:23.225Z</time></trkpt><trkpt lat="43.544845" lon="11.57112"><ele>141.0</ele><time>2026-03-22T08:46:24.225Z</time></trkpt><trkpt lat="43.54476" lon="11.571165"><ele>141.0</ele><time>2026-03-22T08:46:25.227Z</time></trkpt><trkpt lat="43.5446783" lon="11.5712167"><ele>141.0</ele><time>2026-03-22T08:46:26.228Z</time></trkpt><trkpt lat="43.5446" lon="11.57127"><ele>141.0</ele><time>2026-03-22T08:46:27.226Z</time></trkpt><trkpt lat="43.5445183" lon="11.5713133"><ele>141.0</ele><time>2026-03-22T08:46:28.225Z</time></trkpt><trkpt lat="43.54443" lon="11.5713333"><ele>141.0</ele><time>2026-03-22T08:46:29.228Z</time></trkpt><trkpt lat="43.5443383" lon="11.5713267"><ele>141.0</ele><time>2026-03-22T08:46:30.227Z</time></trkpt><trkpt lat="43.54425" lon="11.5712883"><ele>141.0</ele><time>2026-03-22T08:46:31.224Z</time></trkpt><trkpt lat="43.5441733" lon="11.5712267"><ele>141.0</ele><time>2026-03-22T08:46:32.226Z</time></trkpt><trkpt lat="43.5441083" lon="11.5711483"><ele>141.0</ele><time>2026-03-22T08:46:33.226Z</time></trkpt><trkpt lat="43.5440583" lon="11.5710617"><ele>141.0</ele><time>2026-03-22T08:46:34.225Z</time></trkpt><trkpt lat="43.5440117" lon="11.5709717"><ele>141.0</ele><time>2026-03-22T08:46:35.225Z</time></trkpt><trkpt lat="43.5439683" lon="11.570885"><ele>141.0</ele><time>2026-03-22T08:46:36.225Z</time></trkpt><trkpt lat="43.543925" lon="11.5708017"><ele>141.0</ele><time>2026-03-22T08:46:37.226Z</time></trkpt><trkpt lat="43.5438833" lon="11.5707167"><ele>141.0</ele><time>2026-03-22T08:46:38.225Z</time></trkpt><trkpt lat="43.5438383" lon="11.570635"><ele>141.0</ele><time>2026-03-22T08:46:39.225Z</time></trkpt><trkpt lat="43.543795" lon="11.570555"><ele>141.0</ele><time>2026-03-22T08:46:40.225Z</time></trkpt><trkpt lat="43.5437417" lon="11.5704067"><ele>141.0</ele><time>2026-03-22T08:46:42.224Z</time></trkpt><trkpt lat="43.54376" lon="11.57026"><ele>141.0</ele><time>2026-03-22T08:46:44.226Z</time></trkpt><trkpt lat="43.5438467" lon="11.570205"><ele>141.0</ele><time>2026-03-22T08:46:46.226Z</time></trkpt><trkpt lat="43.5439217" lon="11.5702617"><ele>141.0</ele><time>2026-03-22T08:46:48.226Z</time></trkpt><trkpt lat="43.5439633" lon="11.5703667"><ele>141.0</ele><time>2026-03-22T08:46:50.227Z</time></trkpt><trkpt lat="43.5440283" lon="11.570395"><ele>141.0</ele><time>2026-03-22T08:46:53.226Z</time></trkpt><trkpt lat="43.5439933" lon="11.5703183"><ele>141.0</ele><time>2026-03-22T08:46:56.227Z</time></trkpt><trkpt lat="43.543915" lon="11.5702967"><ele>141.0</ele><time>2026-03-22T08:46:59.225Z</time></trkpt><trkpt lat="43.5438433" lon="11.570305"><ele>141.0</ele><time>2026-03-22T08:47:03.224Z</time></trkpt><trkpt lat="43.5439083" lon="11.5702583"><ele>141.0</ele><time>2026-03-22T08:49:56.225Z</time></trkpt><trkpt lat="43.5438267" lon="11.5702733"><ele>141.0</ele><time>2026-03-22T08:52:16.225Z</time></trkpt><trkpt lat="43.5437567" lon="11.5702617"><ele>141.0</ele><time>2026-03-22T08:52:19.227Z</time></trkpt><trkpt lat="43.5436917" lon="11.5702667"><ele>141.0</ele><time>2026-03-22T08:52:22.226Z</time></trkpt><trkpt lat="43.5436267" lon="11.57024"><ele>140.8</ele><time>2026-03-22T08:52:25.225Z</time></trkpt><trkpt lat="43.5435633" lon="11.5701683"><ele>140.6</ele><time>2026-03-22T08:52:27.225Z</time></trkpt><trkpt lat="43.5435083" lon="11.5700833"><ele>140.4</ele><time>2026-03-22T08:52:29.224Z</time></trkpt><trkpt lat="43.5434533" lon="11.5699767"><ele>140.2</ele><time>2026-03-22T08:52:31.227Z</time></trkpt><trkpt lat="43.5433933" lon="11.5698567"><ele>140.0</ele><time>2026-03-22T08:52:33.226Z</time></trkpt><trkpt lat="43.54333" lon="11.569745"><ele>140.0</ele><time>2026-03-22T08:52:35.226Z</time></trkpt><trkpt lat="43.5432617" lon="11.5696283"><ele>140.0</ele><time>2026-03-22T08:52:37.225Z</time></trkpt><trkpt lat="43.5431867" lon="11.5695117"><ele>140.0</ele><time>2026-03-22T08:52:39.227Z</time></trkpt><trkpt lat="43.5431117" lon="11.5693967"><ele>140.0</ele><time>2026-03-22T08:52:41.225Z</time></trkpt><trkpt lat="43.5430417" lon="11.5692667"><ele>140.0</ele><time>2026-03-22T08:52:43.225Z</time></trkpt><trkpt lat="43.5429717" lon="11.5691283"><ele>140.0</ele><time>2026-03-22T08:52:45.226Z</time></trkpt><trkpt lat="43.5429" lon="11.5689983"><ele>140.0</ele><time>2026-03-22T08:52:47.226Z</time></trkpt><trkpt lat="43.5428333" lon="11.568865"><ele>140.0</ele><time>2026-03-22T08:52:49.227Z</time></trkpt><trkpt lat="43.5427717" lon="11.5687467"><ele>140.4</ele><time>2026-03-22T08:52:51.227Z</time></trkpt><trkpt lat="43.5427133" lon="11.5686283"><ele>140.8</ele><time>2026-03-22T08:52:53.227Z</time></trkpt><trkpt lat="43.5426583" lon="11.5685167"><ele>141.2</ele><time>2026-03-22T08:52:55.227Z</time></trkpt><trkpt lat="43.5426067" lon="11.5684117"><ele>141.6</ele><time>2026-03-22T08:52:57.224Z</time></trkpt><trkpt lat="43.542555" lon="11.5683067"><ele>142.0</ele><time>2026-03-22T08:52:59.225Z</time></trkpt><trkpt lat="43.5425033" lon="11.5682033"><ele>142.0</ele><time>2026-03-22T08:53:01.225Z</time></trkpt><trkpt lat="43.5424567" lon="11.5681"><ele>142.0</ele><time>2026-03-22T08:53:03.225Z</time></trkpt><trkpt lat="43.542405" lon="11.5679933"><ele>142.0</ele><time>2026-03-22T08:53:05.227Z</time></trkpt><trkpt lat="43.5423517" lon="11.5678983"><ele>142.0</ele><time>2026-03-22T08:53:07.224Z</time></trkpt><trkpt lat="43.5422933" lon="11.5678"><ele>142.0</ele><time>2026-03-22T08:53:09.225Z</time></trkpt><trkpt lat="43.5422333" lon="11.5676967"><ele>141.79999999999998</ele><time>2026-03-22T08:53:11.228Z</time></trkpt><trkpt lat="43.5421717" lon="11.5675883"><ele>141.6</ele><time>2026-03-22T08:53:13.225Z</time></trkpt><trkpt lat="43.5421" lon="11.5674783"><ele>141.39999999999998</ele><time>2026-03-22T08:53:15.226Z</time></trkpt><trkpt lat="43.5420267" lon="11.5673783"><ele>141.2</ele><time>2026-03-22T08:53:17.226Z</time></trkpt><trkpt lat="43.5419533" lon="11.5672833"><ele>141.0</ele><time>2026-03-22T08:53:19.226Z</time></trkpt><trkpt lat="43.5418783" lon="11.56718"><ele>141.0</ele><time>2026-03-22T08:53:21.228Z</time></trkpt><trkpt lat="43.5418017" lon="11.56707"><ele>141.0</ele><time>2026-03-22T08:53:23.225Z</time></trkpt><trkpt lat="43.5417167" lon="11.56696"><ele>141.0</ele><time>2026-03-22T08:53:25.227Z</time></trkpt><trkpt lat="43.5416267" lon="11.5668517"><ele>141.0</ele><time>2026-03-22T08:53:27.227Z</time></trkpt><trkpt lat="43.5415333" lon="11.5667533"><ele>139.75</ele><time>2026-03-22T08:53:29.226Z</time></trkpt><trkpt lat="43.5414617" lon="11.566625"><ele>138.5</ele><time>2026-03-22T08:53:31.226Z</time></trkpt><trkpt lat="43.5413733" lon="11.56652"><ele>137.25</ele><time>2026-03-22T08:53:33.223Z</time></trkpt><trkpt lat="43.5412817" lon="11.5664267"><ele>136.0</ele><time>2026-03-22T08:53:35.224Z</time></trkpt><trkpt lat="43.5411983" lon="11.5663167"><ele>135.8</ele><time>2026-03-22T08:53:37.224Z</time></trkpt><trkpt lat="43.5411067" lon="11.5662017"><ele>135.6</ele><time>2026-03-22T08:53:39.225Z</time></trkpt><trkpt lat="43.54102" lon="11.5660783"><ele>135.4</ele><time>2026-03-22T08:53:41.226Z</time></trkpt><trkpt lat="43.5409317" lon="11.5659583"><ele>135.2</ele><time>2026-03-22T08:53:43.225Z</time></trkpt><trkpt lat="43.540885" lon="11.5658983"><ele>135.0</ele><time>2026-03-22T08:53:44.226Z</time></trkpt><trkpt lat="43.540835" lon="11.56583"><ele>134.83333333333334</ele><time>2026-03-22T08:53:45.227Z</time></trkpt><trkpt lat="43.5407833" lon="11.5657567"><ele>134.66666666666666</ele><time>2026-03-22T08:53:46.228Z</time></trkpt><trkpt lat="43.5407267" lon="11.5656767"><ele>134.5</ele><time>2026-03-22T08:53:47.223Z</time></trkpt><trkpt lat="43.5406667" lon="11.5656"><ele>134.33333333333331</ele><time>2026-03-22T08:53:48.223Z</time></trkpt><trkpt lat="43.5406117" lon="11.5655217"><ele>134.16666666666666</ele><time>2026-03-22T08:53:49.224Z</time></trkpt><trkpt lat="43.5405583" lon="11.5654467"><ele>134.0</ele><time>2026-03-22T08:53:50.226Z</time></trkpt><trkpt lat="43.5405067" lon="11.5653667"><ele>134.66666666666666</ele><time>2026-03-22T08:53:51.224Z</time></trkpt><trkpt lat="43.54045" lon="11.565285"><ele>135.33333333333331</ele><time>2026-03-22T08:53:52.224Z</time></trkpt><trkpt lat="43.54039" lon="11.5652"><ele>136.0</ele><time>2026-03-22T08:53:53.225Z</time></trkpt><trkpt lat="43.5403283" lon="11.5651183"><ele>136.66666666666666</ele><time>2026-03-22T08:53:54.224Z</time></trkpt><trkpt lat="43.5402633" lon="11.56503"><ele>137.33333333333334</ele><time>2026-03-22T08:53:55.225Z</time></trkpt><trkpt lat="43.5401983" lon="11.564935"><ele>138.0</ele><time>2026-03-22T08:53:56.225Z</time></trkpt><trkpt lat="43.540135" lon="11.5648383"><ele>138.0</ele><time>2026-03-22T08:53:57.225Z</time></trkpt><trkpt lat="43.5400683" lon="11.5647367"><ele>138.0</ele><time>2026-03-22T08:53:58.229Z</time></trkpt><trkpt lat="43.54" lon="11.564635"><ele>138.0</ele><time>2026-03-22T08:53:59.225Z</time></trkpt><trkpt lat="43.5399283" lon="11.5645317"><ele>138.0</ele><time>2026-03-22T08:54:00.224Z</time></trkpt><trkpt lat="43.5398583" lon="11.56443"><ele>138.0</ele><time>2026-03-22T08:54:01.224Z</time></trkpt><trkpt lat="43.53979" lon="11.5643283"><ele>138.0</ele><time>2026-03-22T08:54:02.224Z</time></trkpt><trkpt lat="43.5397167" lon="11.564225"><ele>138.0</ele><time>2026-03-22T08:54:03.225Z</time></trkpt><trkpt lat="43.5396433" lon="11.564125"><ele>138.0</ele><time>2026-03-22T08:54:04.223Z</time></trkpt><trkpt lat="43.5395683" lon="11.5640217"><ele>138.0</ele><time>2026-03-22T08:54:05.227Z</time></trkpt><trkpt lat="43.5394967" lon="11.56392"><ele>138.0</ele><time>2026-03-22T08:54:06.225Z</time></trkpt><trkpt lat="43.539425" lon="11.5638217"><ele>138.20000000000002</ele><time>2026-03-22T08:54:07.226Z</time></trkpt><trkpt lat="43.539355" lon="11.56372"><ele>138.4</ele><time>2026-03-22T08:54:08.226Z</time></trkpt><trkpt lat="43.53929" lon="11.5636183"><ele>138.60000000000002</ele><time>2026-03-22T08:54:09.224Z</time></trkpt><trkpt lat="43.5392233" lon="11.5635183"><ele>138.8</ele><time>2026-03-22T08:54:10.225Z</time></trkpt><trkpt lat="43.539155" lon="11.56342"><ele>139.0</ele><time>2026-03-22T08:54:11.225Z</time></trkpt><trkpt lat="43.53909" lon="11.5633283"><ele>139.0</ele><time>2026-03-22T08:54:12.225Z</time></trkpt><trkpt lat="43.5390267" lon="11.5632467"><ele>139.0</ele><time>2026-03-22T08:54:13.225Z</time></trkpt><trkpt lat="43.5389633" lon="11.5631767"><ele>139.0</ele><time>2026-03-22T08:54:14.226Z</time></trkpt><trkpt lat="43.5389033" lon="11.5631217"><ele>139.0</ele><time>2026-03-22T08:54:15.225Z</time></trkpt><trkpt lat="43.53883" lon="11.5630933"><ele>139.0</ele><time>2026-03-22T08:54:16.226Z</time></trkpt><trkpt lat="43.5387533" lon="11.5631033"><ele>139.0</ele><time>2026-03-22T08:54:17.225Z</time></trkpt><trkpt lat="43.5386783" lon="11.563145"><ele>138.85714285714286</ele><time>2026-03-22T08:54:18.225Z</time></trkpt><trkpt lat="43.5386133" lon="11.563205"><ele>138.71428571428572</ele><time>2026-03-22T08:54:19.225Z</time></trkpt><trkpt lat="43.53856" lon="11.5632733"><ele>138.57142857142858</ele><time>2026-03-22T08:54:20.225Z</time></trkpt><trkpt lat="43.5385133" lon="11.5633417"><ele>138.42857142857144</ele><time>2026-03-22T08:54:21.227Z</time></trkpt><trkpt lat="43.53847" lon="11.5634083"><ele>138.2857142857143</ele><time>2026-03-22T08:54:22.224Z</time></trkpt><trkpt lat="43.5384217" lon="11.563465"><ele>138.14285714285714</ele><time>2026-03-22T08:54:23.226Z</time></trkpt><trkpt lat="43.538365" lon="11.5635033"><ele>138.0</ele><time>2026-03-22T08:54:24.225Z</time></trkpt><trkpt lat="43.5383017" lon="11.5635183"><ele>138.0</ele><time>2026-03-22T08:54:25.224Z</time></trkpt><trkpt lat="43.5382333" lon="11.5635067"><ele>138.0</ele><time>2026-03-22T08:54:26.225Z</time></trkpt><trkpt lat="43.5381717" lon="11.5634683"><ele>138.0</ele><time>2026-03-22T08:54:27.224Z</time></trkpt><trkpt lat="43.53811" lon="11.563415"><ele>138.0</ele><time>2026-03-22T08:54:28.226Z</time></trkpt><trkpt lat="43.538045" lon="11.5633633"><ele>138.0</ele><time>2026-03-22T08:54:29.224Z</time></trkpt><trkpt lat="43.537975" lon="11.563315"><ele>138.0</ele><time>2026-03-22T08:54:30.224Z</time></trkpt><trkpt lat="43.5378933" lon="11.5632633"><ele>137.83333333333334</ele><time>2026-03-22T08:54:31.225Z</time></trkpt><trkpt lat="43.5378167" lon="11.5632"><ele>137.66666666666666</ele><time>2026-03-22T08:54:32.225Z</time></trkpt><trkpt lat="43.53774" lon="11.5631367"><ele>137.5</ele><time>2026-03-22T08:54:33.224Z</time></trkpt><trkpt lat="43.5376667" lon="11.5630733"><ele>137.33333333333331</ele><time>2026-03-22T08:54:34.225Z</time></trkpt><trkpt lat="43.5375917" lon="11.563005"><ele>137.16666666666666</ele><time>2026-03-22T08:54:35.224Z</time></trkpt><trkpt lat="43.5375167" lon="11.5629367"><ele>137.0</ele><time>2026-03-22T08:54:36.224Z</time></trkpt><trkpt lat="43.5374433" lon="11.5628683"><ele>137.5</ele><time>2026-03-22T08:54:37.224Z</time></trkpt><trkpt lat="43.53737" lon="11.5628"><ele>138.0</ele><time>2026-03-22T08:54:38.225Z</time></trkpt><trkpt lat="43.5373017" lon="11.5627283"><ele>138.5</ele><time>2026-03-22T08:54:39.224Z</time></trkpt><trkpt lat="43.5372383" lon="11.5626583"><ele>139.0</ele><time>2026-03-22T08:54:40.225Z</time></trkpt><trkpt lat="43.5371833" lon="11.5625833"><ele>139.5</ele><time>2026-03-22T08:54:41.224Z</time></trkpt><trkpt lat="43.537135" lon="11.5624983"><ele>140.0</ele><time>2026-03-22T08:54:42.224Z</time></trkpt><trkpt lat="43.5370917" lon="11.562415"><ele>140.0</ele><time>2026-03-22T08:54:43.225Z</time></trkpt><trkpt lat="43.53705" lon="11.5623333"><ele>140.0</ele><time>2026-03-22T08:54:44.226Z</time></trkpt><trkpt lat="43.53701" lon="11.5622533"><ele>140.0</ele><time>2026-03-22T08:54:45.225Z</time></trkpt><trkpt lat="43.5369733" lon="11.562175"><ele>140.0</ele><time>2026-03-22T08:54:46.225Z</time></trkpt><trkpt lat="43.5369383" lon="11.5621"><ele>140.0</ele><time>2026-03-22T08:54:47.226Z</time></trkpt><trkpt lat="43.5368633" lon="11.5619567"><ele>140.0</ele><time>2026-03-22T08:54:49.224Z</time></trkpt><trkpt lat="43.5368233" lon="11.5618783"><ele>140.14285714285714</ele><time>2026-03-22T08:54:50.227Z</time></trkpt><trkpt lat="43.53678" lon="11.5617983"><ele>140.28571428571428</ele><time>2026-03-22T08:54:51.227Z</time></trkpt><trkpt lat="43.5367383" lon="11.5617167"><ele>140.42857142857144</ele><time>2026-03-22T08:54:52.224Z</time></trkpt><trkpt lat="43.5366933" lon="11.561635"><ele>140.57142857142856</ele><time>2026-03-22T08:54:53.224Z</time></trkpt><trkpt lat="43.5366417" lon="11.5615633"><ele>140.71428571428572</ele><time>2026-03-22T08:54:54.226Z</time></trkpt><trkpt lat="43.5365867" lon="11.561495"><ele>140.85714285714286</ele><time>2026-03-22T08:54:55.224Z</time></trkpt><trkpt lat="43.5365317" lon="11.56143"><ele>141.0</ele><time>2026-03-22T08:54:56.226Z</time></trkpt><trkpt lat="43.5364767" lon="11.5613517"><ele>141.0</ele><time>2026-03-22T08:54:57.225Z</time></trkpt><trkpt lat="43.5364167" lon="11.5612917"><ele>141.0</ele><time>2026-03-22T08:54:58.227Z</time></trkpt><trkpt lat="43.536355" lon="11.5612283"><ele>141.0</ele><time>2026-03-22T08:54:59.225Z</time></trkpt><trkpt lat="43.5362917" lon="11.5611633"><ele>141.0</ele><time>2026-03-22T08:55:00.226Z</time></trkpt><trkpt lat="43.5362267" lon="11.5611017"><ele>141.0</ele><time>2026-03-22T08:55:01.226Z</time></trkpt><trkpt lat="43.5361667" lon="11.5610433"><ele>141.0</ele><time>2026-03-22T08:55:02.226Z</time></trkpt><trkpt lat="43.5361067" lon="11.5609817"><ele>141.16666666666666</ele><time>2026-03-22T08:55:03.224Z</time></trkpt><trkpt lat="43.536045" lon="11.5609183"><ele>141.33333333333334</ele><time>2026-03-22T08:55:04.226Z</time></trkpt><trkpt lat="43.535985" lon="11.5608567"><ele>141.5</ele><time>2026-03-22T08:55:05.227Z</time></trkpt><trkpt lat="43.535925" lon="11.56079"><ele>141.66666666666669</ele><time>2026-03-22T08:55:06.225Z</time></trkpt><trkpt lat="43.5358633" lon="11.5607267"><ele>141.83333333333334</ele><time>2026-03-22T08:55:07.226Z</time></trkpt><trkpt lat="43.5358017" lon="11.5606667"><ele>142.0</ele><time>2026-03-22T08:55:08.227Z</time></trkpt><trkpt lat="43.5357433" lon="11.5606"><ele>142.0</ele><time>2026-03-22T08:55:09.225Z</time></trkpt><trkpt lat="43.5356833" lon="11.5605383"><ele>142.0</ele><time>2026-03-22T08:55:10.224Z</time></trkpt><trkpt lat="43.535625" lon="11.5604783"><ele>142.0</ele><time>2026-03-22T08:55:11.226Z</time></trkpt><trkpt lat="43.53557" lon="11.5604183"><ele>142.0</ele><time>2026-03-22T08:55:12.224Z</time></trkpt><trkpt lat="43.5354783" lon="11.560315"><ele>142.0</ele><time>2026-03-22T08:55:14.225Z</time></trkpt><trkpt lat="43.53542" lon="11.5602217"><ele>142.0</ele><time>2026-03-22T08:55:16.224Z</time></trkpt><trkpt lat="43.53538" lon="11.5601517"><ele>142.0</ele><time>2026-03-22T08:55:18.223Z</time></trkpt><trkpt lat="43.5353467" lon="11.5600733"><ele>142.0</ele><time>2026-03-22T08:55:20.226Z</time></trkpt><trkpt lat="43.5353167" lon="11.5599517"><ele>142.0</ele><time>2026-03-22T08:55:22.225Z</time></trkpt><trkpt lat="43.5352883" lon="11.559805"><ele>142.0</ele><time>2026-03-22T08:55:24.225Z</time></trkpt><trkpt lat="43.5352633" lon="11.5597183"><ele>142.0</ele><time>2026-03-22T08:55:25.226Z</time></trkpt><trkpt lat="43.5352317" lon="11.5596267"><ele>142.0</ele><time>2026-03-22T08:55:26.225Z</time></trkpt><trkpt lat="43.535185" lon="11.5595333"><ele>142.0</ele><time>2026-03-22T08:55:27.225Z</time></trkpt><trkpt lat="43.535125" lon="11.5594533"><ele>142.0</ele><time>2026-03-22T08:55:28.224Z</time></trkpt><trkpt lat="43.53505" lon="11.5593867"><ele>142.0</ele><time>2026-03-22T08:55:29.225Z</time></trkpt><trkpt lat="43.53497" lon="11.5593383"><ele>142.0</ele><time>2026-03-22T08:55:30.225Z</time></trkpt><trkpt lat="43.5348833" lon="11.5593133"><ele>142.0</ele><time>2026-03-22T08:55:31.225Z</time></trkpt><trkpt lat="43.5347983" lon="11.5593017"><ele>142.0</ele><time>2026-03-22T08:55:32.225Z</time></trkpt><trkpt lat="43.534715" lon="11.559295"><ele>142.0</ele><time>2026-03-22T08:55:33.226Z</time></trkpt><trkpt lat="43.5346333" lon="11.5592867"><ele>142.0</ele><time>2026-03-22T08:55:34.225Z</time></trkpt><trkpt lat="43.5345533" lon="11.55927"><ele>142.0</ele><time>2026-03-22T08:55:35.226Z</time></trkpt><trkpt lat="43.53447" lon="11.5592333"><ele>142.0</ele><time>2026-03-22T08:55:36.224Z</time></trkpt><trkpt lat="43.5343883" lon="11.5591767"><ele>142.0</ele><time>2026-03-22T08:55:37.224Z</time></trkpt><trkpt lat="43.53431" lon="11.5590983"><ele>142.0</ele><time>2026-03-22T08:55:38.227Z</time></trkpt><trkpt lat="43.534235" lon="11.5590083"><ele>142.0</ele><time>2026-03-22T08:55:39.226Z</time></trkpt><trkpt lat="43.5341633" lon="11.558915"><ele>142.0</ele><time>2026-03-22T08:55:40.224Z</time></trkpt><trkpt lat="43.5340883" lon="11.5588183"><ele>142.0</ele><time>2026-03-22T08:55:41.226Z</time></trkpt><trkpt lat="43.5340117" lon="11.55872"><ele>142.0</ele><time>2026-03-22T08:55:42.226Z</time></trkpt><trkpt lat="43.5339317" lon="11.55862"><ele>142.0</ele><time>2026-03-22T08:55:43.226Z</time></trkpt><trkpt lat="43.5338517" lon="11.5585217"><ele>142.0</ele><time>2026-03-22T08:55:44.226Z</time></trkpt><trkpt lat="43.53377" lon="11.5584167"><ele>142.0</ele><time>2026-03-22T08:55:45.225Z</time></trkpt><trkpt lat="43.5336883" lon="11.5583117"><ele>142.0</ele><time>2026-03-22T08:55:46.225Z</time></trkpt><trkpt lat="43.533605" lon="11.5582117"><ele>142.0</ele><time>2026-03-22T08:55:47.226Z</time></trkpt><trkpt lat="43.5335283" lon="11.558105"><ele>142.0</ele><time>2026-03-22T08:55:48.226Z</time></trkpt><trkpt lat="43.5334583" lon="11.558"><ele>142.2</ele><time>2026-03-22T08:55:49.227Z</time></trkpt><trkpt lat="43.5333933" lon="11.5579083"><ele>142.39999999999998</ele><time>2026-03-22T08:55:50.228Z</time></trkpt><trkpt lat="43.533325" lon="11.5578167"><ele>142.60000000000002</ele><time>2026-03-22T08:55:51.227Z</time></trkpt><trkpt lat="43.5332567" lon="11.5577217"><ele>142.8</ele><time>2026-03-22T08:55:52.228Z</time></trkpt><trkpt lat="43.5331917" lon="11.55764"><ele>143.0</ele><time>2026-03-22T08:55:53.227Z</time></trkpt><trkpt lat="43.53313" lon="11.5575683"><ele>143.0</ele><time>2026-03-22T08:55:54.226Z</time></trkpt><trkpt lat="43.5330617" lon="11.5575067"><ele>143.0</ele><time>2026-03-22T08:55:55.226Z</time></trkpt><trkpt lat="43.532995" lon="11.55746"><ele>143.0</ele><time>2026-03-22T08:55:56.225Z</time></trkpt><trkpt lat="43.53293" lon="11.5574217"><ele>143.0</ele><time>2026-03-22T08:55:57.224Z</time></trkpt><trkpt lat="43.532865" lon="11.5573967"><ele>143.0</ele><time>2026-03-22T08:55:58.224Z</time></trkpt><trkpt lat="43.5328" lon="11.55739"><ele>143.0</ele><time>2026-03-22T08:55:59.225Z</time></trkpt><trkpt lat="43.5326783" lon="11.557405"><ele>143.0</ele><time>2026-03-22T08:56:01.225Z</time></trkpt><trkpt lat="43.5325633" lon="11.5574467"><ele>143.0</ele><time>2026-03-22T08:56:03.225Z</time></trkpt><trkpt lat="43.5324583" lon="11.55752"><ele>143.0</ele><time>2026-03-22T08:56:05.224Z</time></trkpt><trkpt lat="43.5323583" lon="11.5576"><ele>143.0</ele><time>2026-03-22T08:56:07.224Z</time></trkpt><trkpt lat="43.532255" lon="11.5576967"><ele>143.0</ele><time>2026-03-22T08:56:09.224Z</time></trkpt><trkpt lat="43.5321517" lon="11.55779"><ele>143.0</ele><time>2026-03-22T08:56:11.225Z</time></trkpt><trkpt lat="43.5320517" lon="11.5578867"><ele>143.0</ele><time>2026-03-22T08:56:13.226Z</time></trkpt><trkpt lat="43.5319467" lon="11.5579833"><ele>143.0</ele><time>2026-03-22T08:56:15.226Z</time></trkpt><trkpt lat="43.5318933" lon="11.5580317"><ele>143.0</ele><time>2026-03-22T08:56:16.225Z</time></trkpt><trkpt lat="43.5317917" lon="11.5581317"><ele>143.16666666666666</ele><time>2026-03-22T08:56:18.225Z</time></trkpt><trkpt lat="43.5317367" lon="11.5581817"><ele>143.33333333333331</ele><time>2026-03-22T08:56:19.224Z</time></trkpt><trkpt lat="43.5316783" lon="11.5582333"><ele>143.5</ele><time>2026-03-22T08:56:20.228Z</time></trkpt><trkpt lat="43.5315717" lon="11.5583333"><ele>143.66666666666666</ele><time>2026-03-22T08:56:22.224Z</time></trkpt><trkpt lat="43.5315167" lon="11.558385"><ele>143.83333333333334</ele><time>2026-03-22T08:56:23.225Z</time></trkpt><trkpt lat="43.5314617" lon="11.5584383"><ele>144.0</ele><time>2026-03-22T08:56:24.225Z</time></trkpt><trkpt lat="43.5314067" lon="11.55849"><ele>144.00000000000003</ele><time>2026-03-22T08:56:25.225Z</time></trkpt><trkpt lat="43.531345" lon="11.5585417"><ele>144.0</ele><time>2026-03-22T08:56:26.225Z</time></trkpt><trkpt lat="43.5312833" lon="11.558595"><ele>144.0</ele><time>2026-03-22T08:56:27.224Z</time></trkpt><trkpt lat="43.5312217" lon="11.55865"><ele>144.0</ele><time>2026-03-22T08:56:28.226Z</time></trkpt><trkpt lat="43.53116" lon="11.5587067"><ele>144.0</ele><time>2026-03-22T08:56:29.226Z</time></trkpt><trkpt lat="43.5311033" lon="11.558765"><ele>144.00000000000003</ele><time>2026-03-22T08:56:30.226Z</time></trkpt><trkpt lat="43.5310433" lon="11.5588217"><ele>144.0</ele><time>2026-03-22T08:56:31.224Z</time></trkpt><trkpt lat="43.5309833" lon="11.558875"><ele>144.0</ele><time>2026-03-22T08:56:32.226Z</time></trkpt><trkpt lat="43.5309233" lon="11.5589283"><ele>144.0</ele><time>2026-03-22T08:56:33.227Z</time></trkpt><trkpt lat="43.53086" lon="11.558985"><ele>144.0</ele><time>2026-03-22T08:56:34.224Z</time></trkpt><trkpt lat="43.5307983" lon="11.5590433"><ele>144.0</ele><time>2026-03-22T08:56:35.226Z</time></trkpt><trkpt lat="43.5307333" lon="11.5591017"><ele>144.0</ele><time>2026-03-22T08:56:36.226Z</time></trkpt><trkpt lat="43.53067" lon="11.5591633"><ele>144.0</ele><time>2026-03-22T08:56:37.225Z</time></trkpt><trkpt lat="43.530605" lon="11.559225"><ele>144.0</ele><time>2026-03-22T08:56:38.225Z</time></trkpt><trkpt lat="43.5305417" lon="11.55929"><ele>144.0</ele><time>2026-03-22T08:56:39.224Z</time></trkpt><trkpt lat="43.53048" lon="11.559355"><ele>144.0</ele><time>2026-03-22T08:56:40.225Z</time></trkpt><trkpt lat="43.53042" lon="11.5594183"><ele>144.0</ele><time>2026-03-22T08:56:41.224Z</time></trkpt><trkpt lat="43.5303583" lon="11.55948"><ele>144.0</ele><time>2026-03-22T08:56:42.225Z</time></trkpt><trkpt lat="43.5302933" lon="11.559545"><ele>144.0</ele><time>2026-03-22T08:56:43.225Z</time></trkpt><trkpt lat="43.5302283" lon="11.559605"><ele>144.16666666666666</ele><time>2026-03-22T08:56:44.228Z</time></trkpt><trkpt lat="43.530155" lon="11.559655"><ele>144.33333333333334</ele><time>2026-03-22T08:56:45.226Z</time></trkpt><trkpt lat="43.5300783" lon="11.5596867"><ele>144.5</ele><time>2026-03-22T08:56:46.225Z</time></trkpt><trkpt lat="43.529995" lon="11.5597"><ele>144.66666666666669</ele><time>2026-03-22T08:56:47.224Z</time></trkpt><trkpt lat="43.5299067" lon="11.5597"><ele>144.83333333333334</ele><time>2026-03-22T08:56:48.225Z</time></trkpt><trkpt lat="43.529825" lon="11.55969"><ele>145.0</ele><time>2026-03-22T08:56:49.225Z</time></trkpt><trkpt lat="43.52974" lon="11.559665"><ele>145.0</ele><time>2026-03-22T08:56:50.226Z</time></trkpt><trkpt lat="43.5296567" lon="11.5596317"><ele>145.0</ele><time>2026-03-22T08:56:51.224Z</time></trkpt><trkpt lat="43.5295733" lon="11.5596067"><ele>145.0</ele><time>2026-03-22T08:56:52.225Z</time></trkpt><trkpt lat="43.52949" lon="11.559585"><ele>145.0</ele><time>2026-03-22T08:56:53.226Z</time></trkpt><trkpt lat="43.5294117" lon="11.5595667"><ele>145.0</ele><time>2026-03-22T08:56:54.224Z</time></trkpt><trkpt lat="43.52933" lon="11.5595583"><ele>145.0</ele><time>2026-03-22T08:56:55.225Z</time></trkpt><trkpt lat="43.5292517" lon="11.55954"><ele>145.16666666666669</ele><time>2026-03-22T08:56:56.226Z</time></trkpt><trkpt lat="43.52917" lon="11.5595267"><ele>145.33333333333334</ele><time>2026-03-22T08:56:57.226Z</time></trkpt><trkpt lat="43.5290867" lon="11.55951"><ele>145.5</ele><time>2026-03-22T08:56:58.224Z</time></trkpt><trkpt lat="43.5290067" lon="11.5594933"><ele>145.66666666666666</ele><time>2026-03-22T08:56:59.224Z</time></trkpt><trkpt lat="43.528925" lon="11.5594683"><ele>145.83333333333331</ele><time>2026-03-22T08:57:00.224Z</time></trkpt><trkpt lat="43.5288433" lon="11.5594533"><ele>146.0</ele><time>2026-03-22T08:57:01.227Z</time></trkpt><trkpt lat="43.5287633" lon="11.55944"><ele>146.0</ele><time>2026-03-22T08:57:02.227Z</time></trkpt><trkpt lat="43.52868" lon="11.5594233"><ele>146.0</ele><time>2026-03-22T08:57:03.226Z</time></trkpt><trkpt lat="43.5285967" lon="11.55941"><ele>146.0</ele><time>2026-03-22T08:57:04.224Z</time></trkpt><trkpt lat="43.5285183" lon="11.5593917"><ele>146.0</ele><time>2026-03-22T08:57:05.226Z</time></trkpt><trkpt lat="43.5284367" lon="11.559375"><ele>146.0</ele><time>2026-03-22T08:57:06.225Z</time></trkpt><trkpt lat="43.5283533" lon="11.559355"><ele>146.0</ele><time>2026-03-22T08:57:07.224Z</time></trkpt><trkpt lat="43.52827" lon="11.5593383"><ele>146.0</ele><time>2026-03-22T08:57:08.226Z</time></trkpt><trkpt lat="43.5281883" lon="11.5593217"><ele>146.0</ele><time>2026-03-22T08:57:09.225Z</time></trkpt><trkpt lat="43.5281067" lon="11.5593117"><ele>146.0</ele><time>2026-03-22T08:57:10.225Z</time></trkpt><trkpt lat="43.528025" lon="11.5592967"><ele>146.0</ele><time>2026-03-22T08:57:11.224Z</time></trkpt><trkpt lat="43.527945" lon="11.5592833"><ele>146.0</ele><time>2026-03-22T08:57:12.226Z</time></trkpt><trkpt lat="43.5278617" lon="11.559265"><ele>146.0</ele><time>2026-03-22T08:57:13.226Z</time></trkpt><trkpt lat="43.52778" lon="11.559245"><ele>146.33333333333331</ele><time>2026-03-22T08:57:14.225Z</time></trkpt><trkpt lat="43.5276983" lon="11.5592233"><ele>146.66666666666666</ele><time>2026-03-22T08:57:15.226Z</time></trkpt><trkpt lat="43.5276133" lon="11.5592083"><ele>147.0</ele><time>2026-03-22T08:57:16.226Z</time></trkpt><trkpt lat="43.5275317" lon="11.55919"><ele>147.33333333333334</ele><time>2026-03-22T08:57:17.225Z</time></trkpt><trkpt lat="43.5274517" lon="11.5591683"><ele>147.66666666666669</ele><time>2026-03-22T08:57:18.224Z</time></trkpt><trkpt lat="43.5273717" lon="11.5591483"><ele>148.0</ele><time>2026-03-22T08:57:19.224Z</time></trkpt><trkpt lat="43.5272883" lon="11.5591367"><ele>148.0</ele><time>2026-03-22T08:57:20.226Z</time></trkpt><trkpt lat="43.5272033" lon="11.55912"><ele>148.0</ele><time>2026-03-22T08:57:21.225Z</time></trkpt><trkpt lat="43.52712" lon="11.55911"><ele>148.0</ele><time>2026-03-22T08:57:22.225Z</time></trkpt><trkpt lat="43.5270383" lon="11.5590983"><ele>148.0</ele><time>2026-03-22T08:57:23.225Z</time></trkpt><trkpt lat="43.526955" lon="11.5590833"><ele>148.0</ele><time>2026-03-22T08:57:24.225Z</time></trkpt><trkpt lat="43.52687" lon="11.55907"><ele>148.0</ele><time>2026-03-22T08:57:25.226Z</time></trkpt><trkpt lat="43.5267917" lon="11.5590533"><ele>148.16666666666669</ele><time>2026-03-22T08:57:26.227Z</time></trkpt><trkpt lat="43.52671" lon="11.559035"><ele>148.33333333333334</ele><time>2026-03-22T08:57:27.227Z</time></trkpt><trkpt lat="43.5266317" lon="11.559015"><ele>148.5</ele><time>2026-03-22T08:57:28.226Z</time></trkpt><trkpt lat="43.5265533" lon="11.559"><ele>148.66666666666666</ele><time>2026-03-22T08:57:29.225Z</time></trkpt><trkpt lat="43.5264733" lon="11.55899"><ele>148.83333333333331</ele><time>2026-03-22T08:57:30.227Z</time></trkpt><trkpt lat="43.52639" lon="11.558975"><ele>149.0</ele><time>2026-03-22T08:57:31.225Z</time></trkpt><trkpt lat="43.52631" lon="11.5589583"><ele>149.0</ele><time>2026-03-22T08:57:32.226Z</time></trkpt><trkpt lat="43.52623" lon="11.5589467"><ele>149.0</ele><time>2026-03-22T08:57:33.226Z</time></trkpt><trkpt lat="43.5261517" lon="11.55893"><ele>149.0</ele><time>2026-03-22T08:57:34.227Z</time></trkpt><trkpt lat="43.5260733" lon="11.55891"><ele>149.0</ele><time>2026-03-22T08:57:35.227Z</time></trkpt><trkpt lat="43.5259967" lon="11.5588983"><ele>149.0</ele><time>2026-03-22T08:57:36.228Z</time></trkpt><trkpt lat="43.52592" lon="11.5588833"><ele>149.0</ele><time>2026-03-22T08:57:37.225Z</time></trkpt><trkpt lat="43.525845" lon="11.5588667"><ele>148.66666666666666</ele><time>2026-03-22T08:57:38.227Z</time></trkpt><trkpt lat="43.5257717" lon="11.5588417"><ele>148.33333333333331</ele><time>2026-03-22T08:57:39.225Z</time></trkpt><trkpt lat="43.5257" lon="11.5588067"><ele>148.0</ele><time>2026-03-22T08:57:40.224Z</time></trkpt><trkpt lat="43.5256283" lon="11.5587733"><ele>147.66666666666666</ele><time>2026-03-22T08:57:41.226Z</time></trkpt><trkpt lat="43.5255583" lon="11.5587383"><ele>147.33333333333334</ele><time>2026-03-22T08:57:42.225Z</time></trkpt><trkpt lat="43.5254883" lon="11.5587017"><ele>147.0</ele><time>2026-03-22T08:57:43.226Z</time></trkpt><trkpt lat="43.5254217" lon="11.55866"><ele>147.57142857142858</ele><time>2026-03-22T08:57:44.225Z</time></trkpt><trkpt lat="43.5253533" lon="11.5586167"><ele>148.14285714285714</ele><time>2026-03-22T08:57:45.225Z</time></trkpt><trkpt lat="43.5252867" lon="11.5585733"><ele>148.71428571428572</ele><time>2026-03-22T08:57:46.225Z</time></trkpt><trkpt lat="43.5252183" lon="11.5585283"><ele>149.28571428571428</ele><time>2026-03-22T08:57:47.224Z</time></trkpt><trkpt lat="43.52515" lon="11.5584883"><ele>149.85714285714286</ele><time>2026-03-22T08:57:48.225Z</time></trkpt><trkpt lat="43.5250817" lon="11.55845"><ele>150.42857142857144</ele><time>2026-03-22T08:57:49.227Z</time></trkpt><trkpt lat="43.5250167" lon="11.5584083"><ele>151.0</ele><time>2026-03-22T08:57:50.225Z</time></trkpt><trkpt lat="43.5249533" lon="11.5583617"><ele>151.00000000000003</ele><time>2026-03-22T08:57:51.225Z</time></trkpt><trkpt lat="43.5248983" lon="11.5583017"><ele>151.0</ele><time>2026-03-22T08:57:52.225Z</time></trkpt><trkpt lat="43.52485" lon="11.5582267"><ele>151.0</ele><time>2026-03-22T08:57:53.225Z</time></trkpt><trkpt lat="43.5248017" lon="11.5581483"><ele>151.0</ele><time>2026-03-22T08:57:54.225Z</time></trkpt><trkpt lat="43.5247483" lon="11.558075"><ele>151.0</ele><time>2026-03-22T08:57:55.227Z</time></trkpt><trkpt lat="43.524695" lon="11.5579983"><ele>151.00000000000003</ele><time>2026-03-22T08:57:56.226Z</time></trkpt><trkpt lat="43.5246467" lon="11.5579117"><ele>151.0</ele><time>2026-03-22T08:57:57.225Z</time></trkpt><trkpt lat="43.5246083" lon="11.5578217"><ele>151.42857142857144</ele><time>2026-03-22T08:57:58.226Z</time></trkpt><trkpt lat="43.5245817" lon="11.5577233"><ele>151.85714285714286</ele><time>2026-03-22T08:57:59.224Z</time></trkpt><trkpt lat="43.5245567" lon="11.5576267"><ele>152.28571428571428</ele><time>2026-03-22T08:58:00.226Z</time></trkpt><trkpt lat="43.524535" lon="11.5575283"><ele>152.71428571428572</ele><time>2026-03-22T08:58:01.227Z</time></trkpt><trkpt lat="43.524515" lon="11.5574317"><ele>153.14285714285714</ele><time>2026-03-22T08:58:02.226Z</time></trkpt><trkpt lat="43.5244917" lon="11.5573333"><ele>153.57142857142858</ele><time>2026-03-22T08:58:03.227Z</time></trkpt><trkpt lat="43.524465" lon="11.557235"><ele>154.0</ele><time>2026-03-22T08:58:04.224Z</time></trkpt><trkpt lat="43.52444" lon="11.55714"><ele>153.57142857142858</ele><time>2026-03-22T08:58:05.224Z</time></trkpt><trkpt lat="43.5244133" lon="11.557045"><ele>153.14285714285714</ele><time>2026-03-22T08:58:06.225Z</time></trkpt><trkpt lat="43.5243883" lon="11.5569483"><ele>152.71428571428572</ele><time>2026-03-22T08:58:07.224Z</time></trkpt><trkpt lat="43.5243633" lon="11.556855"><ele>152.28571428571428</ele><time>2026-03-22T08:58:08.227Z</time></trkpt><trkpt lat="43.5243433" lon="11.5567583"><ele>151.85714285714286</ele><time>2026-03-22T08:58:09.226Z</time></trkpt><trkpt lat="43.5243233" lon="11.5566617"><ele>151.42857142857144</ele><time>2026-03-22T08:58:10.226Z</time></trkpt><trkpt lat="43.5242983" lon="11.5565633"><ele>151.0</ele><time>2026-03-22T08:58:11.225Z</time></trkpt><trkpt lat="43.524275" lon="11.5564667"><ele>151.0</ele><time>2026-03-22T08:58:12.226Z</time></trkpt><trkpt lat="43.524255" lon="11.5563667"><ele>151.0</ele><time>2026-03-22T08:58:13.226Z</time></trkpt><trkpt lat="43.5242333" lon="11.5562667"><ele>151.0</ele><time>2026-03-22T08:58:14.225Z</time></trkpt><trkpt lat="43.5242167" lon="11.556165"><ele>151.0</ele><time>2026-03-22T08:58:15.226Z</time></trkpt><trkpt lat="43.5241967" lon="11.556065"><ele>151.0</ele><time>2026-03-22T08:58:16.224Z</time></trkpt><trkpt lat="43.524175" lon="11.5559667"><ele>151.0</ele><time>2026-03-22T08:58:17.224Z</time></trkpt><trkpt lat="43.5241517" lon="11.5558683"><ele>151.14285714285717</ele><time>2026-03-22T08:58:18.224Z</time></trkpt><trkpt lat="43.5241283" lon="11.5557733"><ele>151.28571428571428</ele><time>2026-03-22T08:58:19.227Z</time></trkpt><trkpt lat="43.5241033" lon="11.55568"><ele>151.42857142857144</ele><time>2026-03-22T08:58:20.229Z</time></trkpt><trkpt lat="43.5240817" lon="11.555585"><ele>151.57142857142858</ele><time>2026-03-22T08:58:21.224Z</time></trkpt><trkpt lat="43.5240617" lon="11.55549"><ele>151.71428571428572</ele><time>2026-03-22T08:58:22.226Z</time></trkpt><trkpt lat="43.52404" lon="11.5553883"><ele>151.85714285714286</ele><time>2026-03-22T08:58:23.225Z</time></trkpt><trkpt lat="43.5240183" lon="11.55529"><ele>152.0</ele><time>2026-03-22T08:58:24.227Z</time></trkpt><trkpt lat="43.5239983" lon="11.5551917"><ele>152.28571428571428</ele><time>2026-03-22T08:58:25.227Z</time></trkpt><trkpt lat="43.52398" lon="11.5550917"><ele>152.57142857142858</ele><time>2026-03-22T08:58:26.226Z</time></trkpt><trkpt lat="43.5239567" lon="11.555"><ele>152.85714285714286</ele><time>2026-03-22T08:58:27.225Z</time></trkpt><trkpt lat="43.5239367" lon="11.5549067"><ele>153.14285714285714</ele><time>2026-03-22T08:58:28.225Z</time></trkpt><trkpt lat="43.5239183" lon="11.554815"><ele>153.42857142857144</ele><time>2026-03-22T08:58:29.227Z</time></trkpt><trkpt lat="43.5239" lon="11.5547167"><ele>153.71428571428572</ele><time>2026-03-22T08:58:30.226Z</time></trkpt><trkpt lat="43.5238833" lon="11.5546217"><ele>154.0</ele><time>2026-03-22T08:58:31.225Z</time></trkpt><trkpt lat="43.5238617" lon="11.55452"><ele>154.28571428571428</ele><time>2026-03-22T08:58:32.227Z</time></trkpt><trkpt lat="43.52384" lon="11.5544183"><ele>154.57142857142856</ele><time>2026-03-22T08:58:33.224Z</time></trkpt><trkpt lat="43.52382" lon="11.554315"><ele>154.85714285714286</ele><time>2026-03-22T08:58:34.225Z</time></trkpt><trkpt lat="43.5237967" lon="11.5542167"><ele>155.14285714285714</ele><time>2026-03-22T08:58:35.227Z</time></trkpt><trkpt lat="43.523775" lon="11.5541233"><ele>155.42857142857142</ele><time>2026-03-22T08:58:36.226Z</time></trkpt><trkpt lat="43.523755" lon="11.55403"><ele>155.71428571428572</ele><time>2026-03-22T08:58:37.227Z</time></trkpt><trkpt lat="43.523735" lon="11.55394"><ele>156.0</ele><time>2026-03-22T08:58:38.226Z</time></trkpt><trkpt lat="43.5237133" lon="11.5538483"><ele>155.71428571428572</ele><time>2026-03-22T08:58:39.227Z</time></trkpt><trkpt lat="43.52369" lon="11.553755"><ele>155.42857142857142</ele><time>2026-03-22T08:58:40.227Z</time></trkpt><trkpt lat="43.5236667" lon="11.5536633"><ele>155.14285714285714</ele><time>2026-03-22T08:58:41.226Z</time></trkpt><trkpt lat="43.523645" lon="11.5535683"><ele>154.85714285714286</ele><time>2026-03-22T08:58:42.227Z</time></trkpt><trkpt lat="43.523625" lon="11.5534717"><ele>154.57142857142856</ele><time>2026-03-22T08:58:43.227Z</time></trkpt><trkpt lat="43.5236033" lon="11.553375"><ele>154.28571428571428</ele><time>2026-03-22T08:58:44.227Z</time></trkpt><trkpt lat="43.52358" lon="11.5532783"><ele>154.0</ele><time>2026-03-22T08:58:45.225Z</time></trkpt><trkpt lat="43.5235617" lon="11.5531817"><ele>154.0</ele><time>2026-03-22T08:58:46.225Z</time></trkpt><trkpt lat="43.5235417" lon="11.553085"><ele>154.0</ele><time>2026-03-22T08:58:47.225Z</time></trkpt><trkpt lat="43.5235183" lon="11.5529933"><ele>154.0</ele><time>2026-03-22T08:58:48.227Z</time></trkpt><trkpt lat="43.5235017" lon="11.5528933"><ele>154.0</ele><time>2026-03-22T08:58:49.225Z</time></trkpt><trkpt lat="43.5234833" lon="11.5527983"><ele>154.0</ele><time>2026-03-22T08:58:50.228Z</time></trkpt><trkpt lat="43.523465" lon="11.552705"><ele>154.0</ele><time>2026-03-22T08:58:51.227Z</time></trkpt><trkpt lat="43.5234467" lon="11.5526133"><ele>154.0</ele><time>2026-03-22T08:58:52.225Z</time></trkpt><trkpt lat="43.5234233" lon="11.5525183"><ele>154.42857142857142</ele><time>2026-03-22T08:58:53.225Z</time></trkpt><trkpt lat="43.523405" lon="11.5524267"><ele>154.85714285714286</ele><time>2026-03-22T08:58:54.225Z</time></trkpt><trkpt lat="43.5233833" lon="11.55233"><ele>155.28571428571428</ele><time>2026-03-22T08:58:55.224Z</time></trkpt><trkpt lat="43.523365" lon="11.5522333"><ele>155.71428571428572</ele><time>2026-03-22T08:58:56.226Z</time></trkpt><trkpt lat="43.5233433" lon="11.5521383"><ele>156.14285714285714</ele><time>2026-03-22T08:58:57.224Z</time></trkpt><trkpt lat="43.5233233" lon="11.5520433"><ele>156.57142857142856</ele><time>2026-03-22T08:58:58.224Z</time></trkpt><trkpt lat="43.523305" lon="11.55195"><ele>157.0</ele><time>2026-03-22T08:58:59.226Z</time></trkpt><trkpt lat="43.523285" lon="11.551855"><ele>157.0</ele><time>2026-03-22T08:59:00.224Z</time></trkpt><trkpt lat="43.5232633" lon="11.5517533"><ele>157.0</ele><time>2026-03-22T08:59:01.225Z</time></trkpt><trkpt lat="43.5232433" lon="11.55165"><ele>157.0</ele><time>2026-03-22T08:59:02.224Z</time></trkpt><trkpt lat="43.5232233" lon="11.5515467"><ele>157.0</ele><time>2026-03-22T08:59:03.226Z</time></trkpt><trkpt lat="43.5232017" lon="11.5514467"><ele>157.0</ele><time>2026-03-22T08:59:04.225Z</time></trkpt><trkpt lat="43.5231783" lon="11.551345"><ele>157.0</ele><time>2026-03-22T08:59:05.227Z</time></trkpt><trkpt lat="43.52315" lon="11.5512467"><ele>157.0</ele><time>2026-03-22T08:59:06.224Z</time></trkpt><trkpt lat="43.5231267" lon="11.551145"><ele>157.0</ele><time>2026-03-22T08:59:07.226Z</time></trkpt><trkpt lat="43.5231067" lon="11.55104"><ele>157.0</ele><time>2026-03-22T08:59:08.226Z</time></trkpt><trkpt lat="43.5230867" lon="11.55093"><ele>157.0</ele><time>2026-03-22T08:59:09.225Z</time></trkpt><trkpt lat="43.523065" lon="11.5508233"><ele>157.0</ele><time>2026-03-22T08:59:10.224Z</time></trkpt><trkpt lat="43.5230383" lon="11.5507167"><ele>157.0</ele><time>2026-03-22T08:59:11.225Z</time></trkpt><trkpt lat="43.5230167" lon="11.5506067"><ele>157.0</ele><time>2026-03-22T08:59:12.225Z</time></trkpt><trkpt lat="43.522995" lon="11.5504983"><ele>157.0</ele><time>2026-03-22T08:59:13.227Z</time></trkpt><trkpt lat="43.522975" lon="11.5503883"><ele>157.0</ele><time>2026-03-22T08:59:14.225Z</time></trkpt><trkpt lat="43.5229517" lon="11.5502783"><ele>157.0</ele><time>2026-03-22T08:59:15.226Z</time></trkpt><trkpt lat="43.522925" lon="11.55017"><ele>157.0</ele><time>2026-03-22T08:59:16.225Z</time></trkpt><trkpt lat="43.5229033" lon="11.5500567"><ele>157.0</ele><time>2026-03-22T08:59:17.227Z</time></trkpt><trkpt lat="43.52288" lon="11.54994"><ele>156.83333333333334</ele><time>2026-03-22T08:59:18.225Z</time></trkpt><trkpt lat="43.522855" lon="11.5498333"><ele>156.66666666666669</ele><time>2026-03-22T08:59:19.226Z</time></trkpt><trkpt lat="43.5228283" lon="11.5497183"><ele>156.5</ele><time>2026-03-22T08:59:20.225Z</time></trkpt><trkpt lat="43.5228" lon="11.5496133"><ele>156.33333333333334</ele><time>2026-03-22T08:59:21.227Z</time></trkpt><trkpt lat="43.5227717" lon="11.5495117"><ele>156.16666666666666</ele><time>2026-03-22T08:59:22.225Z</time></trkpt><trkpt lat="43.5227417" lon="11.5494033"><ele>156.0</ele><time>2026-03-22T08:59:23.225Z</time></trkpt><trkpt lat="43.5227167" lon="11.5492867"><ele>155.8</ele><time>2026-03-22T08:59:24.224Z</time></trkpt><trkpt lat="43.5226917" lon="11.5491683"><ele>155.6</ele><time>2026-03-22T08:59:25.225Z</time></trkpt><trkpt lat="43.5226683" lon="11.5490483"><ele>155.4</ele><time>2026-03-22T08:59:26.226Z</time></trkpt><trkpt lat="43.5226433" lon="11.5489233"><ele>155.2</ele><time>2026-03-22T08:59:27.225Z</time></trkpt><trkpt lat="43.52262" lon="11.548805"><ele>155.0</ele><time>2026-03-22T08:59:28.224Z</time></trkpt><trkpt lat="43.5225967" lon="11.5486883"><ele>155.33333333333331</ele><time>2026-03-22T08:59:29.225Z</time></trkpt><trkpt lat="43.5225717" lon="11.548575"><ele>155.66666666666666</ele><time>2026-03-22T08:59:30.224Z</time></trkpt><trkpt lat="43.5225467" lon="11.54846"><ele>156.0</ele><time>2026-03-22T08:59:31.227Z</time></trkpt><trkpt lat="43.5225233" lon="11.54834"><ele>156.33333333333334</ele><time>2026-03-22T08:59:32.225Z</time></trkpt><trkpt lat="43.5224983" lon="11.5482233"><ele>156.66666666666669</ele><time>2026-03-22T08:59:33.226Z</time></trkpt><trkpt lat="43.5224767" lon="11.54811"><ele>157.0</ele><time>2026-03-22T08:59:34.224Z</time></trkpt><trkpt lat="43.5224567" lon="11.5479967"><ele>157.0</ele><time>2026-03-22T08:59:35.314Z</time></trkpt><trkpt lat="43.5224383" lon="11.5478833"><ele>157.0</ele><time>2026-03-22T08:59:36.225Z</time></trkpt><trkpt lat="43.5224167" lon="11.5477733"><ele>157.0</ele><time>2026-03-22T08:59:37.224Z</time></trkpt><trkpt lat="43.5223967" lon="11.5476633"><ele>157.0</ele><time>2026-03-22T08:59:38.225Z</time></trkpt><trkpt lat="43.5223767" lon="11.5475533"><ele>157.0</ele><time>2026-03-22T08:59:39.225Z</time></trkpt><trkpt lat="43.5223617" lon="11.5474367"><ele>157.0</ele><time>2026-03-22T08:59:40.225Z</time></trkpt><trkpt lat="43.5223467" lon="11.547325"><ele>157.0</ele><time>2026-03-22T08:59:41.225Z</time></trkpt><trkpt lat="43.522335" lon="11.54721"><ele>157.0</ele><time>2026-03-22T08:59:42.225Z</time></trkpt><trkpt lat="43.52233" lon="11.54709"><ele>157.0</ele><time>2026-03-22T08:59:43.224Z</time></trkpt><trkpt lat="43.5223183" lon="11.5469833"><ele>157.0</ele><time>2026-03-22T08:59:44.225Z</time></trkpt><trkpt lat="43.52231" lon="11.54688"><ele>157.0</ele><time>2026-03-22T08:59:45.224Z</time></trkpt><trkpt lat="43.5223017" lon="11.546775"><ele>157.0</ele><time>2026-03-22T08:59:46.225Z</time></trkpt><trkpt lat="43.5222967" lon="11.5466667"><ele>157.16666666666669</ele><time>2026-03-22T08:59:47.226Z</time></trkpt><trkpt lat="43.5222917" lon="11.5465617"><ele>157.33333333333334</ele><time>2026-03-22T08:59:48.226Z</time></trkpt><trkpt lat="43.522285" lon="11.5464567"><ele>157.5</ele><time>2026-03-22T08:59:49.225Z</time></trkpt><trkpt lat="43.5222783" lon="11.5463483"><ele>157.66666666666666</ele><time>2026-03-22T08:59:50.225Z</time></trkpt><trkpt lat="43.5222733" lon="11.5462417"><ele>157.83333333333331</ele><time>2026-03-22T08:59:51.224Z</time></trkpt><trkpt lat="43.5222683" lon="11.546135"><ele>158.0</ele><time>2026-03-22T08:59:52.224Z</time></trkpt><trkpt lat="43.522265" lon="11.5460267"><ele>158.0</ele><time>2026-03-22T08:59:53.226Z</time></trkpt><trkpt lat="43.5222583" lon="11.545915"><ele>158.0</ele><time>2026-03-22T08:59:54.225Z</time></trkpt><trkpt lat="43.5222533" lon="11.545805"><ele>158.0</ele><time>2026-03-22T08:59:55.225Z</time></trkpt><trkpt lat="43.52225" lon="11.5456967"><ele>158.0</ele><time>2026-03-22T08:59:56.225Z</time></trkpt><trkpt lat="43.522245" lon="11.5455883"><ele>158.0</ele><time>2026-03-22T08:59:57.226Z</time></trkpt><trkpt lat="43.52224" lon="11.5454783"><ele>158.0</ele><time>2026-03-22T08:59:58.225Z</time></trkpt><trkpt lat="43.5222367" lon="11.5453683"><ele>158.0</ele><time>2026-03-22T08:59:59.224Z</time></trkpt><trkpt lat="43.5222317" lon="11.5452567"><ele>158.0</ele><time>2026-03-22T09:00:00.226Z</time></trkpt><trkpt lat="43.5222283" lon="11.545145"><ele>158.0</ele><time>2026-03-22T09:00:01.226Z</time></trkpt><trkpt lat="43.5222233" lon="11.5450367"><ele>158.0</ele><time>2026-03-22T09:00:02.225Z</time></trkpt><trkpt lat="43.5222217" lon="11.5449267"><ele>158.0</ele><time>2026-03-22T09:00:03.226Z</time></trkpt><trkpt lat="43.5222133" lon="11.5448167"><ele>158.0</ele><time>2026-03-22T09:00:04.226Z</time></trkpt><trkpt lat="43.5222067" lon="11.544705"><ele>158.0</ele><time>2026-03-22T09:00:05.227Z</time></trkpt><trkpt lat="43.5222033" lon="11.5445933"><ele>158.0</ele><time>2026-03-22T09:00:06.225Z</time></trkpt><trkpt lat="43.5222033" lon="11.5444833"><ele>158.0</ele><time>2026-03-22T09:00:07.227Z</time></trkpt><trkpt lat="43.5222" lon="11.5443683"><ele>158.0</ele><time>2026-03-22T09:00:08.225Z</time></trkpt><trkpt lat="43.5221933" lon="11.5442617"><ele>158.0</ele><time>2026-03-22T09:00:09.227Z</time></trkpt><trkpt lat="43.5221833" lon="11.544155"><ele>158.0</ele><time>2026-03-22T09:00:10.224Z</time></trkpt><trkpt lat="43.5221733" lon="11.5440483"><ele>158.0</ele><time>2026-03-22T09:00:11.224Z</time></trkpt><trkpt lat="43.5221617" lon="11.54394"><ele>158.0</ele><time>2026-03-22T09:00:12.225Z</time></trkpt><trkpt lat="43.5221433" lon="11.5438383"><ele>158.0</ele><time>2026-03-22T09:00:13.225Z</time></trkpt><trkpt lat="43.5221217" lon="11.5437367"><ele>158.0</ele><time>2026-03-22T09:00:14.225Z</time></trkpt><trkpt lat="43.5220967" lon="11.543635"><ele>158.0</ele><time>2026-03-22T09:00:15.225Z</time></trkpt><trkpt lat="43.5220733" lon="11.5435233"><ele>158.0</ele><time>2026-03-22T09:00:16.225Z</time></trkpt><trkpt lat="43.52205" lon="11.543425"><ele>158.0</ele><time>2026-03-22T09:00:17.224Z</time></trkpt><trkpt lat="43.5220233" lon="11.543325"><ele>158.0</ele><time>2026-03-22T09:00:18.225Z</time></trkpt><trkpt lat="43.5219967" lon="11.543225"><ele>158.0</ele><time>2026-03-22T09:00:19.226Z</time></trkpt><trkpt lat="43.5219667" lon="11.543125"><ele>158.0</ele><time>2026-03-22T09:00:20.226Z</time></trkpt><trkpt lat="43.52194" lon="11.5430233"><ele>158.0</ele><time>2026-03-22T09:00:21.227Z</time></trkpt><trkpt lat="43.5219133" lon="11.5429233"><ele>158.0</ele><time>2026-03-22T09:00:22.225Z</time></trkpt><trkpt lat="43.52189" lon="11.5428217"><ele>158.16666666666666</ele><time>2026-03-22T09:00:23.224Z</time></trkpt><trkpt lat="43.52186" lon="11.542725"><ele>158.33333333333331</ele><time>2026-03-22T09:00:24.226Z</time></trkpt><trkpt lat="43.5218317" lon="11.5426267"><ele>158.5</ele><time>2026-03-22T09:00:25.225Z</time></trkpt><trkpt lat="43.5218033" lon="11.5425267"><ele>158.66666666666666</ele><time>2026-03-22T09:00:26.225Z</time></trkpt><trkpt lat="43.521775" lon="11.54243"><ele>158.83333333333334</ele><time>2026-03-22T09:00:27.226Z</time></trkpt><trkpt lat="43.5217467" lon="11.5423367"><ele>159.0</ele><time>2026-03-22T09:00:28.223Z</time></trkpt><trkpt lat="43.5217183" lon="11.5422367"><ele>159.0</ele><time>2026-03-22T09:00:29.225Z</time></trkpt><trkpt lat="43.5216917" lon="11.5421333"><ele>159.0</ele><time>2026-03-22T09:00:30.225Z</time></trkpt><trkpt lat="43.5216633" lon="11.54204"><ele>159.0</ele><time>2026-03-22T09:00:31.225Z</time></trkpt><trkpt lat="43.5216333" lon="11.5419467"><ele>159.0</ele><time>2026-03-22T09:00:32.225Z</time></trkpt><trkpt lat="43.5216033" lon="11.54185"><ele>159.0</ele><time>2026-03-22T09:00:33.225Z</time></trkpt><trkpt lat="43.521575" lon="11.5417483"><ele>159.0</ele><time>2026-03-22T09:00:34.226Z</time></trkpt><trkpt lat="43.521545" lon="11.5416467"><ele>159.16666666666666</ele><time>2026-03-22T09:00:35.226Z</time></trkpt><trkpt lat="43.521515" lon="11.541545"><ele>159.33333333333334</ele><time>2026-03-22T09:00:36.224Z</time></trkpt><trkpt lat="43.5214867" lon="11.5414433"><ele>159.5</ele><time>2026-03-22T09:00:37.226Z</time></trkpt><trkpt lat="43.52146" lon="11.541345"><ele>159.66666666666669</ele><time>2026-03-22T09:00:38.225Z</time></trkpt><trkpt lat="43.5214317" lon="11.541245"><ele>159.83333333333334</ele><time>2026-03-22T09:00:39.224Z</time></trkpt><trkpt lat="43.5214" lon="11.5411517"><ele>160.0</ele><time>2026-03-22T09:00:40.225Z</time></trkpt><trkpt lat="43.521365" lon="11.54106"><ele>160.16666666666669</ele><time>2026-03-22T09:00:41.226Z</time></trkpt><trkpt lat="43.5213333" lon="11.540965"><ele>160.33333333333334</ele><time>2026-03-22T09:00:42.225Z</time></trkpt><trkpt lat="43.5213067" lon="11.54087"><ele>160.5</ele><time>2026-03-22T09:00:43.224Z</time></trkpt><trkpt lat="43.5212767" lon="11.5407717"><ele>160.66666666666666</ele><time>2026-03-22T09:00:44.225Z</time></trkpt><trkpt lat="43.52125" lon="11.540675"><ele>160.83333333333331</ele><time>2026-03-22T09:00:45.224Z</time></trkpt><trkpt lat="43.5212267" lon="11.5405783"><ele>161.0</ele><time>2026-03-22T09:00:46.223Z</time></trkpt><trkpt lat="43.5212017" lon="11.5404783"><ele>161.0</ele><time>2026-03-22T09:00:47.224Z</time></trkpt><trkpt lat="43.521175" lon="11.540375"><ele>161.0</ele><time>2026-03-22T09:00:48.227Z</time></trkpt><trkpt lat="43.52115" lon="11.5402767"><ele>161.0</ele><time>2026-03-22T09:00:49.225Z</time></trkpt><trkpt lat="43.521125" lon="11.5401817"><ele>161.0</ele><time>2026-03-22T09:00:50.227Z</time></trkpt><trkpt lat="43.5210983" lon="11.5400867"><ele>161.0</ele><time>2026-03-22T09:00:51.225Z</time></trkpt><trkpt lat="43.5210683" lon="11.5400033"><ele>161.0</ele><time>2026-03-22T09:00:52.225Z</time></trkpt><trkpt lat="43.5210417" lon="11.5399117"><ele>161.0</ele><time>2026-03-22T09:00:53.226Z</time></trkpt><trkpt lat="43.5210117" lon="11.5398217"><ele>161.0</ele><time>2026-03-22T09:00:54.225Z</time></trkpt><trkpt lat="43.520985" lon="11.5397267"><ele>161.0</ele><time>2026-03-22T09:00:55.224Z</time></trkpt><trkpt lat="43.5209633" lon="11.53963"><ele>161.0</ele><time>2026-03-22T09:00:56.225Z</time></trkpt><trkpt lat="43.5209383" lon="11.5395417"><ele>161.0</ele><time>2026-03-22T09:00:57.226Z</time></trkpt><trkpt lat="43.520915" lon="11.539455"><ele>161.0</ele><time>2026-03-22T09:00:58.224Z</time></trkpt><trkpt lat="43.52089" lon="11.53937"><ele>161.0</ele><time>2026-03-22T09:00:59.227Z</time></trkpt><trkpt lat="43.520865" lon="11.5392817"><ele>161.0</ele><time>2026-03-22T09:01:00.225Z</time></trkpt><trkpt lat="43.52084" lon="11.5391933"><ele>161.57142857142858</ele><time>2026-03-22T09:01:01.225Z</time></trkpt><trkpt lat="43.520815" lon="11.5391067"><ele>162.14285714285714</ele><time>2026-03-22T09:01:02.225Z</time></trkpt><trkpt lat="43.5207883" lon="11.5390183"><ele>162.71428571428572</ele><time>2026-03-22T09:01:03.227Z</time></trkpt><trkpt lat="43.5207667" lon="11.53893"><ele>163.28571428571428</ele><time>2026-03-22T09:01:04.225Z</time></trkpt><trkpt lat="43.520745" lon="11.5388467"><ele>163.85714285714286</ele><time>2026-03-22T09:01:05.224Z</time></trkpt><trkpt lat="43.52072" lon="11.5387633"><ele>164.42857142857144</ele><time>2026-03-22T09:01:06.227Z</time></trkpt><trkpt lat="43.520695" lon="11.53868"><ele>165.0</ele><time>2026-03-22T09:01:07.226Z</time></trkpt><trkpt lat="43.52067" lon="11.538595"><ele>165.6</ele><time>2026-03-22T09:01:08.226Z</time></trkpt><trkpt lat="43.5206483" lon="11.5385117"><ele>166.2</ele><time>2026-03-22T09:01:09.224Z</time></trkpt><trkpt lat="43.5205983" lon="11.5383617"><ele>166.8</ele><time>2026-03-22T09:01:11.224Z</time></trkpt><trkpt lat="43.5205483" lon="11.5382083"><ele>167.4</ele><time>2026-03-22T09:01:13.225Z</time></trkpt><trkpt lat="43.520495" lon="11.5380583"><ele>168.0</ele><time>2026-03-22T09:01:15.225Z</time></trkpt><trkpt lat="43.5204517" lon="11.5379067"><ele>167.5</ele><time>2026-03-22T09:01:17.227Z</time></trkpt><trkpt lat="43.5204167" lon="11.5377467"><ele>167.0</ele><time>2026-03-22T09:01:19.225Z</time></trkpt><trkpt lat="43.520375" lon="11.5375883"><ele>166.5</ele><time>2026-03-22T09:01:21.226Z</time></trkpt><trkpt lat="43.5203283" lon="11.537435"><ele>166.0</ele><time>2026-03-22T09:01:23.224Z</time></trkpt><trkpt lat="43.520285" lon="11.53728"><ele>166.0</ele><time>2026-03-22T09:01:25.225Z</time></trkpt><trkpt lat="43.5202467" lon="11.53713"><ele>166.0</ele><time>2026-03-22T09:01:27.226Z</time></trkpt><trkpt lat="43.5202167" lon="11.53698"><ele>166.0</ele><time>2026-03-22T09:01:29.225Z</time></trkpt><trkpt lat="43.5201867" lon="11.5368267"><ele>166.0</ele><time>2026-03-22T09:01:31.224Z</time></trkpt><trkpt lat="43.52017" lon="11.53667"><ele>167.0</ele><time>2026-03-22T09:01:33.226Z</time></trkpt><trkpt lat="43.5201667" lon="11.5365117"><ele>168.0</ele><time>2026-03-22T09:01:35.225Z</time></trkpt><trkpt lat="43.5201717" lon="11.5363517"><ele>169.0</ele><time>2026-03-22T09:01:37.226Z</time></trkpt><trkpt lat="43.5201867" lon="11.536195"><ele>170.0</ele><time>2026-03-22T09:01:39.225Z</time></trkpt><trkpt lat="43.5202133" lon="11.5360433"><ele>170.5</ele><time>2026-03-22T09:01:41.226Z</time></trkpt><trkpt lat="43.5202583" lon="11.5359033"><ele>171.0</ele><time>2026-03-22T09:01:43.225Z</time></trkpt><trkpt lat="43.5203117" lon="11.5357667"><ele>171.5</ele><time>2026-03-22T09:01:45.225Z</time></trkpt><trkpt lat="43.520375" lon="11.53563"><ele>172.0</ele><time>2026-03-22T09:01:47.226Z</time></trkpt><trkpt lat="43.520455" lon="11.5355"><ele>172.33333333333334</ele><time>2026-03-22T09:01:49.225Z</time></trkpt><trkpt lat="43.5204983" lon="11.535435"><ele>172.66666666666669</ele><time>2026-03-22T09:01:50.228Z</time></trkpt><trkpt lat="43.5205817" lon="11.5353017"><ele>173.0</ele><time>2026-03-22T09:01:52.225Z</time></trkpt><trkpt lat="43.5206267" lon="11.535235"><ele>173.33333333333334</ele><time>2026-03-22T09:01:53.225Z</time></trkpt><trkpt lat="43.5206717" lon="11.5351667"><ele>173.66666666666666</ele><time>2026-03-22T09:01:54.224Z</time></trkpt><trkpt lat="43.5207183" lon="11.5351017"><ele>174.0</ele><time>2026-03-22T09:01:55.225Z</time></trkpt><trkpt lat="43.5207633" lon="11.5350383"><ele>174.0</ele><time>2026-03-22T09:01:56.225Z</time></trkpt><trkpt lat="43.5208083" lon="11.534975"><ele>174.0</ele><time>2026-03-22T09:01:57.225Z</time></trkpt><trkpt lat="43.5208533" lon="11.5349083"><ele>174.0</ele><time>2026-03-22T09:01:58.225Z</time></trkpt><trkpt lat="43.5209267" lon="11.53478"><ele>174.0</ele><time>2026-03-22T09:02:00.225Z</time></trkpt><trkpt lat="43.52097" lon="11.5347133"><ele>174.0</ele><time>2026-03-22T09:02:01.225Z</time></trkpt><trkpt lat="43.5210467" lon="11.5345817"><ele>174.0</ele><time>2026-03-22T09:02:03.225Z</time></trkpt><trkpt lat="43.5211267" lon="11.5344517"><ele>173.71428571428572</ele><time>2026-03-22T09:02:05.227Z</time></trkpt><trkpt lat="43.52117" lon="11.5343867"><ele>173.42857142857144</ele><time>2026-03-22T09:02:06.225Z</time></trkpt><trkpt lat="43.5212117" lon="11.5343167"><ele>173.14285714285717</ele><time>2026-03-22T09:02:07.225Z</time></trkpt><trkpt lat="43.5212567" lon="11.5342483"><ele>172.85714285714286</ele><time>2026-03-22T09:02:08.226Z</time></trkpt><trkpt lat="43.5213" lon="11.5341833"><ele>172.57142857142858</ele><time>2026-03-22T09:02:09.225Z</time></trkpt><trkpt lat="43.5213467" lon="11.5341183"><ele>172.2857142857143</ele><time>2026-03-22T09:02:10.224Z</time></trkpt><trkpt lat="43.52139" lon="11.5340483"><ele>172.0</ele><time>2026-03-22T09:02:11.225Z</time></trkpt><trkpt lat="43.5214367" lon="11.5339817"><ele>172.66666666666669</ele><time>2026-03-22T09:02:12.225Z</time></trkpt><trkpt lat="43.5214817" lon="11.5339183"><ele>173.33333333333334</ele><time>2026-03-22T09:02:13.227Z</time></trkpt><trkpt lat="43.5215683" lon="11.5337867"><ele>174.0</ele><time>2026-03-22T09:02:15.226Z</time></trkpt><trkpt lat="43.52161" lon="11.53372"><ele>174.66666666666666</ele><time>2026-03-22T09:02:16.225Z</time></trkpt><trkpt lat="43.5216517" lon="11.5336533"><ele>175.33333333333331</ele><time>2026-03-22T09:02:17.225Z</time></trkpt><trkpt lat="43.5217333" lon="11.533525"><ele>176.0</ele><time>2026-03-22T09:02:19.226Z</time></trkpt><trkpt lat="43.5218133" lon="11.533395"><ele>176.0</ele><time>2026-03-22T09:02:21.226Z</time></trkpt><trkpt lat="43.5218533" lon="11.533325"><ele>176.0</ele><time>2026-03-22T09:02:22.227Z</time></trkpt><trkpt lat="43.5218867" lon="11.53325"><ele>176.0</ele><time>2026-03-22T09:02:23.226Z</time></trkpt><trkpt lat="43.52194" lon="11.5330933"><ele>176.0</ele><time>2026-03-22T09:02:25.226Z</time></trkpt><trkpt lat="43.5219633" lon="11.5330083"><ele>176.0</ele><time>2026-03-22T09:02:26.227Z</time></trkpt><trkpt lat="43.521975" lon="11.5328383"><ele>176.0</ele><time>2026-03-22T09:02:28.226Z</time></trkpt><trkpt lat="43.5219733" lon="11.53275"><ele>176.14285714285714</ele><time>2026-03-22T09:02:29.225Z</time></trkpt><trkpt lat="43.5219667" lon="11.5326617"><ele>176.28571428571428</ele><time>2026-03-22T09:02:30.225Z</time></trkpt><trkpt lat="43.5219583" lon="11.532575"><ele>176.42857142857144</ele><time>2026-03-22T09:02:31.225Z</time></trkpt><trkpt lat="43.5219517" lon="11.5324867"><ele>176.57142857142856</ele><time>2026-03-22T09:02:32.226Z</time></trkpt><trkpt lat="43.5219467" lon="11.5323967"><ele>176.7142857142857</ele><time>2026-03-22T09:02:33.225Z</time></trkpt><trkpt lat="43.5219367" lon="11.5322267"><ele>176.85714285714286</ele><time>2026-03-22T09:02:35.226Z</time></trkpt><trkpt lat="43.5219333" lon="11.5321383"><ele>177.0</ele><time>2026-03-22T09:02:36.224Z</time></trkpt><trkpt lat="43.5219217" lon="11.531985"><ele>178.0</ele><time>2026-03-22T09:02:38.224Z</time></trkpt><trkpt lat="43.521905" lon="11.53184"><ele>179.0</ele><time>2026-03-22T09:02:40.225Z</time></trkpt><trkpt lat="43.521905" lon="11.5316717"><ele>180.0</ele><time>2026-03-22T09:02:42.224Z</time></trkpt><trkpt lat="43.5219067" lon="11.53151"><ele>181.0</ele><time>2026-03-22T09:02:44.226Z</time></trkpt><trkpt lat="43.5219183" lon="11.5313467"><ele>181.20000000000002</ele><time>2026-03-22T09:02:46.228Z</time></trkpt><trkpt lat="43.52194" lon="11.5312"><ele>181.4</ele><time>2026-03-22T09:02:48.225Z</time></trkpt><trkpt lat="43.5219783" lon="11.5310717"><ele>181.6</ele><time>2026-03-22T09:02:50.229Z</time></trkpt><trkpt lat="43.5220217" lon="11.5309417"><ele>181.8</ele><time>2026-03-22T09:02:52.225Z</time></trkpt><trkpt lat="43.5220617" lon="11.530825"><ele>182.0</ele><time>2026-03-22T09:02:54.227Z</time></trkpt><trkpt lat="43.5221017" lon="11.530715"><ele>183.33333333333331</ele><time>2026-03-22T09:02:56.226Z</time></trkpt><trkpt lat="43.52214" lon="11.5306033"><ele>184.66666666666666</ele><time>2026-03-22T09:02:58.225Z</time></trkpt><trkpt lat="43.52217" lon="11.5304933"><ele>186.0</ele><time>2026-03-22T09:03:00.224Z</time></trkpt><trkpt lat="43.5222067" lon="11.5303833"><ele>187.33333333333334</ele><time>2026-03-22T09:03:02.226Z</time></trkpt><trkpt lat="43.5222417" lon="11.5302717"><ele>188.66666666666669</ele><time>2026-03-22T09:03:04.225Z</time></trkpt><trkpt lat="43.522285" lon="11.5301533"><ele>190.0</ele><time>2026-03-22T09:03:06.226Z</time></trkpt><trkpt lat="43.5223167" lon="11.53004"><ele>190.16666666666669</ele><time>2026-03-22T09:03:08.225Z</time></trkpt><trkpt lat="43.52235" lon="11.529935"><ele>190.33333333333334</ele><time>2026-03-22T09:03:10.226Z</time></trkpt><trkpt lat="43.5223833" lon="11.529835"><ele>190.5</ele><time>2026-03-22T09:03:12.225Z</time></trkpt><trkpt lat="43.5224217" lon="11.5297433"><ele>190.66666666666666</ele><time>2026-03-22T09:03:14.225Z</time></trkpt><trkpt lat="43.5224583" lon="11.52965"><ele>190.83333333333331</ele><time>2026-03-22T09:03:16.225Z</time></trkpt><trkpt lat="43.5225017" lon="11.5295567"><ele>191.0</ele><time>2026-03-22T09:03:18.224Z</time></trkpt><trkpt lat="43.522545" lon="11.52947"><ele>191.0</ele><time>2026-03-22T09:03:20.225Z</time></trkpt><trkpt lat="43.5225933" lon="11.52939"><ele>191.0</ele><time>2026-03-22T09:03:22.224Z</time></trkpt><trkpt lat="43.5226567" lon="11.52931"><ele>191.0</ele><time>2026-03-22T09:03:24.226Z</time></trkpt><trkpt lat="43.5227217" lon="11.5292567"><ele>191.0</ele><time>2026-03-22T09:03:26.226Z</time></trkpt><trkpt lat="43.5227967" lon="11.5292083"><ele>191.0</ele><time>2026-03-22T09:03:28.226Z</time></trkpt><trkpt lat="43.522855" lon="11.5291617"><ele>191.0</ele><time>2026-03-22T09:03:30.226Z</time></trkpt><trkpt lat="43.5229217" lon="11.529125"><ele>192.57142857142858</ele><time>2026-03-22T09:03:32.226Z</time></trkpt><trkpt lat="43.5229867" lon="11.5290967"><ele>194.14285714285714</ele><time>2026-03-22T09:03:34.225Z</time></trkpt><trkpt lat="43.5230567" lon="11.5290617"><ele>195.71428571428572</ele><time>2026-03-22T09:03:36.226Z</time></trkpt><trkpt lat="43.5231167" lon="11.5290233"><ele>197.28571428571428</ele><time>2026-03-22T09:03:38.224Z</time></trkpt><trkpt lat="43.523175" lon="11.5289867"><ele>198.85714285714283</ele><time>2026-03-22T09:03:40.225Z</time></trkpt><trkpt lat="43.5232417" lon="11.5289567"><ele>200.42857142857142</ele><time>2026-03-22T09:03:42.226Z</time></trkpt><trkpt lat="43.523305" lon="11.5289233"><ele>202.0</ele><time>2026-03-22T09:03:44.225Z</time></trkpt><trkpt lat="43.5233783" lon="11.528845"><ele>202.0</ele><time>2026-03-22T09:03:47.226Z</time></trkpt><trkpt lat="43.5234417" lon="11.5287933"><ele>202.0</ele><time>2026-03-22T09:03:49.227Z</time></trkpt><trkpt lat="43.5235167" lon="11.5287583"><ele>202.0</ele><time>2026-03-22T09:03:51.227Z</time></trkpt><trkpt lat="43.5235817" lon="11.5287283"><ele>202.0</ele><time>2026-03-22T09:03:53.223Z</time></trkpt><trkpt lat="43.5236533" lon="11.5286933"><ele>202.0</ele><time>2026-03-22T09:03:55.225Z</time></trkpt><trkpt lat="43.5237267" lon="11.5286633"><ele>202.0</ele><time>2026-03-22T09:03:57.227Z</time></trkpt><trkpt lat="43.5237983" lon="11.5286433"><ele>202.0</ele><time>2026-03-22T09:03:59.223Z</time></trkpt><trkpt lat="43.5238667" lon="11.5286383"><ele>201.85714285714286</ele><time>2026-03-22T09:04:01.224Z</time></trkpt><trkpt lat="43.523935" lon="11.528635"><ele>201.71428571428572</ele><time>2026-03-22T09:04:03.227Z</time></trkpt><trkpt lat="43.5240033" lon="11.5286417"><ele>201.57142857142856</ele><time>2026-03-22T09:04:05.226Z</time></trkpt><trkpt lat="43.5240933" lon="11.5286533"><ele>201.42857142857144</ele><time>2026-03-22T09:04:08.225Z</time></trkpt><trkpt lat="43.5241567" lon="11.5286583"><ele>201.2857142857143</ele><time>2026-03-22T09:04:10.225Z</time></trkpt><trkpt lat="43.5242217" lon="11.5286733"><ele>201.14285714285714</ele><time>2026-03-22T09:04:12.225Z</time></trkpt><trkpt lat="43.5242883" lon="11.5286917"><ele>201.0</ele><time>2026-03-22T09:04:14.226Z</time></trkpt><trkpt lat="43.5243633" lon="11.5287033"><ele>201.0</ele><time>2026-03-22T09:04:16.224Z</time></trkpt><trkpt lat="43.5244367" lon="11.5287217"><ele>201.0</ele><time>2026-03-22T09:04:18.226Z</time></trkpt><trkpt lat="43.52451" lon="11.5287233"><ele>201.0</ele><time>2026-03-22T09:04:20.225Z</time></trkpt><trkpt lat="43.5245833" lon="11.52875"><ele>201.0</ele><time>2026-03-22T09:04:22.225Z</time></trkpt><trkpt lat="43.524655" lon="11.5287717"><ele>201.0</ele><time>2026-03-22T09:04:24.227Z</time></trkpt><trkpt lat="43.5247483" lon="11.5287833"><ele>201.0</ele><time>2026-03-22T09:04:27.227Z</time></trkpt><trkpt lat="43.524825" lon="11.5287767"><ele>201.85714285714286</ele><time>2026-03-22T09:04:29.226Z</time></trkpt><trkpt lat="43.5249033" lon="11.528765"><ele>202.71428571428572</ele><time>2026-03-22T09:04:31.225Z</time></trkpt><trkpt lat="43.524975" lon="11.5287417"><ele>203.57142857142858</ele><time>2026-03-22T09:04:33.225Z</time></trkpt><trkpt lat="43.52504" lon="11.528695"><ele>204.42857142857144</ele><time>2026-03-22T09:04:35.226Z</time></trkpt><trkpt lat="43.5251" lon="11.5286617"><ele>205.28571428571428</ele><time>2026-03-22T09:04:37.225Z</time></trkpt><trkpt lat="43.5251633" lon="11.5286233"><ele>206.14285714285717</ele><time>2026-03-22T09:04:39.226Z</time></trkpt><trkpt lat="43.5252267" lon="11.52858"><ele>207.0</ele><time>2026-03-22T09:04:41.226Z</time></trkpt><trkpt lat="43.525285" lon="11.5285183"><ele>207.0</ele><time>2026-03-22T09:04:43.227Z</time></trkpt><trkpt lat="43.525335" lon="11.5284433"><ele>207.0</ele><time>2026-03-22T09:04:45.228Z</time></trkpt><trkpt lat="43.52538" lon="11.5283683"><ele>207.0</ele><time>2026-03-22T09:04:47.227Z</time></trkpt><trkpt lat="43.5254267" lon="11.5282867"><ele>207.0</ele><time>2026-03-22T09:04:49.228Z</time></trkpt><trkpt lat="43.5254717" lon="11.5282"><ele>207.0</ele><time>2026-03-22T09:04:51.225Z</time></trkpt><trkpt lat="43.5255167" lon="11.52811"><ele>207.0</ele><time>2026-03-22T09:04:53.225Z</time></trkpt><trkpt lat="43.5255617" lon="11.5280117"><ele>207.66666666666666</ele><time>2026-03-22T09:04:55.225Z</time></trkpt><trkpt lat="43.5256133" lon="11.5278967"><ele>208.33333333333331</ele><time>2026-03-22T09:04:57.226Z</time></trkpt><trkpt lat="43.5256583" lon="11.5277933"><ele>209.0</ele><time>2026-03-22T09:04:59.227Z</time></trkpt><trkpt lat="43.52569" lon="11.5276817"><ele>209.66666666666666</ele><time>2026-03-22T09:05:02.226Z</time></trkpt><trkpt lat="43.525725" lon="11.5276"><ele>210.33333333333331</ele><time>2026-03-22T09:05:04.224Z</time></trkpt><trkpt lat="43.525755" lon="11.5275133"><ele>211.0</ele><time>2026-03-22T09:05:06.229Z</time></trkpt><trkpt lat="43.525805" lon="11.52741"><ele>211.0</ele><time>2026-03-22T09:05:08.226Z</time></trkpt><trkpt lat="43.5258483" lon="11.5273117"><ele>211.0</ele><time>2026-03-22T09:05:10.226Z</time></trkpt><trkpt lat="43.525885" lon="11.5272333"><ele>211.0</ele><time>2026-03-22T09:05:12.227Z</time></trkpt><trkpt lat="43.52592" lon="11.5271417"><ele>211.0</ele><time>2026-03-22T09:05:14.227Z</time></trkpt><trkpt lat="43.5259383" lon="11.52705"><ele>211.0</ele><time>2026-03-22T09:05:16.226Z</time></trkpt><trkpt lat="43.5259617" lon="11.5269517"><ele>211.0</ele><time>2026-03-22T09:05:18.226Z</time></trkpt><trkpt lat="43.5259817" lon="11.5268533"><ele>211.0</ele><time>2026-03-22T09:05:20.225Z</time></trkpt><trkpt lat="43.525985" lon="11.526745"><ele>211.33333333333331</ele><time>2026-03-22T09:05:22.225Z</time></trkpt><trkpt lat="43.525985" lon="11.526625"><ele>211.66666666666666</ele><time>2026-03-22T09:05:24.224Z</time></trkpt><trkpt lat="43.5259717" lon="11.5265217"><ele>212.0</ele><time>2026-03-22T09:05:26.226Z</time></trkpt><trkpt lat="43.5259383" lon="11.5264267"><ele>212.33333333333331</ele><time>2026-03-22T09:05:28.225Z</time></trkpt><trkpt lat="43.5258967" lon="11.526335"><ele>212.66666666666666</ele><time>2026-03-22T09:05:30.225Z</time></trkpt><trkpt lat="43.525845" lon="11.5262517"><ele>213.0</ele><time>2026-03-22T09:05:32.227Z</time></trkpt><trkpt lat="43.52579" lon="11.52617"><ele>213.28571428571428</ele><time>2026-03-22T09:05:34.228Z</time></trkpt><trkpt lat="43.5257367" lon="11.5261083"><ele>213.57142857142856</ele><time>2026-03-22T09:05:36.228Z</time></trkpt><trkpt lat="43.5256867" lon="11.5260317"><ele>213.85714285714283</ele><time>2026-03-22T09:05:38.227Z</time></trkpt><trkpt lat="43.5256333" lon="11.525965"><ele>214.14285714285714</ele><time>2026-03-22T09:05:40.226Z</time></trkpt><trkpt lat="43.5255733" lon="11.5259133"><ele>214.42857142857144</ele><time>2026-03-22T09:05:42.228Z</time></trkpt><trkpt lat="43.525515" lon="11.525855"><ele>214.7142857142857</ele><time>2026-03-22T09:05:44.225Z</time></trkpt><trkpt lat="43.5254383" lon="11.525835"><ele>215.0</ele><time>2026-03-22T09:05:46.225Z</time></trkpt><trkpt lat="43.5253683" lon="11.5258183"><ele>216.28571428571428</ele><time>2026-03-22T09:05:48.225Z</time></trkpt><trkpt lat="43.5252967" lon="11.525835"><ele>217.57142857142858</ele><time>2026-03-22T09:05:50.227Z</time></trkpt><trkpt lat="43.5252233" lon="11.5258567"><ele>218.85714285714286</ele><time>2026-03-22T09:05:52.227Z</time></trkpt><trkpt lat="43.5251533" lon="11.525885"><ele>220.14285714285714</ele><time>2026-03-22T09:05:54.227Z</time></trkpt><trkpt lat="43.5250833" lon="11.5259067"><ele>221.42857142857144</ele><time>2026-03-22T09:05:56.226Z</time></trkpt><trkpt lat="43.525015" lon="11.5259217"><ele>222.71428571428572</ele><time>2026-03-22T09:05:58.225Z</time></trkpt><trkpt lat="43.5249417" lon="11.5259267"><ele>224.0</ele><time>2026-03-22T09:06:00.228Z</time></trkpt><trkpt lat="43.5248767" lon="11.5259033"><ele>224.0</ele><time>2026-03-22T09:06:02.228Z</time></trkpt><trkpt lat="43.5248233" lon="11.5258517"><ele>224.0</ele><time>2026-03-22T09:06:04.227Z</time></trkpt><trkpt lat="43.5247733" lon="11.52579"><ele>224.0</ele><time>2026-03-22T09:06:06.227Z</time></trkpt><trkpt lat="43.5247217" lon="11.525675"><ele>224.0</ele><time>2026-03-22T09:06:09.226Z</time></trkpt><trkpt lat="43.524705" lon="11.5255867"><ele>224.0</ele><time>2026-03-22T09:06:11.227Z</time></trkpt><trkpt lat="43.5247033" lon="11.5254917"><ele>224.0</ele><time>2026-03-22T09:06:13.229Z</time></trkpt><trkpt lat="43.5247083" lon="11.5253933"><ele>224.0</ele><time>2026-03-22T09:06:15.227Z</time></trkpt><trkpt lat="43.5247017" lon="11.52529"><ele>225.14285714285714</ele><time>2026-03-22T09:06:17.224Z</time></trkpt><trkpt lat="43.5246983" lon="11.5251817"><ele>226.28571428571428</ele><time>2026-03-22T09:06:19.226Z</time></trkpt><trkpt lat="43.524695" lon="11.5250917"><ele>227.42857142857144</ele><time>2026-03-22T09:06:21.227Z</time></trkpt><trkpt lat="43.5246917" lon="11.5249967"><ele>228.57142857142858</ele><time>2026-03-22T09:06:23.224Z</time></trkpt><trkpt lat="43.524685" lon="11.5249083"><ele>229.71428571428572</ele><time>2026-03-22T09:06:25.228Z</time></trkpt><trkpt lat="43.5246833" lon="11.5247783"><ele>230.8571428571429</ele><time>2026-03-22T09:06:28.225Z</time></trkpt><trkpt lat="43.5246833" lon="11.5246817"><ele>232.00000000000003</ele><time>2026-03-22T09:06:30.225Z</time></trkpt><trkpt lat="43.52468" lon="11.5245867"><ele>232.00000000000003</ele><time>2026-03-22T09:06:32.228Z</time></trkpt><trkpt lat="43.5246783" lon="11.5244967"><ele>232.0</ele><time>2026-03-22T09:06:34.226Z</time></trkpt><trkpt lat="43.5246817" lon="11.524395"><ele>232.00000000000003</ele><time>2026-03-22T09:06:36.226Z</time></trkpt><trkpt lat="43.5246817" lon="11.524295"><ele>232.00000000000003</ele><time>2026-03-22T09:06:38.227Z</time></trkpt><trkpt lat="43.5246817" lon="11.5241867"><ele>232.0</ele><time>2026-03-22T09:06:40.226Z</time></trkpt><trkpt lat="43.5246717" lon="11.5240917"><ele>232.00000000000003</ele><time>2026-03-22T09:06:42.226Z</time></trkpt><trkpt lat="43.5246483" lon="11.524"><ele>232.00000000000003</ele><time>2026-03-22T09:06:44.229Z</time></trkpt><trkpt lat="43.5246167" lon="11.5239117"><ele>232.00000000000003</ele><time>2026-03-22T09:06:46.225Z</time></trkpt><trkpt lat="43.5245767" lon="11.5238283"><ele>232.0</ele><time>2026-03-22T09:06:48.224Z</time></trkpt><trkpt lat="43.5245217" lon="11.5237667"><ele>232.00000000000003</ele><time>2026-03-22T09:06:50.226Z</time></trkpt><trkpt lat="43.524465" lon="11.5237067"><ele>232.00000000000003</ele><time>2026-03-22T09:06:52.226Z</time></trkpt><trkpt lat="43.5244067" lon="11.52366"><ele>232.0</ele><time>2026-03-22T09:06:54.227Z</time></trkpt><trkpt lat="43.5243417" lon="11.5236267"><ele>232.00000000000003</ele><time>2026-03-22T09:06:56.226Z</time></trkpt><trkpt lat="43.5242733" lon="11.5236117"><ele>232.00000000000003</ele><time>2026-03-22T09:06:58.226Z</time></trkpt><trkpt lat="43.5242033" lon="11.523615"><ele>233.42857142857144</ele><time>2026-03-22T09:07:00.228Z</time></trkpt><trkpt lat="43.5241283" lon="11.5236167"><ele>234.85714285714286</ele><time>2026-03-22T09:07:02.227Z</time></trkpt><trkpt lat="43.52406" lon="11.5236317"><ele>236.28571428571428</ele><time>2026-03-22T09:07:04.227Z</time></trkpt><trkpt lat="43.52399" lon="11.5236467"><ele>237.71428571428572</ele><time>2026-03-22T09:07:06.225Z</time></trkpt><trkpt lat="43.5239167" lon="11.5236633"><ele>239.1428571428571</ele><time>2026-03-22T09:07:08.226Z</time></trkpt><trkpt lat="43.5238367" lon="11.5236783"><ele>240.57142857142856</ele><time>2026-03-22T09:07:10.226Z</time></trkpt><trkpt lat="43.523765" lon="11.523695"><ele>242.0</ele><time>2026-03-22T09:07:12.225Z</time></trkpt><trkpt lat="43.5236983" lon="11.5237167"><ele>241.83333333333334</ele><time>2026-03-22T09:07:14.227Z</time></trkpt><trkpt lat="43.52363" lon="11.5237383"><ele>241.66666666666669</ele><time>2026-03-22T09:07:16.225Z</time></trkpt><trkpt lat="43.5235567" lon="11.523755"><ele>241.5</ele><time>2026-03-22T09:07:18.225Z</time></trkpt><trkpt lat="43.52348" lon="11.5237633"><ele>241.33333333333331</ele><time>2026-03-22T09:07:20.225Z</time></trkpt><trkpt lat="43.5234017" lon="11.5237467"><ele>241.16666666666666</ele><time>2026-03-22T09:07:22.226Z</time></trkpt><trkpt lat="43.523325" lon="11.5237083"><ele>241.0</ele><time>2026-03-22T09:07:24.226Z</time></trkpt><trkpt lat="43.52325" lon="11.5236383"><ele>242.0</ele><time>2026-03-22T09:07:26.226Z</time></trkpt><trkpt lat="43.523185" lon="11.5235383"><ele>243.00000000000003</ele><time>2026-03-22T09:07:28.225Z</time></trkpt><trkpt lat="43.5231383" lon="11.5234367"><ele>244.00000000000003</ele><time>2026-03-22T09:07:30.225Z</time></trkpt><trkpt lat="43.5230833" lon="11.5233333"><ele>245.0</ele><time>2026-03-22T09:07:32.225Z</time></trkpt><trkpt lat="43.5230283" lon="11.523225"><ele>246.0</ele><time>2026-03-22T09:07:34.229Z</time></trkpt><trkpt lat="43.5229733" lon="11.523105"><ele>246.0</ele><time>2026-03-22T09:07:36.227Z</time></trkpt><trkpt lat="43.5229183" lon="11.5229783"><ele>246.00000000000003</ele><time>2026-03-22T09:07:38.225Z</time></trkpt><trkpt lat="43.522865" lon="11.52285"><ele>246.00000000000003</ele><time>2026-03-22T09:07:40.227Z</time></trkpt><trkpt lat="43.5228067" lon="11.5227283"><ele>246.0</ele><time>2026-03-22T09:07:42.225Z</time></trkpt><trkpt lat="43.5227433" lon="11.522605"><ele>246.0</ele><time>2026-03-22T09:07:44.226Z</time></trkpt><trkpt lat="43.5226833" lon="11.5224683"><ele>246.0</ele><time>2026-03-22T09:07:46.226Z</time></trkpt><trkpt lat="43.52263" lon="11.5223433"><ele>246.00000000000003</ele><time>2026-03-22T09:07:48.225Z</time></trkpt><trkpt lat="43.522575" lon="11.52222"><ele>246.00000000000003</ele><time>2026-03-22T09:07:50.226Z</time></trkpt><trkpt lat="43.5225217" lon="11.5220933"><ele>246.0</ele><time>2026-03-22T09:07:52.227Z</time></trkpt><trkpt lat="43.5224633" lon="11.5219683"><ele>246.0</ele><time>2026-03-22T09:07:54.228Z</time></trkpt><trkpt lat="43.5224083" lon="11.5218383"><ele>246.0</ele><time>2026-03-22T09:07:56.228Z</time></trkpt><trkpt lat="43.522355" lon="11.521705"><ele>246.00000000000003</ele><time>2026-03-22T09:07:58.226Z</time></trkpt><trkpt lat="43.5223133" lon="11.5215633"><ele>246.00000000000003</ele><time>2026-03-22T09:08:00.225Z</time></trkpt><trkpt lat="43.5222867" lon="11.521415"><ele>246.0</ele><time>2026-03-22T09:08:02.225Z</time></trkpt><trkpt lat="43.5222617" lon="11.5212783"><ele>246.0</ele><time>2026-03-22T09:08:04.225Z</time></trkpt><trkpt lat="43.5222433" lon="11.5211383"><ele>246.8</ele><time>2026-03-22T09:08:06.227Z</time></trkpt><trkpt lat="43.5222233" lon="11.5209983"><ele>247.60000000000002</ele><time>2026-03-22T09:08:08.227Z</time></trkpt><trkpt lat="43.5222067" lon="11.52086"><ele>248.4</ele><time>2026-03-22T09:08:10.226Z</time></trkpt><trkpt lat="43.5221817" lon="11.5207283"><ele>249.2</ele><time>2026-03-22T09:08:12.226Z</time></trkpt><trkpt lat="43.52215" lon="11.5206"><ele>250.0</ele><time>2026-03-22T09:08:14.226Z</time></trkpt><trkpt lat="43.5221283" lon="11.52047"><ele>250.6</ele><time>2026-03-22T09:08:16.226Z</time></trkpt><trkpt lat="43.5221033" lon="11.52034"><ele>251.2</ele><time>2026-03-22T09:08:18.227Z</time></trkpt><trkpt lat="43.52208" lon="11.5202183"><ele>251.8</ele><time>2026-03-22T09:08:20.228Z</time></trkpt><trkpt lat="43.522055" lon="11.520095"><ele>252.4</ele><time>2026-03-22T09:08:22.226Z</time></trkpt><trkpt lat="43.522035" lon="11.5199683"><ele>253.0</ele><time>2026-03-22T09:08:24.229Z</time></trkpt><trkpt lat="43.5220183" lon="11.519835"><ele>253.0</ele><time>2026-03-22T09:08:26.226Z</time></trkpt><trkpt lat="43.5219967" lon="11.5197117"><ele>253.0</ele><time>2026-03-22T09:08:28.226Z</time></trkpt><trkpt lat="43.5219733" lon="11.5195917"><ele>253.0</ele><time>2026-03-22T09:08:30.227Z</time></trkpt><trkpt lat="43.5219517" lon="11.51946"><ele>253.0</ele><time>2026-03-22T09:08:32.227Z</time></trkpt><trkpt lat="43.521935" lon="11.5193233"><ele>253.0</ele><time>2026-03-22T09:08:34.227Z</time></trkpt><trkpt lat="43.5219083" lon="11.5191933"><ele>253.60000000000002</ele><time>2026-03-22T09:08:36.227Z</time></trkpt><trkpt lat="43.52188" lon="11.519055"><ele>254.20000000000002</ele><time>2026-03-22T09:08:38.229Z</time></trkpt><trkpt lat="43.521855" lon="11.5189133"><ele>254.8</ele><time>2026-03-22T09:08:40.228Z</time></trkpt><trkpt lat="43.5218383" lon="11.5187683"><ele>255.4</ele><time>2026-03-22T09:08:42.227Z</time></trkpt><trkpt lat="43.521815" lon="11.5186367"><ele>256.0</ele><time>2026-03-22T09:08:44.229Z</time></trkpt><trkpt lat="43.521795" lon="11.5184967"><ele>256.8</ele><time>2026-03-22T09:08:46.227Z</time></trkpt><trkpt lat="43.5217767" lon="11.518355"><ele>257.6</ele><time>2026-03-22T09:08:48.227Z</time></trkpt><trkpt lat="43.52176" lon="11.5182183"><ele>258.4</ele><time>2026-03-22T09:08:50.227Z</time></trkpt><trkpt lat="43.5217417" lon="11.5180883"><ele>259.2</ele><time>2026-03-22T09:08:52.226Z</time></trkpt><trkpt lat="43.5217167" lon="11.5179633"><ele>260.0</ele><time>2026-03-22T09:08:54.225Z</time></trkpt><trkpt lat="43.5216867" lon="11.5178417"><ele>260.6</ele><time>2026-03-22T09:08:56.226Z</time></trkpt><trkpt lat="43.52164" lon="11.5177267"><ele>261.2</ele><time>2026-03-22T09:08:58.224Z</time></trkpt><trkpt lat="43.52158" lon="11.51763"><ele>261.8</ele><time>2026-03-22T09:09:00.228Z</time></trkpt><trkpt lat="43.52151" lon="11.5175383"><ele>262.4</ele><time>2026-03-22T09:09:02.226Z</time></trkpt><trkpt lat="43.5214267" lon="11.5174667"><ele>263.0</ele><time>2026-03-22T09:09:04.226Z</time></trkpt><trkpt lat="43.5213367" lon="11.5174117"><ele>263.0</ele><time>2026-03-22T09:09:06.225Z</time></trkpt><trkpt lat="43.5212517" lon="11.5173733"><ele>263.0</ele><time>2026-03-22T09:09:08.225Z</time></trkpt><trkpt lat="43.521165" lon="11.5173517"><ele>263.0</ele><time>2026-03-22T09:09:10.225Z</time></trkpt><trkpt lat="43.5210717" lon="11.517335"><ele>263.0</ele><time>2026-03-22T09:09:12.227Z</time></trkpt><trkpt lat="43.5209817" lon="11.517325"><ele>263.0</ele><time>2026-03-22T09:09:14.227Z</time></trkpt><trkpt lat="43.5208767" lon="11.517315"><ele>263.2</ele><time>2026-03-22T09:09:16.224Z</time></trkpt><trkpt lat="43.520765" lon="11.5173083"><ele>263.4</ele><time>2026-03-22T09:09:18.226Z</time></trkpt><trkpt lat="43.5206633" lon="11.5172867"><ele>263.59999999999997</ele><time>2026-03-22T09:09:20.227Z</time></trkpt><trkpt lat="43.5205717" lon="11.517265"><ele>263.8</ele><time>2026-03-22T09:09:22.225Z</time></trkpt><trkpt lat="43.52047" lon="11.51725"><ele>264.0</ele><time>2026-03-22T09:09:24.226Z</time></trkpt><trkpt lat="43.5203617" lon="11.51724"><ele>264.0</ele><time>2026-03-22T09:09:26.225Z</time></trkpt><trkpt lat="43.5202567" lon="11.51722"><ele>264.0</ele><time>2026-03-22T09:09:28.225Z</time></trkpt><trkpt lat="43.52015" lon="11.5172067"><ele>264.0</ele><time>2026-03-22T09:09:30.226Z</time></trkpt><trkpt lat="43.5200417" lon="11.5172017"><ele>264.0</ele><time>2026-03-22T09:09:32.226Z</time></trkpt><trkpt lat="43.5199367" lon="11.5171867"><ele>264.0</ele><time>2026-03-22T09:09:34.225Z</time></trkpt><trkpt lat="43.5198283" lon="11.517165"><ele>264.0</ele><time>2026-03-22T09:09:36.225Z</time></trkpt><trkpt lat="43.5197183" lon="11.517155"><ele>264.0</ele><time>2026-03-22T09:09:38.225Z</time></trkpt><trkpt lat="43.5196033" lon="11.51714"><ele>264.0</ele><time>2026-03-22T09:09:40.226Z</time></trkpt><trkpt lat="43.5194883" lon="11.5171217"><ele>264.0</ele><time>2026-03-22T09:09:42.225Z</time></trkpt><trkpt lat="43.51937" lon="11.51709"><ele>264.6666666666667</ele><time>2026-03-22T09:09:44.226Z</time></trkpt><trkpt lat="43.5192517" lon="11.5170433"><ele>265.3333333333333</ele><time>2026-03-22T09:09:46.226Z</time></trkpt><trkpt lat="43.5191917" lon="11.5170133"><ele>266.0</ele><time>2026-03-22T09:09:47.225Z</time></trkpt><trkpt lat="43.51913" lon="11.5169733"><ele>266.66666666666663</ele><time>2026-03-22T09:09:48.224Z</time></trkpt><trkpt lat="43.51907" lon="11.51693"><ele>267.3333333333333</ele><time>2026-03-22T09:09:49.226Z</time></trkpt><trkpt lat="43.519015" lon="11.51688"><ele>268.0</ele><time>2026-03-22T09:09:50.225Z</time></trkpt><trkpt lat="43.518965" lon="11.5168233"><ele>268.0</ele><time>2026-03-22T09:09:51.225Z</time></trkpt><trkpt lat="43.518915" lon="11.5167633"><ele>268.0</ele><time>2026-03-22T09:09:52.224Z</time></trkpt><trkpt lat="43.5188667" lon="11.5166983"><ele>268.0</ele><time>2026-03-22T09:09:53.225Z</time></trkpt><trkpt lat="43.5188167" lon="11.516635"><ele>268.0</ele><time>2026-03-22T09:09:54.225Z</time></trkpt><trkpt lat="43.5187683" lon="11.5165667"><ele>268.0</ele><time>2026-03-22T09:09:55.226Z</time></trkpt><trkpt lat="43.5187217" lon="11.5164983"><ele>268.0</ele><time>2026-03-22T09:09:56.224Z</time></trkpt><trkpt lat="43.518675" lon="11.51643"><ele>268.0</ele><time>2026-03-22T09:09:57.226Z</time></trkpt><trkpt lat="43.5186267" lon="11.5163633"><ele>268.0</ele><time>2026-03-22T09:09:58.223Z</time></trkpt><trkpt lat="43.51858" lon="11.5162917"><ele>268.0</ele><time>2026-03-22T09:09:59.224Z</time></trkpt><trkpt lat="43.518535" lon="11.5162217"><ele>268.0</ele><time>2026-03-22T09:10:00.224Z</time></trkpt><trkpt lat="43.51849" lon="11.5161517"><ele>268.0</ele><time>2026-03-22T09:10:01.223Z</time></trkpt><trkpt lat="43.5184433" lon="11.5160783"><ele>268.0</ele><time>2026-03-22T09:10:02.223Z</time></trkpt><trkpt lat="43.5183983" lon="11.5160067"><ele>268.0</ele><time>2026-03-22T09:10:03.222Z</time></trkpt><trkpt lat="43.5183533" lon="11.5159317"><ele>268.0</ele><time>2026-03-22T09:10:04.222Z</time></trkpt><trkpt lat="43.51831" lon="11.515855"><ele>268.0</ele><time>2026-03-22T09:10:05.224Z</time></trkpt><trkpt lat="43.5182717" lon="11.51577"><ele>268.0</ele><time>2026-03-22T09:10:06.225Z</time></trkpt><trkpt lat="43.518235" lon="11.51569"><ele>268.0</ele><time>2026-03-22T09:10:07.226Z</time></trkpt><trkpt lat="43.5182" lon="11.5156083"><ele>268.0</ele><time>2026-03-22T09:10:08.225Z</time></trkpt><trkpt lat="43.5181683" lon="11.5155233"><ele>268.0</ele><time>2026-03-22T09:10:09.226Z</time></trkpt><trkpt lat="43.5181383" lon="11.515435"><ele>268.0</ele><time>2026-03-22T09:10:10.227Z</time></trkpt><trkpt lat="43.5181067" lon="11.515345"><ele>268.0</ele><time>2026-03-22T09:10:11.224Z</time></trkpt><trkpt lat="43.51808" lon="11.515255"><ele>268.2857142857143</ele><time>2026-03-22T09:10:12.226Z</time></trkpt><trkpt lat="43.518055" lon="11.5151667"><ele>268.57142857142856</ele><time>2026-03-22T09:10:13.225Z</time></trkpt><trkpt lat="43.5180317" lon="11.51508"><ele>268.85714285714283</ele><time>2026-03-22T09:10:14.225Z</time></trkpt><trkpt lat="43.5180117" lon="11.5149933"><ele>269.1428571428571</ele><time>2026-03-22T09:10:15.225Z</time></trkpt><trkpt lat="43.5179967" lon="11.5149017"><ele>269.4285714285714</ele><time>2026-03-22T09:10:16.226Z</time></trkpt><trkpt lat="43.5179833" lon="11.51481"><ele>269.7142857142857</ele><time>2026-03-22T09:10:17.226Z</time></trkpt><trkpt lat="43.5179733" lon="11.5147183"><ele>270.0</ele><time>2026-03-22T09:10:18.225Z</time></trkpt><trkpt lat="43.5179617" lon="11.514625"><ele>270.1428571428571</ele><time>2026-03-22T09:10:19.225Z</time></trkpt><trkpt lat="43.517955" lon="11.5145383"><ele>270.2857142857143</ele><time>2026-03-22T09:10:20.226Z</time></trkpt><trkpt lat="43.5179517" lon="11.5144483"><ele>270.42857142857144</ele><time>2026-03-22T09:10:21.225Z</time></trkpt><trkpt lat="43.5179467" lon="11.5143583"><ele>270.57142857142856</ele><time>2026-03-22T09:10:22.227Z</time></trkpt><trkpt lat="43.5179467" lon="11.5142667"><ele>270.7142857142857</ele><time>2026-03-22T09:10:23.226Z</time></trkpt><trkpt lat="43.5179467" lon="11.514175"><ele>270.85714285714283</ele><time>2026-03-22T09:10:24.226Z</time></trkpt><trkpt lat="43.5179483" lon="11.514085"><ele>271.0</ele><time>2026-03-22T09:10:25.226Z</time></trkpt><trkpt lat="43.5179483" lon="11.51392"><ele>271.0</ele><time>2026-03-22T09:10:27.226Z</time></trkpt><trkpt lat="43.51796" lon="11.513745"><ele>271.0</ele><time>2026-03-22T09:10:29.227Z</time></trkpt><trkpt lat="43.517965" lon="11.5136567"><ele>271.0</ele><time>2026-03-22T09:10:30.225Z</time></trkpt><trkpt lat="43.5179717" lon="11.51357"><ele>271.0</ele><time>2026-03-22T09:10:31.225Z</time></trkpt><trkpt lat="43.5179767" lon="11.5134817"><ele>271.0</ele><time>2026-03-22T09:10:32.226Z</time></trkpt><trkpt lat="43.517985" lon="11.5133917"><ele>271.0</ele><time>2026-03-22T09:10:33.225Z</time></trkpt><trkpt lat="43.5179933" lon="11.5133033"><ele>271.0</ele><time>2026-03-22T09:10:34.227Z</time></trkpt><trkpt lat="43.518" lon="11.5132133"><ele>271.0</ele><time>2026-03-22T09:10:35.224Z</time></trkpt><trkpt lat="43.51801" lon="11.5131167"><ele>271.0</ele><time>2026-03-22T09:10:36.226Z</time></trkpt><trkpt lat="43.518015" lon="11.5130267"><ele>271.0</ele><time>2026-03-22T09:10:37.225Z</time></trkpt><trkpt lat="43.518025" lon="11.5128567"><ele>271.0</ele><time>2026-03-22T09:10:39.226Z</time></trkpt><trkpt lat="43.5180283" lon="11.51277"><ele>271.0</ele><time>2026-03-22T09:10:40.225Z</time></trkpt><trkpt lat="43.5180333" lon="11.5126033"><ele>271.40000000000003</ele><time>2026-03-22T09:10:42.225Z</time></trkpt><trkpt lat="43.51803" lon="11.512445"><ele>271.8</ele><time>2026-03-22T09:10:44.225Z</time></trkpt><trkpt lat="43.5180233" lon="11.5123017"><ele>272.20000000000005</ele><time>2026-03-22T09:10:46.224Z</time></trkpt><trkpt lat="43.5180233" lon="11.5121533"><ele>272.6</ele><time>2026-03-22T09:10:48.225Z</time></trkpt><trkpt lat="43.51802" lon="11.5120017"><ele>273.0</ele><time>2026-03-22T09:10:50.226Z</time></trkpt><trkpt lat="43.5180117" lon="11.5118417"><ele>273.4</ele><time>2026-03-22T09:10:52.225Z</time></trkpt><trkpt lat="43.5179983" lon="11.5116867"><ele>273.8</ele><time>2026-03-22T09:10:54.225Z</time></trkpt><trkpt lat="43.51799" lon="11.5115367"><ele>274.2</ele><time>2026-03-22T09:10:56.226Z</time></trkpt><trkpt lat="43.5179867" lon="11.51139"><ele>274.6</ele><time>2026-03-22T09:10:58.225Z</time></trkpt><trkpt lat="43.5179767" lon="11.51125"><ele>275.0</ele><time>2026-03-22T09:11:00.226Z</time></trkpt><trkpt lat="43.51797" lon="11.5111083"><ele>275.0</ele><time>2026-03-22T09:11:02.226Z</time></trkpt><trkpt lat="43.5179617" lon="11.5109667"><ele>275.0</ele><time>2026-03-22T09:11:04.227Z</time></trkpt><trkpt lat="43.5179533" lon="11.51083"><ele>275.0</ele><time>2026-03-22T09:11:06.228Z</time></trkpt><trkpt lat="43.51794" lon="11.5107"><ele>275.0</ele><time>2026-03-22T09:11:08.226Z</time></trkpt><trkpt lat="43.5179333" lon="11.5105667"><ele>275.0</ele><time>2026-03-22T09:11:10.225Z</time></trkpt><trkpt lat="43.517925" lon="11.5104383"><ele>274.8</ele><time>2026-03-22T09:11:12.225Z</time></trkpt><trkpt lat="43.5179133" lon="11.5103067"><ele>274.6</ele><time>2026-03-22T09:11:14.226Z</time></trkpt><trkpt lat="43.51791" lon="11.5101683"><ele>274.4</ele><time>2026-03-22T09:11:16.225Z</time></trkpt><trkpt lat="43.5179" lon="11.5100333"><ele>274.2</ele><time>2026-03-22T09:11:18.225Z</time></trkpt><trkpt lat="43.5178833" lon="11.5099033"><ele>274.0</ele><time>2026-03-22T09:11:20.227Z</time></trkpt><trkpt lat="43.51786" lon="11.5097733"><ele>275.0</ele><time>2026-03-22T09:11:22.227Z</time></trkpt><trkpt lat="43.5178333" lon="11.50965"><ele>276.0</ele><time>2026-03-22T09:11:24.225Z</time></trkpt><trkpt lat="43.5178067" lon="11.5095283"><ele>277.0</ele><time>2026-03-22T09:11:26.228Z</time></trkpt><trkpt lat="43.5177683" lon="11.509405"><ele>278.0</ele><time>2026-03-22T09:11:28.225Z</time></trkpt><trkpt lat="43.5177233" lon="11.5092867"><ele>279.0</ele><time>2026-03-22T09:11:30.225Z</time></trkpt><trkpt lat="43.5176733" lon="11.509165"><ele>279.0</ele><time>2026-03-22T09:11:32.225Z</time></trkpt><trkpt lat="43.51763" lon="11.5090483"><ele>279.0</ele><time>2026-03-22T09:11:34.226Z</time></trkpt><trkpt lat="43.5175883" lon="11.5089217"><ele>279.0</ele><time>2026-03-22T09:11:36.225Z</time></trkpt><trkpt lat="43.5175483" lon="11.5087867"><ele>279.0</ele><time>2026-03-22T09:11:38.225Z</time></trkpt><trkpt lat="43.5175033" lon="11.50866"><ele>279.0</ele><time>2026-03-22T09:11:40.225Z</time></trkpt><trkpt lat="43.5174533" lon="11.5085417"><ele>278.8</ele><time>2026-03-22T09:11:42.225Z</time></trkpt><trkpt lat="43.517405" lon="11.5084217"><ele>278.59999999999997</ele><time>2026-03-22T09:11:44.226Z</time></trkpt><trkpt lat="43.5173567" lon="11.5083067"><ele>278.4</ele><time>2026-03-22T09:11:46.226Z</time></trkpt><trkpt lat="43.5173133" lon="11.50819"><ele>278.2</ele><time>2026-03-22T09:11:48.225Z</time></trkpt><trkpt lat="43.5172567" lon="11.50807"><ele>278.0</ele><time>2026-03-22T09:11:50.226Z</time></trkpt><trkpt lat="43.5171917" lon="11.5079583"><ele>279.2</ele><time>2026-03-22T09:11:52.225Z</time></trkpt><trkpt lat="43.5171283" lon="11.5078483"><ele>280.4</ele><time>2026-03-22T09:11:54.224Z</time></trkpt><trkpt lat="43.5170567" lon="11.50776"><ele>281.59999999999997</ele><time>2026-03-22T09:11:56.226Z</time></trkpt><trkpt lat="43.5169783" lon="11.5076683"><ele>282.8</ele><time>2026-03-22T09:11:58.225Z</time></trkpt><trkpt lat="43.5169067" lon="11.5075783"><ele>284.0</ele><time>2026-03-22T09:12:00.226Z</time></trkpt><trkpt lat="43.5168333" lon="11.5074867"><ele>284.4</ele><time>2026-03-22T09:12:02.228Z</time></trkpt><trkpt lat="43.5167617" lon="11.5073967"><ele>284.79999999999995</ele><time>2026-03-22T09:12:04.225Z</time></trkpt><trkpt lat="43.516695" lon="11.5072983"><ele>285.20000000000005</ele><time>2026-03-22T09:12:06.228Z</time></trkpt><trkpt lat="43.516635" lon="11.5071833"><ele>285.6</ele><time>2026-03-22T09:12:08.225Z</time></trkpt><trkpt lat="43.5165733" lon="11.5070667"><ele>286.0</ele><time>2026-03-22T09:12:10.225Z</time></trkpt><trkpt lat="43.5165233" lon="11.5069383"><ele>286.6</ele><time>2026-03-22T09:12:12.225Z</time></trkpt><trkpt lat="43.5164783" lon="11.506805"><ele>287.20000000000005</ele><time>2026-03-22T09:12:14.226Z</time></trkpt><trkpt lat="43.516435" lon="11.5066717"><ele>287.79999999999995</ele><time>2026-03-22T09:12:16.225Z</time></trkpt><trkpt lat="43.5163967" lon="11.5065383"><ele>288.4</ele><time>2026-03-22T09:12:18.225Z</time></trkpt><trkpt lat="43.51636" lon="11.5064033"><ele>289.0</ele><time>2026-03-22T09:12:20.225Z</time></trkpt><trkpt lat="43.5163217" lon="11.5062633"><ele>288.5</ele><time>2026-03-22T09:12:22.227Z</time></trkpt><trkpt lat="43.5162833" lon="11.5061183"><ele>288.0</ele><time>2026-03-22T09:12:24.225Z</time></trkpt><trkpt lat="43.5162517" lon="11.5059633"><ele>287.5</ele><time>2026-03-22T09:12:26.228Z</time></trkpt><trkpt lat="43.5162217" lon="11.5058117"><ele>287.0</ele><time>2026-03-22T09:12:28.225Z</time></trkpt><trkpt lat="43.5161917" lon="11.50566"><ele>287.0</ele><time>2026-03-22T09:12:30.226Z</time></trkpt><trkpt lat="43.5161633" lon="11.5055033"><ele>287.0</ele><time>2026-03-22T09:12:32.226Z</time></trkpt><trkpt lat="43.5161333" lon="11.5053467"><ele>287.0</ele><time>2026-03-22T09:12:34.227Z</time></trkpt><trkpt lat="43.51611" lon="11.5051883"><ele>287.0</ele><time>2026-03-22T09:12:36.226Z</time></trkpt><trkpt lat="43.5160917" lon="11.5050233"><ele>287.1666666666667</ele><time>2026-03-22T09:12:38.226Z</time></trkpt><trkpt lat="43.51608" lon="11.504855"><ele>287.33333333333337</ele><time>2026-03-22T09:12:40.225Z</time></trkpt><trkpt lat="43.51608" lon="11.504765"><ele>287.5</ele><time>2026-03-22T09:12:41.224Z</time></trkpt><trkpt lat="43.5160833" lon="11.504675"><ele>287.6666666666667</ele><time>2026-03-22T09:12:42.225Z</time></trkpt><trkpt lat="43.5160983" lon="11.5045867"><ele>287.8333333333333</ele><time>2026-03-22T09:12:43.225Z</time></trkpt><trkpt lat="43.5161183" lon="11.5044967"><ele>288.0</ele><time>2026-03-22T09:12:44.226Z</time></trkpt><trkpt lat="43.5161433" lon="11.5044083"><ele>288.00000000000006</ele><time>2026-03-22T09:12:45.225Z</time></trkpt><trkpt lat="43.5161733" lon="11.5043233"><ele>288.0</ele><time>2026-03-22T09:12:46.225Z</time></trkpt><trkpt lat="43.5162117" lon="11.5042433"><ele>288.0</ele><time>2026-03-22T09:12:47.224Z</time></trkpt><trkpt lat="43.5162533" lon="11.5041733"><ele>288.0</ele><time>2026-03-22T09:12:48.225Z</time></trkpt><trkpt lat="43.5163" lon="11.504105"><ele>288.0</ele><time>2026-03-22T09:12:49.225Z</time></trkpt><trkpt lat="43.5163533" lon="11.5040417"><ele>288.00000000000006</ele><time>2026-03-22T09:12:50.225Z</time></trkpt><trkpt lat="43.5164033" lon="11.5039867"><ele>288.0</ele><time>2026-03-22T09:12:51.226Z</time></trkpt><trkpt lat="43.5164617" lon="11.5039367"><ele>288.28571428571433</ele><time>2026-03-22T09:12:52.225Z</time></trkpt><trkpt lat="43.51652" lon="11.5038933"><ele>288.57142857142856</ele><time>2026-03-22T09:12:53.226Z</time></trkpt><trkpt lat="43.5165783" lon="11.5038567"><ele>288.8571428571429</ele><time>2026-03-22T09:12:54.225Z</time></trkpt><trkpt lat="43.5166383" lon="11.5038183"><ele>289.14285714285717</ele><time>2026-03-22T09:12:55.227Z</time></trkpt><trkpt lat="43.5166983" lon="11.50378"><ele>289.42857142857144</ele><time>2026-03-22T09:12:56.226Z</time></trkpt><trkpt lat="43.5167617" lon="11.50374"><ele>289.7142857142857</ele><time>2026-03-22T09:12:57.225Z</time></trkpt><trkpt lat="43.516825" lon="11.5037"><ele>290.0</ele><time>2026-03-22T09:12:58.225Z</time></trkpt><trkpt lat="43.5168883" lon="11.5036617"><ele>290.0</ele><time>2026-03-22T09:12:59.226Z</time></trkpt><trkpt lat="43.5169483" lon="11.5036217"><ele>290.0</ele><time>2026-03-22T09:13:00.225Z</time></trkpt><trkpt lat="43.5170067" lon="11.5035817"><ele>290.0</ele><time>2026-03-22T09:13:01.226Z</time></trkpt><trkpt lat="43.5170667" lon="11.5035417"><ele>290.0</ele><time>2026-03-22T09:13:02.226Z</time></trkpt><trkpt lat="43.5171317" lon="11.5035017"><ele>290.0</ele><time>2026-03-22T09:13:03.225Z</time></trkpt><trkpt lat="43.517195" lon="11.5034617"><ele>290.0</ele><time>2026-03-22T09:13:04.228Z</time></trkpt><trkpt lat="43.5172567" lon="11.5034217"><ele>290.0</ele><time>2026-03-22T09:13:05.226Z</time></trkpt><trkpt lat="43.51732" lon="11.5033817"><ele>290.7142857142857</ele><time>2026-03-22T09:13:06.227Z</time></trkpt><trkpt lat="43.5173817" lon="11.5033367"><ele>291.42857142857144</ele><time>2026-03-22T09:13:07.227Z</time></trkpt><trkpt lat="43.5174467" lon="11.503295"><ele>292.14285714285717</ele><time>2026-03-22T09:13:08.225Z</time></trkpt><trkpt lat="43.51751" lon="11.503255"><ele>292.8571428571429</ele><time>2026-03-22T09:13:09.227Z</time></trkpt><trkpt lat="43.5175733" lon="11.5032167"><ele>293.57142857142856</ele><time>2026-03-22T09:13:10.226Z</time></trkpt><trkpt lat="43.5176383" lon="11.5031767"><ele>294.28571428571433</ele><time>2026-03-22T09:13:11.226Z</time></trkpt><trkpt lat="43.5177033" lon="11.5031383"><ele>295.0</ele><time>2026-03-22T09:13:12.225Z</time></trkpt><trkpt lat="43.51777" lon="11.5030967"><ele>295.00000000000006</ele><time>2026-03-22T09:13:13.225Z</time></trkpt><trkpt lat="43.517835" lon="11.5030583"><ele>295.0</ele><time>2026-03-22T09:13:14.227Z</time></trkpt><trkpt lat="43.5179017" lon="11.50302"><ele>295.0</ele><time>2026-03-22T09:13:15.23Z</time></trkpt><trkpt lat="43.5179667" lon="11.5029783"><ele>295.0</ele><time>2026-03-22T09:13:16.226Z</time></trkpt><trkpt lat="43.5180283" lon="11.5029317"><ele>295.0</ele><time>2026-03-22T09:13:17.226Z</time></trkpt><trkpt lat="43.5180883" lon="11.50288"><ele>295.00000000000006</ele><time>2026-03-22T09:13:18.225Z</time></trkpt><trkpt lat="43.5181433" lon="11.5028233"><ele>295.0</ele><time>2026-03-22T09:13:19.228Z</time></trkpt><trkpt lat="43.5181933" lon="11.50276"><ele>295.00000000000006</ele><time>2026-03-22T09:13:20.225Z</time></trkpt><trkpt lat="43.5182433" lon="11.5026933"><ele>295.0</ele><time>2026-03-22T09:13:21.225Z</time></trkpt><trkpt lat="43.5183" lon="11.5026283"><ele>295.0</ele><time>2026-03-22T09:13:22.226Z</time></trkpt><trkpt lat="43.5183583" lon="11.5025783"><ele>295.0</ele><time>2026-03-22T09:13:23.226Z</time></trkpt><trkpt lat="43.5184183" lon="11.5025383"><ele>295.0</ele><time>2026-03-22T09:13:24.225Z</time></trkpt><trkpt lat="43.5184783" lon="11.5025033"><ele>295.00000000000006</ele><time>2026-03-22T09:13:25.226Z</time></trkpt><trkpt lat="43.5185383" lon="11.502465"><ele>295.0</ele><time>2026-03-22T09:13:26.225Z</time></trkpt><trkpt lat="43.5185933" lon="11.50242"><ele>295.0</ele><time>2026-03-22T09:13:27.226Z</time></trkpt><trkpt lat="43.5186633" lon="11.5022933"><ele>295.0</ele><time>2026-03-22T09:13:29.228Z</time></trkpt><trkpt lat="43.5186667" lon="11.5021217"><ele>295.0</ele><time>2026-03-22T09:13:31.226Z</time></trkpt><trkpt lat="43.51863" lon="11.5019583"><ele>295.0</ele><time>2026-03-22T09:13:33.225Z</time></trkpt><trkpt lat="43.51858" lon="11.5018"><ele>295.5</ele><time>2026-03-22T09:13:35.226Z</time></trkpt><trkpt lat="43.5185433" lon="11.501635"><ele>296.0</ele><time>2026-03-22T09:13:37.226Z</time></trkpt><trkpt lat="43.5185233" lon="11.501475"><ele>296.5</ele><time>2026-03-22T09:13:39.225Z</time></trkpt><trkpt lat="43.518495" lon="11.50132"><ele>297.0</ele><time>2026-03-22T09:13:41.225Z</time></trkpt><trkpt lat="43.5184567" lon="11.5011683"><ele>297.8</ele><time>2026-03-22T09:13:43.225Z</time></trkpt><trkpt lat="43.518425" lon="11.5010317"><ele>298.6</ele><time>2026-03-22T09:13:45.225Z</time></trkpt><trkpt lat="43.5183917" lon="11.5009017"><ele>299.40000000000003</ele><time>2026-03-22T09:13:47.227Z</time></trkpt><trkpt lat="43.5183517" lon="11.5007633"><ele>300.2</ele><time>2026-03-22T09:13:49.225Z</time></trkpt><trkpt lat="43.51831" lon="11.500635"><ele>301.0</ele><time>2026-03-22T09:13:51.225Z</time></trkpt><trkpt lat="43.5182633" lon="11.500525"><ele>301.0</ele><time>2026-03-22T09:13:53.224Z</time></trkpt><trkpt lat="43.5182167" lon="11.5004183"><ele>301.0</ele><time>2026-03-22T09:13:55.224Z</time></trkpt><trkpt lat="43.51816" lon="11.5002917"><ele>301.0</ele><time>2026-03-22T09:13:57.225Z</time></trkpt><trkpt lat="43.51812" lon="11.500165"><ele>301.0</ele><time>2026-03-22T09:13:59.225Z</time></trkpt><trkpt lat="43.518075" lon="11.5000567"><ele>301.0</ele><time>2026-03-22T09:14:01.226Z</time></trkpt><trkpt lat="43.5180383" lon="11.4999467"><ele>300.66666666666663</ele><time>2026-03-22T09:14:03.225Z</time></trkpt><trkpt lat="43.5180067" lon="11.4998317"><ele>300.3333333333333</ele><time>2026-03-22T09:14:05.224Z</time></trkpt><trkpt lat="43.51797" lon="11.4997167"><ele>300.0</ele><time>2026-03-22T09:14:07.225Z</time></trkpt><trkpt lat="43.51793" lon="11.4996167"><ele>299.6666666666667</ele><time>2026-03-22T09:14:09.224Z</time></trkpt><trkpt lat="43.5178883" lon="11.4995183"><ele>299.33333333333337</ele><time>2026-03-22T09:14:11.226Z</time></trkpt><trkpt lat="43.5178483" lon="11.499415"><ele>299.0</ele><time>2026-03-22T09:14:13.226Z</time></trkpt><trkpt lat="43.5178083" lon="11.4993133"><ele>300.1666666666667</ele><time>2026-03-22T09:14:15.225Z</time></trkpt><trkpt lat="43.5177767" lon="11.4992"><ele>301.33333333333337</ele><time>2026-03-22T09:14:17.225Z</time></trkpt><trkpt lat="43.517755" lon="11.499085"><ele>302.5</ele><time>2026-03-22T09:14:19.225Z</time></trkpt><trkpt lat="43.5177417" lon="11.4989667"><ele>303.6666666666667</ele><time>2026-03-22T09:14:21.224Z</time></trkpt><trkpt lat="43.517735" lon="11.4988533"><ele>304.8333333333333</ele><time>2026-03-22T09:14:23.225Z</time></trkpt><trkpt lat="43.5177333" lon="11.4987417"><ele>306.0</ele><time>2026-03-22T09:14:25.226Z</time></trkpt><trkpt lat="43.5177383" lon="11.498635"><ele>306.1666666666667</ele><time>2026-03-22T09:14:27.227Z</time></trkpt><trkpt lat="43.51775" lon="11.49852"><ele>306.3333333333333</ele><time>2026-03-22T09:14:29.227Z</time></trkpt><trkpt lat="43.5177583" lon="11.4983983"><ele>306.5</ele><time>2026-03-22T09:14:31.225Z</time></trkpt><trkpt lat="43.51776" lon="11.498295"><ele>306.66666666666663</ele><time>2026-03-22T09:14:33.225Z</time></trkpt><trkpt lat="43.5177667" lon="11.4981867"><ele>306.8333333333333</ele><time>2026-03-22T09:14:35.225Z</time></trkpt><trkpt lat="43.51777" lon="11.4980817"><ele>307.0</ele><time>2026-03-22T09:14:37.228Z</time></trkpt><trkpt lat="43.5177733" lon="11.4979717"><ele>307.3333333333333</ele><time>2026-03-22T09:14:39.227Z</time></trkpt><trkpt lat="43.51778" lon="11.4978617"><ele>307.66666666666663</ele><time>2026-03-22T09:14:41.225Z</time></trkpt><trkpt lat="43.517785" lon="11.4977533"><ele>308.0</ele><time>2026-03-22T09:14:43.225Z</time></trkpt><trkpt lat="43.51779" lon="11.4976417"><ele>308.3333333333333</ele><time>2026-03-22T09:14:45.225Z</time></trkpt><trkpt lat="43.51779" lon="11.4975317"><ele>308.6666666666667</ele><time>2026-03-22T09:14:47.226Z</time></trkpt><trkpt lat="43.51779" lon="11.49742"><ele>309.0</ele><time>2026-03-22T09:14:49.225Z</time></trkpt><trkpt lat="43.517785" lon="11.4973033"><ele>309.0</ele><time>2026-03-22T09:14:51.225Z</time></trkpt><trkpt lat="43.517765" lon="11.497195"><ele>309.0</ele><time>2026-03-22T09:14:53.225Z</time></trkpt><trkpt lat="43.5177383" lon="11.4970917"><ele>309.0</ele><time>2026-03-22T09:14:55.226Z</time></trkpt><trkpt lat="43.517705" lon="11.4969917"><ele>309.0</ele><time>2026-03-22T09:14:57.226Z</time></trkpt><trkpt lat="43.5176667" lon="11.4968933"><ele>309.0</ele><time>2026-03-22T09:14:59.225Z</time></trkpt><trkpt lat="43.5176267" lon="11.4967883"><ele>309.0</ele><time>2026-03-22T09:15:01.227Z</time></trkpt><trkpt lat="43.5175817" lon="11.4966867"><ele>310.0</ele><time>2026-03-22T09:15:03.225Z</time></trkpt><trkpt lat="43.5175383" lon="11.4965817"><ele>311.0</ele><time>2026-03-22T09:15:05.226Z</time></trkpt><trkpt lat="43.5174917" lon="11.4964867"><ele>312.0</ele><time>2026-03-22T09:15:07.225Z</time></trkpt><trkpt lat="43.5174467" lon="11.4963933"><ele>313.0</ele><time>2026-03-22T09:15:09.225Z</time></trkpt><trkpt lat="43.5174033" lon="11.4962933"><ele>314.0</ele><time>2026-03-22T09:15:11.225Z</time></trkpt><trkpt lat="43.5173667" lon="11.4961817"><ele>315.0</ele><time>2026-03-22T09:15:13.227Z</time></trkpt><trkpt lat="43.51734" lon="11.4960683"><ele>316.2</ele><time>2026-03-22T09:15:15.224Z</time></trkpt><trkpt lat="43.5173217" lon="11.4959583"><ele>317.4</ele><time>2026-03-22T09:15:17.225Z</time></trkpt><trkpt lat="43.517305" lon="11.49584"><ele>318.6</ele><time>2026-03-22T09:15:19.225Z</time></trkpt><trkpt lat="43.517315" lon="11.4957017"><ele>319.8</ele><time>2026-03-22T09:15:21.225Z</time></trkpt><trkpt lat="43.5173383" lon="11.495575"><ele>321.0</ele><time>2026-03-22T09:15:23.226Z</time></trkpt><trkpt lat="43.5173533" lon="11.4954517"><ele>321.8333333333333</ele><time>2026-03-22T09:15:25.224Z</time></trkpt><trkpt lat="43.5173617" lon="11.4953367"><ele>322.6666666666667</ele><time>2026-03-22T09:15:27.228Z</time></trkpt><trkpt lat="43.5173567" lon="11.4952233"><ele>323.5</ele><time>2026-03-22T09:15:29.225Z</time></trkpt><trkpt lat="43.5173483" lon="11.4951033"><ele>324.33333333333337</ele><time>2026-03-22T09:15:31.225Z</time></trkpt><trkpt lat="43.5173283" lon="11.494985"><ele>325.1666666666667</ele><time>2026-03-22T09:15:33.227Z</time></trkpt><trkpt lat="43.5172983" lon="11.4948683"><ele>326.0</ele><time>2026-03-22T09:15:35.227Z</time></trkpt><trkpt lat="43.5172667" lon="11.4947617"><ele>326.0</ele><time>2026-03-22T09:15:37.223Z</time></trkpt><trkpt lat="43.5172183" lon="11.4946733"><ele>326.0</ele><time>2026-03-22T09:15:39.225Z</time></trkpt><trkpt lat="43.5171667" lon="11.4945783"><ele>326.0</ele><time>2026-03-22T09:15:41.225Z</time></trkpt><trkpt lat="43.5171083" lon="11.4944883"><ele>326.0</ele><time>2026-03-22T09:15:43.226Z</time></trkpt><trkpt lat="43.5170433" lon="11.4944067"><ele>326.0</ele><time>2026-03-22T09:15:45.226Z</time></trkpt><trkpt lat="43.51697" lon="11.4943367"><ele>326.0</ele><time>2026-03-22T09:15:47.224Z</time></trkpt><trkpt lat="43.51689" lon="11.4942817"><ele>326.20000000000005</ele><time>2026-03-22T09:15:49.226Z</time></trkpt><trkpt lat="43.5168033" lon="11.4942317"><ele>326.40000000000003</ele><time>2026-03-22T09:15:51.224Z</time></trkpt><trkpt lat="43.5167183" lon="11.4942033"><ele>326.6</ele><time>2026-03-22T09:15:53.227Z</time></trkpt><trkpt lat="43.5166267" lon="11.4941767"><ele>326.8</ele><time>2026-03-22T09:15:55.225Z</time></trkpt><trkpt lat="43.5165333" lon="11.4941483"><ele>327.0</ele><time>2026-03-22T09:15:57.225Z</time></trkpt><trkpt lat="43.51644" lon="11.49413"><ele>327.0</ele><time>2026-03-22T09:15:59.226Z</time></trkpt><trkpt lat="43.51635" lon="11.4941117"><ele>327.0</ele><time>2026-03-22T09:16:01.228Z</time></trkpt><trkpt lat="43.5162583" lon="11.4940883"><ele>327.0</ele><time>2026-03-22T09:16:03.226Z</time></trkpt><trkpt lat="43.5161717" lon="11.4940783"><ele>327.0</ele><time>2026-03-22T09:16:05.228Z</time></trkpt><trkpt lat="43.5160817" lon="11.49406"><ele>327.0</ele><time>2026-03-22T09:16:07.226Z</time></trkpt><trkpt lat="43.5159933" lon="11.49405"><ele>327.0</ele><time>2026-03-22T09:16:09.225Z</time></trkpt><trkpt lat="43.5159033" lon="11.4940267"><ele>327.0</ele><time>2026-03-22T09:16:11.226Z</time></trkpt><trkpt lat="43.5158083" lon="11.4939867"><ele>327.0</ele><time>2026-03-22T09:16:13.227Z</time></trkpt><trkpt lat="43.5157283" lon="11.4939083"><ele>327.0</ele><time>2026-03-22T09:16:15.226Z</time></trkpt><trkpt lat="43.5156683" lon="11.4938117"><ele>327.0</ele><time>2026-03-22T09:16:17.227Z</time></trkpt><trkpt lat="43.51562" lon="11.49371"><ele>328.20000000000005</ele><time>2026-03-22T09:16:19.225Z</time></trkpt><trkpt lat="43.5155917" lon="11.4935867"><ele>329.4</ele><time>2026-03-22T09:16:21.225Z</time></trkpt><trkpt lat="43.5155683" lon="11.493465"><ele>330.6</ele><time>2026-03-22T09:16:23.224Z</time></trkpt><trkpt lat="43.51555" lon="11.49334"><ele>331.79999999999995</ele><time>2026-03-22T09:16:25.226Z</time></trkpt><trkpt lat="43.5155367" lon="11.49321"><ele>333.0</ele><time>2026-03-22T09:16:27.226Z</time></trkpt><trkpt lat="43.51552" lon="11.493085"><ele>333.0</ele><time>2026-03-22T09:16:29.224Z</time></trkpt><trkpt lat="43.5155" lon="11.4929717"><ele>333.0</ele><time>2026-03-22T09:16:31.224Z</time></trkpt><trkpt lat="43.5154817" lon="11.4928633"><ele>333.0</ele><time>2026-03-22T09:16:33.224Z</time></trkpt><trkpt lat="43.5154683" lon="11.492755"><ele>333.0</ele><time>2026-03-22T09:16:35.225Z</time></trkpt><trkpt lat="43.51546" lon="11.492645"><ele>333.0</ele><time>2026-03-22T09:16:37.227Z</time></trkpt><trkpt lat="43.5154483" lon="11.492535"><ele>333.0</ele><time>2026-03-22T09:16:39.227Z</time></trkpt><trkpt lat="43.5154383" lon="11.4924233"><ele>334.1666666666667</ele><time>2026-03-22T09:16:41.225Z</time></trkpt><trkpt lat="43.515435" lon="11.4923033"><ele>335.3333333333333</ele><time>2026-03-22T09:16:43.225Z</time></trkpt><trkpt lat="43.5154333" lon="11.4921933"><ele>336.5</ele><time>2026-03-22T09:16:45.225Z</time></trkpt><trkpt lat="43.5154367" lon="11.4920817"><ele>337.66666666666663</ele><time>2026-03-22T09:16:47.225Z</time></trkpt><trkpt lat="43.515435" lon="11.491965"><ele>338.8333333333333</ele><time>2026-03-22T09:16:49.227Z</time></trkpt><trkpt lat="43.5154333" lon="11.491845"><ele>340.0</ele><time>2026-03-22T09:16:51.225Z</time></trkpt><trkpt lat="43.5154333" lon="11.4917317"><ele>340.0</ele><time>2026-03-22T09:16:53.227Z</time></trkpt><trkpt lat="43.51543" lon="11.491615"><ele>340.0</ele><time>2026-03-22T09:16:55.225Z</time></trkpt><trkpt lat="43.51542" lon="11.4914933"><ele>340.0</ele><time>2026-03-22T09:16:57.225Z</time></trkpt><trkpt lat="43.515395" lon="11.4913817"><ele>340.0</ele><time>2026-03-22T09:16:59.224Z</time></trkpt><trkpt lat="43.51537" lon="11.4912817"><ele>340.0</ele><time>2026-03-22T09:17:01.226Z</time></trkpt><trkpt lat="43.5153367" lon="11.4911767"><ele>340.0</ele><time>2026-03-22T09:17:03.225Z</time></trkpt><trkpt lat="43.5153" lon="11.491075"><ele>340.0</ele><time>2026-03-22T09:17:05.225Z</time></trkpt><trkpt lat="43.515255" lon="11.4909683"><ele>340.0</ele><time>2026-03-22T09:17:07.224Z</time></trkpt><trkpt lat="43.515205" lon="11.49087"><ele>340.0</ele><time>2026-03-22T09:17:09.224Z</time></trkpt><trkpt lat="43.515145" lon="11.4907917"><ele>340.0</ele><time>2026-03-22T09:17:11.223Z</time></trkpt><trkpt lat="43.5150917" lon="11.490695"><ele>340.0</ele><time>2026-03-22T09:17:13.226Z</time></trkpt><trkpt lat="43.5150367" lon="11.4906017"><ele>340.0</ele><time>2026-03-22T09:17:15.225Z</time></trkpt><trkpt lat="43.5149867" lon="11.4905133"><ele>340.0</ele><time>2026-03-22T09:17:17.225Z</time></trkpt><trkpt lat="43.514935" lon="11.4904417"><ele>340.0</ele><time>2026-03-22T09:17:19.225Z</time></trkpt><trkpt lat="43.5148967" lon="11.49036"><ele>340.0</ele><time>2026-03-22T09:17:21.226Z</time></trkpt><trkpt lat="43.5148583" lon="11.49026"><ele>340.0</ele><time>2026-03-22T09:17:23.224Z</time></trkpt><trkpt lat="43.5148333" lon="11.49015"><ele>340.0</ele><time>2026-03-22T09:17:25.225Z</time></trkpt><trkpt lat="43.514815" lon="11.4900383"><ele>340.0</ele><time>2026-03-22T09:17:27.225Z</time></trkpt><trkpt lat="43.5148067" lon="11.489915"><ele>341.3333333333333</ele><time>2026-03-22T09:17:29.224Z</time></trkpt><trkpt lat="43.5148067" lon="11.48979"><ele>342.66666666666663</ele><time>2026-03-22T09:17:31.224Z</time></trkpt><trkpt lat="43.5148083" lon="11.4896683"><ele>344.0</ele><time>2026-03-22T09:17:33.226Z</time></trkpt><trkpt lat="43.5148117" lon="11.4895417"><ele>345.3333333333333</ele><time>2026-03-22T09:17:35.225Z</time></trkpt><trkpt lat="43.5148133" lon="11.48942"><ele>346.6666666666667</ele><time>2026-03-22T09:17:37.223Z</time></trkpt><trkpt lat="43.5148217" lon="11.4893033"><ele>348.0</ele><time>2026-03-22T09:17:39.224Z</time></trkpt><trkpt lat="43.5148283" lon="11.4891917"><ele>348.5</ele><time>2026-03-22T09:17:41.225Z</time></trkpt><trkpt lat="43.5148483" lon="11.489075"><ele>349.0</ele><time>2026-03-22T09:17:43.225Z</time></trkpt><trkpt lat="43.5148717" lon="11.4889617"><ele>349.5</ele><time>2026-03-22T09:17:45.224Z</time></trkpt><trkpt lat="43.5148933" lon="11.48885"><ele>350.0</ele><time>2026-03-22T09:17:47.227Z</time></trkpt><trkpt lat="43.5149033" lon="11.4887383"><ele>350.5</ele><time>2026-03-22T09:17:49.224Z</time></trkpt><trkpt lat="43.514905" lon="11.4886117"><ele>351.0</ele><time>2026-03-22T09:17:51.224Z</time></trkpt><trkpt lat="43.5149017" lon="11.4884883"><ele>351.4</ele><time>2026-03-22T09:17:53.224Z</time></trkpt><trkpt lat="43.5148817" lon="11.4883633"><ele>351.8</ele><time>2026-03-22T09:17:55.224Z</time></trkpt><trkpt lat="43.5148633" lon="11.488235"><ele>352.2</ele><time>2026-03-22T09:17:57.226Z</time></trkpt><trkpt lat="43.5148267" lon="11.4881117"><ele>352.59999999999997</ele><time>2026-03-22T09:17:59.225Z</time></trkpt><trkpt lat="43.5147967" lon="11.4879867"><ele>353.0</ele><time>2026-03-22T09:18:01.226Z</time></trkpt><trkpt lat="43.5147667" lon="11.4878633"><ele>353.0</ele><time>2026-03-22T09:18:03.225Z</time></trkpt><trkpt lat="43.514755" lon="11.4877367"><ele>353.0</ele><time>2026-03-22T09:18:05.225Z</time></trkpt><trkpt lat="43.5147583" lon="11.4876133"><ele>353.0</ele><time>2026-03-22T09:18:07.223Z</time></trkpt><trkpt lat="43.5147783" lon="11.4874867"><ele>353.0</ele><time>2026-03-22T09:18:09.226Z</time></trkpt><trkpt lat="43.5148067" lon="11.4873567"><ele>353.0</ele><time>2026-03-22T09:18:11.225Z</time></trkpt><trkpt lat="43.5148283" lon="11.4872333"><ele>353.0</ele><time>2026-03-22T09:18:13.225Z</time></trkpt><trkpt lat="43.514855" lon="11.4871067"><ele>353.0</ele><time>2026-03-22T09:18:15.225Z</time></trkpt><trkpt lat="43.5148783" lon="11.4869783"><ele>353.0</ele><time>2026-03-22T09:18:17.226Z</time></trkpt><trkpt lat="43.5149" lon="11.4868483"><ele>353.0</ele><time>2026-03-22T09:18:19.226Z</time></trkpt><trkpt lat="43.514925" lon="11.4867117"><ele>353.0</ele><time>2026-03-22T09:18:21.225Z</time></trkpt><trkpt lat="43.514935" lon="11.4865833"><ele>353.1666666666667</ele><time>2026-03-22T09:18:23.226Z</time></trkpt><trkpt lat="43.5149267" lon="11.48646"><ele>353.33333333333337</ele><time>2026-03-22T09:18:25.224Z</time></trkpt><trkpt lat="43.5149033" lon="11.4863467"><ele>353.5</ele><time>2026-03-22T09:18:27.224Z</time></trkpt><trkpt lat="43.5148717" lon="11.486235"><ele>353.6666666666667</ele><time>2026-03-22T09:18:29.225Z</time></trkpt><trkpt lat="43.5148383" lon="11.4861267"><ele>353.8333333333333</ele><time>2026-03-22T09:18:31.224Z</time></trkpt><trkpt lat="43.5148067" lon="11.48603"><ele>354.0</ele><time>2026-03-22T09:18:33.221Z</time></trkpt><trkpt lat="43.5147617" lon="11.485935"><ele>354.0</ele><time>2026-03-22T09:18:35.225Z</time></trkpt><trkpt lat="43.5147083" lon="11.485855"><ele>354.0</ele><time>2026-03-22T09:18:37.224Z</time></trkpt><trkpt lat="43.514655" lon="11.4857817"><ele>354.0</ele><time>2026-03-22T09:18:39.224Z</time></trkpt><trkpt lat="43.5145983" lon="11.4857017"><ele>354.0</ele><time>2026-03-22T09:18:41.227Z</time></trkpt><trkpt lat="43.5145417" lon="11.48563"><ele>354.0</ele><time>2026-03-22T09:18:43.226Z</time></trkpt><trkpt lat="43.5144867" lon="11.4855733"><ele>354.0</ele><time>2026-03-22T09:18:45.225Z</time></trkpt><trkpt lat="43.51444" lon="11.4855033"><ele>354.0</ele><time>2026-03-22T09:18:47.226Z</time></trkpt><trkpt lat="43.514385" lon="11.4854433"><ele>354.0</ele><time>2026-03-22T09:18:49.226Z</time></trkpt><trkpt lat="43.5143417" lon="11.485365"><ele>354.0</ele><time>2026-03-22T09:18:51.223Z</time></trkpt><trkpt lat="43.5143033" lon="11.48527"><ele>354.0</ele><time>2026-03-22T09:18:53.223Z</time></trkpt><trkpt lat="43.5142883" lon="11.48517"><ele>354.0</ele><time>2026-03-22T09:18:55.224Z</time></trkpt><trkpt lat="43.5142817" lon="11.4850617"><ele>354.0</ele><time>2026-03-22T09:18:57.226Z</time></trkpt><trkpt lat="43.51428" lon="11.4849567"><ele>354.0</ele><time>2026-03-22T09:18:59.224Z</time></trkpt><trkpt lat="43.51427" lon="11.4848617"><ele>355.5714285714286</ele><time>2026-03-22T09:19:01.224Z</time></trkpt><trkpt lat="43.5142533" lon="11.484775"><ele>357.1428571428571</ele><time>2026-03-22T09:19:03.226Z</time></trkpt><trkpt lat="43.5142417" lon="11.4846883"><ele>358.7142857142857</ele><time>2026-03-22T09:19:05.224Z</time></trkpt><trkpt lat="43.514215" lon="11.4845717"><ele>360.28571428571433</ele><time>2026-03-22T09:19:08.226Z</time></trkpt><trkpt lat="43.5141983" lon="11.4844817"><ele>361.8571428571429</ele><time>2026-03-22T09:19:10.226Z</time></trkpt><trkpt lat="43.5141867" lon="11.48438"><ele>363.42857142857144</ele><time>2026-03-22T09:19:12.224Z</time></trkpt><trkpt lat="43.5141633" lon="11.4842883"><ele>365.0</ele><time>2026-03-22T09:19:14.226Z</time></trkpt><trkpt lat="43.5141333" lon="11.4842067"><ele>365.00000000000006</ele><time>2026-03-22T09:19:16.225Z</time></trkpt><trkpt lat="43.5140983" lon="11.4841267"><ele>365.0</ele><time>2026-03-22T09:19:18.225Z</time></trkpt><trkpt lat="43.5140567" lon="11.48405"><ele>365.0</ele><time>2026-03-22T09:19:20.227Z</time></trkpt><trkpt lat="43.514015" lon="11.4839683"><ele>365.0</ele><time>2026-03-22T09:19:22.225Z</time></trkpt><trkpt lat="43.5139767" lon="11.4838883"><ele>365.0</ele><time>2026-03-22T09:19:24.224Z</time></trkpt><trkpt lat="43.5139383" lon="11.4838133"><ele>365.00000000000006</ele><time>2026-03-22T09:19:26.226Z</time></trkpt><trkpt lat="43.5138933" lon="11.483735"><ele>365.0</ele><time>2026-03-22T09:19:28.224Z</time></trkpt><trkpt lat="43.5138483" lon="11.483655"><ele>365.00000000000006</ele><time>2026-03-22T09:19:30.227Z</time></trkpt><trkpt lat="43.5138033" lon="11.4835767"><ele>365.0</ele><time>2026-03-22T09:19:32.225Z</time></trkpt><trkpt lat="43.5137583" lon="11.4834917"><ele>365.0</ele><time>2026-03-22T09:19:34.224Z</time></trkpt><trkpt lat="43.5137133" lon="11.4834183"><ele>365.0</ele><time>2026-03-22T09:19:36.224Z</time></trkpt><trkpt lat="43.51367" lon="11.4833483"><ele>365.0</ele><time>2026-03-22T09:19:38.224Z</time></trkpt><trkpt lat="43.5136217" lon="11.4832817"><ele>365.00000000000006</ele><time>2026-03-22T09:19:40.225Z</time></trkpt><trkpt lat="43.5135667" lon="11.4832267"><ele>365.0</ele><time>2026-03-22T09:19:42.227Z</time></trkpt><trkpt lat="43.5135133" lon="11.4831767"><ele>366.0</ele><time>2026-03-22T09:19:44.227Z</time></trkpt><trkpt lat="43.5134467" lon="11.48313"><ele>367.0</ele><time>2026-03-22T09:19:46.226Z</time></trkpt><trkpt lat="43.5133767" lon="11.4830867"><ele>368.0</ele><time>2026-03-22T09:19:48.224Z</time></trkpt><trkpt lat="43.513295" lon="11.4830633"><ele>369.0</ele><time>2026-03-22T09:19:50.227Z</time></trkpt><trkpt lat="43.5132183" lon="11.483045"><ele>370.0</ele><time>2026-03-22T09:19:52.224Z</time></trkpt><trkpt lat="43.5131333" lon="11.483025"><ele>371.0</ele><time>2026-03-22T09:19:54.225Z</time></trkpt><trkpt lat="43.513055" lon="11.4830033"><ele>371.0</ele><time>2026-03-22T09:19:56.225Z</time></trkpt><trkpt lat="43.5129633" lon="11.4829833"><ele>371.0</ele><time>2026-03-22T09:19:58.225Z</time></trkpt><trkpt lat="43.512885" lon="11.4829817"><ele>371.0</ele><time>2026-03-22T09:20:00.224Z</time></trkpt><trkpt lat="43.5128017" lon="11.4829717"><ele>371.0</ele><time>2026-03-22T09:20:02.224Z</time></trkpt><trkpt lat="43.512715" lon="11.4829617"><ele>371.0</ele><time>2026-03-22T09:20:04.226Z</time></trkpt><trkpt lat="43.5126367" lon="11.4829483"><ele>371.0</ele><time>2026-03-22T09:20:06.225Z</time></trkpt><trkpt lat="43.5125583" lon="11.4829267"><ele>371.1666666666667</ele><time>2026-03-22T09:20:08.227Z</time></trkpt><trkpt lat="43.5124883" lon="11.4829017"><ele>371.33333333333337</ele><time>2026-03-22T09:20:10.225Z</time></trkpt><trkpt lat="43.512415" lon="11.4828667"><ele>371.5</ele><time>2026-03-22T09:20:12.224Z</time></trkpt><trkpt lat="43.5123433" lon="11.482815"><ele>371.6666666666667</ele><time>2026-03-22T09:20:14.225Z</time></trkpt><trkpt lat="43.5122717" lon="11.4827667"><ele>371.8333333333333</ele><time>2026-03-22T09:20:16.225Z</time></trkpt><trkpt lat="43.51221" lon="11.4827233"><ele>372.0</ele><time>2026-03-22T09:20:18.226Z</time></trkpt><trkpt lat="43.5121433" lon="11.48266"><ele>372.00000000000006</ele><time>2026-03-22T09:20:20.224Z</time></trkpt><trkpt lat="43.5120833" lon="11.4826033"><ele>372.0</ele><time>2026-03-22T09:20:22.224Z</time></trkpt><trkpt lat="43.51202" lon="11.4825483"><ele>372.0</ele><time>2026-03-22T09:20:24.226Z</time></trkpt><trkpt lat="43.5119567" lon="11.4824967"><ele>372.0</ele><time>2026-03-22T09:20:26.226Z</time></trkpt><trkpt lat="43.51189" lon="11.48245"><ele>372.0</ele><time>2026-03-22T09:20:28.225Z</time></trkpt><trkpt lat="43.511825" lon="11.4824"><ele>372.00000000000006</ele><time>2026-03-22T09:20:30.224Z</time></trkpt><trkpt lat="43.51176" lon="11.4823633"><ele>372.0</ele><time>2026-03-22T09:20:32.225Z</time></trkpt><trkpt lat="43.5117" lon="11.4823183"><ele>373.28571428571433</ele><time>2026-03-22T09:20:34.225Z</time></trkpt><trkpt lat="43.5116367" lon="11.4822833"><ele>374.57142857142856</ele><time>2026-03-22T09:20:36.225Z</time></trkpt><trkpt lat="43.5115733" lon="11.4822333"><ele>375.8571428571429</ele><time>2026-03-22T09:20:38.227Z</time></trkpt><trkpt lat="43.5115083" lon="11.4821867"><ele>377.14285714285717</ele><time>2026-03-22T09:20:40.225Z</time></trkpt><trkpt lat="43.5114467" lon="11.4821467"><ele>378.42857142857144</ele><time>2026-03-22T09:20:42.226Z</time></trkpt><trkpt lat="43.5113817" lon="11.4821017"><ele>379.7142857142857</ele><time>2026-03-22T09:20:44.225Z</time></trkpt><trkpt lat="43.5113167" lon="11.4820667"><ele>381.0</ele><time>2026-03-22T09:20:46.227Z</time></trkpt><trkpt lat="43.511255" lon="11.48203"><ele>382.7142857142857</ele><time>2026-03-22T09:20:48.224Z</time></trkpt><trkpt lat="43.51119" lon="11.48199"><ele>384.42857142857144</ele><time>2026-03-22T09:20:50.225Z</time></trkpt><trkpt lat="43.5111267" lon="11.4819467"><ele>386.14285714285717</ele><time>2026-03-22T09:20:52.225Z</time></trkpt><trkpt lat="43.5110617" lon="11.4818983"><ele>387.8571428571429</ele><time>2026-03-22T09:20:54.225Z</time></trkpt><trkpt lat="43.5109933" lon="11.481855"><ele>389.57142857142856</ele><time>2026-03-22T09:20:56.226Z</time></trkpt><trkpt lat="43.5109333" lon="11.481825"><ele>391.28571428571433</ele><time>2026-03-22T09:20:58.225Z</time></trkpt><trkpt lat="43.5108717" lon="11.4817883"><ele>393.0</ele><time>2026-03-22T09:21:00.226Z</time></trkpt><trkpt lat="43.5108033" lon="11.4817483"><ele>393.00000000000006</ele><time>2026-03-22T09:21:02.226Z</time></trkpt><trkpt lat="43.5107333" lon="11.481715"><ele>393.0</ele><time>2026-03-22T09:21:04.227Z</time></trkpt><trkpt lat="43.5106683" lon="11.481685"><ele>393.0</ele><time>2026-03-22T09:21:06.223Z</time></trkpt><trkpt lat="43.5106033" lon="11.48167"><ele>393.0</ele><time>2026-03-22T09:21:08.226Z</time></trkpt><trkpt lat="43.510535" lon="11.4816717"><ele>393.0</ele><time>2026-03-22T09:21:10.224Z</time></trkpt><trkpt lat="43.5104683" lon="11.4816833"><ele>393.00000000000006</ele><time>2026-03-22T09:21:12.227Z</time></trkpt><trkpt lat="43.5103983" lon="11.4816983"><ele>393.0</ele><time>2026-03-22T09:21:14.226Z</time></trkpt><trkpt lat="43.51033" lon="11.4817217"><ele>393.8571428571429</ele><time>2026-03-22T09:21:16.225Z</time></trkpt><trkpt lat="43.5102417" lon="11.48175"><ele>394.7142857142857</ele><time>2026-03-22T09:21:19.226Z</time></trkpt><trkpt lat="43.5101717" lon="11.4817617"><ele>395.57142857142856</ele><time>2026-03-22T09:21:21.225Z</time></trkpt><trkpt lat="43.5100983" lon="11.4817667"><ele>396.42857142857144</ele><time>2026-03-22T09:21:23.228Z</time></trkpt><trkpt lat="43.5100283" lon="11.4817717"><ele>397.2857142857143</ele><time>2026-03-22T09:21:25.226Z</time></trkpt><trkpt lat="43.50996" lon="11.481775"><ele>398.14285714285717</ele><time>2026-03-22T09:21:27.224Z</time></trkpt><trkpt lat="43.5098883" lon="11.4817683"><ele>399.0</ele><time>2026-03-22T09:21:29.225Z</time></trkpt><trkpt lat="43.5098183" lon="11.4817567"><ele>399.0</ele><time>2026-03-22T09:21:31.224Z</time></trkpt><trkpt lat="43.50975" lon="11.481745"><ele>399.0</ele><time>2026-03-22T09:21:33.226Z</time></trkpt><trkpt lat="43.5096783" lon="11.4817217"><ele>399.0</ele><time>2026-03-22T09:21:35.225Z</time></trkpt><trkpt lat="43.5096117" lon="11.4817"><ele>399.0</ele><time>2026-03-22T09:21:37.227Z</time></trkpt><trkpt lat="43.5095467" lon="11.4816533"><ele>399.0</ele><time>2026-03-22T09:21:39.225Z</time></trkpt><trkpt lat="43.509495" lon="11.4815783"><ele>399.0</ele><time>2026-03-22T09:21:41.225Z</time></trkpt><trkpt lat="43.5094567" lon="11.4814933"><ele>399.0</ele><time>2026-03-22T09:21:43.226Z</time></trkpt><trkpt lat="43.5094383" lon="11.4813967"><ele>399.7142857142857</ele><time>2026-03-22T09:21:45.226Z</time></trkpt><trkpt lat="43.5094383" lon="11.4813"><ele>400.42857142857144</ele><time>2026-03-22T09:21:47.226Z</time></trkpt><trkpt lat="43.50944" lon="11.4812033"><ele>401.1428571428571</ele><time>2026-03-22T09:21:49.225Z</time></trkpt><trkpt lat="43.5094467" lon="11.481105"><ele>401.8571428571429</ele><time>2026-03-22T09:21:51.224Z</time></trkpt><trkpt lat="43.5094333" lon="11.48102"><ele>402.57142857142856</ele><time>2026-03-22T09:21:53.226Z</time></trkpt><trkpt lat="43.5094267" lon="11.480925"><ele>403.2857142857143</ele><time>2026-03-22T09:21:55.226Z</time></trkpt><trkpt lat="43.509405" lon="11.48083"><ele>404.0</ele><time>2026-03-22T09:21:57.226Z</time></trkpt><trkpt lat="43.509375" lon="11.4807417"><ele>404.0</ele><time>2026-03-22T09:21:59.225Z</time></trkpt><trkpt lat="43.50935" lon="11.4806483"><ele>404.0</ele><time>2026-03-22T09:22:01.225Z</time></trkpt><trkpt lat="43.50932" lon="11.4805567"><ele>404.0</ele><time>2026-03-22T09:22:03.226Z</time></trkpt><trkpt lat="43.50929" lon="11.4804767"><ele>404.0</ele><time>2026-03-22T09:22:05.225Z</time></trkpt><trkpt lat="43.5092567" lon="11.4803933"><ele>404.0</ele><time>2026-03-22T09:22:07.226Z</time></trkpt><trkpt lat="43.50921" lon="11.48033"><ele>404.0</ele><time>2026-03-22T09:22:09.226Z</time></trkpt><trkpt lat="43.509145" lon="11.4802917"><ele>404.0</ele><time>2026-03-22T09:22:11.225Z</time></trkpt><trkpt lat="43.509075" lon="11.4802817"><ele>403.99999999999994</ele><time>2026-03-22T09:22:13.226Z</time></trkpt><trkpt lat="43.5089867" lon="11.4803067"><ele>404.0</ele><time>2026-03-22T09:22:16.225Z</time></trkpt><trkpt lat="43.5089333" lon="11.4803533"><ele>404.0</ele><time>2026-03-22T09:22:18.227Z</time></trkpt><trkpt lat="43.508875" lon="11.4804133"><ele>404.0</ele><time>2026-03-22T09:22:20.226Z</time></trkpt><trkpt lat="43.5087983" lon="11.4804933"><ele>403.99999999999994</ele><time>2026-03-22T09:22:23.228Z</time></trkpt><trkpt lat="43.5087383" lon="11.480545"><ele>404.0</ele><time>2026-03-22T09:22:25.226Z</time></trkpt><trkpt lat="43.5086733" lon="11.4805917"><ele>403.85714285714283</ele><time>2026-03-22T09:22:27.225Z</time></trkpt><trkpt lat="43.5086067" lon="11.4806233"><ele>403.71428571428567</ele><time>2026-03-22T09:22:29.224Z</time></trkpt><trkpt lat="43.508535" lon="11.4806383"><ele>403.57142857142856</ele><time>2026-03-22T09:22:31.226Z</time></trkpt><trkpt lat="43.5084633" lon="11.480625"><ele>403.42857142857144</ele><time>2026-03-22T09:22:33.226Z</time></trkpt><trkpt lat="43.5083983" lon="11.4805733"><ele>403.2857142857143</ele><time>2026-03-22T09:22:35.227Z</time></trkpt><trkpt lat="43.5083467" lon="11.4804867"><ele>403.14285714285717</ele><time>2026-03-22T09:22:37.226Z</time></trkpt><trkpt lat="43.50832" lon="11.4803883"><ele>403.0</ele><time>2026-03-22T09:22:39.226Z</time></trkpt><trkpt lat="43.508325" lon="11.4802783"><ele>404.2857142857143</ele><time>2026-03-22T09:22:41.224Z</time></trkpt><trkpt lat="43.50835" lon="11.48019"><ele>405.57142857142856</ele><time>2026-03-22T09:22:43.225Z</time></trkpt><trkpt lat="43.5083867" lon="11.4801083"><ele>406.85714285714283</ele><time>2026-03-22T09:22:45.225Z</time></trkpt><trkpt lat="43.508425" lon="11.4800333"><ele>408.1428571428571</ele><time>2026-03-22T09:22:47.226Z</time></trkpt><trkpt lat="43.5084633" lon="11.4799533"><ele>409.42857142857144</ele><time>2026-03-22T09:22:49.225Z</time></trkpt><trkpt lat="43.508495" lon="11.47987"><ele>410.71428571428567</ele><time>2026-03-22T09:22:51.227Z</time></trkpt><trkpt lat="43.50852" lon="11.47978"><ele>412.0</ele><time>2026-03-22T09:22:53.226Z</time></trkpt><trkpt lat="43.5085417" lon="11.4796833"><ele>412.99999999999994</ele><time>2026-03-22T09:22:55.227Z</time></trkpt><trkpt lat="43.50855" lon="11.4795867"><ele>414.0</ele><time>2026-03-22T09:22:57.226Z</time></trkpt><trkpt lat="43.50854" lon="11.4794833"><ele>415.0</ele><time>2026-03-22T09:22:59.226Z</time></trkpt><trkpt lat="43.5085267" lon="11.4793917"><ele>416.0</ele><time>2026-03-22T09:23:01.225Z</time></trkpt><trkpt lat="43.5084983" lon="11.4792983"><ele>417.0</ele><time>2026-03-22T09:23:03.226Z</time></trkpt><trkpt lat="43.508455" lon="11.4792183"><ele>417.99999999999994</ele><time>2026-03-22T09:23:05.226Z</time></trkpt><trkpt lat="43.508415" lon="11.47915"><ele>419.0</ele><time>2026-03-22T09:23:07.225Z</time></trkpt><trkpt lat="43.5083633" lon="11.47908"><ele>418.99999999999994</ele><time>2026-03-22T09:23:09.226Z</time></trkpt><trkpt lat="43.5083117" lon="11.479005"><ele>419.0</ele><time>2026-03-22T09:23:11.226Z</time></trkpt><trkpt lat="43.5082633" lon="11.4789283"><ele>419.0</ele><time>2026-03-22T09:23:13.227Z</time></trkpt><trkpt lat="43.5082183" lon="11.4788517"><ele>419.0</ele><time>2026-03-22T09:23:15.226Z</time></trkpt><trkpt lat="43.5081733" lon="11.4787683"><ele>419.0</ele><time>2026-03-22T09:23:17.226Z</time></trkpt><trkpt lat="43.508135" lon="11.47868"><ele>418.99999999999994</ele><time>2026-03-22T09:23:19.225Z</time></trkpt><trkpt lat="43.5081" lon="11.4785867"><ele>419.0</ele><time>2026-03-22T09:23:21.227Z</time></trkpt><trkpt lat="43.508065" lon="11.47849"><ele>417.85714285714283</ele><time>2026-03-22T09:23:23.226Z</time></trkpt><trkpt lat="43.508035" lon="11.4783933"><ele>416.7142857142857</ele><time>2026-03-22T09:23:25.225Z</time></trkpt><trkpt lat="43.508005" lon="11.4783067"><ele>415.57142857142856</ele><time>2026-03-22T09:23:27.227Z</time></trkpt><trkpt lat="43.50798" lon="11.4782167"><ele>414.42857142857144</ele><time>2026-03-22T09:23:29.224Z</time></trkpt><trkpt lat="43.5079533" lon="11.4781267"><ele>413.2857142857143</ele><time>2026-03-22T09:23:31.226Z</time></trkpt><trkpt lat="43.5079167" lon="11.4780483"><ele>412.1428571428571</ele><time>2026-03-22T09:23:33.226Z</time></trkpt><trkpt lat="43.507895" lon="11.4779633"><ele>411.0</ele><time>2026-03-22T09:23:35.225Z</time></trkpt><trkpt lat="43.507885" lon="11.4778733"><ele>411.0</ele><time>2026-03-22T09:23:37.224Z</time></trkpt><trkpt lat="43.5078867" lon="11.4777817"><ele>411.0</ele><time>2026-03-22T09:23:39.225Z</time></trkpt><trkpt lat="43.5079133" lon="11.4776883"><ele>411.0</ele><time>2026-03-22T09:23:41.224Z</time></trkpt><trkpt lat="43.507945" lon="11.4776"><ele>411.0</ele><time>2026-03-22T09:23:43.224Z</time></trkpt><trkpt lat="43.5079733" lon="11.4775117"><ele>411.0</ele><time>2026-03-22T09:23:45.225Z</time></trkpt><trkpt lat="43.5080083" lon="11.4774217"><ele>411.0</ele><time>2026-03-22T09:23:47.224Z</time></trkpt><trkpt lat="43.5080433" lon="11.4773317"><ele>411.0</ele><time>2026-03-22T09:23:49.224Z</time></trkpt><trkpt lat="43.508075" lon="11.47724"><ele>413.85714285714283</ele><time>2026-03-22T09:23:51.224Z</time></trkpt><trkpt lat="43.5081083" lon="11.4771517"><ele>416.71428571428567</ele><time>2026-03-22T09:23:53.224Z</time></trkpt><trkpt lat="43.5081467" lon="11.4770617"><ele>419.57142857142856</ele><time>2026-03-22T09:23:55.226Z</time></trkpt><trkpt lat="43.50818" lon="11.4769717"><ele>422.42857142857144</ele><time>2026-03-22T09:23:57.224Z</time></trkpt><trkpt lat="43.50821" lon="11.4768867"><ele>425.2857142857143</ele><time>2026-03-22T09:23:59.224Z</time></trkpt><trkpt lat="43.5082483" lon="11.47681"><ele>428.14285714285717</ele><time>2026-03-22T09:24:01.224Z</time></trkpt><trkpt lat="43.5082933" lon="11.47673"><ele>431.0</ele><time>2026-03-22T09:24:03.225Z</time></trkpt><trkpt lat="43.508345" lon="11.476655"><ele>431.0</ele><time>2026-03-22T09:24:05.225Z</time></trkpt><trkpt lat="43.5084067" lon="11.476595"><ele>431.0</ele><time>2026-03-22T09:24:07.226Z</time></trkpt><trkpt lat="43.5084667" lon="11.47654"><ele>431.0</ele><time>2026-03-22T09:24:09.225Z</time></trkpt><trkpt lat="43.5078867" lon="11.4777817"><ele>431.2857142857143</ele><time>2026-03-22T09:23:39.225Z</time></trkpt><trkpt lat="43.5079133" lon="11.4776883"><ele>431.57142857142856</ele><time>2026-03-22T09:23:41.224Z</time></trkpt><trkpt lat="43.507945" lon="11.4776"><ele>431.85714285714283</ele><time>2026-03-22T09:23:43.224Z</time></trkpt><trkpt lat="43.5079733" lon="11.4775117"><ele>432.1428571428571</ele><time>2026-03-22T09:23:45.225Z</time></trkpt><trkpt lat="43.5080083" lon="11.4774217"><ele>432.42857142857144</ele><time>2026-03-22T09:23:47.224Z</time></trkpt><trkpt lat="43.5080433" lon="11.4773317"><ele>432.71428571428567</ele><time>2026-03-22T09:23:49.224Z</time></trkpt><trkpt lat="43.508075" lon="11.47724"><ele>433.0</ele><time>2026-03-22T09:23:51.224Z</time></trkpt><trkpt lat="43.5081083" lon="11.4771517"><ele>432.71428571428567</ele><time>2026-03-22T09:23:53.224Z</time></trkpt><trkpt lat="43.5081467" lon="11.4770617"><ele>432.42857142857144</ele><time>2026-03-22T09:23:55.226Z</time></trkpt><trkpt lat="43.50818" lon="11.4769717"><ele>432.1428571428571</ele><time>2026-03-22T09:23:57.224Z</time></trkpt><trkpt lat="43.50821" lon="11.4768867"><ele>431.85714285714283</ele><time>2026-03-22T09:23:59.224Z</time></trkpt><trkpt lat="43.5082483" lon="11.47681"><ele>431.57142857142856</ele><time>2026-03-22T09:24:01.224Z</time></trkpt><trkpt lat="43.5082933" lon="11.47673"><ele>431.2857142857143</ele><time>2026-03-22T09:24:03.225Z</time></trkpt><trkpt lat="43.508345" lon="11.476655"><ele>431.0</ele><time>2026-03-22T09:24:05.225Z</time></trkpt><trkpt lat="43.5084067" lon="11.476595"><ele>431.0</ele><time>2026-03-22T09:24:07.226Z</time></trkpt><trkpt lat="43.5084667" lon="11.47654"><ele>431.0</ele><time>2026-03-22T09:24:09.225Z</time></trkpt><trkpt lat="43.50853" lon="11.476495"><ele>431.0</ele><time>2026-03-22T09:24:11.225Z</time></trkpt><trkpt lat="43.50859" lon="11.4764483"><ele>431.0</ele><time>2026-03-22T09:24:13.225Z</time></trkpt><trkpt lat="43.50866" lon="11.4763917"><ele>431.0</ele><time>2026-03-22T09:24:15.225Z</time></trkpt><trkpt lat="43.5087217" lon="11.476335"><ele>431.0</ele><time>2026-03-22T09:24:17.225Z</time></trkpt><trkpt lat="43.5087733" lon="11.47627"><ele>431.0</ele><time>2026-03-22T09:24:19.225Z</time></trkpt><trkpt lat="43.508815" lon="11.4762"><ele>433.57142857142856</ele><time>2026-03-22T09:24:21.225Z</time></trkpt><trkpt lat="43.50885" lon="11.476105"><ele>436.1428571428571</ele><time>2026-03-22T09:24:23.225Z</time></trkpt><trkpt lat="43.50887" lon="11.476005"><ele>438.71428571428567</ele><time>2026-03-22T09:24:25.227Z</time></trkpt><trkpt lat="43.50889" lon="11.4759033"><ele>441.2857142857143</ele><time>2026-03-22T09:24:27.224Z</time></trkpt><trkpt lat="43.5088933" lon="11.4758017"><ele>443.8571428571428</ele><time>2026-03-22T09:24:29.225Z</time></trkpt><trkpt lat="43.5088783" lon="11.4757133"><ele>446.4285714285714</ele><time>2026-03-22T09:24:31.226Z</time></trkpt><trkpt lat="43.5088567" lon="11.4756267"><ele>449.0</ele><time>2026-03-22T09:24:33.226Z</time></trkpt><trkpt lat="43.50883" lon="11.475535"><ele>449.0</ele><time>2026-03-22T09:24:35.223Z</time></trkpt><trkpt lat="43.5087983" lon="11.4754467"><ele>448.99999999999994</ele><time>2026-03-22T09:24:37.225Z</time></trkpt><trkpt lat="43.5087617" lon="11.4753633"><ele>449.0</ele><time>2026-03-22T09:24:39.225Z</time></trkpt><trkpt lat="43.5087417" lon="11.4752783"><ele>449.0</ele><time>2026-03-22T09:24:41.227Z</time></trkpt><trkpt lat="43.50874" lon="11.4751883"><ele>448.99999999999994</ele><time>2026-03-22T09:24:43.224Z</time></trkpt><trkpt lat="43.508765" lon="11.4751017"><ele>449.0</ele><time>2026-03-22T09:24:45.226Z</time></trkpt><trkpt lat="43.5088017" lon="11.475025"><ele>449.0</ele><time>2026-03-22T09:24:47.226Z</time></trkpt><trkpt lat="43.5088617" lon="11.4749667"><ele>448.3333333333333</ele><time>2026-03-22T09:24:49.226Z</time></trkpt><trkpt lat="43.5089283" lon="11.474945"><ele>447.66666666666663</ele><time>2026-03-22T09:24:51.225Z</time></trkpt><trkpt lat="43.5089933" lon="11.47495"><ele>447.0</ele><time>2026-03-22T09:24:53.225Z</time></trkpt><trkpt lat="43.50908" lon="11.4749583"><ele>446.33333333333337</ele><time>2026-03-22T09:24:56.227Z</time></trkpt><trkpt lat="43.5091683" lon="11.4749783"><ele>445.6666666666667</ele><time>2026-03-22T09:24:59.227Z</time></trkpt><trkpt lat="43.5092367" lon="11.47497"><ele>445.0</ele><time>2026-03-22T09:25:01.225Z</time></trkpt><trkpt lat="43.5093267" lon="11.474975"><ele>445.00000000000006</ele><time>2026-03-22T09:25:04.224Z</time></trkpt><trkpt lat="43.5094067" lon="11.4749683"><ele>445.0</ele><time>2026-03-22T09:25:06.225Z</time></trkpt><trkpt lat="43.50948" lon="11.4749433"><ele>445.0</ele><time>2026-03-22T09:25:08.226Z</time></trkpt><trkpt lat="43.50955" lon="11.4749183"><ele>445.0</ele><time>2026-03-22T09:25:10.224Z</time></trkpt><trkpt lat="43.5096167" lon="11.4748833"><ele>445.00000000000006</ele><time>2026-03-22T09:25:12.224Z</time></trkpt><trkpt lat="43.5096817" lon="11.4748333"><ele>445.0</ele><time>2026-03-22T09:25:14.225Z</time></trkpt><trkpt lat="43.509735" lon="11.4747583"><ele>445.42857142857144</ele><time>2026-03-22T09:25:16.225Z</time></trkpt><trkpt lat="43.509775" lon="11.4746833"><ele>445.85714285714283</ele><time>2026-03-22T09:25:18.224Z</time></trkpt><trkpt lat="43.5098067" lon="11.4746"><ele>446.2857142857143</ele><time>2026-03-22T09:25:20.226Z</time></trkpt><trkpt lat="43.5098283" lon="11.4745083"><ele>446.7142857142857</ele><time>2026-03-22T09:25:22.224Z</time></trkpt><trkpt lat="43.5098333" lon="11.4744117"><ele>447.1428571428571</ele><time>2026-03-22T09:25:24.227Z</time></trkpt><trkpt lat="43.509825" lon="11.4743167"><ele>447.57142857142856</ele><time>2026-03-22T09:25:26.225Z</time></trkpt><trkpt lat="43.5098" lon="11.474235"><ele>448.0</ele><time>2026-03-22T09:25:28.225Z</time></trkpt><trkpt lat="43.5097783" lon="11.474145"><ele>448.0</ele><time>2026-03-22T09:25:30.225Z</time></trkpt><trkpt lat="43.5097467" lon="11.4740683"><ele>448.0</ele><time>2026-03-22T09:25:32.225Z</time></trkpt><trkpt lat="43.5097017" lon="11.47399"><ele>448.0</ele><time>2026-03-22T09:25:34.225Z</time></trkpt><trkpt lat="43.5096517" lon="11.4739133"><ele>448.0</ele><time>2026-03-22T09:25:36.227Z</time></trkpt><trkpt lat="43.5095983" lon="11.47384"><ele>448.0</ele><time>2026-03-22T09:25:38.225Z</time></trkpt><trkpt lat="43.509545" lon="11.4737833"><ele>448.0</ele><time>2026-03-22T09:25:40.227Z</time></trkpt><trkpt lat="43.5094917" lon="11.473725"><ele>448.0</ele><time>2026-03-22T09:25:42.224Z</time></trkpt><trkpt lat="43.5094383" lon="11.473675"><ele>449.0</ele><time>2026-03-22T09:25:44.226Z</time></trkpt><trkpt lat="43.5093883" lon="11.4736117"><ele>450.0</ele><time>2026-03-22T09:25:46.225Z</time></trkpt><trkpt lat="43.5093433" lon="11.4735433"><ele>451.0</ele><time>2026-03-22T09:25:48.227Z</time></trkpt><trkpt lat="43.50931" lon="11.4734667"><ele>452.0</ele><time>2026-03-22T09:25:50.227Z</time></trkpt><trkpt lat="43.5092833" lon="11.473385"><ele>453.0</ele><time>2026-03-22T09:25:52.225Z</time></trkpt><trkpt lat="43.5092667" lon="11.4732917"><ele>454.0</ele><time>2026-03-22T09:25:54.227Z</time></trkpt><trkpt lat="43.5092583" lon="11.4731967"><ele>455.0</ele><time>2026-03-22T09:25:56.226Z</time></trkpt><trkpt lat="43.5092583" lon="11.4731067"><ele>455.0</ele><time>2026-03-22T09:25:58.225Z</time></trkpt><trkpt lat="43.509265" lon="11.4730117"><ele>455.0</ele><time>2026-03-22T09:26:00.225Z</time></trkpt><trkpt lat="43.50927" lon="11.4729217"><ele>455.0</ele><time>2026-03-22T09:26:02.226Z</time></trkpt><trkpt lat="43.509295" lon="11.4728283"><ele>455.0</ele><time>2026-03-22T09:26:04.225Z</time></trkpt><trkpt lat="43.5093167" lon="11.4727283"><ele>455.0</ele><time>2026-03-22T09:26:06.226Z</time></trkpt><trkpt lat="43.5093383" lon="11.472635"><ele>455.0</ele><time>2026-03-22T09:26:08.226Z</time></trkpt><trkpt lat="43.5093483" lon="11.4725467"><ele>455.0</ele><time>2026-03-22T09:26:10.224Z</time></trkpt><trkpt lat="43.5093633" lon="11.47245"><ele>455.57142857142856</ele><time>2026-03-22T09:26:12.225Z</time></trkpt><trkpt lat="43.5093717" lon="11.4723567"><ele>456.1428571428571</ele><time>2026-03-22T09:26:14.225Z</time></trkpt><trkpt lat="43.5093583" lon="11.4722633"><ele>456.7142857142857</ele><time>2026-03-22T09:26:16.226Z</time></trkpt><trkpt lat="43.5093333" lon="11.47218"><ele>457.2857142857143</ele><time>2026-03-22T09:26:18.226Z</time></trkpt><trkpt lat="43.5092933" lon="11.47211"><ele>457.85714285714283</ele><time>2026-03-22T09:26:20.226Z</time></trkpt><trkpt lat="43.50924" lon="11.4720517"><ele>458.42857142857144</ele><time>2026-03-22T09:26:22.225Z</time></trkpt><trkpt lat="43.5091767" lon="11.4720167"><ele>459.0</ele><time>2026-03-22T09:26:24.227Z</time></trkpt><trkpt lat="43.5091117" lon="11.4719717"><ele>460.42857142857144</ele><time>2026-03-22T09:26:26.224Z</time></trkpt><trkpt lat="43.5090483" lon="11.4719383"><ele>461.85714285714283</ele><time>2026-03-22T09:26:28.225Z</time></trkpt><trkpt lat="43.5089817" lon="11.471905"><ele>463.2857142857143</ele><time>2026-03-22T09:26:30.225Z</time></trkpt><trkpt lat="43.5089133" lon="11.4718583"><ele>464.7142857142857</ele><time>2026-03-22T09:26:32.225Z</time></trkpt><trkpt lat="43.5088483" lon="11.4718233"><ele>466.1428571428571</ele><time>2026-03-22T09:26:34.225Z</time></trkpt><trkpt lat="43.5087733" lon="11.4717917"><ele>467.57142857142856</ele><time>2026-03-22T09:26:36.225Z</time></trkpt><trkpt lat="43.5086983" lon="11.4717917"><ele>469.0</ele><time>2026-03-22T09:26:38.226Z</time></trkpt><trkpt lat="43.50862" lon="11.4718083"><ele>469.33333333333337</ele><time>2026-03-22T09:26:40.225Z</time></trkpt><trkpt lat="43.50854" lon="11.471845"><ele>469.6666666666667</ele><time>2026-03-22T09:26:42.225Z</time></trkpt><trkpt lat="43.5084633" lon="11.4718817"><ele>470.0</ele><time>2026-03-22T09:26:44.226Z</time></trkpt><trkpt lat="43.5083767" lon="11.47192"><ele>470.33333333333337</ele><time>2026-03-22T09:26:46.225Z</time></trkpt><trkpt lat="43.5082883" lon="11.4719633"><ele>470.6666666666667</ele><time>2026-03-22T09:26:48.227Z</time></trkpt><trkpt lat="43.5081967" lon="11.4719833"><ele>471.0</ele><time>2026-03-22T09:26:50.226Z</time></trkpt><trkpt lat="43.5081033" lon="11.471975"><ele>471.0</ele><time>2026-03-22T09:26:52.226Z</time></trkpt><trkpt lat="43.5080033" lon="11.471945"><ele>471.0</ele><time>2026-03-22T09:26:54.225Z</time></trkpt><trkpt lat="43.507915" lon="11.4718983"><ele>471.0</ele><time>2026-03-22T09:26:56.226Z</time></trkpt><trkpt lat="43.507825" lon="11.4718383"><ele>471.0</ele><time>2026-03-22T09:26:58.226Z</time></trkpt><trkpt lat="43.5077333" lon="11.471785"><ele>471.0</ele><time>2026-03-22T09:27:00.225Z</time></trkpt><trkpt lat="43.50764" lon="11.4717367"><ele>470.6</ele><time>2026-03-22T09:27:02.227Z</time></trkpt><trkpt lat="43.5075417" lon="11.4716933"><ele>470.20000000000005</ele><time>2026-03-22T09:27:04.227Z</time></trkpt><trkpt lat="43.5074417" lon="11.471655"><ele>469.79999999999995</ele><time>2026-03-22T09:27:06.224Z</time></trkpt><trkpt lat="43.5073433" lon="11.4716033"><ele>469.4</ele><time>2026-03-22T09:27:08.226Z</time></trkpt><trkpt lat="43.507245" lon="11.47155"><ele>469.0</ele><time>2026-03-22T09:27:10.225Z</time></trkpt><trkpt lat="43.5071433" lon="11.4714983"><ele>469.79999999999995</ele><time>2026-03-22T09:27:12.226Z</time></trkpt><trkpt lat="43.5070467" lon="11.47143"><ele>470.59999999999997</ele><time>2026-03-22T09:27:14.226Z</time></trkpt><trkpt lat="43.50696" lon="11.4713433"><ele>471.4</ele><time>2026-03-22T09:27:16.226Z</time></trkpt><trkpt lat="43.5068767" lon="11.4712583"><ele>472.2</ele><time>2026-03-22T09:27:18.226Z</time></trkpt><trkpt lat="43.5067983" lon="11.4711617"><ele>473.0</ele><time>2026-03-22T09:27:20.228Z</time></trkpt><trkpt lat="43.5067233" lon="11.47106"><ele>473.0</ele><time>2026-03-22T09:27:22.228Z</time></trkpt><trkpt lat="43.50665" lon="11.4709533"><ele>472.99999999999994</ele><time>2026-03-22T09:27:24.227Z</time></trkpt><trkpt lat="43.5065817" lon="11.4708433"><ele>472.99999999999994</ele><time>2026-03-22T09:27:26.229Z</time></trkpt><trkpt lat="43.5065083" lon="11.4707417"><ele>473.0</ele><time>2026-03-22T09:27:28.226Z</time></trkpt><trkpt lat="43.50643" lon="11.470645"><ele>473.0</ele><time>2026-03-22T09:27:30.227Z</time></trkpt><trkpt lat="43.506345" lon="11.4705517"><ele>473.0</ele><time>2026-03-22T09:27:32.226Z</time></trkpt><trkpt lat="43.50625" lon="11.4704717"><ele>473.0</ele><time>2026-03-22T09:27:34.226Z</time></trkpt><trkpt lat="43.5061433" lon="11.4704283"><ele>473.0</ele><time>2026-03-22T09:27:36.226Z</time></trkpt><trkpt lat="43.5060333" lon="11.4704067"><ele>473.0</ele><time>2026-03-22T09:27:38.228Z</time></trkpt><trkpt lat="43.5059167" lon="11.4703817"><ele>472.0</ele><time>2026-03-22T09:27:40.224Z</time></trkpt><trkpt lat="43.5058017" lon="11.4703533"><ele>470.99999999999994</ele><time>2026-03-22T09:27:42.227Z</time></trkpt><trkpt lat="43.5056983" lon="11.4702933"><ele>469.99999999999994</ele><time>2026-03-22T09:27:44.227Z</time></trkpt><trkpt lat="43.505605" lon="11.4702167"><ele>469.0</ele><time>2026-03-22T09:27:46.225Z</time></trkpt><trkpt lat="43.5055217" lon="11.4701217"><ele>468.0</ele><time>2026-03-22T09:27:48.229Z</time></trkpt><trkpt lat="43.5054433" lon="11.47002"><ele>471.2</ele><time>2026-03-22T09:27:50.227Z</time></trkpt><trkpt lat="43.5053567" lon="11.4699433"><ele>474.4</ele><time>2026-03-22T09:27:52.227Z</time></trkpt><trkpt lat="43.50526" lon="11.4698883"><ele>477.59999999999997</ele><time>2026-03-22T09:27:54.226Z</time></trkpt><trkpt lat="43.5051633" lon="11.4698817"><ele>480.79999999999995</ele><time>2026-03-22T09:27:56.226Z</time></trkpt><trkpt lat="43.505065" lon="11.4698867"><ele>484.0</ele><time>2026-03-22T09:27:58.226Z</time></trkpt><trkpt lat="43.504975" lon="11.4698883"><ele>484.0</ele><time>2026-03-22T09:28:00.227Z</time></trkpt><trkpt lat="43.5048783" lon="11.4699017"><ele>484.0</ele><time>2026-03-22T09:28:02.227Z</time></trkpt><trkpt lat="43.50478" lon="11.4699167"><ele>484.0</ele><time>2026-03-22T09:28:04.225Z</time></trkpt><trkpt lat="43.504685" lon="11.4699183"><ele>484.0</ele><time>2026-03-22T09:28:06.226Z</time></trkpt><trkpt lat="43.5045917" lon="11.469885"><ele>484.0</ele><time>2026-03-22T09:28:08.228Z</time></trkpt><trkpt lat="43.504505" lon="11.4698283"><ele>482.2</ele><time>2026-03-22T09:28:10.228Z</time></trkpt><trkpt lat="43.504415" lon="11.469745"><ele>480.4</ele><time>2026-03-22T09:28:12.227Z</time></trkpt><trkpt lat="43.5043383" lon="11.4696583"><ele>478.6</ele><time>2026-03-22T09:28:14.225Z</time></trkpt><trkpt lat="43.50427" lon="11.4695767"><ele>476.8</ele><time>2026-03-22T09:28:16.227Z</time></trkpt><trkpt lat="43.504195" lon="11.4695017"><ele>475.0</ele><time>2026-03-22T09:28:18.226Z</time></trkpt><trkpt lat="43.5041167" lon="11.46943"><ele>475.0</ele><time>2026-03-22T09:28:20.226Z</time></trkpt><trkpt lat="43.5040317" lon="11.4693667"><ele>475.0</ele><time>2026-03-22T09:28:22.227Z</time></trkpt><trkpt lat="43.50395" lon="11.4693083"><ele>475.0</ele><time>2026-03-22T09:28:24.226Z</time></trkpt><trkpt lat="43.50386" lon="11.46926"><ele>475.0</ele><time>2026-03-22T09:28:26.228Z</time></trkpt><trkpt lat="43.503765" lon="11.4692417"><ele>475.0</ele><time>2026-03-22T09:28:28.227Z</time></trkpt><trkpt lat="43.5036733" lon="11.46925"><ele>476.8</ele><time>2026-03-22T09:28:30.229Z</time></trkpt><trkpt lat="43.503585" lon="11.4692833"><ele>478.6</ele><time>2026-03-22T09:28:32.227Z</time></trkpt><trkpt lat="43.5035" lon="11.4693333"><ele>480.4</ele><time>2026-03-22T09:28:34.227Z</time></trkpt><trkpt lat="43.5034183" lon="11.4693983"><ele>482.2</ele><time>2026-03-22T09:28:36.227Z</time></trkpt><trkpt lat="43.503335" lon="11.4694633"><ele>484.0</ele><time>2026-03-22T09:28:38.227Z</time></trkpt><trkpt lat="43.5032533" lon="11.469525"><ele>484.0</ele><time>2026-03-22T09:28:40.226Z</time></trkpt><trkpt lat="43.503165" lon="11.4695767"><ele>484.0</ele><time>2026-03-22T09:28:42.227Z</time></trkpt><trkpt lat="43.5030833" lon="11.4696383"><ele>484.0</ele><time>2026-03-22T09:28:44.226Z</time></trkpt><trkpt lat="43.5030017" lon="11.469685"><ele>484.0</ele><time>2026-03-22T09:28:46.226Z</time></trkpt><trkpt lat="43.5029183" lon="11.46972"><ele>484.0</ele><time>2026-03-22T09:28:48.224Z</time></trkpt><trkpt lat="43.5028283" lon="11.4697283"><ele>484.00000000000006</ele><time>2026-03-22T09:28:50.225Z</time></trkpt><trkpt lat="43.50274" lon="11.4697167"><ele>484.0</ele><time>2026-03-22T09:28:52.225Z</time></trkpt><trkpt lat="43.5026517" lon="11.4696817"><ele>484.0</ele><time>2026-03-22T09:28:54.226Z</time></trkpt><trkpt lat="43.5025717" lon="11.46963"><ele>484.0</ele><time>2026-03-22T09:28:56.226Z</time></trkpt><trkpt lat="43.502495" lon="11.469575"><ele>484.00000000000006</ele><time>2026-03-22T09:28:58.223Z</time></trkpt><trkpt lat="43.50242" lon="11.4695183"><ele>484.0</ele><time>2026-03-22T09:29:00.225Z</time></trkpt><trkpt lat="43.5023367" lon="11.46946"><ele>484.0</ele><time>2026-03-22T09:29:02.227Z</time></trkpt><trkpt lat="43.5022517" lon="11.4693967"><ele>484.0</ele><time>2026-03-22T09:29:04.225Z</time></trkpt><trkpt lat="43.5021683" lon="11.4693333"><ele>484.0</ele><time>2026-03-22T09:29:06.226Z</time></trkpt><trkpt lat="43.5020917" lon="11.46926"><ele>484.0</ele><time>2026-03-22T09:29:08.225Z</time></trkpt><trkpt lat="43.50202" lon="11.4691867"><ele>484.0</ele><time>2026-03-22T09:29:10.226Z</time></trkpt><trkpt lat="43.501965" lon="11.469095"><ele>485.79999999999995</ele><time>2026-03-22T09:29:12.224Z</time></trkpt><trkpt lat="43.5019133" lon="11.4689817"><ele>487.59999999999997</ele><time>2026-03-22T09:29:14.225Z</time></trkpt><trkpt lat="43.5018567" lon="11.4688767"><ele>489.4</ele><time>2026-03-22T09:29:16.224Z</time></trkpt><trkpt lat="43.5018033" lon="11.4687783"><ele>491.2</ele><time>2026-03-22T09:29:18.224Z</time></trkpt><trkpt lat="43.5017517" lon="11.4686767"><ele>493.0</ele><time>2026-03-22T09:29:20.224Z</time></trkpt><trkpt lat="43.5016983" lon="11.4685867"><ele>493.0</ele><time>2026-03-22T09:29:22.224Z</time></trkpt><trkpt lat="43.5016283" lon="11.4685083"><ele>492.99999999999994</ele><time>2026-03-22T09:29:24.225Z</time></trkpt><trkpt lat="43.5015517" lon="11.468435"><ele>492.99999999999994</ele><time>2026-03-22T09:29:26.228Z</time></trkpt><trkpt lat="43.5014717" lon="11.468365"><ele>493.0</ele><time>2026-03-22T09:29:28.225Z</time></trkpt><trkpt lat="43.5013867" lon="11.4683067"><ele>493.0</ele><time>2026-03-22T09:29:30.228Z</time></trkpt><trkpt lat="43.5012917" lon="11.4682533"><ele>493.2</ele><time>2026-03-22T09:29:32.224Z</time></trkpt><trkpt lat="43.501205" lon="11.46819"><ele>493.4</ele><time>2026-03-22T09:29:34.224Z</time></trkpt><trkpt lat="43.5011117" lon="11.46812"><ele>493.59999999999997</ele><time>2026-03-22T09:29:36.226Z</time></trkpt><trkpt lat="43.5010233" lon="11.4680533"><ele>493.79999999999995</ele><time>2026-03-22T09:29:38.226Z</time></trkpt><trkpt lat="43.5009433" lon="11.4679883"><ele>494.0</ele><time>2026-03-22T09:29:40.226Z</time></trkpt><trkpt lat="43.500855" lon="11.4679367"><ele>494.0</ele><time>2026-03-22T09:29:42.225Z</time></trkpt><trkpt lat="43.5007583" lon="11.467905"><ele>494.0</ele><time>2026-03-22T09:29:44.225Z</time></trkpt><trkpt lat="43.500655" lon="11.4678717"><ele>494.0</ele><time>2026-03-22T09:29:46.225Z</time></trkpt><trkpt lat="43.5005467" lon="11.4678417"><ele>494.0</ele><time>2026-03-22T09:29:48.227Z</time></trkpt><trkpt lat="43.5004367" lon="11.4678033"><ele>494.0</ele><time>2026-03-22T09:29:50.225Z</time></trkpt><trkpt lat="43.5003467" lon="11.4677433"><ele>498.0</ele><time>2026-03-22T09:29:52.226Z</time></trkpt><trkpt lat="43.5002667" lon="11.4676517"><ele>502.0</ele><time>2026-03-22T09:29:54.224Z</time></trkpt><trkpt lat="43.500205" lon="11.4675433"><ele>506.0</ele><time>2026-03-22T09:29:56.225Z</time></trkpt><trkpt lat="43.50015" lon="11.4674317"><ele>510.0</ele><time>2026-03-22T09:29:58.224Z</time></trkpt><trkpt lat="43.5000883" lon="11.46733"><ele>514.0</ele><time>2026-03-22T09:30:00.226Z</time></trkpt><trkpt lat="43.5000233" lon="11.467235"><ele>514.0</ele><time>2026-03-22T09:30:02.224Z</time></trkpt><trkpt lat="43.4999517" lon="11.4671633"><ele>514.0</ele><time>2026-03-22T09:30:04.226Z</time></trkpt><trkpt lat="43.49987" lon="11.4670767"><ele>514.0</ele><time>2026-03-22T09:30:06.225Z</time></trkpt><trkpt lat="43.4997933" lon="11.4669917"><ele>514.0</ele><time>2026-03-22T09:30:08.227Z</time></trkpt><trkpt lat="43.49972" lon="11.4669133"><ele>514.0</ele><time>2026-03-22T09:30:10.227Z</time></trkpt><trkpt lat="43.4996483" lon="11.4668367"><ele>514.1666666666667</ele><time>2026-03-22T09:30:12.225Z</time></trkpt><trkpt lat="43.4995833" lon="11.4667517"><ele>514.3333333333334</ele><time>2026-03-22T09:30:14.226Z</time></trkpt><trkpt lat="43.4995217" lon="11.4666767"><ele>514.5</ele><time>2026-03-22T09:30:16.225Z</time></trkpt><trkpt lat="43.49946" lon="11.466605"><ele>514.6666666666666</ele><time>2026-03-22T09:30:18.225Z</time></trkpt><trkpt lat="43.4993933" lon="11.46653"><ele>514.8333333333333</ele><time>2026-03-22T09:30:20.226Z</time></trkpt><trkpt lat="43.4993267" lon="11.46645"><ele>515.0</ele><time>2026-03-22T09:30:22.225Z</time></trkpt><trkpt lat="43.499255" lon="11.4663817"><ele>515.0</ele><time>2026-03-22T09:30:24.225Z</time></trkpt><trkpt lat="43.4991833" lon="11.4663233"><ele>515.0</ele><time>2026-03-22T09:30:26.226Z</time></trkpt><trkpt lat="43.49911" lon="11.466255"><ele>515.0</ele><time>2026-03-22T09:30:28.225Z</time></trkpt><trkpt lat="43.4990367" lon="11.466215"><ele>515.0</ele><time>2026-03-22T09:30:30.224Z</time></trkpt><trkpt lat="43.4989483" lon="11.46618"><ele>515.0</ele><time>2026-03-22T09:30:32.229Z</time></trkpt><trkpt lat="43.4988583" lon="11.4661433"><ele>515.0</ele><time>2026-03-22T09:30:34.224Z</time></trkpt><trkpt lat="43.49877" lon="11.466105"><ele>516.8333333333333</ele><time>2026-03-22T09:30:36.225Z</time></trkpt><trkpt lat="43.4986817" lon="11.4660917"><ele>518.6666666666666</ele><time>2026-03-22T09:30:38.226Z</time></trkpt><trkpt lat="43.4986067" lon="11.4660917"><ele>520.5</ele><time>2026-03-22T09:30:40.224Z</time></trkpt><trkpt lat="43.49854" lon="11.4660983"><ele>522.3333333333334</ele><time>2026-03-22T09:30:42.225Z</time></trkpt><trkpt lat="43.4984567" lon="11.4661067"><ele>524.1666666666667</ele><time>2026-03-22T09:30:44.225Z</time></trkpt><trkpt lat="43.4983667" lon="11.466105"><ele>526.0</ele><time>2026-03-22T09:30:46.223Z</time></trkpt><trkpt lat="43.4982867" lon="11.4661017"><ele>526.0</ele><time>2026-03-22T09:30:48.224Z</time></trkpt><trkpt lat="43.4982" lon="11.4660817"><ele>526.0</ele><time>2026-03-22T09:30:50.224Z</time></trkpt><trkpt lat="43.49812" lon="11.4660217"><ele>526.0</ele><time>2026-03-22T09:30:52.221Z</time></trkpt><trkpt lat="43.4980417" lon="11.4659483"><ele>526.0</ele><time>2026-03-22T09:30:54.226Z</time></trkpt><trkpt lat="43.4979667" lon="11.465875"><ele>526.0</ele><time>2026-03-22T09:30:56.226Z</time></trkpt><trkpt lat="43.4978967" lon="11.465815"><ele>526.0</ele><time>2026-03-22T09:30:58.224Z</time></trkpt><trkpt lat="43.4978167" lon="11.4657583"><ele>525.6666666666667</ele><time>2026-03-22T09:31:00.225Z</time></trkpt><trkpt lat="43.497735" lon="11.4657183"><ele>525.3333333333334</ele><time>2026-03-22T09:31:02.227Z</time></trkpt><trkpt lat="43.4976467" lon="11.46571"><ele>525.0</ele><time>2026-03-22T09:31:04.224Z</time></trkpt><trkpt lat="43.4975567" lon="11.4656917"><ele>524.6666666666666</ele><time>2026-03-22T09:31:06.225Z</time></trkpt><trkpt lat="43.497465" lon="11.4656983"><ele>524.3333333333333</ele><time>2026-03-22T09:31:08.225Z</time></trkpt><trkpt lat="43.4973767" lon="11.4656917"><ele>524.0</ele><time>2026-03-22T09:31:10.224Z</time></trkpt><trkpt lat="43.4973" lon="11.4656433"><ele>524.0</ele><time>2026-03-22T09:31:12.226Z</time></trkpt><trkpt lat="43.49722" lon="11.4655683"><ele>524.0</ele><time>2026-03-22T09:31:14.225Z</time></trkpt><trkpt lat="43.49715" lon="11.4654967"><ele>524.0</ele><time>2026-03-22T09:31:16.224Z</time></trkpt><trkpt lat="43.49708" lon="11.4654417"><ele>524.0</ele><time>2026-03-22T09:31:18.225Z</time></trkpt><trkpt lat="43.4970033" lon="11.46538"><ele>524.0</ele><time>2026-03-22T09:31:20.226Z</time></trkpt><trkpt lat="43.496925" lon="11.4653183"><ele>524.0</ele><time>2026-03-22T09:31:22.225Z</time></trkpt><trkpt lat="43.49685" lon="11.4652583"><ele>526.1666666666666</ele><time>2026-03-22T09:31:24.226Z</time></trkpt><trkpt lat="43.496775" lon="11.4652"><ele>528.3333333333333</ele><time>2026-03-22T09:31:26.226Z</time></trkpt><trkpt lat="43.4967033" lon="11.4651433"><ele>530.5</ele><time>2026-03-22T09:31:28.224Z</time></trkpt><trkpt lat="43.4966317" lon="11.4650767"><ele>532.6666666666666</ele><time>2026-03-22T09:31:30.226Z</time></trkpt><trkpt lat="43.49657" lon="11.4650033"><ele>534.8333333333334</ele><time>2026-03-22T09:31:32.225Z</time></trkpt><trkpt lat="43.4965033" lon="11.4649283"><ele>537.0</ele><time>2026-03-22T09:31:34.227Z</time></trkpt><trkpt lat="43.4964367" lon="11.4648733"><ele>537.0</ele><time>2026-03-22T09:31:36.228Z</time></trkpt><trkpt lat="43.496355" lon="11.46484"><ele>537.0</ele><time>2026-03-22T09:31:38.23Z</time></trkpt><trkpt lat="43.4962717" lon="11.4648183"><ele>537.0</ele><time>2026-03-22T09:31:40.225Z</time></trkpt><trkpt lat="43.49619" lon="11.4647667"><ele>537.0</ele><time>2026-03-22T09:31:42.226Z</time></trkpt><trkpt lat="43.4961117" lon="11.4646883"><ele>537.0</ele><time>2026-03-22T09:31:44.226Z</time></trkpt><trkpt lat="43.4960383" lon="11.4646083"><ele>537.8000000000001</ele><time>2026-03-22T09:31:46.227Z</time></trkpt><trkpt lat="43.4959733" lon="11.4645167"><ele>538.6</ele><time>2026-03-22T09:31:48.227Z</time></trkpt><trkpt lat="43.4959067" lon="11.4644267"><ele>539.4000000000001</ele><time>2026-03-22T09:31:50.225Z</time></trkpt><trkpt lat="43.4958433" lon="11.464335"><ele>540.2</ele><time>2026-03-22T09:31:52.226Z</time></trkpt><trkpt lat="43.49578" lon="11.46425"><ele>541.0</ele><time>2026-03-22T09:31:54.226Z</time></trkpt><trkpt lat="43.4957117" lon="11.46417"><ele>541.0</ele><time>2026-03-22T09:31:56.227Z</time></trkpt><trkpt lat="43.49564" lon="11.46409"><ele>541.0</ele><time>2026-03-22T09:31:58.226Z</time></trkpt><trkpt lat="43.495565" lon="11.4640133"><ele>541.0</ele><time>2026-03-22T09:32:00.226Z</time></trkpt><trkpt lat="43.4954883" lon="11.46393"><ele>541.0</ele><time>2026-03-22T09:32:02.225Z</time></trkpt><trkpt lat="43.4954133" lon="11.4638467"><ele>541.0</ele><time>2026-03-22T09:32:04.224Z</time></trkpt><trkpt lat="43.495335" lon="11.4637567"><ele>541.2</ele><time>2026-03-22T09:32:06.227Z</time></trkpt><trkpt lat="43.495245" lon="11.4636783"><ele>541.4000000000001</ele><time>2026-03-22T09:32:08.226Z</time></trkpt><trkpt lat="43.495155" lon="11.4636"><ele>541.6</ele><time>2026-03-22T09:32:10.225Z</time></trkpt><trkpt lat="43.4950717" lon="11.463525"><ele>541.8000000000001</ele><time>2026-03-22T09:32:12.228Z</time></trkpt><trkpt lat="43.4949917" lon="11.4634483"><ele>542.0</ele><time>2026-03-22T09:32:14.228Z</time></trkpt><trkpt lat="43.4949033" lon="11.463385"><ele>542.0</ele><time>2026-03-22T09:32:16.225Z</time></trkpt><trkpt lat="43.4948133" lon="11.4633067"><ele>542.0</ele><time>2026-03-22T09:32:18.227Z</time></trkpt><trkpt lat="43.4947217" lon="11.4632283"><ele>542.0</ele><time>2026-03-22T09:32:20.227Z</time></trkpt><trkpt lat="43.494635" lon="11.463135"><ele>542.0</ele><time>2026-03-22T09:32:22.227Z</time></trkpt><trkpt lat="43.494555" lon="11.4630267"><ele>542.0</ele><time>2026-03-22T09:32:24.226Z</time></trkpt><trkpt lat="43.49448" lon="11.46291"><ele>543.4</ele><time>2026-03-22T09:32:26.226Z</time></trkpt><trkpt lat="43.4944117" lon="11.4627917"><ele>544.8000000000001</ele><time>2026-03-22T09:32:28.225Z</time></trkpt><trkpt lat="43.494355" lon="11.4626583"><ele>546.2</ele><time>2026-03-22T09:32:30.226Z</time></trkpt><trkpt lat="43.4942933" lon="11.462535"><ele>547.6</ele><time>2026-03-22T09:32:32.227Z</time></trkpt><trkpt lat="43.49423" lon="11.4624117"><ele>549.0</ele><time>2026-03-22T09:32:34.226Z</time></trkpt><trkpt lat="43.4941617" lon="11.4622917"><ele>549.0</ele><time>2026-03-22T09:32:36.226Z</time></trkpt><trkpt lat="43.49408" lon="11.4621767"><ele>549.0</ele><time>2026-03-22T09:32:38.228Z</time></trkpt><trkpt lat="43.4939933" lon="11.46207"><ele>549.0</ele><time>2026-03-22T09:32:40.226Z</time></trkpt><trkpt lat="43.4939" lon="11.4619717"><ele>549.0</ele><time>2026-03-22T09:32:42.226Z</time></trkpt><trkpt lat="43.493795" lon="11.461875"><ele>549.5714285714286</ele><time>2026-03-22T09:32:44.226Z</time></trkpt><trkpt lat="43.49374" lon="11.4618267"><ele>550.1428571428571</ele><time>2026-03-22T09:32:45.228Z</time></trkpt><trkpt lat="43.4936767" lon="11.4617833"><ele>550.7142857142858</ele><time>2026-03-22T09:32:46.228Z</time></trkpt><trkpt lat="43.4936133" lon="11.4617433"><ele>551.2857142857142</ele><time>2026-03-22T09:32:47.225Z</time></trkpt><trkpt lat="43.493555" lon="11.461695"><ele>551.8571428571429</ele><time>2026-03-22T09:32:48.226Z</time></trkpt><trkpt lat="43.4934933" lon="11.46165"><ele>552.4285714285714</ele><time>2026-03-22T09:32:49.226Z</time></trkpt><trkpt lat="43.4934317" lon="11.4616033"><ele>553.0</ele><time>2026-03-22T09:32:50.225Z</time></trkpt><trkpt lat="43.4933667" lon="11.46156"><ele>553.0</ele><time>2026-03-22T09:32:51.225Z</time></trkpt><trkpt lat="43.493305" lon="11.461505"><ele>553.0</ele><time>2026-03-22T09:32:52.226Z</time></trkpt><trkpt lat="43.4932417" lon="11.4614467"><ele>553.0</ele><time>2026-03-22T09:32:53.226Z</time></trkpt><trkpt lat="43.49318" lon="11.4613767"><ele>553.0</ele><time>2026-03-22T09:32:54.229Z</time></trkpt><trkpt lat="43.493125" lon="11.4613017"><ele>553.0</ele><time>2026-03-22T09:32:55.225Z</time></trkpt><trkpt lat="43.49307" lon="11.4612167"><ele>553.0</ele><time>2026-03-22T09:32:56.225Z</time></trkpt><trkpt lat="43.493015" lon="11.4611433"><ele>553.0</ele><time>2026-03-22T09:32:57.226Z</time></trkpt><trkpt lat="43.49296" lon="11.4610733"><ele>553.0</ele><time>2026-03-22T09:32:58.225Z</time></trkpt><trkpt lat="43.4928967" lon="11.4610133"><ele>553.0</ele><time>2026-03-22T09:32:59.227Z</time></trkpt><trkpt lat="43.4928267" lon="11.4609617"><ele>553.0</ele><time>2026-03-22T09:33:00.226Z</time></trkpt><trkpt lat="43.4927533" lon="11.4609217"><ele>553.0</ele><time>2026-03-22T09:33:01.226Z</time></trkpt><trkpt lat="43.49268" lon="11.4608967"><ele>553.0</ele><time>2026-03-22T09:33:02.226Z</time></trkpt><trkpt lat="43.4926033" lon="11.46087"><ele>553.0</ele><time>2026-03-22T09:33:03.226Z</time></trkpt><trkpt lat="43.4925267" lon="11.4608417"><ele>553.0</ele><time>2026-03-22T09:33:04.226Z</time></trkpt><trkpt lat="43.4924517" lon="11.4608017"><ele>553.0</ele><time>2026-03-22T09:33:05.227Z</time></trkpt><trkpt lat="43.4923767" lon="11.4607517"><ele>553.0</ele><time>2026-03-22T09:33:06.225Z</time></trkpt><trkpt lat="43.4923133" lon="11.4606933"><ele>553.0</ele><time>2026-03-22T09:33:07.228Z</time></trkpt><trkpt lat="43.4922533" lon="11.4606217"><ele>553.0</ele><time>2026-03-22T09:33:08.228Z</time></trkpt><trkpt lat="43.4921983" lon="11.4605383"><ele>554.1666666666667</ele><time>2026-03-22T09:33:09.228Z</time></trkpt><trkpt lat="43.4921517" lon="11.460445"><ele>555.3333333333334</ele><time>2026-03-22T09:33:10.226Z</time></trkpt><trkpt lat="43.4921083" lon="11.4603533"><ele>556.5</ele><time>2026-03-22T09:33:11.226Z</time></trkpt><trkpt lat="43.4920717" lon="11.460255"><ele>557.6666666666666</ele><time>2026-03-22T09:33:12.226Z</time></trkpt><trkpt lat="43.49203" lon="11.46016"><ele>558.8333333333333</ele><time>2026-03-22T09:33:13.226Z</time></trkpt><trkpt lat="43.4919867" lon="11.4600717"><ele>560.0</ele><time>2026-03-22T09:33:14.225Z</time></trkpt><trkpt lat="43.4919367" lon="11.4599833"><ele>560.0</ele><time>2026-03-22T09:33:15.226Z</time></trkpt><trkpt lat="43.491885" lon="11.4599033"><ele>560.0</ele><time>2026-03-22T09:33:16.226Z</time></trkpt><trkpt lat="43.4918283" lon="11.4598267"><ele>560.0</ele><time>2026-03-22T09:33:17.228Z</time></trkpt><trkpt lat="43.4917717" lon="11.4597533"><ele>560.0</ele><time>2026-03-22T09:33:18.226Z</time></trkpt><trkpt lat="43.4917133" lon="11.4596817"><ele>560.0</ele><time>2026-03-22T09:33:19.227Z</time></trkpt><trkpt lat="43.49165" lon="11.459615"><ele>560.0</ele><time>2026-03-22T09:33:20.226Z</time></trkpt><trkpt lat="43.4915883" lon="11.4595417"><ele>558.3333333333333</ele><time>2026-03-22T09:33:21.228Z</time></trkpt><trkpt lat="43.491525" lon="11.45947"><ele>556.6666666666666</ele><time>2026-03-22T09:33:22.226Z</time></trkpt><trkpt lat="43.4914617" lon="11.45941"><ele>555.0</ele><time>2026-03-22T09:33:23.228Z</time></trkpt><trkpt lat="43.4913833" lon="11.4593617"><ele>553.3333333333334</ele><time>2026-03-22T09:33:24.226Z</time></trkpt><trkpt lat="43.4912983" lon="11.45932"><ele>551.6666666666667</ele><time>2026-03-22T09:33:25.227Z</time></trkpt><trkpt lat="43.4912067" lon="11.4592833"><ele>550.0</ele><time>2026-03-22T09:33:26.227Z</time></trkpt><trkpt lat="43.4911083" lon="11.4592533"><ele>550.0</ele><time>2026-03-22T09:33:27.225Z</time></trkpt><trkpt lat="43.49101" lon="11.459225"><ele>550.0</ele><time>2026-03-22T09:33:28.229Z</time></trkpt><trkpt lat="43.4909067" lon="11.4592083"><ele>550.0</ele><time>2026-03-22T09:33:29.226Z</time></trkpt><trkpt lat="43.4908083" lon="11.459175"><ele>550.0</ele><time>2026-03-22T09:33:30.226Z</time></trkpt><trkpt lat="43.4907083" lon="11.45915"><ele>550.0</ele><time>2026-03-22T09:33:31.227Z</time></trkpt><trkpt lat="43.4906033" lon="11.4591483"><ele>550.0</ele><time>2026-03-22T09:33:32.226Z</time></trkpt><trkpt lat="43.4904983" lon="11.459165"><ele>550.0</ele><time>2026-03-22T09:33:33.228Z</time></trkpt><trkpt lat="43.4903967" lon="11.4591917"><ele>550.0</ele><time>2026-03-22T09:33:34.227Z</time></trkpt><trkpt lat="43.4902967" lon="11.4592333"><ele>550.0</ele><time>2026-03-22T09:33:35.226Z</time></trkpt><trkpt lat="43.490195" lon="11.4592867"><ele>550.0</ele><time>2026-03-22T09:33:36.226Z</time></trkpt><trkpt lat="43.4900883" lon="11.4593233"><ele>550.0</ele><time>2026-03-22T09:33:37.227Z</time></trkpt><trkpt lat="43.4899783" lon="11.4593333"><ele>550.0</ele><time>2026-03-22T09:33:38.226Z</time></trkpt><trkpt lat="43.4898733" lon="11.4593167"><ele>550.0</ele><time>2026-03-22T09:33:39.228Z</time></trkpt><trkpt lat="43.4897667" lon="11.4592883"><ele>550.0</ele><time>2026-03-22T09:33:40.228Z</time></trkpt><trkpt lat="43.48966" lon="11.4592483"><ele>550.0</ele><time>2026-03-22T09:33:41.225Z</time></trkpt><trkpt lat="43.4895517" lon="11.4592217"><ele>550.0</ele><time>2026-03-22T09:33:42.226Z</time></trkpt><trkpt lat="43.4894417" lon="11.4592017"><ele>550.0</ele><time>2026-03-22T09:33:43.224Z</time></trkpt><trkpt lat="43.48933" lon="11.4591867"><ele>550.0</ele><time>2026-03-22T09:33:44.225Z</time></trkpt><trkpt lat="43.4892183" lon="11.459175"><ele>550.0</ele><time>2026-03-22T09:33:45.226Z</time></trkpt><trkpt lat="43.4890967" lon="11.459175"><ele>550.0</ele><time>2026-03-22T09:33:46.225Z</time></trkpt><trkpt lat="43.4889733" lon="11.4591683"><ele>550.0</ele><time>2026-03-22T09:33:47.225Z</time></trkpt><trkpt lat="43.48886" lon="11.4591517"><ele>550.0</ele><time>2026-03-22T09:33:48.224Z</time></trkpt><trkpt lat="43.4887483" lon="11.4591367"><ele>550.0</ele><time>2026-03-22T09:33:49.227Z</time></trkpt><trkpt lat="43.4886367" lon="11.459125"><ele>549.8</ele><time>2026-03-22T09:33:50.225Z</time></trkpt><trkpt lat="43.4885267" lon="11.4591167"><ele>549.6</ele><time>2026-03-22T09:33:51.226Z</time></trkpt><trkpt lat="43.48842" lon="11.4591267"><ele>549.4</ele><time>2026-03-22T09:33:52.225Z</time></trkpt><trkpt lat="43.4883167" lon="11.4591533"><ele>549.2</ele><time>2026-03-22T09:33:53.225Z</time></trkpt><trkpt lat="43.4882183" lon="11.4592033"><ele>549.0</ele><time>2026-03-22T09:33:54.225Z</time></trkpt><trkpt lat="43.488125" lon="11.4592483"><ele>549.0</ele><time>2026-03-22T09:33:55.226Z</time></trkpt><trkpt lat="43.4880283" lon="11.4592683"><ele>549.0</ele><time>2026-03-22T09:33:56.226Z</time></trkpt><trkpt lat="43.4879467" lon="11.4592433"><ele>549.0</ele><time>2026-03-22T09:33:57.224Z</time></trkpt><trkpt lat="43.4878717" lon="11.45917"><ele>549.0</ele><time>2026-03-22T09:33:58.224Z</time></trkpt><trkpt lat="43.4878067" lon="11.4590733"><ele>549.0</ele><time>2026-03-22T09:33:59.226Z</time></trkpt><trkpt lat="43.4877483" lon="11.458965"><ele>549.8333333333334</ele><time>2026-03-22T09:34:00.226Z</time></trkpt><trkpt lat="43.4876983" lon="11.45886"><ele>550.6666666666666</ele><time>2026-03-22T09:34:01.227Z</time></trkpt><trkpt lat="43.48765" lon="11.458755"><ele>551.5</ele><time>2026-03-22T09:34:02.227Z</time></trkpt><trkpt lat="43.4876117" lon="11.4586483"><ele>552.3333333333333</ele><time>2026-03-22T09:34:03.224Z</time></trkpt><trkpt lat="43.487575" lon="11.4585517"><ele>553.1666666666666</ele><time>2026-03-22T09:34:04.224Z</time></trkpt><trkpt lat="43.4875467" lon="11.4584567"><ele>554.0</ele><time>2026-03-22T09:34:05.225Z</time></trkpt><trkpt lat="43.4875183" lon="11.4583667"><ele>554.0</ele><time>2026-03-22T09:34:06.225Z</time></trkpt><trkpt lat="43.48749" lon="11.4582833"><ele>554.0</ele><time>2026-03-22T09:34:07.225Z</time></trkpt><trkpt lat="43.487425" lon="11.458135"><ele>554.0</ele><time>2026-03-22T09:34:09.225Z</time></trkpt><trkpt lat="43.487345" lon="11.4580167"><ele>554.0</ele><time>2026-03-22T09:34:11.225Z</time></trkpt><trkpt lat="43.4872467" lon="11.457935"><ele>554.0</ele><time>2026-03-22T09:34:13.226Z</time></trkpt><trkpt lat="43.487145" lon="11.4578633"><ele>555.4</ele><time>2026-03-22T09:34:15.226Z</time></trkpt><trkpt lat="43.4870533" lon="11.45779"><ele>556.8</ele><time>2026-03-22T09:34:17.228Z</time></trkpt><trkpt lat="43.4869667" lon="11.4576933"><ele>558.2</ele><time>2026-03-22T09:34:19.225Z</time></trkpt><trkpt lat="43.4869033" lon="11.457565"><ele>559.6</ele><time>2026-03-22T09:34:21.225Z</time></trkpt><trkpt lat="43.4868867" lon="11.4574033"><ele>561.0</ele><time>2026-03-22T09:34:23.226Z</time></trkpt><trkpt lat="43.4869133" lon="11.4573167"><ele>561.0</ele><time>2026-03-22T09:34:24.227Z</time></trkpt><trkpt lat="43.4869833" lon="11.4571717"><ele>561.0</ele><time>2026-03-22T09:34:26.228Z</time></trkpt><trkpt lat="43.4870983" lon="11.45711"><ele>561.0</ele><time>2026-03-22T09:34:28.225Z</time></trkpt><trkpt lat="43.4872133" lon="11.45715"><ele>561.0</ele><time>2026-03-22T09:34:30.225Z</time></trkpt><trkpt lat="43.4873117" lon="11.4572183"><ele>560.3333333333334</ele><time>2026-03-22T09:34:32.227Z</time></trkpt><trkpt lat="43.48739" lon="11.457285"><ele>559.6666666666666</ele><time>2026-03-22T09:34:34.226Z</time></trkpt><trkpt lat="43.4874617" lon="11.4573433"><ele>559.0</ele><time>2026-03-22T09:34:36.225Z</time></trkpt><trkpt lat="43.48754" lon="11.4573917"><ele>558.3333333333333</ele><time>2026-03-22T09:34:38.226Z</time></trkpt><trkpt lat="43.4876167" lon="11.4574483"><ele>557.6666666666666</ele><time>2026-03-22T09:34:40.225Z</time></trkpt><trkpt lat="43.4876883" lon="11.4575183"><ele>557.0</ele><time>2026-03-22T09:34:42.227Z</time></trkpt><trkpt lat="43.4877583" lon="11.4575667"><ele>557.0</ele><time>2026-03-22T09:34:44.225Z</time></trkpt><trkpt lat="43.487835" lon="11.45761"><ele>557.0</ele><time>2026-03-22T09:34:46.226Z</time></trkpt><trkpt lat="43.4879217" lon="11.4576433"><ele>557.0</ele><time>2026-03-22T09:34:48.228Z</time></trkpt><trkpt lat="43.4880067" lon="11.4576667"><ele>557.0</ele><time>2026-03-22T09:34:50.226Z</time></trkpt><trkpt lat="43.4880983" lon="11.457685"><ele>557.0</ele><time>2026-03-22T09:34:52.225Z</time></trkpt><trkpt lat="43.4881883" lon="11.4577083"><ele>557.0</ele><time>2026-03-22T09:34:54.226Z</time></trkpt><trkpt lat="43.4882683" lon="11.4577167"><ele>557.8333333333333</ele><time>2026-03-22T09:34:56.226Z</time></trkpt><trkpt lat="43.4883433" lon="11.4577033"><ele>558.6666666666666</ele><time>2026-03-22T09:34:58.226Z</time></trkpt><trkpt lat="43.4884267" lon="11.4576667"><ele>559.5</ele><time>2026-03-22T09:35:00.225Z</time></trkpt><trkpt lat="43.4885117" lon="11.4575883"><ele>560.3333333333334</ele><time>2026-03-22T09:35:02.225Z</time></trkpt><trkpt lat="43.4885517" lon="11.4574783"><ele>561.1666666666667</ele><time>2026-03-22T09:35:04.224Z</time></trkpt><trkpt lat="43.4885483" lon="11.457375"><ele>562.0</ele><time>2026-03-22T09:35:06.224Z</time></trkpt><trkpt lat="43.4885317" lon="11.4572483"><ele>562.0</ele><time>2026-03-22T09:35:08.226Z</time></trkpt><trkpt lat="43.4885317" lon="11.4571217"><ele>562.0</ele><time>2026-03-22T09:35:10.225Z</time></trkpt><trkpt lat="43.4885367" lon="11.4569867"><ele>562.0</ele><time>2026-03-22T09:35:12.225Z</time></trkpt><trkpt lat="43.4885467" lon="11.456865"><ele>562.0</ele><time>2026-03-22T09:35:14.226Z</time></trkpt><trkpt lat="43.4885667" lon="11.4567383"><ele>562.0</ele><time>2026-03-22T09:35:16.224Z</time></trkpt><trkpt lat="43.4885883" lon="11.4566183"><ele>564.6</ele><time>2026-03-22T09:35:18.226Z</time></trkpt><trkpt lat="43.488605" lon="11.4564933"><ele>567.2</ele><time>2026-03-22T09:35:20.226Z</time></trkpt><trkpt lat="43.488625" lon="11.4563733"><ele>569.8</ele><time>2026-03-22T09:35:22.224Z</time></trkpt><trkpt lat="43.4886483" lon="11.456255"><ele>572.4</ele><time>2026-03-22T09:35:24.226Z</time></trkpt><trkpt lat="43.48867" lon="11.4561367"><ele>575.0</ele><time>2026-03-22T09:35:26.226Z</time></trkpt><trkpt lat="43.488695" lon="11.4560167"><ele>576.2</ele><time>2026-03-22T09:35:28.225Z</time></trkpt><trkpt lat="43.4887467" lon="11.4559017"><ele>577.4</ele><time>2026-03-22T09:35:30.226Z</time></trkpt><trkpt lat="43.4888383" lon="11.455865"><ele>578.6</ele><time>2026-03-22T09:35:32.226Z</time></trkpt><trkpt lat="43.4889183" lon="11.4559283"><ele>579.8</ele><time>2026-03-22T09:35:34.225Z</time></trkpt><trkpt lat="43.4889783" lon="11.4560317"><ele>581.0</ele><time>2026-03-22T09:35:36.224Z</time></trkpt><trkpt lat="43.4890133" lon="11.456145"><ele>581.0</ele><time>2026-03-22T09:35:38.224Z</time></trkpt><trkpt lat="43.4890383" lon="11.4562517"><ele>581.0</ele><time>2026-03-22T09:35:40.224Z</time></trkpt><trkpt lat="43.4890783" lon="11.4563567"><ele>581.0</ele><time>2026-03-22T09:35:42.226Z</time></trkpt><trkpt lat="43.4891417" lon="11.4564517"><ele>581.0</ele><time>2026-03-22T09:35:44.226Z</time></trkpt><trkpt lat="43.489205" lon="11.45653"><ele>581.0</ele><time>2026-03-22T09:35:46.225Z</time></trkpt><trkpt lat="43.4892817" lon="11.4565817"><ele>581.0</ele><time>2026-03-22T09:35:48.225Z</time></trkpt><trkpt lat="43.4893667" lon="11.4566117"><ele>579.1666666666666</ele><time>2026-03-22T09:35:50.226Z</time></trkpt><trkpt lat="43.489445" lon="11.456645"><ele>577.3333333333333</ele><time>2026-03-22T09:35:52.225Z</time></trkpt><trkpt lat="43.48953" lon="11.4566667"><ele>575.5</ele><time>2026-03-22T09:35:54.226Z</time></trkpt><trkpt lat="43.4896117" lon="11.4566817"><ele>573.6666666666666</ele><time>2026-03-22T09:35:56.228Z</time></trkpt><trkpt lat="43.4897017" lon="11.4566833"><ele>571.8333333333334</ele><time>2026-03-22T09:35:58.226Z</time></trkpt><trkpt lat="43.48978" lon="11.456665"><ele>570.0</ele><time>2026-03-22T09:36:00.228Z</time></trkpt><trkpt lat="43.4898617" lon="11.4566217"><ele>570.0</ele><time>2026-03-22T09:36:02.225Z</time></trkpt><trkpt lat="43.489925" lon="11.4565483"><ele>570.0</ele><time>2026-03-22T09:36:04.227Z</time></trkpt><trkpt lat="43.489985" lon="11.4564717"><ele>570.0</ele><time>2026-03-22T09:36:06.226Z</time></trkpt><trkpt lat="43.4900417" lon="11.4563767"><ele>570.0</ele><time>2026-03-22T09:36:08.225Z</time></trkpt><trkpt lat="43.4900967" lon="11.4562733"><ele>570.0</ele><time>2026-03-22T09:36:10.225Z</time></trkpt><trkpt lat="43.4901467" lon="11.4561933"><ele>570.0</ele><time>2026-03-22T09:36:12.226Z</time></trkpt><trkpt lat="43.4901967" lon="11.4561017"><ele>572.3333333333334</ele><time>2026-03-22T09:36:14.225Z</time></trkpt><trkpt lat="43.490245" lon="11.4560067"><ele>574.6666666666666</ele><time>2026-03-22T09:36:16.224Z</time></trkpt><trkpt lat="43.4902883" lon="11.4559133"><ele>577.0</ele><time>2026-03-22T09:36:18.225Z</time></trkpt><trkpt lat="43.49033" lon="11.455815"><ele>579.3333333333333</ele><time>2026-03-22T09:36:20.226Z</time></trkpt><trkpt lat="43.4903617" lon="11.45571"><ele>581.6666666666666</ele><time>2026-03-22T09:36:22.227Z</time></trkpt><trkpt lat="43.4903767" lon="11.4556033"><ele>584.0</ele><time>2026-03-22T09:36:24.225Z</time></trkpt><trkpt lat="43.4903817" lon="11.4555"><ele>585.6666666666666</ele><time>2026-03-22T09:36:26.227Z</time></trkpt><trkpt lat="43.490375" lon="11.4553817"><ele>587.3333333333333</ele><time>2026-03-22T09:36:28.226Z</time></trkpt><trkpt lat="43.4903533" lon="11.455265"><ele>589.0</ele><time>2026-03-22T09:36:30.227Z</time></trkpt><trkpt lat="43.49031" lon="11.4551583"><ele>590.6666666666666</ele><time>2026-03-22T09:36:32.226Z</time></trkpt><trkpt lat="43.4902717" lon="11.4550433"><ele>592.3333333333334</ele><time>2026-03-22T09:36:34.225Z</time></trkpt><trkpt lat="43.4902417" lon="11.45492"><ele>594.0</ele><time>2026-03-22T09:36:36.227Z</time></trkpt><trkpt lat="43.490205" lon="11.4548117"><ele>594.0</ele><time>2026-03-22T09:36:38.226Z</time></trkpt><trkpt lat="43.4901733" lon="11.4547067"><ele>594.0</ele><time>2026-03-22T09:36:40.226Z</time></trkpt><trkpt lat="43.4901367" lon="11.4545983"><ele>594.0</ele><time>2026-03-22T09:36:42.228Z</time></trkpt><trkpt lat="43.49011" lon="11.45448"><ele>594.0</ele><time>2026-03-22T09:36:44.226Z</time></trkpt><trkpt lat="43.49009" lon="11.454355"><ele>594.0</ele><time>2026-03-22T09:36:46.225Z</time></trkpt><trkpt lat="43.4900767" lon="11.4542467"><ele>594.0</ele><time>2026-03-22T09:36:48.227Z</time></trkpt><trkpt lat="43.4900867" lon="11.454125"><ele>595.4</ele><time>2026-03-22T09:36:50.227Z</time></trkpt><trkpt lat="43.4901117" lon="11.4540017"><ele>596.8</ele><time>2026-03-22T09:36:52.226Z</time></trkpt><trkpt lat="43.490145" lon="11.453875"><ele>598.2</ele><time>2026-03-22T09:36:54.227Z</time></trkpt><trkpt lat="43.49019" lon="11.4537467"><ele>599.6</ele><time>2026-03-22T09:36:56.226Z</time></trkpt><trkpt lat="43.4902433" lon="11.4536283"><ele>601.0</ele><time>2026-03-22T09:36:58.227Z</time></trkpt><trkpt lat="43.490295" lon="11.4535067"><ele>601.0</ele><time>2026-03-22T09:37:00.226Z</time></trkpt><trkpt lat="43.49031" lon="11.4533617"><ele>601.0</ele><time>2026-03-22T09:37:02.228Z</time></trkpt><trkpt lat="43.4902883" lon="11.4532233"><ele>601.0</ele><time>2026-03-22T09:37:04.226Z</time></trkpt><trkpt lat="43.4902233" lon="11.4531067"><ele>601.0</ele><time>2026-03-22T09:37:06.227Z</time></trkpt><trkpt lat="43.4901367" lon="11.4529983"><ele>601.0</ele><time>2026-03-22T09:37:08.226Z</time></trkpt><trkpt lat="43.4900567" lon="11.4528867"><ele>600.1666666666667</ele><time>2026-03-22T09:37:10.225Z</time></trkpt><trkpt lat="43.489975" lon="11.4527583"><ele>599.3333333333334</ele><time>2026-03-22T09:37:12.226Z</time></trkpt><trkpt lat="43.4899383" lon="11.452685"><ele>598.5</ele><time>2026-03-22T09:37:13.228Z</time></trkpt><trkpt lat="43.4898867" lon="11.4525317"><ele>597.6666666666666</ele><time>2026-03-22T09:37:15.228Z</time></trkpt><trkpt lat="43.4898617" lon="11.45245"><ele>596.8333333333333</ele><time>2026-03-22T09:37:16.226Z</time></trkpt><trkpt lat="43.4898433" lon="11.4523583"><ele>596.0</ele><time>2026-03-22T09:37:17.226Z</time></trkpt><trkpt lat="43.48982" lon="11.4522683"><ele>596.0</ele><time>2026-03-22T09:37:18.226Z</time></trkpt><trkpt lat="43.4898" lon="11.4521783"><ele>596.0</ele><time>2026-03-22T09:37:19.227Z</time></trkpt><trkpt lat="43.48978" lon="11.45209"><ele>596.0</ele><time>2026-03-22T09:37:20.226Z</time></trkpt><trkpt lat="43.4897583" lon="11.4520033"><ele>596.0</ele><time>2026-03-22T09:37:21.229Z</time></trkpt><trkpt lat="43.4897383" lon="11.4519133"><ele>596.0</ele><time>2026-03-22T09:37:22.226Z</time></trkpt><trkpt lat="43.489715" lon="11.4518233"><ele>596.0</ele><time>2026-03-22T09:37:23.226Z</time></trkpt><trkpt lat="43.4896933" lon="11.4517317"><ele>596.0</ele><time>2026-03-22T09:37:24.226Z</time></trkpt><trkpt lat="43.4896683" lon="11.4516383"><ele>595.5714285714286</ele><time>2026-03-22T09:37:25.227Z</time></trkpt><trkpt lat="43.4896433" lon="11.45155"><ele>595.1428571428571</ele><time>2026-03-22T09:37:26.227Z</time></trkpt><trkpt lat="43.4896183" lon="11.4514633"><ele>594.7142857142857</ele><time>2026-03-22T09:37:27.225Z</time></trkpt><trkpt lat="43.4895933" lon="11.4513733"><ele>594.2857142857142</ele><time>2026-03-22T09:37:28.225Z</time></trkpt><trkpt lat="43.48957" lon="11.4512783"><ele>593.8571428571429</ele><time>2026-03-22T09:37:29.226Z</time></trkpt><trkpt lat="43.4895433" lon="11.45119"><ele>593.4285714285713</ele><time>2026-03-22T09:37:30.226Z</time></trkpt><trkpt lat="43.4895183" lon="11.451105"><ele>593.0</ele><time>2026-03-22T09:37:31.228Z</time></trkpt><trkpt lat="43.489495" lon="11.4510233"><ele>593.0</ele><time>2026-03-22T09:37:32.226Z</time></trkpt><trkpt lat="43.4894717" lon="11.4509417"><ele>593.0</ele><time>2026-03-22T09:37:33.226Z</time></trkpt><trkpt lat="43.489445" lon="11.4507817"><ele>593.0</ele><time>2026-03-22T09:37:35.227Z</time></trkpt><trkpt lat="43.4894683" lon="11.45063"><ele>593.0</ele><time>2026-03-22T09:37:37.226Z</time></trkpt><trkpt lat="43.48955" lon="11.45053"><ele>593.0</ele><time>2026-03-22T09:37:39.227Z</time></trkpt><trkpt lat="43.4896583" lon="11.4504633"><ele>593.0</ele><time>2026-03-22T09:37:41.225Z</time></trkpt><trkpt lat="43.48978" lon="11.4504317"><ele>593.0</ele><time>2026-03-22T09:37:43.228Z</time></trkpt><trkpt lat="43.489895" lon="11.450425"><ele>593.0</ele><time>2026-03-22T09:37:45.227Z</time></trkpt><trkpt lat="43.490005" lon="11.4504517"><ele>593.0</ele><time>2026-03-22T09:37:47.226Z</time></trkpt><trkpt lat="43.4901033" lon="11.4504783"><ele>593.0</ele><time>2026-03-22T09:37:49.225Z</time></trkpt><trkpt lat="43.4901983" lon="11.4505083"><ele>593.0</ele><time>2026-03-22T09:37:51.227Z</time></trkpt><trkpt lat="43.4902917" lon="11.4505183"><ele>593.0</ele><time>2026-03-22T09:37:53.228Z</time></trkpt><trkpt lat="43.4903733" lon="11.4505017"><ele>593.0</ele><time>2026-03-22T09:37:55.225Z</time></trkpt><trkpt lat="43.4904533" lon="11.450495"><ele>593.0</ele><time>2026-03-22T09:37:57.225Z</time></trkpt><trkpt lat="43.4905317" lon="11.4504867"><ele>593.0</ele><time>2026-03-22T09:37:59.226Z</time></trkpt><trkpt lat="43.4906183" lon="11.45047"><ele>597.1666666666666</ele><time>2026-03-22T09:38:01.227Z</time></trkpt><trkpt lat="43.4907033" lon="11.4504317"><ele>601.3333333333333</ele><time>2026-03-22T09:38:03.226Z</time></trkpt><trkpt lat="43.49077" lon="11.4503633"><ele>605.5</ele><time>2026-03-22T09:38:05.226Z</time></trkpt><trkpt lat="43.4908167" lon="11.450265"><ele>609.6666666666666</ele><time>2026-03-22T09:38:07.225Z</time></trkpt><trkpt lat="43.490825" lon="11.4501567"><ele>613.8333333333334</ele><time>2026-03-22T09:38:09.229Z</time></trkpt><trkpt lat="43.490785" lon="11.450065"><ele>618.0</ele><time>2026-03-22T09:38:11.226Z</time></trkpt><trkpt lat="43.4907133" lon="11.450015"><ele>618.0</ele><time>2026-03-22T09:38:13.229Z</time></trkpt><trkpt lat="43.490625" lon="11.4500017"><ele>618.0</ele><time>2026-03-22T09:38:15.225Z</time></trkpt><trkpt lat="43.49054" lon="11.450015"><ele>618.0</ele><time>2026-03-22T09:38:17.225Z</time></trkpt><trkpt lat="43.4904533" lon="11.45004"><ele>618.0</ele><time>2026-03-22T09:38:19.228Z</time></trkpt><trkpt lat="43.4903667" lon="11.450045"><ele>618.0</ele><time>2026-03-22T09:38:21.227Z</time></trkpt><trkpt lat="43.4902783" lon="11.4499917"><ele>618.0</ele><time>2026-03-22T09:38:23.227Z</time></trkpt><trkpt lat="43.4901983" lon="11.449915"><ele>618.1999999999999</ele><time>2026-03-22T09:38:25.224Z</time></trkpt><trkpt lat="43.4901183" lon="11.4498283"><ele>618.4</ele><time>2026-03-22T09:38:27.226Z</time></trkpt><trkpt lat="43.49004" lon="11.4497517"><ele>618.5999999999999</ele><time>2026-03-22T09:38:29.227Z</time></trkpt><trkpt lat="43.4899683" lon="11.4496717"><ele>618.8</ele><time>2026-03-22T09:38:31.226Z</time></trkpt><trkpt lat="43.4899" lon="11.44959"><ele>619.0</ele><time>2026-03-22T09:38:33.227Z</time></trkpt><trkpt lat="43.48985" lon="11.4494917"><ele>619.0</ele><time>2026-03-22T09:38:35.226Z</time></trkpt><trkpt lat="43.4898333" lon="11.4493783"><ele>619.0</ele><time>2026-03-22T09:38:37.225Z</time></trkpt><trkpt lat="43.4898267" lon="11.449265"><ele>619.0</ele><time>2026-03-22T09:38:39.225Z</time></trkpt><trkpt lat="43.4898283" lon="11.4491767"><ele>619.0</ele><time>2026-03-22T09:38:41.226Z</time></trkpt><trkpt lat="43.4898367" lon="11.4490867"><ele>619.0</ele><time>2026-03-22T09:38:43.226Z</time></trkpt><trkpt lat="43.4898517" lon="11.4490017"><ele>619.0</ele><time>2026-03-22T09:38:45.226Z</time></trkpt><trkpt lat="43.4898567" lon="11.448915"><ele>619.0</ele><time>2026-03-22T09:38:47.224Z</time></trkpt><trkpt lat="43.4898667" lon="11.4487817"><ele>620.7142857142857</ele><time>2026-03-22T09:38:50.223Z</time></trkpt><trkpt lat="43.4898767" lon="11.4486883"><ele>622.4285714285714</ele><time>2026-03-22T09:38:52.222Z</time></trkpt><trkpt lat="43.4898817" lon="11.4485817"><ele>624.1428571428571</ele><time>2026-03-22T09:38:54.223Z</time></trkpt><trkpt lat="43.48986" lon="11.4484817"><ele>625.8571428571429</ele><time>2026-03-22T09:38:56.225Z</time></trkpt><trkpt lat="43.4898217" lon="11.4484"><ele>627.5714285714286</ele><time>2026-03-22T09:38:58.224Z</time></trkpt><trkpt lat="43.4897733" lon="11.4483417"><ele>629.2857142857143</ele><time>2026-03-22T09:39:00.225Z</time></trkpt><trkpt lat="43.4897133" lon="11.448285"><ele>631.0</ele><time>2026-03-22T09:39:02.225Z</time></trkpt><trkpt lat="43.4896633" lon="11.4482267"><ele>631.0</ele><time>2026-03-22T09:39:04.225Z</time></trkpt><trkpt lat="43.48961" lon="11.4481717"><ele>631.0</ele><time>2026-03-22T09:39:06.225Z</time></trkpt><trkpt lat="43.4895517" lon="11.448075"><ele>631.0</ele><time>2026-03-22T09:39:09.225Z</time></trkpt><trkpt lat="43.489495" lon="11.4479817"><ele>631.0</ele><time>2026-03-22T09:39:12.226Z</time></trkpt><trkpt lat="43.489445" lon="11.447925"><ele>631.0</ele><time>2026-03-22T09:39:14.225Z</time></trkpt><trkpt lat="43.4893817" lon="11.447895"><ele>631.0</ele><time>2026-03-22T09:39:16.226Z</time></trkpt><trkpt lat="43.489315" lon="11.447885"><ele>631.0</ele><time>2026-03-22T09:39:18.225Z</time></trkpt><trkpt lat="43.489225" lon="11.4478683"><ele>632.1666666666667</ele><time>2026-03-22T09:39:21.225Z</time></trkpt><trkpt lat="43.48916" lon="11.447855"><ele>633.3333333333334</ele><time>2026-03-22T09:39:23.225Z</time></trkpt><trkpt lat="43.4890733" lon="11.4478267"><ele>634.5</ele><time>2026-03-22T09:39:26.226Z</time></trkpt><trkpt lat="43.4889933" lon="11.4477683"><ele>635.6666666666666</ele><time>2026-03-22T09:39:29.224Z</time></trkpt><trkpt lat="43.48892" lon="11.4476933"><ele>636.8333333333333</ele><time>2026-03-22T09:39:32.225Z</time></trkpt><trkpt lat="43.4888667" lon="11.4476417"><ele>638.0</ele><time>2026-03-22T09:39:34.225Z</time></trkpt><trkpt lat="43.488815" lon="11.4475883"><ele>637.4285714285714</ele><time>2026-03-22T09:39:36.225Z</time></trkpt><trkpt lat="43.4887517" lon="11.4474933"><ele>636.8571428571428</ele><time>2026-03-22T09:39:39.226Z</time></trkpt><trkpt lat="43.4887083" lon="11.44743"><ele>636.2857142857142</ele><time>2026-03-22T09:39:41.225Z</time></trkpt><trkpt lat="43.488675" lon="11.447355"><ele>635.7142857142858</ele><time>2026-03-22T09:39:43.225Z</time></trkpt><trkpt lat="43.4886183" lon="11.447255"><ele>635.1428571428571</ele><time>2026-03-22T09:39:46.224Z</time></trkpt><trkpt lat="43.4885833" lon="11.4471817"><ele>634.5714285714286</ele><time>2026-03-22T09:39:48.225Z</time></trkpt><trkpt lat="43.48854" lon="11.4471183"><ele>634.0</ele><time>2026-03-22T09:39:50.225Z</time></trkpt><trkpt lat="43.4885" lon="11.4470417"><ele>634.0</ele><time>2026-03-22T09:39:52.225Z</time></trkpt><trkpt lat="43.4884517" lon="11.4469367"><ele>634.0</ele><time>2026-03-22T09:39:55.224Z</time></trkpt><trkpt lat="43.4883983" lon="11.44683"><ele>634.0</ele><time>2026-03-22T09:39:58.226Z</time></trkpt><trkpt lat="43.4883483" lon="11.4467317"><ele>634.0</ele><time>2026-03-22T09:40:01.227Z</time></trkpt><trkpt lat="43.4883167" lon="11.4466117"><ele>634.0</ele><time>2026-03-22T09:40:04.225Z</time></trkpt><trkpt lat="43.4882767" lon="11.4465083"><ele>634.0</ele><time>2026-03-22T09:40:07.225Z</time></trkpt><trkpt lat="43.488245" lon="11.446395"><ele>636.3333333333334</ele><time>2026-03-22T09:40:10.225Z</time></trkpt><trkpt lat="43.4881967" lon="11.4462867"><ele>638.6666666666667</ele><time>2026-03-22T09:40:13.225Z</time></trkpt><trkpt lat="43.4881417" lon="11.44619"><ele>641.0</ele><time>2026-03-22T09:40:16.225Z</time></trkpt><trkpt lat="43.48808" lon="11.4461083"><ele>643.3333333333334</ele><time>2026-03-22T09:40:19.227Z</time></trkpt><trkpt lat="43.4880233" lon="11.4460167"><ele>645.6666666666666</ele><time>2026-03-22T09:40:22.225Z</time></trkpt><trkpt lat="43.48798" lon="11.4459"><ele>648.0</ele><time>2026-03-22T09:40:25.226Z</time></trkpt><trkpt lat="43.4879617" lon="11.4458167"><ele>648.0</ele><time>2026-03-22T09:40:27.223Z</time></trkpt><trkpt lat="43.4879383" lon="11.4457017"><ele>648.0</ele><time>2026-03-22T09:40:30.226Z</time></trkpt><trkpt lat="43.4879167" lon="11.4455817"><ele>648.0</ele><time>2026-03-22T09:40:33.225Z</time></trkpt><trkpt lat="43.4879067" lon="11.4454667"><ele>648.0</ele><time>2026-03-22T09:40:36.226Z</time></trkpt><trkpt lat="43.48789" lon="11.4453567"><ele>648.0</ele><time>2026-03-22T09:40:39.225Z</time></trkpt><trkpt lat="43.4878833" lon="11.44527"><ele>648.0</ele><time>2026-03-22T09:40:41.224Z</time></trkpt><trkpt lat="43.4878883" lon="11.4451783"><ele>648.4285714285714</ele><time>2026-03-22T09:40:43.225Z</time></trkpt><trkpt lat="43.4878983" lon="11.4450867"><ele>648.8571428571429</ele><time>2026-03-22T09:40:45.225Z</time></trkpt><trkpt lat="43.4878983" lon="11.4449933"><ele>649.2857142857142</ele><time>2026-03-22T09:40:47.225Z</time></trkpt><trkpt lat="43.4879133" lon="11.4449"><ele>649.7142857142858</ele><time>2026-03-22T09:40:49.225Z</time></trkpt><trkpt lat="43.4879283" lon="11.4448067"><ele>650.1428571428571</ele><time>2026-03-22T09:40:51.226Z</time></trkpt><trkpt lat="43.4879483" lon="11.444685"><ele>650.5714285714286</ele><time>2026-03-22T09:40:54.229Z</time></trkpt><trkpt lat="43.4879633" lon="11.4445983"><ele>651.0</ele><time>2026-03-22T09:40:56.226Z</time></trkpt><trkpt lat="43.4879933" lon="11.4445183"><ele>649.8333333333334</ele><time>2026-03-22T09:40:58.225Z</time></trkpt><trkpt lat="43.488045" lon="11.444415"><ele>648.6666666666666</ele><time>2026-03-22T09:41:01.225Z</time></trkpt><trkpt lat="43.4881083" lon="11.4443333"><ele>647.5</ele><time>2026-03-22T09:41:04.225Z</time></trkpt><trkpt lat="43.4881633" lon="11.44429"><ele>646.3333333333333</ele><time>2026-03-22T09:41:06.225Z</time></trkpt><trkpt lat="43.488225" lon="11.4442583"><ele>645.1666666666666</ele><time>2026-03-22T09:41:08.225Z</time></trkpt><trkpt lat="43.4882883" lon="11.4442433"><ele>644.0</ele><time>2026-03-22T09:41:10.225Z</time></trkpt><trkpt lat="43.4883733" lon="11.4442267"><ele>644.0</ele><time>2026-03-22T09:41:13.229Z</time></trkpt><trkpt lat="43.4884583" lon="11.4442233"><ele>644.0</ele><time>2026-03-22T09:41:16.225Z</time></trkpt><trkpt lat="43.488545" lon="11.444245"><ele>644.0</ele><time>2026-03-22T09:41:19.226Z</time></trkpt><trkpt lat="43.48862" lon="11.444275"><ele>644.0</ele><time>2026-03-22T09:41:22.226Z</time></trkpt><trkpt lat="43.4887033" lon="11.4442933"><ele>644.0</ele><time>2026-03-22T09:41:25.225Z</time></trkpt><trkpt lat="43.4887683" lon="11.4442983"><ele>644.0</ele><time>2026-03-22T09:41:27.227Z</time></trkpt><trkpt lat="43.4888567" lon="11.4442717"><ele>643.5</ele><time>2026-03-22T09:41:30.227Z</time></trkpt><trkpt lat="43.4889233" lon="11.4442"><ele>643.0</ele><time>2026-03-22T09:41:33.225Z</time></trkpt><trkpt lat="43.488975" lon="11.4441033"><ele>642.5</ele><time>2026-03-22T09:41:36.226Z</time></trkpt><trkpt lat="43.489015" lon="11.4439867"><ele>642.0</ele><time>2026-03-22T09:41:39.226Z</time></trkpt><trkpt lat="43.4890567" lon="11.4438817"><ele>641.5</ele><time>2026-03-22T09:41:42.228Z</time></trkpt><trkpt lat="43.4890967" lon="11.4438117"><ele>641.0</ele><time>2026-03-22T09:41:44.226Z</time></trkpt><trkpt lat="43.48916" lon="11.4437183"><ele>641.0</ele><time>2026-03-22T09:41:47.226Z</time></trkpt><trkpt lat="43.4892067" lon="11.4436583"><ele>641.0</ele><time>2026-03-22T09:41:49.227Z</time></trkpt><trkpt lat="43.4892833" lon="11.443585"><ele>641.0</ele><time>2026-03-22T09:41:52.227Z</time></trkpt><trkpt lat="43.4893567" lon="11.443505"><ele>641.0</ele><time>2026-03-22T09:41:55.226Z</time></trkpt><trkpt lat="43.489425" lon="11.4434333"><ele>641.0</ele><time>2026-03-22T09:41:58.225Z</time></trkpt><trkpt lat="43.4895" lon="11.44337"><ele>641.0</ele><time>2026-03-22T09:42:01.226Z</time></trkpt><trkpt lat="43.4895817" lon="11.4433183"><ele>644.0</ele><time>2026-03-22T09:42:04.225Z</time></trkpt><trkpt lat="43.489675" lon="11.44329"><ele>647.0</ele><time>2026-03-22T09:42:07.225Z</time></trkpt><trkpt lat="43.4897483" lon="11.4432767"><ele>650.0</ele><time>2026-03-22T09:42:09.226Z</time></trkpt><trkpt lat="43.489815" lon="11.4432617"><ele>653.0</ele><time>2026-03-22T09:42:11.227Z</time></trkpt><trkpt lat="43.48988" lon="11.4432517"><ele>656.0</ele><time>2026-03-22T09:42:13.227Z</time></trkpt><trkpt lat="43.4899433" lon="11.4432567"><ele>659.0</ele><time>2026-03-22T09:42:15.228Z</time></trkpt><trkpt lat="43.4900067" lon="11.443265"><ele>662.0</ele><time>2026-03-22T09:42:17.226Z</time></trkpt><trkpt lat="43.4901017" lon="11.4432533"><ele>662.0</ele><time>2026-03-22T09:42:20.226Z</time></trkpt><trkpt lat="43.49017" lon="11.44324"><ele>662.0</ele><time>2026-03-22T09:42:22.225Z</time></trkpt><trkpt lat="43.490235" lon="11.4432117"><ele>662.0</ele><time>2026-03-22T09:42:24.226Z</time></trkpt><trkpt lat="43.4903233" lon="11.4431683"><ele>662.0</ele><time>2026-03-22T09:42:27.225Z</time></trkpt><trkpt lat="43.4904033" lon="11.4431133"><ele>662.0</ele><time>2026-03-22T09:42:30.225Z</time></trkpt><trkpt lat="43.4904867" lon="11.4430533"><ele>662.0</ele><time>2026-03-22T09:42:33.226Z</time></trkpt><trkpt lat="43.4905683" lon="11.44301"><ele>663.7142857142858</ele><time>2026-03-22T09:42:36.227Z</time></trkpt><trkpt lat="43.490635" lon="11.4429933"><ele>665.4285714285714</ele><time>2026-03-22T09:42:38.226Z</time></trkpt><trkpt lat="43.4907067" lon="11.4429867"><ele>667.1428571428571</ele><time>2026-03-22T09:42:40.227Z</time></trkpt><trkpt lat="43.4907717" lon="11.4429883"><ele>668.8571428571429</ele><time>2026-03-22T09:42:42.227Z</time></trkpt><trkpt lat="43.49086" lon="11.4429967"><ele>670.5714285714286</ele><time>2026-03-22T09:42:45.227Z</time></trkpt><trkpt lat="43.490925" lon="11.443005"><ele>672.2857142857143</ele><time>2026-03-22T09:42:47.227Z</time></trkpt><trkpt lat="43.49099" lon="11.4430133"><ele>674.0</ele><time>2026-03-22T09:42:49.226Z</time></trkpt><trkpt lat="43.491055" lon="11.4430183"><ele>674.0</ele><time>2026-03-22T09:42:51.225Z</time></trkpt><trkpt lat="43.4911417" lon="11.4430383"><ele>674.0</ele><time>2026-03-22T09:42:54.228Z</time></trkpt><trkpt lat="43.4912133" lon="11.4430617"><ele>674.0</ele><time>2026-03-22T09:42:56.225Z</time></trkpt><trkpt lat="43.491285" lon="11.4430933"><ele>674.0</ele><time>2026-03-22T09:42:58.226Z</time></trkpt><trkpt lat="43.4913533" lon="11.443135"><ele>674.0</ele><time>2026-03-22T09:43:00.226Z</time></trkpt><trkpt lat="43.4914117" lon="11.44318"><ele>674.0</ele><time>2026-03-22T09:43:02.227Z</time></trkpt><trkpt lat="43.4914833" lon="11.4432583"><ele>674.1428571428572</ele><time>2026-03-22T09:43:05.227Z</time></trkpt><trkpt lat="43.4915533" lon="11.4433417"><ele>674.2857142857143</ele><time>2026-03-22T09:43:08.227Z</time></trkpt><trkpt lat="43.491605" lon="11.4434"><ele>674.4285714285714</ele><time>2026-03-22T09:43:10.226Z</time></trkpt><trkpt lat="43.4916533" lon="11.4434617"><ele>674.5714285714287</ele><time>2026-03-22T09:43:12.227Z</time></trkpt><trkpt lat="43.4917033" lon="11.4435333"><ele>674.7142857142858</ele><time>2026-03-22T09:43:14.228Z</time></trkpt><trkpt lat="43.4917533" lon="11.4435933"><ele>674.8571428571429</ele><time>2026-03-22T09:43:16.226Z</time></trkpt><trkpt lat="43.4918017" lon="11.4436583"><ele>675.0</ele><time>2026-03-22T09:43:18.227Z</time></trkpt><trkpt lat="43.4918717" lon="11.4437417"><ele>678.5</ele><time>2026-03-22T09:43:21.225Z</time></trkpt><trkpt lat="43.4919333" lon="11.4438067"><ele>682.0</ele><time>2026-03-22T09:43:24.226Z</time></trkpt><trkpt lat="43.4920117" lon="11.4438633"><ele>685.5</ele><time>2026-03-22T09:43:27.227Z</time></trkpt><trkpt lat="43.4920833" lon="11.4438967"><ele>689.0</ele><time>2026-03-22T09:43:29.226Z</time></trkpt><trkpt lat="43.49218" lon="11.4439133"><ele>692.5</ele><time>2026-03-22T09:43:32.226Z</time></trkpt><trkpt lat="43.4922433" lon="11.4438833"><ele>696.0</ele><time>2026-03-22T09:43:34.226Z</time></trkpt><trkpt lat="43.4922967" lon="11.4438367"><ele>694.5</ele><time>2026-03-22T09:43:36.226Z</time></trkpt><trkpt lat="43.49234" lon="11.4437417"><ele>693.0</ele><time>2026-03-22T09:43:39.226Z</time></trkpt><trkpt lat="43.4923667" lon="11.4436267"><ele>691.5</ele><time>2026-03-22T09:43:42.226Z</time></trkpt><trkpt lat="43.4923967" lon="11.4435133"><ele>690.0</ele><time>2026-03-22T09:43:45.226Z</time></trkpt><trkpt lat="43.4924117" lon="11.4434117"><ele>688.5</ele><time>2026-03-22T09:43:48.227Z</time></trkpt><trkpt lat="43.4924483" lon="11.443305"><ele>687.0</ele><time>2026-03-22T09:43:51.227Z</time></trkpt><trkpt lat="43.4924817" lon="11.4432233"><ele>687.0</ele><time>2026-03-22T09:43:53.225Z</time></trkpt><trkpt lat="43.4925217" lon="11.4431033"><ele>687.0</ele><time>2026-03-22T09:43:56.226Z</time></trkpt><trkpt lat="43.4925483" lon="11.4430233"><ele>687.0</ele><time>2026-03-22T09:43:58.226Z</time></trkpt><trkpt lat="43.4925733" lon="11.4429333"><ele>687.0</ele><time>2026-03-22T09:44:00.227Z</time></trkpt><trkpt lat="43.4926017" lon="11.4428467"><ele>687.0</ele><time>2026-03-22T09:44:02.227Z</time></trkpt><trkpt lat="43.49263" lon="11.4427583"><ele>687.0</ele><time>2026-03-22T09:44:04.226Z</time></trkpt><trkpt lat="43.4926817" lon="11.442655"><ele>685.3333333333334</ele><time>2026-03-22T09:44:06.23Z</time></trkpt><trkpt lat="43.49273" lon="11.4425817"><ele>683.6666666666666</ele><time>2026-03-22T09:44:08.227Z</time></trkpt><trkpt lat="43.4927767" lon="11.44252"><ele>682.0</ele><time>2026-03-22T09:44:10.226Z</time></trkpt><trkpt lat="43.4928517" lon="11.44244"><ele>680.3333333333333</ele><time>2026-03-22T09:44:13.225Z</time></trkpt><trkpt lat="43.492905" lon="11.442365"><ele>678.6666666666666</ele><time>2026-03-22T09:44:15.226Z</time></trkpt><trkpt lat="43.4929583" lon="11.4423033"><ele>677.0</ele><time>2026-03-22T09:44:17.225Z</time></trkpt><trkpt lat="43.4930183" lon="11.4422433"><ele>677.1666666666666</ele><time>2026-03-22T09:44:19.226Z</time></trkpt><trkpt lat="43.4930933" lon="11.4421933"><ele>677.3333333333333</ele><time>2026-03-22T09:44:21.225Z</time></trkpt><trkpt lat="43.493175" lon="11.4421583"><ele>677.5</ele><time>2026-03-22T09:44:23.226Z</time></trkpt><trkpt lat="43.4932617" lon="11.4421367"><ele>677.6666666666666</ele><time>2026-03-22T09:44:25.225Z</time></trkpt><trkpt lat="43.493345" lon="11.442125"><ele>677.8333333333334</ele><time>2026-03-22T09:44:27.225Z</time></trkpt><trkpt lat="43.4934183" lon="11.4421133"><ele>678.0</ele><time>2026-03-22T09:44:29.226Z</time></trkpt><trkpt lat="43.4934883" lon="11.4421183"><ele>678.0</ele><time>2026-03-22T09:44:31.224Z</time></trkpt><trkpt lat="43.4935617" lon="11.4421567"><ele>678.0</ele><time>2026-03-22T09:46:04.226Z</time></trkpt><trkpt lat="43.4936233" lon="11.4421267"><ele>678.0</ele><time>2026-03-22T09:47:19.227Z</time></trkpt><trkpt lat="43.4936767" lon="11.44207"><ele>678.0</ele><time>2026-03-22T09:47:24.227Z</time></trkpt><trkpt lat="43.4937533" lon="11.4420667"><ele>678.0</ele><time>2026-03-22T09:47:28.225Z</time></trkpt><trkpt lat="43.49382" lon="11.44208"><ele>678.0</ele><time>2026-03-22T09:47:31.225Z</time></trkpt><trkpt lat="43.493885" lon="11.4420767"><ele>678.0</ele><time>2026-03-22T09:47:34.225Z</time></trkpt><trkpt lat="43.4939617" lon="11.44208"><ele>681.0</ele><time>2026-03-22T09:47:37.224Z</time></trkpt><trkpt lat="43.4940283" lon="11.442075"><ele>684.0</ele><time>2026-03-22T09:47:39.226Z</time></trkpt><trkpt lat="43.4941067" lon="11.442055"><ele>687.0</ele><time>2026-03-22T09:47:41.225Z</time></trkpt><trkpt lat="43.49419" lon="11.4420283"><ele>690.0</ele><time>2026-03-22T09:47:43.226Z</time></trkpt><trkpt lat="43.494265" lon="11.44193"><ele>693.0</ele><time>2026-03-22T09:47:45.228Z</time></trkpt><trkpt lat="43.4942983" lon="11.4417683"><ele>693.0</ele><time>2026-03-22T09:47:47.226Z</time></trkpt><trkpt lat="43.494295" lon="11.441675"><ele>693.0</ele><time>2026-03-22T09:47:48.226Z</time></trkpt><trkpt lat="43.494285" lon="11.44157"><ele>693.0</ele><time>2026-03-22T09:47:49.227Z</time></trkpt><trkpt lat="43.4942767" lon="11.4414667"><ele>693.0</ele><time>2026-03-22T09:47:50.228Z</time></trkpt><trkpt lat="43.494275" lon="11.4413617"><ele>693.0</ele><time>2026-03-22T09:47:51.225Z</time></trkpt><trkpt lat="43.4942883" lon="11.4412533"><ele>693.0</ele><time>2026-03-22T09:47:52.228Z</time></trkpt><trkpt lat="43.494325" lon="11.441155"><ele>694.6666666666666</ele><time>2026-03-22T09:47:53.226Z</time></trkpt><trkpt lat="43.4943717" lon="11.44106"><ele>696.3333333333334</ele><time>2026-03-22T09:47:54.226Z</time></trkpt><trkpt lat="43.49443" lon="11.440985"><ele>698.0</ele><time>2026-03-22T09:47:55.226Z</time></trkpt><trkpt lat="43.4944833" lon="11.440905"><ele>699.6666666666667</ele><time>2026-03-22T09:47:56.226Z</time></trkpt><trkpt lat="43.494535" lon="11.4408233"><ele>701.3333333333334</ele><time>2026-03-22T09:47:57.228Z</time></trkpt><trkpt lat="43.49457" lon="11.4407333"><ele>703.0</ele><time>2026-03-22T09:47:58.226Z</time></trkpt><trkpt lat="43.49459" lon="11.4406333"><ele>703.0</ele><time>2026-03-22T09:47:59.225Z</time></trkpt><trkpt lat="43.494595" lon="11.4405267"><ele>703.0</ele><time>2026-03-22T09:48:00.226Z</time></trkpt><trkpt lat="43.49457" lon="11.44041"><ele>703.0</ele><time>2026-03-22T09:48:01.227Z</time></trkpt><trkpt lat="43.4945467" lon="11.44029"><ele>703.0</ele><time>2026-03-22T09:48:02.228Z</time></trkpt><trkpt lat="43.4945333" lon="11.4401633"><ele>703.0</ele><time>2026-03-22T09:48:03.225Z</time></trkpt><trkpt lat="43.4945317" lon="11.4400367"><ele>703.0</ele><time>2026-03-22T09:48:04.226Z</time></trkpt><trkpt lat="43.4945417" lon="11.4399133"><ele>701.5</ele><time>2026-03-22T09:48:05.226Z</time></trkpt><trkpt lat="43.4945633" lon="11.4397933"><ele>700.0</ele><time>2026-03-22T09:48:06.226Z</time></trkpt><trkpt lat="43.4946067" lon="11.4396783"><ele>698.5</ele><time>2026-03-22T09:48:07.228Z</time></trkpt><trkpt lat="43.4946717" lon="11.4395883"><ele>697.0</ele><time>2026-03-22T09:48:08.227Z</time></trkpt><trkpt lat="43.49473" lon="11.4395183"><ele>695.5</ele><time>2026-03-22T09:48:09.226Z</time></trkpt><trkpt lat="43.4947817" lon="11.4394583"><ele>694.0</ele><time>2026-03-22T09:48:10.226Z</time></trkpt><trkpt lat="43.4948533" lon="11.4393167"><ele>693.0</ele><time>2026-03-22T09:48:12.227Z</time></trkpt><trkpt lat="43.49484" lon="11.43922"><ele>692.0</ele><time>2026-03-22T09:48:13.226Z</time></trkpt><trkpt lat="43.4948033" lon="11.439125"><ele>691.0</ele><time>2026-03-22T09:48:14.225Z</time></trkpt><trkpt lat="43.4947433" lon="11.439035"><ele>690.0</ele><time>2026-03-22T09:48:15.227Z</time></trkpt><trkpt lat="43.49467" lon="11.4389567"><ele>689.0</ele><time>2026-03-22T09:48:16.226Z</time></trkpt><trkpt lat="43.4946033" lon="11.438875"><ele>688.0</ele><time>2026-03-22T09:48:17.226Z</time></trkpt><trkpt lat="43.4945317" lon="11.4388017"><ele>683.8</ele><time>2026-03-22T09:48:18.227Z</time></trkpt><trkpt lat="43.4944567" lon="11.438735"><ele>679.5999999999999</ele><time>2026-03-22T09:48:19.225Z</time></trkpt><trkpt lat="43.4943783" lon="11.4386667"><ele>675.4000000000001</ele><time>2026-03-22T09:48:20.226Z</time></trkpt><trkpt lat="43.4943033" lon="11.4385917"><ele>671.2</ele><time>2026-03-22T09:48:21.225Z</time></trkpt><trkpt lat="43.49423" lon="11.4385167"><ele>667.0</ele><time>2026-03-22T09:48:22.228Z</time></trkpt><trkpt lat="43.4941583" lon="11.4384567"><ele>667.0</ele><time>2026-03-22T09:48:23.227Z</time></trkpt><trkpt lat="43.4940917" lon="11.4383967"><ele>667.0</ele><time>2026-03-22T09:48:24.226Z</time></trkpt><trkpt lat="43.49403" lon="11.43833"><ele>667.0</ele><time>2026-03-22T09:48:25.226Z</time></trkpt><trkpt lat="43.4939817" lon="11.4382533"><ele>667.0</ele><time>2026-03-22T09:48:26.227Z</time></trkpt><trkpt lat="43.49395" lon="11.43816"><ele>667.0</ele><time>2026-03-22T09:48:27.226Z</time></trkpt><trkpt lat="43.4939367" lon="11.4380533"><ele>667.0</ele><time>2026-03-22T09:48:28.226Z</time></trkpt><trkpt lat="43.49396" lon="11.4379367"><ele>666.6</ele><time>2026-03-22T09:48:29.227Z</time></trkpt><trkpt lat="43.493995" lon="11.4378267"><ele>666.2</ele><time>2026-03-22T09:48:30.226Z</time></trkpt><trkpt lat="43.4940483" lon="11.437715"><ele>665.8</ele><time>2026-03-22T09:48:31.228Z</time></trkpt><trkpt lat="43.494105" lon="11.43761"><ele>665.4</ele><time>2026-03-22T09:48:32.227Z</time></trkpt><trkpt lat="43.4941533" lon="11.437495"><ele>665.0</ele><time>2026-03-22T09:48:33.226Z</time></trkpt><trkpt lat="43.4941767" lon="11.4373733"><ele>665.0</ele><time>2026-03-22T09:48:34.226Z</time></trkpt><trkpt lat="43.4941833" lon="11.437245"><ele>665.0</ele><time>2026-03-22T09:48:35.226Z</time></trkpt><trkpt lat="43.4941767" lon="11.43711"><ele>665.0</ele><time>2026-03-22T09:48:36.226Z</time></trkpt><trkpt lat="43.494165" lon="11.4369667"><ele>665.0</ele><time>2026-03-22T09:48:37.228Z</time></trkpt><trkpt lat="43.4941617" lon="11.4368233"><ele>665.0</ele><time>2026-03-22T09:48:38.228Z</time></trkpt><trkpt lat="43.4941617" lon="11.4366783"><ele>663.25</ele><time>2026-03-22T09:48:39.228Z</time></trkpt><trkpt lat="43.4941733" lon="11.436525"><ele>661.5</ele><time>2026-03-22T09:48:40.226Z</time></trkpt><trkpt lat="43.4942017" lon="11.436375"><ele>659.75</ele><time>2026-03-22T09:48:41.225Z</time></trkpt><trkpt lat="43.4942333" lon="11.43622"><ele>658.0</ele><time>2026-03-22T09:48:42.225Z</time></trkpt><trkpt lat="43.49426" lon="11.43607"><ele>656.2</ele><time>2026-03-22T09:48:43.226Z</time></trkpt><trkpt lat="43.4942917" lon="11.4359333"><ele>654.4</ele><time>2026-03-22T09:48:44.227Z</time></trkpt><trkpt lat="43.4943317" lon="11.4357983"><ele>652.6</ele><time>2026-03-22T09:48:45.227Z</time></trkpt><trkpt lat="43.494375" lon="11.43567"><ele>650.8000000000001</ele><time>2026-03-22T09:48:46.225Z</time></trkpt><trkpt lat="43.49443" lon="11.4355467"><ele>649.0</ele><time>2026-03-22T09:48:47.227Z</time></trkpt><trkpt lat="43.49448" lon="11.4354367"><ele>648.5</ele><time>2026-03-22T09:48:48.226Z</time></trkpt><trkpt lat="43.4945283" lon="11.4353283"><ele>648.0</ele><time>2026-03-22T09:48:49.226Z</time></trkpt><trkpt lat="43.49457" lon="11.4352267"><ele>647.5</ele><time>2026-03-22T09:48:50.227Z</time></trkpt><trkpt lat="43.4945983" lon="11.435115"><ele>647.0</ele><time>2026-03-22T09:48:51.226Z</time></trkpt><trkpt lat="43.494605" lon="11.4349983"><ele>646.5</ele><time>2026-03-22T09:48:52.225Z</time></trkpt><trkpt lat="43.4945967" lon="11.43488"><ele>646.0</ele><time>2026-03-22T09:48:53.228Z</time></trkpt><trkpt lat="43.4945417" lon="11.4347683"><ele>646.0</ele><time>2026-03-22T09:48:54.228Z</time></trkpt><trkpt lat="43.494475" lon="11.434675"><ele>646.0</ele><time>2026-03-22T09:48:55.226Z</time></trkpt><trkpt lat="43.4944083" lon="11.4345717"><ele>646.0</ele><time>2026-03-22T09:48:56.226Z</time></trkpt><trkpt lat="43.4943567" lon="11.43446"><ele>646.0</ele><time>2026-03-22T09:48:57.226Z</time></trkpt><trkpt lat="43.4943267" lon="11.4343283"><ele>646.0</ele><time>2026-03-22T09:48:58.227Z</time></trkpt><trkpt lat="43.494325" lon="11.4341917"><ele>646.5999999999999</ele><time>2026-03-22T09:48:59.228Z</time></trkpt><trkpt lat="43.4943367" lon="11.434055"><ele>647.2</ele><time>2026-03-22T09:49:00.228Z</time></trkpt><trkpt lat="43.4943733" lon="11.43392"><ele>647.8</ele><time>2026-03-22T09:49:01.226Z</time></trkpt><trkpt lat="43.494415" lon="11.4337867"><ele>648.4000000000001</ele><time>2026-03-22T09:49:02.226Z</time></trkpt><trkpt lat="43.4944633" lon="11.4336583"><ele>649.0</ele><time>2026-03-22T09:49:03.226Z</time></trkpt><trkpt lat="43.494525" lon="11.43354"><ele>646.25</ele><time>2026-03-22T09:49:04.225Z</time></trkpt><trkpt lat="43.4945983" lon="11.433425"><ele>643.5</ele><time>2026-03-22T09:49:05.228Z</time></trkpt><trkpt lat="43.4946817" lon="11.4333133"><ele>640.75</ele><time>2026-03-22T09:49:06.226Z</time></trkpt><trkpt lat="43.494765" lon="11.4331967"><ele>638.0</ele><time>2026-03-22T09:49:07.226Z</time></trkpt><trkpt lat="43.4948383" lon="11.4330817"><ele>638.4</ele><time>2026-03-22T09:49:08.226Z</time></trkpt><trkpt lat="43.494905" lon="11.43297"><ele>638.8</ele><time>2026-03-22T09:49:09.226Z</time></trkpt><trkpt lat="43.49497" lon="11.4328633"><ele>639.2</ele><time>2026-03-22T09:49:10.227Z</time></trkpt><trkpt lat="43.495025" lon="11.4327533"><ele>639.6</ele><time>2026-03-22T09:49:11.227Z</time></trkpt><trkpt lat="43.4950633" lon="11.432625"><ele>640.0</ele><time>2026-03-22T09:49:12.228Z</time></trkpt><trkpt lat="43.4950883" lon="11.43249"><ele>640.0</ele><time>2026-03-22T09:49:13.227Z</time></trkpt><trkpt lat="43.4951017" lon="11.43235"><ele>640.0</ele><time>2026-03-22T09:49:14.227Z</time></trkpt><trkpt lat="43.4950967" lon="11.4322083"><ele>640.0</ele><time>2026-03-22T09:49:15.227Z</time></trkpt><trkpt lat="43.49508" lon="11.4320683"><ele>640.0</ele><time>2026-03-22T09:49:16.228Z</time></trkpt><trkpt lat="43.4950417" lon="11.4319217"><ele>640.0</ele><time>2026-03-22T09:49:17.226Z</time></trkpt><trkpt lat="43.4949917" lon="11.4317833"><ele>638.5</ele><time>2026-03-22T09:49:18.228Z</time></trkpt><trkpt lat="43.49494" lon="11.43164"><ele>637.0</ele><time>2026-03-22T09:49:19.228Z</time></trkpt><trkpt lat="43.49489" lon="11.4314867"><ele>635.5</ele><time>2026-03-22T09:49:20.226Z</time></trkpt><trkpt lat="43.4948517" lon="11.43133"><ele>634.0</ele><time>2026-03-22T09:49:21.225Z</time></trkpt><trkpt lat="43.4948217" lon="11.4311767"><ele>631.25</ele><time>2026-03-22T09:49:22.225Z</time></trkpt><trkpt lat="43.494795" lon="11.4310233"><ele>628.5</ele><time>2026-03-22T09:49:23.226Z</time></trkpt><trkpt lat="43.4947667" lon="11.4308717"><ele>625.75</ele><time>2026-03-22T09:49:24.227Z</time></trkpt><trkpt lat="43.4947333" lon="11.4307283"><ele>623.0</ele><time>2026-03-22T09:49:25.228Z</time></trkpt><trkpt lat="43.4946933" lon="11.4305783"><ele>624.4</ele><time>2026-03-22T09:49:26.229Z</time></trkpt><trkpt lat="43.4946367" lon="11.4304317"><ele>625.8</ele><time>2026-03-22T09:49:27.225Z</time></trkpt><trkpt lat="43.4945833" lon="11.4302933"><ele>627.2</ele><time>2026-03-22T09:49:28.227Z</time></trkpt><trkpt lat="43.4945417" lon="11.4301667"><ele>628.6</ele><time>2026-03-22T09:49:29.226Z</time></trkpt><trkpt lat="43.4945083" lon="11.4300433"><ele>630.0</ele><time>2026-03-22T09:49:30.227Z</time></trkpt><trkpt lat="43.4944817" lon="11.4299317"><ele>630.0</ele><time>2026-03-22T09:49:31.227Z</time></trkpt><trkpt lat="43.4944583" lon="11.4298217"><ele>630.0</ele><time>2026-03-22T09:49:32.226Z</time></trkpt><trkpt lat="43.4944167" lon="11.429745"><ele>630.0</ele><time>2026-03-22T09:49:33.225Z</time></trkpt><trkpt lat="43.494365" lon="11.429685"><ele>630.0</ele><time>2026-03-22T09:49:34.228Z</time></trkpt><trkpt lat="43.4942933" lon="11.4296517"><ele>630.0</ele><time>2026-03-22T09:49:35.226Z</time></trkpt><trkpt lat="43.4942133" lon="11.4296583"><ele>630.0</ele><time>2026-03-22T09:49:36.227Z</time></trkpt><trkpt lat="43.4941367" lon="11.4296917"><ele>630.0</ele><time>2026-03-22T09:49:37.226Z</time></trkpt><trkpt lat="43.49405" lon="11.4297667"><ele>630.0</ele><time>2026-03-22T09:49:38.228Z</time></trkpt><trkpt lat="43.4939617" lon="11.429835"><ele>630.0</ele><time>2026-03-22T09:49:39.226Z</time></trkpt><trkpt lat="43.493875" lon="11.429875"><ele>630.0</ele><time>2026-03-22T09:49:40.227Z</time></trkpt><trkpt lat="43.4937867" lon="11.4298817"><ele>630.0</ele><time>2026-03-22T09:49:41.226Z</time></trkpt><trkpt lat="43.4936917" lon="11.4298533"><ele>629.0</ele><time>2026-03-22T09:49:42.228Z</time></trkpt><trkpt lat="43.4936317" lon="11.4297567"><ele>628.0</ele><time>2026-03-22T09:49:43.225Z</time></trkpt><trkpt lat="43.49358" lon="11.4296533"><ele>627.0</ele><time>2026-03-22T09:49:44.226Z</time></trkpt><trkpt lat="43.4935267" lon="11.4295483"><ele>626.0</ele><time>2026-03-22T09:49:45.226Z</time></trkpt><trkpt lat="43.493465" lon="11.4294683"><ele>625.0</ele><time>2026-03-22T09:49:46.226Z</time></trkpt><trkpt lat="43.4933917" lon="11.429405"><ele>624.0</ele><time>2026-03-22T09:49:47.226Z</time></trkpt><trkpt lat="43.4933083" lon="11.4293683"><ele>624.0</ele><time>2026-03-22T09:49:48.228Z</time></trkpt><trkpt lat="43.49322" lon="11.4293333"><ele>624.0</ele><time>2026-03-22T09:49:49.226Z</time></trkpt><trkpt lat="43.49315" lon="11.42928"><ele>624.0</ele><time>2026-03-22T09:49:50.226Z</time></trkpt><trkpt lat="43.493095" lon="11.429205"><ele>624.0</ele><time>2026-03-22T09:49:51.227Z</time></trkpt><trkpt lat="43.4930767" lon="11.4291117"><ele>624.0</ele><time>2026-03-22T09:49:52.226Z</time></trkpt><trkpt lat="43.49311" lon="11.4289967"><ele>624.0</ele><time>2026-03-22T09:49:53.226Z</time></trkpt><trkpt lat="43.4931633" lon="11.4288983"><ele>624.0</ele><time>2026-03-22T09:49:54.226Z</time></trkpt><trkpt lat="43.4932317" lon="11.4288267"><ele>624.0</ele><time>2026-03-22T09:49:55.227Z</time></trkpt><trkpt lat="43.4933" lon="11.4287517"><ele>624.0</ele><time>2026-03-22T09:49:56.227Z</time></trkpt><trkpt lat="43.4947667" lon="11.4308717"><ele>623.75</ele><time>2026-03-22T09:49:24.227Z</time></trkpt><trkpt lat="43.4947333" lon="11.4307283"><ele>623.5</ele><time>2026-03-22T09:49:25.228Z</time></trkpt><trkpt lat="43.4946933" lon="11.4305783"><ele>623.25</ele><time>2026-03-22T09:49:26.229Z</time></trkpt><trkpt lat="43.4946367" lon="11.4304317"><ele>623.0</ele><time>2026-03-22T09:49:27.225Z</time></trkpt><trkpt lat="43.4945833" lon="11.4302933"><ele>624.1666666666666</ele><time>2026-03-22T09:49:28.227Z</time></trkpt><trkpt lat="43.4945417" lon="11.4301667"><ele>625.3333333333333</ele><time>2026-03-22T09:49:29.226Z</time></trkpt><trkpt lat="43.4945083" lon="11.4300433"><ele>626.5</ele><time>2026-03-22T09:49:30.227Z</time></trkpt><trkpt lat="43.4944817" lon="11.4299317"><ele>627.6666666666666</ele><time>2026-03-22T09:49:31.227Z</time></trkpt><trkpt lat="43.4944583" lon="11.4298217"><ele>628.8333333333334</ele><time>2026-03-22T09:49:32.226Z</time></trkpt><trkpt lat="43.4944167" lon="11.429745"><ele>630.0</ele><time>2026-03-22T09:49:33.225Z</time></trkpt><trkpt lat="43.494365" lon="11.429685"><ele>630.0</ele><time>2026-03-22T09:49:34.228Z</time></trkpt><trkpt lat="43.4942933" lon="11.4296517"><ele>630.0</ele><time>2026-03-22T09:49:35.226Z</time></trkpt><trkpt lat="43.4942133" lon="11.4296583"><ele>630.0</ele><time>2026-03-22T09:49:36.227Z</time></trkpt><trkpt lat="43.4941367" lon="11.4296917"><ele>630.0</ele><time>2026-03-22T09:49:37.226Z</time></trkpt><trkpt lat="43.49405" lon="11.4297667"><ele>630.0</ele><time>2026-03-22T09:49:38.228Z</time></trkpt><trkpt lat="43.4939617" lon="11.429835"><ele>630.0</ele><time>2026-03-22T09:49:39.226Z</time></trkpt><trkpt lat="43.493875" lon="11.429875"><ele>630.0</ele><time>2026-03-22T09:49:40.227Z</time></trkpt><trkpt lat="43.4937867" lon="11.4298817"><ele>630.0</ele><time>2026-03-22T09:49:41.226Z</time></trkpt><trkpt lat="43.4936917" lon="11.4298533"><ele>630.0</ele><time>2026-03-22T09:49:42.228Z</time></trkpt><trkpt lat="43.4936317" lon="11.4297567"><ele>630.0</ele><time>2026-03-22T09:49:43.225Z</time></trkpt><trkpt lat="43.49358" lon="11.4296533"><ele>630.0</ele><time>2026-03-22T09:49:44.226Z</time></trkpt><trkpt lat="43.4935267" lon="11.4295483"><ele>629.0</ele><time>2026-03-22T09:49:45.226Z</time></trkpt><trkpt lat="43.493465" lon="11.4294683"><ele>628.0</ele><time>2026-03-22T09:49:46.226Z</time></trkpt><trkpt lat="43.4933917" lon="11.429405"><ele>627.0</ele><time>2026-03-22T09:49:47.226Z</time></trkpt><trkpt lat="43.4933083" lon="11.4293683"><ele>626.0</ele><time>2026-03-22T09:49:48.228Z</time></trkpt><trkpt lat="43.49322" lon="11.4293333"><ele>625.0</ele><time>2026-03-22T09:49:49.226Z</time></trkpt><trkpt lat="43.49315" lon="11.42928"><ele>624.0</ele><time>2026-03-22T09:49:50.226Z</time></trkpt><trkpt lat="43.493095" lon="11.429205"><ele>624.0</ele><time>2026-03-22T09:49:51.227Z</time></trkpt><trkpt lat="43.4930767" lon="11.4291117"><ele>624.0</ele><time>2026-03-22T09:49:52.226Z</time></trkpt><trkpt lat="43.49311" lon="11.4289967"><ele>624.0</ele><time>2026-03-22T09:49:53.226Z</time></trkpt><trkpt lat="43.4931633" lon="11.4288983"><ele>624.0</ele><time>2026-03-22T09:49:54.226Z</time></trkpt><trkpt lat="43.4932317" lon="11.4288267"><ele>624.0</ele><time>2026-03-22T09:49:55.227Z</time></trkpt><trkpt lat="43.4933" lon="11.4287517"><ele>624.0</ele><time>2026-03-22T09:49:56.227Z</time></trkpt><trkpt lat="43.49335" lon="11.4286533"><ele>624.6</ele><time>2026-03-22T09:49:57.228Z</time></trkpt><trkpt lat="43.4933833" lon="11.428545"><ele>625.2</ele><time>2026-03-22T09:49:58.228Z</time></trkpt><trkpt lat="43.4934233" lon="11.4284233"><ele>625.8000000000001</ele><time>2026-03-22T09:49:59.225Z</time></trkpt><trkpt lat="43.4934567" lon="11.4283083"><ele>626.4</ele><time>2026-03-22T09:50:00.226Z</time></trkpt><trkpt lat="43.493505" lon="11.4282117"><ele>627.0</ele><time>2026-03-22T09:50:01.225Z</time></trkpt><trkpt lat="43.4935733" lon="11.428105"><ele>627.0</ele><time>2026-03-22T09:50:02.226Z</time></trkpt><trkpt lat="43.4936317" lon="11.428005"><ele>627.0</ele><time>2026-03-22T09:50:03.225Z</time></trkpt><trkpt lat="43.4936833" lon="11.4278883"><ele>627.0</ele><time>2026-03-22T09:50:04.225Z</time></trkpt><trkpt lat="43.493725" lon="11.4277767"><ele>627.0</ele><time>2026-03-22T09:50:05.224Z</time></trkpt><trkpt lat="43.493765" lon="11.4276617"><ele>627.0</ele><time>2026-03-22T09:50:06.226Z</time></trkpt><trkpt lat="43.4937833" lon="11.4275517"><ele>626.8333333333334</ele><time>2026-03-22T09:50:07.226Z</time></trkpt><trkpt lat="43.493775" lon="11.427445"><ele>626.6666666666666</ele><time>2026-03-22T09:50:08.227Z</time></trkpt><trkpt lat="43.493745" lon="11.42735"><ele>626.5</ele><time>2026-03-22T09:50:09.224Z</time></trkpt><trkpt lat="43.4936933" lon="11.4272583"><ele>626.3333333333333</ele><time>2026-03-22T09:50:10.226Z</time></trkpt><trkpt lat="43.4936233" lon="11.4272017"><ele>626.1666666666666</ele><time>2026-03-22T09:50:11.225Z</time></trkpt><trkpt lat="43.49355" lon="11.4271467"><ele>626.0</ele><time>2026-03-22T09:50:12.226Z</time></trkpt><trkpt lat="43.4934817" lon="11.4270717"><ele>623.6666666666666</ele><time>2026-03-22T09:50:13.227Z</time></trkpt><trkpt lat="43.4934517" lon="11.4269517"><ele>621.3333333333333</ele><time>2026-03-22T09:50:14.226Z</time></trkpt><trkpt lat="43.49344" lon="11.4268333"><ele>619.0</ele><time>2026-03-22T09:50:15.225Z</time></trkpt><trkpt lat="43.4934417" lon="11.4267183"><ele>616.6666666666666</ele><time>2026-03-22T09:50:16.226Z</time></trkpt><trkpt lat="43.4934367" lon="11.4266"><ele>614.3333333333334</ele><time>2026-03-22T09:50:17.226Z</time></trkpt><trkpt lat="43.4934167" lon="11.42648"><ele>612.0</ele><time>2026-03-22T09:50:18.225Z</time></trkpt><trkpt lat="43.493375" lon="11.4263717"><ele>610.5714285714286</ele><time>2026-03-22T09:50:19.226Z</time></trkpt><trkpt lat="43.4933267" lon="11.42628"><ele>609.1428571428571</ele><time>2026-03-22T09:50:20.225Z</time></trkpt><trkpt lat="43.493265" lon="11.42622"><ele>607.7142857142858</ele><time>2026-03-22T09:50:21.228Z</time></trkpt><trkpt lat="43.493205" lon="11.4261683"><ele>606.2857142857142</ele><time>2026-03-22T09:50:22.226Z</time></trkpt><trkpt lat="43.4931383" lon="11.4261233"><ele>604.8571428571429</ele><time>2026-03-22T09:50:23.225Z</time></trkpt><trkpt lat="43.4930783" lon="11.426065"><ele>603.4285714285714</ele><time>2026-03-22T09:50:24.225Z</time></trkpt><trkpt lat="43.4930367" lon="11.4259833"><ele>602.0</ele><time>2026-03-22T09:50:25.226Z</time></trkpt><trkpt lat="43.4930133" lon="11.4258883"><ele>602.0</ele><time>2026-03-22T09:50:26.225Z</time></trkpt><trkpt lat="43.493015" lon="11.4257883"><ele>602.0</ele><time>2026-03-22T09:50:27.225Z</time></trkpt><trkpt lat="43.4930317" lon="11.4256867"><ele>602.0</ele><time>2026-03-22T09:50:28.226Z</time></trkpt><trkpt lat="43.4930533" lon="11.425585"><ele>602.0</ele><time>2026-03-22T09:50:29.227Z</time></trkpt><trkpt lat="43.4930833" lon="11.42549"><ele>602.0</ele><time>2026-03-22T09:50:30.225Z</time></trkpt><trkpt lat="43.49311" lon="11.425395"><ele>602.0</ele><time>2026-03-22T09:50:31.226Z</time></trkpt><trkpt lat="43.4931317" lon="11.425295"><ele>602.2</ele><time>2026-03-22T09:50:32.225Z</time></trkpt><trkpt lat="43.4931417" lon="11.4251783"><ele>602.4000000000001</ele><time>2026-03-22T09:50:33.226Z</time></trkpt><trkpt lat="43.4931383" lon="11.425055"><ele>602.5999999999999</ele><time>2026-03-22T09:50:34.225Z</time></trkpt><trkpt lat="43.49313" lon="11.4249383"><ele>602.8</ele><time>2026-03-22T09:50:35.228Z</time></trkpt><trkpt lat="43.4931083" lon="11.4248"><ele>603.0</ele><time>2026-03-22T09:50:36.225Z</time></trkpt><trkpt lat="43.4930783" lon="11.4246633"><ele>602.5</ele><time>2026-03-22T09:50:37.226Z</time></trkpt><trkpt lat="43.4930433" lon="11.4245217"><ele>602.0</ele><time>2026-03-22T09:50:38.226Z</time></trkpt><trkpt lat="43.493005" lon="11.4243767"><ele>601.5</ele><time>2026-03-22T09:50:39.224Z</time></trkpt><trkpt lat="43.4929583" lon="11.4242333"><ele>601.0</ele><time>2026-03-22T09:50:40.225Z</time></trkpt><trkpt lat="43.4929017" lon="11.4240917"><ele>603.25</ele><time>2026-03-22T09:50:41.226Z</time></trkpt><trkpt lat="43.4928317" lon="11.4239633"><ele>605.5</ele><time>2026-03-22T09:50:42.225Z</time></trkpt><trkpt lat="43.4927517" lon="11.42384"><ele>607.75</ele><time>2026-03-22T09:50:43.225Z</time></trkpt><trkpt lat="43.4926633" lon="11.4237283"><ele>610.0</ele><time>2026-03-22T09:50:44.225Z</time></trkpt><trkpt lat="43.49257" lon="11.4236233"><ele>604.75</ele><time>2026-03-22T09:50:45.226Z</time></trkpt><trkpt lat="43.4924667" lon="11.4235317"><ele>599.5</ele><time>2026-03-22T09:50:46.225Z</time></trkpt><trkpt lat="43.4923617" lon="11.42345"><ele>594.25</ele><time>2026-03-22T09:50:47.229Z</time></trkpt><trkpt lat="43.4922467" lon="11.4233767"><ele>589.0</ele><time>2026-03-22T09:50:48.225Z</time></trkpt><trkpt lat="43.4921317" lon="11.4232967"><ele>589.0</ele><time>2026-03-22T09:50:49.225Z</time></trkpt><trkpt lat="43.49203" lon="11.4231933"><ele>589.0</ele><time>2026-03-22T09:50:50.227Z</time></trkpt><trkpt lat="43.4919367" lon="11.42306"><ele>589.0</ele><time>2026-03-22T09:50:51.225Z</time></trkpt><trkpt lat="43.4918517" lon="11.4229133"><ele>589.0</ele><time>2026-03-22T09:50:52.225Z</time></trkpt><trkpt lat="43.4917733" lon="11.4227617"><ele>589.0</ele><time>2026-03-22T09:50:53.226Z</time></trkpt><trkpt lat="43.4916967" lon="11.422605"><ele>589.0</ele><time>2026-03-22T09:50:54.226Z</time></trkpt><trkpt lat="43.4916233" lon="11.4224583"><ele>589.0</ele><time>2026-03-22T09:50:55.225Z</time></trkpt><trkpt lat="43.4915533" lon="11.4223183"><ele>589.0</ele><time>2026-03-22T09:50:56.226Z</time></trkpt><trkpt lat="43.49149" lon="11.4221917"><ele>586.4</ele><time>2026-03-22T09:50:57.228Z</time></trkpt><trkpt lat="43.4914283" lon="11.4220717"><ele>583.8</ele><time>2026-03-22T09:50:58.225Z</time></trkpt><trkpt lat="43.4913633" lon="11.4219617"><ele>581.2</ele><time>2026-03-22T09:50:59.225Z</time></trkpt><trkpt lat="43.4912967" lon="11.4218683"><ele>578.6</ele><time>2026-03-22T09:51:00.226Z</time></trkpt><trkpt lat="43.491225" lon="11.4217867"><ele>576.0</ele><time>2026-03-22T09:51:01.225Z</time></trkpt><trkpt lat="43.4911483" lon="11.4217217"><ele>576.0</ele><time>2026-03-22T09:51:02.225Z</time></trkpt><trkpt lat="43.4910633" lon="11.4216833"><ele>576.0</ele><time>2026-03-22T09:51:03.224Z</time></trkpt><trkpt lat="43.4909733" lon="11.4216717"><ele>576.0</ele><time>2026-03-22T09:51:04.225Z</time></trkpt><trkpt lat="43.490885" lon="11.4216983"><ele>576.0</ele><time>2026-03-22T09:51:05.225Z</time></trkpt><trkpt lat="43.49081" lon="11.421735"><ele>576.0</ele><time>2026-03-22T09:51:06.225Z</time></trkpt><trkpt lat="43.4907433" lon="11.4217617"><ele>576.0</ele><time>2026-03-22T09:51:07.228Z</time></trkpt><trkpt lat="43.49068" lon="11.4217633"><ele>576.0</ele><time>2026-03-22T09:51:08.227Z</time></trkpt><trkpt lat="43.4905983" lon="11.4216617"><ele>576.0</ele><time>2026-03-22T09:51:10.225Z</time></trkpt><trkpt lat="43.49065" lon="11.421515"><ele>576.0</ele><time>2026-03-22T09:51:12.226Z</time></trkpt><trkpt lat="43.4907217" lon="11.4214683"><ele>576.0</ele><time>2026-03-22T09:51:13.224Z</time></trkpt><trkpt lat="43.4908033" lon="11.4214433"><ele>576.0</ele><time>2026-03-22T09:51:14.226Z</time></trkpt><trkpt lat="43.490885" lon="11.4214233"><ele>576.0</ele><time>2026-03-22T09:51:15.224Z</time></trkpt><trkpt lat="43.490975" lon="11.4214083"><ele>576.0</ele><time>2026-03-22T09:51:16.223Z</time></trkpt><trkpt lat="43.4910667" lon="11.4213883"><ele>576.0</ele><time>2026-03-22T09:51:17.225Z</time></trkpt><trkpt lat="43.4911517" lon="11.42136"><ele>576.0</ele><time>2026-03-22T09:51:18.228Z</time></trkpt><trkpt lat="43.49123" lon="11.4213133"><ele>576.0</ele><time>2026-03-22T09:51:19.225Z</time></trkpt><trkpt lat="43.4912983" lon="11.421255"><ele>576.0</ele><time>2026-03-22T09:51:20.227Z</time></trkpt><trkpt lat="43.491345" lon="11.4211467"><ele>572.8</ele><time>2026-03-22T09:51:21.224Z</time></trkpt><trkpt lat="43.4913583" lon="11.42101"><ele>569.6</ele><time>2026-03-22T09:51:22.225Z</time></trkpt><trkpt lat="43.49135" lon="11.420865"><ele>566.4</ele><time>2026-03-22T09:51:23.226Z</time></trkpt><trkpt lat="43.49133" lon="11.4207167"><ele>563.2</ele><time>2026-03-22T09:51:24.225Z</time></trkpt><trkpt lat="43.4913083" lon="11.4205633"><ele>560.0</ele><time>2026-03-22T09:51:25.227Z</time></trkpt><trkpt lat="43.4912917" lon="11.4204067"><ele>559.25</ele><time>2026-03-22T09:51:26.225Z</time></trkpt><trkpt lat="43.4912683" lon="11.4202483"><ele>558.5</ele><time>2026-03-22T09:51:27.225Z</time></trkpt><trkpt lat="43.49124" lon="11.4200983"><ele>557.75</ele><time>2026-03-22T09:51:28.226Z</time></trkpt><trkpt lat="43.4912183" lon="11.41995"><ele>557.0</ele><time>2026-03-22T09:51:29.226Z</time></trkpt><trkpt lat="43.4912017" lon="11.4197917"><ele>558.2</ele><time>2026-03-22T09:51:30.227Z</time></trkpt><trkpt lat="43.4911767" lon="11.4196367"><ele>559.4000000000001</ele><time>2026-03-22T09:51:31.225Z</time></trkpt><trkpt lat="43.4911517" lon="11.4194883"><ele>560.5999999999999</ele><time>2026-03-22T09:51:32.225Z</time></trkpt><trkpt lat="43.4911233" lon="11.4193533"><ele>561.8</ele><time>2026-03-22T09:51:33.226Z</time></trkpt><trkpt lat="43.4910867" lon="11.419225"><ele>563.0</ele><time>2026-03-22T09:51:34.226Z</time></trkpt><trkpt lat="43.491055" lon="11.4190883"><ele>563.0</ele><time>2026-03-22T09:51:35.226Z</time></trkpt><trkpt lat="43.4910333" lon="11.4189533"><ele>563.0</ele><time>2026-03-22T09:51:36.226Z</time></trkpt><trkpt lat="43.4910183" lon="11.4188167"><ele>563.0</ele><time>2026-03-22T09:51:37.225Z</time></trkpt><trkpt lat="43.4910117" lon="11.4186883"><ele>563.0</ele><time>2026-03-22T09:51:38.226Z</time></trkpt><trkpt lat="43.4910117" lon="11.41856"><ele>563.0</ele><time>2026-03-22T09:51:39.226Z</time></trkpt><trkpt lat="43.491" lon="11.4184417"><ele>562.3333333333333</ele><time>2026-03-22T09:51:40.225Z</time></trkpt><trkpt lat="43.4909767" lon="11.41833"><ele>561.6666666666666</ele><time>2026-03-22T09:51:41.224Z</time></trkpt><trkpt lat="43.4909333" lon="11.4182317"><ele>561.0</ele><time>2026-03-22T09:51:42.226Z</time></trkpt><trkpt lat="43.4908733" lon="11.4181467"><ele>560.3333333333334</ele><time>2026-03-22T09:51:43.226Z</time></trkpt><trkpt lat="43.4908017" lon="11.418075"><ele>559.6666666666667</ele><time>2026-03-22T09:51:44.226Z</time></trkpt><trkpt lat="43.4907233" lon="11.4180183"><ele>559.0</ele><time>2026-03-22T09:51:45.226Z</time></trkpt><trkpt lat="43.4906317" lon="11.4179733"><ele>559.0</ele><time>2026-03-22T09:51:46.225Z</time></trkpt><trkpt lat="43.4905467" lon="11.41792"><ele>559.0</ele><time>2026-03-22T09:51:47.225Z</time></trkpt><trkpt lat="43.4904633" lon="11.417855"><ele>559.0</ele><time>2026-03-22T09:51:48.225Z</time></trkpt><trkpt lat="43.490385" lon="11.4177733"><ele>559.0</ele><time>2026-03-22T09:51:49.227Z</time></trkpt><trkpt lat="43.4903133" lon="11.4176733"><ele>559.0</ele><time>2026-03-22T09:51:50.227Z</time></trkpt><trkpt lat="43.4902583" lon="11.4175533"><ele>559.6</ele><time>2026-03-22T09:51:51.226Z</time></trkpt><trkpt lat="43.4902183" lon="11.41742"><ele>560.2</ele><time>2026-03-22T09:51:52.226Z</time></trkpt><trkpt lat="43.4901867" lon="11.41728"><ele>560.8000000000001</ele><time>2026-03-22T09:51:53.227Z</time></trkpt><trkpt lat="43.490155" lon="11.417135"><ele>561.4</ele><time>2026-03-22T09:51:54.226Z</time></trkpt><trkpt lat="43.4901283" lon="11.416995"><ele>562.0</ele><time>2026-03-22T09:51:55.226Z</time></trkpt><trkpt lat="43.49011" lon="11.4168417"><ele>562.0</ele><time>2026-03-22T09:51:56.225Z</time></trkpt><trkpt lat="43.4901033" lon="11.4166883"><ele>562.0</ele><time>2026-03-22T09:51:57.226Z</time></trkpt><trkpt lat="43.49011" lon="11.4165267"><ele>562.0</ele><time>2026-03-22T09:51:58.227Z</time></trkpt><trkpt lat="43.49013" lon="11.4163683"><ele>562.0</ele><time>2026-03-22T09:51:59.226Z</time></trkpt><trkpt lat="43.4901583" lon="11.4162083"><ele>560.5</ele><time>2026-03-22T09:52:00.225Z</time></trkpt><trkpt lat="43.4901967" lon="11.4160517"><ele>559.0</ele><time>2026-03-22T09:52:01.226Z</time></trkpt><trkpt lat="43.490235" lon="11.4158917"><ele>557.5</ele><time>2026-03-22T09:52:02.228Z</time></trkpt><trkpt lat="43.4902783" lon="11.4157267"><ele>556.0</ele><time>2026-03-22T09:52:03.225Z</time></trkpt><trkpt lat="43.4903167" lon="11.4155633"><ele>555.5</ele><time>2026-03-22T09:52:04.225Z</time></trkpt><trkpt lat="43.49035" lon="11.415405"><ele>555.0</ele><time>2026-03-22T09:52:05.224Z</time></trkpt><trkpt lat="43.4903767" lon="11.41525"><ele>554.5</ele><time>2026-03-22T09:52:06.227Z</time></trkpt><trkpt lat="43.4904017" lon="11.415095"><ele>554.0</ele><time>2026-03-22T09:52:07.224Z</time></trkpt><trkpt lat="43.4904233" lon="11.41494"><ele>553.75</ele><time>2026-03-22T09:52:08.226Z</time></trkpt><trkpt lat="43.4904433" lon="11.4147867"><ele>553.5</ele><time>2026-03-22T09:52:09.225Z</time></trkpt><trkpt lat="43.4904633" lon="11.4146367"><ele>553.25</ele><time>2026-03-22T09:52:10.226Z</time></trkpt><trkpt lat="43.4904867" lon="11.4144833"><ele>553.0</ele><time>2026-03-22T09:52:11.225Z</time></trkpt><trkpt lat="43.4905117" lon="11.414325"><ele>553.0</ele><time>2026-03-22T09:52:12.225Z</time></trkpt><trkpt lat="43.490535" lon="11.4141683"><ele>553.0</ele><time>2026-03-22T09:52:13.227Z</time></trkpt><trkpt lat="43.4905617" lon="11.4140117"><ele>553.0</ele><time>2026-03-22T09:52:14.226Z</time></trkpt><trkpt lat="43.49059" lon="11.4138567"><ele>553.0</ele><time>2026-03-22T09:52:15.225Z</time></trkpt><trkpt lat="43.4906117" lon="11.4136983"><ele>552.1999999999999</ele><time>2026-03-22T09:52:16.225Z</time></trkpt><trkpt lat="43.4906183" lon="11.4135467"><ele>551.4</ele><time>2026-03-22T09:52:17.228Z</time></trkpt><trkpt lat="43.4906117" lon="11.413395"><ele>550.5999999999999</ele><time>2026-03-22T09:52:18.223Z</time></trkpt><trkpt lat="43.490585" lon="11.413255"><ele>549.8</ele><time>2026-03-22T09:52:19.224Z</time></trkpt><trkpt lat="43.4905417" lon="11.4131217"><ele>549.0</ele><time>2026-03-22T09:52:20.224Z</time></trkpt><trkpt lat="43.490485" lon="11.413"><ele>550.8</ele><time>2026-03-22T09:52:21.222Z</time></trkpt><trkpt lat="43.49042" lon="11.412885"><ele>552.5999999999999</ele><time>2026-03-22T09:52:22.225Z</time></trkpt><trkpt lat="43.4903467" lon="11.41278"><ele>554.4</ele><time>2026-03-22T09:52:23.223Z</time></trkpt><trkpt lat="43.4902717" lon="11.4126767"><ele>556.1999999999999</ele><time>2026-03-22T09:52:24.224Z</time></trkpt><trkpt lat="43.4901967" lon="11.4125783"><ele>558.0</ele><time>2026-03-22T09:52:25.224Z</time></trkpt><trkpt lat="43.4901217" lon="11.412485"><ele>558.0</ele><time>2026-03-22T09:52:26.229Z</time></trkpt><trkpt lat="43.4900417" lon="11.4124"><ele>558.0</ele><time>2026-03-22T09:52:27.225Z</time></trkpt><trkpt lat="43.4899617" lon="11.4123167"><ele>558.0</ele><time>2026-03-22T09:52:28.226Z</time></trkpt><trkpt lat="43.489885" lon="11.41224"><ele>558.0</ele><time>2026-03-22T09:52:29.226Z</time></trkpt><trkpt lat="43.48981" lon="11.41216"><ele>558.0</ele><time>2026-03-22T09:52:30.227Z</time></trkpt><trkpt lat="43.4897367" lon="11.4120783"><ele>558.8</ele><time>2026-03-22T09:52:31.224Z</time></trkpt><trkpt lat="43.4896633" lon="11.4119917"><ele>559.5999999999999</ele><time>2026-03-22T09:52:32.225Z</time></trkpt><trkpt lat="43.4895983" lon="11.4118967"><ele>560.4000000000001</ele><time>2026-03-22T09:52:33.225Z</time></trkpt><trkpt lat="43.4895417" lon="11.4117917"><ele>561.2</ele><time>2026-03-22T09:52:34.228Z</time></trkpt><trkpt lat="43.489495" lon="11.4116817"><ele>562.0</ele><time>2026-03-22T09:52:35.225Z</time></trkpt><trkpt lat="43.4894583" lon="11.4115633"><ele>560.0</ele><time>2026-03-22T09:52:36.228Z</time></trkpt><trkpt lat="43.48943" lon="11.41144"><ele>558.0</ele><time>2026-03-22T09:52:37.225Z</time></trkpt><trkpt lat="43.4894217" lon="11.4113"><ele>556.0</ele><time>2026-03-22T09:52:38.226Z</time></trkpt><trkpt lat="43.489435" lon="11.411155"><ele>554.0</ele><time>2026-03-22T09:52:39.226Z</time></trkpt><trkpt lat="43.4894683" lon="11.4110117"><ele>552.0</ele><time>2026-03-22T09:52:40.226Z</time></trkpt><trkpt lat="43.48952" lon="11.4108783"><ele>551.25</ele><time>2026-03-22T09:52:41.225Z</time></trkpt><trkpt lat="43.4895883" lon="11.4107533"><ele>550.5</ele><time>2026-03-22T09:52:42.228Z</time></trkpt><trkpt lat="43.489665" lon="11.41063"><ele>549.75</ele><time>2026-03-22T09:52:43.225Z</time></trkpt><trkpt lat="43.48974" lon="11.41051"><ele>549.0</ele><time>2026-03-22T09:52:44.225Z</time></trkpt><trkpt lat="43.4898117" lon="11.4103783"><ele>548.75</ele><time>2026-03-22T09:52:45.227Z</time></trkpt><trkpt lat="43.4898733" lon="11.4102367"><ele>548.5</ele><time>2026-03-22T09:52:46.225Z</time></trkpt><trkpt lat="43.4899267" lon="11.4100883"><ele>548.25</ele><time>2026-03-22T09:52:47.225Z</time></trkpt><trkpt lat="43.4899733" lon="11.40992"><ele>548.0</ele><time>2026-03-22T09:52:48.226Z</time></trkpt><trkpt lat="43.4900033" lon="11.409745"><ele>547.5</ele><time>2026-03-22T09:52:49.227Z</time></trkpt><trkpt lat="43.49002" lon="11.4095683"><ele>547.0</ele><time>2026-03-22T09:52:50.225Z</time></trkpt><trkpt lat="43.4900283" lon="11.4093967"><ele>546.5</ele><time>2026-03-22T09:52:51.225Z</time></trkpt><trkpt lat="43.490035" lon="11.4092283"><ele>546.0</ele><time>2026-03-22T09:52:52.225Z</time></trkpt><trkpt lat="43.490045" lon="11.409065"><ele>546.0</ele><time>2026-03-22T09:52:53.225Z</time></trkpt><trkpt lat="43.49005" lon="11.4089067"><ele>546.0</ele><time>2026-03-22T09:52:54.226Z</time></trkpt><trkpt lat="43.4900517" lon="11.40875"><ele>546.0</ele><time>2026-03-22T09:52:55.226Z</time></trkpt><trkpt lat="43.4900517" lon="11.4085883"><ele>546.0</ele><time>2026-03-22T09:52:56.226Z</time></trkpt><trkpt lat="43.4900467" lon="11.40843"><ele>545.0</ele><time>2026-03-22T09:52:57.227Z</time></trkpt><trkpt lat="43.4900383" lon="11.4082683"><ele>544.0</ele><time>2026-03-22T09:52:58.227Z</time></trkpt><trkpt lat="43.4900333" lon="11.4080967"><ele>543.0</ele><time>2026-03-22T09:52:59.227Z</time></trkpt><trkpt lat="43.4900183" lon="11.40794"><ele>542.0</ele><time>2026-03-22T09:53:00.226Z</time></trkpt><trkpt lat="43.4899967" lon="11.4077833"><ele>541.5</ele><time>2026-03-22T09:53:01.227Z</time></trkpt><trkpt lat="43.489965" lon="11.40763"><ele>541.0</ele><time>2026-03-22T09:53:02.226Z</time></trkpt><trkpt lat="43.4899183" lon="11.407485"><ele>540.5</ele><time>2026-03-22T09:53:03.226Z</time></trkpt><trkpt lat="43.48986" lon="11.407345"><ele>540.0</ele><time>2026-03-22T09:53:04.225Z</time></trkpt><trkpt lat="43.489795" lon="11.4072133"><ele>538.75</ele><time>2026-03-22T09:53:05.229Z</time></trkpt><trkpt lat="43.48972" lon="11.4070867"><ele>537.5</ele><time>2026-03-22T09:53:06.226Z</time></trkpt><trkpt lat="43.4896383" lon="11.406965"><ele>536.25</ele><time>2026-03-22T09:53:07.226Z</time></trkpt><trkpt lat="43.489555" lon="11.4068467"><ele>535.0</ele><time>2026-03-22T09:53:08.225Z</time></trkpt><trkpt lat="43.489475" lon="11.4067267"><ele>534.75</ele><time>2026-03-22T09:53:09.228Z</time></trkpt><trkpt lat="43.4893933" lon="11.4066033"><ele>534.5</ele><time>2026-03-22T09:53:10.227Z</time></trkpt><trkpt lat="43.4893167" lon="11.4064733"><ele>534.25</ele><time>2026-03-22T09:53:11.226Z</time></trkpt><trkpt lat="43.4892483" lon="11.4063267"><ele>534.0</ele><time>2026-03-22T09:53:12.226Z</time></trkpt><trkpt lat="43.4891917" lon="11.4061717"><ele>534.0</ele><time>2026-03-22T09:53:13.229Z</time></trkpt><trkpt lat="43.4891417" lon="11.4060117"><ele>534.0</ele><time>2026-03-22T09:53:14.228Z</time></trkpt><trkpt lat="43.4891" lon="11.4058533"><ele>534.0</ele><time>2026-03-22T09:53:15.226Z</time></trkpt><trkpt lat="43.4890717" lon="11.40569"><ele>534.0</ele><time>2026-03-22T09:53:16.226Z</time></trkpt><trkpt lat="43.489045" lon="11.405535"><ele>532.0</ele><time>2026-03-22T09:53:17.226Z</time></trkpt><trkpt lat="43.489015" lon="11.4053817"><ele>530.0</ele><time>2026-03-22T09:53:18.226Z</time></trkpt><trkpt lat="43.48898" lon="11.40523"><ele>528.0</ele><time>2026-03-22T09:53:19.227Z</time></trkpt><trkpt lat="43.4889333" lon="11.40508"><ele>526.0</ele><time>2026-03-22T09:53:20.226Z</time></trkpt><trkpt lat="43.48888" lon="11.4049267"><ele>526.0</ele><time>2026-03-22T09:53:21.226Z</time></trkpt><trkpt lat="43.4888233" lon="11.404775"><ele>526.0</ele><time>2026-03-22T09:53:22.226Z</time></trkpt><trkpt lat="43.4887767" lon="11.404615"><ele>526.0</ele><time>2026-03-22T09:53:23.227Z</time></trkpt><trkpt lat="43.48874" lon="11.40445"><ele>526.0</ele><time>2026-03-22T09:53:24.226Z</time></trkpt><trkpt lat="43.4887183" lon="11.4042817"><ele>523.25</ele><time>2026-03-22T09:53:25.228Z</time></trkpt><trkpt lat="43.48872" lon="11.4041017"><ele>520.5</ele><time>2026-03-22T09:53:26.226Z</time></trkpt><trkpt lat="43.4887317" lon="11.4039233"><ele>517.75</ele><time>2026-03-22T09:53:27.226Z</time></trkpt><trkpt lat="43.4887517" lon="11.4037467"><ele>515.0</ele><time>2026-03-22T09:53:28.226Z</time></trkpt><trkpt lat="43.4887717" lon="11.4035783"><ele>515.0</ele><time>2026-03-22T09:53:29.227Z</time></trkpt><trkpt lat="43.4887767" lon="11.4034083"><ele>515.0</ele><time>2026-03-22T09:53:30.225Z</time></trkpt><trkpt lat="43.4887717" lon="11.4032283"><ele>515.0</ele><time>2026-03-22T09:53:31.226Z</time></trkpt><trkpt lat="43.488765" lon="11.403055"><ele>515.0</ele><time>2026-03-22T09:53:32.226Z</time></trkpt><trkpt lat="43.4887667" lon="11.40288"><ele>514.5</ele><time>2026-03-22T09:53:33.228Z</time></trkpt><trkpt lat="43.488775" lon="11.40271"><ele>514.0</ele><time>2026-03-22T09:53:34.225Z</time></trkpt><trkpt lat="43.488785" lon="11.40254"><ele>513.5</ele><time>2026-03-22T09:53:35.226Z</time></trkpt><trkpt lat="43.4887933" lon="11.4023767"><ele>513.0</ele><time>2026-03-22T09:53:36.227Z</time></trkpt><trkpt lat="43.4888067" lon="11.4022233"><ele>512.8</ele><time>2026-03-22T09:53:37.226Z</time></trkpt><trkpt lat="43.48883" lon="11.4020817"><ele>512.5999999999999</ele><time>2026-03-22T09:53:38.226Z</time></trkpt><trkpt lat="43.488865" lon="11.4019467"><ele>512.4000000000001</ele><time>2026-03-22T09:53:39.225Z</time></trkpt><trkpt lat="43.4889" lon="11.4018283"><ele>512.2</ele><time>2026-03-22T09:53:40.225Z</time></trkpt><trkpt lat="43.48893" lon="11.4017117"><ele>512.0</ele><time>2026-03-22T09:53:41.226Z</time></trkpt><trkpt lat="43.4889433" lon="11.40159"><ele>512.0</ele><time>2026-03-22T09:53:42.228Z</time></trkpt><trkpt lat="43.4889383" lon="11.4014733"><ele>512.0</ele><time>2026-03-22T09:53:43.227Z</time></trkpt><trkpt lat="43.48891" lon="11.40136"><ele>512.0</ele><time>2026-03-22T09:53:44.225Z</time></trkpt><trkpt lat="43.48886" lon="11.4012567"><ele>512.0</ele><time>2026-03-22T09:53:45.226Z</time></trkpt><trkpt lat="43.4887933" lon="11.40117"><ele>512.0</ele><time>2026-03-22T09:53:46.225Z</time></trkpt><trkpt lat="43.4887117" lon="11.4010933"><ele>512.2</ele><time>2026-03-22T09:53:47.226Z</time></trkpt><trkpt lat="43.488625" lon="11.401025"><ele>512.4000000000001</ele><time>2026-03-22T09:53:48.227Z</time></trkpt><trkpt lat="43.4885367" lon="11.4009533"><ele>512.5999999999999</ele><time>2026-03-22T09:53:49.228Z</time></trkpt><trkpt lat="43.48845" lon="11.40088"><ele>512.8</ele><time>2026-03-22T09:53:50.226Z</time></trkpt><trkpt lat="43.4883617" lon="11.4008117"><ele>513.0</ele><time>2026-03-22T09:53:51.226Z</time></trkpt><trkpt lat="43.4882767" lon="11.4007567"><ele>513.0</ele><time>2026-03-22T09:53:52.226Z</time></trkpt><trkpt lat="43.48819" lon="11.400715"><ele>513.0</ele><time>2026-03-22T09:53:53.228Z</time></trkpt><trkpt lat="43.4881033" lon="11.4006933"><ele>513.0</ele><time>2026-03-22T09:53:54.227Z</time></trkpt><trkpt lat="43.4880233" lon="11.4007"><ele>513.0</ele><time>2026-03-22T09:53:55.226Z</time></trkpt><trkpt lat="43.4879417" lon="11.4007417"><ele>513.0</ele><time>2026-03-22T09:53:56.226Z</time></trkpt><trkpt lat="43.48787" lon="11.4008183"><ele>513.0</ele><time>2026-03-22T09:53:57.228Z</time></trkpt><trkpt lat="43.4878083" lon="11.4009183"><ele>511.6666666666667</ele><time>2026-03-22T09:53:58.225Z</time></trkpt><trkpt lat="43.487755" lon="11.40102"><ele>510.33333333333337</ele><time>2026-03-22T09:53:59.226Z</time></trkpt><trkpt lat="43.487705" lon="11.4011117"><ele>509.0</ele><time>2026-03-22T09:54:00.227Z</time></trkpt><trkpt lat="43.487655" lon="11.4011783"><ele>507.6666666666667</ele><time>2026-03-22T09:54:01.226Z</time></trkpt><trkpt lat="43.4876" lon="11.4012383"><ele>506.33333333333337</ele><time>2026-03-22T09:54:02.227Z</time></trkpt><trkpt lat="43.4874883" lon="11.40124"><ele>505.0</ele><time>2026-03-22T09:54:04.226Z</time></trkpt><trkpt lat="43.4874767" lon="11.4010583"><ele>505.0</ele><time>2026-03-22T09:54:06.226Z</time></trkpt><trkpt lat="43.487515" lon="11.4009333"><ele>505.0</ele><time>2026-03-22T09:54:07.227Z</time></trkpt><trkpt lat="43.4875533" lon="11.4007967"><ele>505.0</ele><time>2026-03-22T09:54:08.226Z</time></trkpt><trkpt lat="43.4875767" lon="11.4006667"><ele>505.0</ele><time>2026-03-22T09:54:09.225Z</time></trkpt><trkpt lat="43.4875833" lon="11.4005333"><ele>505.0</ele><time>2026-03-22T09:54:10.226Z</time></trkpt><trkpt lat="43.4875833" lon="11.400395"><ele>504.33333333333337</ele><time>2026-03-22T09:54:11.227Z</time></trkpt><trkpt lat="43.4875817" lon="11.4002617"><ele>503.6666666666667</ele><time>2026-03-22T09:54:12.226Z</time></trkpt><trkpt lat="43.487585" lon="11.4001317"><ele>503.0</ele><time>2026-03-22T09:54:13.226Z</time></trkpt><trkpt lat="43.4875983" lon="11.40002"><ele>502.33333333333337</ele><time>2026-03-22T09:54:14.226Z</time></trkpt><trkpt lat="43.4876267" lon="11.399925"><ele>501.6666666666667</ele><time>2026-03-22T09:54:15.227Z</time></trkpt><trkpt lat="43.487675" lon="11.3998467"><ele>501.0</ele><time>2026-03-22T09:54:16.225Z</time></trkpt><trkpt lat="43.4877383" lon="11.3997983"><ele>501.0</ele><time>2026-03-22T09:54:17.227Z</time></trkpt><trkpt lat="43.4878133" lon="11.3997733"><ele>501.0</ele><time>2026-03-22T09:54:18.225Z</time></trkpt><trkpt lat="43.4878917" lon="11.39977"><ele>501.0</ele><time>2026-03-22T09:54:19.227Z</time></trkpt><trkpt lat="43.4879733" lon="11.3997667"><ele>501.0</ele><time>2026-03-22T09:54:20.226Z</time></trkpt><trkpt lat="43.488055" lon="11.39976"><ele>501.0</ele><time>2026-03-22T09:54:21.227Z</time></trkpt><trkpt lat="43.4881383" lon="11.3997433"><ele>501.0</ele><time>2026-03-22T09:54:22.226Z</time></trkpt><trkpt lat="43.4882233" lon="11.3997133"><ele>500.8</ele><time>2026-03-22T09:54:23.227Z</time></trkpt><trkpt lat="43.488305" lon="11.399655"><ele>500.6</ele><time>2026-03-22T09:54:24.226Z</time></trkpt><trkpt lat="43.4883833" lon="11.39958"><ele>500.4</ele><time>2026-03-22T09:54:25.226Z</time></trkpt><trkpt lat="43.4884533" lon="11.3994817"><ele>500.2</ele><time>2026-03-22T09:54:26.227Z</time></trkpt><trkpt lat="43.4885133" lon="11.3993667"><ele>500.0</ele><time>2026-03-22T09:54:27.226Z</time></trkpt><trkpt lat="43.4885733" lon="11.3992383"><ele>500.0</ele><time>2026-03-22T09:54:28.226Z</time></trkpt><trkpt lat="43.4886317" lon="11.399105"><ele>500.0</ele><time>2026-03-22T09:54:29.225Z</time></trkpt><trkpt lat="43.4886933" lon="11.3989783"><ele>500.0</ele><time>2026-03-22T09:54:30.228Z</time></trkpt><trkpt lat="43.4887567" lon="11.3988433"><ele>500.0</ele><time>2026-03-22T09:54:31.226Z</time></trkpt><trkpt lat="43.4888183" lon="11.3987083"><ele>496.0</ele><time>2026-03-22T09:54:32.227Z</time></trkpt><trkpt lat="43.4888817" lon="11.39857"><ele>492.0</ele><time>2026-03-22T09:54:33.225Z</time></trkpt><trkpt lat="43.4889433" lon="11.39843"><ele>488.0</ele><time>2026-03-22T09:54:34.227Z</time></trkpt><trkpt lat="43.4890017" lon="11.3982867"><ele>484.0</ele><time>2026-03-22T09:54:35.226Z</time></trkpt><trkpt lat="43.4890633" lon="11.3981417"><ele>485.5</ele><time>2026-03-22T09:54:36.227Z</time></trkpt><trkpt lat="43.4891283" lon="11.3979933"><ele>487.0</ele><time>2026-03-22T09:54:37.226Z</time></trkpt><trkpt lat="43.4891983" lon="11.39784"><ele>488.5</ele><time>2026-03-22T09:54:38.228Z</time></trkpt><trkpt lat="43.48927" lon="11.3976933"><ele>490.0</ele><time>2026-03-22T09:54:39.226Z</time></trkpt><trkpt lat="43.48934" lon="11.3975433"><ele>490.0</ele><time>2026-03-22T09:54:40.227Z</time></trkpt><trkpt lat="43.4894117" lon="11.39739"><ele>490.0</ele><time>2026-03-22T09:54:41.227Z</time></trkpt><trkpt lat="43.4894833" lon="11.3972367"><ele>490.0</ele><time>2026-03-22T09:54:42.227Z</time></trkpt><trkpt lat="43.4895517" lon="11.3970783"><ele>490.0</ele><time>2026-03-22T09:54:43.226Z</time></trkpt><trkpt lat="43.4896167" lon="11.3969267"><ele>486.6</ele><time>2026-03-22T09:54:44.226Z</time></trkpt><trkpt lat="43.48969" lon="11.3967917"><ele>483.2</ele><time>2026-03-22T09:54:45.225Z</time></trkpt><trkpt lat="43.4897717" lon="11.3966783"><ele>479.79999999999995</ele><time>2026-03-22T09:54:46.226Z</time></trkpt><trkpt lat="43.4898517" lon="11.3965833"><ele>476.4</ele><time>2026-03-22T09:54:47.227Z</time></trkpt><trkpt lat="43.489925" lon="11.396495"><ele>473.0</ele><time>2026-03-22T09:54:48.228Z</time></trkpt><trkpt lat="43.4899933" lon="11.3963933"><ele>473.0</ele><time>2026-03-22T09:54:49.225Z</time></trkpt><trkpt lat="43.4900467" lon="11.3962733"><ele>472.99999999999994</ele><time>2026-03-22T09:54:50.226Z</time></trkpt><trkpt lat="43.490085" lon="11.39614"><ele>472.99999999999994</ele><time>2026-03-22T09:54:51.226Z</time></trkpt><trkpt lat="43.4901133" lon="11.3959967"><ele>473.0</ele><time>2026-03-22T09:54:52.23Z</time></trkpt><trkpt lat="43.49013" lon="11.3958433"><ele>473.0</ele><time>2026-03-22T09:54:53.226Z</time></trkpt><trkpt lat="43.4901417" lon="11.3956883"><ele>473.0</ele><time>2026-03-22T09:54:54.226Z</time></trkpt><trkpt lat="43.4901517" lon="11.3955283"><ele>473.0</ele><time>2026-03-22T09:54:55.227Z</time></trkpt><trkpt lat="43.4901517" lon="11.3953667"><ele>473.0</ele><time>2026-03-22T09:54:56.226Z</time></trkpt><trkpt lat="43.49015" lon="11.3952017"><ele>473.0</ele><time>2026-03-22T09:54:57.226Z</time></trkpt><trkpt lat="43.490145" lon="11.3950367"><ele>472.0</ele><time>2026-03-22T09:54:58.228Z</time></trkpt><trkpt lat="43.490135" lon="11.3948717"><ele>471.0</ele><time>2026-03-22T09:54:59.226Z</time></trkpt><trkpt lat="43.490125" lon="11.3947083"><ele>470.0</ele><time>2026-03-22T09:55:00.227Z</time></trkpt><trkpt lat="43.490125" lon="11.394545"><ele>469.0</ele><time>2026-03-22T09:55:01.227Z</time></trkpt><trkpt lat="43.49014" lon="11.3943833"><ele>467.75</ele><time>2026-03-22T09:55:02.226Z</time></trkpt><trkpt lat="43.4901767" lon="11.3942233"><ele>466.5</ele><time>2026-03-22T09:55:03.227Z</time></trkpt><trkpt lat="43.490225" lon="11.3940717"><ele>465.25</ele><time>2026-03-22T09:55:04.226Z</time></trkpt><trkpt lat="43.49028" lon="11.3939333"><ele>464.0</ele><time>2026-03-22T09:55:05.226Z</time></trkpt><trkpt lat="43.4903333" lon="11.3937967"><ele>463.2</ele><time>2026-03-22T09:55:06.227Z</time></trkpt><trkpt lat="43.49038" lon="11.39366"><ele>462.4</ele><time>2026-03-22T09:55:07.226Z</time></trkpt><trkpt lat="43.4904083" lon="11.3935133"><ele>461.6</ele><time>2026-03-22T09:55:08.226Z</time></trkpt><trkpt lat="43.4904217" lon="11.39336"><ele>460.8</ele><time>2026-03-22T09:55:09.228Z</time></trkpt><trkpt lat="43.490415" lon="11.3932033"><ele>460.0</ele><time>2026-03-22T09:55:10.225Z</time></trkpt><trkpt lat="43.49039" lon="11.39305"><ele>459.25</ele><time>2026-03-22T09:55:11.226Z</time></trkpt><trkpt lat="43.4903533" lon="11.3928983"><ele>458.5</ele><time>2026-03-22T09:55:12.226Z</time></trkpt><trkpt lat="43.49031" lon="11.3927467"><ele>457.75</ele><time>2026-03-22T09:55:13.228Z</time></trkpt><trkpt lat="43.4902683" lon="11.3925917"><ele>457.0</ele><time>2026-03-22T09:55:14.227Z</time></trkpt><trkpt lat="43.490235" lon="11.39243"><ele>457.0</ele><time>2026-03-22T09:55:15.226Z</time></trkpt><trkpt lat="43.4902167" lon="11.39226"><ele>457.0</ele><time>2026-03-22T09:55:16.226Z</time></trkpt><trkpt lat="43.4902083" lon="11.3920883"><ele>457.0</ele><time>2026-03-22T09:55:17.226Z</time></trkpt><trkpt lat="43.4902083" lon="11.3919267"><ele>457.0</ele><time>2026-03-22T09:55:18.227Z</time></trkpt><trkpt lat="43.4902117" lon="11.3917617"><ele>456.8</ele><time>2026-03-22T09:55:19.227Z</time></trkpt><trkpt lat="43.4902117" lon="11.3916033"><ele>456.6</ele><time>2026-03-22T09:55:20.227Z</time></trkpt><trkpt lat="43.490205" lon="11.39145"><ele>456.40000000000003</ele><time>2026-03-22T09:55:21.227Z</time></trkpt><trkpt lat="43.4901783" lon="11.3913083"><ele>456.20000000000005</ele><time>2026-03-22T09:55:22.227Z</time></trkpt><trkpt lat="43.490135" lon="11.391175"><ele>456.0</ele><time>2026-03-22T09:55:23.228Z</time></trkpt><trkpt lat="43.4900767" lon="11.391055"><ele>456.6</ele><time>2026-03-22T09:55:24.227Z</time></trkpt><trkpt lat="43.4900083" lon="11.3909467"><ele>457.20000000000005</ele><time>2026-03-22T09:55:25.227Z</time></trkpt><trkpt lat="43.4899383" lon="11.3908417"><ele>457.79999999999995</ele><time>2026-03-22T09:55:26.227Z</time></trkpt><trkpt lat="43.4898717" lon="11.39074"><ele>458.4</ele><time>2026-03-22T09:55:27.227Z</time></trkpt><trkpt lat="43.4898117" lon="11.3906317"><ele>459.0</ele><time>2026-03-22T09:55:28.227Z</time></trkpt><trkpt lat="43.489755" lon="11.3905217"><ele>460.2</ele><time>2026-03-22T09:55:29.228Z</time></trkpt><trkpt lat="43.4897033" lon="11.39041"><ele>461.4</ele><time>2026-03-22T09:55:30.227Z</time></trkpt><trkpt lat="43.4896583" lon="11.3902833"><ele>462.6</ele><time>2026-03-22T09:55:31.227Z</time></trkpt><trkpt lat="43.4896083" lon="11.390165"><ele>463.8</ele><time>2026-03-22T09:55:32.227Z</time></trkpt><trkpt lat="43.489565" lon="11.3900433"><ele>465.0</ele><time>2026-03-22T09:55:33.227Z</time></trkpt><trkpt lat="43.48952" lon="11.3899267"><ele>463.0</ele><time>2026-03-22T09:55:34.226Z</time></trkpt><trkpt lat="43.4894783" lon="11.38981"><ele>461.0</ele><time>2026-03-22T09:55:35.226Z</time></trkpt><trkpt lat="43.4894317" lon="11.3896917"><ele>459.0</ele><time>2026-03-22T09:55:36.227Z</time></trkpt><trkpt lat="43.4893883" lon="11.38958"><ele>457.0</ele><time>2026-03-22T09:55:37.227Z</time></trkpt><trkpt lat="43.48935" lon="11.389465"><ele>455.0</ele><time>2026-03-22T09:55:38.226Z</time></trkpt><trkpt lat="43.48932" lon="11.3893417"><ele>454.99999999999994</ele><time>2026-03-22T09:55:39.227Z</time></trkpt><trkpt lat="43.4893017" lon="11.3892217"><ele>455.0</ele><time>2026-03-22T09:55:40.228Z</time></trkpt><trkpt lat="43.4893067" lon="11.3890967"><ele>455.0</ele><time>2026-03-22T09:55:41.227Z</time></trkpt><trkpt lat="43.489325" lon="11.3889767"><ele>455.0</ele><time>2026-03-22T09:55:42.227Z</time></trkpt><trkpt lat="43.4893517" lon="11.3888633"><ele>454.99999999999994</ele><time>2026-03-22T09:55:43.228Z</time></trkpt><trkpt lat="43.4893833" lon="11.3887533"><ele>455.0</ele><time>2026-03-22T09:55:44.225Z</time></trkpt><trkpt lat="43.4894083" lon="11.38864"><ele>454.3333333333333</ele><time>2026-03-22T09:55:45.226Z</time></trkpt><trkpt lat="43.4894267" lon="11.3885267"><ele>453.66666666666663</ele><time>2026-03-22T09:55:46.225Z</time></trkpt><trkpt lat="43.4894417" lon="11.3884133"><ele>453.0</ele><time>2026-03-22T09:55:47.226Z</time></trkpt><trkpt lat="43.489455" lon="11.3883"><ele>452.33333333333337</ele><time>2026-03-22T09:55:48.226Z</time></trkpt><trkpt lat="43.48947" lon="11.38819"><ele>451.6666666666667</ele><time>2026-03-22T09:55:49.225Z</time></trkpt><trkpt lat="43.489485" lon="11.3880783"><ele>451.0</ele><time>2026-03-22T09:55:50.226Z</time></trkpt><trkpt lat="43.489495" lon="11.38796"><ele>450.50000000000006</ele><time>2026-03-22T09:55:51.225Z</time></trkpt><trkpt lat="43.4895033" lon="11.3878433"><ele>450.0</ele><time>2026-03-22T09:55:52.225Z</time></trkpt><trkpt lat="43.489515" lon="11.3877267"><ele>449.5</ele><time>2026-03-22T09:55:53.225Z</time></trkpt><trkpt lat="43.4895267" lon="11.38761"><ele>449.0</ele><time>2026-03-22T09:55:54.225Z</time></trkpt><trkpt lat="43.4895383" lon="11.3874933"><ele>448.50000000000006</ele><time>2026-03-22T09:55:55.227Z</time></trkpt><trkpt lat="43.4895467" lon="11.38738"><ele>448.0</ele><time>2026-03-22T09:55:56.224Z</time></trkpt><trkpt lat="43.4895517" lon="11.3872667"><ele>447.83333333333337</ele><time>2026-03-22T09:55:57.225Z</time></trkpt><trkpt lat="43.4895617" lon="11.387155"><ele>447.6666666666667</ele><time>2026-03-22T09:55:58.225Z</time></trkpt><trkpt lat="43.4895717" lon="11.3870417"><ele>447.5</ele><time>2026-03-22T09:55:59.226Z</time></trkpt><trkpt lat="43.4895867" lon="11.3869283"><ele>447.33333333333337</ele><time>2026-03-22T09:56:00.225Z</time></trkpt><trkpt lat="43.4896067" lon="11.3868167"><ele>447.1666666666667</ele><time>2026-03-22T09:56:01.225Z</time></trkpt><trkpt lat="43.489635" lon="11.3867083"><ele>447.0</ele><time>2026-03-22T09:56:02.226Z</time></trkpt><trkpt lat="43.489665" lon="11.3866083"><ele>449.40000000000003</ele><time>2026-03-22T09:56:03.225Z</time></trkpt><trkpt lat="43.4897033" lon="11.3865217"><ele>451.80000000000007</ele><time>2026-03-22T09:56:04.226Z</time></trkpt><trkpt lat="43.489755" lon="11.386445"><ele>454.2</ele><time>2026-03-22T09:56:05.226Z</time></trkpt><trkpt lat="43.48982" lon="11.3863033"><ele>456.6</ele><time>2026-03-22T09:56:07.225Z</time></trkpt><trkpt lat="43.48983" lon="11.3861333"><ele>459.0</ele><time>2026-03-22T09:56:09.225Z</time></trkpt><trkpt lat="43.4898283" lon="11.3860383"><ele>459.0</ele><time>2026-03-22T09:56:10.226Z</time></trkpt><trkpt lat="43.4898367" lon="11.38594"><ele>459.0</ele><time>2026-03-22T09:56:11.225Z</time></trkpt><trkpt lat="43.4898617" lon="11.3858383"><ele>459.0</ele><time>2026-03-22T09:56:12.225Z</time></trkpt><trkpt lat="43.489885" lon="11.38574"><ele>459.0</ele><time>2026-03-22T09:56:13.225Z</time></trkpt><trkpt lat="43.4899083" lon="11.3856433"><ele>459.0</ele><time>2026-03-22T09:56:14.225Z</time></trkpt><trkpt lat="43.48993" lon="11.3855483"><ele>459.0</ele><time>2026-03-22T09:56:15.225Z</time></trkpt><trkpt lat="43.4899567" lon="11.3854533"><ele>459.0</ele><time>2026-03-22T09:56:16.225Z</time></trkpt><trkpt lat="43.4899833" lon="11.3853633"><ele>458.8571428571429</ele><time>2026-03-22T09:56:17.226Z</time></trkpt><trkpt lat="43.490015" lon="11.385285"><ele>458.71428571428567</ele><time>2026-03-22T09:56:18.226Z</time></trkpt><trkpt lat="43.4900583" lon="11.3852133"><ele>458.57142857142856</ele><time>2026-03-22T09:56:19.226Z</time></trkpt><trkpt lat="43.4901067" lon="11.385145"><ele>458.42857142857144</ele><time>2026-03-22T09:56:20.226Z</time></trkpt><trkpt lat="43.4901567" lon="11.3850833"><ele>458.28571428571433</ele><time>2026-03-22T09:56:21.226Z</time></trkpt><trkpt lat="43.4902083" lon="11.385025"><ele>458.1428571428571</ele><time>2026-03-22T09:56:22.223Z</time></trkpt><trkpt lat="43.4902583" lon="11.384965"><ele>458.0</ele><time>2026-03-22T09:56:23.226Z</time></trkpt><trkpt lat="43.4903033" lon="11.3849033"><ele>457.99999999999994</ele><time>2026-03-22T09:56:24.226Z</time></trkpt><trkpt lat="43.4903567" lon="11.3848383"><ele>458.0</ele><time>2026-03-22T09:56:25.226Z</time></trkpt><trkpt lat="43.4904167" lon="11.3847683"><ele>458.0</ele><time>2026-03-22T09:56:26.226Z</time></trkpt><trkpt lat="43.4904833" lon="11.384705"><ele>458.0</ele><time>2026-03-22T09:56:27.225Z</time></trkpt><trkpt lat="43.4905533" lon="11.3846367"><ele>457.99999999999994</ele><time>2026-03-22T09:56:28.225Z</time></trkpt><trkpt lat="43.4906283" lon="11.3845617"><ele>458.0</ele><time>2026-03-22T09:56:29.226Z</time></trkpt><trkpt lat="43.4907017" lon="11.3844817"><ele>457.79999999999995</ele><time>2026-03-22T09:56:30.228Z</time></trkpt><trkpt lat="43.4907817" lon="11.3844033"><ele>457.59999999999997</ele><time>2026-03-22T09:56:31.225Z</time></trkpt><trkpt lat="43.4908583" lon="11.384325"><ele>457.40000000000003</ele><time>2026-03-22T09:56:32.226Z</time></trkpt><trkpt lat="43.4909367" lon="11.3842433"><ele>457.20000000000005</ele><time>2026-03-22T09:56:33.228Z</time></trkpt><trkpt lat="43.4910117" lon="11.3841517"><ele>457.0</ele><time>2026-03-22T09:56:34.227Z</time></trkpt><trkpt lat="43.4910833" lon="11.3840517"><ele>457.0</ele><time>2026-03-22T09:56:35.227Z</time></trkpt><trkpt lat="43.4911383" lon="11.38393"><ele>457.00000000000006</ele><time>2026-03-22T09:56:36.225Z</time></trkpt><trkpt lat="43.49119" lon="11.3838017"><ele>457.00000000000006</ele><time>2026-03-22T09:56:37.225Z</time></trkpt><trkpt lat="43.4912317" lon="11.3836667"><ele>457.0</ele><time>2026-03-22T09:56:38.225Z</time></trkpt><trkpt lat="43.491265" lon="11.383525"><ele>457.0</ele><time>2026-03-22T09:56:39.226Z</time></trkpt><trkpt lat="43.4912883" lon="11.383385"><ele>452.40000000000003</ele><time>2026-03-22T09:56:40.225Z</time></trkpt><trkpt lat="43.4913117" lon="11.3832533"><ele>447.80000000000007</ele><time>2026-03-22T09:56:41.225Z</time></trkpt><trkpt lat="43.491325" lon="11.3831267"><ele>443.2</ele><time>2026-03-22T09:56:42.226Z</time></trkpt><trkpt lat="43.491325" lon="11.3829983"><ele>438.6</ele><time>2026-03-22T09:56:43.225Z</time></trkpt><trkpt lat="43.491315" lon="11.382875"><ele>434.0</ele><time>2026-03-22T09:56:44.226Z</time></trkpt><trkpt lat="43.4912867" lon="11.382765"><ele>436.2</ele><time>2026-03-22T09:56:45.225Z</time></trkpt><trkpt lat="43.491245" lon="11.382655"><ele>438.4</ele><time>2026-03-22T09:56:46.225Z</time></trkpt><trkpt lat="43.4911833" lon="11.38256"><ele>440.6</ele><time>2026-03-22T09:56:47.225Z</time></trkpt><trkpt lat="43.4911083" lon="11.3824817"><ele>442.8</ele><time>2026-03-22T09:56:48.226Z</time></trkpt><trkpt lat="43.4910217" lon="11.3824117"><ele>445.0</ele><time>2026-03-22T09:56:49.227Z</time></trkpt><trkpt lat="43.49093" lon="11.3823383"><ele>445.0</ele><time>2026-03-22T09:56:50.225Z</time></trkpt><trkpt lat="43.49084" lon="11.38225"><ele>445.0</ele><time>2026-03-22T09:56:51.225Z</time></trkpt><trkpt lat="43.490765" lon="11.3821317"><ele>445.0</ele><time>2026-03-22T09:56:52.226Z</time></trkpt><trkpt lat="43.4907033" lon="11.3820033"><ele>445.0</ele><time>2026-03-22T09:56:53.226Z</time></trkpt><trkpt lat="43.490655" lon="11.3818667"><ele>445.0</ele><time>2026-03-22T09:56:54.227Z</time></trkpt><trkpt lat="43.49061" lon="11.38173"><ele>444.8</ele><time>2026-03-22T09:56:55.225Z</time></trkpt><trkpt lat="43.4905683" lon="11.3815933"><ele>444.6</ele><time>2026-03-22T09:56:56.226Z</time></trkpt><trkpt lat="43.4905183" lon="11.3814683"><ele>444.4</ele><time>2026-03-22T09:56:57.226Z</time></trkpt><trkpt lat="43.4904617" lon="11.3813433"><ele>444.2</ele><time>2026-03-22T09:56:58.225Z</time></trkpt><trkpt lat="43.4904033" lon="11.3812167"><ele>444.0</ele><time>2026-03-22T09:56:59.225Z</time></trkpt><trkpt lat="43.4903383" lon="11.38109"><ele>444.0</ele><time>2026-03-22T09:57:00.226Z</time></trkpt><trkpt lat="43.4902767" lon="11.3809567"><ele>444.0</ele><time>2026-03-22T09:57:01.228Z</time></trkpt><trkpt lat="43.4902283" lon="11.3808083"><ele>444.0</ele><time>2026-03-22T09:57:02.225Z</time></trkpt><trkpt lat="43.49021" lon="11.3806483"><ele>444.0</ele><time>2026-03-22T09:57:03.225Z</time></trkpt><trkpt lat="43.4902167" lon="11.3804833"><ele>443.0</ele><time>2026-03-22T09:57:04.224Z</time></trkpt><trkpt lat="43.4902433" lon="11.3803217"><ele>442.0</ele><time>2026-03-22T09:57:05.227Z</time></trkpt><trkpt lat="43.490285" lon="11.3801667"><ele>441.0</ele><time>2026-03-22T09:57:06.225Z</time></trkpt><trkpt lat="43.4903317" lon="11.38002"><ele>440.0</ele><time>2026-03-22T09:57:07.226Z</time></trkpt><trkpt lat="43.49039" lon="11.3798767"><ele>437.2</ele><time>2026-03-22T09:57:08.225Z</time></trkpt><trkpt lat="43.490455" lon="11.3797433"><ele>434.4</ele><time>2026-03-22T09:57:09.227Z</time></trkpt><trkpt lat="43.4905267" lon="11.3796233"><ele>431.6</ele><time>2026-03-22T09:57:10.226Z</time></trkpt><trkpt lat="43.490595" lon="11.37951"><ele>428.8</ele><time>2026-03-22T09:57:11.228Z</time></trkpt><trkpt lat="43.4906617" lon="11.37939"><ele>426.0</ele><time>2026-03-22T09:57:12.225Z</time></trkpt><trkpt lat="43.4907183" lon="11.3792683"><ele>426.0</ele><time>2026-03-22T09:57:13.227Z</time></trkpt><trkpt lat="43.4907633" lon="11.3791367"><ele>426.0</ele><time>2026-03-22T09:57:14.225Z</time></trkpt><trkpt lat="43.490795" lon="11.3789983"><ele>426.0</ele><time>2026-03-22T09:57:15.225Z</time></trkpt><trkpt lat="43.49081" lon="11.37885"><ele>426.0</ele><time>2026-03-22T09:57:16.225Z</time></trkpt><trkpt lat="43.4908083" lon="11.3787"><ele>426.0</ele><time>2026-03-22T09:57:17.225Z</time></trkpt><trkpt lat="43.4908" lon="11.3785383"><ele>425.75</ele><time>2026-03-22T09:57:18.228Z</time></trkpt><trkpt lat="43.4907833" lon="11.3783733"><ele>425.5</ele><time>2026-03-22T09:57:19.226Z</time></trkpt><trkpt lat="43.4907617" lon="11.3782117"><ele>425.25</ele><time>2026-03-22T09:57:20.225Z</time></trkpt><trkpt lat="43.4907367" lon="11.3780433"><ele>425.0</ele><time>2026-03-22T09:57:21.225Z</time></trkpt><trkpt lat="43.490715" lon="11.377875"><ele>423.75</ele><time>2026-03-22T09:57:22.225Z</time></trkpt><trkpt lat="43.4906933" lon="11.377705"><ele>422.5</ele><time>2026-03-22T09:57:23.226Z</time></trkpt><trkpt lat="43.4906733" lon="11.377535"><ele>421.25</ele><time>2026-03-22T09:57:24.225Z</time></trkpt><trkpt lat="43.4906467" lon="11.3773617"><ele>420.0</ele><time>2026-03-22T09:57:25.225Z</time></trkpt><trkpt lat="43.49062" lon="11.3771883"><ele>418.75</ele><time>2026-03-22T09:57:26.225Z</time></trkpt><trkpt lat="43.490595" lon="11.3770133"><ele>417.5</ele><time>2026-03-22T09:57:27.225Z</time></trkpt><trkpt lat="43.4905717" lon="11.3768367"><ele>416.25</ele><time>2026-03-22T09:57:28.225Z</time></trkpt><trkpt lat="43.4905483" lon="11.3766633"><ele>415.0</ele><time>2026-03-22T09:57:29.227Z</time></trkpt><trkpt lat="43.4905233" lon="11.37649"><ele>413.5</ele><time>2026-03-22T09:57:30.225Z</time></trkpt><trkpt lat="43.4905" lon="11.376315"><ele>412.0</ele><time>2026-03-22T09:57:31.226Z</time></trkpt><trkpt lat="43.49048" lon="11.37614"><ele>410.5</ele><time>2026-03-22T09:57:32.225Z</time></trkpt><trkpt lat="43.4904633" lon="11.375965"><ele>409.0</ele><time>2026-03-22T09:57:33.228Z</time></trkpt><trkpt lat="43.49045" lon="11.3757933"><ele>409.0</ele><time>2026-03-22T09:57:34.225Z</time></trkpt><trkpt lat="43.490445" lon="11.3756217"><ele>409.0</ele><time>2026-03-22T09:57:35.225Z</time></trkpt><trkpt lat="43.4904367" lon="11.3754483"><ele>409.0</ele><time>2026-03-22T09:57:36.226Z</time></trkpt><trkpt lat="43.49043" lon="11.3752783"><ele>409.0</ele><time>2026-03-22T09:57:37.228Z</time></trkpt><trkpt lat="43.4904333" lon="11.375105"><ele>408.75</ele><time>2026-03-22T09:57:38.226Z</time></trkpt><trkpt lat="43.4904417" lon="11.374925"><ele>408.5</ele><time>2026-03-22T09:57:39.225Z</time></trkpt><trkpt lat="43.49046" lon="11.3747467"><ele>408.25</ele><time>2026-03-22T09:57:40.225Z</time></trkpt><trkpt lat="43.4904767" lon="11.37457"><ele>408.0</ele><time>2026-03-22T09:57:41.228Z</time></trkpt><trkpt lat="43.4905017" lon="11.37441"><ele>408.0</ele><time>2026-03-22T09:57:42.225Z</time></trkpt><trkpt lat="43.49054" lon="11.37425"><ele>408.0</ele><time>2026-03-22T09:57:43.226Z</time></trkpt><trkpt lat="43.4905783" lon="11.37409"><ele>408.0</ele><time>2026-03-22T09:57:44.225Z</time></trkpt><trkpt lat="43.49063" lon="11.3739333"><ele>408.0</ele><time>2026-03-22T09:57:45.225Z</time></trkpt><trkpt lat="43.4906783" lon="11.3737917"><ele>408.0</ele><time>2026-03-22T09:57:46.225Z</time></trkpt><trkpt lat="43.4907267" lon="11.3736583"><ele>408.0</ele><time>2026-03-22T09:57:47.226Z</time></trkpt><trkpt lat="43.4907717" lon="11.373535"><ele>408.0</ele><time>2026-03-22T09:57:48.226Z</time></trkpt><trkpt lat="43.4908067" lon="11.37341"><ele>408.0</ele><time>2026-03-22T09:57:49.225Z</time></trkpt><trkpt lat="43.4908333" lon="11.373275"><ele>408.0</ele><time>2026-03-22T09:57:50.225Z</time></trkpt><trkpt lat="43.4908433" lon="11.3731333"><ele>406.79999999999995</ele><time>2026-03-22T09:57:51.227Z</time></trkpt><trkpt lat="43.4908267" lon="11.3729867"><ele>405.6</ele><time>2026-03-22T09:57:52.225Z</time></trkpt><trkpt lat="43.490795" lon="11.37284"><ele>404.4</ele><time>2026-03-22T09:57:53.226Z</time></trkpt><trkpt lat="43.4907517" lon="11.3726933"><ele>403.20000000000005</ele><time>2026-03-22T09:57:54.226Z</time></trkpt><trkpt lat="43.4906967" lon="11.3725567"><ele>402.0</ele><time>2026-03-22T09:57:55.224Z</time></trkpt><trkpt lat="43.4906367" lon="11.3724117"><ele>402.0</ele><time>2026-03-22T09:57:56.226Z</time></trkpt><trkpt lat="43.4905717" lon="11.3722833"><ele>402.0</ele><time>2026-03-22T09:57:57.227Z</time></trkpt><trkpt lat="43.49051" lon="11.37216"><ele>402.0</ele><time>2026-03-22T09:57:58.226Z</time></trkpt><trkpt lat="43.4904567" lon="11.3720467"><ele>402.0</ele><time>2026-03-22T09:57:59.227Z</time></trkpt><trkpt lat="43.490415" lon="11.3719333"><ele>402.0</ele><time>2026-03-22T09:58:00.225Z</time></trkpt><trkpt lat="43.490385" lon="11.3718217"><ele>401.6666666666667</ele><time>2026-03-22T09:58:01.225Z</time></trkpt><trkpt lat="43.4903783" lon="11.3717083"><ele>401.33333333333337</ele><time>2026-03-22T09:58:02.226Z</time></trkpt><trkpt lat="43.490395" lon="11.3716017"><ele>401.0</ele><time>2026-03-22T09:58:03.226Z</time></trkpt><trkpt lat="43.490435" lon="11.37151"><ele>400.6666666666667</ele><time>2026-03-22T09:58:04.225Z</time></trkpt><trkpt lat="43.4904983" lon="11.37144"><ele>400.33333333333337</ele><time>2026-03-22T09:58:05.225Z</time></trkpt><trkpt lat="43.4905817" lon="11.3714"><ele>400.0</ele><time>2026-03-22T09:58:06.226Z</time></trkpt><trkpt lat="43.4906717" lon="11.3713833"><ele>400.0</ele><time>2026-03-22T09:58:07.225Z</time></trkpt><trkpt lat="43.490765" lon="11.3713833"><ele>400.0</ele><time>2026-03-22T09:58:08.226Z</time></trkpt><trkpt lat="43.4908617" lon="11.37139"><ele>400.0</ele><time>2026-03-22T09:58:09.225Z</time></trkpt><trkpt lat="43.490955" lon="11.37139"><ele>400.0</ele><time>2026-03-22T09:58:10.226Z</time></trkpt><trkpt lat="43.4910483" lon="11.3713717"><ele>400.0</ele><time>2026-03-22T09:58:11.226Z</time></trkpt><trkpt lat="43.4911383" lon="11.3713417"><ele>399.2</ele><time>2026-03-22T09:58:12.225Z</time></trkpt><trkpt lat="43.4912233" lon="11.3712983"><ele>398.4</ele><time>2026-03-22T09:58:13.225Z</time></trkpt><trkpt lat="43.491305" lon="11.3712417"><ele>397.6</ele><time>2026-03-22T09:58:14.226Z</time></trkpt><trkpt lat="43.4913817" lon="11.3711783"><ele>396.8</ele><time>2026-03-22T09:58:15.226Z</time></trkpt><trkpt lat="43.491455" lon="11.3711017"><ele>396.0</ele><time>2026-03-22T09:58:16.226Z</time></trkpt><trkpt lat="43.4915183" lon="11.3710033"><ele>396.0</ele><time>2026-03-22T09:58:17.226Z</time></trkpt><trkpt lat="43.4915783" lon="11.3708983"><ele>396.0</ele><time>2026-03-22T09:58:18.225Z</time></trkpt><trkpt lat="43.49163" lon="11.370785"><ele>396.0</ele><time>2026-03-22T09:58:19.227Z</time></trkpt><trkpt lat="43.4916783" lon="11.370665"><ele>396.0</ele><time>2026-03-22T09:58:20.226Z</time></trkpt><trkpt lat="43.4917233" lon="11.3705417"><ele>396.0</ele><time>2026-03-22T09:58:21.226Z</time></trkpt><trkpt lat="43.4917633" lon="11.3704117"><ele>396.6</ele><time>2026-03-22T09:58:22.225Z</time></trkpt><trkpt lat="43.4917967" lon="11.3702867"><ele>397.20000000000005</ele><time>2026-03-22T09:58:23.228Z</time></trkpt><trkpt lat="43.491825" lon="11.37016"><ele>397.79999999999995</ele><time>2026-03-22T09:58:24.225Z</time></trkpt><trkpt lat="43.491845" lon="11.3700267"><ele>398.4</ele><time>2026-03-22T09:58:25.225Z</time></trkpt><trkpt lat="43.4918583" lon="11.3698967"><ele>399.0</ele><time>2026-03-22T09:58:26.228Z</time></trkpt><trkpt lat="43.4918567" lon="11.3697667"><ele>398.6</ele><time>2026-03-22T09:58:27.228Z</time></trkpt><trkpt lat="43.49184" lon="11.36964"><ele>398.2</ele><time>2026-03-22T09:58:28.226Z</time></trkpt><trkpt lat="43.4918133" lon="11.369515"><ele>397.8</ele><time>2026-03-22T09:58:29.226Z</time></trkpt><trkpt lat="43.4917733" lon="11.3693917"><ele>397.40000000000003</ele><time>2026-03-22T09:58:30.227Z</time></trkpt><trkpt lat="43.4917217" lon="11.3692717"><ele>397.0</ele><time>2026-03-22T09:58:31.226Z</time></trkpt><trkpt lat="43.4916667" lon="11.3691483"><ele>397.0</ele><time>2026-03-22T09:58:32.226Z</time></trkpt><trkpt lat="43.4916067" lon="11.3690267"><ele>397.0</ele><time>2026-03-22T09:58:33.225Z</time></trkpt><trkpt lat="43.4915467" lon="11.3689067"><ele>397.0</ele><time>2026-03-22T09:58:34.226Z</time></trkpt><trkpt lat="43.4914867" lon="11.3687817"><ele>397.0</ele><time>2026-03-22T09:58:35.225Z</time></trkpt><trkpt lat="43.491425" lon="11.3686617"><ele>397.0</ele><time>2026-03-22T09:58:36.225Z</time></trkpt><trkpt lat="43.4913517" lon="11.368555"><ele>396.8</ele><time>2026-03-22T09:58:37.226Z</time></trkpt><trkpt lat="43.4912717" lon="11.36846"><ele>396.6</ele><time>2026-03-22T09:58:38.226Z</time></trkpt><trkpt lat="43.4911883" lon="11.3683683"><ele>396.40000000000003</ele><time>2026-03-22T09:58:39.225Z</time></trkpt><trkpt lat="43.491095" lon="11.368285"><ele>396.20000000000005</ele><time>2026-03-22T09:58:40.225Z</time></trkpt><trkpt lat="43.4909983" lon="11.3682083"><ele>396.0</ele><time>2026-03-22T09:58:41.227Z</time></trkpt><trkpt lat="43.4909017" lon="11.3681483"><ele>396.0</ele><time>2026-03-22T09:58:42.227Z</time></trkpt><trkpt lat="43.4908067" lon="11.3681017"><ele>396.0</ele><time>2026-03-22T09:58:43.226Z</time></trkpt><trkpt lat="43.49072" lon="11.3680583"><ele>396.0</ele><time>2026-03-22T09:58:44.225Z</time></trkpt><trkpt lat="43.49064" lon="11.3680233"><ele>396.0</ele><time>2026-03-22T09:58:45.225Z</time></trkpt><trkpt lat="43.4905683" lon="11.3679733"><ele>396.0</ele><time>2026-03-22T09:58:46.226Z</time></trkpt><trkpt lat="43.4905267" lon="11.3678917"><ele>396.0</ele><time>2026-03-22T09:58:47.226Z</time></trkpt><trkpt lat="43.4905017" lon="11.367805"><ele>396.1666666666667</ele><time>2026-03-22T09:58:48.226Z</time></trkpt><trkpt lat="43.490525" lon="11.3676917"><ele>396.33333333333337</ele><time>2026-03-22T09:58:49.227Z</time></trkpt><trkpt lat="43.4905733" lon="11.367595"><ele>396.5</ele><time>2026-03-22T09:58:50.226Z</time></trkpt><trkpt lat="43.4906317" lon="11.367525"><ele>396.6666666666667</ele><time>2026-03-22T09:58:51.227Z</time></trkpt><trkpt lat="43.4907083" lon="11.36748"><ele>396.83333333333337</ele><time>2026-03-22T09:58:52.226Z</time></trkpt><trkpt lat="43.4907917" lon="11.3674567"><ele>397.0</ele><time>2026-03-22T09:58:53.225Z</time></trkpt><trkpt lat="43.4908733" lon="11.367445"><ele>397.00000000000006</ele><time>2026-03-22T09:58:54.227Z</time></trkpt><trkpt lat="43.49096" lon="11.3674417"><ele>397.0</ele><time>2026-03-22T09:58:55.227Z</time></trkpt><trkpt lat="43.4910483" lon="11.3674383"><ele>397.0</ele><time>2026-03-22T09:58:56.226Z</time></trkpt><trkpt lat="43.4911367" lon="11.36744"><ele>397.0</ele><time>2026-03-22T09:58:57.225Z</time></trkpt><trkpt lat="43.4912217" lon="11.3674517"><ele>397.00000000000006</ele><time>2026-03-22T09:58:58.225Z</time></trkpt><trkpt lat="43.4913067" lon="11.3674717"><ele>397.0</ele><time>2026-03-22T09:58:59.227Z</time></trkpt><trkpt lat="43.49139" lon="11.3674933"><ele>396.83333333333337</ele><time>2026-03-22T09:59:00.226Z</time></trkpt><trkpt lat="43.491475" lon="11.3675183"><ele>396.6666666666667</ele><time>2026-03-22T09:59:01.226Z</time></trkpt><trkpt lat="43.4915617" lon="11.3675467"><ele>396.5</ele><time>2026-03-22T09:59:02.227Z</time></trkpt><trkpt lat="43.4916467" lon="11.367575"><ele>396.33333333333337</ele><time>2026-03-22T09:59:03.227Z</time></trkpt><trkpt lat="43.4917317" lon="11.3676033"><ele>396.1666666666667</ele><time>2026-03-22T09:59:04.227Z</time></trkpt><trkpt lat="43.4918217" lon="11.3676317"><ele>396.0</ele><time>2026-03-22T09:59:05.226Z</time></trkpt><trkpt lat="43.4919183" lon="11.3676567"><ele>396.0</ele><time>2026-03-22T09:59:06.228Z</time></trkpt><trkpt lat="43.49201" lon="11.36769"><ele>396.0</ele><time>2026-03-22T09:59:07.227Z</time></trkpt><trkpt lat="43.4920933" lon="11.3677333"><ele>396.0</ele><time>2026-03-22T09:59:08.227Z</time></trkpt><trkpt lat="43.492175" lon="11.367775"><ele>396.0</ele><time>2026-03-22T09:59:09.227Z</time></trkpt><trkpt lat="43.49226" lon="11.3678133"><ele>396.0</ele><time>2026-03-22T09:59:10.225Z</time></trkpt><trkpt lat="43.4923467" lon="11.3678433"><ele>396.4</ele><time>2026-03-22T09:59:11.226Z</time></trkpt><trkpt lat="43.4924367" lon="11.367865"><ele>396.8</ele><time>2026-03-22T09:59:12.225Z</time></trkpt><trkpt lat="43.49253" lon="11.36787"><ele>397.2</ele><time>2026-03-22T09:59:13.226Z</time></trkpt><trkpt lat="43.4926217" lon="11.367855"><ele>397.59999999999997</ele><time>2026-03-22T09:59:14.227Z</time></trkpt><trkpt lat="43.49271" lon="11.36782"><ele>398.0</ele><time>2026-03-22T09:59:15.225Z</time></trkpt><trkpt lat="43.4927983" lon="11.3677767"><ele>398.0</ele><time>2026-03-22T09:59:16.225Z</time></trkpt><trkpt lat="43.4928883" lon="11.3677283"><ele>398.0</ele><time>2026-03-22T09:59:17.225Z</time></trkpt><trkpt lat="43.4929833" lon="11.36768"><ele>398.0</ele><time>2026-03-22T09:59:18.226Z</time></trkpt><trkpt lat="43.4930833" lon="11.3676433"><ele>398.0</ele><time>2026-03-22T09:59:19.226Z</time></trkpt><trkpt lat="43.493185" lon="11.3676267"><ele>398.0</ele><time>2026-03-22T09:59:20.225Z</time></trkpt><trkpt lat="43.4932833" lon="11.3676233"><ele>396.3333333333333</ele><time>2026-03-22T09:59:21.227Z</time></trkpt><trkpt lat="43.493375" lon="11.3676217"><ele>394.66666666666663</ele><time>2026-03-22T09:59:22.225Z</time></trkpt><trkpt lat="43.4934583" lon="11.3676033"><ele>393.0</ele><time>2026-03-22T09:59:23.227Z</time></trkpt><trkpt lat="43.4935417" lon="11.367565"><ele>391.33333333333337</ele><time>2026-03-22T09:59:24.226Z</time></trkpt><trkpt lat="43.4936167" lon="11.3675083"><ele>389.6666666666667</ele><time>2026-03-22T09:59:25.227Z</time></trkpt><trkpt lat="43.4936833" lon="11.36743"><ele>388.0</ele><time>2026-03-22T09:59:26.227Z</time></trkpt><trkpt lat="43.4937367" lon="11.3673317"><ele>385.0</ele><time>2026-03-22T09:59:27.226Z</time></trkpt><trkpt lat="43.4937717" lon="11.3672233"><ele>382.0</ele><time>2026-03-22T09:59:28.226Z</time></trkpt><trkpt lat="43.4937867" lon="11.3670983"><ele>379.0</ele><time>2026-03-22T09:59:29.227Z</time></trkpt><trkpt lat="43.4937933" lon="11.366965"><ele>376.0</ele><time>2026-03-22T09:59:30.229Z</time></trkpt><trkpt lat="43.493805" lon="11.3668283"><ele>373.0</ele><time>2026-03-22T09:59:31.226Z</time></trkpt><trkpt lat="43.49382" lon="11.3666883"><ele>373.0</ele><time>2026-03-22T09:59:32.227Z</time></trkpt><trkpt lat="43.4938533" lon="11.36655"><ele>373.0</ele><time>2026-03-22T09:59:33.226Z</time></trkpt><trkpt lat="43.49389" lon="11.366405"><ele>373.0</ele><time>2026-03-22T09:59:34.227Z</time></trkpt><trkpt lat="43.4939317" lon="11.3662617"><ele>373.0</ele><time>2026-03-22T09:59:35.228Z</time></trkpt><trkpt lat="43.4939733" lon="11.366125"><ele>373.0</ele><time>2026-03-22T09:59:36.226Z</time></trkpt><trkpt lat="43.49402" lon="11.3659867"><ele>373.59999999999997</ele><time>2026-03-22T09:59:37.225Z</time></trkpt><trkpt lat="43.49406" lon="11.3658567"><ele>374.2</ele><time>2026-03-22T09:59:38.226Z</time></trkpt><trkpt lat="43.4940867" lon="11.3657317"><ele>374.8</ele><time>2026-03-22T09:59:39.226Z</time></trkpt><trkpt lat="43.494095" lon="11.3656067"><ele>375.4</ele><time>2026-03-22T09:59:40.224Z</time></trkpt><trkpt lat="43.4940783" lon="11.3654883"><ele>376.0</ele><time>2026-03-22T09:59:41.227Z</time></trkpt><trkpt lat="43.494045" lon="11.36537"><ele>376.0</ele><time>2026-03-22T09:59:42.227Z</time></trkpt><trkpt lat="43.49401" lon="11.36525"><ele>376.0</ele><time>2026-03-22T09:59:43.226Z</time></trkpt><trkpt lat="43.4939867" lon="11.365125"><ele>376.0</ele><time>2026-03-22T09:59:44.226Z</time></trkpt><trkpt lat="43.4939767" lon="11.36499"><ele>376.0</ele><time>2026-03-22T09:59:45.227Z</time></trkpt><trkpt lat="43.4939817" lon="11.3648533"><ele>376.0</ele><time>2026-03-22T09:59:46.228Z</time></trkpt><trkpt lat="43.49399" lon="11.3647133"><ele>374.20000000000005</ele><time>2026-03-22T09:59:47.227Z</time></trkpt><trkpt lat="43.4939867" lon="11.3645783"><ele>372.40000000000003</ele><time>2026-03-22T09:59:48.227Z</time></trkpt><trkpt lat="43.493965" lon="11.36445"><ele>370.6</ele><time>2026-03-22T09:59:49.227Z</time></trkpt><trkpt lat="43.4939283" lon="11.3643283"><ele>368.8</ele><time>2026-03-22T09:59:50.226Z</time></trkpt><trkpt lat="43.493865" lon="11.3642083"><ele>367.0</ele><time>2026-03-22T09:59:51.226Z</time></trkpt><trkpt lat="43.4938033" lon="11.3640933"><ele>369.0</ele><time>2026-03-22T09:59:52.226Z</time></trkpt><trkpt lat="43.4937417" lon="11.3639783"><ele>371.0</ele><time>2026-03-22T09:59:53.225Z</time></trkpt><trkpt lat="43.493685" lon="11.3638583"><ele>373.0</ele><time>2026-03-22T09:59:54.226Z</time></trkpt><trkpt lat="43.493635" lon="11.3637217"><ele>375.0</ele><time>2026-03-22T09:59:55.226Z</time></trkpt><trkpt lat="43.493585" lon="11.363585"><ele>377.0</ele><time>2026-03-22T09:59:56.225Z</time></trkpt><trkpt lat="43.4935467" lon="11.3634483"><ele>377.0</ele><time>2026-03-22T09:59:57.229Z</time></trkpt><trkpt lat="43.49351" lon="11.3633133"><ele>377.0</ele><time>2026-03-22T09:59:58.226Z</time></trkpt><trkpt lat="43.4934733" lon="11.363175"><ele>377.0</ele><time>2026-03-22T09:59:59.226Z</time></trkpt><trkpt lat="43.4934417" lon="11.3630417"><ele>377.0</ele><time>2026-03-22T10:00:00.226Z</time></trkpt><trkpt lat="43.4934133" lon="11.3629033"><ele>377.0</ele><time>2026-03-22T10:00:01.226Z</time></trkpt><trkpt lat="43.493395" lon="11.3627683"><ele>376.6</ele><time>2026-03-22T10:00:02.227Z</time></trkpt><trkpt lat="43.4933933" lon="11.362625"><ele>376.20000000000005</ele><time>2026-03-22T10:00:03.226Z</time></trkpt><trkpt lat="43.4934033" lon="11.362485"><ele>375.8</ele><time>2026-03-22T10:00:04.225Z</time></trkpt><trkpt lat="43.493435" lon="11.3623483"><ele>375.4</ele><time>2026-03-22T10:00:05.226Z</time></trkpt><trkpt lat="43.4934833" lon="11.36222"><ele>375.0</ele><time>2026-03-22T10:00:06.227Z</time></trkpt><trkpt lat="43.493535" lon="11.3620983"><ele>376.8</ele><time>2026-03-22T10:00:07.226Z</time></trkpt><trkpt lat="43.4936" lon="11.3619833"><ele>378.6</ele><time>2026-03-22T10:00:08.227Z</time></trkpt><trkpt lat="43.49367" lon="11.3618717"><ele>380.4</ele><time>2026-03-22T10:00:09.225Z</time></trkpt><trkpt lat="43.4937433" lon="11.361765"><ele>382.2</ele><time>2026-03-22T10:00:10.225Z</time></trkpt><trkpt lat="43.493805" lon="11.3616583"><ele>384.0</ele><time>2026-03-22T10:00:11.225Z</time></trkpt><trkpt lat="43.4938567" lon="11.36154"><ele>378.6</ele><time>2026-03-22T10:00:12.226Z</time></trkpt><trkpt lat="43.4938933" lon="11.3614067"><ele>373.2</ele><time>2026-03-22T10:00:13.227Z</time></trkpt><trkpt lat="43.49392" lon="11.361265"><ele>367.8</ele><time>2026-03-22T10:00:14.227Z</time></trkpt><trkpt lat="43.49394" lon="11.3611167"><ele>362.40000000000003</ele><time>2026-03-22T10:00:15.226Z</time></trkpt><trkpt lat="43.493955" lon="11.3609683"><ele>357.0</ele><time>2026-03-22T10:00:16.226Z</time></trkpt><trkpt lat="43.4939667" lon="11.3608167"><ele>357.0</ele><time>2026-03-22T10:00:17.226Z</time></trkpt><trkpt lat="43.4939767" lon="11.3606717"><ele>357.0</ele><time>2026-03-22T10:00:18.226Z</time></trkpt><trkpt lat="43.4939867" lon="11.3605217"><ele>357.0</ele><time>2026-03-22T10:00:19.228Z</time></trkpt><trkpt lat="43.494" lon="11.3603667"><ele>357.0</ele><time>2026-03-22T10:00:20.227Z</time></trkpt><trkpt lat="43.4940117" lon="11.3602167"><ele>357.0</ele><time>2026-03-22T10:00:21.227Z</time></trkpt><trkpt lat="43.4940183" lon="11.360065"><ele>356.40000000000003</ele><time>2026-03-22T10:00:22.225Z</time></trkpt><trkpt lat="43.494025" lon="11.3599167"><ele>355.8</ele><time>2026-03-22T10:00:23.226Z</time></trkpt><trkpt lat="43.4940083" lon="11.359765"><ele>355.2</ele><time>2026-03-22T10:00:24.226Z</time></trkpt><trkpt lat="43.49398" lon="11.3596133"><ele>354.6</ele><time>2026-03-22T10:00:25.227Z</time></trkpt><trkpt lat="43.4939433" lon="11.3594683"><ele>354.0</ele><time>2026-03-22T10:00:26.227Z</time></trkpt><trkpt lat="43.4939067" lon="11.3593267"><ele>353.0</ele><time>2026-03-22T10:00:27.229Z</time></trkpt><trkpt lat="43.4938617" lon="11.35919"><ele>352.0</ele><time>2026-03-22T10:00:28.226Z</time></trkpt><trkpt lat="43.4938083" lon="11.359065"><ele>351.0</ele><time>2026-03-22T10:00:29.226Z</time></trkpt><trkpt lat="43.4937483" lon="11.358945"><ele>350.0</ele><time>2026-03-22T10:00:30.226Z</time></trkpt><trkpt lat="43.4936717" lon="11.358845"><ele>349.0</ele><time>2026-03-22T10:00:31.226Z</time></trkpt><trkpt lat="43.49358" lon="11.3587617"><ele>349.0</ele><time>2026-03-22T10:00:32.226Z</time></trkpt><trkpt lat="43.4934833" lon="11.3586867"><ele>349.0</ele><time>2026-03-22T10:00:33.227Z</time></trkpt><trkpt lat="43.4933833" lon="11.3586183"><ele>349.0</ele><time>2026-03-22T10:00:34.225Z</time></trkpt><trkpt lat="43.4932933" lon="11.3585367"><ele>349.0</ele><time>2026-03-22T10:00:35.226Z</time></trkpt><trkpt lat="43.49321" lon="11.3584367"><ele>349.0</ele><time>2026-03-22T10:00:36.227Z</time></trkpt><trkpt lat="43.49313" lon="11.358315"><ele>349.0</ele><time>2026-03-22T10:00:37.228Z</time></trkpt><trkpt lat="43.4930617" lon="11.358195"><ele>349.0</ele><time>2026-03-22T10:00:38.226Z</time></trkpt><trkpt lat="43.4929933" lon="11.35807"><ele>349.0</ele><time>2026-03-22T10:00:39.226Z</time></trkpt><trkpt lat="43.4929267" lon="11.3579467"><ele>349.0</ele><time>2026-03-22T10:00:40.225Z</time></trkpt><trkpt lat="43.4928583" lon="11.35782"><ele>352.25</ele><time>2026-03-22T10:00:41.227Z</time></trkpt><trkpt lat="43.4927933" lon="11.35769"><ele>355.5</ele><time>2026-03-22T10:00:42.227Z</time></trkpt><trkpt lat="43.4927317" lon="11.35756"><ele>358.75</ele><time>2026-03-22T10:00:43.226Z</time></trkpt><trkpt lat="43.492675" lon="11.357425"><ele>362.0</ele><time>2026-03-22T10:00:44.225Z</time></trkpt><trkpt lat="43.492625" lon="11.3572833"><ele>360.0</ele><time>2026-03-22T10:00:45.226Z</time></trkpt><trkpt lat="43.4925833" lon="11.35715"><ele>358.0</ele><time>2026-03-22T10:00:46.226Z</time></trkpt><trkpt lat="43.4925383" lon="11.3570133"><ele>356.0</ele><time>2026-03-22T10:00:47.227Z</time></trkpt><trkpt lat="43.4924983" lon="11.3568783"><ele>354.0</ele><time>2026-03-22T10:00:48.225Z</time></trkpt><trkpt lat="43.4924667" lon="11.356735"><ele>352.0</ele><time>2026-03-22T10:00:49.228Z</time></trkpt><trkpt lat="43.4924367" lon="11.356585"><ele>352.0</ele><time>2026-03-22T10:00:50.226Z</time></trkpt><trkpt lat="43.4924117" lon="11.3564317"><ele>352.0</ele><time>2026-03-22T10:00:51.227Z</time></trkpt><trkpt lat="43.4923917" lon="11.3562733"><ele>352.0</ele><time>2026-03-22T10:00:52.226Z</time></trkpt><trkpt lat="43.49238" lon="11.356115"><ele>352.0</ele><time>2026-03-22T10:00:53.226Z</time></trkpt><trkpt lat="43.4923683" lon="11.3559533"><ele>350.0</ele><time>2026-03-22T10:00:54.227Z</time></trkpt><trkpt lat="43.4923517" lon="11.3557967"><ele>348.0</ele><time>2026-03-22T10:00:55.225Z</time></trkpt><trkpt lat="43.4923233" lon="11.355645"><ele>346.0</ele><time>2026-03-22T10:00:56.227Z</time></trkpt><trkpt lat="43.4922833" lon="11.3555017"><ele>344.0</ele><time>2026-03-22T10:00:57.226Z</time></trkpt><trkpt lat="43.49223" lon="11.3553633"><ele>344.6</ele><time>2026-03-22T10:00:58.226Z</time></trkpt><trkpt lat="43.49217" lon="11.3552317"><ele>345.2</ele><time>2026-03-22T10:00:59.227Z</time></trkpt><trkpt lat="43.4921" lon="11.3551167"><ele>345.8</ele><time>2026-03-22T10:01:00.226Z</time></trkpt><trkpt lat="43.4920183" lon="11.35502"><ele>346.40000000000003</ele><time>2026-03-22T10:01:01.228Z</time></trkpt><trkpt lat="43.4919267" lon="11.3549367"><ele>347.0</ele><time>2026-03-22T10:01:02.227Z</time></trkpt><trkpt lat="43.4918267" lon="11.35487"><ele>347.0</ele><time>2026-03-22T10:01:03.228Z</time></trkpt><trkpt lat="43.49172" lon="11.354815"><ele>347.0</ele><time>2026-03-22T10:01:04.226Z</time></trkpt><trkpt lat="43.49161" lon="11.3547733"><ele>347.0</ele><time>2026-03-22T10:01:05.226Z</time></trkpt><trkpt lat="43.4914967" lon="11.3547383"><ele>347.0</ele><time>2026-03-22T10:01:06.227Z</time></trkpt><trkpt lat="43.49138" lon="11.3547"><ele>344.0</ele><time>2026-03-22T10:01:07.227Z</time></trkpt><trkpt lat="43.4912667" lon="11.3546517"><ele>341.0</ele><time>2026-03-22T10:01:08.226Z</time></trkpt><trkpt lat="43.49116" lon="11.354595"><ele>338.0</ele><time>2026-03-22T10:01:09.226Z</time></trkpt><trkpt lat="43.491055" lon="11.3545217"><ele>335.0</ele><time>2026-03-22T10:01:10.225Z</time></trkpt><trkpt lat="43.4909583" lon="11.3544283"><ele>335.0</ele><time>2026-03-22T10:01:11.228Z</time></trkpt><trkpt lat="43.4908767" lon="11.354325"><ele>335.0</ele><time>2026-03-22T10:01:12.226Z</time></trkpt><trkpt lat="43.49081" lon="11.3542083"><ele>335.0</ele><time>2026-03-22T10:01:13.226Z</time></trkpt><trkpt lat="43.4907617" lon="11.3540783"><ele>335.0</ele><time>2026-03-22T10:01:14.226Z</time></trkpt><trkpt lat="43.4907383" lon="11.3539317"><ele>335.0</ele><time>2026-03-22T10:01:15.226Z</time></trkpt><trkpt lat="43.49072" lon="11.35379"><ele>334.6</ele><time>2026-03-22T10:01:16.226Z</time></trkpt><trkpt lat="43.49071" lon="11.3536433"><ele>334.2</ele><time>2026-03-22T10:01:17.227Z</time></trkpt><trkpt lat="43.4907017" lon="11.3535017"><ele>333.79999999999995</ele><time>2026-03-22T10:01:18.226Z</time></trkpt><trkpt lat="43.4906867" lon="11.3533617"><ele>333.4</ele><time>2026-03-22T10:01:19.227Z</time></trkpt><trkpt lat="43.4906583" lon="11.353225"><ele>333.0</ele><time>2026-03-22T10:01:20.226Z</time></trkpt><trkpt lat="43.49062" lon="11.3530933"><ele>332.4</ele><time>2026-03-22T10:01:21.228Z</time></trkpt><trkpt lat="43.49058" lon="11.3529617"><ele>331.79999999999995</ele><time>2026-03-22T10:01:22.226Z</time></trkpt><trkpt lat="43.4905333" lon="11.3528317"><ele>331.2</ele><time>2026-03-22T10:01:23.227Z</time></trkpt><trkpt lat="43.4904883" lon="11.3527017"><ele>330.6</ele><time>2026-03-22T10:01:24.227Z</time></trkpt><trkpt lat="43.4904433" lon="11.3525717"><ele>330.0</ele><time>2026-03-22T10:01:25.228Z</time></trkpt><trkpt lat="43.4903933" lon="11.3524467"><ele>330.6</ele><time>2026-03-22T10:01:26.226Z</time></trkpt><trkpt lat="43.4903517" lon="11.3523183"><ele>331.2</ele><time>2026-03-22T10:01:27.226Z</time></trkpt><trkpt lat="43.4903167" lon="11.3521883"><ele>331.79999999999995</ele><time>2026-03-22T10:01:28.226Z</time></trkpt><trkpt lat="43.49029" lon="11.3520583"><ele>332.4</ele><time>2026-03-22T10:01:29.227Z</time></trkpt><trkpt lat="43.49028" lon="11.3519267"><ele>333.0</ele><time>2026-03-22T10:01:30.229Z</time></trkpt><trkpt lat="43.490285" lon="11.3517967"><ele>333.0</ele><time>2026-03-22T10:01:31.225Z</time></trkpt><trkpt lat="43.4903067" lon="11.35167"><ele>333.0</ele><time>2026-03-22T10:01:32.226Z</time></trkpt><trkpt lat="43.4903517" lon="11.3515567"><ele>333.0</ele><time>2026-03-22T10:01:33.227Z</time></trkpt><trkpt lat="43.49041" lon="11.351455"><ele>333.0</ele><time>2026-03-22T10:01:34.225Z</time></trkpt><trkpt lat="43.4904817" lon="11.351365"><ele>333.0</ele><time>2026-03-22T10:01:35.227Z</time></trkpt><trkpt lat="43.4905617" lon="11.35128"><ele>333.2</ele><time>2026-03-22T10:01:36.226Z</time></trkpt><trkpt lat="43.4906483" lon="11.3512033"><ele>333.4</ele><time>2026-03-22T10:01:37.226Z</time></trkpt><trkpt lat="43.490745" lon="11.3511417"><ele>333.59999999999997</ele><time>2026-03-22T10:01:38.226Z</time></trkpt><trkpt lat="43.4908417" lon="11.3511"><ele>333.79999999999995</ele><time>2026-03-22T10:01:39.228Z</time></trkpt><trkpt lat="43.4909417" lon="11.35105"><ele>334.0</ele><time>2026-03-22T10:01:40.227Z</time></trkpt><trkpt lat="43.4910433" lon="11.3509967"><ele>334.0</ele><time>2026-03-22T10:01:41.227Z</time></trkpt><trkpt lat="43.491145" lon="11.3509383"><ele>334.0</ele><time>2026-03-22T10:01:42.228Z</time></trkpt><trkpt lat="43.491245" lon="11.3508683"><ele>334.0</ele><time>2026-03-22T10:01:43.227Z</time></trkpt><trkpt lat="43.4913417" lon="11.3507883"><ele>334.0</ele><time>2026-03-22T10:01:44.226Z</time></trkpt><trkpt lat="43.4914383" lon="11.350705"><ele>334.0</ele><time>2026-03-22T10:01:45.226Z</time></trkpt><trkpt lat="43.4915333" lon="11.350615"><ele>334.0</ele><time>2026-03-22T10:01:46.226Z</time></trkpt><trkpt lat="43.4916317" lon="11.350525"><ele>334.0</ele><time>2026-03-22T10:01:47.226Z</time></trkpt><trkpt lat="43.4917283" lon="11.3504317"><ele>334.0</ele><time>2026-03-22T10:01:48.227Z</time></trkpt><trkpt lat="43.49183" lon="11.35034"><ele>334.0</ele><time>2026-03-22T10:01:49.227Z</time></trkpt><trkpt lat="43.4919317" lon="11.3502533"><ele>334.0</ele><time>2026-03-22T10:01:50.226Z</time></trkpt><trkpt lat="43.4920317" lon="11.3501617"><ele>334.0</ele><time>2026-03-22T10:01:51.227Z</time></trkpt><trkpt lat="43.4921317" lon="11.3500617"><ele>334.0</ele><time>2026-03-22T10:01:52.226Z</time></trkpt><trkpt lat="43.4922317" lon="11.3499617"><ele>334.0</ele><time>2026-03-22T10:01:53.228Z</time></trkpt><trkpt lat="43.49233" lon="11.3498617"><ele>333.0</ele><time>2026-03-22T10:01:54.228Z</time></trkpt><trkpt lat="43.49243" lon="11.3497633"><ele>332.0</ele><time>2026-03-22T10:01:55.227Z</time></trkpt><trkpt lat="43.492535" lon="11.3496683"><ele>331.0</ele><time>2026-03-22T10:01:56.226Z</time></trkpt><trkpt lat="43.4926383" lon="11.3495733"><ele>330.0</ele><time>2026-03-22T10:01:57.228Z</time></trkpt><trkpt lat="43.4927383" lon="11.34948"><ele>330.0</ele><time>2026-03-22T10:01:58.227Z</time></trkpt><trkpt lat="43.4928467" lon="11.3493783"><ele>330.0</ele><time>2026-03-22T10:01:59.226Z</time></trkpt><trkpt lat="43.4929517" lon="11.3492933"><ele>330.0</ele><time>2026-03-22T10:02:00.227Z</time></trkpt><trkpt lat="43.4930533" lon="11.34921"><ele>330.0</ele><time>2026-03-22T10:02:01.228Z</time></trkpt><trkpt lat="43.49315" lon="11.3491233"><ele>329.2</ele><time>2026-03-22T10:02:02.228Z</time></trkpt><trkpt lat="43.49324" lon="11.3490317"><ele>328.4</ele><time>2026-03-22T10:02:03.226Z</time></trkpt><trkpt lat="43.4933283" lon="11.348935"><ele>327.6</ele><time>2026-03-22T10:02:04.224Z</time></trkpt><trkpt lat="43.493405" lon="11.3488233"><ele>326.8</ele><time>2026-03-22T10:02:05.226Z</time></trkpt><trkpt lat="43.4934833" lon="11.3487167"><ele>326.0</ele><time>2026-03-22T10:02:06.228Z</time></trkpt><trkpt lat="43.49357" lon="11.3486117"><ele>326.0</ele><time>2026-03-22T10:02:07.23Z</time></trkpt><trkpt lat="43.493655" lon="11.3485"><ele>326.0</ele><time>2026-03-22T10:02:08.228Z</time></trkpt><trkpt lat="43.49374" lon="11.3483867"><ele>326.0</ele><time>2026-03-22T10:02:09.227Z</time></trkpt><trkpt lat="43.4938217" lon="11.348265"><ele>326.0</ele><time>2026-03-22T10:02:10.226Z</time></trkpt><trkpt lat="43.4939" lon="11.34814"><ele>326.0</ele><time>2026-03-22T10:02:11.226Z</time></trkpt><trkpt lat="43.4939783" lon="11.34802"><ele>326.0</ele><time>2026-03-22T10:02:12.226Z</time></trkpt><trkpt lat="43.494055" lon="11.3478983"><ele>326.0</ele><time>2026-03-22T10:02:13.227Z</time></trkpt><trkpt lat="43.49413" lon="11.3477767"><ele>326.0</ele><time>2026-03-22T10:02:14.226Z</time></trkpt><trkpt lat="43.4942033" lon="11.3476533"><ele>326.0</ele><time>2026-03-22T10:02:15.226Z</time></trkpt><trkpt lat="43.49427" lon="11.3475233"><ele>326.0</ele><time>2026-03-22T10:02:16.227Z</time></trkpt><trkpt lat="43.4943317" lon="11.3473867"><ele>326.0</ele><time>2026-03-22T10:02:17.226Z</time></trkpt><trkpt lat="43.49439" lon="11.34725"><ele>326.0</ele><time>2026-03-22T10:02:18.227Z</time></trkpt><trkpt lat="43.494445" lon="11.3471167"><ele>324.8</ele><time>2026-03-22T10:02:19.228Z</time></trkpt><trkpt lat="43.4944967" lon="11.3469833"><ele>323.6</ele><time>2026-03-22T10:02:20.228Z</time></trkpt><trkpt lat="43.4945467" lon="11.3468467"><ele>322.4</ele><time>2026-03-22T10:02:21.228Z</time></trkpt><trkpt lat="43.494595" lon="11.34671"><ele>321.2</ele><time>2026-03-22T10:02:22.227Z</time></trkpt><trkpt lat="43.494645" lon="11.346575"><ele>320.0</ele><time>2026-03-22T10:02:23.227Z</time></trkpt><trkpt lat="43.4946967" lon="11.3464367"><ele>320.0</ele><time>2026-03-22T10:02:24.228Z</time></trkpt><trkpt lat="43.4947433" lon="11.3462917"><ele>320.0</ele><time>2026-03-22T10:02:25.226Z</time></trkpt><trkpt lat="43.4947933" lon="11.3461467"><ele>320.0</ele><time>2026-03-22T10:02:26.225Z</time></trkpt><trkpt lat="43.4948417" lon="11.346005"><ele>320.0</ele><time>2026-03-22T10:02:27.226Z</time></trkpt><trkpt lat="43.4948867" lon="11.345865"><ele>320.0</ele><time>2026-03-22T10:02:28.225Z</time></trkpt><trkpt lat="43.4949367" lon="11.3457217"><ele>320.0</ele><time>2026-03-22T10:02:29.227Z</time></trkpt><trkpt lat="43.4949867" lon="11.3455833"><ele>320.0</ele><time>2026-03-22T10:02:30.225Z</time></trkpt><trkpt lat="43.49504" lon="11.345445"><ele>320.0</ele><time>2026-03-22T10:02:31.227Z</time></trkpt><trkpt lat="43.4950933" lon="11.3453017"><ele>320.25</ele><time>2026-03-22T10:02:32.225Z</time></trkpt><trkpt lat="43.49514" lon="11.345155"><ele>320.5</ele><time>2026-03-22T10:02:33.224Z</time></trkpt><trkpt lat="43.4951917" lon="11.3450067"><ele>320.75</ele><time>2026-03-22T10:02:34.225Z</time></trkpt><trkpt lat="43.4952417" lon="11.34486"><ele>321.0</ele><time>2026-03-22T10:02:35.226Z</time></trkpt><trkpt lat="43.49529" lon="11.3447167"><ele>321.75</ele><time>2026-03-22T10:02:36.225Z</time></trkpt><trkpt lat="43.4953467" lon="11.3445767"><ele>322.5</ele><time>2026-03-22T10:02:37.225Z</time></trkpt><trkpt lat="43.4954017" lon="11.3444383"><ele>323.25</ele><time>2026-03-22T10:02:38.225Z</time></trkpt><trkpt lat="43.4954583" lon="11.3442983"><ele>324.0</ele><time>2026-03-22T10:02:39.224Z</time></trkpt><trkpt lat="43.4955167" lon="11.3441617"><ele>323.4</ele><time>2026-03-22T10:02:40.225Z</time></trkpt><trkpt lat="43.4955717" lon="11.3440267"><ele>322.79999999999995</ele><time>2026-03-22T10:02:41.226Z</time></trkpt><trkpt lat="43.4956267" lon="11.3438967"><ele>322.20000000000005</ele><time>2026-03-22T10:02:42.225Z</time></trkpt><trkpt lat="43.4956817" lon="11.34377"><ele>321.6</ele><time>2026-03-22T10:02:43.225Z</time></trkpt><trkpt lat="43.4957383" lon="11.3436417"><ele>321.0</ele><time>2026-03-22T10:02:44.226Z</time></trkpt><trkpt lat="43.495795" lon="11.34352"><ele>321.0</ele><time>2026-03-22T10:02:45.228Z</time></trkpt><trkpt lat="43.4958517" lon="11.3434083"><ele>321.0</ele><time>2026-03-22T10:02:46.226Z</time></trkpt><trkpt lat="43.4959117" lon="11.3432967"><ele>321.0</ele><time>2026-03-22T10:02:47.225Z</time></trkpt><trkpt lat="43.49597" lon="11.3431883"><ele>321.0</ele><time>2026-03-22T10:02:48.226Z</time></trkpt><trkpt lat="43.49603" lon="11.343085"><ele>321.0</ele><time>2026-03-22T10:02:49.225Z</time></trkpt><trkpt lat="43.4960967" lon="11.3429867"><ele>320.6</ele><time>2026-03-22T10:02:50.225Z</time></trkpt><trkpt lat="43.4961667" lon="11.342895"><ele>320.20000000000005</ele><time>2026-03-22T10:02:51.225Z</time></trkpt><trkpt lat="43.49624" lon="11.3428067"><ele>319.79999999999995</ele><time>2026-03-22T10:02:52.225Z</time></trkpt><trkpt lat="43.4963067" lon="11.342715"><ele>319.4</ele><time>2026-03-22T10:02:53.225Z</time></trkpt><trkpt lat="43.4963767" lon="11.3426167"><ele>319.0</ele><time>2026-03-22T10:02:54.224Z</time></trkpt><trkpt lat="43.4964417" lon="11.342515"><ele>319.0</ele><time>2026-03-22T10:02:55.225Z</time></trkpt><trkpt lat="43.4964983" lon="11.34241"><ele>319.0</ele><time>2026-03-22T10:02:56.225Z</time></trkpt><trkpt lat="43.496545" lon="11.3423"><ele>319.0</ele><time>2026-03-22T10:02:57.227Z</time></trkpt><trkpt lat="43.4965883" lon="11.3421933"><ele>319.0</ele><time>2026-03-22T10:02:58.225Z</time></trkpt><trkpt lat="43.4966333" lon="11.3420867"><ele>319.0</ele><time>2026-03-22T10:02:59.226Z</time></trkpt><trkpt lat="43.4966733" lon="11.3419733"><ele>319.0</ele><time>2026-03-22T10:03:00.225Z</time></trkpt><trkpt lat="43.4967133" lon="11.3418633"><ele>319.0</ele><time>2026-03-22T10:03:01.226Z</time></trkpt><trkpt lat="43.4967483" lon="11.34175"><ele>319.0</ele><time>2026-03-22T10:03:02.226Z</time></trkpt><trkpt lat="43.496785" lon="11.3416333"><ele>319.0</ele><time>2026-03-22T10:03:03.225Z</time></trkpt><trkpt lat="43.4968183" lon="11.3415183"><ele>319.0</ele><time>2026-03-22T10:03:04.225Z</time></trkpt><trkpt lat="43.496855" lon="11.3414067"><ele>319.16666666666663</ele><time>2026-03-22T10:03:05.225Z</time></trkpt><trkpt lat="43.4968867" lon="11.3412967"><ele>319.3333333333333</ele><time>2026-03-22T10:03:06.225Z</time></trkpt><trkpt lat="43.4969217" lon="11.3411817"><ele>319.5</ele><time>2026-03-22T10:03:07.225Z</time></trkpt><trkpt lat="43.496955" lon="11.3410683"><ele>319.6666666666667</ele><time>2026-03-22T10:03:08.227Z</time></trkpt><trkpt lat="43.4969867" lon="11.3409567"><ele>319.83333333333337</ele><time>2026-03-22T10:03:09.226Z</time></trkpt><trkpt lat="43.4970233" lon="11.34084"><ele>320.0</ele><time>2026-03-22T10:03:10.225Z</time></trkpt><trkpt lat="43.4970567" lon="11.340725"><ele>318.4</ele><time>2026-03-22T10:03:11.226Z</time></trkpt><trkpt lat="43.4970917" lon="11.3406067"><ele>316.8</ele><time>2026-03-22T10:03:12.226Z</time></trkpt><trkpt lat="43.497125" lon="11.340485"><ele>315.2</ele><time>2026-03-22T10:03:13.229Z</time></trkpt><trkpt lat="43.49716" lon="11.340365"><ele>313.6</ele><time>2026-03-22T10:03:14.223Z</time></trkpt><trkpt lat="43.497195" lon="11.3402433"><ele>312.0</ele><time>2026-03-22T10:03:15.222Z</time></trkpt><trkpt lat="43.49723" lon="11.3401217"><ele>311.8</ele><time>2026-03-22T10:03:16.223Z</time></trkpt><trkpt lat="43.4972667" lon="11.340005"><ele>311.6</ele><time>2026-03-22T10:03:17.222Z</time></trkpt><trkpt lat="43.497305" lon="11.3398833"><ele>311.40000000000003</ele><time>2026-03-22T10:03:18.222Z</time></trkpt><trkpt lat="43.4973417" lon="11.3397583"><ele>311.2</ele><time>2026-03-22T10:03:19.223Z</time></trkpt><trkpt lat="43.4973783" lon="11.33963"><ele>311.0</ele><time>2026-03-22T10:03:20.223Z</time></trkpt><trkpt lat="43.49742" lon="11.339505"><ele>312.40000000000003</ele><time>2026-03-22T10:03:21.223Z</time></trkpt><trkpt lat="43.497465" lon="11.339385"><ele>313.8</ele><time>2026-03-22T10:03:22.225Z</time></trkpt><trkpt lat="43.4975133" lon="11.3392733"><ele>315.20000000000005</ele><time>2026-03-22T10:03:23.226Z</time></trkpt><trkpt lat="43.4975683" lon="11.339165"><ele>316.6</ele><time>2026-03-22T10:03:24.225Z</time></trkpt><trkpt lat="43.497625" lon="11.3390667"><ele>318.0</ele><time>2026-03-22T10:03:25.225Z</time></trkpt><trkpt lat="43.4976833" lon="11.338965"><ele>317.1666666666667</ele><time>2026-03-22T10:03:26.226Z</time></trkpt><trkpt lat="43.49774" lon="11.3388683"><ele>316.3333333333333</ele><time>2026-03-22T10:03:27.226Z</time></trkpt><trkpt lat="43.49779" lon="11.3387767"><ele>315.5</ele><time>2026-03-22T10:03:28.224Z</time></trkpt><trkpt lat="43.4978417" lon="11.338675"><ele>314.66666666666663</ele><time>2026-03-22T10:03:29.225Z</time></trkpt><trkpt lat="43.4978933" lon="11.3385783"><ele>313.8333333333333</ele><time>2026-03-22T10:03:30.227Z</time></trkpt><trkpt lat="43.4979433" lon="11.3384767"><ele>313.0</ele><time>2026-03-22T10:03:31.226Z</time></trkpt><trkpt lat="43.4979917" lon="11.33838"><ele>313.0</ele><time>2026-03-22T10:03:32.225Z</time></trkpt><trkpt lat="43.498045" lon="11.3382867"><ele>313.0</ele><time>2026-03-22T10:03:33.226Z</time></trkpt><trkpt lat="43.4981017" lon="11.338195"><ele>313.0</ele><time>2026-03-22T10:03:34.225Z</time></trkpt><trkpt lat="43.4981617" lon="11.3381017"><ele>313.0</ele><time>2026-03-22T10:03:35.226Z</time></trkpt><trkpt lat="43.4982267" lon="11.3380167"><ele>313.0</ele><time>2026-03-22T10:03:36.226Z</time></trkpt><trkpt lat="43.4982917" lon="11.3379317"><ele>313.0</ele><time>2026-03-22T10:03:37.223Z</time></trkpt><trkpt lat="43.4983567" lon="11.3378483"><ele>314.8</ele><time>2026-03-22T10:03:38.225Z</time></trkpt><trkpt lat="43.4984233" lon="11.3377683"><ele>316.6</ele><time>2026-03-22T10:03:39.226Z</time></trkpt><trkpt lat="43.4984917" lon="11.3376917"><ele>318.40000000000003</ele><time>2026-03-22T10:03:40.225Z</time></trkpt><trkpt lat="43.4985633" lon="11.3376133"><ele>320.20000000000005</ele><time>2026-03-22T10:03:41.227Z</time></trkpt><trkpt lat="43.4986367" lon="11.3375283"><ele>322.0</ele><time>2026-03-22T10:03:42.226Z</time></trkpt><trkpt lat="43.4987133" lon="11.337445"><ele>320.0</ele><time>2026-03-22T10:03:43.226Z</time></trkpt><trkpt lat="43.49879" lon="11.3373567"><ele>318.0</ele><time>2026-03-22T10:03:44.225Z</time></trkpt><trkpt lat="43.4988633" lon="11.337265"><ele>316.0</ele><time>2026-03-22T10:03:45.227Z</time></trkpt><trkpt lat="43.498935" lon="11.3371733"><ele>314.0</ele><time>2026-03-22T10:03:46.228Z</time></trkpt><trkpt lat="43.499005" lon="11.3370783"><ele>312.0</ele><time>2026-03-22T10:03:47.227Z</time></trkpt><trkpt lat="43.4990717" lon="11.336985"><ele>312.0</ele><time>2026-03-22T10:03:48.225Z</time></trkpt><trkpt lat="43.4991383" lon="11.3368883"><ele>312.0</ele><time>2026-03-22T10:03:49.227Z</time></trkpt><trkpt lat="43.4992033" lon="11.3367867"><ele>312.0</ele><time>2026-03-22T10:03:50.225Z</time></trkpt><trkpt lat="43.4992617" lon="11.3366783"><ele>312.0</ele><time>2026-03-22T10:03:51.226Z</time></trkpt><trkpt lat="43.4993183" lon="11.33657"><ele>312.0</ele><time>2026-03-22T10:03:52.225Z</time></trkpt><trkpt lat="43.4993767" lon="11.3364567"><ele>311.6</ele><time>2026-03-22T10:03:53.226Z</time></trkpt><trkpt lat="43.4994317" lon="11.3363417"><ele>311.2</ele><time>2026-03-22T10:03:54.225Z</time></trkpt><trkpt lat="43.4994867" lon="11.3362233"><ele>310.8</ele><time>2026-03-22T10:03:55.225Z</time></trkpt><trkpt lat="43.4995383" lon="11.336105"><ele>310.4</ele><time>2026-03-22T10:03:56.225Z</time></trkpt><trkpt lat="43.499595" lon="11.3359867"><ele>310.0</ele><time>2026-03-22T10:03:57.226Z</time></trkpt><trkpt lat="43.4996533" lon="11.3358683"><ele>310.0</ele><time>2026-03-22T10:03:58.225Z</time></trkpt><trkpt lat="43.4997117" lon="11.335745"><ele>310.0</ele><time>2026-03-22T10:03:59.226Z</time></trkpt><trkpt lat="43.4997717" lon="11.335625"><ele>310.0</ele><time>2026-03-22T10:04:00.227Z</time></trkpt><trkpt lat="43.4998267" lon="11.3355033"><ele>310.0</ele><time>2026-03-22T10:04:01.227Z</time></trkpt><trkpt lat="43.4998867" lon="11.3353817"><ele>310.0</ele><time>2026-03-22T10:04:02.228Z</time></trkpt><trkpt lat="43.4999433" lon="11.3352583"><ele>310.2</ele><time>2026-03-22T10:04:03.226Z</time></trkpt><trkpt lat="43.5000017" lon="11.3351333"><ele>310.4</ele><time>2026-03-22T10:04:04.225Z</time></trkpt><trkpt lat="43.50006" lon="11.3350067"><ele>310.6</ele><time>2026-03-22T10:04:05.227Z</time></trkpt><trkpt lat="43.5001167" lon="11.3348783"><ele>310.8</ele><time>2026-03-22T10:04:06.226Z</time></trkpt><trkpt lat="43.500175" lon="11.3347483"><ele>311.0</ele><time>2026-03-22T10:04:07.225Z</time></trkpt><trkpt lat="43.5002367" lon="11.3346183"><ele>310.0</ele><time>2026-03-22T10:04:08.225Z</time></trkpt><trkpt lat="43.5003" lon="11.33449"><ele>309.0</ele><time>2026-03-22T10:04:09.225Z</time></trkpt><trkpt lat="43.5003617" lon="11.33436"><ele>308.0</ele><time>2026-03-22T10:04:10.226Z</time></trkpt><trkpt lat="43.500425" lon="11.3342283"><ele>307.0</ele><time>2026-03-22T10:04:11.226Z</time></trkpt><trkpt lat="43.5004883" lon="11.3340967"><ele>307.0</ele><time>2026-03-22T10:04:12.227Z</time></trkpt><trkpt lat="43.500555" lon="11.3339667"><ele>307.0</ele><time>2026-03-22T10:04:13.227Z</time></trkpt><trkpt lat="43.5006233" lon="11.33384"><ele>307.0</ele><time>2026-03-22T10:04:14.226Z</time></trkpt><trkpt lat="43.5006917" lon="11.3337167"><ele>307.0</ele><time>2026-03-22T10:04:15.226Z</time></trkpt><trkpt lat="43.5007617" lon="11.3336"><ele>308.5</ele><time>2026-03-22T10:04:16.225Z</time></trkpt><trkpt lat="43.5008383" lon="11.3334867"><ele>310.0</ele><time>2026-03-22T10:04:17.225Z</time></trkpt><trkpt lat="43.50092" lon="11.3333767"><ele>311.5</ele><time>2026-03-22T10:04:18.226Z</time></trkpt><trkpt lat="43.5009983" lon="11.3332667"><ele>313.0</ele><time>2026-03-22T10:04:19.226Z</time></trkpt><trkpt lat="43.50108" lon="11.3331583"><ele>312.2</ele><time>2026-03-22T10:04:20.225Z</time></trkpt><trkpt lat="43.501165" lon="11.333055"><ele>311.4</ele><time>2026-03-22T10:04:21.226Z</time></trkpt><trkpt lat="43.50125" lon="11.332955"><ele>310.59999999999997</ele><time>2026-03-22T10:04:22.227Z</time></trkpt><trkpt lat="43.501335" lon="11.3328633"><ele>309.8</ele><time>2026-03-22T10:04:23.227Z</time></trkpt><trkpt lat="43.5014233" lon="11.3327783"><ele>309.0</ele><time>2026-03-22T10:04:24.226Z</time></trkpt><trkpt lat="43.5015167" lon="11.3326967"><ele>309.0</ele><time>2026-03-22T10:04:25.226Z</time></trkpt><trkpt lat="43.5016083" lon="11.3326167"><ele>309.0</ele><time>2026-03-22T10:04:26.225Z</time></trkpt><trkpt lat="43.5016983" lon="11.3325383"><ele>309.0</ele><time>2026-03-22T10:04:27.227Z</time></trkpt><trkpt lat="43.50179" lon="11.3324583"><ele>309.0</ele><time>2026-03-22T10:04:28.225Z</time></trkpt><trkpt lat="43.5018783" lon="11.3323783"><ele>309.0</ele><time>2026-03-22T10:04:29.226Z</time></trkpt><trkpt lat="43.5019667" lon="11.3323017"><ele>308.59999999999997</ele><time>2026-03-22T10:04:30.225Z</time></trkpt><trkpt lat="43.5020517" lon="11.3322167"><ele>308.2</ele><time>2026-03-22T10:04:31.225Z</time></trkpt><trkpt lat="43.5021383" lon="11.33213"><ele>307.79999999999995</ele><time>2026-03-22T10:04:32.225Z</time></trkpt><trkpt lat="43.5022217" lon="11.3320367"><ele>307.4</ele><time>2026-03-22T10:04:33.226Z</time></trkpt><trkpt lat="43.5023017" lon="11.33194"><ele>307.0</ele><time>2026-03-22T10:04:34.226Z</time></trkpt><trkpt lat="43.5023767" lon="11.33184"><ele>307.0</ele><time>2026-03-22T10:04:35.225Z</time></trkpt><trkpt lat="43.5024483" lon="11.3317317"><ele>307.0</ele><time>2026-03-22T10:04:36.226Z</time></trkpt><trkpt lat="43.5025217" lon="11.3316217"><ele>307.0</ele><time>2026-03-22T10:04:37.226Z</time></trkpt><trkpt lat="43.50259" lon="11.3315117"><ele>307.0</ele><time>2026-03-22T10:04:38.227Z</time></trkpt><trkpt lat="43.50265" lon="11.3314017"><ele>307.0</ele><time>2026-03-22T10:04:39.226Z</time></trkpt><trkpt lat="43.50272" lon="11.3312933"><ele>306.8</ele><time>2026-03-22T10:04:40.225Z</time></trkpt><trkpt lat="43.502795" lon="11.331185"><ele>306.6</ele><time>2026-03-22T10:04:41.225Z</time></trkpt><trkpt lat="43.5028683" lon="11.3310767"><ele>306.40000000000003</ele><time>2026-03-22T10:04:42.227Z</time></trkpt><trkpt lat="43.5029467" lon="11.330975"><ele>306.2</ele><time>2026-03-22T10:04:43.225Z</time></trkpt><trkpt lat="43.5030233" lon="11.3308667"><ele>306.0</ele><time>2026-03-22T10:04:44.226Z</time></trkpt><trkpt lat="43.5031017" lon="11.33076"><ele>306.0</ele><time>2026-03-22T10:04:45.225Z</time></trkpt><trkpt lat="43.503175" lon="11.3306517"><ele>306.0</ele><time>2026-03-22T10:04:46.225Z</time></trkpt><trkpt lat="43.503245" lon="11.33054"><ele>306.0</ele><time>2026-03-22T10:04:47.225Z</time></trkpt><trkpt lat="43.5033133" lon="11.33043"><ele>306.0</ele><time>2026-03-22T10:04:48.224Z</time></trkpt><trkpt lat="43.5033817" lon="11.3303133"><ele>306.0</ele><time>2026-03-22T10:04:49.227Z</time></trkpt><trkpt lat="43.5034483" lon="11.3301983"><ele>305.8</ele><time>2026-03-22T10:04:50.227Z</time></trkpt><trkpt lat="43.503515" lon="11.3300833"><ele>305.6</ele><time>2026-03-22T10:04:51.228Z</time></trkpt><trkpt lat="43.503575" lon="11.329965"><ele>305.4</ele><time>2026-03-22T10:04:52.225Z</time></trkpt><trkpt lat="43.5036367" lon="11.3298467"><ele>305.2</ele><time>2026-03-22T10:04:53.226Z</time></trkpt><trkpt lat="43.5037033" lon="11.3297367"><ele>305.0</ele><time>2026-03-22T10:04:54.227Z</time></trkpt><trkpt lat="43.5037717" lon="11.3296283"><ele>305.0</ele><time>2026-03-22T10:04:55.226Z</time></trkpt><trkpt lat="43.5038533" lon="11.32954"><ele>305.0</ele><time>2026-03-22T10:04:56.225Z</time></trkpt><trkpt lat="43.5039483" lon="11.329465"><ele>305.0</ele><time>2026-03-22T10:04:57.225Z</time></trkpt><trkpt lat="43.504045" lon="11.3294067"><ele>305.0</ele><time>2026-03-22T10:04:58.225Z</time></trkpt><trkpt lat="43.5041433" lon="11.3293617"><ele>305.0</ele><time>2026-03-22T10:04:59.225Z</time></trkpt><trkpt lat="43.5042433" lon="11.3293217"><ele>305.0</ele><time>2026-03-22T10:05:00.227Z</time></trkpt><trkpt lat="43.5043417" lon="11.3292717"><ele>305.0</ele><time>2026-03-22T10:05:01.225Z</time></trkpt><trkpt lat="43.50444" lon="11.3292133"><ele>305.0</ele><time>2026-03-22T10:05:02.227Z</time></trkpt><trkpt lat="43.5045333" lon="11.3291483"><ele>305.0</ele><time>2026-03-22T10:05:03.225Z</time></trkpt><trkpt lat="43.5046267" lon="11.3290883"><ele>305.0</ele><time>2026-03-22T10:05:04.225Z</time></trkpt><trkpt lat="43.5047167" lon="11.329015"><ele>304.8</ele><time>2026-03-22T10:05:05.225Z</time></trkpt><trkpt lat="43.5048083" lon="11.3289433"><ele>304.6</ele><time>2026-03-22T10:05:06.226Z</time></trkpt><trkpt lat="43.5049017" lon="11.3288683"><ele>304.4</ele><time>2026-03-22T10:05:07.227Z</time></trkpt><trkpt lat="43.505" lon="11.3288"><ele>304.2</ele><time>2026-03-22T10:05:08.225Z</time></trkpt><trkpt lat="43.5050967" lon="11.3287233"><ele>304.0</ele><time>2026-03-22T10:05:09.225Z</time></trkpt><trkpt lat="43.5051917" lon="11.3286383"><ele>304.0</ele><time>2026-03-22T10:05:10.224Z</time></trkpt><trkpt lat="43.505285" lon="11.3285483"><ele>304.0</ele><time>2026-03-22T10:05:11.228Z</time></trkpt><trkpt lat="43.5053767" lon="11.3284567"><ele>304.0</ele><time>2026-03-22T10:05:12.225Z</time></trkpt><trkpt lat="43.5054667" lon="11.3283617"><ele>304.0</ele><time>2026-03-22T10:05:13.228Z</time></trkpt><trkpt lat="43.5055567" lon="11.3282633"><ele>303.2</ele><time>2026-03-22T10:05:14.227Z</time></trkpt><trkpt lat="43.505645" lon="11.3281667"><ele>302.4</ele><time>2026-03-22T10:05:15.225Z</time></trkpt><trkpt lat="43.5057333" lon="11.32807"><ele>301.6</ele><time>2026-03-22T10:05:16.228Z</time></trkpt><trkpt lat="43.5058233" lon="11.3279783"><ele>300.8</ele><time>2026-03-22T10:05:17.225Z</time></trkpt><trkpt lat="43.5059133" lon="11.3278867"><ele>300.0</ele><time>2026-03-22T10:05:18.225Z</time></trkpt><trkpt lat="43.5060033" lon="11.3277967"><ele>299.8</ele><time>2026-03-22T10:05:19.226Z</time></trkpt><trkpt lat="43.506095" lon="11.3277133"><ele>299.6</ele><time>2026-03-22T10:05:20.228Z</time></trkpt><trkpt lat="43.5061867" lon="11.32763"><ele>299.4</ele><time>2026-03-22T10:05:21.227Z</time></trkpt><trkpt lat="43.5062767" lon="11.32755"><ele>299.2</ele><time>2026-03-22T10:05:22.227Z</time></trkpt><trkpt lat="43.50637" lon="11.327475"><ele>299.0</ele><time>2026-03-22T10:05:23.226Z</time></trkpt><trkpt lat="43.506465" lon="11.327405"><ele>298.8</ele><time>2026-03-22T10:05:24.225Z</time></trkpt><trkpt lat="43.506565" lon="11.3273517"><ele>298.59999999999997</ele><time>2026-03-22T10:05:25.225Z</time></trkpt><trkpt lat="43.506665" lon="11.3273033"><ele>298.4</ele><time>2026-03-22T10:05:26.226Z</time></trkpt><trkpt lat="43.5067617" lon="11.32726"><ele>298.2</ele><time>2026-03-22T10:05:27.226Z</time></trkpt><trkpt lat="43.5068617" lon="11.3272217"><ele>298.0</ele><time>2026-03-22T10:05:28.225Z</time></trkpt><trkpt lat="43.5069567" lon="11.327185"><ele>297.8333333333333</ele><time>2026-03-22T10:05:29.227Z</time></trkpt><trkpt lat="43.5070467" lon="11.3271533"><ele>297.66666666666663</ele><time>2026-03-22T10:05:30.226Z</time></trkpt><trkpt lat="43.5071333" lon="11.3271183"><ele>297.5</ele><time>2026-03-22T10:05:31.226Z</time></trkpt><trkpt lat="43.5072167" lon="11.3270783"><ele>297.3333333333333</ele><time>2026-03-22T10:05:32.225Z</time></trkpt><trkpt lat="43.5072983" lon="11.3270317"><ele>297.1666666666667</ele><time>2026-03-22T10:05:33.224Z</time></trkpt><trkpt lat="43.5073667" lon="11.3269683"><ele>297.0</ele><time>2026-03-22T10:05:34.226Z</time></trkpt><trkpt lat="43.5074183" lon="11.3268817"><ele>298.3333333333333</ele><time>2026-03-22T10:05:35.225Z</time></trkpt><trkpt lat="43.5074617" lon="11.326785"><ele>299.6666666666667</ele><time>2026-03-22T10:05:36.226Z</time></trkpt><trkpt lat="43.5074967" lon="11.326675"><ele>301.0</ele><time>2026-03-22T10:05:37.226Z</time></trkpt><trkpt lat="43.507525" lon="11.3265567"><ele>302.33333333333337</ele><time>2026-03-22T10:05:38.228Z</time></trkpt><trkpt lat="43.5075467" lon="11.326435"><ele>303.6666666666667</ele><time>2026-03-22T10:05:39.225Z</time></trkpt><trkpt lat="43.507565" lon="11.3263117"><ele>305.0</ele><time>2026-03-22T10:05:40.227Z</time></trkpt><trkpt lat="43.5075833" lon="11.3261833"><ele>305.0</ele><time>2026-03-22T10:05:41.225Z</time></trkpt><trkpt lat="43.5076033" lon="11.32605"><ele>305.0</ele><time>2026-03-22T10:05:42.228Z</time></trkpt><trkpt lat="43.5076233" lon="11.325915"><ele>305.0</ele><time>2026-03-22T10:05:43.226Z</time></trkpt><trkpt lat="43.5076483" lon="11.3257783"><ele>305.0</ele><time>2026-03-22T10:05:44.225Z</time></trkpt><trkpt lat="43.5076767" lon="11.3256483"><ele>305.0</ele><time>2026-03-22T10:05:45.225Z</time></trkpt><trkpt lat="43.50771" lon="11.3255167"><ele>304.6</ele><time>2026-03-22T10:05:46.224Z</time></trkpt><trkpt lat="43.507745" lon="11.325385"><ele>304.2</ele><time>2026-03-22T10:05:47.227Z</time></trkpt><trkpt lat="43.50778" lon="11.3252517"><ele>303.8</ele><time>2026-03-22T10:05:48.226Z</time></trkpt><trkpt lat="43.50782" lon="11.3251167"><ele>303.4</ele><time>2026-03-22T10:05:49.227Z</time></trkpt><trkpt lat="43.5078617" lon="11.3249783"><ele>303.0</ele><time>2026-03-22T10:05:50.227Z</time></trkpt><trkpt lat="43.5079083" lon="11.3248417"><ele>304.0</ele><time>2026-03-22T10:05:51.226Z</time></trkpt><trkpt lat="43.5079617" lon="11.32471"><ele>305.0</ele><time>2026-03-22T10:05:52.226Z</time></trkpt><trkpt lat="43.5080183" lon="11.3245817"><ele>306.0</ele><time>2026-03-22T10:05:53.227Z</time></trkpt><trkpt lat="43.5080783" lon="11.3244567"><ele>307.0</ele><time>2026-03-22T10:05:54.226Z</time></trkpt><trkpt lat="43.5081467" lon="11.3243367"><ele>308.0</ele><time>2026-03-22T10:05:55.225Z</time></trkpt><trkpt lat="43.5082133" lon="11.3242167"><ele>308.0</ele><time>2026-03-22T10:05:56.225Z</time></trkpt><trkpt lat="43.5082867" lon="11.3241067"><ele>308.0</ele><time>2026-03-22T10:05:57.225Z</time></trkpt><trkpt lat="43.508365" lon="11.324005"><ele>308.0</ele><time>2026-03-22T10:05:58.226Z</time></trkpt><trkpt lat="43.508455" lon="11.32392"><ele>308.0</ele><time>2026-03-22T10:05:59.226Z</time></trkpt><trkpt lat="43.50855" lon="11.3238533"><ele>308.0</ele><time>2026-03-22T10:06:00.226Z</time></trkpt><trkpt lat="43.5086533" lon="11.3238"><ele>306.0</ele><time>2026-03-22T10:06:01.226Z</time></trkpt><trkpt lat="43.5087617" lon="11.3237667"><ele>304.0</ele><time>2026-03-22T10:06:02.229Z</time></trkpt><trkpt lat="43.5088733" lon="11.32375"><ele>302.0</ele><time>2026-03-22T10:06:03.226Z</time></trkpt><trkpt lat="43.5089867" lon="11.3237367"><ele>300.0</ele><time>2026-03-22T10:06:04.226Z</time></trkpt><trkpt lat="43.5091017" lon="11.3237417"><ele>300.0</ele><time>2026-03-22T10:06:05.227Z</time></trkpt><trkpt lat="43.50921" lon="11.3237483"><ele>300.0</ele><time>2026-03-22T10:06:06.226Z</time></trkpt><trkpt lat="43.5093183" lon="11.323755"><ele>300.0</ele><time>2026-03-22T10:06:07.228Z</time></trkpt><trkpt lat="43.50943" lon="11.3237517"><ele>300.0</ele><time>2026-03-22T10:06:08.226Z</time></trkpt><trkpt lat="43.5095417" lon="11.3237367"><ele>300.0</ele><time>2026-03-22T10:06:09.226Z</time></trkpt><trkpt lat="43.50965" lon="11.3237017"><ele>300.5</ele><time>2026-03-22T10:06:10.225Z</time></trkpt><trkpt lat="43.5097583" lon="11.32366"><ele>301.0</ele><time>2026-03-22T10:06:11.229Z</time></trkpt><trkpt lat="43.5098667" lon="11.323615"><ele>301.5</ele><time>2026-03-22T10:06:12.225Z</time></trkpt><trkpt lat="43.5099717" lon="11.323555"><ele>302.0</ele><time>2026-03-22T10:06:13.225Z</time></trkpt><trkpt lat="43.51007" lon="11.323485"><ele>302.0</ele><time>2026-03-22T10:06:14.226Z</time></trkpt><trkpt lat="43.5101667" lon="11.3234117"><ele>302.0</ele><time>2026-03-22T10:06:15.228Z</time></trkpt><trkpt lat="43.5102567" lon="11.3233267"><ele>302.0</ele><time>2026-03-22T10:06:16.225Z</time></trkpt><trkpt lat="43.5103433" lon="11.3232267"><ele>302.0</ele><time>2026-03-22T10:06:17.227Z</time></trkpt><trkpt lat="43.5104233" lon="11.32312"><ele>302.0</ele><time>2026-03-22T10:06:18.226Z</time></trkpt><trkpt lat="43.5105067" lon="11.3230167"><ele>301.6</ele><time>2026-03-22T10:06:19.226Z</time></trkpt><trkpt lat="43.5105867" lon="11.3229133"><ele>301.2</ele><time>2026-03-22T10:06:20.226Z</time></trkpt><trkpt lat="43.5106633" lon="11.322815"><ele>300.8</ele><time>2026-03-22T10:06:21.227Z</time></trkpt><trkpt lat="43.5107467" lon="11.322725"><ele>300.4</ele><time>2026-03-22T10:06:22.226Z</time></trkpt><trkpt lat="43.5108317" lon="11.3226267"><ele>300.0</ele><time>2026-03-22T10:06:23.225Z</time></trkpt><trkpt lat="43.510915" lon="11.3225283"><ele>300.0</ele><time>2026-03-22T10:06:24.226Z</time></trkpt><trkpt lat="43.5109967" lon="11.3224333"><ele>300.0</ele><time>2026-03-22T10:06:25.227Z</time></trkpt><trkpt lat="43.5110783" lon="11.3223383"><ele>300.0</ele><time>2026-03-22T10:06:26.226Z</time></trkpt><trkpt lat="43.511155" lon="11.32224"><ele>300.0</ele><time>2026-03-22T10:06:27.226Z</time></trkpt><trkpt lat="43.5112333" lon="11.322145"><ele>300.0</ele><time>2026-03-22T10:06:28.226Z</time></trkpt><trkpt lat="43.5113167" lon="11.32205"><ele>300.4</ele><time>2026-03-22T10:06:29.226Z</time></trkpt><trkpt lat="43.5114" lon="11.32196"><ele>300.8</ele><time>2026-03-22T10:06:30.226Z</time></trkpt><trkpt lat="43.511485" lon="11.3218617"><ele>301.2</ele><time>2026-03-22T10:06:31.225Z</time></trkpt><trkpt lat="43.5115717" lon="11.3217667"><ele>301.6</ele><time>2026-03-22T10:06:32.227Z</time></trkpt><trkpt lat="43.5116567" lon="11.3216767"><ele>302.0</ele><time>2026-03-22T10:06:33.227Z</time></trkpt><trkpt lat="43.5117467" lon="11.321595"><ele>302.0</ele><time>2026-03-22T10:06:34.225Z</time></trkpt><trkpt lat="43.5118417" lon="11.3215167"><ele>302.0</ele><time>2026-03-22T10:06:35.226Z</time></trkpt><trkpt lat="43.51194" lon="11.32146"><ele>302.0</ele><time>2026-03-22T10:06:36.23Z</time></trkpt><trkpt lat="43.51204" lon="11.3214117"><ele>302.0</ele><time>2026-03-22T10:06:37.226Z</time></trkpt><trkpt lat="43.5121433" lon="11.32137"><ele>302.0</ele><time>2026-03-22T10:06:38.227Z</time></trkpt><trkpt lat="43.51225" lon="11.3213317"><ele>301.2</ele><time>2026-03-22T10:06:39.226Z</time></trkpt><trkpt lat="43.5123517" lon="11.3212933"><ele>300.4</ele><time>2026-03-22T10:06:40.227Z</time></trkpt><trkpt lat="43.5124533" lon="11.321255"><ele>299.6</ele><time>2026-03-22T10:06:41.226Z</time></trkpt><trkpt lat="43.5125517" lon="11.3212067"><ele>298.8</ele><time>2026-03-22T10:06:42.228Z</time></trkpt><trkpt lat="43.5126483" lon="11.32115"><ele>298.0</ele><time>2026-03-22T10:06:43.227Z</time></trkpt><trkpt lat="43.5127433" lon="11.321085"><ele>298.0</ele><time>2026-03-22T10:06:44.225Z</time></trkpt><trkpt lat="43.5128367" lon="11.3210167"><ele>298.0</ele><time>2026-03-22T10:06:45.225Z</time></trkpt><trkpt lat="43.512925" lon="11.3209483"><ele>298.0</ele><time>2026-03-22T10:06:46.227Z</time></trkpt><trkpt lat="43.5130133" lon="11.3208783"><ele>298.0</ele><time>2026-03-22T10:06:47.227Z</time></trkpt><trkpt lat="43.5131033" lon="11.3208083"><ele>298.0</ele><time>2026-03-22T10:06:48.225Z</time></trkpt><trkpt lat="43.5131917" lon="11.3207317"><ele>297.4</ele><time>2026-03-22T10:06:49.228Z</time></trkpt><trkpt lat="43.5132817" lon="11.3206583"><ele>296.8</ele><time>2026-03-22T10:06:50.227Z</time></trkpt><trkpt lat="43.5133717" lon="11.3205833"><ele>296.2</ele><time>2026-03-22T10:06:51.227Z</time></trkpt><trkpt lat="43.5134567" lon="11.3205117"><ele>295.6</ele><time>2026-03-22T10:06:52.226Z</time></trkpt><trkpt lat="43.5135417" lon="11.320435"><ele>295.0</ele><time>2026-03-22T10:06:53.227Z</time></trkpt><trkpt lat="43.51362" lon="11.3203467"><ele>295.0</ele><time>2026-03-22T10:06:54.225Z</time></trkpt><trkpt lat="43.51369" lon="11.32025"><ele>295.0</ele><time>2026-03-22T10:06:55.225Z</time></trkpt><trkpt lat="43.5137533" lon="11.3201417"><ele>295.0</ele><time>2026-03-22T10:06:56.226Z</time></trkpt><trkpt lat="43.51381" lon="11.3200233"><ele>295.0</ele><time>2026-03-22T10:06:57.225Z</time></trkpt><trkpt lat="43.513865" lon="11.3199033"><ele>295.0</ele><time>2026-03-22T10:06:58.227Z</time></trkpt><trkpt lat="43.5139167" lon="11.3197833"><ele>295.6</ele><time>2026-03-22T10:06:59.225Z</time></trkpt><trkpt lat="43.51397" lon="11.31966"><ele>296.2</ele><time>2026-03-22T10:07:00.225Z</time></trkpt><trkpt lat="43.5140333" lon="11.31955"><ele>296.8</ele><time>2026-03-22T10:07:01.225Z</time></trkpt><trkpt lat="43.514095" lon="11.3194367"><ele>297.4</ele><time>2026-03-22T10:07:02.227Z</time></trkpt><trkpt lat="43.5141533" lon="11.31932"><ele>298.0</ele><time>2026-03-22T10:07:03.227Z</time></trkpt><trkpt lat="43.5142133" lon="11.3192033"><ele>298.0</ele><time>2026-03-22T10:07:04.226Z</time></trkpt><trkpt lat="43.5142733" lon="11.31908"><ele>298.0</ele><time>2026-03-22T10:07:05.226Z</time></trkpt><trkpt lat="43.5143367" lon="11.31896"><ele>298.0</ele><time>2026-03-22T10:07:06.226Z</time></trkpt><trkpt lat="43.5144033" lon="11.3188433"><ele>298.0</ele><time>2026-03-22T10:07:07.227Z</time></trkpt><trkpt lat="43.51447" lon="11.3187217"><ele>298.0</ele><time>2026-03-22T10:07:08.226Z</time></trkpt><trkpt lat="43.5145333" lon="11.318595"><ele>297.0</ele><time>2026-03-22T10:07:09.226Z</time></trkpt><trkpt lat="43.5145967" lon="11.31847"><ele>296.0</ele><time>2026-03-22T10:07:10.225Z</time></trkpt><trkpt lat="43.5146617" lon="11.3183467"><ele>295.0</ele><time>2026-03-22T10:07:11.227Z</time></trkpt><trkpt lat="43.51473" lon="11.3182367"><ele>294.0</ele><time>2026-03-22T10:07:12.225Z</time></trkpt><trkpt lat="43.5148067" lon="11.3181317"><ele>293.0</ele><time>2026-03-22T10:07:13.225Z</time></trkpt><trkpt lat="43.5148917" lon="11.3180417"><ele>293.0</ele><time>2026-03-22T10:07:14.225Z</time></trkpt><trkpt lat="43.514985" lon="11.3179667"><ele>293.0</ele><time>2026-03-22T10:07:15.226Z</time></trkpt><trkpt lat="43.5150767" lon="11.3178917"><ele>293.0</ele><time>2026-03-22T10:07:16.227Z</time></trkpt><trkpt lat="43.5151633" lon="11.3178083"><ele>293.0</ele><time>2026-03-22T10:07:17.225Z</time></trkpt><trkpt lat="43.51524" lon="11.3177117"><ele>293.0</ele><time>2026-03-22T10:07:18.226Z</time></trkpt><trkpt lat="43.5153083" lon="11.3176033"><ele>293.0</ele><time>2026-03-22T10:07:19.227Z</time></trkpt><trkpt lat="43.5153683" lon="11.317485"><ele>293.0</ele><time>2026-03-22T10:07:20.227Z</time></trkpt><trkpt lat="43.5154183" lon="11.317355"><ele>293.0</ele><time>2026-03-22T10:07:21.227Z</time></trkpt><trkpt lat="43.51546" lon="11.3172233"><ele>293.0</ele><time>2026-03-22T10:07:22.227Z</time></trkpt><trkpt lat="43.5154917" lon="11.31709"><ele>293.0</ele><time>2026-03-22T10:07:23.228Z</time></trkpt><trkpt lat="43.5155183" lon="11.3169567"><ele>292.8</ele><time>2026-03-22T10:07:24.228Z</time></trkpt><trkpt lat="43.515545" lon="11.3168217"><ele>292.6</ele><time>2026-03-22T10:07:25.226Z</time></trkpt><trkpt lat="43.5155717" lon="11.3166917"><ele>292.4</ele><time>2026-03-22T10:07:26.227Z</time></trkpt><trkpt lat="43.51561" lon="11.3165717"><ele>292.2</ele><time>2026-03-22T10:07:27.228Z</time></trkpt><trkpt lat="43.5156617" lon="11.3164567"><ele>292.0</ele><time>2026-03-22T10:07:28.226Z</time></trkpt><trkpt lat="43.5157233" lon="11.3163583"><ele>292.0</ele><time>2026-03-22T10:07:29.226Z</time></trkpt><trkpt lat="43.51579" lon="11.31626"><ele>292.0</ele><time>2026-03-22T10:07:30.226Z</time></trkpt><trkpt lat="43.515855" lon="11.3161667"><ele>292.0</ele><time>2026-03-22T10:07:31.228Z</time></trkpt><trkpt lat="43.5159283" lon="11.3160833"><ele>292.0</ele><time>2026-03-22T10:07:32.227Z</time></trkpt><trkpt lat="43.5160033" lon="11.3160067"><ele>292.0</ele><time>2026-03-22T10:07:33.227Z</time></trkpt><trkpt lat="43.5160767" lon="11.31593"><ele>292.0</ele><time>2026-03-22T10:07:34.226Z</time></trkpt><trkpt lat="43.5161483" lon="11.3158533"><ele>292.0</ele><time>2026-03-22T10:07:35.227Z</time></trkpt><trkpt lat="43.5162167" lon="11.3157717"><ele>292.0</ele><time>2026-03-22T10:07:36.227Z</time></trkpt><trkpt lat="43.5162783" lon="11.315685"><ele>292.0</ele><time>2026-03-22T10:07:37.227Z</time></trkpt><trkpt lat="43.5163317" lon="11.3155817"><ele>292.0</ele><time>2026-03-22T10:07:38.227Z</time></trkpt><trkpt lat="43.5163817" lon="11.315475"><ele>292.66666666666663</ele><time>2026-03-22T10:07:39.226Z</time></trkpt><trkpt lat="43.5164283" lon="11.3153683"><ele>293.3333333333333</ele><time>2026-03-22T10:07:40.225Z</time></trkpt><trkpt lat="43.51647" lon="11.3152667"><ele>294.0</ele><time>2026-03-22T10:07:41.226Z</time></trkpt><trkpt lat="43.51651" lon="11.3151667"><ele>294.6666666666667</ele><time>2026-03-22T10:07:42.227Z</time></trkpt><trkpt lat="43.5165467" lon="11.31506"><ele>295.33333333333337</ele><time>2026-03-22T10:07:43.227Z</time></trkpt><trkpt lat="43.516585" lon="11.3149567"><ele>296.0</ele><time>2026-03-22T10:07:44.226Z</time></trkpt><trkpt lat="43.5166133" lon="11.3148483"><ele>296.0</ele><time>2026-03-22T10:07:45.226Z</time></trkpt><trkpt lat="43.5166333" lon="11.3147383"><ele>296.0</ele><time>2026-03-22T10:07:46.226Z</time></trkpt><trkpt lat="43.51664" lon="11.314625"><ele>296.0</ele><time>2026-03-22T10:07:47.228Z</time></trkpt><trkpt lat="43.5166383" lon="11.3145083"><ele>296.0</ele><time>2026-03-22T10:07:48.229Z</time></trkpt><trkpt lat="43.5166417" lon="11.3143983"><ele>296.0</ele><time>2026-03-22T10:07:49.226Z</time></trkpt><trkpt lat="43.51664" lon="11.3142867"><ele>296.0</ele><time>2026-03-22T10:07:50.227Z</time></trkpt><trkpt lat="43.516625" lon="11.3141667"><ele>296.0</ele><time>2026-03-22T10:07:51.226Z</time></trkpt><trkpt lat="43.5166117" lon="11.31403"><ele>296.0</ele><time>2026-03-22T10:07:52.225Z</time></trkpt><trkpt lat="43.5166033" lon="11.3138933"><ele>296.0</ele><time>2026-03-22T10:07:53.225Z</time></trkpt><trkpt lat="43.5165983" lon="11.313755"><ele>296.0</ele><time>2026-03-22T10:07:54.224Z</time></trkpt><trkpt lat="43.5165933" lon="11.313615"><ele>296.0</ele><time>2026-03-22T10:07:55.226Z</time></trkpt><trkpt lat="43.5165833" lon="11.3134783"><ele>296.0</ele><time>2026-03-22T10:07:56.226Z</time></trkpt><trkpt lat="43.5165767" lon="11.313335"><ele>296.0</ele><time>2026-03-22T10:07:57.223Z</time></trkpt><trkpt lat="43.5165783" lon="11.3131983"><ele>296.0</ele><time>2026-03-22T10:07:58.227Z</time></trkpt><trkpt lat="43.516575" lon="11.31306"><ele>296.0</ele><time>2026-03-22T10:07:59.225Z</time></trkpt><trkpt lat="43.516585" lon="11.312925"><ele>296.0</ele><time>2026-03-22T10:08:00.226Z</time></trkpt><trkpt lat="43.516605" lon="11.3127967"><ele>294.40000000000003</ele><time>2026-03-22T10:08:01.229Z</time></trkpt><trkpt lat="43.5166467" lon="11.3126683"><ele>292.8</ele><time>2026-03-22T10:08:02.227Z</time></trkpt><trkpt lat="43.5167133" lon="11.312555"><ele>291.20000000000005</ele><time>2026-03-22T10:08:03.225Z</time></trkpt><trkpt lat="43.5167983" lon="11.3124617"><ele>289.6</ele><time>2026-03-22T10:08:04.226Z</time></trkpt><trkpt lat="43.5168883" lon="11.3123867"><ele>288.0</ele><time>2026-03-22T10:08:05.229Z</time></trkpt><trkpt lat="43.5169933" lon="11.312335"><ele>287.2</ele><time>2026-03-22T10:08:06.226Z</time></trkpt><trkpt lat="43.5170983" lon="11.3122933"><ele>286.4</ele><time>2026-03-22T10:08:07.226Z</time></trkpt><trkpt lat="43.5172033" lon="11.3122483"><ele>285.59999999999997</ele><time>2026-03-22T10:08:08.227Z</time></trkpt><trkpt lat="43.5173067" lon="11.312195"><ele>284.8</ele><time>2026-03-22T10:08:09.226Z</time></trkpt><trkpt lat="43.5174083" lon="11.3121517"><ele>284.0</ele><time>2026-03-22T10:08:10.226Z</time></trkpt><trkpt lat="43.5175067" lon="11.31211"><ele>284.0</ele><time>2026-03-22T10:08:11.226Z</time></trkpt><trkpt lat="43.5176133" lon="11.312065"><ele>284.0</ele><time>2026-03-22T10:08:12.228Z</time></trkpt><trkpt lat="43.51772" lon="11.3120167"><ele>284.0</ele><time>2026-03-22T10:08:13.227Z</time></trkpt><trkpt lat="43.5178217" lon="11.31197"><ele>284.0</ele><time>2026-03-22T10:08:14.228Z</time></trkpt><trkpt lat="43.517925" lon="11.311925"><ele>284.0</ele><time>2026-03-22T10:08:15.226Z</time></trkpt><trkpt lat="43.518025" lon="11.3118833"><ele>284.4</ele><time>2026-03-22T10:08:16.225Z</time></trkpt><trkpt lat="43.51812" lon="11.3118383"><ele>284.79999999999995</ele><time>2026-03-22T10:08:17.227Z</time></trkpt><trkpt lat="43.5182183" lon="11.3117933"><ele>285.20000000000005</ele><time>2026-03-22T10:08:18.229Z</time></trkpt><trkpt lat="43.51832" lon="11.3117467"><ele>285.6</ele><time>2026-03-22T10:08:19.229Z</time></trkpt><trkpt lat="43.5184217" lon="11.3117033"><ele>286.0</ele><time>2026-03-22T10:08:20.228Z</time></trkpt><trkpt lat="43.518525" lon="11.3116667"><ele>286.0</ele><time>2026-03-22T10:08:21.226Z</time></trkpt><trkpt lat="43.5186333" lon="11.3116383"><ele>286.0</ele><time>2026-03-22T10:08:22.228Z</time></trkpt><trkpt lat="43.5187417" lon="11.311615"><ele>286.0</ele><time>2026-03-22T10:08:23.227Z</time></trkpt><trkpt lat="43.5188467" lon="11.3116033"><ele>286.0</ele><time>2026-03-22T10:08:24.227Z</time></trkpt><trkpt lat="43.51895" lon="11.3116067"><ele>286.0</ele><time>2026-03-22T10:08:25.227Z</time></trkpt><trkpt lat="43.51905" lon="11.3116283"><ele>285.8</ele><time>2026-03-22T10:08:26.229Z</time></trkpt><trkpt lat="43.5191467" lon="11.311655"><ele>285.6</ele><time>2026-03-22T10:08:27.226Z</time></trkpt><trkpt lat="43.51924" lon="11.311695"><ele>285.4</ele><time>2026-03-22T10:08:28.226Z</time></trkpt><trkpt lat="43.51933" lon="11.31172"><ele>285.2</ele><time>2026-03-22T10:08:29.228Z</time></trkpt><trkpt lat="43.5194167" lon="11.3117533"><ele>285.0</ele><time>2026-03-22T10:08:30.227Z</time></trkpt><trkpt lat="43.5194983" lon="11.3117867"><ele>285.5</ele><time>2026-03-22T10:08:31.227Z</time></trkpt><trkpt lat="43.5195833" lon="11.3118267"><ele>286.0</ele><time>2026-03-22T10:08:32.226Z</time></trkpt><trkpt lat="43.5196667" lon="11.3118533"><ele>286.5</ele><time>2026-03-22T10:08:33.228Z</time></trkpt><trkpt lat="43.51975" lon="11.3118717"><ele>287.0</ele><time>2026-03-22T10:08:34.228Z</time></trkpt><trkpt lat="43.519835" lon="11.3118833"><ele>287.5</ele><time>2026-03-22T10:08:35.229Z</time></trkpt><trkpt lat="43.519915" lon="11.3118717"><ele>288.0</ele><time>2026-03-22T10:08:36.228Z</time></trkpt><trkpt lat="43.5199867" lon="11.3118467"><ele>288.0</ele><time>2026-03-22T10:08:37.226Z</time></trkpt><trkpt lat="43.5200533" lon="11.3118067"><ele>288.0</ele><time>2026-03-22T10:08:38.227Z</time></trkpt><trkpt lat="43.5201117" lon="11.3117567"><ele>288.0</ele><time>2026-03-22T10:08:39.227Z</time></trkpt><trkpt lat="43.5202017" lon="11.3116367"><ele>288.0</ele><time>2026-03-22T10:08:41.227Z</time></trkpt><trkpt lat="43.5202267" lon="11.3115483"><ele>288.0</ele><time>2026-03-22T10:08:42.227Z</time></trkpt><trkpt lat="43.520245" lon="11.3114633"><ele>288.0</ele><time>2026-03-22T10:08:43.228Z</time></trkpt><trkpt lat="43.5202533" lon="11.3113667"><ele>287.6666666666667</ele><time>2026-03-22T10:08:44.226Z</time></trkpt><trkpt lat="43.5202533" lon="11.3112717"><ele>287.3333333333333</ele><time>2026-03-22T10:08:45.226Z</time></trkpt><trkpt lat="43.520255" lon="11.3111717"><ele>287.0</ele><time>2026-03-22T10:08:46.226Z</time></trkpt><trkpt lat="43.5202567" lon="11.3110767"><ele>286.66666666666663</ele><time>2026-03-22T10:08:47.228Z</time></trkpt><trkpt lat="43.5202567" lon="11.3109883"><ele>286.3333333333333</ele><time>2026-03-22T10:08:48.227Z</time></trkpt><trkpt lat="43.520255" lon="11.310815"><ele>286.0</ele><time>2026-03-22T10:08:50.226Z</time></trkpt><trkpt lat="43.5202517" lon="11.3106483"><ele>286.2</ele><time>2026-03-22T10:08:52.226Z</time></trkpt><trkpt lat="43.5202483" lon="11.31049"><ele>286.40000000000003</ele><time>2026-03-22T10:08:54.226Z</time></trkpt><trkpt lat="43.52024" lon="11.310355"><ele>286.6</ele><time>2026-03-22T10:08:56.227Z</time></trkpt><trkpt lat="43.5202383" lon="11.3102183"><ele>286.8</ele><time>2026-03-22T10:08:58.226Z</time></trkpt><trkpt lat="43.5202417" lon="11.3100817"><ele>287.0</ele><time>2026-03-22T10:09:00.228Z</time></trkpt><trkpt lat="43.5202417" lon="11.3099383"><ele>287.0</ele><time>2026-03-22T10:09:02.228Z</time></trkpt><trkpt lat="43.5202417" lon="11.3098"><ele>287.0</ele><time>2026-03-22T10:09:04.226Z</time></trkpt><trkpt lat="43.520235" lon="11.3096617"><ele>287.0</ele><time>2026-03-22T10:09:06.226Z</time></trkpt><trkpt lat="43.5202317" lon="11.3095283"><ele>287.0</ele><time>2026-03-22T10:09:08.227Z</time></trkpt><trkpt lat="43.5202267" lon="11.3094"><ele>287.0</ele><time>2026-03-22T10:09:10.226Z</time></trkpt><trkpt lat="43.5202067" lon="11.3092883"><ele>288.0</ele><time>2026-03-22T10:09:12.226Z</time></trkpt><trkpt lat="43.5201833" lon="11.3091733"><ele>289.0</ele><time>2026-03-22T10:09:14.223Z</time></trkpt><trkpt lat="43.52017" lon="11.3090567"><ele>290.0</ele><time>2026-03-22T10:09:16.225Z</time></trkpt><trkpt lat="43.5201717" lon="11.3089417"><ele>291.0</ele><time>2026-03-22T10:09:18.225Z</time></trkpt><trkpt lat="43.5202017" lon="11.3088417"><ele>292.0</ele><time>2026-03-22T10:09:20.225Z</time></trkpt><trkpt lat="43.52024" lon="11.3087383"><ele>293.0</ele><time>2026-03-22T10:09:22.224Z</time></trkpt><trkpt lat="43.5202767" lon="11.3086433"><ele>293.33333333333337</ele><time>2026-03-22T10:09:24.226Z</time></trkpt><trkpt lat="43.5203117" lon="11.3085517"><ele>293.6666666666667</ele><time>2026-03-22T10:09:26.225Z</time></trkpt><trkpt lat="43.52035" lon="11.3084483"><ele>294.0</ele><time>2026-03-22T10:09:28.223Z</time></trkpt><trkpt lat="43.5203867" lon="11.3083483"><ele>294.3333333333333</ele><time>2026-03-22T10:09:30.226Z</time></trkpt><trkpt lat="43.5204217" lon="11.308245"><ele>294.66666666666663</ele><time>2026-03-22T10:09:32.226Z</time></trkpt><trkpt lat="43.520455" lon="11.3081433"><ele>295.0</ele><time>2026-03-22T10:09:34.225Z</time></trkpt><trkpt lat="43.5204967" lon="11.3080467"><ele>296.5714285714286</ele><time>2026-03-22T10:09:36.223Z</time></trkpt><trkpt lat="43.5205317" lon="11.3079533"><ele>298.14285714285717</ele><time>2026-03-22T10:09:38.225Z</time></trkpt><trkpt lat="43.52056" lon="11.3078633"><ele>299.7142857142857</ele><time>2026-03-22T10:09:40.225Z</time></trkpt><trkpt lat="43.5205983" lon="11.3077717"><ele>301.28571428571433</ele><time>2026-03-22T10:09:42.227Z</time></trkpt><trkpt lat="43.5206483" lon="11.3076917"><ele>302.8571428571429</ele><time>2026-03-22T10:09:44.223Z</time></trkpt><trkpt lat="43.5207067" lon="11.3076433"><ele>304.42857142857144</ele><time>2026-03-22T10:09:46.225Z</time></trkpt><trkpt lat="43.5207767" lon="11.3076233"><ele>306.0</ele><time>2026-03-22T10:09:48.226Z</time></trkpt><trkpt lat="43.5208517" lon="11.3076167"><ele>306.0</ele><time>2026-03-22T10:09:50.224Z</time></trkpt><trkpt lat="43.5209283" lon="11.3076033"><ele>306.0</ele><time>2026-03-22T10:09:52.223Z</time></trkpt><trkpt lat="43.5210083" lon="11.3075883"><ele>306.0</ele><time>2026-03-22T10:09:54.226Z</time></trkpt><trkpt lat="43.5210783" lon="11.3075417"><ele>306.0</ele><time>2026-03-22T10:09:56.225Z</time></trkpt><trkpt lat="43.5211333" lon="11.307465"><ele>306.0</ele><time>2026-03-22T10:09:58.223Z</time></trkpt><trkpt lat="43.5211717" lon="11.3073733"><ele>306.0</ele><time>2026-03-22T10:10:00.227Z</time></trkpt><trkpt lat="43.5211967" lon="11.3072617"><ele>305.8333333333333</ele><time>2026-03-22T10:10:02.227Z</time></trkpt><trkpt lat="43.5211983" lon="11.307155"><ele>305.6666666666667</ele><time>2026-03-22T10:10:04.226Z</time></trkpt><trkpt lat="43.52119" lon="11.3070433"><ele>305.5</ele><time>2026-03-22T10:10:06.223Z</time></trkpt><trkpt lat="43.5211817" lon="11.3069317"><ele>305.33333333333337</ele><time>2026-03-22T10:10:08.225Z</time></trkpt><trkpt lat="43.5211783" lon="11.3068283"><ele>305.1666666666667</ele><time>2026-03-22T10:10:10.225Z</time></trkpt><trkpt lat="43.52117" lon="11.3067183"><ele>305.0</ele><time>2026-03-22T10:10:12.224Z</time></trkpt><trkpt lat="43.5211617" lon="11.30662"><ele>305.0</ele><time>2026-03-22T10:10:14.225Z</time></trkpt><trkpt lat="43.5211517" lon="11.3065283"><ele>305.0</ele><time>2026-03-22T10:10:16.225Z</time></trkpt><trkpt lat="43.52114" lon="11.3064267"><ele>305.0</ele><time>2026-03-22T10:10:18.227Z</time></trkpt><trkpt lat="43.5211317" lon="11.3063267"><ele>305.0</ele><time>2026-03-22T10:10:20.223Z</time></trkpt><trkpt lat="43.5211183" lon="11.3062333"><ele>305.0</ele><time>2026-03-22T10:10:22.224Z</time></trkpt><trkpt lat="43.5211133" lon="11.3061367"><ele>305.0</ele><time>2026-03-22T10:10:24.227Z</time></trkpt><trkpt lat="43.5211117" lon="11.3060333"><ele>305.0</ele><time>2026-03-22T10:10:26.225Z</time></trkpt><trkpt lat="43.5211067" lon="11.305935"><ele>305.14285714285717</ele><time>2026-03-22T10:10:28.224Z</time></trkpt><trkpt lat="43.5211017" lon="11.305825"><ele>305.2857142857143</ele><time>2026-03-22T10:10:30.226Z</time></trkpt><trkpt lat="43.52109" lon="11.305725"><ele>305.42857142857144</ele><time>2026-03-22T10:10:32.229Z</time></trkpt><trkpt lat="43.5210867" lon="11.30562"><ele>305.57142857142856</ele><time>2026-03-22T10:10:34.225Z</time></trkpt><trkpt lat="43.521085" lon="11.3055233"><ele>305.7142857142857</ele><time>2026-03-22T10:10:36.224Z</time></trkpt><trkpt lat="43.5210967" lon="11.30543"><ele>305.85714285714283</ele><time>2026-03-22T10:10:38.227Z</time></trkpt><trkpt lat="43.5211217" lon="11.3053367"><ele>306.0</ele><time>2026-03-22T10:10:40.225Z</time></trkpt><trkpt lat="43.5211667" lon="11.30526"><ele>306.0</ele><time>2026-03-22T10:10:42.224Z</time></trkpt><trkpt lat="43.5212133" lon="11.3051883"><ele>306.0</ele><time>2026-03-22T10:10:44.224Z</time></trkpt><trkpt lat="43.52127" lon="11.3051283"><ele>306.0</ele><time>2026-03-22T10:10:46.223Z</time></trkpt><trkpt lat="43.52134" lon="11.3051"><ele>306.0</ele><time>2026-03-22T10:10:48.224Z</time></trkpt><trkpt lat="43.5214217" lon="11.3050817"><ele>306.0</ele><time>2026-03-22T10:10:50.223Z</time></trkpt><trkpt lat="43.5215017" lon="11.3050767"><ele>306.0</ele><time>2026-03-22T10:10:52.223Z</time></trkpt><trkpt lat="43.52158" lon="11.30507"><ele>307.42857142857144</ele><time>2026-03-22T10:10:54.223Z</time></trkpt><trkpt lat="43.5216583" lon="11.30506"><ele>308.8571428571429</ele><time>2026-03-22T10:10:56.224Z</time></trkpt><trkpt lat="43.5217267" lon="11.3050467"><ele>310.28571428571433</ele><time>2026-03-22T10:10:58.223Z</time></trkpt><trkpt lat="43.5217967" lon="11.305045"><ele>311.7142857142857</ele><time>2026-03-22T10:11:00.225Z</time></trkpt><trkpt lat="43.5218633" lon="11.3050583"><ele>313.14285714285717</ele><time>2026-03-22T10:11:02.225Z</time></trkpt><trkpt lat="43.5219383" lon="11.3050817"><ele>314.5714285714286</ele><time>2026-03-22T10:11:04.225Z</time></trkpt><trkpt lat="43.5220117" lon="11.3050883"><ele>316.0</ele><time>2026-03-22T10:11:06.224Z</time></trkpt><trkpt lat="43.522085" lon="11.3050983"><ele>316.7142857142857</ele><time>2026-03-22T10:11:08.226Z</time></trkpt><trkpt lat="43.5221567" lon="11.3051183"><ele>317.42857142857144</ele><time>2026-03-22T10:11:10.225Z</time></trkpt><trkpt lat="43.5222283" lon="11.3051383"><ele>318.1428571428571</ele><time>2026-03-22T10:11:12.224Z</time></trkpt><trkpt lat="43.5222983" lon="11.30516"><ele>318.8571428571429</ele><time>2026-03-22T10:11:14.224Z</time></trkpt><trkpt lat="43.5223717" lon="11.305195"><ele>319.57142857142856</ele><time>2026-03-22T10:11:16.223Z</time></trkpt><trkpt lat="43.5224417" lon="11.305245"><ele>320.2857142857143</ele><time>2026-03-22T10:11:18.223Z</time></trkpt><trkpt lat="43.522505" lon="11.3052917"><ele>321.0</ele><time>2026-03-22T10:11:20.223Z</time></trkpt><trkpt lat="43.5225667" lon="11.3053383"><ele>320.99999999999994</ele><time>2026-03-22T10:11:22.224Z</time></trkpt><trkpt lat="43.5226267" lon="11.3053883"><ele>321.0</ele><time>2026-03-22T10:11:24.223Z</time></trkpt><trkpt lat="43.5226883" lon="11.3054333"><ele>321.0</ele><time>2026-03-22T10:11:26.224Z</time></trkpt><trkpt lat="43.52275" lon="11.3054817"><ele>321.0</ele><time>2026-03-22T10:11:28.223Z</time></trkpt><trkpt lat="43.5228083" lon="11.305525"><ele>321.0</ele><time>2026-03-22T10:11:30.225Z</time></trkpt><trkpt lat="43.5228683" lon="11.305565"><ele>320.99999999999994</ele><time>2026-03-22T10:11:32.226Z</time></trkpt><trkpt lat="43.5229367" lon="11.3056033"><ele>321.0</ele><time>2026-03-22T10:11:34.223Z</time></trkpt><trkpt lat="43.5229967" lon="11.3056317"><ele>323.5</ele><time>2026-03-22T10:11:36.224Z</time></trkpt><trkpt lat="43.5230617" lon="11.3056533"><ele>326.0</ele><time>2026-03-22T10:11:38.225Z</time></trkpt><trkpt lat="43.5231433" lon="11.3056733"><ele>328.5</ele><time>2026-03-22T10:11:41.226Z</time></trkpt><trkpt lat="43.5232383" lon="11.3057033"><ele>331.0</ele><time>2026-03-22T10:11:44.226Z</time></trkpt><trkpt lat="43.523315" lon="11.3057267"><ele>333.5</ele><time>2026-03-22T10:11:46.224Z</time></trkpt><trkpt lat="43.5233983" lon="11.30575"><ele>336.0</ele><time>2026-03-22T10:11:48.223Z</time></trkpt><trkpt lat="43.5234717" lon="11.3057633"><ele>336.0</ele><time>2026-03-22T10:11:50.221Z</time></trkpt><trkpt lat="43.5235417" lon="11.3057783"><ele>336.0</ele><time>2026-03-22T10:11:52.224Z</time></trkpt><trkpt lat="43.5236133" lon="11.3058"><ele>336.0</ele><time>2026-03-22T10:11:54.224Z</time></trkpt><trkpt lat="43.5237083" lon="11.3058217"><ele>336.0</ele><time>2026-03-22T10:11:56.224Z</time></trkpt><trkpt lat="43.5237833" lon="11.3058467"><ele>336.0</ele><time>2026-03-22T10:11:58.222Z</time></trkpt><trkpt lat="43.5238467" lon="11.30588"><ele>336.0</ele><time>2026-03-22T10:12:00.223Z</time></trkpt><trkpt lat="43.5239167" lon="11.3059083"><ele>336.1666666666667</ele><time>2026-03-22T10:12:02.224Z</time></trkpt><trkpt lat="43.5239967" lon="11.3059233"><ele>336.3333333333333</ele><time>2026-03-22T10:12:04.223Z</time></trkpt><trkpt lat="43.5240733" lon="11.3059433"><ele>336.5</ele><time>2026-03-22T10:12:06.222Z</time></trkpt><trkpt lat="43.5241683" lon="11.305965"><ele>336.66666666666663</ele><time>2026-03-22T10:12:09.225Z</time></trkpt><trkpt lat="43.5242383" lon="11.3059783"><ele>336.8333333333333</ele><time>2026-03-22T10:12:11.226Z</time></trkpt><trkpt lat="43.5243083" lon="11.3059917"><ele>337.0</ele><time>2026-03-22T10:12:13.225Z</time></trkpt><trkpt lat="43.524385" lon="11.3060117"><ele>337.0</ele><time>2026-03-22T10:12:15.226Z</time></trkpt><trkpt lat="43.5244683" lon="11.3060383"><ele>337.0</ele><time>2026-03-22T10:12:17.226Z</time></trkpt><trkpt lat="43.5245633" lon="11.3060517"><ele>337.0</ele><time>2026-03-22T10:12:19.224Z</time></trkpt><trkpt lat="43.5246583" lon="11.3060683"><ele>337.0</ele><time>2026-03-22T10:12:21.224Z</time></trkpt><trkpt lat="43.5247483" lon="11.3060983"><ele>337.0</ele><time>2026-03-22T10:12:23.225Z</time></trkpt><trkpt lat="43.5248417" lon="11.306125"><ele>337.16666666666663</ele><time>2026-03-22T10:12:25.226Z</time></trkpt><trkpt lat="43.5249267" lon="11.30615"><ele>337.3333333333333</ele><time>2026-03-22T10:12:27.224Z</time></trkpt><trkpt lat="43.525" lon="11.3061733"><ele>337.5</ele><time>2026-03-22T10:12:29.227Z</time></trkpt><trkpt lat="43.5250767" lon="11.3061983"><ele>337.6666666666667</ele><time>2026-03-22T10:12:31.226Z</time></trkpt><trkpt lat="43.525155" lon="11.3062133"><ele>337.83333333333337</ele><time>2026-03-22T10:12:33.226Z</time></trkpt><trkpt lat="43.52524" lon="11.3062367"><ele>338.0</ele><time>2026-03-22T10:12:35.223Z</time></trkpt><trkpt lat="43.5253367" lon="11.3062633"><ele>339.5</ele><time>2026-03-22T10:12:37.226Z</time></trkpt><trkpt lat="43.52543" lon="11.3062833"><ele>341.0</ele><time>2026-03-22T10:12:39.227Z</time></trkpt><trkpt lat="43.5255133" lon="11.3062867"><ele>342.5</ele><time>2026-03-22T10:12:41.225Z</time></trkpt><trkpt lat="43.5255867" lon="11.3062583"><ele>344.0</ele><time>2026-03-22T10:12:43.225Z</time></trkpt><trkpt lat="43.5256617" lon="11.3062267"><ele>345.5</ele><time>2026-03-22T10:12:45.225Z</time></trkpt><trkpt lat="43.5257183" lon="11.306165"><ele>347.0</ele><time>2026-03-22T10:12:47.225Z</time></trkpt><trkpt lat="43.52578" lon="11.3060567"><ele>347.0</ele><time>2026-03-22T10:12:49.225Z</time></trkpt><trkpt lat="43.525805" lon="11.3059467"><ele>347.0</ele><time>2026-03-22T10:12:51.223Z</time></trkpt><trkpt lat="43.5257983" lon="11.3058383"><ele>347.0</ele><time>2026-03-22T10:12:53.226Z</time></trkpt><trkpt lat="43.5257767" lon="11.305725"><ele>347.0</ele><time>2026-03-22T10:12:55.226Z</time></trkpt><trkpt lat="43.5257417" lon="11.3056083"><ele>347.0</ele><time>2026-03-22T10:12:57.225Z</time></trkpt><trkpt lat="43.5257017" lon="11.305515"><ele>347.0</ele><time>2026-03-22T10:12:59.227Z</time></trkpt><trkpt lat="43.52566" lon="11.3054083"><ele>348.1666666666667</ele><time>2026-03-22T10:13:01.228Z</time></trkpt><trkpt lat="43.52562" lon="11.3053033"><ele>349.33333333333337</ele><time>2026-03-22T10:13:03.226Z</time></trkpt><trkpt lat="43.5255717" lon="11.3051967"><ele>350.5</ele><time>2026-03-22T10:13:05.225Z</time></trkpt><trkpt lat="43.52553" lon="11.305095"><ele>351.6666666666667</ele><time>2026-03-22T10:13:07.226Z</time></trkpt><trkpt lat="43.525485" lon="11.304995"><ele>352.8333333333333</ele><time>2026-03-22T10:13:09.227Z</time></trkpt><trkpt lat="43.5254433" lon="11.304895"><ele>354.0</ele><time>2026-03-22T10:13:11.228Z</time></trkpt><trkpt lat="43.5254017" lon="11.3047917"><ele>353.0</ele><time>2026-03-22T10:13:13.223Z</time></trkpt><trkpt lat="43.52535" lon="11.3046883"><ele>352.0</ele><time>2026-03-22T10:13:15.226Z</time></trkpt><trkpt lat="43.52531" lon="11.3045933"><ele>351.0</ele><time>2026-03-22T10:13:17.226Z</time></trkpt><trkpt lat="43.5252617" lon="11.3045017"><ele>350.0</ele><time>2026-03-22T10:13:19.225Z</time></trkpt><trkpt lat="43.5252167" lon="11.3044083"><ele>349.0</ele><time>2026-03-22T10:13:21.226Z</time></trkpt><trkpt lat="43.5251733" lon="11.304315"><ele>348.0</ele><time>2026-03-22T10:13:23.226Z</time></trkpt><trkpt lat="43.52513" lon="11.3042267"><ele>348.0</ele><time>2026-03-22T10:13:25.227Z</time></trkpt><trkpt lat="43.5250867" lon="11.30414"><ele>348.0</ele><time>2026-03-22T10:13:27.225Z</time></trkpt><trkpt lat="43.525035" lon="11.30406"><ele>348.0</ele><time>2026-03-22T10:13:29.227Z</time></trkpt><trkpt lat="43.52497" lon="11.3039933"><ele>348.0</ele><time>2026-03-22T10:13:31.227Z</time></trkpt><trkpt lat="43.5248983" lon="11.3039367"><ele>348.0</ele><time>2026-03-22T10:13:33.226Z</time></trkpt><trkpt lat="43.52482" lon="11.3039"><ele>348.0</ele><time>2026-03-22T10:13:35.227Z</time></trkpt><trkpt lat="43.52475" lon="11.303855"><ele>347.5</ele><time>2026-03-22T10:13:37.229Z</time></trkpt><trkpt lat="43.5246767" lon="11.30381"><ele>347.0</ele><time>2026-03-22T10:13:39.226Z</time></trkpt><trkpt lat="43.524605" lon="11.3037567"><ele>346.5</ele><time>2026-03-22T10:13:41.229Z</time></trkpt><trkpt lat="43.5245317" lon="11.3037067"><ele>346.0</ele><time>2026-03-22T10:13:43.226Z</time></trkpt><trkpt lat="43.524465" lon="11.3036417"><ele>345.5</ele><time>2026-03-22T10:13:45.226Z</time></trkpt><trkpt lat="43.5244167" lon="11.3035517"><ele>345.0</ele><time>2026-03-22T10:13:47.227Z</time></trkpt><trkpt lat="43.52439" lon="11.3034417"><ele>345.0</ele><time>2026-03-22T10:13:49.223Z</time></trkpt><trkpt lat="43.5243867" lon="11.3033367"><ele>345.0</ele><time>2026-03-22T10:13:51.224Z</time></trkpt><trkpt lat="43.524415" lon="11.303235"><ele>345.0</ele><time>2026-03-22T10:13:53.224Z</time></trkpt><trkpt lat="43.5244517" lon="11.3031417"><ele>345.0</ele><time>2026-03-22T10:13:55.224Z</time></trkpt><trkpt lat="43.524515" lon="11.3030567"><ele>345.0</ele><time>2026-03-22T10:13:57.223Z</time></trkpt><trkpt lat="43.5245783" lon="11.30299"><ele>345.0</ele><time>2026-03-22T10:13:59.226Z</time></trkpt><trkpt lat="43.5246417" lon="11.3029233"><ele>346.6666666666667</ele><time>2026-03-22T10:14:01.226Z</time></trkpt><trkpt lat="43.5247133" lon="11.3028683"><ele>348.3333333333333</ele><time>2026-03-22T10:14:03.226Z</time></trkpt><trkpt lat="43.5247933" lon="11.3028367"><ele>350.0</ele><time>2026-03-22T10:14:05.225Z</time></trkpt><trkpt lat="43.5248667" lon="11.302795"><ele>351.66666666666663</ele><time>2026-03-22T10:14:07.226Z</time></trkpt><trkpt lat="43.52495" lon="11.3027767"><ele>353.3333333333333</ele><time>2026-03-22T10:14:09.227Z</time></trkpt><trkpt lat="43.525025" lon="11.302765"><ele>355.0</ele><time>2026-03-22T10:14:11.225Z</time></trkpt><trkpt lat="43.5251033" lon="11.3027567"><ele>355.0</ele><time>2026-03-22T10:14:13.226Z</time></trkpt><trkpt lat="43.52518" lon="11.3027467"><ele>355.0</ele><time>2026-03-22T10:14:15.226Z</time></trkpt><trkpt lat="43.5252567" lon="11.3027333"><ele>355.0</ele><time>2026-03-22T10:14:17.226Z</time></trkpt><trkpt lat="43.52534" lon="11.3027167"><ele>355.0</ele><time>2026-03-22T10:14:19.225Z</time></trkpt><trkpt lat="43.5254167" lon="11.3026983"><ele>355.0</ele><time>2026-03-22T10:14:21.226Z</time></trkpt><trkpt lat="43.525565" lon="11.30268"><ele>356.57142857142856</ele><time>2026-03-22T10:14:25.226Z</time></trkpt><trkpt lat="43.5256217" lon="11.30262"><ele>358.14285714285717</ele><time>2026-03-22T10:14:27.225Z</time></trkpt><trkpt lat="43.5256567" lon="11.302535"><ele>359.7142857142857</ele><time>2026-03-22T10:14:29.225Z</time></trkpt><trkpt lat="43.5256767" lon="11.3024383"><ele>361.2857142857143</ele><time>2026-03-22T10:14:31.226Z</time></trkpt><trkpt lat="43.5256817" lon="11.3023333"><ele>362.8571428571429</ele><time>2026-03-22T10:14:33.227Z</time></trkpt><trkpt lat="43.5256783" lon="11.3022383"><ele>364.42857142857144</ele><time>2026-03-22T10:14:35.227Z</time></trkpt><trkpt lat="43.5256633" lon="11.3021417"><ele>366.0</ele><time>2026-03-22T10:14:37.226Z</time></trkpt><trkpt lat="43.5256317" lon="11.3020517"><ele>366.5</ele><time>2026-03-22T10:14:39.226Z</time></trkpt><trkpt lat="43.5255883" lon="11.3019617"><ele>367.0</ele><time>2026-03-22T10:14:41.227Z</time></trkpt><trkpt lat="43.5255367" lon="11.301875"><ele>367.5</ele><time>2026-03-22T10:14:43.225Z</time></trkpt><trkpt lat="43.52547" lon="11.301795"><ele>368.0</ele><time>2026-03-22T10:14:45.227Z</time></trkpt><trkpt lat="43.5253933" lon="11.3017183"><ele>368.5</ele><time>2026-03-22T10:14:47.226Z</time></trkpt><trkpt lat="43.525315" lon="11.301635"><ele>369.0</ele><time>2026-03-22T10:14:49.226Z</time></trkpt><trkpt lat="43.525245" lon="11.3015517"><ele>368.0</ele><time>2026-03-22T10:14:51.226Z</time></trkpt><trkpt lat="43.5251867" lon="11.301465"><ele>367.0</ele><time>2026-03-22T10:14:53.228Z</time></trkpt><trkpt lat="43.5251183" lon="11.3013867"><ele>366.0</ele><time>2026-03-22T10:14:55.228Z</time></trkpt><trkpt lat="43.52505" lon="11.3013067"><ele>365.0</ele><time>2026-03-22T10:14:57.228Z</time></trkpt><trkpt lat="43.5249867" lon="11.3012183"><ele>364.0</ele><time>2026-03-22T10:14:59.225Z</time></trkpt><trkpt lat="43.5249433" lon="11.3011183"><ele>363.0</ele><time>2026-03-22T10:15:01.227Z</time></trkpt><trkpt lat="43.5249133" lon="11.3010117"><ele>363.0</ele><time>2026-03-22T10:15:03.225Z</time></trkpt><trkpt lat="43.5249067" lon="11.3008967"><ele>363.0</ele><time>2026-03-22T10:15:05.225Z</time></trkpt><trkpt lat="43.5249233" lon="11.3007767"><ele>363.0</ele><time>2026-03-22T10:15:07.225Z</time></trkpt><trkpt lat="43.5249467" lon="11.3006667"><ele>363.0</ele><time>2026-03-22T10:15:09.224Z</time></trkpt><trkpt lat="43.524975" lon="11.3005567"><ele>363.0</ele><time>2026-03-22T10:15:11.224Z</time></trkpt><trkpt lat="43.5250067" lon="11.3004417"><ele>363.0</ele><time>2026-03-22T10:15:13.226Z</time></trkpt><trkpt lat="43.52504" lon="11.30033"><ele>363.1666666666667</ele><time>2026-03-22T10:15:15.223Z</time></trkpt><trkpt lat="43.5250733" lon="11.30022"><ele>363.3333333333333</ele><time>2026-03-22T10:15:17.221Z</time></trkpt><trkpt lat="43.5251067" lon="11.3000917"><ele>363.5</ele><time>2026-03-22T10:15:19.223Z</time></trkpt><trkpt lat="43.52513" lon="11.299995"><ele>363.66666666666663</ele><time>2026-03-22T10:15:21.222Z</time></trkpt><trkpt lat="43.5251817" lon="11.2999117"><ele>363.8333333333333</ele><time>2026-03-22T10:15:23.224Z</time></trkpt><trkpt lat="43.5252433" lon="11.299845"><ele>364.0</ele><time>2026-03-22T10:15:25.224Z</time></trkpt><trkpt lat="43.525325" lon="11.2997833"><ele>366.0</ele><time>2026-03-22T10:15:27.223Z</time></trkpt><trkpt lat="43.5254083" lon="11.299755"><ele>368.0</ele><time>2026-03-22T10:15:29.225Z</time></trkpt><trkpt lat="43.525645" lon="11.2997567"><ele>370.0</ele><time>2026-03-22T10:15:35.224Z</time></trkpt><trkpt lat="43.52572" lon="11.29976"><ele>372.0</ele><time>2026-03-22T10:15:37.227Z</time></trkpt><trkpt lat="43.5258067" lon="11.2997683"><ele>372.0</ele><time>2026-03-22T10:15:39.224Z</time></trkpt><trkpt lat="43.525895" lon="11.2997883"><ele>372.0</ele><time>2026-03-22T10:15:41.222Z</time></trkpt><trkpt lat="43.52598" lon="11.2998183"><ele>372.0</ele><time>2026-03-22T10:15:43.225Z</time></trkpt><trkpt lat="43.5260633" lon="11.2998667"><ele>372.0</ele><time>2026-03-22T10:15:45.226Z</time></trkpt><trkpt lat="43.52614" lon="11.2999117"><ele>372.0</ele><time>2026-03-22T10:15:47.223Z</time></trkpt><trkpt lat="43.5262167" lon="11.29999"><ele>372.0</ele><time>2026-03-22T10:15:50.225Z</time></trkpt><trkpt lat="43.5262617" lon="11.3000733"><ele>372.0</ele><time>2026-03-22T10:15:52.225Z</time></trkpt><trkpt lat="43.5262933" lon="11.300165"><ele>372.0</ele><time>2026-03-22T10:15:54.225Z</time></trkpt><trkpt lat="43.5263233" lon="11.3002483"><ele>372.0</ele><time>2026-03-22T10:15:56.224Z</time></trkpt><trkpt lat="43.5263533" lon="11.3003333"><ele>372.0</ele><time>2026-03-22T10:15:58.226Z</time></trkpt><trkpt lat="43.5263867" lon="11.3004283"><ele>372.0</ele><time>2026-03-22T10:16:00.227Z</time></trkpt><trkpt lat="43.526425" lon="11.3005317"><ele>372.0</ele><time>2026-03-22T10:16:02.225Z</time></trkpt><trkpt lat="43.52647" lon="11.30064"><ele>372.0</ele><time>2026-03-22T10:16:04.227Z</time></trkpt><trkpt lat="43.5265033" lon="11.3007267"><ele>372.0</ele><time>2026-03-22T10:16:06.226Z</time></trkpt><trkpt lat="43.5265283" lon="11.30082"><ele>372.0</ele><time>2026-03-22T10:16:08.227Z</time></trkpt><trkpt lat="43.5265533" lon="11.3009117"><ele>372.0</ele><time>2026-03-22T10:16:10.224Z</time></trkpt><trkpt lat="43.5265683" lon="11.30102"><ele>372.0</ele><time>2026-03-22T10:16:12.225Z</time></trkpt><trkpt lat="43.5265733" lon="11.3011367"><ele>372.0</ele><time>2026-03-22T10:16:14.225Z</time></trkpt><trkpt lat="43.5265783" lon="11.3012417"><ele>372.0</ele><time>2026-03-22T10:16:16.226Z</time></trkpt><trkpt lat="43.526585" lon="11.30134"><ele>372.0</ele><time>2026-03-22T10:16:18.224Z</time></trkpt><trkpt lat="43.526595" lon="11.30144"><ele>372.0</ele><time>2026-03-22T10:16:20.227Z</time></trkpt><trkpt lat="43.5266067" lon="11.3015617"><ele>372.0</ele><time>2026-03-22T10:16:22.225Z</time></trkpt><trkpt lat="43.5266133" lon="11.3016783"><ele>372.0</ele><time>2026-03-22T10:16:24.224Z</time></trkpt><trkpt lat="43.52662" lon="11.301795"><ele>372.0</ele><time>2026-03-22T10:16:26.224Z</time></trkpt><trkpt lat="43.5266333" lon="11.3019017"><ele>372.5</ele><time>2026-03-22T10:16:28.224Z</time></trkpt><trkpt lat="43.5266533" lon="11.302005"><ele>373.0</ele><time>2026-03-22T10:16:30.226Z</time></trkpt><trkpt lat="43.526675" lon="11.3021083"><ele>373.5</ele><time>2026-03-22T10:16:32.224Z</time></trkpt><trkpt lat="43.526705" lon="11.3022017"><ele>374.0</ele><time>2026-03-22T10:16:34.225Z</time></trkpt><trkpt lat="43.5267517" lon="11.3022883"><ele>374.5</ele><time>2026-03-22T10:16:36.225Z</time></trkpt><trkpt lat="43.5267983" lon="11.302375"><ele>375.0</ele><time>2026-03-22T10:16:38.226Z</time></trkpt><trkpt lat="43.5268533" lon="11.3024617"><ele>374.8333333333333</ele><time>2026-03-22T10:16:40.226Z</time></trkpt><trkpt lat="43.5269167" lon="11.3025433"><ele>374.6666666666667</ele><time>2026-03-22T10:16:42.226Z</time></trkpt><trkpt lat="43.5269733" lon="11.302625"><ele>374.5</ele><time>2026-03-22T10:16:44.227Z</time></trkpt><trkpt lat="43.5270417" lon="11.30271"><ele>374.33333333333337</ele><time>2026-03-22T10:16:46.225Z</time></trkpt><trkpt lat="43.5270967" lon="11.3027883"><ele>374.1666666666667</ele><time>2026-03-22T10:16:48.227Z</time></trkpt><trkpt lat="43.5271483" lon="11.30286"><ele>374.0</ele><time>2026-03-22T10:16:50.227Z</time></trkpt><trkpt lat="43.5272" lon="11.30294"><ele>374.0</ele><time>2026-03-22T10:16:52.226Z</time></trkpt><trkpt lat="43.52726" lon="11.303015"><ele>374.0</ele><time>2026-03-22T10:16:54.226Z</time></trkpt><trkpt lat="43.52733" lon="11.3030917"><ele>374.0</ele><time>2026-03-22T10:16:56.224Z</time></trkpt><trkpt lat="43.5273967" lon="11.3031417"><ele>374.0</ele><time>2026-03-22T10:16:58.225Z</time></trkpt><trkpt lat="43.5274767" lon="11.3031833"><ele>374.0</ele><time>2026-03-22T10:17:00.225Z</time></trkpt><trkpt lat="43.52757" lon="11.3032267"><ele>374.0</ele><time>2026-03-22T10:17:02.223Z</time></trkpt><trkpt lat="43.52765" lon="11.3032667"><ele>375.5</ele><time>2026-03-22T10:17:04.226Z</time></trkpt><trkpt lat="43.5277317" lon="11.3032983"><ele>377.0</ele><time>2026-03-22T10:17:06.227Z</time></trkpt><trkpt lat="43.5278133" lon="11.303345"><ele>378.5</ele><time>2026-03-22T10:17:08.226Z</time></trkpt><trkpt lat="43.52787" lon="11.3034317"><ele>380.0</ele><time>2026-03-22T10:17:10.223Z</time></trkpt><trkpt lat="43.5279133" lon="11.3035183"><ele>381.5</ele><time>2026-03-22T10:17:12.229Z</time></trkpt><trkpt lat="43.5279567" lon="11.303615"><ele>383.0</ele><time>2026-03-22T10:17:14.226Z</time></trkpt><trkpt lat="43.5280017" lon="11.3037183"><ele>383.0</ele><time>2026-03-22T10:17:16.225Z</time></trkpt><trkpt lat="43.52805" lon="11.3038167"><ele>383.0</ele><time>2026-03-22T10:17:18.224Z</time></trkpt><trkpt lat="43.5281017" lon="11.3038983"><ele>383.0</ele><time>2026-03-22T10:17:20.225Z</time></trkpt><trkpt lat="43.5281583" lon="11.3039633"><ele>383.0</ele><time>2026-03-22T10:17:22.224Z</time></trkpt><trkpt lat="43.5282233" lon="11.304015"><ele>383.0</ele><time>2026-03-22T10:17:24.221Z</time></trkpt><trkpt lat="43.528305" lon="11.304045"><ele>383.0</ele><time>2026-03-22T10:17:26.222Z</time></trkpt><trkpt lat="43.5283867" lon="11.30405"><ele>383.0</ele><time>2026-03-22T10:17:28.223Z</time></trkpt><trkpt lat="43.5284667" lon="11.3040183"><ele>383.0</ele><time>2026-03-22T10:17:30.223Z</time></trkpt><trkpt lat="43.52855" lon="11.3039683"><ele>383.0</ele><time>2026-03-22T10:17:32.222Z</time></trkpt><trkpt lat="43.528635" lon="11.3039017"><ele>383.0</ele><time>2026-03-22T10:17:34.227Z</time></trkpt><trkpt lat="43.5287183" lon="11.30386"><ele>383.0</ele><time>2026-03-22T10:17:36.226Z</time></trkpt><trkpt lat="43.5288117" lon="11.3038367"><ele>383.33333333333337</ele><time>2026-03-22T10:17:38.226Z</time></trkpt><trkpt lat="43.528895" lon="11.3038317"><ele>383.6666666666667</ele><time>2026-03-22T10:17:40.226Z</time></trkpt><trkpt lat="43.5289833" lon="11.3038367"><ele>384.0</ele><time>2026-03-22T10:17:42.225Z</time></trkpt><trkpt lat="43.5290767" lon="11.3038767"><ele>384.33333333333337</ele><time>2026-03-22T10:17:44.225Z</time></trkpt><trkpt lat="43.52916" lon="11.303905"><ele>384.6666666666667</ele><time>2026-03-22T10:17:46.226Z</time></trkpt><trkpt lat="43.5292417" lon="11.3039183"><ele>385.0</ele><time>2026-03-22T10:17:48.226Z</time></trkpt><trkpt lat="43.5293183" lon="11.303935"><ele>388.00000000000006</ele><time>2026-03-22T10:17:50.229Z</time></trkpt><trkpt lat="43.5293917" lon="11.3039533"><ele>391.0</ele><time>2026-03-22T10:17:52.225Z</time></trkpt><trkpt lat="43.52947" lon="11.3039617"><ele>394.0</ele><time>2026-03-22T10:17:54.224Z</time></trkpt><trkpt lat="43.5295467" lon="11.3039667"><ele>397.0</ele><time>2026-03-22T10:17:56.227Z</time></trkpt><trkpt lat="43.5296333" lon="11.3039767"><ele>400.00000000000006</ele><time>2026-03-22T10:17:58.224Z</time></trkpt><trkpt lat="43.5297183" lon="11.30398"><ele>403.0</ele><time>2026-03-22T10:18:00.225Z</time></trkpt><trkpt lat="43.5298033" lon="11.3039617"><ele>403.6666666666667</ele><time>2026-03-22T10:18:02.226Z</time></trkpt><trkpt lat="43.5298833" lon="11.3039417"><ele>404.33333333333337</ele><time>2026-03-22T10:18:04.226Z</time></trkpt><trkpt lat="43.5299617" lon="11.3039183"><ele>405.0</ele><time>2026-03-22T10:18:06.227Z</time></trkpt><trkpt lat="43.5300383" lon="11.3038983"><ele>405.66666666666663</ele><time>2026-03-22T10:18:08.224Z</time></trkpt><trkpt lat="43.5301217" lon="11.3038867"><ele>406.3333333333333</ele><time>2026-03-22T10:18:10.226Z</time></trkpt><trkpt lat="43.53021" lon="11.3038833"><ele>407.0</ele><time>2026-03-22T10:18:12.227Z</time></trkpt><trkpt lat="43.5302967" lon="11.3038867"><ele>403.40000000000003</ele><time>2026-03-22T10:18:14.227Z</time></trkpt><trkpt lat="43.5303833" lon="11.3038833"><ele>399.8</ele><time>2026-03-22T10:18:16.225Z</time></trkpt><trkpt lat="43.53048" lon="11.303885"><ele>396.2</ele><time>2026-03-22T10:18:18.225Z</time></trkpt><trkpt lat="43.53057" lon="11.3038883"><ele>392.6</ele><time>2026-03-22T10:18:20.225Z</time></trkpt><trkpt lat="43.5306567" lon="11.3038967"><ele>389.0</ele><time>2026-03-22T10:18:22.224Z</time></trkpt><trkpt lat="43.5307483" lon="11.3039067"><ele>390.99999999999994</ele><time>2026-03-22T10:18:24.223Z</time></trkpt><trkpt lat="43.530835" lon="11.3039217"><ele>393.0</ele><time>2026-03-22T10:18:26.226Z</time></trkpt><trkpt lat="43.5309233" lon="11.3039483"><ele>395.0</ele><time>2026-03-22T10:18:28.226Z</time></trkpt><trkpt lat="43.5310117" lon="11.30398"><ele>397.0</ele><time>2026-03-22T10:18:30.224Z</time></trkpt><trkpt lat="43.5310883" lon="11.30403"><ele>398.99999999999994</ele><time>2026-03-22T10:18:32.226Z</time></trkpt><trkpt lat="43.531165" lon="11.3040833"><ele>401.0</ele><time>2026-03-22T10:18:34.227Z</time></trkpt><trkpt lat="43.53124" lon="11.30413"><ele>400.99999999999994</ele><time>2026-03-22T10:18:36.227Z</time></trkpt><trkpt lat="43.5313183" lon="11.3041833"><ele>401.0</ele><time>2026-03-22T10:18:38.224Z</time></trkpt><trkpt lat="43.5313917" lon="11.3042433"><ele>401.0</ele><time>2026-03-22T10:18:40.225Z</time></trkpt><trkpt lat="43.5314633" lon="11.3042967"><ele>401.0</ele><time>2026-03-22T10:18:42.226Z</time></trkpt><trkpt lat="43.5315317" lon="11.3043667"><ele>400.99999999999994</ele><time>2026-03-22T10:18:44.228Z</time></trkpt><trkpt lat="43.531605" lon="11.30445"><ele>401.0</ele><time>2026-03-22T10:18:46.224Z</time></trkpt><trkpt lat="43.53167" lon="11.3045333"><ele>400.99999999999994</ele><time>2026-03-22T10:18:48.223Z</time></trkpt><trkpt lat="43.5317283" lon="11.30462"><ele>401.0</ele><time>2026-03-22T10:18:50.224Z</time></trkpt><trkpt lat="43.531775" lon="11.3047167"><ele>401.0</ele><time>2026-03-22T10:18:52.222Z</time></trkpt><trkpt lat="43.5318183" lon="11.3048167"><ele>401.0</ele><time>2026-03-22T10:18:54.222Z</time></trkpt><trkpt lat="43.531855" lon="11.3049183"><ele>400.99999999999994</ele><time>2026-03-22T10:18:56.226Z</time></trkpt><trkpt lat="43.5318617" lon="11.30503"><ele>401.0</ele><time>2026-03-22T10:18:58.224Z</time></trkpt><trkpt lat="43.5318567" lon="11.3051533"><ele>403.3333333333333</ele><time>2026-03-22T10:19:00.225Z</time></trkpt><trkpt lat="43.531855" lon="11.3052717"><ele>405.66666666666663</ele><time>2026-03-22T10:19:02.225Z</time></trkpt><trkpt lat="43.53185" lon="11.3053933"><ele>408.0</ele><time>2026-03-22T10:19:04.225Z</time></trkpt><trkpt lat="43.53184" lon="11.3055167"><ele>410.33333333333337</ele><time>2026-03-22T10:19:06.226Z</time></trkpt><trkpt lat="43.5318333" lon="11.30564"><ele>412.6666666666667</ele><time>2026-03-22T10:19:08.224Z</time></trkpt><trkpt lat="43.5318267" lon="11.3057667"><ele>415.0</ele><time>2026-03-22T10:19:10.226Z</time></trkpt><trkpt lat="43.5318233" lon="11.3058867"><ele>415.83333333333337</ele><time>2026-03-22T10:19:12.226Z</time></trkpt><trkpt lat="43.5318267" lon="11.3059983"><ele>416.6666666666667</ele><time>2026-03-22T10:19:14.226Z</time></trkpt><trkpt lat="43.5318283" lon="11.3061183"><ele>417.5</ele><time>2026-03-22T10:19:16.224Z</time></trkpt><trkpt lat="43.5318283" lon="11.3062333"><ele>418.33333333333337</ele><time>2026-03-22T10:19:18.228Z</time></trkpt><trkpt lat="43.5318417" lon="11.3063467"><ele>419.1666666666667</ele><time>2026-03-22T10:19:20.226Z</time></trkpt><trkpt lat="43.5318567" lon="11.3064633"><ele>420.0</ele><time>2026-03-22T10:19:22.226Z</time></trkpt><trkpt lat="43.5318883" lon="11.3065833"><ele>421.0</ele><time>2026-03-22T10:19:24.226Z</time></trkpt><trkpt lat="43.5319183" lon="11.3066917"><ele>422.0</ele><time>2026-03-22T10:19:26.226Z</time></trkpt><trkpt lat="43.53196" lon="11.3068033"><ele>423.0</ele><time>2026-03-22T10:19:28.225Z</time></trkpt><trkpt lat="43.5320083" lon="11.30692"><ele>424.0</ele><time>2026-03-22T10:19:30.224Z</time></trkpt><trkpt lat="43.5320583" lon="11.3070267"><ele>425.0</ele><time>2026-03-22T10:19:32.227Z</time></trkpt><trkpt lat="43.5321083" lon="11.30714"><ele>422.2</ele><time>2026-03-22T10:19:34.226Z</time></trkpt><trkpt lat="43.53217" lon="11.3072517"><ele>419.4</ele><time>2026-03-22T10:19:36.228Z</time></trkpt><trkpt lat="43.5322233" lon="11.307365"><ele>416.6</ele><time>2026-03-22T10:19:38.227Z</time></trkpt><trkpt lat="43.53228" lon="11.3074783"><ele>413.8</ele><time>2026-03-22T10:19:40.226Z</time></trkpt><trkpt lat="43.532335" lon="11.3076"><ele>411.0</ele><time>2026-03-22T10:19:42.226Z</time></trkpt><trkpt lat="43.5323783" lon="11.30774"><ele>411.0</ele><time>2026-03-22T10:19:44.227Z</time></trkpt><trkpt lat="43.5324183" lon="11.307875"><ele>411.0</ele><time>2026-03-22T10:19:46.226Z</time></trkpt><trkpt lat="43.5324533" lon="11.3080083"><ele>411.0</ele><time>2026-03-22T10:19:48.226Z</time></trkpt><trkpt lat="43.5324883" lon="11.3081467"><ele>411.0</ele><time>2026-03-22T10:19:50.228Z</time></trkpt><trkpt lat="43.532525" lon="11.3082917"><ele>411.0</ele><time>2026-03-22T10:19:52.228Z</time></trkpt><trkpt lat="43.5325633" lon="11.30844"><ele>412.75</ele><time>2026-03-22T10:19:54.228Z</time></trkpt><trkpt lat="43.5326017" lon="11.3085867"><ele>414.5</ele><time>2026-03-22T10:19:56.226Z</time></trkpt><trkpt lat="43.5326533" lon="11.30872"><ele>416.25</ele><time>2026-03-22T10:19:58.226Z</time></trkpt><trkpt lat="43.5327217" lon="11.3088433"><ele>418.0</ele><time>2026-03-22T10:20:00.226Z</time></trkpt><trkpt lat="43.53281" lon="11.30895"><ele>418.0</ele><time>2026-03-22T10:20:02.227Z</time></trkpt><trkpt lat="43.5329117" lon="11.3090367"><ele>418.0</ele><time>2026-03-22T10:20:04.227Z</time></trkpt><trkpt lat="43.5330117" lon="11.3091283"><ele>418.0</ele><time>2026-03-22T10:20:06.226Z</time></trkpt><trkpt lat="43.5331067" lon="11.309215"><ele>418.0</ele><time>2026-03-22T10:20:08.229Z</time></trkpt><trkpt lat="43.5332067" lon="11.30931"><ele>418.0</ele><time>2026-03-22T10:20:10.226Z</time></trkpt><trkpt lat="43.5333067" lon="11.309405"><ele>418.0</ele><time>2026-03-22T10:20:12.226Z</time></trkpt><trkpt lat="43.5334" lon="11.3094983"><ele>418.0</ele><time>2026-03-22T10:20:14.227Z</time></trkpt><trkpt lat="43.533495" lon="11.30959"><ele>418.0</ele><time>2026-03-22T10:20:16.224Z</time></trkpt><trkpt lat="43.533585" lon="11.309685"><ele>418.0</ele><time>2026-03-22T10:20:18.224Z</time></trkpt><trkpt lat="43.533685" lon="11.3097717"><ele>418.0</ele><time>2026-03-22T10:20:20.225Z</time></trkpt><trkpt lat="43.533785" lon="11.3098567"><ele>418.0</ele><time>2026-03-22T10:20:22.223Z</time></trkpt><trkpt lat="43.53388" lon="11.30994"><ele>418.0</ele><time>2026-03-22T10:20:24.223Z</time></trkpt><trkpt lat="43.533985" lon="11.3100283"><ele>418.0</ele><time>2026-03-22T10:20:26.226Z</time></trkpt><trkpt lat="43.534075" lon="11.31012"><ele>418.0</ele><time>2026-03-22T10:20:28.225Z</time></trkpt><trkpt lat="43.5341267" lon="11.3101767"><ele>418.0</ele><time>2026-03-22T10:20:29.226Z</time></trkpt><trkpt lat="43.534175" lon="11.3102383"><ele>418.0</ele><time>2026-03-22T10:20:30.225Z</time></trkpt><trkpt lat="43.53425" lon="11.31036"><ele>418.0</ele><time>2026-03-22T10:20:32.225Z</time></trkpt><trkpt lat="43.534305" lon="11.3104967"><ele>420.0</ele><time>2026-03-22T10:20:34.226Z</time></trkpt><trkpt lat="43.5343483" lon="11.3106417"><ele>422.0</ele><time>2026-03-22T10:20:36.225Z</time></trkpt><trkpt lat="43.534375" lon="11.31078"><ele>423.99999999999994</ele><time>2026-03-22T10:20:38.226Z</time></trkpt><trkpt lat="43.5343933" lon="11.31093"><ele>426.0</ele><time>2026-03-22T10:20:40.226Z</time></trkpt><trkpt lat="43.5344067" lon="11.31108"><ele>428.0</ele><time>2026-03-22T10:20:42.225Z</time></trkpt><trkpt lat="43.534425" lon="11.311225"><ele>428.0</ele><time>2026-03-22T10:20:44.225Z</time></trkpt><trkpt lat="43.5344517" lon="11.3113633"><ele>427.99999999999994</ele><time>2026-03-22T10:20:46.225Z</time></trkpt><trkpt lat="43.5344817" lon="11.3114983"><ele>427.99999999999994</ele><time>2026-03-22T10:20:48.226Z</time></trkpt><trkpt lat="43.5345183" lon="11.3116383"><ele>428.0</ele><time>2026-03-22T10:20:50.226Z</time></trkpt><trkpt lat="43.534565" lon="11.311765"><ele>428.0</ele><time>2026-03-22T10:20:52.226Z</time></trkpt><trkpt lat="43.53462" lon="11.3118883"><ele>429.0</ele><time>2026-03-22T10:20:54.225Z</time></trkpt><trkpt lat="43.5346817" lon="11.312005"><ele>429.99999999999994</ele><time>2026-03-22T10:20:56.226Z</time></trkpt><trkpt lat="43.53476" lon="11.3121133"><ele>430.99999999999994</ele><time>2026-03-22T10:20:58.225Z</time></trkpt><trkpt lat="43.5348367" lon="11.3122217"><ele>432.0</ele><time>2026-03-22T10:21:00.225Z</time></trkpt><trkpt lat="43.5349117" lon="11.3123283"><ele>433.0</ele><time>2026-03-22T10:21:02.225Z</time></trkpt><trkpt lat="43.5349967" lon="11.3124467"><ele>433.0</ele><time>2026-03-22T10:21:04.225Z</time></trkpt><trkpt lat="43.5350767" lon="11.312565"><ele>432.99999999999994</ele><time>2026-03-22T10:21:06.226Z</time></trkpt><trkpt lat="43.535155" lon="11.3126717"><ele>432.99999999999994</ele><time>2026-03-22T10:21:08.225Z</time></trkpt><trkpt lat="43.5352317" lon="11.3127783"><ele>433.0</ele><time>2026-03-22T10:21:10.225Z</time></trkpt><trkpt lat="43.5353083" lon="11.3128733"><ele>433.0</ele><time>2026-03-22T10:21:12.225Z</time></trkpt><trkpt lat="43.5353967" lon="11.3129717"><ele>431.79999999999995</ele><time>2026-03-22T10:21:14.228Z</time></trkpt><trkpt lat="43.5354733" lon="11.3130733"><ele>430.59999999999997</ele><time>2026-03-22T10:21:16.225Z</time></trkpt><trkpt lat="43.5355517" lon="11.313175"><ele>429.40000000000003</ele><time>2026-03-22T10:21:18.226Z</time></trkpt><trkpt lat="43.5356317" lon="11.313275"><ele>428.20000000000005</ele><time>2026-03-22T10:21:20.226Z</time></trkpt><trkpt lat="43.5357117" lon="11.3133717"><ele>427.0</ele><time>2026-03-22T10:21:22.227Z</time></trkpt><trkpt lat="43.5357883" lon="11.3134817"><ele>427.0</ele><time>2026-03-22T10:21:24.226Z</time></trkpt><trkpt lat="43.535865" lon="11.3135933"><ele>427.00000000000006</ele><time>2026-03-22T10:21:26.225Z</time></trkpt><trkpt lat="43.5359383" lon="11.3137067"><ele>427.00000000000006</ele><time>2026-03-22T10:21:28.225Z</time></trkpt><trkpt lat="43.5360083" lon="11.3138067"><ele>427.0</ele><time>2026-03-22T10:21:30.227Z</time></trkpt><trkpt lat="43.5360783" lon="11.31391"><ele>427.0</ele><time>2026-03-22T10:21:32.226Z</time></trkpt><trkpt lat="43.53615" lon="11.3140183"><ele>427.8</ele><time>2026-03-22T10:21:34.225Z</time></trkpt><trkpt lat="43.536225" lon="11.3141317"><ele>428.6</ele><time>2026-03-22T10:21:36.226Z</time></trkpt><trkpt lat="43.5362967" lon="11.314245"><ele>429.40000000000003</ele><time>2026-03-22T10:21:38.226Z</time></trkpt><trkpt lat="43.5363583" lon="11.3143783"><ele>430.20000000000005</ele><time>2026-03-22T10:21:40.225Z</time></trkpt><trkpt lat="43.5364117" lon="11.3145167"><ele>431.0</ele><time>2026-03-22T10:21:42.226Z</time></trkpt><trkpt lat="43.5364617" lon="11.3146517"><ele>433.0</ele><time>2026-03-22T10:21:44.228Z</time></trkpt><trkpt lat="43.5365183" lon="11.3147867"><ele>435.0</ele><time>2026-03-22T10:21:46.225Z</time></trkpt><trkpt lat="43.5365783" lon="11.3149167"><ele>437.0</ele><time>2026-03-22T10:21:48.225Z</time></trkpt><trkpt lat="43.5366633" lon="11.3150317"><ele>439.0</ele><time>2026-03-22T10:21:50.226Z</time></trkpt><trkpt lat="43.5367517" lon="11.3151317"><ele>439.0</ele><time>2026-03-22T10:21:52.226Z</time></trkpt><trkpt lat="43.53684" lon="11.3152433"><ele>439.0</ele><time>2026-03-22T10:21:54.226Z</time></trkpt><trkpt lat="43.5369167" lon="11.3153517"><ele>439.0</ele><time>2026-03-22T10:21:56.226Z</time></trkpt><trkpt lat="43.5369917" lon="11.315455"><ele>439.0</ele><time>2026-03-22T10:21:58.226Z</time></trkpt><trkpt lat="43.5370667" lon="11.3155633"><ele>439.0</ele><time>2026-03-22T10:22:00.225Z</time></trkpt><trkpt lat="43.5371383" lon="11.315685"><ele>438.5</ele><time>2026-03-22T10:22:02.228Z</time></trkpt><trkpt lat="43.5372067" lon="11.3158233"><ele>438.0</ele><time>2026-03-22T10:22:04.225Z</time></trkpt><trkpt lat="43.5372833" lon="11.3159567"><ele>437.5</ele><time>2026-03-22T10:22:06.226Z</time></trkpt><trkpt lat="43.5373467" lon="11.316085"><ele>437.0</ele><time>2026-03-22T10:22:08.225Z</time></trkpt><trkpt lat="43.53741" lon="11.3162017"><ele>437.0</ele><time>2026-03-22T10:22:10.225Z</time></trkpt><trkpt lat="43.5374817" lon="11.316305"><ele>437.00000000000006</ele><time>2026-03-22T10:22:12.227Z</time></trkpt><trkpt lat="43.5375617" lon="11.3164033"><ele>437.00000000000006</ele><time>2026-03-22T10:22:14.226Z</time></trkpt><trkpt lat="43.53764" lon="11.316495"><ele>437.0</ele><time>2026-03-22T10:22:16.227Z</time></trkpt><trkpt lat="43.5377267" lon="11.31656"><ele>437.0</ele><time>2026-03-22T10:22:18.226Z</time></trkpt><trkpt lat="43.53783" lon="11.31662"><ele>438.75</ele><time>2026-03-22T10:22:20.227Z</time></trkpt><trkpt lat="43.537945" lon="11.3166733"><ele>440.5</ele><time>2026-03-22T10:22:22.226Z</time></trkpt><trkpt lat="43.538055" lon="11.3167267"><ele>442.25</ele><time>2026-03-22T10:22:24.226Z</time></trkpt><trkpt lat="43.53816" lon="11.31677"><ele>444.0</ele><time>2026-03-22T10:22:26.226Z</time></trkpt><trkpt lat="43.5382617" lon="11.3168133"><ele>444.0</ele><time>2026-03-22T10:22:28.225Z</time></trkpt><trkpt lat="43.5383567" lon="11.3168567"><ele>444.0</ele><time>2026-03-22T10:22:30.226Z</time></trkpt><trkpt lat="43.53845" lon="11.316905"><ele>444.0</ele><time>2026-03-22T10:22:32.227Z</time></trkpt><trkpt lat="43.538545" lon="11.3169367"><ele>444.0</ele><time>2026-03-22T10:22:34.226Z</time></trkpt><trkpt lat="43.53864" lon="11.3169583"><ele>444.0</ele><time>2026-03-22T10:22:36.226Z</time></trkpt><trkpt lat="43.53872" lon="11.3169933"><ele>443.8333333333333</ele><time>2026-03-22T10:22:38.226Z</time></trkpt><trkpt lat="43.5387967" lon="11.317015"><ele>443.66666666666663</ele><time>2026-03-22T10:22:40.225Z</time></trkpt><trkpt lat="43.53887" lon="11.3170417"><ele>443.5</ele><time>2026-03-22T10:22:42.225Z</time></trkpt><trkpt lat="43.5389467" lon="11.3170817"><ele>443.3333333333333</ele><time>2026-03-22T10:22:44.227Z</time></trkpt><trkpt lat="43.5390233" lon="11.3171167"><ele>443.16666666666663</ele><time>2026-03-22T10:22:46.225Z</time></trkpt><trkpt lat="43.5391" lon="11.3171533"><ele>443.0</ele><time>2026-03-22T10:22:48.224Z</time></trkpt><trkpt lat="43.539175" lon="11.317185"><ele>443.0</ele><time>2026-03-22T10:22:50.226Z</time></trkpt><trkpt lat="43.5392467" lon="11.3172083"><ele>443.0</ele><time>2026-03-22T10:22:52.226Z</time></trkpt><trkpt lat="43.539315" lon="11.3172383"><ele>443.0</ele><time>2026-03-22T10:22:54.225Z</time></trkpt><trkpt lat="43.5393817" lon="11.31726"><ele>443.0</ele><time>2026-03-22T10:22:56.225Z</time></trkpt><trkpt lat="43.5394533" lon="11.3172883"><ele>443.0</ele><time>2026-03-22T10:22:58.227Z</time></trkpt><trkpt lat="43.53952" lon="11.3173133"><ele>443.0</ele><time>2026-03-22T10:23:00.225Z</time></trkpt><trkpt lat="43.5395967" lon="11.31734"><ele>443.0</ele><time>2026-03-22T10:23:02.226Z</time></trkpt><trkpt lat="43.53967" lon="11.3173717"><ele>445.42857142857144</ele><time>2026-03-22T10:23:04.226Z</time></trkpt><trkpt lat="43.5397483" lon="11.3173883"><ele>447.8571428571429</ele><time>2026-03-22T10:23:06.227Z</time></trkpt><trkpt lat="43.5398233" lon="11.317395"><ele>450.2857142857142</ele><time>2026-03-22T10:23:08.225Z</time></trkpt><trkpt lat="43.5398967" lon="11.3174"><ele>452.71428571428567</ele><time>2026-03-22T10:23:10.225Z</time></trkpt><trkpt lat="43.5399617" lon="11.3173817"><ele>455.1428571428571</ele><time>2026-03-22T10:23:12.225Z</time></trkpt><trkpt lat="43.54003" lon="11.3173433"><ele>457.5714285714285</ele><time>2026-03-22T10:23:14.226Z</time></trkpt><trkpt lat="43.5401033" lon="11.3173017"><ele>459.99999999999994</ele><time>2026-03-22T10:23:16.225Z</time></trkpt><trkpt lat="43.5401667" lon="11.3172733"><ele>459.99999999999994</ele><time>2026-03-22T10:23:18.226Z</time></trkpt><trkpt lat="43.540235" lon="11.3172467"><ele>460.0</ele><time>2026-03-22T10:23:20.227Z</time></trkpt><trkpt lat="43.5402983" lon="11.3172083"><ele>459.99999999999994</ele><time>2026-03-22T10:23:22.224Z</time></trkpt><trkpt lat="43.5403683" lon="11.3171633"><ele>459.99999999999994</ele><time>2026-03-22T10:23:24.225Z</time></trkpt><trkpt lat="43.5404283" lon="11.31712"><ele>460.0</ele><time>2026-03-22T10:23:26.226Z</time></trkpt><trkpt lat="43.5404883" lon="11.3170783"><ele>459.99999999999994</ele><time>2026-03-22T10:23:28.225Z</time></trkpt><trkpt lat="43.540565" lon="11.3170333"><ele>459.99999999999994</ele><time>2026-03-22T10:23:30.227Z</time></trkpt><trkpt lat="43.5406367" lon="11.317"><ele>458.99999999999994</ele><time>2026-03-22T10:23:32.226Z</time></trkpt><trkpt lat="43.5407083" lon="11.3169617"><ele>458.0</ele><time>2026-03-22T10:23:34.225Z</time></trkpt><trkpt lat="43.5407783" lon="11.31694"><ele>456.99999999999994</ele><time>2026-03-22T10:23:36.225Z</time></trkpt><trkpt lat="43.5408483" lon="11.316925"><ele>455.99999999999994</ele><time>2026-03-22T10:23:38.227Z</time></trkpt><trkpt lat="43.5409217" lon="11.3169367"><ele>455.0</ele><time>2026-03-22T10:23:40.225Z</time></trkpt><trkpt lat="43.5409983" lon="11.316945"><ele>453.99999999999994</ele><time>2026-03-22T10:23:42.226Z</time></trkpt><trkpt lat="43.5410717" lon="11.3169633"><ele>452.99999999999994</ele><time>2026-03-22T10:23:44.227Z</time></trkpt><trkpt lat="43.5411367" lon="11.3169867"><ele>453.0</ele><time>2026-03-22T10:23:46.226Z</time></trkpt><trkpt lat="43.541205" lon="11.3170133"><ele>453.0</ele><time>2026-03-22T10:23:48.225Z</time></trkpt><trkpt lat="43.5412783" lon="11.3170317"><ele>453.0</ele><time>2026-03-22T10:23:50.226Z</time></trkpt><trkpt lat="43.5413567" lon="11.31705"><ele>453.0</ele><time>2026-03-22T10:23:52.225Z</time></trkpt><trkpt lat="43.541435" lon="11.3170717"><ele>453.0</ele><time>2026-03-22T10:23:54.227Z</time></trkpt><trkpt lat="43.5415183" lon="11.3171"><ele>453.0</ele><time>2026-03-22T10:23:56.226Z</time></trkpt><trkpt lat="43.5415983" lon="11.3171283"><ele>453.4</ele><time>2026-03-22T10:23:58.225Z</time></trkpt><trkpt lat="43.5416833" lon="11.31716"><ele>453.79999999999995</ele><time>2026-03-22T10:24:00.227Z</time></trkpt><trkpt lat="43.541775" lon="11.3171917"><ele>454.2</ele><time>2026-03-22T10:24:02.227Z</time></trkpt><trkpt lat="43.54187" lon="11.31721"><ele>454.6</ele><time>2026-03-22T10:24:04.224Z</time></trkpt><trkpt lat="43.54198" lon="11.3172233"><ele>455.0</ele><time>2026-03-22T10:24:06.224Z</time></trkpt><trkpt lat="43.5420933" lon="11.3172267"><ele>457.3333333333333</ele><time>2026-03-22T10:24:08.225Z</time></trkpt><trkpt lat="43.542155" lon="11.3172067"><ele>459.66666666666663</ele><time>2026-03-22T10:24:09.229Z</time></trkpt><trkpt lat="43.5422183" lon="11.3171867"><ele>462.0</ele><time>2026-03-22T10:24:10.225Z</time></trkpt><trkpt lat="43.5423333" lon="11.3171067"><ele>464.33333333333337</ele><time>2026-03-22T10:24:12.226Z</time></trkpt><trkpt lat="43.54239" lon="11.3170683"><ele>466.6666666666667</ele><time>2026-03-22T10:24:13.227Z</time></trkpt><trkpt lat="43.5424417" lon="11.3170067"><ele>469.0</ele><time>2026-03-22T10:24:14.227Z</time></trkpt><trkpt lat="43.5424867" lon="11.316945"><ele>469.0</ele><time>2026-03-22T10:24:15.226Z</time></trkpt><trkpt lat="43.542535" lon="11.316885"><ele>469.0</ele><time>2026-03-22T10:24:16.226Z</time></trkpt><trkpt lat="43.542585" lon="11.3168317"><ele>469.0</ele><time>2026-03-22T10:24:17.226Z</time></trkpt><trkpt lat="43.5426383" lon="11.31678"><ele>469.0</ele><time>2026-03-22T10:24:18.228Z</time></trkpt><trkpt lat="43.5426933" lon="11.3167333"><ele>469.0</ele><time>2026-03-22T10:24:19.225Z</time></trkpt><trkpt lat="43.5427533" lon="11.316695"><ele>469.0</ele><time>2026-03-22T10:24:20.226Z</time></trkpt><trkpt lat="43.5428183" lon="11.3166633"><ele>469.0</ele><time>2026-03-22T10:24:21.226Z</time></trkpt><trkpt lat="43.5428817" lon="11.3166467"><ele>471.4</ele><time>2026-03-22T10:24:22.227Z</time></trkpt><trkpt lat="43.54295" lon="11.3166383"><ele>473.79999999999995</ele><time>2026-03-22T10:24:23.226Z</time></trkpt><trkpt lat="43.54307" lon="11.3166083"><ele>476.20000000000005</ele><time>2026-03-22T10:24:25.227Z</time></trkpt><trkpt lat="43.5431817" lon="11.3165717"><ele>478.6</ele><time>2026-03-22T10:24:27.227Z</time></trkpt><trkpt lat="43.5432517" lon="11.31654"><ele>481.0</ele><time>2026-03-22T10:24:28.225Z</time></trkpt><trkpt lat="43.5433483" lon="11.3165033"><ele>481.00000000000006</ele><time>2026-03-22T10:24:30.226Z</time></trkpt><trkpt lat="43.5434367" lon="11.3164667"><ele>481.0</ele><time>2026-03-22T10:24:32.226Z</time></trkpt><trkpt lat="43.5435183" lon="11.31644"><ele>481.0</ele><time>2026-03-22T10:24:34.224Z</time></trkpt><trkpt lat="43.5436033" lon="11.316415"><ele>481.0</ele><time>2026-03-22T10:24:36.226Z</time></trkpt><trkpt lat="43.5436883" lon="11.316395"><ele>481.00000000000006</ele><time>2026-03-22T10:24:38.227Z</time></trkpt><trkpt lat="43.54376" lon="11.3163617"><ele>481.0</ele><time>2026-03-22T10:24:40.226Z</time></trkpt><trkpt lat="43.54384" lon="11.3163283"><ele>479.1666666666667</ele><time>2026-03-22T10:24:42.227Z</time></trkpt><trkpt lat="43.543925" lon="11.316305"><ele>477.33333333333337</ele><time>2026-03-22T10:24:44.225Z</time></trkpt><trkpt lat="43.544005" lon="11.3162867"><ele>475.5</ele><time>2026-03-22T10:24:46.225Z</time></trkpt><trkpt lat="43.544085" lon="11.31627"><ele>473.66666666666663</ele><time>2026-03-22T10:24:48.227Z</time></trkpt><trkpt lat="43.5441633" lon="11.3162517"><ele>471.8333333333333</ele><time>2026-03-22T10:24:50.225Z</time></trkpt><trkpt lat="43.5442433" lon="11.3162367"><ele>470.0</ele><time>2026-03-22T10:24:52.227Z</time></trkpt><trkpt lat="43.5443217" lon="11.31621"><ele>469.99999999999994</ele><time>2026-03-22T10:24:54.227Z</time></trkpt><trkpt lat="43.5444017" lon="11.31619"><ele>470.0</ele><time>2026-03-22T10:24:56.226Z</time></trkpt><trkpt lat="43.5444833" lon="11.3161733"><ele>470.0</ele><time>2026-03-22T10:24:58.224Z</time></trkpt><trkpt lat="43.5445717" lon="11.3161683"><ele>470.0</ele><time>2026-03-22T10:25:00.227Z</time></trkpt><trkpt lat="43.544655" lon="11.3161517"><ele>469.99999999999994</ele><time>2026-03-22T10:25:02.226Z</time></trkpt><trkpt lat="43.5447317" lon="11.3161533"><ele>470.0</ele><time>2026-03-22T10:25:04.226Z</time></trkpt><trkpt lat="43.5448083" lon="11.316135"><ele>470.8333333333333</ele><time>2026-03-22T10:25:06.226Z</time></trkpt><trkpt lat="43.544865" lon="11.316085"><ele>471.66666666666663</ele><time>2026-03-22T10:25:08.226Z</time></trkpt><trkpt lat="43.5449517" lon="11.3160867"><ele>472.5</ele><time>2026-03-22T10:25:11.226Z</time></trkpt><trkpt lat="43.5450167" lon="11.3161067"><ele>473.33333333333337</ele><time>2026-03-22T10:25:14.227Z</time></trkpt><trkpt lat="43.545105" lon="11.3161817"><ele>474.1666666666667</ele><time>2026-03-22T10:28:46.226Z</time></trkpt><trkpt lat="43.5451417" lon="11.3162933"><ele>475.0</ele><time>2026-03-22T10:28:50.225Z</time></trkpt><trkpt lat="43.5451383" lon="11.3164433"><ele>475.4</ele><time>2026-03-22T10:28:53.226Z</time></trkpt><trkpt lat="43.5451267" lon="11.3165783"><ele>475.8</ele><time>2026-03-22T10:28:55.225Z</time></trkpt><trkpt lat="43.5451217" lon="11.316715"><ele>476.20000000000005</ele><time>2026-03-22T10:28:57.226Z</time></trkpt><trkpt lat="43.5451217" lon="11.3168733"><ele>476.6</ele><time>2026-03-22T10:28:59.225Z</time></trkpt><trkpt lat="43.5451333" lon="11.3170467"><ele>477.0</ele><time>2026-03-22T10:29:01.226Z</time></trkpt><trkpt lat="43.5451517" lon="11.317135"><ele>477.0</ele><time>2026-03-22T10:29:02.225Z</time></trkpt><trkpt lat="43.5451817" lon="11.3172283"><ele>476.99999999999994</ele><time>2026-03-22T10:29:03.227Z</time></trkpt><trkpt lat="43.5452067" lon="11.3173183"><ele>477.0</ele><time>2026-03-22T10:29:04.226Z</time></trkpt><trkpt lat="43.5452467" lon="11.3174083"><ele>477.0</ele><time>2026-03-22T10:29:05.226Z</time></trkpt><trkpt lat="43.5452917" lon="11.317485"><ele>476.99999999999994</ele><time>2026-03-22T10:29:06.228Z</time></trkpt><trkpt lat="43.5453483" lon="11.317555"><ele>477.0</ele><time>2026-03-22T10:29:07.226Z</time></trkpt><trkpt lat="43.5454133" lon="11.3176167"><ele>477.0</ele><time>2026-03-22T10:29:08.227Z</time></trkpt><trkpt lat="43.545485" lon="11.3176683"><ele>475.6666666666667</ele><time>2026-03-22T10:29:09.225Z</time></trkpt><trkpt lat="43.54556" lon="11.3177067"><ele>474.33333333333337</ele><time>2026-03-22T10:29:10.227Z</time></trkpt><trkpt lat="43.5456317" lon="11.317735"><ele>473.0</ele><time>2026-03-22T10:29:11.227Z</time></trkpt><trkpt lat="43.5457033" lon="11.31775"><ele>471.6666666666667</ele><time>2026-03-22T10:29:12.226Z</time></trkpt><trkpt lat="43.5457817" lon="11.3177617"><ele>470.33333333333337</ele><time>2026-03-22T10:29:13.225Z</time></trkpt><trkpt lat="43.5458633" lon="11.3177767"><ele>469.0</ele><time>2026-03-22T10:29:14.226Z</time></trkpt><trkpt lat="43.5459467" lon="11.3177817"><ele>469.00000000000006</ele><time>2026-03-22T10:29:15.225Z</time></trkpt><trkpt lat="43.546025" lon="11.3177833"><ele>469.0</ele><time>2026-03-22T10:29:16.225Z</time></trkpt><trkpt lat="43.5461067" lon="11.317795"><ele>469.0</ele><time>2026-03-22T10:29:17.226Z</time></trkpt><trkpt lat="43.5461867" lon="11.3178083"><ele>469.0</ele><time>2026-03-22T10:29:18.228Z</time></trkpt><trkpt lat="43.5462633" lon="11.3178333"><ele>469.00000000000006</ele><time>2026-03-22T10:29:19.225Z</time></trkpt><trkpt lat="43.5463367" lon="11.3178733"><ele>469.0</ele><time>2026-03-22T10:29:20.227Z</time></trkpt><trkpt lat="43.54641" lon="11.3179367"><ele>467.33333333333337</ele><time>2026-03-22T10:29:21.226Z</time></trkpt><trkpt lat="43.5464717" lon="11.3180117"><ele>465.6666666666667</ele><time>2026-03-22T10:29:22.226Z</time></trkpt><trkpt lat="43.5465117" lon="11.3181083"><ele>464.0</ele><time>2026-03-22T10:29:23.225Z</time></trkpt><trkpt lat="43.546525" lon="11.3182317"><ele>462.33333333333337</ele><time>2026-03-22T10:29:24.226Z</time></trkpt><trkpt lat="43.546525" lon="11.3183617"><ele>460.6666666666667</ele><time>2026-03-22T10:29:25.225Z</time></trkpt><trkpt lat="43.5465167" lon="11.3184933"><ele>459.0</ele><time>2026-03-22T10:29:26.225Z</time></trkpt><trkpt lat="43.546515" lon="11.31862"><ele>459.0</ele><time>2026-03-22T10:29:27.226Z</time></trkpt><trkpt lat="43.546525" lon="11.3187467"><ele>459.0</ele><time>2026-03-22T10:29:28.226Z</time></trkpt><trkpt lat="43.5465383" lon="11.3188733"><ele>459.0</ele><time>2026-03-22T10:29:29.226Z</time></trkpt><trkpt lat="43.546565" lon="11.3189933"><ele>459.0</ele><time>2026-03-22T10:29:30.227Z</time></trkpt><trkpt lat="43.5466" lon="11.3191067"><ele>459.0</ele><time>2026-03-22T10:29:31.225Z</time></trkpt><trkpt lat="43.5466467" lon="11.3192117"><ele>459.6</ele><time>2026-03-22T10:29:32.226Z</time></trkpt><trkpt lat="43.5466983" lon="11.319315"><ele>460.2</ele><time>2026-03-22T10:29:33.227Z</time></trkpt><trkpt lat="43.5467633" lon="11.3194083"><ele>460.80000000000007</ele><time>2026-03-22T10:29:34.225Z</time></trkpt><trkpt lat="43.546835" lon="11.3194933"><ele>461.40000000000003</ele><time>2026-03-22T10:29:35.225Z</time></trkpt><trkpt lat="43.5469117" lon="11.31957"><ele>462.0</ele><time>2026-03-22T10:29:36.226Z</time></trkpt><trkpt lat="43.5469933" lon="11.3196417"><ele>460.40000000000003</ele><time>2026-03-22T10:29:37.228Z</time></trkpt><trkpt lat="43.5470767" lon="11.3197133"><ele>458.80000000000007</ele><time>2026-03-22T10:29:38.225Z</time></trkpt><trkpt lat="43.5471633" lon="11.3197867"><ele>457.2</ele><time>2026-03-22T10:29:39.226Z</time></trkpt><trkpt lat="43.5472467" lon="11.319855"><ele>455.6</ele><time>2026-03-22T10:29:40.225Z</time></trkpt><trkpt lat="43.5473267" lon="11.319925"><ele>454.0</ele><time>2026-03-22T10:29:41.226Z</time></trkpt><trkpt lat="43.547405" lon="11.319995"><ele>454.00000000000006</ele><time>2026-03-22T10:29:42.226Z</time></trkpt><trkpt lat="43.547485" lon="11.3200633"><ele>454.0</ele><time>2026-03-22T10:29:43.225Z</time></trkpt><trkpt lat="43.5475467" lon="11.3201433"><ele>454.0</ele><time>2026-03-22T10:29:44.226Z</time></trkpt><trkpt lat="43.5475917" lon="11.3202283"><ele>454.0</ele><time>2026-03-22T10:29:45.227Z</time></trkpt><trkpt lat="43.5476167" lon="11.3203267"><ele>454.00000000000006</ele><time>2026-03-22T10:29:46.226Z</time></trkpt><trkpt lat="43.5476233" lon="11.3204417"><ele>454.0</ele><time>2026-03-22T10:29:47.227Z</time></trkpt><trkpt lat="43.5476083" lon="11.3205533"><ele>453.2</ele><time>2026-03-22T10:29:48.226Z</time></trkpt><trkpt lat="43.547565" lon="11.3206733"><ele>452.4</ele><time>2026-03-22T10:29:49.226Z</time></trkpt><trkpt lat="43.547505" lon="11.3207667"><ele>451.6</ele><time>2026-03-22T10:29:50.226Z</time></trkpt><trkpt lat="43.5474233" lon="11.320845"><ele>450.8</ele><time>2026-03-22T10:29:51.225Z</time></trkpt><trkpt lat="43.5473333" lon="11.3208917"><ele>450.0</ele><time>2026-03-22T10:29:52.225Z</time></trkpt><trkpt lat="43.5472383" lon="11.3209233"><ele>450.0</ele><time>2026-03-22T10:29:53.227Z</time></trkpt><trkpt lat="43.5471383" lon="11.320945"><ele>450.0</ele><time>2026-03-22T10:29:54.226Z</time></trkpt><trkpt lat="43.5470383" lon="11.3209717"><ele>450.0</ele><time>2026-03-22T10:29:55.225Z</time></trkpt><trkpt lat="43.5469417" lon="11.3210017"><ele>450.0</ele><time>2026-03-22T10:29:56.225Z</time></trkpt><trkpt lat="43.5468467" lon="11.3210483"><ele>450.0</ele><time>2026-03-22T10:29:57.226Z</time></trkpt><trkpt lat="43.5467533" lon="11.3211067"><ele>451.4</ele><time>2026-03-22T10:29:58.227Z</time></trkpt><trkpt lat="43.546655" lon="11.32116"><ele>452.8</ele><time>2026-03-22T10:29:59.227Z</time></trkpt><trkpt lat="43.5465483" lon="11.3212033"><ele>454.20000000000005</ele><time>2026-03-22T10:30:00.225Z</time></trkpt><trkpt lat="43.546445" lon="11.3212267"><ele>455.6</ele><time>2026-03-22T10:30:01.225Z</time></trkpt><trkpt lat="43.5463383" lon="11.3212367"><ele>457.0</ele><time>2026-03-22T10:30:02.226Z</time></trkpt><trkpt lat="43.5462267" lon="11.321245"><ele>456.8</ele><time>2026-03-22T10:30:03.226Z</time></trkpt><trkpt lat="43.5461183" lon="11.3212417"><ele>456.6</ele><time>2026-03-22T10:30:04.226Z</time></trkpt><trkpt lat="43.5460067" lon="11.321235"><ele>456.40000000000003</ele><time>2026-03-22T10:30:05.229Z</time></trkpt><trkpt lat="43.545895" lon="11.3212433"><ele>456.20000000000005</ele><time>2026-03-22T10:30:06.226Z</time></trkpt><trkpt lat="43.5457817" lon="11.3212483"><ele>456.0</ele><time>2026-03-22T10:30:07.225Z</time></trkpt><trkpt lat="43.545665" lon="11.3212533"><ele>456.0</ele><time>2026-03-22T10:30:08.226Z</time></trkpt><trkpt lat="43.54555" lon="11.3212533"><ele>456.0</ele><time>2026-03-22T10:30:09.228Z</time></trkpt><trkpt lat="43.5454333" lon="11.3212583"><ele>456.0</ele><time>2026-03-22T10:30:10.225Z</time></trkpt><trkpt lat="43.545315" lon="11.3212633"><ele>456.0</ele><time>2026-03-22T10:30:11.225Z</time></trkpt><trkpt lat="43.5451983" lon="11.3212683"><ele>455.0</ele><time>2026-03-22T10:30:12.226Z</time></trkpt><trkpt lat="43.54508" lon="11.3212767"><ele>454.0</ele><time>2026-03-22T10:30:13.225Z</time></trkpt><trkpt lat="43.544965" lon="11.3212817"><ele>453.0</ele><time>2026-03-22T10:30:14.226Z</time></trkpt><trkpt lat="43.544845" lon="11.32128"><ele>452.0</ele><time>2026-03-22T10:30:15.225Z</time></trkpt><trkpt lat="43.5447317" lon="11.3212767"><ele>452.0</ele><time>2026-03-22T10:30:16.225Z</time></trkpt><trkpt lat="43.5446217" lon="11.3212833"><ele>452.00000000000006</ele><time>2026-03-22T10:30:17.226Z</time></trkpt><trkpt lat="43.5445183" lon="11.3212867"><ele>452.00000000000006</ele><time>2026-03-22T10:30:18.226Z</time></trkpt><trkpt lat="43.5444217" lon="11.32129"><ele>452.0</ele><time>2026-03-22T10:30:19.226Z</time></trkpt><trkpt lat="43.5443333" lon="11.3213017"><ele>452.0</ele><time>2026-03-22T10:30:20.227Z</time></trkpt><trkpt lat="43.5442483" lon="11.3213267"><ele>451.6</ele><time>2026-03-22T10:30:21.225Z</time></trkpt><trkpt lat="43.5441667" lon="11.3213817"><ele>451.20000000000005</ele><time>2026-03-22T10:30:22.226Z</time></trkpt><trkpt lat="43.5441" lon="11.3214733"><ele>450.8</ele><time>2026-03-22T10:30:23.227Z</time></trkpt><trkpt lat="43.5440567" lon="11.321585"><ele>450.4</ele><time>2026-03-22T10:30:24.226Z</time></trkpt><trkpt lat="43.5440417" lon="11.3217083"><ele>450.0</ele><time>2026-03-22T10:30:25.226Z</time></trkpt><trkpt lat="43.5440417" lon="11.321835"><ele>447.6</ele><time>2026-03-22T10:30:26.228Z</time></trkpt><trkpt lat="43.544065" lon="11.3219633"><ele>445.2</ele><time>2026-03-22T10:30:27.225Z</time></trkpt><trkpt lat="43.544105" lon="11.3220933"><ele>442.79999999999995</ele><time>2026-03-22T10:30:28.227Z</time></trkpt><trkpt lat="43.5441517" lon="11.3222183"><ele>440.4</ele><time>2026-03-22T10:30:29.226Z</time></trkpt><trkpt lat="43.5442" lon="11.322345"><ele>438.0</ele><time>2026-03-22T10:30:30.226Z</time></trkpt><trkpt lat="43.54425" lon="11.3224783"><ele>437.59999999999997</ele><time>2026-03-22T10:30:31.227Z</time></trkpt><trkpt lat="43.5443" lon="11.3226117"><ele>437.19999999999993</ele><time>2026-03-22T10:30:32.226Z</time></trkpt><trkpt lat="43.54435" lon="11.3227433"><ele>436.8</ele><time>2026-03-22T10:30:33.226Z</time></trkpt><trkpt lat="43.5444" lon="11.322875"><ele>436.4</ele><time>2026-03-22T10:30:34.227Z</time></trkpt><trkpt lat="43.54445" lon="11.3230083"><ele>436.0</ele><time>2026-03-22T10:30:35.226Z</time></trkpt><trkpt lat="43.5444967" lon="11.3231367"><ele>436.0</ele><time>2026-03-22T10:30:36.226Z</time></trkpt><trkpt lat="43.544535" lon="11.3232683"><ele>436.0</ele><time>2026-03-22T10:30:37.227Z</time></trkpt><trkpt lat="43.54457" lon="11.323405"><ele>436.0</ele><time>2026-03-22T10:30:38.227Z</time></trkpt><trkpt lat="43.5445933" lon="11.3235433"><ele>436.0</ele><time>2026-03-22T10:30:39.227Z</time></trkpt><trkpt lat="43.544605" lon="11.3236817"><ele>436.0</ele><time>2026-03-22T10:30:40.225Z</time></trkpt><trkpt lat="43.5445967" lon="11.3238217"><ele>434.6</ele><time>2026-03-22T10:30:41.226Z</time></trkpt><trkpt lat="43.5445717" lon="11.3239583"><ele>433.20000000000005</ele><time>2026-03-22T10:30:42.226Z</time></trkpt><trkpt lat="43.54453" lon="11.324085"><ele>431.79999999999995</ele><time>2026-03-22T10:30:43.225Z</time></trkpt><trkpt lat="43.5444767" lon="11.3242033"><ele>430.4</ele><time>2026-03-22T10:30:44.226Z</time></trkpt><trkpt lat="43.54441" lon="11.3243033"><ele>429.0</ele><time>2026-03-22T10:30:45.227Z</time></trkpt><trkpt lat="43.5443383" lon="11.3243983"><ele>429.0</ele><time>2026-03-22T10:30:46.226Z</time></trkpt><trkpt lat="43.5442717" lon="11.3245033"><ele>429.0</ele><time>2026-03-22T10:30:47.225Z</time></trkpt><trkpt lat="43.54422" lon="11.3246217"><ele>429.0</ele><time>2026-03-22T10:30:48.227Z</time></trkpt><trkpt lat="43.5441933" lon="11.32476"><ele>429.0</ele><time>2026-03-22T10:30:49.227Z</time></trkpt><trkpt lat="43.5441783" lon="11.3248983"><ele>429.0</ele><time>2026-03-22T10:30:50.225Z</time></trkpt><trkpt lat="43.5441783" lon="11.3250433"><ele>427.6</ele><time>2026-03-22T10:30:51.227Z</time></trkpt><trkpt lat="43.5441783" lon="11.3251917"><ele>426.2</ele><time>2026-03-22T10:30:52.226Z</time></trkpt><trkpt lat="43.5441833" lon="11.3253417"><ele>424.8</ele><time>2026-03-22T10:30:53.226Z</time></trkpt><trkpt lat="43.5441983" lon="11.3254917"><ele>423.40000000000003</ele><time>2026-03-22T10:30:54.225Z</time></trkpt><trkpt lat="43.5442167" lon="11.3256417"><ele>422.0</ele><time>2026-03-22T10:30:55.228Z</time></trkpt><trkpt lat="43.5442383" lon="11.32579"><ele>421.6</ele><time>2026-03-22T10:30:56.226Z</time></trkpt><trkpt lat="43.5442633" lon="11.3259383"><ele>421.20000000000005</ele><time>2026-03-22T10:30:57.225Z</time></trkpt><trkpt lat="43.5442833" lon="11.3260883"><ele>420.8</ele><time>2026-03-22T10:30:58.226Z</time></trkpt><trkpt lat="43.5443017" lon="11.3262367"><ele>420.4</ele><time>2026-03-22T10:30:59.226Z</time></trkpt><trkpt lat="43.5443217" lon="11.326385"><ele>420.0</ele><time>2026-03-22T10:31:00.226Z</time></trkpt><trkpt lat="43.5443383" lon="11.32653"><ele>420.8</ele><time>2026-03-22T10:31:01.226Z</time></trkpt><trkpt lat="43.5443567" lon="11.3266667"><ele>421.6</ele><time>2026-03-22T10:31:02.227Z</time></trkpt><trkpt lat="43.5443833" lon="11.32679"><ele>422.4</ele><time>2026-03-22T10:31:03.226Z</time></trkpt><trkpt lat="43.5444167" lon="11.3269017"><ele>423.2</ele><time>2026-03-22T10:31:04.226Z</time></trkpt><trkpt lat="43.54446" lon="11.3270017"><ele>424.0</ele><time>2026-03-22T10:31:05.228Z</time></trkpt><trkpt lat="43.5445183" lon="11.3270883"><ele>421.6</ele><time>2026-03-22T10:31:06.226Z</time></trkpt><trkpt lat="43.5445967" lon="11.32715"><ele>419.2</ele><time>2026-03-22T10:31:07.225Z</time></trkpt><trkpt lat="43.5446833" lon="11.3271867"><ele>416.8</ele><time>2026-03-22T10:31:08.227Z</time></trkpt><trkpt lat="43.5447783" lon="11.3271933"><ele>414.40000000000003</ele><time>2026-03-22T10:31:09.227Z</time></trkpt><trkpt lat="43.5448783" lon="11.3271733"><ele>412.0</ele><time>2026-03-22T10:31:10.225Z</time></trkpt><trkpt lat="43.544975" lon="11.327125"><ele>412.0</ele><time>2026-03-22T10:31:11.225Z</time></trkpt><trkpt lat="43.5450633" lon="11.3270483"><ele>412.0</ele><time>2026-03-22T10:31:12.226Z</time></trkpt><trkpt lat="43.5451467" lon="11.32694"><ele>412.0</ele><time>2026-03-22T10:31:13.226Z</time></trkpt><trkpt lat="43.545225" lon="11.3268267"><ele>412.0</ele><time>2026-03-22T10:31:14.226Z</time></trkpt><trkpt lat="43.5453017" lon="11.32671"><ele>412.0</ele><time>2026-03-22T10:31:15.227Z</time></trkpt><trkpt lat="43.5453767" lon="11.32659"><ele>410.75</ele><time>2026-03-22T10:31:16.225Z</time></trkpt><trkpt lat="43.5454517" lon="11.326465"><ele>409.5</ele><time>2026-03-22T10:31:17.228Z</time></trkpt><trkpt lat="43.545525" lon="11.3263417"><ele>408.25</ele><time>2026-03-22T10:31:18.226Z</time></trkpt><trkpt lat="43.5455983" lon="11.3262133"><ele>407.0</ele><time>2026-03-22T10:31:19.226Z</time></trkpt><trkpt lat="43.5456567" lon="11.3260733"><ele>407.0</ele><time>2026-03-22T10:31:20.226Z</time></trkpt><trkpt lat="43.5457083" lon="11.32593"><ele>407.0</ele><time>2026-03-22T10:31:21.226Z</time></trkpt><trkpt lat="43.5457533" lon="11.325775"><ele>407.0</ele><time>2026-03-22T10:31:22.225Z</time></trkpt><trkpt lat="43.5457983" lon="11.3256233"><ele>407.0</ele><time>2026-03-22T10:31:23.226Z</time></trkpt><trkpt lat="43.545845" lon="11.3254683"><ele>406.5</ele><time>2026-03-22T10:31:24.226Z</time></trkpt><trkpt lat="43.5459" lon="11.3253"><ele>406.0</ele><time>2026-03-22T10:31:25.226Z</time></trkpt><trkpt lat="43.54595" lon="11.3251433"><ele>405.5</ele><time>2026-03-22T10:31:26.227Z</time></trkpt><trkpt lat="43.5459967" lon="11.3249817"><ele>405.0</ele><time>2026-03-22T10:31:27.226Z</time></trkpt><trkpt lat="43.5460433" lon="11.3248233"><ele>404.0</ele><time>2026-03-22T10:31:28.226Z</time></trkpt><trkpt lat="43.5460883" lon="11.3246617"><ele>403.0</ele><time>2026-03-22T10:31:29.226Z</time></trkpt><trkpt lat="43.5461383" lon="11.3245033"><ele>402.0</ele><time>2026-03-22T10:31:30.226Z</time></trkpt><trkpt lat="43.5461867" lon="11.32435"><ele>401.0</ele><time>2026-03-22T10:31:31.227Z</time></trkpt><trkpt lat="43.5462317" lon="11.3242"><ele>401.4</ele><time>2026-03-22T10:31:32.226Z</time></trkpt><trkpt lat="43.5462733" lon="11.3240633"><ele>401.8</ele><time>2026-03-22T10:31:33.226Z</time></trkpt><trkpt lat="43.5463267" lon="11.3239333"><ele>402.2</ele><time>2026-03-22T10:31:34.225Z</time></trkpt><trkpt lat="43.5464017" lon="11.323825"><ele>402.59999999999997</ele><time>2026-03-22T10:31:35.227Z</time></trkpt><trkpt lat="43.5464917" lon="11.3237417"><ele>403.0</ele><time>2026-03-22T10:31:36.226Z</time></trkpt><trkpt lat="43.546595" lon="11.3236867"><ele>403.0</ele><time>2026-03-22T10:31:37.226Z</time></trkpt><trkpt lat="43.5467033" lon="11.3236533"><ele>403.0</ele><time>2026-03-22T10:31:38.226Z</time></trkpt><trkpt lat="43.546815" lon="11.3236233"><ele>403.0</ele><time>2026-03-22T10:31:39.227Z</time></trkpt><trkpt lat="43.5469267" lon="11.3235933"><ele>403.0</ele><time>2026-03-22T10:31:40.225Z</time></trkpt><trkpt lat="43.5470383" lon="11.323565"><ele>401.0</ele><time>2026-03-22T10:31:41.226Z</time></trkpt><trkpt lat="43.5471517" lon="11.32354"><ele>399.0</ele><time>2026-03-22T10:31:42.228Z</time></trkpt><trkpt lat="43.5472633" lon="11.323515"><ele>397.0</ele><time>2026-03-22T10:31:43.227Z</time></trkpt><trkpt lat="43.5473733" lon="11.32349"><ele>395.0</ele><time>2026-03-22T10:31:44.228Z</time></trkpt><trkpt lat="43.547485" lon="11.3234683"><ele>395.0</ele><time>2026-03-22T10:31:45.227Z</time></trkpt><trkpt lat="43.5475967" lon="11.3234433"><ele>395.0</ele><time>2026-03-22T10:31:46.225Z</time></trkpt><trkpt lat="43.5477083" lon="11.3234167"><ele>395.0</ele><time>2026-03-22T10:31:47.226Z</time></trkpt><trkpt lat="43.54782" lon="11.3233933"><ele>395.0</ele><time>2026-03-22T10:31:48.226Z</time></trkpt><trkpt lat="43.5479333" lon="11.3233717"><ele>393.8</ele><time>2026-03-22T10:31:49.226Z</time></trkpt><trkpt lat="43.5480417" lon="11.3233417"><ele>392.6</ele><time>2026-03-22T10:31:50.226Z</time></trkpt><trkpt lat="43.54815" lon="11.3233183"><ele>391.4</ele><time>2026-03-22T10:31:51.225Z</time></trkpt><trkpt lat="43.5482617" lon="11.3233"><ele>390.2</ele><time>2026-03-22T10:31:52.226Z</time></trkpt><trkpt lat="43.5483733" lon="11.323275"><ele>389.0</ele><time>2026-03-22T10:31:53.228Z</time></trkpt><trkpt lat="43.5484867" lon="11.3232517"><ele>389.0</ele><time>2026-03-22T10:31:54.225Z</time></trkpt><trkpt lat="43.5486017" lon="11.3232283"><ele>389.0</ele><time>2026-03-22T10:31:55.227Z</time></trkpt><trkpt lat="43.5487183" lon="11.3231983"><ele>389.0</ele><time>2026-03-22T10:31:56.227Z</time></trkpt><trkpt lat="43.5488317" lon="11.323155"><ele>389.0</ele><time>2026-03-22T10:31:57.227Z</time></trkpt><trkpt lat="43.5489483" lon="11.3231133"><ele>387.25</ele><time>2026-03-22T10:31:58.226Z</time></trkpt><trkpt lat="43.549065" lon="11.3230833"><ele>385.5</ele><time>2026-03-22T10:31:59.225Z</time></trkpt><trkpt lat="43.5491833" lon="11.3230517"><ele>383.75</ele><time>2026-03-22T10:32:00.226Z</time></trkpt><trkpt lat="43.5492983" lon="11.32302"><ele>382.0</ele><time>2026-03-22T10:32:01.226Z</time></trkpt><trkpt lat="43.5494133" lon="11.3229917"><ele>385.25</ele><time>2026-03-22T10:32:02.226Z</time></trkpt><trkpt lat="43.5495217" lon="11.322965"><ele>388.5</ele><time>2026-03-22T10:32:03.227Z</time></trkpt><trkpt lat="43.5496317" lon="11.3229483"><ele>391.75</ele><time>2026-03-22T10:32:04.226Z</time></trkpt><trkpt lat="43.5497467" lon="11.3229433"><ele>395.0</ele><time>2026-03-22T10:32:05.225Z</time></trkpt><trkpt lat="43.5498617" lon="11.32296"><ele>395.0</ele><time>2026-03-22T10:32:06.226Z</time></trkpt><trkpt lat="43.549975" lon="11.323"><ele>395.0</ele><time>2026-03-22T10:32:07.227Z</time></trkpt><trkpt lat="43.5500817" lon="11.3230617"><ele>395.0</ele><time>2026-03-22T10:32:08.226Z</time></trkpt><trkpt lat="43.5501817" lon="11.323145"><ele>395.0</ele><time>2026-03-22T10:32:09.226Z</time></trkpt><trkpt lat="43.5502767" lon="11.3232317"><ele>395.0</ele><time>2026-03-22T10:32:10.226Z</time></trkpt><trkpt lat="43.5503683" lon="11.3233283"><ele>395.0</ele><time>2026-03-22T10:32:11.226Z</time></trkpt><trkpt lat="43.5504533" lon="11.3234317"><ele>395.0</ele><time>2026-03-22T10:32:12.226Z</time></trkpt><trkpt lat="43.5505317" lon="11.3235433"><ele>395.0</ele><time>2026-03-22T10:32:13.226Z</time></trkpt><trkpt lat="43.5506183" lon="11.3236467"><ele>395.0</ele><time>2026-03-22T10:32:14.226Z</time></trkpt><trkpt lat="43.5507117" lon="11.323735"><ele>395.0</ele><time>2026-03-22T10:32:15.227Z</time></trkpt><trkpt lat="43.550815" lon="11.3238083"><ele>395.0</ele><time>2026-03-22T10:32:16.225Z</time></trkpt><trkpt lat="43.5509217" lon="11.32386"><ele>395.0</ele><time>2026-03-22T10:32:17.226Z</time></trkpt><trkpt lat="43.551025" lon="11.3239117"><ele>391.0</ele><time>2026-03-22T10:32:18.226Z</time></trkpt><trkpt lat="43.551135" lon="11.3239617"><ele>387.0</ele><time>2026-03-22T10:32:19.227Z</time></trkpt><trkpt lat="43.5512433" lon="11.3240083"><ele>383.0</ele><time>2026-03-22T10:32:20.225Z</time></trkpt><trkpt lat="43.5513517" lon="11.3240633"><ele>379.0</ele><time>2026-03-22T10:32:21.225Z</time></trkpt><trkpt lat="43.5514617" lon="11.3241183"><ele>379.0</ele><time>2026-03-22T10:32:22.226Z</time></trkpt><trkpt lat="43.5515717" lon="11.3241683"><ele>379.0</ele><time>2026-03-22T10:32:23.226Z</time></trkpt><trkpt lat="43.551685" lon="11.324205"><ele>379.0</ele><time>2026-03-22T10:32:24.226Z</time></trkpt><trkpt lat="43.5517983" lon="11.32423"><ele>379.0</ele><time>2026-03-22T10:32:25.226Z</time></trkpt><trkpt lat="43.5519167" lon="11.32423"><ele>378.5</ele><time>2026-03-22T10:32:26.225Z</time></trkpt><trkpt lat="43.55204" lon="11.3242233"><ele>378.0</ele><time>2026-03-22T10:32:27.225Z</time></trkpt><trkpt lat="43.5521633" lon="11.3242117"><ele>377.5</ele><time>2026-03-22T10:32:28.228Z</time></trkpt><trkpt lat="43.5522867" lon="11.3241983"><ele>377.0</ele><time>2026-03-22T10:32:29.227Z</time></trkpt><trkpt lat="43.5524133" lon="11.324185"><ele>377.0</ele><time>2026-03-22T10:32:30.226Z</time></trkpt><trkpt lat="43.55254" lon="11.3241667"><ele>377.0</ele><time>2026-03-22T10:32:31.225Z</time></trkpt><trkpt lat="43.5526567" lon="11.324155"><ele>377.0</ele><time>2026-03-22T10:32:32.226Z</time></trkpt><trkpt lat="43.5527683" lon="11.3241533"><ele>377.0</ele><time>2026-03-22T10:32:33.228Z</time></trkpt><trkpt lat="43.5528733" lon="11.3241633"><ele>377.8</ele><time>2026-03-22T10:32:34.226Z</time></trkpt><trkpt lat="43.5529717" lon="11.3241883"><ele>378.6</ele><time>2026-03-22T10:32:35.225Z</time></trkpt><trkpt lat="43.5530633" lon="11.3242433"><ele>379.40000000000003</ele><time>2026-03-22T10:32:36.227Z</time></trkpt><trkpt lat="43.553145" lon="11.32433"><ele>380.20000000000005</ele><time>2026-03-22T10:32:37.227Z</time></trkpt><trkpt lat="43.5532083" lon="11.32444"><ele>381.0</ele><time>2026-03-22T10:32:38.226Z</time></trkpt><trkpt lat="43.5532517" lon="11.3245717"><ele>381.0</ele><time>2026-03-22T10:32:39.227Z</time></trkpt><trkpt lat="43.553285" lon="11.32471"><ele>381.0</ele><time>2026-03-22T10:32:40.226Z</time></trkpt><trkpt lat="43.5533117" lon="11.3248467"><ele>381.0</ele><time>2026-03-22T10:32:41.226Z</time></trkpt><trkpt lat="43.553335" lon="11.3249783"><ele>381.0</ele><time>2026-03-22T10:32:42.226Z</time></trkpt><trkpt lat="43.5533583" lon="11.3250983"><ele>381.0</ele><time>2026-03-22T10:32:43.225Z</time></trkpt><trkpt lat="43.5533917" lon="11.325205"><ele>378.6666666666667</ele><time>2026-03-22T10:32:44.226Z</time></trkpt><trkpt lat="43.5534417" lon="11.325295"><ele>376.3333333333333</ele><time>2026-03-22T10:32:45.227Z</time></trkpt><trkpt lat="43.5535017" lon="11.32537"><ele>374.0</ele><time>2026-03-22T10:32:46.226Z</time></trkpt><trkpt lat="43.5535733" lon="11.3254267"><ele>371.66666666666663</ele><time>2026-03-22T10:32:47.226Z</time></trkpt><trkpt lat="43.5536533" lon="11.3254483"><ele>369.3333333333333</ele><time>2026-03-22T10:32:48.227Z</time></trkpt><trkpt lat="43.5537417" lon="11.3254367"><ele>367.0</ele><time>2026-03-22T10:32:49.226Z</time></trkpt><trkpt lat="43.5538417" lon="11.3253867"><ele>366.6</ele><time>2026-03-22T10:32:50.227Z</time></trkpt><trkpt lat="43.5539317" lon="11.3253283"><ele>366.20000000000005</ele><time>2026-03-22T10:32:51.226Z</time></trkpt><trkpt lat="43.554015" lon="11.3252517"><ele>365.8</ele><time>2026-03-22T10:32:52.227Z</time></trkpt><trkpt lat="43.5540967" lon="11.3251583"><ele>365.4</ele><time>2026-03-22T10:32:53.226Z</time></trkpt><trkpt lat="43.554175" lon="11.3250567"><ele>365.0</ele><time>2026-03-22T10:32:54.227Z</time></trkpt><trkpt lat="43.5542583" lon="11.3249517"><ele>365.0</ele><time>2026-03-22T10:32:55.227Z</time></trkpt><trkpt lat="43.5543367" lon="11.3248567"><ele>365.0</ele><time>2026-03-22T10:32:56.226Z</time></trkpt><trkpt lat="43.5544133" lon="11.3247617"><ele>365.0</ele><time>2026-03-22T10:32:57.227Z</time></trkpt><trkpt lat="43.55449" lon="11.3246733"><ele>365.0</ele><time>2026-03-22T10:32:58.225Z</time></trkpt><trkpt lat="43.5545717" lon="11.3245967"><ele>365.0</ele><time>2026-03-22T10:32:59.227Z</time></trkpt><trkpt lat="43.55467" lon="11.3245533"><ele>365.0</ele><time>2026-03-22T10:33:00.226Z</time></trkpt><trkpt lat="43.55478" lon="11.324545"><ele>365.0</ele><time>2026-03-22T10:33:01.226Z</time></trkpt><trkpt lat="43.5548883" lon="11.3245667"><ele>365.0</ele><time>2026-03-22T10:33:02.226Z</time></trkpt><trkpt lat="43.554995" lon="11.3245983"><ele>365.0</ele><time>2026-03-22T10:33:03.228Z</time></trkpt><trkpt lat="43.5550967" lon="11.3246333"><ele>365.0</ele><time>2026-03-22T10:33:04.228Z</time></trkpt><trkpt lat="43.555195" lon="11.3246683"><ele>365.0</ele><time>2026-03-22T10:33:05.228Z</time></trkpt><trkpt lat="43.5552867" lon="11.3246967"><ele>365.0</ele><time>2026-03-22T10:33:06.226Z</time></trkpt><trkpt lat="43.5553767" lon="11.324705"><ele>365.0</ele><time>2026-03-22T10:33:07.226Z</time></trkpt><trkpt lat="43.5554733" lon="11.3246933"><ele>365.0</ele><time>2026-03-22T10:33:08.226Z</time></trkpt><trkpt lat="43.55557" lon="11.324665"><ele>365.0</ele><time>2026-03-22T10:33:09.227Z</time></trkpt><trkpt lat="43.5556617" lon="11.3246133"><ele>362.4</ele><time>2026-03-22T10:33:10.226Z</time></trkpt><trkpt lat="43.55575" lon="11.3245483"><ele>359.8</ele><time>2026-03-22T10:33:11.226Z</time></trkpt><trkpt lat="43.5558367" lon="11.3244733"><ele>357.20000000000005</ele><time>2026-03-22T10:33:12.226Z</time></trkpt><trkpt lat="43.55592" lon="11.32439"><ele>354.6</ele><time>2026-03-22T10:33:13.226Z</time></trkpt><trkpt lat="43.55601" lon="11.324315"><ele>352.0</ele><time>2026-03-22T10:33:14.227Z</time></trkpt><trkpt lat="43.5560983" lon="11.3242383"><ele>352.0</ele><time>2026-03-22T10:33:15.228Z</time></trkpt><trkpt lat="43.55619" lon="11.324155"><ele>352.0</ele><time>2026-03-22T10:33:16.227Z</time></trkpt><trkpt lat="43.5562817" lon="11.3240733"><ele>352.0</ele><time>2026-03-22T10:33:17.228Z</time></trkpt><trkpt lat="43.5563733" lon="11.32399"><ele>352.0</ele><time>2026-03-22T10:33:18.226Z</time></trkpt><trkpt lat="43.5564667" lon="11.3239083"><ele>352.0</ele><time>2026-03-22T10:33:19.225Z</time></trkpt><trkpt lat="43.5565633" lon="11.3238283"><ele>351.0</ele><time>2026-03-22T10:33:20.226Z</time></trkpt><trkpt lat="43.5566567" lon="11.3237433"><ele>350.0</ele><time>2026-03-22T10:33:21.227Z</time></trkpt><trkpt lat="43.5567483" lon="11.3236567"><ele>349.0</ele><time>2026-03-22T10:33:22.225Z</time></trkpt><trkpt lat="43.55684" lon="11.3235667"><ele>348.0</ele><time>2026-03-22T10:33:23.226Z</time></trkpt><trkpt lat="43.556935" lon="11.3234767"><ele>348.0</ele><time>2026-03-22T10:33:24.226Z</time></trkpt><trkpt lat="43.5570283" lon="11.3233883"><ele>348.0</ele><time>2026-03-22T10:33:25.226Z</time></trkpt><trkpt lat="43.5571167" lon="11.323295"><ele>348.0</ele><time>2026-03-22T10:33:26.227Z</time></trkpt><trkpt lat="43.5571983" lon="11.3231883"><ele>348.0</ele><time>2026-03-22T10:33:27.227Z</time></trkpt><trkpt lat="43.5572783" lon="11.32308"><ele>348.0</ele><time>2026-03-22T10:33:28.227Z</time></trkpt><trkpt lat="43.5573667" lon="11.322985"><ele>348.25</ele><time>2026-03-22T10:33:29.226Z</time></trkpt><trkpt lat="43.5574667" lon="11.3229117"><ele>348.5</ele><time>2026-03-22T10:33:30.228Z</time></trkpt><trkpt lat="43.5575767" lon="11.3228617"><ele>348.75</ele><time>2026-03-22T10:33:31.226Z</time></trkpt><trkpt lat="43.557685" lon="11.3228283"><ele>349.0</ele><time>2026-03-22T10:33:32.227Z</time></trkpt><trkpt lat="43.5577933" lon="11.3227917"><ele>346.25</ele><time>2026-03-22T10:33:33.227Z</time></trkpt><trkpt lat="43.5579033" lon="11.3227567"><ele>343.5</ele><time>2026-03-22T10:33:34.228Z</time></trkpt><trkpt lat="43.5580133" lon="11.3227233"><ele>340.75</ele><time>2026-03-22T10:33:35.227Z</time></trkpt><trkpt lat="43.558125" lon="11.3226933"><ele>338.0</ele><time>2026-03-22T10:33:36.227Z</time></trkpt><trkpt lat="43.55824" lon="11.3226583"><ele>338.0</ele><time>2026-03-22T10:33:37.229Z</time></trkpt><trkpt lat="43.558355" lon="11.32262"><ele>338.0</ele><time>2026-03-22T10:33:38.227Z</time></trkpt><trkpt lat="43.55847" lon="11.3225767"><ele>338.0</ele><time>2026-03-22T10:33:39.226Z</time></trkpt><trkpt lat="43.55858" lon="11.3225317"><ele>338.0</ele><time>2026-03-22T10:33:40.226Z</time></trkpt><trkpt lat="43.5586883" lon="11.3224883"><ele>337.0</ele><time>2026-03-22T10:33:41.227Z</time></trkpt><trkpt lat="43.5587983" lon="11.3224483"><ele>336.0</ele><time>2026-03-22T10:33:42.226Z</time></trkpt><trkpt lat="43.558905" lon="11.32242"><ele>335.0</ele><time>2026-03-22T10:33:43.229Z</time></trkpt><trkpt lat="43.5590017" lon="11.322415"><ele>334.0</ele><time>2026-03-22T10:33:44.227Z</time></trkpt><trkpt lat="43.5591" lon="11.322435"><ele>333.0</ele><time>2026-03-22T10:33:45.226Z</time></trkpt><trkpt lat="43.5591917" lon="11.3224783"><ele>333.0</ele><time>2026-03-22T10:33:46.225Z</time></trkpt><trkpt lat="43.559275" lon="11.3225533"><ele>333.0</ele><time>2026-03-22T10:33:47.228Z</time></trkpt><trkpt lat="43.5593383" lon="11.3226583"><ele>333.0</ele><time>2026-03-22T10:33:48.226Z</time></trkpt><trkpt lat="43.5593867" lon="11.3227817"><ele>333.0</ele><time>2026-03-22T10:33:49.227Z</time></trkpt><trkpt lat="43.559425" lon="11.3229183"><ele>333.0</ele><time>2026-03-22T10:33:50.226Z</time></trkpt><trkpt lat="43.559465" lon="11.3230483"><ele>332.0</ele><time>2026-03-22T10:33:51.225Z</time></trkpt><trkpt lat="43.5595133" lon="11.323175"><ele>331.0</ele><time>2026-03-22T10:33:52.226Z</time></trkpt><trkpt lat="43.5595767" lon="11.3232917"><ele>330.0</ele><time>2026-03-22T10:33:53.228Z</time></trkpt><trkpt lat="43.5596483" lon="11.3234017"><ele>329.0</ele><time>2026-03-22T10:33:54.226Z</time></trkpt><trkpt lat="43.559735" lon="11.3235017"><ele>328.0</ele><time>2026-03-22T10:33:55.226Z</time></trkpt><trkpt lat="43.55983" lon="11.3235883"><ele>328.0</ele><time>2026-03-22T10:33:56.226Z</time></trkpt><trkpt lat="43.5599217" lon="11.3236867"><ele>328.0</ele><time>2026-03-22T10:33:57.228Z</time></trkpt><trkpt lat="43.5600117" lon="11.323775"><ele>328.0</ele><time>2026-03-22T10:33:58.229Z</time></trkpt><trkpt lat="43.560105" lon="11.3238783"><ele>328.0</ele><time>2026-03-22T10:33:59.227Z</time></trkpt><trkpt lat="43.5602017" lon="11.3239817"><ele>326.5</ele><time>2026-03-22T10:34:00.226Z</time></trkpt><trkpt lat="43.5603033" lon="11.324075"><ele>325.0</ele><time>2026-03-22T10:34:01.226Z</time></trkpt><trkpt lat="43.5604117" lon="11.32415"><ele>323.5</ele><time>2026-03-22T10:34:02.226Z</time></trkpt><trkpt lat="43.560525" lon="11.3242217"><ele>322.0</ele><time>2026-03-22T10:34:03.228Z</time></trkpt><trkpt lat="43.5606383" lon="11.3242817"><ele>322.0</ele><time>2026-03-22T10:34:04.229Z</time></trkpt><trkpt lat="43.5607517" lon="11.3243417"><ele>322.0</ele><time>2026-03-22T10:34:05.225Z</time></trkpt><trkpt lat="43.5608733" lon="11.3243767"><ele>322.0</ele><time>2026-03-22T10:34:06.225Z</time></trkpt><trkpt lat="43.5609967" lon="11.3244017"><ele>322.0</ele><time>2026-03-22T10:34:07.226Z</time></trkpt><trkpt lat="43.5611233" lon="11.3244183"><ele>320.5</ele><time>2026-03-22T10:34:08.226Z</time></trkpt><trkpt lat="43.56125" lon="11.3244217"><ele>319.0</ele><time>2026-03-22T10:34:09.225Z</time></trkpt><trkpt lat="43.5613783" lon="11.3244067"><ele>317.5</ele><time>2026-03-22T10:34:10.225Z</time></trkpt><trkpt lat="43.5615067" lon="11.3243833"><ele>316.0</ele><time>2026-03-22T10:34:11.227Z</time></trkpt><trkpt lat="43.5616283" lon="11.3243483"><ele>316.0</ele><time>2026-03-22T10:34:12.226Z</time></trkpt><trkpt lat="43.5617533" lon="11.3243133"><ele>316.0</ele><time>2026-03-22T10:34:13.226Z</time></trkpt><trkpt lat="43.5618767" lon="11.3242733"><ele>316.0</ele><time>2026-03-22T10:34:14.225Z</time></trkpt><trkpt lat="43.5619983" lon="11.3242167"><ele>316.0</ele><time>2026-03-22T10:34:15.225Z</time></trkpt><trkpt lat="43.5621167" lon="11.324145"><ele>316.75</ele><time>2026-03-22T10:34:16.224Z</time></trkpt><trkpt lat="43.562235" lon="11.3240583"><ele>317.5</ele><time>2026-03-22T10:34:17.226Z</time></trkpt><trkpt lat="43.5623583" lon="11.3239833"><ele>318.25</ele><time>2026-03-22T10:34:18.226Z</time></trkpt><trkpt lat="43.5624817" lon="11.323915"><ele>319.0</ele><time>2026-03-22T10:34:19.223Z</time></trkpt><trkpt lat="43.56261" lon="11.3238733"><ele>319.0</ele><time>2026-03-22T10:34:20.225Z</time></trkpt><trkpt lat="43.56274" lon="11.3238433"><ele>319.0</ele><time>2026-03-22T10:34:21.225Z</time></trkpt><trkpt lat="43.5628683" lon="11.3238133"><ele>319.0</ele><time>2026-03-22T10:34:22.225Z</time></trkpt><trkpt lat="43.5629933" lon="11.3237717"><ele>319.0</ele><time>2026-03-22T10:34:23.225Z</time></trkpt><trkpt lat="43.5631167" lon="11.32371"><ele>316.0</ele><time>2026-03-22T10:34:24.226Z</time></trkpt><trkpt lat="43.5632383" lon="11.323635"><ele>313.0</ele><time>2026-03-22T10:34:25.226Z</time></trkpt><trkpt lat="43.5633583" lon="11.32355"><ele>310.0</ele><time>2026-03-22T10:34:26.227Z</time></trkpt><trkpt lat="43.5634783" lon="11.32346"><ele>307.0</ele><time>2026-03-22T10:34:27.225Z</time></trkpt><trkpt lat="43.5636" lon="11.3233733"><ele>304.25</ele><time>2026-03-22T10:34:28.225Z</time></trkpt><trkpt lat="43.5637233" lon="11.3232967"><ele>301.5</ele><time>2026-03-22T10:34:29.226Z</time></trkpt><trkpt lat="43.5638483" lon="11.3232367"><ele>298.75</ele><time>2026-03-22T10:34:30.226Z</time></trkpt><trkpt lat="43.5639733" lon="11.3231967"><ele>296.0</ele><time>2026-03-22T10:34:31.226Z</time></trkpt><trkpt lat="43.5640983" lon="11.3231667"><ele>296.0</ele><time>2026-03-22T10:34:32.225Z</time></trkpt><trkpt lat="43.5642233" lon="11.3231467"><ele>296.0</ele><time>2026-03-22T10:34:33.226Z</time></trkpt><trkpt lat="43.5643417" lon="11.32313"><ele>296.0</ele><time>2026-03-22T10:34:34.225Z</time></trkpt><trkpt lat="43.5644583" lon="11.323095"><ele>296.0</ele><time>2026-03-22T10:34:35.225Z</time></trkpt><trkpt lat="43.5645667" lon="11.3230217"><ele>295.75</ele><time>2026-03-22T10:34:36.225Z</time></trkpt><trkpt lat="43.56468" lon="11.3229433"><ele>295.5</ele><time>2026-03-22T10:34:37.225Z</time></trkpt><trkpt lat="43.5647883" lon="11.3228533"><ele>295.25</ele><time>2026-03-22T10:34:38.226Z</time></trkpt><trkpt lat="43.5648933" lon="11.322765"><ele>295.0</ele><time>2026-03-22T10:34:39.225Z</time></trkpt><trkpt lat="43.56501" lon="11.3226917"><ele>295.0</ele><time>2026-03-22T10:34:40.226Z</time></trkpt><trkpt lat="43.5651283" lon="11.3226383"><ele>295.0</ele><time>2026-03-22T10:34:41.227Z</time></trkpt><trkpt lat="43.565255" lon="11.3226017"><ele>295.0</ele><time>2026-03-22T10:34:42.226Z</time></trkpt><trkpt lat="43.565385" lon="11.3225683"><ele>295.0</ele><time>2026-03-22T10:34:43.226Z</time></trkpt><trkpt lat="43.5655133" lon="11.3225517"><ele>292.5</ele><time>2026-03-22T10:34:44.226Z</time></trkpt><trkpt lat="43.565645" lon="11.3225267"><ele>290.0</ele><time>2026-03-22T10:34:45.225Z</time></trkpt><trkpt lat="43.565775" lon="11.322495"><ele>287.5</ele><time>2026-03-22T10:34:46.225Z</time></trkpt><trkpt lat="43.5658983" lon="11.3224617"><ele>285.0</ele><time>2026-03-22T10:34:47.225Z</time></trkpt><trkpt lat="43.5660233" lon="11.32243"><ele>285.0</ele><time>2026-03-22T10:34:48.226Z</time></trkpt><trkpt lat="43.5661483" lon="11.3223933"><ele>285.0</ele><time>2026-03-22T10:34:49.225Z</time></trkpt><trkpt lat="43.5662733" lon="11.322365"><ele>285.0</ele><time>2026-03-22T10:34:50.227Z</time></trkpt><trkpt lat="43.5664" lon="11.3223533"><ele>285.0</ele><time>2026-03-22T10:34:51.226Z</time></trkpt><trkpt lat="43.5665233" lon="11.3223583"><ele>284.25</ele><time>2026-03-22T10:34:52.225Z</time></trkpt><trkpt lat="43.5666383" lon="11.3223833"><ele>283.5</ele><time>2026-03-22T10:34:53.227Z</time></trkpt><trkpt lat="43.566755" lon="11.3224183"><ele>282.75</ele><time>2026-03-22T10:34:54.228Z</time></trkpt><trkpt lat="43.5668667" lon="11.32247"><ele>282.0</ele><time>2026-03-22T10:34:55.224Z</time></trkpt><trkpt lat="43.566975" lon="11.32253"><ele>282.8</ele><time>2026-03-22T10:34:56.225Z</time></trkpt><trkpt lat="43.5670733" lon="11.322595"><ele>283.6</ele><time>2026-03-22T10:34:57.227Z</time></trkpt><trkpt lat="43.5671683" lon="11.322665"><ele>284.40000000000003</ele><time>2026-03-22T10:34:58.229Z</time></trkpt><trkpt lat="43.5672683" lon="11.322725"><ele>285.2</ele><time>2026-03-22T10:34:59.227Z</time></trkpt><trkpt lat="43.5673733" lon="11.3227617"><ele>286.0</ele><time>2026-03-22T10:35:00.226Z</time></trkpt><trkpt lat="43.5674783" lon="11.3227783"><ele>286.0</ele><time>2026-03-22T10:35:01.226Z</time></trkpt><trkpt lat="43.56759" lon="11.3227717"><ele>286.0</ele><time>2026-03-22T10:35:02.226Z</time></trkpt><trkpt lat="43.56771" lon="11.322745"><ele>286.0</ele><time>2026-03-22T10:35:03.224Z</time></trkpt><trkpt lat="43.5678333" lon="11.322715"><ele>286.0</ele><time>2026-03-22T10:35:04.225Z</time></trkpt><trkpt lat="43.5679583" lon="11.3226883"><ele>284.25</ele><time>2026-03-22T10:35:05.225Z</time></trkpt><trkpt lat="43.5680867" lon="11.3226633"><ele>282.5</ele><time>2026-03-22T10:35:06.225Z</time></trkpt><trkpt lat="43.568215" lon="11.322635"><ele>280.75</ele><time>2026-03-22T10:35:07.225Z</time></trkpt><trkpt lat="43.5683433" lon="11.3226117"><ele>279.0</ele><time>2026-03-22T10:35:08.224Z</time></trkpt><trkpt lat="43.568465" lon="11.3225833"><ele>279.0</ele><time>2026-03-22T10:35:09.225Z</time></trkpt><trkpt lat="43.5685767" lon="11.3225417"><ele>279.0</ele><time>2026-03-22T10:35:10.225Z</time></trkpt><trkpt lat="43.568685" lon="11.322475"><ele>279.0</ele><time>2026-03-22T10:35:11.226Z</time></trkpt><trkpt lat="43.56879" lon="11.3223767"><ele>279.0</ele><time>2026-03-22T10:35:12.226Z</time></trkpt><trkpt lat="43.568885" lon="11.3222633"><ele>275.0</ele><time>2026-03-22T10:35:13.225Z</time></trkpt><trkpt lat="43.5689733" lon="11.3221383"><ele>271.0</ele><time>2026-03-22T10:35:14.226Z</time></trkpt><trkpt lat="43.5690467" lon="11.3220017"><ele>267.0</ele><time>2026-03-22T10:35:15.225Z</time></trkpt><trkpt lat="43.5691167" lon="11.321865"><ele>263.0</ele><time>2026-03-22T10:35:16.225Z</time></trkpt><trkpt lat="43.56918" lon="11.32172"><ele>263.0</ele><time>2026-03-22T10:35:17.225Z</time></trkpt><trkpt lat="43.56922" lon="11.3215567"><ele>263.0</ele><time>2026-03-22T10:35:18.225Z</time></trkpt><trkpt lat="43.5692433" lon="11.3213883"><ele>263.0</ele><time>2026-03-22T10:35:19.227Z</time></trkpt><trkpt lat="43.5692633" lon="11.3212217"><ele>263.0</ele><time>2026-03-22T10:35:20.225Z</time></trkpt><trkpt lat="43.56928" lon="11.3210583"><ele>262.8</ele><time>2026-03-22T10:35:21.227Z</time></trkpt><trkpt lat="43.56931" lon="11.3209067"><ele>262.6</ele><time>2026-03-22T10:35:22.224Z</time></trkpt><trkpt lat="43.5693617" lon="11.3207733"><ele>262.4</ele><time>2026-03-22T10:35:23.226Z</time></trkpt><trkpt lat="43.5694233" lon="11.3206567"><ele>262.2</ele><time>2026-03-22T10:35:24.227Z</time></trkpt><trkpt lat="43.5695133" lon="11.320575"><ele>262.0</ele><time>2026-03-22T10:35:25.226Z</time></trkpt><trkpt lat="43.5696167" lon="11.3205283"><ele>262.0</ele><time>2026-03-22T10:35:26.227Z</time></trkpt><trkpt lat="43.5697283" lon="11.3204967"><ele>262.0</ele><time>2026-03-22T10:35:27.226Z</time></trkpt><trkpt lat="43.569835" lon="11.3204783"><ele>262.0</ele><time>2026-03-22T10:35:28.224Z</time></trkpt><trkpt lat="43.569945" lon="11.320455"><ele>262.0</ele><time>2026-03-22T10:35:29.227Z</time></trkpt><trkpt lat="43.5700583" lon="11.3204267"><ele>262.0</ele><time>2026-03-22T10:35:30.226Z</time></trkpt><trkpt lat="43.5701667" lon="11.3203967"><ele>262.0</ele><time>2026-03-22T10:35:31.225Z</time></trkpt><trkpt lat="43.5702717" lon="11.3203633"><ele>262.0</ele><time>2026-03-22T10:35:32.226Z</time></trkpt><trkpt lat="43.5703733" lon="11.320335"><ele>262.0</ele><time>2026-03-22T10:35:33.225Z</time></trkpt><trkpt lat="43.57048" lon="11.3203017"><ele>262.0</ele><time>2026-03-22T10:35:34.226Z</time></trkpt><trkpt lat="43.5705867" lon="11.32027"><ele>262.0</ele><time>2026-03-22T10:35:35.225Z</time></trkpt><trkpt lat="43.57069" lon="11.3202383"><ele>261.4</ele><time>2026-03-22T10:35:36.226Z</time></trkpt><trkpt lat="43.570795" lon="11.3201967"><ele>260.79999999999995</ele><time>2026-03-22T10:35:37.228Z</time></trkpt><trkpt lat="43.570895" lon="11.3201483"><ele>260.2</ele><time>2026-03-22T10:35:38.227Z</time></trkpt><trkpt lat="43.570995" lon="11.3201"><ele>259.59999999999997</ele><time>2026-03-22T10:35:39.225Z</time></trkpt><trkpt lat="43.5710917" lon="11.3200533"><ele>259.0</ele><time>2026-03-22T10:35:40.225Z</time></trkpt><trkpt lat="43.5711867" lon="11.3200083"><ele>257.2</ele><time>2026-03-22T10:35:41.225Z</time></trkpt><trkpt lat="43.5712833" lon="11.31996"><ele>255.39999999999998</ele><time>2026-03-22T10:35:42.226Z</time></trkpt><trkpt lat="43.57138" lon="11.319905"><ele>253.6</ele><time>2026-03-22T10:35:43.225Z</time></trkpt><trkpt lat="43.5714767" lon="11.3198533"><ele>251.8</ele><time>2026-03-22T10:35:44.226Z</time></trkpt><trkpt lat="43.5715717" lon="11.319805"><ele>250.0</ele><time>2026-03-22T10:35:45.225Z</time></trkpt><trkpt lat="43.5716667" lon="11.31976"><ele>251.6</ele><time>2026-03-22T10:35:46.227Z</time></trkpt><trkpt lat="43.5717583" lon="11.3197133"><ele>253.2</ele><time>2026-03-22T10:35:47.228Z</time></trkpt><trkpt lat="43.5718517" lon="11.3196617"><ele>254.8</ele><time>2026-03-22T10:35:48.225Z</time></trkpt><trkpt lat="43.5719433" lon="11.31961"><ele>256.4</ele><time>2026-03-22T10:35:49.227Z</time></trkpt><trkpt lat="43.5720367" lon="11.3195633"><ele>258.0</ele><time>2026-03-22T10:35:50.225Z</time></trkpt><trkpt lat="43.57213" lon="11.3195183"><ele>258.0</ele><time>2026-03-22T10:35:51.225Z</time></trkpt><trkpt lat="43.5722233" lon="11.3194733"><ele>258.0</ele><time>2026-03-22T10:35:52.224Z</time></trkpt><trkpt lat="43.5723133" lon="11.3194317"><ele>258.0</ele><time>2026-03-22T10:35:53.227Z</time></trkpt><trkpt lat="43.5724067" lon="11.319385"><ele>258.0</ele><time>2026-03-22T10:35:54.227Z</time></trkpt><trkpt lat="43.5724967" lon="11.3193367"><ele>258.0</ele><time>2026-03-22T10:35:55.225Z</time></trkpt><trkpt lat="43.572585" lon="11.3192917"><ele>258.0</ele><time>2026-03-22T10:35:56.225Z</time></trkpt><trkpt lat="43.5726733" lon="11.319245"><ele>258.0</ele><time>2026-03-22T10:35:57.225Z</time></trkpt><trkpt lat="43.5727633" lon="11.3192"><ele>258.0</ele><time>2026-03-22T10:35:58.226Z</time></trkpt><trkpt lat="43.57285" lon="11.3191533"><ele>258.0</ele><time>2026-03-22T10:35:59.225Z</time></trkpt><trkpt lat="43.5729367" lon="11.31911"><ele>258.0</ele><time>2026-03-22T10:36:00.226Z</time></trkpt><trkpt lat="43.5730233" lon="11.3190617"><ele>256.2</ele><time>2026-03-22T10:36:01.225Z</time></trkpt><trkpt lat="43.5731083" lon="11.3190183"><ele>254.4</ele><time>2026-03-22T10:36:02.225Z</time></trkpt><trkpt lat="43.573195" lon="11.3189783"><ele>252.59999999999997</ele><time>2026-03-22T10:36:03.226Z</time></trkpt><trkpt lat="43.57328" lon="11.3189367"><ele>250.79999999999998</ele><time>2026-03-22T10:36:04.225Z</time></trkpt><trkpt lat="43.573365" lon="11.318895"><ele>249.0</ele><time>2026-03-22T10:36:05.227Z</time></trkpt><trkpt lat="43.5734483" lon="11.3188533"><ele>250.5</ele><time>2026-03-22T10:36:06.225Z</time></trkpt><trkpt lat="43.5735283" lon="11.318815"><ele>252.0</ele><time>2026-03-22T10:36:07.225Z</time></trkpt><trkpt lat="43.5736133" lon="11.318775"><ele>253.5</ele><time>2026-03-22T10:36:08.225Z</time></trkpt><trkpt lat="43.5736967" lon="11.31874"><ele>255.0</ele><time>2026-03-22T10:36:09.225Z</time></trkpt><trkpt lat="43.573775" lon="11.3187"><ele>256.5</ele><time>2026-03-22T10:36:10.225Z</time></trkpt><trkpt lat="43.5738517" lon="11.3186617"><ele>258.0</ele><time>2026-03-22T10:36:11.225Z</time></trkpt><trkpt lat="43.5739317" lon="11.3186217"><ele>258.0</ele><time>2026-03-22T10:36:12.226Z</time></trkpt><trkpt lat="43.57401" lon="11.3185917"><ele>258.0</ele><time>2026-03-22T10:36:13.225Z</time></trkpt><trkpt lat="43.5740883" lon="11.3185533"><ele>258.0</ele><time>2026-03-22T10:36:14.226Z</time></trkpt><trkpt lat="43.5741733" lon="11.3185117"><ele>258.0</ele><time>2026-03-22T10:36:15.225Z</time></trkpt><trkpt lat="43.57426" lon="11.31847"><ele>258.0</ele><time>2026-03-22T10:36:16.225Z</time></trkpt><trkpt lat="43.574345" lon="11.3184317"><ele>258.0</ele><time>2026-03-22T10:36:17.226Z</time></trkpt><trkpt lat="43.5744333" lon="11.318385"><ele>255.0</ele><time>2026-03-22T10:36:18.227Z</time></trkpt><trkpt lat="43.5745217" lon="11.3183367"><ele>252.0</ele><time>2026-03-22T10:36:19.225Z</time></trkpt><trkpt lat="43.5746083" lon="11.3182967"><ele>249.0</ele><time>2026-03-22T10:36:20.225Z</time></trkpt><trkpt lat="43.5746967" lon="11.31825"><ele>246.0</ele><time>2026-03-22T10:36:21.225Z</time></trkpt><trkpt lat="43.57478" lon="11.31821"><ele>243.0</ele><time>2026-03-22T10:36:22.225Z</time></trkpt><trkpt lat="43.57487" lon="11.3181633"><ele>243.0</ele><time>2026-03-22T10:36:23.225Z</time></trkpt><trkpt lat="43.5749633" lon="11.3181217"><ele>243.0</ele><time>2026-03-22T10:36:24.225Z</time></trkpt><trkpt lat="43.5750433" lon="11.318085"><ele>243.0</ele><time>2026-03-22T10:36:25.225Z</time></trkpt><trkpt lat="43.575125" lon="11.318045"><ele>243.0</ele><time>2026-03-22T10:36:26.225Z</time></trkpt><trkpt lat="43.5752117" lon="11.318005"><ele>243.0</ele><time>2026-03-22T10:36:27.225Z</time></trkpt><trkpt lat="43.5753117" lon="11.31794"><ele>243.2</ele><time>2026-03-22T10:36:28.225Z</time></trkpt><trkpt lat="43.5753983" lon="11.317895"><ele>243.4</ele><time>2026-03-22T10:36:29.226Z</time></trkpt><trkpt lat="43.5754867" lon="11.3178517"><ele>243.59999999999997</ele><time>2026-03-22T10:36:30.226Z</time></trkpt><trkpt lat="43.57557" lon="11.3178017"><ele>243.79999999999998</ele><time>2026-03-22T10:36:31.226Z</time></trkpt><trkpt lat="43.5756517" lon="11.3177567"><ele>244.0</ele><time>2026-03-22T10:36:32.226Z</time></trkpt><trkpt lat="43.5757367" lon="11.3177167"><ele>244.0</ele><time>2026-03-22T10:36:33.226Z</time></trkpt><trkpt lat="43.575825" lon="11.3176783"><ele>243.99999999999997</ele><time>2026-03-22T10:36:34.225Z</time></trkpt><trkpt lat="43.57591" lon="11.31764"><ele>243.99999999999997</ele><time>2026-03-22T10:36:35.226Z</time></trkpt><trkpt lat="43.5759967" lon="11.317605"><ele>244.0</ele><time>2026-03-22T10:36:36.225Z</time></trkpt><trkpt lat="43.5760833" lon="11.31757"><ele>244.0</ele><time>2026-03-22T10:36:37.225Z</time></trkpt><trkpt lat="43.5761683" lon="11.31753"><ele>243.2</ele><time>2026-03-22T10:36:38.225Z</time></trkpt><trkpt lat="43.5762533" lon="11.3174917"><ele>242.39999999999998</ele><time>2026-03-22T10:36:39.225Z</time></trkpt><trkpt lat="43.5763433" lon="11.3174417"><ele>241.6</ele><time>2026-03-22T10:36:40.226Z</time></trkpt><trkpt lat="43.5764317" lon="11.3174017"><ele>240.8</ele><time>2026-03-22T10:36:41.225Z</time></trkpt><trkpt lat="43.57652" lon="11.3173567"><ele>240.0</ele><time>2026-03-22T10:36:42.225Z</time></trkpt><trkpt lat="43.5766083" lon="11.3173067"><ele>240.0</ele><time>2026-03-22T10:36:43.227Z</time></trkpt><trkpt lat="43.5766967" lon="11.3172583"><ele>240.0</ele><time>2026-03-22T10:36:44.227Z</time></trkpt><trkpt lat="43.5767833" lon="11.3172133"><ele>240.0</ele><time>2026-03-22T10:36:45.225Z</time></trkpt><trkpt lat="43.57687" lon="11.3171667"><ele>240.0</ele><time>2026-03-22T10:36:46.228Z</time></trkpt><trkpt lat="43.5769583" lon="11.3171233"><ele>240.0</ele><time>2026-03-22T10:36:47.226Z</time></trkpt><trkpt lat="43.5770433" lon="11.3170917"><ele>240.8</ele><time>2026-03-22T10:36:48.226Z</time></trkpt><trkpt lat="43.5771267" lon="11.317045"><ele>241.6</ele><time>2026-03-22T10:36:49.226Z</time></trkpt><trkpt lat="43.57721" lon="11.317005"><ele>242.39999999999998</ele><time>2026-03-22T10:36:50.227Z</time></trkpt><trkpt lat="43.5772983" lon="11.31697"><ele>243.2</ele><time>2026-03-22T10:36:51.225Z</time></trkpt><trkpt lat="43.577385" lon="11.31693"><ele>244.0</ele><time>2026-03-22T10:36:52.227Z</time></trkpt><trkpt lat="43.5774733" lon="11.3169017"><ele>244.0</ele><time>2026-03-22T10:36:53.227Z</time></trkpt><trkpt lat="43.5775633" lon="11.3168717"><ele>243.99999999999997</ele><time>2026-03-22T10:36:54.226Z</time></trkpt><trkpt lat="43.5776533" lon="11.31684"><ele>243.99999999999997</ele><time>2026-03-22T10:36:55.226Z</time></trkpt><trkpt lat="43.5777433" lon="11.3168117"><ele>244.0</ele><time>2026-03-22T10:36:56.226Z</time></trkpt><trkpt lat="43.5778333" lon="11.31678"><ele>244.0</ele><time>2026-03-22T10:36:57.227Z</time></trkpt><trkpt lat="43.5779233" lon="11.3167517"><ele>243.2</ele><time>2026-03-22T10:36:58.227Z</time></trkpt><trkpt lat="43.5780117" lon="11.3167233"><ele>242.39999999999998</ele><time>2026-03-22T10:36:59.227Z</time></trkpt><trkpt lat="43.5781017" lon="11.316695"><ele>241.6</ele><time>2026-03-22T10:37:00.226Z</time></trkpt><trkpt lat="43.5781917" lon="11.31667"><ele>240.8</ele><time>2026-03-22T10:37:01.225Z</time></trkpt><trkpt lat="43.578285" lon="11.31665"><ele>240.0</ele><time>2026-03-22T10:37:02.227Z</time></trkpt><trkpt lat="43.5783767" lon="11.3166333"><ele>240.0</ele><time>2026-03-22T10:37:03.225Z</time></trkpt><trkpt lat="43.5784683" lon="11.3166233"><ele>240.0</ele><time>2026-03-22T10:37:04.226Z</time></trkpt><trkpt lat="43.5785667" lon="11.3166167"><ele>240.0</ele><time>2026-03-22T10:37:05.227Z</time></trkpt><trkpt lat="43.5786683" lon="11.3166167"><ele>240.0</ele><time>2026-03-22T10:37:06.226Z</time></trkpt><trkpt lat="43.57877" lon="11.316635"><ele>240.0</ele><time>2026-03-22T10:37:07.225Z</time></trkpt><trkpt lat="43.57887" lon="11.31666"><ele>239.8</ele><time>2026-03-22T10:37:08.227Z</time></trkpt><trkpt lat="43.5789667" lon="11.3166983"><ele>239.6</ele><time>2026-03-22T10:37:09.225Z</time></trkpt><trkpt lat="43.579065" lon="11.3167417"><ele>239.39999999999998</ele><time>2026-03-22T10:37:10.226Z</time></trkpt><trkpt lat="43.57917" lon="11.3167783"><ele>239.2</ele><time>2026-03-22T10:37:11.225Z</time></trkpt><trkpt lat="43.5792683" lon="11.3168233"><ele>239.0</ele><time>2026-03-22T10:37:12.226Z</time></trkpt><trkpt lat="43.5793617" lon="11.3168583"><ele>239.0</ele><time>2026-03-22T10:37:13.226Z</time></trkpt><trkpt lat="43.5794517" lon="11.3168783"><ele>238.99999999999997</ele><time>2026-03-22T10:37:14.225Z</time></trkpt><trkpt lat="43.5795383" lon="11.3168917"><ele>238.99999999999997</ele><time>2026-03-22T10:37:15.226Z</time></trkpt><trkpt lat="43.5796333" lon="11.31692"><ele>239.0</ele><time>2026-03-22T10:37:16.225Z</time></trkpt><trkpt lat="43.5797283" lon="11.3169517"><ele>239.0</ele><time>2026-03-22T10:37:17.227Z</time></trkpt><trkpt lat="43.5798233" lon="11.3169867"><ele>238.39999999999998</ele><time>2026-03-22T10:37:18.227Z</time></trkpt><trkpt lat="43.5799217" lon="11.3170217"><ele>237.79999999999998</ele><time>2026-03-22T10:37:19.226Z</time></trkpt><trkpt lat="43.580015" lon="11.31707"><ele>237.20000000000002</ele><time>2026-03-22T10:37:20.226Z</time></trkpt><trkpt lat="43.5801017" lon="11.31712"><ele>236.60000000000002</ele><time>2026-03-22T10:37:21.228Z</time></trkpt><trkpt lat="43.580185" lon="11.317195"><ele>236.0</ele><time>2026-03-22T10:37:22.226Z</time></trkpt><trkpt lat="43.58027" lon="11.317285"><ele>236.20000000000002</ele><time>2026-03-22T10:37:23.227Z</time></trkpt><trkpt lat="43.5803533" lon="11.317375"><ele>236.40000000000003</ele><time>2026-03-22T10:37:24.227Z</time></trkpt><trkpt lat="43.5804417" lon="11.3174617"><ele>236.6</ele><time>2026-03-22T10:37:25.228Z</time></trkpt><trkpt lat="43.5805383" lon="11.3175333"><ele>236.8</ele><time>2026-03-22T10:37:26.227Z</time></trkpt><trkpt lat="43.58063" lon="11.3176117"><ele>237.0</ele><time>2026-03-22T10:37:27.225Z</time></trkpt><trkpt lat="43.5807217" lon="11.3176867"><ele>237.0</ele><time>2026-03-22T10:37:28.225Z</time></trkpt><trkpt lat="43.580815" lon="11.3177617"><ele>237.0</ele><time>2026-03-22T10:37:29.226Z</time></trkpt><trkpt lat="43.5809067" lon="11.3178317"><ele>237.0</ele><time>2026-03-22T10:37:30.228Z</time></trkpt><trkpt lat="43.5809967" lon="11.31789"><ele>237.0</ele><time>2026-03-22T10:37:31.226Z</time></trkpt><trkpt lat="43.5810983" lon="11.3179217"><ele>237.0</ele><time>2026-03-22T10:37:32.226Z</time></trkpt><trkpt lat="43.5812033" lon="11.31793"><ele>237.39999999999998</ele><time>2026-03-22T10:37:33.225Z</time></trkpt><trkpt lat="43.5813083" lon="11.31792"><ele>237.79999999999998</ele><time>2026-03-22T10:37:34.225Z</time></trkpt><trkpt lat="43.581405" lon="11.3179083"><ele>238.2</ele><time>2026-03-22T10:37:35.227Z</time></trkpt><trkpt lat="43.5815017" lon="11.3178967"><ele>238.6</ele><time>2026-03-22T10:37:36.227Z</time></trkpt><trkpt lat="43.581595" lon="11.3178817"><ele>239.0</ele><time>2026-03-22T10:37:37.225Z</time></trkpt><trkpt lat="43.5816917" lon="11.3178783"><ele>239.0</ele><time>2026-03-22T10:37:38.227Z</time></trkpt><trkpt lat="43.58179" lon="11.31791"><ele>238.99999999999997</ele><time>2026-03-22T10:37:39.226Z</time></trkpt><trkpt lat="43.5818783" lon="11.3179433"><ele>238.99999999999997</ele><time>2026-03-22T10:37:40.225Z</time></trkpt><trkpt lat="43.581965" lon="11.3179733"><ele>239.0</ele><time>2026-03-22T10:37:41.227Z</time></trkpt><trkpt lat="43.58205" lon="11.3180117"><ele>239.0</ele><time>2026-03-22T10:37:42.227Z</time></trkpt><trkpt lat="43.5821383" lon="11.3180183"><ele>238.50000000000003</ele><time>2026-03-22T10:37:43.228Z</time></trkpt><trkpt lat="43.582225" lon="11.31801"><ele>238.0</ele><time>2026-03-22T10:37:44.225Z</time></trkpt><trkpt lat="43.5823" lon="11.31799"><ele>237.5</ele><time>2026-03-22T10:37:45.226Z</time></trkpt><trkpt lat="43.5823733" lon="11.3179633"><ele>237.0</ele><time>2026-03-22T10:37:46.226Z</time></trkpt><trkpt lat="43.5824417" lon="11.3179417"><ele>236.50000000000003</ele><time>2026-03-22T10:37:47.225Z</time></trkpt><trkpt lat="43.582505" lon="11.317925"><ele>236.0</ele><time>2026-03-22T10:37:48.227Z</time></trkpt><trkpt lat="43.582585" lon="11.3178917"><ele>236.00000000000003</ele><time>2026-03-22T10:37:50.226Z</time></trkpt><trkpt lat="43.5826567" lon="11.31785"><ele>236.0</ele><time>2026-03-22T10:37:57.223Z</time></trkpt><trkpt lat="43.582735" lon="11.3178067"><ele>236.0</ele><time>2026-03-22T10:38:01.226Z</time></trkpt><trkpt lat="43.5828067" lon="11.31776"><ele>236.0</ele><time>2026-03-22T10:38:03.225Z</time></trkpt><trkpt lat="43.5828733" lon="11.317735"><ele>236.00000000000003</ele><time>2026-03-22T10:38:05.226Z</time></trkpt><trkpt lat="43.582945" lon="11.3177317"><ele>236.0</ele><time>2026-03-22T10:38:07.225Z</time></trkpt><trkpt lat="43.5829867" lon="11.3178183"><ele>235.8</ele><time>2026-03-22T10:38:09.225Z</time></trkpt><trkpt lat="43.5829867" lon="11.3179467"><ele>235.60000000000002</ele><time>2026-03-22T10:38:11.226Z</time></trkpt><trkpt lat="43.582985" lon="11.3180767"><ele>235.4</ele><time>2026-03-22T10:38:13.227Z</time></trkpt><trkpt lat="43.5829983" lon="11.3182367"><ele>235.2</ele><time>2026-03-22T10:38:15.225Z</time></trkpt><trkpt lat="43.5830117" lon="11.31839"><ele>235.0</ele><time>2026-03-22T10:38:17.226Z</time></trkpt><trkpt lat="43.5830167" lon="11.3185483"><ele>235.0</ele><time>2026-03-22T10:38:19.227Z</time></trkpt><trkpt lat="43.583015" lon="11.31871"><ele>235.0</ele><time>2026-03-22T10:38:21.227Z</time></trkpt><trkpt lat="43.5830317" lon="11.3188517"><ele>235.0</ele><time>2026-03-22T10:38:23.226Z</time></trkpt><trkpt lat="43.5830483" lon="11.31898"><ele>235.0</ele><time>2026-03-22T10:38:25.226Z</time></trkpt><trkpt lat="43.5830583" lon="11.3191017"><ele>235.0</ele><time>2026-03-22T10:38:27.226Z</time></trkpt><trkpt lat="43.5830683" lon="11.3192"><ele>236.49999999999997</ele><time>2026-03-22T10:38:29.226Z</time></trkpt><trkpt lat="43.5830817" lon="11.3193133"><ele>238.0</ele><time>2026-03-22T10:38:31.226Z</time></trkpt><trkpt lat="43.583095" lon="11.3194233"><ele>239.5</ele><time>2026-03-22T10:38:33.224Z</time></trkpt><trkpt lat="43.5831083" lon="11.3195183"><ele>241.0</ele><time>2026-03-22T10:38:35.225Z</time></trkpt><trkpt lat="43.58312" lon="11.3196233"><ele>242.49999999999997</ele><time>2026-03-22T10:38:37.225Z</time></trkpt><trkpt lat="43.5831367" lon="11.3197217"><ele>244.0</ele><time>2026-03-22T10:38:39.224Z</time></trkpt><trkpt lat="43.583165" lon="11.3198133"><ele>245.1428571428571</ele><time>2026-03-22T10:38:41.227Z</time></trkpt><trkpt lat="43.5831867" lon="11.3199083"><ele>246.28571428571428</ele><time>2026-03-22T10:38:43.225Z</time></trkpt><trkpt lat="43.5832" lon="11.3200083"><ele>247.42857142857142</ele><time>2026-03-22T10:38:45.225Z</time></trkpt><trkpt lat="43.5832" lon="11.3201117"><ele>248.57142857142856</ele><time>2026-03-22T10:38:47.227Z</time></trkpt><trkpt lat="43.5832117" lon="11.3202233"><ele>249.71428571428572</ele><time>2026-03-22T10:38:49.225Z</time></trkpt><trkpt lat="43.5832267" lon="11.3203217"><ele>250.85714285714286</ele><time>2026-03-22T10:38:51.226Z</time></trkpt><trkpt lat="43.58324" lon="11.32042"><ele>252.0</ele><time>2026-03-22T10:38:53.225Z</time></trkpt><trkpt lat="43.583245" lon="11.320515"><ele>251.83333333333334</ele><time>2026-03-22T10:38:55.226Z</time></trkpt><trkpt lat="43.5832683" lon="11.32061"><ele>251.66666666666669</ele><time>2026-03-22T10:38:57.226Z</time></trkpt><trkpt lat="43.583265" lon="11.320715"><ele>251.5</ele><time>2026-03-22T10:38:59.225Z</time></trkpt><trkpt lat="43.5832667" lon="11.3208267"><ele>251.33333333333334</ele><time>2026-03-22T10:39:01.227Z</time></trkpt><trkpt lat="43.5832733" lon="11.3209433"><ele>251.16666666666669</ele><time>2026-03-22T10:39:03.225Z</time></trkpt><trkpt lat="43.5832767" lon="11.3210667"><ele>251.0</ele><time>2026-03-22T10:39:05.226Z</time></trkpt><trkpt lat="43.5832867" lon="11.3211783"><ele>251.00000000000003</ele><time>2026-03-22T10:39:07.226Z</time></trkpt><trkpt lat="43.5832933" lon="11.3212833"><ele>251.0</ele><time>2026-03-22T10:39:09.225Z</time></trkpt><trkpt lat="43.5833067" lon="11.3214033"><ele>251.0</ele><time>2026-03-22T10:39:11.226Z</time></trkpt><trkpt lat="43.5833167" lon="11.3215217"><ele>251.0</ele><time>2026-03-22T10:39:13.225Z</time></trkpt><trkpt lat="43.5833267" lon="11.321635"><ele>251.00000000000003</ele><time>2026-03-22T10:39:15.225Z</time></trkpt><trkpt lat="43.5833417" lon="11.321745"><ele>251.0</ele><time>2026-03-22T10:39:17.225Z</time></trkpt><trkpt lat="43.5833533" lon="11.3218567"><ele>251.0</ele><time>2026-03-22T10:39:19.226Z</time></trkpt><trkpt lat="43.58337" lon="11.3219933"><ele>251.00000000000003</ele><time>2026-03-22T10:39:21.226Z</time></trkpt><trkpt lat="43.583395" lon="11.3221283"><ele>251.00000000000003</ele><time>2026-03-22T10:39:23.227Z</time></trkpt><trkpt lat="43.583405" lon="11.3222617"><ele>251.0</ele><time>2026-03-22T10:39:25.225Z</time></trkpt><trkpt lat="43.58341" lon="11.32239"><ele>251.0</ele><time>2026-03-22T10:39:27.227Z</time></trkpt><trkpt lat="43.5834233" lon="11.3225183"><ele>251.0</ele><time>2026-03-22T10:39:29.225Z</time></trkpt><trkpt lat="43.583445" lon="11.3226333"><ele>251.00000000000003</ele><time>2026-03-22T10:39:31.225Z</time></trkpt><trkpt lat="43.5834567" lon="11.3227717"><ele>251.00000000000003</ele><time>2026-03-22T10:39:33.226Z</time></trkpt><trkpt lat="43.5834717" lon="11.3229067"><ele>251.0</ele><time>2026-03-22T10:39:35.227Z</time></trkpt><trkpt lat="43.5834833" lon="11.3230417"><ele>251.0</ele><time>2026-03-22T10:39:37.227Z</time></trkpt><trkpt lat="43.5834867" lon="11.323165"><ele>251.0</ele><time>2026-03-22T10:39:39.226Z</time></trkpt><trkpt lat="43.5834967" lon="11.3233"><ele>251.00000000000003</ele><time>2026-03-22T10:39:41.225Z</time></trkpt><trkpt lat="43.58351" lon="11.3234283"><ele>251.00000000000003</ele><time>2026-03-22T10:39:43.227Z</time></trkpt><trkpt lat="43.5835233" lon="11.3235567"><ele>251.0</ele><time>2026-03-22T10:39:45.227Z</time></trkpt><trkpt lat="43.5835333" lon="11.3236867"><ele>251.0</ele><time>2026-03-22T10:39:47.225Z</time></trkpt><trkpt lat="43.5835417" lon="11.323815"><ele>251.8</ele><time>2026-03-22T10:39:49.227Z</time></trkpt><trkpt lat="43.5835483" lon="11.3239417"><ele>252.60000000000002</ele><time>2026-03-22T10:39:51.227Z</time></trkpt><trkpt lat="43.5835617" lon="11.32407"><ele>253.4</ele><time>2026-03-22T10:39:53.227Z</time></trkpt><trkpt lat="43.583575" lon="11.3241967"><ele>254.2</ele><time>2026-03-22T10:39:55.226Z</time></trkpt><trkpt lat="43.5835867" lon="11.324325"><ele>255.0</ele><time>2026-03-22T10:39:57.226Z</time></trkpt><trkpt lat="43.5835983" lon="11.3244567"><ele>255.0</ele><time>2026-03-22T10:39:59.228Z</time></trkpt><trkpt lat="43.5836183" lon="11.32458"><ele>255.0</ele><time>2026-03-22T10:40:01.226Z</time></trkpt><trkpt lat="43.5836383" lon="11.32471"><ele>255.0</ele><time>2026-03-22T10:40:03.226Z</time></trkpt><trkpt lat="43.5836533" lon="11.3248417"><ele>255.0</ele><time>2026-03-22T10:40:05.226Z</time></trkpt><trkpt lat="43.5836617" lon="11.32497"><ele>255.0</ele><time>2026-03-22T10:40:07.225Z</time></trkpt><trkpt lat="43.5836833" lon="11.3250833"><ele>256.8</ele><time>2026-03-22T10:40:09.225Z</time></trkpt><trkpt lat="43.5836983" lon="11.32521"><ele>258.6</ele><time>2026-03-22T10:40:11.226Z</time></trkpt><trkpt lat="43.58371" lon="11.3253433"><ele>260.4</ele><time>2026-03-22T10:40:13.227Z</time></trkpt><trkpt lat="43.58371" lon="11.32547"><ele>262.2</ele><time>2026-03-22T10:40:15.228Z</time></trkpt><trkpt lat="43.5837167" lon="11.3255983"><ele>264.0</ele><time>2026-03-22T10:40:17.223Z</time></trkpt><trkpt lat="43.58373" lon="11.3257183"><ele>264.0</ele><time>2026-03-22T10:40:19.227Z</time></trkpt><trkpt lat="43.58374" lon="11.32583"><ele>264.0</ele><time>2026-03-22T10:40:21.226Z</time></trkpt><trkpt lat="43.5837633" lon="11.32596"><ele>264.0</ele><time>2026-03-22T10:40:23.225Z</time></trkpt><trkpt lat="43.5837967" lon="11.3260767"><ele>264.0</ele><time>2026-03-22T10:40:25.226Z</time></trkpt><trkpt lat="43.5838367" lon="11.3261817"><ele>264.0</ele><time>2026-03-22T10:40:27.226Z</time></trkpt><trkpt lat="43.5838867" lon="11.3262817"><ele>264.0</ele><time>2026-03-22T10:40:29.225Z</time></trkpt><trkpt lat="43.5839333" lon="11.3263783"><ele>264.3333333333333</ele><time>2026-03-22T10:40:31.226Z</time></trkpt><trkpt lat="43.583985" lon="11.326465"><ele>264.6666666666667</ele><time>2026-03-22T10:40:33.226Z</time></trkpt><trkpt lat="43.5840433" lon="11.3265433"><ele>265.0</ele><time>2026-03-22T10:40:35.227Z</time></trkpt><trkpt lat="43.584095" lon="11.32662"><ele>265.33333333333337</ele><time>2026-03-22T10:40:37.228Z</time></trkpt><trkpt lat="43.584145" lon="11.326695"><ele>265.6666666666667</ele><time>2026-03-22T10:40:39.225Z</time></trkpt><trkpt lat="43.584195" lon="11.3267783"><ele>266.0</ele><time>2026-03-22T10:40:41.226Z</time></trkpt><trkpt lat="43.5842483" lon="11.3268533"><ele>266.0</ele><time>2026-03-22T10:40:43.225Z</time></trkpt><trkpt lat="43.5842867" lon="11.326925"><ele>266.0</ele><time>2026-03-22T10:40:45.225Z</time></trkpt><trkpt lat="43.5843283" lon="11.327015"><ele>266.0</ele><time>2026-03-22T10:40:47.227Z</time></trkpt><trkpt lat="43.5843717" lon="11.327105"><ele>266.0</ele><time>2026-03-22T10:40:49.225Z</time></trkpt><trkpt lat="43.5844117" lon="11.3272017"><ele>266.0</ele><time>2026-03-22T10:40:51.225Z</time></trkpt><trkpt lat="43.5844483" lon="11.3273017"><ele>266.0</ele><time>2026-03-22T10:40:53.225Z</time></trkpt><trkpt lat="43.5844717" lon="11.3274083"><ele>266.33333333333337</ele><time>2026-03-22T10:40:55.225Z</time></trkpt><trkpt lat="43.5844917" lon="11.3275183"><ele>266.6666666666667</ele><time>2026-03-22T10:40:57.225Z</time></trkpt><trkpt lat="43.58451" lon="11.3276233"><ele>267.0</ele><time>2026-03-22T10:40:59.226Z</time></trkpt><trkpt lat="43.584515" lon="11.3277283"><ele>267.3333333333333</ele><time>2026-03-22T10:41:01.225Z</time></trkpt><trkpt lat="43.5845417" lon="11.327825"><ele>267.66666666666663</ele><time>2026-03-22T10:41:03.226Z</time></trkpt><trkpt lat="43.5845517" lon="11.327925"><ele>268.0</ele><time>2026-03-22T10:41:05.226Z</time></trkpt><trkpt lat="43.5845667" lon="11.3280267"><ele>268.7142857142857</ele><time>2026-03-22T10:41:07.225Z</time></trkpt><trkpt lat="43.5845767" lon="11.3281217"><ele>269.42857142857144</ele><time>2026-03-22T10:41:09.226Z</time></trkpt><trkpt lat="43.5845917" lon="11.32822"><ele>270.1428571428571</ele><time>2026-03-22T10:41:11.225Z</time></trkpt><trkpt lat="43.5846033" lon="11.328315"><ele>270.8571428571429</ele><time>2026-03-22T10:41:13.226Z</time></trkpt><trkpt lat="43.5846167" lon="11.3284083"><ele>271.57142857142856</ele><time>2026-03-22T10:41:15.225Z</time></trkpt><trkpt lat="43.5846283" lon="11.3285083"><ele>272.2857142857143</ele><time>2026-03-22T10:41:17.226Z</time></trkpt><trkpt lat="43.5846433" lon="11.3286033"><ele>273.0</ele><time>2026-03-22T10:41:19.227Z</time></trkpt><trkpt lat="43.5846583" lon="11.328695"><ele>273.0</ele><time>2026-03-22T10:41:21.227Z</time></trkpt><trkpt lat="43.5846733" lon="11.3287933"><ele>273.0</ele><time>2026-03-22T10:41:23.227Z</time></trkpt><trkpt lat="43.5846867" lon="11.3288883"><ele>273.0</ele><time>2026-03-22T10:41:25.226Z</time></trkpt><trkpt lat="43.5846983" lon="11.328985"><ele>273.0</ele><time>2026-03-22T10:41:27.226Z</time></trkpt><trkpt lat="43.58471" lon="11.3290767"><ele>273.0</ele><time>2026-03-22T10:41:29.226Z</time></trkpt><trkpt lat="43.5847233" lon="11.3291633"><ele>273.0</ele><time>2026-03-22T10:41:31.226Z</time></trkpt><trkpt lat="43.5847417" lon="11.3292517"><ele>273.0</ele><time>2026-03-22T10:41:33.23Z</time></trkpt><trkpt lat="43.584755" lon="11.3293467"><ele>273.7142857142857</ele><time>2026-03-22T10:41:35.227Z</time></trkpt><trkpt lat="43.584765" lon="11.3294417"><ele>274.42857142857144</ele><time>2026-03-22T10:41:37.225Z</time></trkpt><trkpt lat="43.5847783" lon="11.3295333"><ele>275.1428571428571</ele><time>2026-03-22T10:41:39.226Z</time></trkpt><trkpt lat="43.5847917" lon="11.329625"><ele>275.8571428571429</ele><time>2026-03-22T10:41:41.225Z</time></trkpt><trkpt lat="43.584805" lon="11.32972"><ele>276.57142857142856</ele><time>2026-03-22T10:41:43.228Z</time></trkpt><trkpt lat="43.5848217" lon="11.32981"><ele>277.2857142857143</ele><time>2026-03-22T10:41:45.227Z</time></trkpt><trkpt lat="43.584835" lon="11.3299017"><ele>278.0</ele><time>2026-03-22T10:41:47.227Z</time></trkpt><trkpt lat="43.58484" lon="11.33"><ele>278.42857142857144</ele><time>2026-03-22T10:41:49.226Z</time></trkpt><trkpt lat="43.584835" lon="11.33009"><ele>278.8571428571429</ele><time>2026-03-22T10:41:51.225Z</time></trkpt><trkpt lat="43.58483" lon="11.33018"><ele>279.28571428571433</ele><time>2026-03-22T10:41:53.227Z</time></trkpt><trkpt lat="43.584805" lon="11.3303033"><ele>279.7142857142857</ele><time>2026-03-22T10:41:56.227Z</time></trkpt><trkpt lat="43.58477" lon="11.3303767"><ele>280.14285714285717</ele><time>2026-03-22T10:41:58.226Z</time></trkpt><trkpt lat="43.58473" lon="11.3304567"><ele>280.5714285714286</ele><time>2026-03-22T10:42:00.225Z</time></trkpt><trkpt lat="43.5846833" lon="11.330535"><ele>281.0</ele><time>2026-03-22T10:42:02.226Z</time></trkpt><trkpt lat="43.5846267" lon="11.33061"><ele>281.83333333333337</ele><time>2026-03-22T10:42:04.224Z</time></trkpt><trkpt lat="43.5845767" lon="11.3306883"><ele>282.6666666666667</ele><time>2026-03-22T10:42:06.225Z</time></trkpt><trkpt lat="43.5845283" lon="11.3307667"><ele>283.5</ele><time>2026-03-22T10:42:08.225Z</time></trkpt><trkpt lat="43.584475" lon="11.330845"><ele>284.3333333333333</ele><time>2026-03-22T10:42:10.225Z</time></trkpt><trkpt lat="43.5844183" lon="11.330925"><ele>285.16666666666663</ele><time>2026-03-22T10:42:12.225Z</time></trkpt><trkpt lat="43.5843667" lon="11.3310067"><ele>286.0</ele><time>2026-03-22T10:42:14.224Z</time></trkpt><trkpt lat="43.584315" lon="11.3310733"><ele>285.99999999999994</ele><time>2026-03-22T10:42:16.225Z</time></trkpt><trkpt lat="43.5842583" lon="11.33114"><ele>286.0</ele><time>2026-03-22T10:42:18.226Z</time></trkpt><trkpt lat="43.5841983" lon="11.3312017"><ele>286.0</ele><time>2026-03-22T10:42:20.225Z</time></trkpt><trkpt lat="43.584135" lon="11.3312533"><ele>286.0</ele><time>2026-03-22T10:42:22.224Z</time></trkpt><trkpt lat="43.5840767" lon="11.331295"><ele>286.0</ele><time>2026-03-22T10:42:24.225Z</time></trkpt><trkpt lat="43.584005" lon="11.3313267"><ele>285.99999999999994</ele><time>2026-03-22T10:42:26.226Z</time></trkpt><trkpt lat="43.58394" lon="11.3313467"><ele>286.0</ele><time>2026-03-22T10:42:28.223Z</time></trkpt><trkpt lat="43.58387" lon="11.3313717"><ele>285.66666666666663</ele><time>2026-03-22T10:42:30.225Z</time></trkpt><trkpt lat="43.5837983" lon="11.331415"><ele>285.3333333333333</ele><time>2026-03-22T10:42:32.226Z</time></trkpt><trkpt lat="43.5837267" lon="11.3314567"><ele>285.0</ele><time>2026-03-22T10:42:34.224Z</time></trkpt><trkpt lat="43.583665" lon="11.3315067"><ele>284.6666666666667</ele><time>2026-03-22T10:42:36.226Z</time></trkpt><trkpt lat="43.5836167" lon="11.331625"><ele>284.33333333333337</ele><time>2026-03-22T10:42:39.225Z</time></trkpt><trkpt lat="43.5835917" lon="11.3317283"><ele>284.0</ele><time>2026-03-22T10:42:41.224Z</time></trkpt><trkpt lat="43.5835883" lon="11.331835"><ele>284.0</ele><time>2026-03-22T10:42:43.225Z</time></trkpt><trkpt lat="43.5836067" lon="11.3319417"><ele>284.0</ele><time>2026-03-22T10:42:45.226Z</time></trkpt><trkpt lat="43.58365" lon="11.3320417"><ele>284.0</ele><time>2026-03-22T10:42:47.225Z</time></trkpt><trkpt lat="43.58371" lon="11.332125"><ele>284.0</ele><time>2026-03-22T10:42:49.226Z</time></trkpt><trkpt lat="43.5837717" lon="11.332195"><ele>284.0</ele><time>2026-03-22T10:42:51.226Z</time></trkpt><trkpt lat="43.5838333" lon="11.33226"><ele>284.0</ele><time>2026-03-22T10:42:53.224Z</time></trkpt><trkpt lat="43.5838967" lon="11.332325"><ele>285.1428571428571</ele><time>2026-03-22T10:42:55.225Z</time></trkpt><trkpt lat="43.5839533" lon="11.33238"><ele>286.2857142857143</ele><time>2026-03-22T10:42:57.225Z</time></trkpt><trkpt lat="43.5840117" lon="11.3324433"><ele>287.42857142857144</ele><time>2026-03-22T10:42:59.227Z</time></trkpt><trkpt lat="43.5840717" lon="11.332495"><ele>288.57142857142856</ele><time>2026-03-22T10:43:01.226Z</time></trkpt><trkpt lat="43.584125" lon="11.3325433"><ele>289.7142857142857</ele><time>2026-03-22T10:43:03.224Z</time></trkpt><trkpt lat="43.58418" lon="11.33261"><ele>290.85714285714283</ele><time>2026-03-22T10:43:05.227Z</time></trkpt><trkpt lat="43.584235" lon="11.3326817"><ele>292.0</ele><time>2026-03-22T10:43:07.227Z</time></trkpt><trkpt lat="43.5842817" lon="11.3327683"><ele>292.0</ele><time>2026-03-22T10:43:09.224Z</time></trkpt><trkpt lat="43.5843133" lon="11.3328683"><ele>292.0</ele><time>2026-03-22T10:43:11.225Z</time></trkpt><trkpt lat="43.5843383" lon="11.3329667"><ele>292.0</ele><time>2026-03-22T10:43:13.226Z</time></trkpt><trkpt lat="43.5843567" lon="11.3330617"><ele>292.0</ele><time>2026-03-22T10:43:15.225Z</time></trkpt><trkpt lat="43.5843667" lon="11.3331617"><ele>292.0</ele><time>2026-03-22T10:43:17.225Z</time></trkpt><trkpt lat="43.58437" lon="11.3332683"><ele>292.0</ele><time>2026-03-22T10:43:19.225Z</time></trkpt><trkpt lat="43.5843683" lon="11.33337"><ele>293.8333333333333</ele><time>2026-03-22T10:43:21.224Z</time></trkpt><trkpt lat="43.584365" lon="11.333475"><ele>295.66666666666663</ele><time>2026-03-22T10:43:23.226Z</time></trkpt><trkpt lat="43.584365" lon="11.3335833"><ele>297.5</ele><time>2026-03-22T10:43:25.227Z</time></trkpt><trkpt lat="43.5843567" lon="11.33369"><ele>299.3333333333333</ele><time>2026-03-22T10:43:27.224Z</time></trkpt><trkpt lat="43.58436" lon="11.3337917"><ele>301.1666666666667</ele><time>2026-03-22T10:43:29.226Z</time></trkpt><trkpt lat="43.584395" lon="11.3338883"><ele>303.0</ele><time>2026-03-22T10:43:31.226Z</time></trkpt><trkpt lat="43.5844517" lon="11.3339717"><ele>303.5</ele><time>2026-03-22T10:43:33.226Z</time></trkpt><trkpt lat="43.58453" lon="11.3340283"><ele>304.0</ele><time>2026-03-22T10:43:35.227Z</time></trkpt><trkpt lat="43.58462" lon="11.33406"><ele>304.5</ele><time>2026-03-22T10:43:37.225Z</time></trkpt><trkpt lat="43.5847033" lon="11.3340667"><ele>305.0</ele><time>2026-03-22T10:43:39.227Z</time></trkpt><trkpt lat="43.5847867" lon="11.3340617"><ele>305.5</ele><time>2026-03-22T10:43:41.226Z</time></trkpt><trkpt lat="43.5848717" lon="11.3340667"><ele>306.0</ele><time>2026-03-22T10:43:43.224Z</time></trkpt><trkpt lat="43.584945" lon="11.3340633"><ele>306.0</ele><time>2026-03-22T10:43:45.226Z</time></trkpt><trkpt lat="43.585025" lon="11.33407"><ele>306.0</ele><time>2026-03-22T10:43:47.224Z</time></trkpt><trkpt lat="43.585105" lon="11.3340717"><ele>306.0</ele><time>2026-03-22T10:43:49.226Z</time></trkpt><trkpt lat="43.585185" lon="11.334065"><ele>306.0</ele><time>2026-03-22T10:43:51.226Z</time></trkpt><trkpt lat="43.585255" lon="11.334075"><ele>306.0</ele><time>2026-03-22T10:43:53.226Z</time></trkpt><trkpt lat="43.585325" lon="11.33411"><ele>306.0</ele><time>2026-03-22T10:43:55.226Z</time></trkpt><trkpt lat="43.5853833" lon="11.33416"><ele>305.85714285714283</ele><time>2026-03-22T10:43:57.226Z</time></trkpt><trkpt lat="43.58544" lon="11.3342283"><ele>305.7142857142857</ele><time>2026-03-22T10:43:59.226Z</time></trkpt><trkpt lat="43.58549" lon="11.33431"><ele>305.57142857142856</ele><time>2026-03-22T10:44:01.227Z</time></trkpt><trkpt lat="43.5855367" lon="11.3343833"><ele>305.42857142857144</ele><time>2026-03-22T10:44:03.227Z</time></trkpt><trkpt lat="43.58559" lon="11.3344667"><ele>305.2857142857143</ele><time>2026-03-22T10:44:05.228Z</time></trkpt><trkpt lat="43.58563" lon="11.3345433"><ele>305.14285714285717</ele><time>2026-03-22T10:44:07.227Z</time></trkpt><trkpt lat="43.5856767" lon="11.3346067"><ele>305.0</ele><time>2026-03-22T10:44:09.224Z</time></trkpt><trkpt lat="43.5857317" lon="11.3346617"><ele>305.0</ele><time>2026-03-22T10:44:11.226Z</time></trkpt><trkpt lat="43.5857967" lon="11.3347033"><ele>305.0</ele><time>2026-03-22T10:44:13.225Z</time></trkpt><trkpt lat="43.58586" lon="11.334745"><ele>305.0</ele><time>2026-03-22T10:44:15.227Z</time></trkpt><trkpt lat="43.58592" lon="11.3347867"><ele>305.0</ele><time>2026-03-22T10:44:17.225Z</time></trkpt><trkpt lat="43.5859933" lon="11.334815"><ele>305.0</ele><time>2026-03-22T10:44:19.225Z</time></trkpt><trkpt lat="43.5860617" lon="11.3348567"><ele>305.0</ele><time>2026-03-22T10:44:21.227Z</time></trkpt><trkpt lat="43.5861283" lon="11.334895"><ele>305.0</ele><time>2026-03-22T10:44:23.225Z</time></trkpt><trkpt lat="43.5861933" lon="11.3349367"><ele>307.0</ele><time>2026-03-22T10:44:25.225Z</time></trkpt><trkpt lat="43.58627" lon="11.334985"><ele>309.0</ele><time>2026-03-22T10:44:27.225Z</time></trkpt><trkpt lat="43.5863367" lon="11.335025"><ele>311.0</ele><time>2026-03-22T10:44:29.225Z</time></trkpt><trkpt lat="43.586405" lon="11.3350833"><ele>313.0</ele><time>2026-03-22T10:44:31.227Z</time></trkpt><trkpt lat="43.5864683" lon="11.33514"><ele>315.0</ele><time>2026-03-22T10:44:33.223Z</time></trkpt><trkpt lat="43.5865383" lon="11.3351967"><ele>317.0</ele><time>2026-03-22T10:44:35.225Z</time></trkpt><trkpt lat="43.5866017" lon="11.3352533"><ele>317.0</ele><time>2026-03-22T10:44:37.225Z</time></trkpt><trkpt lat="43.5866567" lon="11.3353133"><ele>317.0</ele><time>2026-03-22T10:44:39.225Z</time></trkpt><trkpt lat="43.5867133" lon="11.3353667"><ele>317.0</ele><time>2026-03-22T10:44:41.226Z</time></trkpt><trkpt lat="43.5867683" lon="11.335425"><ele>317.0</ele><time>2026-03-22T10:44:43.228Z</time></trkpt><trkpt lat="43.5868333" lon="11.3354767"><ele>317.0</ele><time>2026-03-22T10:44:45.225Z</time></trkpt><trkpt lat="43.5869317" lon="11.3355183"><ele>317.0</ele><time>2026-03-22T10:44:48.225Z</time></trkpt><trkpt lat="43.587005" lon="11.3355717"><ele>319.33333333333337</ele><time>2026-03-22T10:44:50.226Z</time></trkpt><trkpt lat="43.5870767" lon="11.3356217"><ele>321.6666666666667</ele><time>2026-03-22T10:44:52.224Z</time></trkpt><trkpt lat="43.5871533" lon="11.335665"><ele>324.0</ele><time>2026-03-22T10:44:54.225Z</time></trkpt><trkpt lat="43.5872233" lon="11.3357217"><ele>326.3333333333333</ele><time>2026-03-22T10:44:56.226Z</time></trkpt><trkpt lat="43.587295" lon="11.33574"><ele>328.66666666666663</ele><time>2026-03-22T10:44:58.225Z</time></trkpt><trkpt lat="43.5873667" lon="11.3357533"><ele>331.0</ele><time>2026-03-22T10:45:00.227Z</time></trkpt><trkpt lat="43.5874367" lon="11.3357767"><ele>331.0</ele><time>2026-03-22T10:45:02.228Z</time></trkpt><trkpt lat="43.5874983" lon="11.3358167"><ele>331.0</ele><time>2026-03-22T10:45:04.225Z</time></trkpt><trkpt lat="43.587595" lon="11.335835"><ele>331.0</ele><time>2026-03-22T10:45:07.225Z</time></trkpt><trkpt lat="43.5876733" lon="11.3358483"><ele>331.0</ele><time>2026-03-22T10:45:09.225Z</time></trkpt><trkpt lat="43.58774" lon="11.3358733"><ele>331.0</ele><time>2026-03-22T10:45:11.226Z</time></trkpt><trkpt lat="43.587805" lon="11.33591"><ele>331.0</ele><time>2026-03-22T10:45:13.226Z</time></trkpt><trkpt lat="43.5878883" lon="11.3359633"><ele>330.8333333333333</ele><time>2026-03-22T10:45:16.225Z</time></trkpt><trkpt lat="43.5879367" lon="11.3360217"><ele>330.66666666666663</ele><time>2026-03-22T10:45:18.225Z</time></trkpt><trkpt lat="43.5879817" lon="11.3361"><ele>330.5</ele><time>2026-03-22T10:45:20.223Z</time></trkpt><trkpt lat="43.588025" lon="11.3361867"><ele>330.3333333333333</ele><time>2026-03-22T10:45:22.226Z</time></trkpt><trkpt lat="43.5880617" lon="11.3362783"><ele>330.1666666666667</ele><time>2026-03-22T10:45:24.226Z</time></trkpt><trkpt lat="43.5880983" lon="11.3363733"><ele>330.0</ele><time>2026-03-22T10:45:26.227Z</time></trkpt><trkpt lat="43.5881317" lon="11.33648"><ele>331.3333333333333</ele><time>2026-03-22T10:45:28.225Z</time></trkpt><trkpt lat="43.5881667" lon="11.3365783"><ele>332.6666666666667</ele><time>2026-03-22T10:45:30.227Z</time></trkpt><trkpt lat="43.5882067" lon="11.3366667"><ele>334.0</ele><time>2026-03-22T10:45:32.225Z</time></trkpt><trkpt lat="43.5882367" lon="11.3367617"><ele>335.33333333333337</ele><time>2026-03-22T10:45:34.225Z</time></trkpt><trkpt lat="43.58826" lon="11.336865"><ele>336.6666666666667</ele><time>2026-03-22T10:45:36.225Z</time></trkpt><trkpt lat="43.5882817" lon="11.3369767"><ele>338.0</ele><time>2026-03-22T10:45:38.226Z</time></trkpt><trkpt lat="43.5883133" lon="11.3370767"><ele>338.0</ele><time>2026-03-22T10:45:40.226Z</time></trkpt><trkpt lat="43.5883667" lon="11.337145"><ele>338.0</ele><time>2026-03-22T10:45:42.226Z</time></trkpt><trkpt lat="43.5884433" lon="11.3371633"><ele>338.0</ele><time>2026-03-22T10:45:44.226Z</time></trkpt><trkpt lat="43.5885233" lon="11.337165"><ele>338.0</ele><time>2026-03-22T10:45:46.225Z</time></trkpt><trkpt lat="43.588605" lon="11.3371483"><ele>338.0</ele><time>2026-03-22T10:45:48.226Z</time></trkpt><trkpt lat="43.5886783" lon="11.33709"><ele>338.0</ele><time>2026-03-22T10:45:50.225Z</time></trkpt><trkpt lat="43.5887417" lon="11.33704"><ele>340.33333333333337</ele><time>2026-03-22T10:45:52.226Z</time></trkpt><trkpt lat="43.5888" lon="11.336955"><ele>342.6666666666667</ele><time>2026-03-22T10:45:54.226Z</time></trkpt><trkpt lat="43.5888467" lon="11.3368583"><ele>345.0</ele><time>2026-03-22T10:45:56.226Z</time></trkpt><trkpt lat="43.58889" lon="11.33676"><ele>347.3333333333333</ele><time>2026-03-22T10:45:58.225Z</time></trkpt><trkpt lat="43.588915" lon="11.3366583"><ele>349.66666666666663</ele><time>2026-03-22T10:46:00.226Z</time></trkpt><trkpt lat="43.58892" lon="11.33656"><ele>352.0</ele><time>2026-03-22T10:46:02.227Z</time></trkpt><trkpt lat="43.58891" lon="11.3364467"><ele>353.16666666666663</ele><time>2026-03-22T10:46:04.225Z</time></trkpt><trkpt lat="43.5889083" lon="11.3363217"><ele>354.3333333333333</ele><time>2026-03-22T10:46:07.224Z</time></trkpt><trkpt lat="43.5889017" lon="11.3362117"><ele>355.5</ele><time>2026-03-22T10:46:09.227Z</time></trkpt><trkpt lat="43.5888917" lon="11.336105"><ele>356.6666666666667</ele><time>2026-03-22T10:46:11.226Z</time></trkpt><trkpt lat="43.588875" lon="11.33599"><ele>357.83333333333337</ele><time>2026-03-22T10:46:13.225Z</time></trkpt><trkpt lat="43.588855" lon="11.33587"><ele>359.0</ele><time>2026-03-22T10:46:15.225Z</time></trkpt><trkpt lat="43.5888317" lon="11.3357567"><ele>359.0</ele><time>2026-03-22T10:46:17.225Z</time></trkpt><trkpt lat="43.5888167" lon="11.3356483"><ele>359.0</ele><time>2026-03-22T10:46:19.226Z</time></trkpt><trkpt lat="43.5888033" lon="11.33555"><ele>359.0</ele><time>2026-03-22T10:46:21.225Z</time></trkpt><trkpt lat="43.5887867" lon="11.335445"><ele>359.0</ele><time>2026-03-22T10:46:23.225Z</time></trkpt><trkpt lat="43.58877" lon="11.3353367"><ele>359.0</ele><time>2026-03-22T10:46:25.225Z</time></trkpt><trkpt lat="43.58877" lon="11.33522"><ele>359.0</ele><time>2026-03-22T10:46:27.226Z</time></trkpt><trkpt lat="43.5887617" lon="11.335125"><ele>359.57142857142856</ele><time>2026-03-22T10:46:29.225Z</time></trkpt><trkpt lat="43.588765" lon="11.335025"><ele>360.14285714285717</ele><time>2026-03-22T10:46:31.226Z</time></trkpt><trkpt lat="43.588765" lon="11.33492"><ele>360.71428571428567</ele><time>2026-03-22T10:46:33.226Z</time></trkpt><trkpt lat="43.5887717" lon="11.3348167"><ele>361.2857142857143</ele><time>2026-03-22T10:46:35.225Z</time></trkpt><trkpt lat="43.5887683" lon="11.334715"><ele>361.85714285714283</ele><time>2026-03-22T10:46:37.227Z</time></trkpt><trkpt lat="43.5887567" lon="11.33461"><ele>362.4285714285714</ele><time>2026-03-22T10:46:39.225Z</time></trkpt><trkpt lat="43.5887533" lon="11.3345067"><ele>363.0</ele><time>2026-03-22T10:46:41.225Z</time></trkpt><trkpt lat="43.5887533" lon="11.3344017"><ele>362.99999999999994</ele><time>2026-03-22T10:46:43.225Z</time></trkpt><trkpt lat="43.5887567" lon="11.3343033"><ele>363.0</ele><time>2026-03-22T10:46:45.225Z</time></trkpt><trkpt lat="43.5887433" lon="11.33421"><ele>363.0</ele><time>2026-03-22T10:46:47.225Z</time></trkpt><trkpt lat="43.5887267" lon="11.334115"><ele>363.0</ele><time>2026-03-22T10:46:49.225Z</time></trkpt><trkpt lat="43.5887167" lon="11.3340133"><ele>363.0</ele><time>2026-03-22T10:46:51.225Z</time></trkpt><trkpt lat="43.5887017" lon="11.3339133"><ele>362.99999999999994</ele><time>2026-03-22T10:46:53.226Z</time></trkpt><trkpt lat="43.5886883" lon="11.3338217"><ele>363.0</ele><time>2026-03-22T10:46:55.225Z</time></trkpt><trkpt lat="43.588695" lon="11.333715"><ele>362.1666666666667</ele><time>2026-03-22T10:46:57.225Z</time></trkpt><trkpt lat="43.588705" lon="11.3336083"><ele>361.3333333333333</ele><time>2026-03-22T10:46:59.225Z</time></trkpt><trkpt lat="43.5887267" lon="11.3335"><ele>360.5</ele><time>2026-03-22T10:47:01.225Z</time></trkpt><trkpt lat="43.58877" lon="11.333395"><ele>359.66666666666663</ele><time>2026-03-22T10:47:03.226Z</time></trkpt><trkpt lat="43.58882" lon="11.3333133"><ele>358.8333333333333</ele><time>2026-03-22T10:47:05.226Z</time></trkpt><trkpt lat="43.5888883" lon="11.3332617"><ele>358.0</ele><time>2026-03-22T10:47:07.227Z</time></trkpt><trkpt lat="43.5889667" lon="11.333215"><ele>358.0</ele><time>2026-03-22T10:47:09.227Z</time></trkpt><trkpt lat="43.5890483" lon="11.33318"><ele>358.0</ele><time>2026-03-22T10:47:11.226Z</time></trkpt><trkpt lat="43.5891383" lon="11.333165"><ele>358.0</ele><time>2026-03-22T10:47:13.226Z</time></trkpt><trkpt lat="43.58923" lon="11.33316"><ele>358.0</ele><time>2026-03-22T10:47:15.225Z</time></trkpt><trkpt lat="43.589315" lon="11.3331717"><ele>358.0</ele><time>2026-03-22T10:47:17.227Z</time></trkpt><trkpt lat="43.5893917" lon="11.33321"><ele>358.0</ele><time>2026-03-22T10:47:19.227Z</time></trkpt><trkpt lat="43.5894667" lon="11.33326"><ele>356.16666666666663</ele><time>2026-03-22T10:47:21.226Z</time></trkpt><trkpt lat="43.58953" lon="11.3333317"><ele>354.3333333333333</ele><time>2026-03-22T10:47:23.225Z</time></trkpt><trkpt lat="43.5895717" lon="11.3334017"><ele>352.5</ele><time>2026-03-22T10:47:25.225Z</time></trkpt><trkpt lat="43.5896333" lon="11.3335033"><ele>350.6666666666667</ele><time>2026-03-22T10:47:28.226Z</time></trkpt><trkpt lat="43.5896717" lon="11.3335767"><ele>348.83333333333337</ele><time>2026-03-22T10:47:30.225Z</time></trkpt><trkpt lat="43.5897" lon="11.333665"><ele>347.0</ele><time>2026-03-22T10:47:32.227Z</time></trkpt><trkpt lat="43.5897283" lon="11.333755"><ele>347.0</ele><time>2026-03-22T10:47:34.225Z</time></trkpt><trkpt lat="43.5897633" lon="11.3338317"><ele>347.0</ele><time>2026-03-22T10:47:36.226Z</time></trkpt><trkpt lat="43.5898117" lon="11.333945"><ele>347.0</ele><time>2026-03-22T10:47:39.226Z</time></trkpt><trkpt lat="43.5898483" lon="11.3340583"><ele>347.0</ele><time>2026-03-22T10:47:42.225Z</time></trkpt><trkpt lat="43.589885" lon="11.3341317"><ele>347.0</ele><time>2026-03-22T10:47:44.226Z</time></trkpt><trkpt lat="43.5899167" lon="11.334215"><ele>347.0</ele><time>2026-03-22T10:47:46.226Z</time></trkpt><trkpt lat="43.5899717" lon="11.3343183"><ele>349.14285714285717</ele><time>2026-03-22T10:47:49.225Z</time></trkpt><trkpt lat="43.5900133" lon="11.3343933"><ele>351.2857142857143</ele><time>2026-03-22T10:47:51.225Z</time></trkpt><trkpt lat="43.59004" lon="11.3344817"><ele>353.42857142857144</ele><time>2026-03-22T10:47:53.225Z</time></trkpt><trkpt lat="43.590085" lon="11.3345633"><ele>355.57142857142856</ele><time>2026-03-22T10:47:55.226Z</time></trkpt><trkpt lat="43.590125" lon="11.334645"><ele>357.71428571428567</ele><time>2026-03-22T10:47:57.225Z</time></trkpt><trkpt lat="43.5901733" lon="11.3347117"><ele>359.85714285714283</ele><time>2026-03-22T10:47:59.225Z</time></trkpt><trkpt lat="43.5902233" lon="11.3347783"><ele>362.0</ele><time>2026-03-22T10:48:01.227Z</time></trkpt><trkpt lat="43.5902967" lon="11.3348617"><ele>361.6666666666667</ele><time>2026-03-22T10:48:04.225Z</time></trkpt><trkpt lat="43.59037" lon="11.33495"><ele>361.33333333333337</ele><time>2026-03-22T10:48:07.226Z</time></trkpt><trkpt lat="43.5904283" lon="11.3350033"><ele>361.0</ele><time>2026-03-22T10:48:09.227Z</time></trkpt><trkpt lat="43.5904817" lon="11.3350733"><ele>360.6666666666667</ele><time>2026-03-22T10:48:11.225Z</time></trkpt><trkpt lat="43.5905317" lon="11.3351467"><ele>360.3333333333333</ele><time>2026-03-22T10:48:13.225Z</time></trkpt><trkpt lat="43.5905833" lon="11.33522"><ele>360.0</ele><time>2026-03-22T10:48:15.227Z</time></trkpt><trkpt lat="43.59063" lon="11.335295"><ele>360.0</ele><time>2026-03-22T10:48:17.226Z</time></trkpt><trkpt lat="43.5906783" lon="11.3353667"><ele>360.0</ele><time>2026-03-22T10:48:19.227Z</time></trkpt><trkpt lat="43.59072" lon="11.33544"><ele>360.0</ele><time>2026-03-22T10:48:21.226Z</time></trkpt><trkpt lat="43.5907633" lon="11.3355067"><ele>360.0</ele><time>2026-03-22T10:48:23.225Z</time></trkpt><trkpt lat="43.5908133" lon="11.3355683"><ele>360.0</ele><time>2026-03-22T10:48:25.226Z</time></trkpt><trkpt lat="43.59088" lon="11.3356433"><ele>360.0</ele><time>2026-03-22T10:48:28.225Z</time></trkpt><trkpt lat="43.5909533" lon="11.3357267"><ele>358.6666666666667</ele><time>2026-03-22T10:48:31.224Z</time></trkpt><trkpt lat="43.59101" lon="11.33581"><ele>357.3333333333333</ele><time>2026-03-22T10:48:33.223Z</time></trkpt><trkpt lat="43.5910533" lon="11.335905"><ele>356.0</ele><time>2026-03-22T10:48:36.224Z</time></trkpt><trkpt lat="43.5911117" lon="11.3359933"><ele>354.66666666666663</ele><time>2026-03-22T10:48:39.225Z</time></trkpt><trkpt lat="43.5911667" lon="11.3360717"><ele>353.3333333333333</ele><time>2026-03-22T10:48:41.225Z</time></trkpt><trkpt lat="43.5912217" lon="11.33617"><ele>352.0</ele><time>2026-03-22T10:48:43.224Z</time></trkpt><trkpt lat="43.5912583" lon="11.3362583"><ele>352.0</ele><time>2026-03-22T10:48:45.225Z</time></trkpt><trkpt lat="43.5912917" lon="11.33635"><ele>352.0</ele><time>2026-03-22T10:48:47.226Z</time></trkpt><trkpt lat="43.591315" lon="11.33645"><ele>352.0</ele><time>2026-03-22T10:48:49.226Z</time></trkpt><trkpt lat="43.5913483" lon="11.3365417"><ele>352.0</ele><time>2026-03-22T10:48:51.224Z</time></trkpt><trkpt lat="43.5913783" lon="11.3366317"><ele>352.0</ele><time>2026-03-22T10:48:53.223Z</time></trkpt><trkpt lat="43.5913867" lon="11.33673"><ele>352.0</ele><time>2026-03-22T10:48:55.223Z</time></trkpt><trkpt lat="43.5914033" lon="11.3368233"><ele>352.0</ele><time>2026-03-22T10:48:57.224Z</time></trkpt><trkpt lat="43.59141" lon="11.3369183"><ele>354.57142857142856</ele><time>2026-03-22T10:48:59.224Z</time></trkpt><trkpt lat="43.5914167" lon="11.337015"><ele>357.1428571428571</ele><time>2026-03-22T10:49:01.223Z</time></trkpt><trkpt lat="43.5914367" lon="11.3371167"><ele>359.71428571428567</ele><time>2026-03-22T10:49:03.226Z</time></trkpt><trkpt lat="43.59145" lon="11.3372083"><ele>362.2857142857143</ele><time>2026-03-22T10:49:05.226Z</time></trkpt><trkpt lat="43.5914583" lon="11.3373033"><ele>364.85714285714283</ele><time>2026-03-22T10:49:07.227Z</time></trkpt><trkpt lat="43.5914983" lon="11.3373783"><ele>367.4285714285714</ele><time>2026-03-22T10:49:09.224Z</time></trkpt><trkpt lat="43.59154" lon="11.3374467"><ele>370.0</ele><time>2026-03-22T10:49:11.226Z</time></trkpt><trkpt lat="43.5915883" lon="11.3375067"><ele>370.57142857142856</ele><time>2026-03-22T10:49:13.225Z</time></trkpt><trkpt lat="43.5916583" lon="11.3375833"><ele>371.1428571428571</ele><time>2026-03-22T10:49:16.226Z</time></trkpt><trkpt lat="43.5917067" lon="11.3376417"><ele>371.71428571428567</ele><time>2026-03-22T10:49:18.227Z</time></trkpt><trkpt lat="43.591765" lon="11.3376883"><ele>372.2857142857143</ele><time>2026-03-22T10:49:20.226Z</time></trkpt><trkpt lat="43.591825" lon="11.3377317"><ele>372.8571428571429</ele><time>2026-03-22T10:49:22.226Z</time></trkpt><trkpt lat="43.5919033" lon="11.3378"><ele>373.4285714285714</ele><time>2026-03-22T10:49:25.226Z</time></trkpt><trkpt lat="43.5919633" lon="11.3378417"><ele>374.0</ele><time>2026-03-22T10:49:27.226Z</time></trkpt><trkpt lat="43.5920417" lon="11.3379133"><ele>374.0</ele><time>2026-03-22T10:49:30.226Z</time></trkpt><trkpt lat="43.5921083" lon="11.3380067"><ele>374.0</ele><time>2026-03-22T10:49:33.225Z</time></trkpt><trkpt lat="43.5921483" lon="11.3380817"><ele>374.0</ele><time>2026-03-22T10:49:35.226Z</time></trkpt><trkpt lat="43.5921783" lon="11.3381967"><ele>374.0</ele><time>2026-03-22T10:49:38.226Z</time></trkpt><trkpt lat="43.5922017" lon="11.3383167"><ele>374.0</ele><time>2026-03-22T10:49:41.226Z</time></trkpt><trkpt lat="43.592225" lon="11.3383983"><ele>374.0</ele><time>2026-03-22T10:49:43.225Z</time></trkpt><trkpt lat="43.5922517" lon="11.338515"><ele>376.5</ele><time>2026-03-22T10:49:46.225Z</time></trkpt><trkpt lat="43.59228" lon="11.338635"><ele>379.0</ele><time>2026-03-22T10:49:49.227Z</time></trkpt><trkpt lat="43.5923033" lon="11.33876"><ele>381.5</ele><time>2026-03-22T10:49:52.225Z</time></trkpt><trkpt lat="43.592315" lon="11.3388483"><ele>384.0</ele><time>2026-03-22T10:49:54.227Z</time></trkpt><trkpt lat="43.5923433" lon="11.3389733"><ele>386.49999999999994</ele><time>2026-03-22T10:49:57.226Z</time></trkpt><trkpt lat="43.5923683" lon="11.3390967"><ele>389.0</ele><time>2026-03-22T10:50:00.225Z</time></trkpt><trkpt lat="43.59239" lon="11.33918"><ele>391.0</ele><time>2026-03-22T10:50:02.225Z</time></trkpt><trkpt lat="43.5924183" lon="11.3392983"><ele>393.0</ele><time>2026-03-22T10:50:05.225Z</time></trkpt><trkpt lat="43.5924483" lon="11.3394083"><ele>395.0</ele><time>2026-03-22T10:50:08.225Z</time></trkpt><trkpt lat="43.592465" lon="11.3395283"><ele>397.0</ele><time>2026-03-22T10:50:11.225Z</time></trkpt><trkpt lat="43.5924917" lon="11.3396483"><ele>399.0</ele><time>2026-03-22T10:50:14.226Z</time></trkpt><trkpt lat="43.592515" lon="11.3397783"><ele>400.8333333333333</ele><time>2026-03-22T10:50:17.225Z</time></trkpt><trkpt lat="43.5925383" lon="11.3398667"><ele>402.66666666666663</ele><time>2026-03-22T10:50:19.226Z</time></trkpt><trkpt lat="43.5925783" lon="11.3399833"><ele>404.5</ele><time>2026-03-22T10:50:22.225Z</time></trkpt><trkpt lat="43.5926133" lon="11.3400583"><ele>406.3333333333333</ele><time>2026-03-22T10:50:24.224Z</time></trkpt><trkpt lat="43.592665" lon="11.34017"><ele>408.16666666666663</ele><time>2026-03-22T10:50:27.225Z</time></trkpt><trkpt lat="43.592695" lon="11.3402483"><ele>410.0</ele><time>2026-03-22T10:50:29.224Z</time></trkpt><trkpt lat="43.5927383" lon="11.3403233"><ele>410.0</ele><time>2026-03-22T10:50:31.225Z</time></trkpt><trkpt lat="43.5927917" lon="11.3403867"><ele>410.0</ele><time>2026-03-22T10:50:33.225Z</time></trkpt><trkpt lat="43.5928417" lon="11.34045"><ele>410.0</ele><time>2026-03-22T10:50:35.226Z</time></trkpt><trkpt lat="43.5928983" lon="11.3405083"><ele>410.0</ele><time>2026-03-22T10:50:37.225Z</time></trkpt><trkpt lat="43.5929517" lon="11.340565"><ele>410.0</ele><time>2026-03-22T10:50:39.228Z</time></trkpt><trkpt lat="43.5930117" lon="11.3406233"><ele>410.0</ele><time>2026-03-22T10:50:41.226Z</time></trkpt><trkpt lat="43.5930867" lon="11.3406933"><ele>410.0</ele><time>2026-03-22T10:50:44.225Z</time></trkpt><trkpt lat="43.5931633" lon="11.3407717"><ele>409.99999999999994</ele><time>2026-03-22T10:50:47.225Z</time></trkpt><trkpt lat="43.5932167" lon="11.3408183"><ele>410.0</ele><time>2026-03-22T10:50:49.226Z</time></trkpt><trkpt lat="43.5932917" lon="11.3408867"><ele>410.0</ele><time>2026-03-22T10:50:52.225Z</time></trkpt><trkpt lat="43.5933617" lon="11.34097"><ele>410.0</ele><time>2026-03-22T10:50:55.224Z</time></trkpt><trkpt lat="43.5934033" lon="11.3410483"><ele>409.99999999999994</ele><time>2026-03-22T10:50:57.225Z</time></trkpt><trkpt lat="43.5934517" lon="11.341125"><ele>410.0</ele><time>2026-03-22T10:50:59.225Z</time></trkpt><trkpt lat="43.5934933" lon="11.3412117"><ele>410.0</ele><time>2026-03-22T10:51:01.226Z</time></trkpt><trkpt lat="43.5935333" lon="11.3412883"><ele>410.0</ele><time>2026-03-22T10:51:03.227Z</time></trkpt><trkpt lat="43.5935667" lon="11.3413683"><ele>410.0</ele><time>2026-03-22T10:51:05.226Z</time></trkpt><trkpt lat="43.593595" lon="11.3414467"><ele>410.0</ele><time>2026-03-22T10:51:07.225Z</time></trkpt><trkpt lat="43.593605" lon="11.3415383"><ele>410.0</ele><time>2026-03-22T10:51:09.225Z</time></trkpt><trkpt lat="43.5935933" lon="11.3416583"><ele>410.0</ele><time>2026-03-22T10:51:12.226Z</time></trkpt><trkpt lat="43.5935433" lon="11.3417467"><ele>410.0</ele><time>2026-03-22T10:51:15.225Z</time></trkpt><trkpt lat="43.593495" lon="11.3418033"><ele>410.8333333333333</ele><time>2026-03-22T10:51:17.225Z</time></trkpt><trkpt lat="43.59342" lon="11.3418667"><ele>411.66666666666663</ele><time>2026-03-22T10:51:20.225Z</time></trkpt><trkpt lat="43.5933417" lon="11.3419267"><ele>412.5</ele><time>2026-03-22T10:51:23.225Z</time></trkpt><trkpt lat="43.59327" lon="11.34197"><ele>413.33333333333337</ele><time>2026-03-22T10:51:25.226Z</time></trkpt><trkpt lat="43.5932067" lon="11.3420183"><ele>414.1666666666667</ele><time>2026-03-22T10:51:27.226Z</time></trkpt><trkpt lat="43.5931433" lon="11.3420633"><ele>415.0</ele><time>2026-03-22T10:51:29.225Z</time></trkpt><trkpt lat="43.5930667" lon="11.3421333"><ele>414.00000000000006</ele><time>2026-03-22T10:51:32.225Z</time></trkpt><trkpt lat="43.5930083" lon="11.3422183"><ele>413.0</ele><time>2026-03-22T10:51:35.226Z</time></trkpt><trkpt lat="43.59294" lon="11.342275"><ele>412.0</ele><time>2026-03-22T10:51:37.225Z</time></trkpt><trkpt lat="43.5928717" lon="11.342315"><ele>411.0</ele><time>2026-03-22T10:51:39.225Z</time></trkpt><trkpt lat="43.592795" lon="11.34234"><ele>410.00000000000006</ele><time>2026-03-22T10:51:41.226Z</time></trkpt><trkpt lat="43.5927183" lon="11.3423533"><ele>409.0</ele><time>2026-03-22T10:51:43.224Z</time></trkpt><trkpt lat="43.5926433" lon="11.3423617"><ele>411.33333333333337</ele><time>2026-03-22T10:51:45.225Z</time></trkpt><trkpt lat="43.5925683" lon="11.3423983"><ele>413.6666666666667</ele><time>2026-03-22T10:51:47.225Z</time></trkpt><trkpt lat="43.59251" lon="11.342465"><ele>416.0</ele><time>2026-03-22T10:51:49.226Z</time></trkpt><trkpt lat="43.5924767" lon="11.3425633"><ele>418.33333333333337</ele><time>2026-03-22T10:51:51.225Z</time></trkpt><trkpt lat="43.5924633" lon="11.34268"><ele>420.6666666666667</ele><time>2026-03-22T10:51:53.225Z</time></trkpt><trkpt lat="43.5924583" lon="11.34282"><ele>423.0</ele><time>2026-03-22T10:51:55.227Z</time></trkpt><trkpt lat="43.5924117" lon="11.3429517"><ele>420.5</ele><time>2026-03-22T10:51:57.226Z</time></trkpt><trkpt lat="43.592325" lon="11.3430533"><ele>418.0</ele><time>2026-03-22T10:51:59.226Z</time></trkpt><trkpt lat="43.5922217" lon="11.3431383"><ele>415.5</ele><time>2026-03-22T10:52:01.227Z</time></trkpt><trkpt lat="43.592115" lon="11.34321"><ele>413.0</ele><time>2026-03-22T10:52:03.226Z</time></trkpt><trkpt lat="43.5920083" lon="11.3432633"><ele>414.79999999999995</ele><time>2026-03-22T10:52:05.226Z</time></trkpt><trkpt lat="43.59191" lon="11.3433267"><ele>416.6</ele><time>2026-03-22T10:52:07.227Z</time></trkpt><trkpt lat="43.591825" lon="11.3433967"><ele>418.4</ele><time>2026-03-22T10:52:09.226Z</time></trkpt><trkpt lat="43.591745" lon="11.3434833"><ele>420.20000000000005</ele><time>2026-03-22T10:52:11.229Z</time></trkpt><trkpt lat="43.591685" lon="11.343585"><ele>422.0</ele><time>2026-03-22T10:52:13.227Z</time></trkpt><trkpt lat="43.5916283" lon="11.3437033"><ele>422.0</ele><time>2026-03-22T10:52:15.226Z</time></trkpt><trkpt lat="43.59157" lon="11.3438267"><ele>422.0</ele><time>2026-03-22T10:52:17.227Z</time></trkpt><trkpt lat="43.5915133" lon="11.34395"><ele>422.0</ele><time>2026-03-22T10:52:19.226Z</time></trkpt><trkpt lat="43.5914617" lon="11.3440767"><ele>422.0</ele><time>2026-03-22T10:52:21.226Z</time></trkpt><trkpt lat="43.5914183" lon="11.3442033"><ele>422.0</ele><time>2026-03-22T10:52:23.227Z</time></trkpt><trkpt lat="43.5913817" lon="11.34434"><ele>422.20000000000005</ele><time>2026-03-22T10:52:25.226Z</time></trkpt><trkpt lat="43.5913433" lon="11.3444683"><ele>422.4</ele><time>2026-03-22T10:52:27.226Z</time></trkpt><trkpt lat="43.5913217" lon="11.3445767"><ele>422.6</ele><time>2026-03-22T10:52:29.225Z</time></trkpt><trkpt lat="43.5912867" lon="11.3446967"><ele>422.79999999999995</ele><time>2026-03-22T10:52:31.225Z</time></trkpt><trkpt lat="43.5912383" lon="11.3448217"><ele>423.0</ele><time>2026-03-22T10:52:33.225Z</time></trkpt><trkpt lat="43.591195" lon="11.3449467"><ele>424.59999999999997</ele><time>2026-03-22T10:52:35.226Z</time></trkpt><trkpt lat="43.59115" lon="11.3450833"><ele>426.2</ele><time>2026-03-22T10:52:37.225Z</time></trkpt><trkpt lat="43.5911283" lon="11.3452217"><ele>427.8</ele><time>2026-03-22T10:52:39.225Z</time></trkpt><trkpt lat="43.591115" lon="11.3453683"><ele>429.4</ele><time>2026-03-22T10:52:41.226Z</time></trkpt><trkpt lat="43.591115" lon="11.3455183"><ele>431.0</ele><time>2026-03-22T10:52:43.225Z</time></trkpt><trkpt lat="43.5911333" lon="11.3456667"><ele>430.20000000000005</ele><time>2026-03-22T10:52:45.227Z</time></trkpt><trkpt lat="43.591155" lon="11.3458133"><ele>429.40000000000003</ele><time>2026-03-22T10:52:47.226Z</time></trkpt><trkpt lat="43.591185" lon="11.3459517"><ele>428.6</ele><time>2026-03-22T10:52:49.225Z</time></trkpt><trkpt lat="43.5912317" lon="11.3460867"><ele>427.8</ele><time>2026-03-22T10:52:51.227Z</time></trkpt><trkpt lat="43.5913" lon="11.3461983"><ele>427.0</ele><time>2026-03-22T10:52:53.226Z</time></trkpt><trkpt lat="43.591395" lon="11.3462783"><ele>427.0</ele><time>2026-03-22T10:52:55.226Z</time></trkpt><trkpt lat="43.5914983" lon="11.34633"><ele>427.0</ele><time>2026-03-22T10:52:57.226Z</time></trkpt><trkpt lat="43.5916067" lon="11.346345"><ele>427.0</ele><time>2026-03-22T10:52:59.225Z</time></trkpt><trkpt lat="43.5917217" lon="11.3463317"><ele>427.0</ele><time>2026-03-22T10:53:01.225Z</time></trkpt><trkpt lat="43.5918367" lon="11.346315"><ele>427.0</ele><time>2026-03-22T10:53:03.226Z</time></trkpt><trkpt lat="43.5919417" lon="11.34629"><ele>427.00000000000006</ele><time>2026-03-22T10:53:05.226Z</time></trkpt><trkpt lat="43.5920483" lon="11.3462783"><ele>427.00000000000006</ele><time>2026-03-22T10:53:07.225Z</time></trkpt><trkpt lat="43.592155" lon="11.3462767"><ele>427.0</ele><time>2026-03-22T10:53:09.227Z</time></trkpt><trkpt lat="43.59227" lon="11.3462933"><ele>427.0</ele><time>2026-03-22T10:53:11.225Z</time></trkpt><trkpt lat="43.5923733" lon="11.346335"><ele>429.8</ele><time>2026-03-22T10:53:13.225Z</time></trkpt><trkpt lat="43.5924717" lon="11.3463833"><ele>432.6</ele><time>2026-03-22T10:53:15.228Z</time></trkpt><trkpt lat="43.5925667" lon="11.3464483"><ele>435.40000000000003</ele><time>2026-03-22T10:53:17.224Z</time></trkpt><trkpt lat="43.5926567" lon="11.3465217"><ele>438.20000000000005</ele><time>2026-03-22T10:53:19.225Z</time></trkpt><trkpt lat="43.5927367" lon="11.3466"><ele>441.0</ele><time>2026-03-22T10:53:21.225Z</time></trkpt><trkpt lat="43.5928167" lon="11.3466783"><ele>437.6</ele><time>2026-03-22T10:53:23.225Z</time></trkpt><trkpt lat="43.5928917" lon="11.346755"><ele>434.20000000000005</ele><time>2026-03-22T10:53:25.225Z</time></trkpt><trkpt lat="43.5929633" lon="11.3468383"><ele>430.79999999999995</ele><time>2026-03-22T10:53:27.225Z</time></trkpt><trkpt lat="43.593035" lon="11.3469317"><ele>427.4</ele><time>2026-03-22T10:53:29.225Z</time></trkpt><trkpt lat="43.5930967" lon="11.3470233"><ele>424.0</ele><time>2026-03-22T10:53:31.225Z</time></trkpt><trkpt lat="43.5931483" lon="11.347125"><ele>426.33333333333337</ele><time>2026-03-22T10:53:33.227Z</time></trkpt><trkpt lat="43.5931767" lon="11.3472283"><ele>428.6666666666667</ele><time>2026-03-22T10:53:35.225Z</time></trkpt><trkpt lat="43.5931833" lon="11.347345"><ele>431.0</ele><time>2026-03-22T10:53:37.226Z</time></trkpt><trkpt lat="43.59318" lon="11.3474667"><ele>433.33333333333337</ele><time>2026-03-22T10:53:39.225Z</time></trkpt><trkpt lat="43.5931367" lon="11.34758"><ele>435.6666666666667</ele><time>2026-03-22T10:53:41.224Z</time></trkpt><trkpt lat="43.5931283" lon="11.3476917"><ele>438.0</ele><time>2026-03-22T10:53:43.226Z</time></trkpt><trkpt lat="43.59312" lon="11.3478167"><ele>438.0</ele><time>2026-03-22T10:53:45.226Z</time></trkpt><trkpt lat="43.5931133" lon="11.347935"><ele>438.0</ele><time>2026-03-22T10:53:47.226Z</time></trkpt><trkpt lat="43.5931283" lon="11.34804"><ele>438.0</ele><time>2026-03-22T10:53:49.226Z</time></trkpt><trkpt lat="43.5931633" lon="11.34815"><ele>438.0</ele><time>2026-03-22T10:53:51.224Z</time></trkpt><trkpt lat="43.5932033" lon="11.3482467"><ele>438.0</ele><time>2026-03-22T10:53:53.224Z</time></trkpt><trkpt lat="43.5932417" lon="11.3483433"><ele>438.0</ele><time>2026-03-22T10:53:55.225Z</time></trkpt><trkpt lat="43.5932783" lon="11.3484417"><ele>439.0</ele><time>2026-03-22T10:53:57.226Z</time></trkpt><trkpt lat="43.5933133" lon="11.3485317"><ele>440.0</ele><time>2026-03-22T10:53:59.225Z</time></trkpt><trkpt lat="43.593355" lon="11.3486217"><ele>441.0</ele><time>2026-03-22T10:54:01.227Z</time></trkpt><trkpt lat="43.593395" lon="11.348715"><ele>442.0</ele><time>2026-03-22T10:54:03.223Z</time></trkpt><trkpt lat="43.5934267" lon="11.34882"><ele>443.0</ele><time>2026-03-22T10:54:05.224Z</time></trkpt><trkpt lat="43.5934567" lon="11.3489283"><ele>444.0</ele><time>2026-03-22T10:54:07.225Z</time></trkpt><trkpt lat="43.593475" lon="11.3490517"><ele>446.0</ele><time>2026-03-22T10:54:09.225Z</time></trkpt><trkpt lat="43.5934667" lon="11.3491783"><ele>448.0</ele><time>2026-03-22T10:54:11.226Z</time></trkpt><trkpt lat="43.5934433" lon="11.34929"><ele>450.0</ele><time>2026-03-22T10:54:13.226Z</time></trkpt><trkpt lat="43.5934117" lon="11.34939"><ele>452.0</ele><time>2026-03-22T10:54:15.223Z</time></trkpt><trkpt lat="43.5933833" lon="11.3494917"><ele>454.0</ele><time>2026-03-22T10:54:17.222Z</time></trkpt><trkpt lat="43.5933683" lon="11.3495933"><ele>456.0</ele><time>2026-03-22T10:54:19.226Z</time></trkpt><trkpt lat="43.5933533" lon="11.3497033"><ele>457.5</ele><time>2026-03-22T10:54:21.225Z</time></trkpt><trkpt lat="43.5933483" lon="11.3498183"><ele>459.0</ele><time>2026-03-22T10:54:23.226Z</time></trkpt><trkpt lat="43.5933583" lon="11.349935"><ele>460.5</ele><time>2026-03-22T10:54:25.225Z</time></trkpt><trkpt lat="43.59338" lon="11.350055"><ele>462.0</ele><time>2026-03-22T10:54:27.223Z</time></trkpt><trkpt lat="43.5934083" lon="11.3501633"><ele>463.5</ele><time>2026-03-22T10:54:29.225Z</time></trkpt><trkpt lat="43.593435" lon="11.3502783"><ele>465.0</ele><time>2026-03-22T10:54:31.225Z</time></trkpt><trkpt lat="43.5934467" lon="11.350395"><ele>465.0</ele><time>2026-03-22T10:54:33.226Z</time></trkpt><trkpt lat="43.5934917" lon="11.3505083"><ele>465.0</ele><time>2026-03-22T10:54:35.225Z</time></trkpt><trkpt lat="43.59354" lon="11.35061"><ele>465.0</ele><time>2026-03-22T10:54:37.228Z</time></trkpt><trkpt lat="43.5935783" lon="11.350715"><ele>465.0</ele><time>2026-03-22T10:54:39.223Z</time></trkpt><trkpt lat="43.59362" lon="11.3508117"><ele>465.0</ele><time>2026-03-22T10:54:41.224Z</time></trkpt><trkpt lat="43.5936433" lon="11.3509233"><ele>465.0</ele><time>2026-03-22T10:54:43.225Z</time></trkpt><trkpt lat="43.593645" lon="11.3510483"><ele>466.3333333333333</ele><time>2026-03-22T10:54:45.226Z</time></trkpt><trkpt lat="43.593635" lon="11.35117"><ele>467.66666666666663</ele><time>2026-03-22T10:54:47.225Z</time></trkpt><trkpt lat="43.5936233" lon="11.3512817"><ele>469.0</ele><time>2026-03-22T10:54:49.227Z</time></trkpt><trkpt lat="43.5936183" lon="11.351385"><ele>470.3333333333333</ele><time>2026-03-22T10:54:51.223Z</time></trkpt><trkpt lat="43.593605" lon="11.35149"><ele>471.66666666666663</ele><time>2026-03-22T10:54:53.227Z</time></trkpt><trkpt lat="43.5935767" lon="11.3515917"><ele>473.0</ele><time>2026-03-22T10:54:55.225Z</time></trkpt><trkpt lat="43.5935483" lon="11.3516933"><ele>472.99999999999994</ele><time>2026-03-22T10:54:57.225Z</time></trkpt><trkpt lat="43.59352" lon="11.3517933"><ele>473.0</ele><time>2026-03-22T10:54:59.225Z</time></trkpt><trkpt lat="43.5934933" lon="11.3518867"><ele>473.0</ele><time>2026-03-22T10:55:01.225Z</time></trkpt><trkpt lat="43.593465" lon="11.351975"><ele>473.0</ele><time>2026-03-22T10:55:03.222Z</time></trkpt><trkpt lat="43.593435" lon="11.3520667"><ele>472.99999999999994</ele><time>2026-03-22T10:55:05.225Z</time></trkpt><trkpt lat="43.5933883" lon="11.3521633"><ele>473.0</ele><time>2026-03-22T10:55:07.226Z</time></trkpt><trkpt lat="43.5933217" lon="11.3522533"><ele>471.2</ele><time>2026-03-22T10:55:09.225Z</time></trkpt><trkpt lat="43.593235" lon="11.35235"><ele>469.4</ele><time>2026-03-22T10:55:11.225Z</time></trkpt><trkpt lat="43.5931517" lon="11.3524633"><ele>467.59999999999997</ele><time>2026-03-22T10:55:13.225Z</time></trkpt><trkpt lat="43.59308" lon="11.3525867"><ele>465.79999999999995</ele><time>2026-03-22T10:55:15.225Z</time></trkpt><trkpt lat="43.593035" lon="11.352705"><ele>464.0</ele><time>2026-03-22T10:55:17.226Z</time></trkpt><trkpt lat="43.5929967" lon="11.3528383"><ele>464.0</ele><time>2026-03-22T10:55:19.226Z</time></trkpt><trkpt lat="43.59299" lon="11.3529833"><ele>464.0</ele><time>2026-03-22T10:55:21.226Z</time></trkpt><trkpt lat="43.5929517" lon="11.3531467"><ele>464.0</ele><time>2026-03-22T10:55:23.227Z</time></trkpt><trkpt lat="43.5929083" lon="11.3533033"><ele>464.0</ele><time>2026-03-22T10:55:25.226Z</time></trkpt><trkpt lat="43.59285" lon="11.35345"><ele>464.4</ele><time>2026-03-22T10:55:27.226Z</time></trkpt><trkpt lat="43.5927767" lon="11.3535833"><ele>464.79999999999995</ele><time>2026-03-22T10:55:29.225Z</time></trkpt><trkpt lat="43.5927333" lon="11.3536467"><ele>465.20000000000005</ele><time>2026-03-22T10:55:30.226Z</time></trkpt><trkpt lat="43.592685" lon="11.353705"><ele>465.6</ele><time>2026-03-22T10:55:31.225Z</time></trkpt><trkpt lat="43.5925917" lon="11.353815"><ele>466.0</ele><time>2026-03-22T10:55:33.227Z</time></trkpt><trkpt lat="43.5925" lon="11.35393"><ele>466.00000000000006</ele><time>2026-03-22T10:55:35.225Z</time></trkpt><trkpt lat="43.5924533" lon="11.3539917"><ele>466.0</ele><time>2026-03-22T10:55:36.226Z</time></trkpt><trkpt lat="43.592405" lon="11.3540517"><ele>466.0</ele><time>2026-03-22T10:55:37.226Z</time></trkpt><trkpt lat="43.5923133" lon="11.35416"><ele>466.0</ele><time>2026-03-22T10:55:39.228Z</time></trkpt><trkpt lat="43.5922117" lon="11.3542417"><ele>466.00000000000006</ele><time>2026-03-22T10:55:41.228Z</time></trkpt><trkpt lat="43.59215" lon="11.3542617"><ele>466.0</ele><time>2026-03-22T10:55:42.228Z</time></trkpt><trkpt lat="43.592015" lon="11.3542983"><ele>469.6</ele><time>2026-03-22T10:55:44.226Z</time></trkpt><trkpt lat="43.5919183" lon="11.3543283"><ele>473.20000000000005</ele><time>2026-03-22T10:55:46.226Z</time></trkpt><trkpt lat="43.59183" lon="11.3543983"><ele>476.79999999999995</ele><time>2026-03-22T10:55:48.226Z</time></trkpt><trkpt lat="43.59173" lon="11.3544967"><ele>480.4</ele><time>2026-03-22T10:55:50.226Z</time></trkpt><trkpt lat="43.5916783" lon="11.3545517"><ele>484.0</ele><time>2026-03-22T10:55:51.227Z</time></trkpt><trkpt lat="43.5915817" lon="11.3546517"><ele>484.00000000000006</ele><time>2026-03-22T10:55:53.226Z</time></trkpt><trkpt lat="43.5915283" lon="11.3547"><ele>484.0</ele><time>2026-03-22T10:55:54.226Z</time></trkpt><trkpt lat="43.59142" lon="11.3547833"><ele>484.0</ele><time>2026-03-22T10:55:56.225Z</time></trkpt><trkpt lat="43.59136" lon="11.3548183"><ele>484.0</ele><time>2026-03-22T10:55:57.226Z</time></trkpt><trkpt lat="43.5912967" lon="11.354855"><ele>484.00000000000006</ele><time>2026-03-22T10:55:58.228Z</time></trkpt><trkpt lat="43.5912367" lon="11.354885"><ele>484.0</ele><time>2026-03-22T10:55:59.226Z</time></trkpt><trkpt lat="43.5911733" lon="11.3549067"><ele>483.1666666666667</ele><time>2026-03-22T10:56:00.226Z</time></trkpt><trkpt lat="43.5911083" lon="11.3549333"><ele>482.33333333333337</ele><time>2026-03-22T10:56:01.227Z</time></trkpt><trkpt lat="43.5910467" lon="11.35497"><ele>481.5</ele><time>2026-03-22T10:56:02.229Z</time></trkpt><trkpt lat="43.5909483" lon="11.3550533"><ele>480.66666666666663</ele><time>2026-03-22T10:56:04.225Z</time></trkpt><trkpt lat="43.5909" lon="11.35511"><ele>479.8333333333333</ele><time>2026-03-22T10:56:05.227Z</time></trkpt><trkpt lat="43.5908567" lon="11.355175"><ele>479.0</ele><time>2026-03-22T10:56:06.223Z</time></trkpt><trkpt lat="43.5908117" lon="11.3552583"><ele>478.99999999999994</ele><time>2026-03-22T10:56:07.225Z</time></trkpt><trkpt lat="43.5907683" lon="11.3554183"><ele>479.0</ele><time>2026-03-22T10:56:09.223Z</time></trkpt><trkpt lat="43.59077" lon="11.3555117"><ele>479.0</ele><time>2026-03-22T10:56:10.223Z</time></trkpt><trkpt lat="43.5907883" lon="11.3556033"><ele>479.0</ele><time>2026-03-22T10:56:11.223Z</time></trkpt><trkpt lat="43.5908217" lon="11.3557083"><ele>478.99999999999994</ele><time>2026-03-22T10:56:12.224Z</time></trkpt><trkpt lat="43.59087" lon="11.3557783"><ele>479.0</ele><time>2026-03-22T10:56:13.223Z</time></trkpt><trkpt lat="43.5909783" lon="11.355865"><ele>478.79999999999995</ele><time>2026-03-22T10:56:15.227Z</time></trkpt><trkpt lat="43.59106" lon="11.35587"><ele>478.59999999999997</ele><time>2026-03-22T10:56:16.227Z</time></trkpt><trkpt lat="43.5911367" lon="11.355885"><ele>478.4</ele><time>2026-03-22T10:56:17.227Z</time></trkpt><trkpt lat="43.59124" lon="11.355865"><ele>478.2</ele><time>2026-03-22T10:56:19.227Z</time></trkpt><trkpt lat="43.5913517" lon="11.3558433"><ele>478.0</ele><time>2026-03-22T10:56:21.225Z</time></trkpt><trkpt lat="43.5914583" lon="11.3558367"><ele>477.50000000000006</ele><time>2026-03-22T10:56:23.228Z</time></trkpt><trkpt lat="43.5915467" lon="11.355875"><ele>477.0</ele><time>2026-03-22T10:56:25.226Z</time></trkpt><trkpt lat="43.5916017" lon="11.35596"><ele>476.5</ele><time>2026-03-22T10:56:27.226Z</time></trkpt><trkpt lat="43.5916533" lon="11.35604"><ele>476.0</ele><time>2026-03-22T10:56:29.228Z</time></trkpt><trkpt lat="43.5917117" lon="11.3561333"><ele>475.50000000000006</ele><time>2026-03-22T10:56:31.226Z</time></trkpt><trkpt lat="43.5917783" lon="11.356205"><ele>475.0</ele><time>2026-03-22T10:56:33.228Z</time></trkpt><trkpt lat="43.5918467" lon="11.3562567"><ele>475.0</ele><time>2026-03-22T10:56:35.225Z</time></trkpt><trkpt lat="43.5919067" lon="11.3563"><ele>475.00000000000006</ele><time>2026-03-22T10:56:37.226Z</time></trkpt><trkpt lat="43.5919683" lon="11.3563483"><ele>475.0</ele><time>2026-03-22T10:56:39.226Z</time></trkpt><trkpt lat="43.5920317" lon="11.3563817"><ele>475.0</ele><time>2026-03-22T10:56:41.227Z</time></trkpt><trkpt lat="43.5921017" lon="11.356445"><ele>475.00000000000006</ele><time>2026-03-22T10:56:43.226Z</time></trkpt><trkpt lat="43.59215" lon="11.3565283"><ele>475.0</ele><time>2026-03-22T10:56:45.227Z</time></trkpt><trkpt lat="43.5921817" lon="11.356615"><ele>475.0</ele><time>2026-03-22T10:56:47.226Z</time></trkpt><trkpt lat="43.59221" lon="11.356705"><ele>474.00000000000006</ele><time>2026-03-22T10:56:49.227Z</time></trkpt><trkpt lat="43.59223" lon="11.3568033"><ele>473.0</ele><time>2026-03-22T10:56:51.225Z</time></trkpt><trkpt lat="43.592245" lon="11.356915"><ele>472.0</ele><time>2026-03-22T10:56:53.226Z</time></trkpt><trkpt lat="43.5922533" lon="11.357035"><ele>471.0</ele><time>2026-03-22T10:56:55.226Z</time></trkpt><trkpt lat="43.5922667" lon="11.3571367"><ele>470.00000000000006</ele><time>2026-03-22T10:56:57.226Z</time></trkpt><trkpt lat="43.592265" lon="11.3572417"><ele>469.0</ele><time>2026-03-22T10:56:59.225Z</time></trkpt><trkpt lat="43.59228" lon="11.3573483"><ele>471.2857142857143</ele><time>2026-03-22T10:57:01.225Z</time></trkpt><trkpt lat="43.5922933" lon="11.3574467"><ele>473.57142857142856</ele><time>2026-03-22T10:57:03.226Z</time></trkpt><trkpt lat="43.5923067" lon="11.3575433"><ele>475.8571428571429</ele><time>2026-03-22T10:57:05.227Z</time></trkpt><trkpt lat="43.5923317" lon="11.3576383"><ele>478.14285714285717</ele><time>2026-03-22T10:57:07.225Z</time></trkpt><trkpt lat="43.592355" lon="11.3577283"><ele>480.42857142857144</ele><time>2026-03-22T10:57:09.225Z</time></trkpt><trkpt lat="43.5923767" lon="11.35782"><ele>482.7142857142858</ele><time>2026-03-22T10:57:11.226Z</time></trkpt><trkpt lat="43.5923917" lon="11.3579133"><ele>485.00000000000006</ele><time>2026-03-22T10:57:13.226Z</time></trkpt><trkpt lat="43.5924217" lon="11.3579967"><ele>487.99999999999994</ele><time>2026-03-22T10:57:15.227Z</time></trkpt><trkpt lat="43.5924417" lon="11.3580917"><ele>491.0</ele><time>2026-03-22T10:57:17.225Z</time></trkpt><trkpt lat="43.5924717" lon="11.3581833"><ele>494.0</ele><time>2026-03-22T10:57:19.226Z</time></trkpt><trkpt lat="43.5924917" lon="11.3582767"><ele>497.0</ele><time>2026-03-22T10:57:21.225Z</time></trkpt><trkpt lat="43.5925233" lon="11.358375"><ele>499.99999999999994</ele><time>2026-03-22T10:57:23.226Z</time></trkpt><trkpt lat="43.5925567" lon="11.35847"><ele>503.0</ele><time>2026-03-22T10:57:25.225Z</time></trkpt><trkpt lat="43.59261" lon="11.3585567"><ele>503.0</ele><time>2026-03-22T10:57:27.226Z</time></trkpt><trkpt lat="43.5926533" lon="11.3586417"><ele>503.00000000000006</ele><time>2026-03-22T10:57:29.225Z</time></trkpt><trkpt lat="43.5926867" lon="11.3587317"><ele>503.0</ele><time>2026-03-22T10:57:31.225Z</time></trkpt><trkpt lat="43.5927017" lon="11.3588267"><ele>503.0</ele><time>2026-03-22T10:57:33.226Z</time></trkpt><trkpt lat="43.5926967" lon="11.3589333"><ele>503.00000000000006</ele><time>2026-03-22T10:57:35.225Z</time></trkpt><trkpt lat="43.5926583" lon="11.359025"><ele>503.0</ele><time>2026-03-22T10:57:37.225Z</time></trkpt><trkpt lat="43.5926133" lon="11.3591067"><ele>503.0</ele><time>2026-03-22T10:57:39.225Z</time></trkpt><trkpt lat="43.5925717" lon="11.35918"><ele>503.5714285714286</ele><time>2026-03-22T10:57:41.226Z</time></trkpt><trkpt lat="43.5925333" lon="11.3592583"><ele>504.1428571428572</ele><time>2026-03-22T10:57:43.224Z</time></trkpt><trkpt lat="43.5924983" lon="11.3593433"><ele>504.7142857142857</ele><time>2026-03-22T10:57:45.225Z</time></trkpt><trkpt lat="43.5924467" lon="11.3594367"><ele>505.28571428571433</ele><time>2026-03-22T10:57:47.225Z</time></trkpt><trkpt lat="43.5924317" lon="11.35953"><ele>505.8571428571429</ele><time>2026-03-22T10:57:49.225Z</time></trkpt><trkpt lat="43.5924167" lon="11.359635"><ele>506.42857142857144</ele><time>2026-03-22T10:57:51.226Z</time></trkpt><trkpt lat="43.5924" lon="11.3597383"><ele>507.0</ele><time>2026-03-22T10:57:53.226Z</time></trkpt><trkpt lat="43.5923883" lon="11.35984"><ele>507.1666666666667</ele><time>2026-03-22T10:57:55.225Z</time></trkpt><trkpt lat="43.59238" lon="11.35994"><ele>507.33333333333337</ele><time>2026-03-22T10:57:57.225Z</time></trkpt><trkpt lat="43.5923517" lon="11.36004"><ele>507.5</ele><time>2026-03-22T10:57:59.226Z</time></trkpt><trkpt lat="43.592325" lon="11.3601433"><ele>507.6666666666667</ele><time>2026-03-22T10:58:01.225Z</time></trkpt><trkpt lat="43.5923117" lon="11.36025"><ele>507.83333333333337</ele><time>2026-03-22T10:58:03.225Z</time></trkpt><trkpt lat="43.5923167" lon="11.360355"><ele>508.0</ele><time>2026-03-22T10:58:05.224Z</time></trkpt><trkpt lat="43.5923333" lon="11.36046"><ele>510.1666666666667</ele><time>2026-03-22T10:58:07.225Z</time></trkpt><trkpt lat="43.5923767" lon="11.3605583"><ele>512.3333333333334</ele><time>2026-03-22T10:58:09.225Z</time></trkpt><trkpt lat="43.5924433" lon="11.360645"><ele>514.5</ele><time>2026-03-22T10:58:11.225Z</time></trkpt><trkpt lat="43.5925167" lon="11.360705"><ele>516.6666666666666</ele><time>2026-03-22T10:58:13.226Z</time></trkpt><trkpt lat="43.592585" lon="11.3607533"><ele>518.8333333333333</ele><time>2026-03-22T10:58:15.226Z</time></trkpt><trkpt lat="43.5926667" lon="11.360795"><ele>521.0</ele><time>2026-03-22T10:58:17.224Z</time></trkpt><trkpt lat="43.592725" lon="11.3608367"><ele>521.0</ele><time>2026-03-22T10:58:19.224Z</time></trkpt><trkpt lat="43.5927783" lon="11.3609"><ele>521.0</ele><time>2026-03-22T10:58:21.224Z</time></trkpt><trkpt lat="43.5928217" lon="11.36099"><ele>521.0</ele><time>2026-03-22T10:58:23.226Z</time></trkpt><trkpt lat="43.592855" lon="11.361085"><ele>521.0</ele><time>2026-03-22T10:58:25.226Z</time></trkpt><trkpt lat="43.5928667" lon="11.3611867"><ele>521.0</ele><time>2026-03-22T10:58:27.224Z</time></trkpt><trkpt lat="43.592875" lon="11.361285"><ele>521.0</ele><time>2026-03-22T10:58:29.226Z</time></trkpt><trkpt lat="43.592885" lon="11.361385"><ele>521.0</ele><time>2026-03-22T10:58:31.224Z</time></trkpt><trkpt lat="43.5928667" lon="11.36148"><ele>522.8333333333333</ele><time>2026-03-22T10:58:33.225Z</time></trkpt><trkpt lat="43.5928433" lon="11.3615867"><ele>524.6666666666666</ele><time>2026-03-22T10:58:35.225Z</time></trkpt><trkpt lat="43.59281" lon="11.3616917"><ele>526.5</ele><time>2026-03-22T10:58:37.224Z</time></trkpt><trkpt lat="43.5927667" lon="11.3617883"><ele>528.3333333333334</ele><time>2026-03-22T10:58:39.224Z</time></trkpt><trkpt lat="43.5927417" lon="11.361885"><ele>530.1666666666667</ele><time>2026-03-22T10:58:41.224Z</time></trkpt><trkpt lat="43.59272" lon="11.3619783"><ele>532.0</ele><time>2026-03-22T10:58:43.225Z</time></trkpt><trkpt lat="43.592685" lon="11.36207"><ele>532.0</ele><time>2026-03-22T10:58:45.226Z</time></trkpt><trkpt lat="43.592655" lon="11.3621617"><ele>532.0</ele><time>2026-03-22T10:58:47.225Z</time></trkpt><trkpt lat="43.592625" lon="11.36225"><ele>532.0</ele><time>2026-03-22T10:58:49.225Z</time></trkpt><trkpt lat="43.59259" lon="11.362335"><ele>532.0</ele><time>2026-03-22T10:58:51.225Z</time></trkpt><trkpt lat="43.592565" lon="11.3624217"><ele>532.0</ele><time>2026-03-22T10:58:53.225Z</time></trkpt><trkpt lat="43.5925317" lon="11.3625117"><ele>532.0</ele><time>2026-03-22T10:58:55.224Z</time></trkpt><trkpt lat="43.5925033" lon="11.362605"><ele>532.0</ele><time>2026-03-22T10:58:57.224Z</time></trkpt><trkpt lat="43.5924817" lon="11.3627033"><ele>532.0</ele><time>2026-03-22T10:58:59.226Z</time></trkpt><trkpt lat="43.5924683" lon="11.3628083"><ele>532.0</ele><time>2026-03-22T10:59:01.226Z</time></trkpt><trkpt lat="43.5924617" lon="11.36292"><ele>532.0</ele><time>2026-03-22T10:59:03.225Z</time></trkpt><trkpt lat="43.59246" lon="11.3630333"><ele>532.0</ele><time>2026-03-22T10:59:05.225Z</time></trkpt><trkpt lat="43.592485" lon="11.36315"><ele>532.0</ele><time>2026-03-22T10:59:07.225Z</time></trkpt><trkpt lat="43.5925533" lon="11.3632533"><ele>532.0</ele><time>2026-03-22T10:59:09.225Z</time></trkpt><trkpt lat="43.59265" lon="11.3633233"><ele>532.6</ele><time>2026-03-22T10:59:11.225Z</time></trkpt><trkpt lat="43.59275" lon="11.36334"><ele>533.2</ele><time>2026-03-22T10:59:13.225Z</time></trkpt><trkpt lat="43.592855" lon="11.3633333"><ele>533.8</ele><time>2026-03-22T10:59:15.224Z</time></trkpt><trkpt lat="43.5929767" lon="11.36332"><ele>534.4</ele><time>2026-03-22T10:59:17.225Z</time></trkpt><trkpt lat="43.59304" lon="11.3633033"><ele>535.0</ele><time>2026-03-22T10:59:18.225Z</time></trkpt><trkpt lat="43.593105" lon="11.3632917"><ele>533.8571428571429</ele><time>2026-03-22T10:59:19.225Z</time></trkpt><trkpt lat="43.5931767" lon="11.363275"><ele>532.7142857142858</ele><time>2026-03-22T10:59:20.225Z</time></trkpt><trkpt lat="43.5932483" lon="11.36325"><ele>531.5714285714287</ele><time>2026-03-22T10:59:21.225Z</time></trkpt><trkpt lat="43.5933217" lon="11.3632283"><ele>530.4285714285714</ele><time>2026-03-22T10:59:22.226Z</time></trkpt><trkpt lat="43.5933933" lon="11.36321"><ele>529.2857142857143</ele><time>2026-03-22T10:59:23.226Z</time></trkpt><trkpt lat="43.5934683" lon="11.3631933"><ele>528.1428571428572</ele><time>2026-03-22T10:59:24.226Z</time></trkpt><trkpt lat="43.5935417" lon="11.3631917"><ele>527.0</ele><time>2026-03-22T10:59:25.225Z</time></trkpt><trkpt lat="43.59362" lon="11.3632033"><ele>525.8333333333333</ele><time>2026-03-22T10:59:26.225Z</time></trkpt><trkpt lat="43.5937" lon="11.3632267"><ele>524.6666666666666</ele><time>2026-03-22T10:59:27.225Z</time></trkpt><trkpt lat="43.5937833" lon="11.363265"><ele>523.5</ele><time>2026-03-22T10:59:28.225Z</time></trkpt><trkpt lat="43.593865" lon="11.3633"><ele>522.3333333333334</ele><time>2026-03-22T10:59:29.226Z</time></trkpt><trkpt lat="43.5939483" lon="11.3633333"><ele>521.1666666666667</ele><time>2026-03-22T10:59:30.227Z</time></trkpt><trkpt lat="43.5940267" lon="11.3633667"><ele>520.0</ele><time>2026-03-22T10:59:31.225Z</time></trkpt><trkpt lat="43.5941017" lon="11.3633983"><ele>520.0</ele><time>2026-03-22T10:59:32.225Z</time></trkpt><trkpt lat="43.5941733" lon="11.36342"><ele>520.0</ele><time>2026-03-22T10:59:33.226Z</time></trkpt><trkpt lat="43.59425" lon="11.3634233"><ele>520.0</ele><time>2026-03-22T10:59:34.224Z</time></trkpt><trkpt lat="43.5943317" lon="11.3634267"><ele>520.0</ele><time>2026-03-22T10:59:35.225Z</time></trkpt><trkpt lat="43.5944133" lon="11.3634083"><ele>520.0</ele><time>2026-03-22T10:59:36.225Z</time></trkpt><trkpt lat="43.5944917" lon="11.3633683"><ele>520.0</ele><time>2026-03-22T10:59:37.225Z</time></trkpt><trkpt lat="43.59457" lon="11.3633183"><ele>521.3333333333334</ele><time>2026-03-22T10:59:38.226Z</time></trkpt><trkpt lat="43.5946433" lon="11.3632583"><ele>522.6666666666667</ele><time>2026-03-22T10:59:39.226Z</time></trkpt><trkpt lat="43.594715" lon="11.3631883"><ele>524.0</ele><time>2026-03-22T10:59:40.225Z</time></trkpt><trkpt lat="43.594785" lon="11.3631183"><ele>525.3333333333334</ele><time>2026-03-22T10:59:41.225Z</time></trkpt><trkpt lat="43.594855" lon="11.3630483"><ele>526.6666666666666</ele><time>2026-03-22T10:59:42.225Z</time></trkpt><trkpt lat="43.594925" lon="11.3629817"><ele>528.0</ele><time>2026-03-22T10:59:43.227Z</time></trkpt><trkpt lat="43.594995" lon="11.362925"><ele>527.1666666666666</ele><time>2026-03-22T10:59:44.225Z</time></trkpt><trkpt lat="43.5950683" lon="11.362885"><ele>526.3333333333334</ele><time>2026-03-22T10:59:45.226Z</time></trkpt><trkpt lat="43.5951433" lon="11.362845"><ele>525.5</ele><time>2026-03-22T10:59:46.226Z</time></trkpt><trkpt lat="43.59522" lon="11.3628083"><ele>524.6666666666667</ele><time>2026-03-22T10:59:47.225Z</time></trkpt><trkpt lat="43.5952967" lon="11.362775"><ele>523.8333333333334</ele><time>2026-03-22T10:59:48.225Z</time></trkpt><trkpt lat="43.59537" lon="11.3627367"><ele>523.0</ele><time>2026-03-22T10:59:49.228Z</time></trkpt><trkpt lat="43.5954383" lon="11.3626867"><ele>523.0</ele><time>2026-03-22T10:59:50.225Z</time></trkpt><trkpt lat="43.59551" lon="11.3626417"><ele>523.0</ele><time>2026-03-22T10:59:51.225Z</time></trkpt><trkpt lat="43.5955767" lon="11.3625833"><ele>523.0</ele><time>2026-03-22T10:59:52.226Z</time></trkpt><trkpt lat="43.5956433" lon="11.3625267"><ele>523.0</ele><time>2026-03-22T10:59:53.225Z</time></trkpt><trkpt lat="43.5957117" lon="11.3624767"><ele>523.0</ele><time>2026-03-22T10:59:54.225Z</time></trkpt><trkpt lat="43.5957817" lon="11.3624233"><ele>523.0</ele><time>2026-03-22T10:59:55.225Z</time></trkpt><trkpt lat="43.5958533" lon="11.362375"><ele>522.9999999999999</ele><time>2026-03-22T10:59:56.226Z</time></trkpt><trkpt lat="43.595925" lon="11.3623267"><ele>523.0</ele><time>2026-03-22T10:59:57.225Z</time></trkpt><trkpt lat="43.595995" lon="11.362285"><ele>523.0</ele><time>2026-03-22T10:59:58.225Z</time></trkpt><trkpt lat="43.5960617" lon="11.3622417"><ele>523.0</ele><time>2026-03-22T10:59:59.225Z</time></trkpt><trkpt lat="43.5961283" lon="11.3622067"><ele>523.0</ele><time>2026-03-22T11:00:00.225Z</time></trkpt><trkpt lat="43.5962" lon="11.3621833"><ele>522.9999999999999</ele><time>2026-03-22T11:00:01.227Z</time></trkpt><trkpt lat="43.5962717" lon="11.3621717"><ele>523.0</ele><time>2026-03-22T11:00:02.225Z</time></trkpt><trkpt lat="43.59634" lon="11.36216"><ele>523.4285714285713</ele><time>2026-03-22T11:00:03.226Z</time></trkpt><trkpt lat="43.596415" lon="11.3621583"><ele>523.8571428571429</ele><time>2026-03-22T11:00:04.227Z</time></trkpt><trkpt lat="43.5964867" lon="11.3621683"><ele>524.2857142857142</ele><time>2026-03-22T11:00:05.228Z</time></trkpt><trkpt lat="43.5965533" lon="11.3622033"><ele>524.7142857142857</ele><time>2026-03-22T11:00:06.225Z</time></trkpt><trkpt lat="43.596615" lon="11.3622533"><ele>525.1428571428571</ele><time>2026-03-22T11:00:07.226Z</time></trkpt><trkpt lat="43.59667" lon="11.362315"><ele>525.5714285714286</ele><time>2026-03-22T11:00:08.227Z</time></trkpt><trkpt lat="43.5967167" lon="11.362395"><ele>526.0</ele><time>2026-03-22T11:00:09.226Z</time></trkpt><trkpt lat="43.5967483" lon="11.3624767"><ele>526.0</ele><time>2026-03-22T11:00:10.224Z</time></trkpt><trkpt lat="43.5967783" lon="11.362565"><ele>526.0</ele><time>2026-03-22T11:00:11.228Z</time></trkpt><trkpt lat="43.5968117" lon="11.3626467"><ele>526.0</ele><time>2026-03-22T11:00:12.225Z</time></trkpt><trkpt lat="43.5968533" lon="11.36272"><ele>526.0</ele><time>2026-03-22T11:00:13.226Z</time></trkpt><trkpt lat="43.5969" lon="11.36279"><ele>526.0</ele><time>2026-03-22T11:00:14.228Z</time></trkpt><trkpt lat="43.59695" lon="11.36285"><ele>526.0</ele><time>2026-03-22T11:00:15.226Z</time></trkpt><trkpt lat="43.5970117" lon="11.3628983"><ele>526.0</ele><time>2026-03-22T11:00:16.226Z</time></trkpt><trkpt lat="43.5970683" lon="11.3629417"><ele>527.2</ele><time>2026-03-22T11:00:17.227Z</time></trkpt><trkpt lat="43.597125" lon="11.36298"><ele>528.4000000000001</ele><time>2026-03-22T11:00:18.224Z</time></trkpt><trkpt lat="43.5972333" lon="11.3630317"><ele>529.6</ele><time>2026-03-22T11:00:20.227Z</time></trkpt><trkpt lat="43.5973367" lon="11.36305"><ele>530.8000000000001</ele><time>2026-03-22T11:00:22.226Z</time></trkpt><trkpt lat="43.5974317" lon="11.3630683"><ele>532.0</ele><time>2026-03-22T11:00:24.226Z</time></trkpt><trkpt lat="43.5975217" lon="11.3630933"><ele>532.0</ele><time>2026-03-22T11:00:26.224Z</time></trkpt><trkpt lat="43.5976017" lon="11.3631217"><ele>532.0</ele><time>2026-03-22T11:00:28.225Z</time></trkpt><trkpt lat="43.5976817" lon="11.3631433"><ele>532.0</ele><time>2026-03-22T11:00:30.227Z</time></trkpt><trkpt lat="43.5977733" lon="11.3631733"><ele>532.0</ele><time>2026-03-22T11:00:32.226Z</time></trkpt><trkpt lat="43.5978717" lon="11.3632133"><ele>532.0</ele><time>2026-03-22T11:00:34.225Z</time></trkpt><trkpt lat="43.59796" lon="11.36328"><ele>532.0</ele><time>2026-03-22T11:00:36.225Z</time></trkpt><trkpt lat="43.598025" lon="11.363365"><ele>532.0</ele><time>2026-03-22T11:00:38.226Z</time></trkpt><trkpt lat="43.5980833" lon="11.3634683"><ele>532.0</ele><time>2026-03-22T11:00:40.225Z</time></trkpt><trkpt lat="43.598135" lon="11.3635883"><ele>532.0</ele><time>2026-03-22T11:00:42.225Z</time></trkpt><trkpt lat="43.5981733" lon="11.36373"><ele>532.0</ele><time>2026-03-22T11:00:44.227Z</time></trkpt><trkpt lat="43.5981933" lon="11.3638567"><ele>531.8571428571429</ele><time>2026-03-22T11:00:46.225Z</time></trkpt><trkpt lat="43.5982167" lon="11.3639567"><ele>531.7142857142858</ele><time>2026-03-22T11:00:48.225Z</time></trkpt><trkpt lat="43.5982233" lon="11.364045"><ele>531.5714285714286</ele><time>2026-03-22T11:00:50.225Z</time></trkpt><trkpt lat="43.5982283" lon="11.364165"><ele>531.4285714285714</ele><time>2026-03-22T11:00:53.225Z</time></trkpt><trkpt lat="43.5982333" lon="11.3642533"><ele>531.2857142857143</ele><time>2026-03-22T11:00:55.226Z</time></trkpt><trkpt lat="43.5982483" lon="11.364355"><ele>531.1428571428571</ele><time>2026-03-22T11:00:58.224Z</time></trkpt><trkpt lat="43.59828" lon="11.3642717"><ele>531.0</ele><time>2026-03-22T11:01:19.225Z</time></trkpt><trkpt lat="43.5982567" lon="11.36419"><ele>531.0</ele><time>2026-03-22T11:01:23.227Z</time></trkpt><trkpt lat="43.5982367" lon="11.3641033"><ele>531.0</ele><time>2026-03-22T11:01:26.227Z</time></trkpt><trkpt lat="43.598225" lon="11.3639967"><ele>531.0</ele><time>2026-03-22T11:01:30.226Z</time></trkpt><trkpt lat="43.598215" lon="11.3638933"><ele>531.0</ele><time>2026-03-22T11:01:34.226Z</time></trkpt><trkpt lat="43.598215" lon="11.3637983"><ele>531.0</ele><time>2026-03-22T11:01:39.225Z</time></trkpt><trkpt lat="43.598265" lon="11.3637183"><ele>531.0</ele><time>2026-03-22T11:03:49.225Z</time></trkpt><trkpt lat="43.5982367" lon="11.3638133"><ele>531.0</ele><time>2026-03-22T11:05:10.224Z</time></trkpt><trkpt lat="43.5982333" lon="11.3639617"><ele>531.0</ele><time>2026-03-22T11:05:13.225Z</time></trkpt><trkpt lat="43.5982483" lon="11.3640883"><ele>531.0</ele><time>2026-03-22T11:05:15.225Z</time></trkpt><trkpt lat="43.5982633" lon="11.3642383"><ele>531.0</ele><time>2026-03-22T11:05:17.225Z</time></trkpt><trkpt lat="43.5982767" lon="11.3643233"><ele>531.0</ele><time>2026-03-22T11:05:18.225Z</time></trkpt><trkpt lat="43.598295" lon="11.36441"><ele>531.0</ele><time>2026-03-22T11:05:19.225Z</time></trkpt><trkpt lat="43.59832" lon="11.3644983"><ele>531.0</ele><time>2026-03-22T11:05:20.225Z</time></trkpt><trkpt lat="43.5983583" lon="11.36458"><ele>531.0</ele><time>2026-03-22T11:05:21.224Z</time></trkpt><trkpt lat="43.5984133" lon="11.3646567"><ele>531.0</ele><time>2026-03-22T11:05:22.223Z</time></trkpt><trkpt lat="43.5984683" lon="11.3647267"><ele>531.0</ele><time>2026-03-22T11:05:23.226Z</time></trkpt><trkpt lat="43.5985233" lon="11.3648"><ele>531.0</ele><time>2026-03-22T11:05:24.226Z</time></trkpt><trkpt lat="43.5985833" lon="11.364865"><ele>531.0</ele><time>2026-03-22T11:05:25.225Z</time></trkpt><trkpt lat="43.59864" lon="11.3649317"><ele>531.0</ele><time>2026-03-22T11:05:26.226Z</time></trkpt><trkpt lat="43.5986967" lon="11.364995"><ele>529.0</ele><time>2026-03-22T11:05:27.224Z</time></trkpt><trkpt lat="43.59876" lon="11.3650583"><ele>527.0</ele><time>2026-03-22T11:05:28.224Z</time></trkpt><trkpt lat="43.5988233" lon="11.365135"><ele>525.0</ele><time>2026-03-22T11:05:29.225Z</time></trkpt><trkpt lat="43.59889" lon="11.365215"><ele>523.0</ele><time>2026-03-22T11:05:30.229Z</time></trkpt><trkpt lat="43.5989483" lon="11.3652917"><ele>521.0</ele><time>2026-03-22T11:05:31.225Z</time></trkpt><trkpt lat="43.598995" lon="11.365385"><ele>519.0</ele><time>2026-03-22T11:05:32.226Z</time></trkpt><trkpt lat="43.599035" lon="11.3654983"><ele>519.0</ele><time>2026-03-22T11:05:33.224Z</time></trkpt><trkpt lat="43.59906" lon="11.3656183"><ele>519.0</ele><time>2026-03-22T11:05:34.224Z</time></trkpt><trkpt lat="43.59907" lon="11.36574"><ele>519.0</ele><time>2026-03-22T11:05:35.228Z</time></trkpt><trkpt lat="43.599055" lon="11.3658717"><ele>519.0</ele><time>2026-03-22T11:05:36.225Z</time></trkpt><trkpt lat="43.5990267" lon="11.366005"><ele>519.0</ele><time>2026-03-22T11:05:37.226Z</time></trkpt><trkpt lat="43.59899" lon="11.36613"><ele>519.0</ele><time>2026-03-22T11:05:38.225Z</time></trkpt><trkpt lat="43.5989517" lon="11.3662583"><ele>519.0</ele><time>2026-03-22T11:05:39.226Z</time></trkpt><trkpt lat="43.5989267" lon="11.3663867"><ele>519.0</ele><time>2026-03-22T11:05:40.224Z</time></trkpt><trkpt lat="43.5989283" lon="11.3665217"><ele>519.0</ele><time>2026-03-22T11:05:41.228Z</time></trkpt><trkpt lat="43.59894" lon="11.36664"><ele>519.0</ele><time>2026-03-22T11:05:42.226Z</time></trkpt><trkpt lat="43.598975" lon="11.36676"><ele>518.6</ele><time>2026-03-22T11:05:43.227Z</time></trkpt><trkpt lat="43.5990333" lon="11.366865"><ele>518.2</ele><time>2026-03-22T11:05:44.225Z</time></trkpt><trkpt lat="43.5991033" lon="11.3669633"><ele>517.8000000000001</ele><time>2026-03-22T11:05:45.225Z</time></trkpt><trkpt lat="43.5991833" lon="11.3670467"><ele>517.4</ele><time>2026-03-22T11:05:46.225Z</time></trkpt><trkpt lat="43.5992817" lon="11.3671367"><ele>517.0</ele><time>2026-03-22T11:05:47.225Z</time></trkpt><trkpt lat="43.599375" lon="11.36723"><ele>518.4</ele><time>2026-03-22T11:05:48.225Z</time></trkpt><trkpt lat="43.5994617" lon="11.3673217"><ele>519.8000000000001</ele><time>2026-03-22T11:05:49.225Z</time></trkpt><trkpt lat="43.59956" lon="11.3674"><ele>521.2</ele><time>2026-03-22T11:05:50.226Z</time></trkpt><trkpt lat="43.5996583" lon="11.3674683"><ele>522.6</ele><time>2026-03-22T11:05:51.225Z</time></trkpt><trkpt lat="43.599755" lon="11.367525"><ele>524.0</ele><time>2026-03-22T11:05:52.224Z</time></trkpt><trkpt lat="43.5998517" lon="11.3675817"><ele>521.2</ele><time>2026-03-22T11:05:53.224Z</time></trkpt><trkpt lat="43.5999383" lon="11.3676633"><ele>518.4</ele><time>2026-03-22T11:05:54.225Z</time></trkpt><trkpt lat="43.6000083" lon="11.3677733"><ele>515.6</ele><time>2026-03-22T11:05:55.226Z</time></trkpt><trkpt lat="43.6000733" lon="11.367895"><ele>512.8</ele><time>2026-03-22T11:05:56.226Z</time></trkpt><trkpt lat="43.600115" lon="11.36803"><ele>510.0</ele><time>2026-03-22T11:05:57.226Z</time></trkpt><trkpt lat="43.6001633" lon="11.36816"><ele>510.0</ele><time>2026-03-22T11:05:58.227Z</time></trkpt><trkpt lat="43.60023" lon="11.36826"><ele>510.0</ele><time>2026-03-22T11:05:59.225Z</time></trkpt><trkpt lat="43.600315" lon="11.36834"><ele>510.0</ele><time>2026-03-22T11:06:00.226Z</time></trkpt><trkpt lat="43.600405" lon="11.3684067"><ele>510.0</ele><time>2026-03-22T11:06:01.226Z</time></trkpt><trkpt lat="43.6004883" lon="11.368485"><ele>510.0</ele><time>2026-03-22T11:06:02.225Z</time></trkpt><trkpt lat="43.60057" lon="11.3685767"><ele>508.0</ele><time>2026-03-22T11:06:03.226Z</time></trkpt><trkpt lat="43.6006417" lon="11.3686817"><ele>506.0</ele><time>2026-03-22T11:06:04.225Z</time></trkpt><trkpt lat="43.6007183" lon="11.3687783"><ele>504.0</ele><time>2026-03-22T11:06:05.226Z</time></trkpt><trkpt lat="43.6007867" lon="11.3688733"><ele>502.0</ele><time>2026-03-22T11:06:06.225Z</time></trkpt><trkpt lat="43.6008383" lon="11.3689783"><ele>500.0</ele><time>2026-03-22T11:06:07.226Z</time></trkpt><trkpt lat="43.6008417" lon="11.36912"><ele>500.0</ele><time>2026-03-22T11:06:08.226Z</time></trkpt><trkpt lat="43.6008383" lon="11.3692533"><ele>500.0</ele><time>2026-03-22T11:06:09.225Z</time></trkpt><trkpt lat="43.60082" lon="11.3693867"><ele>500.0</ele><time>2026-03-22T11:06:10.225Z</time></trkpt><trkpt lat="43.6007833" lon="11.3695167"><ele>500.0</ele><time>2026-03-22T11:06:11.224Z</time></trkpt><trkpt lat="43.60074" lon="11.36964"><ele>500.0</ele><time>2026-03-22T11:06:12.225Z</time></trkpt><trkpt lat="43.6006867" lon="11.3697433"><ele>498.66666666666663</ele><time>2026-03-22T11:06:13.225Z</time></trkpt><trkpt lat="43.60063" lon="11.3698333"><ele>497.3333333333333</ele><time>2026-03-22T11:06:14.226Z</time></trkpt><trkpt lat="43.6005667" lon="11.369905"><ele>496.0</ele><time>2026-03-22T11:06:15.227Z</time></trkpt><trkpt lat="43.600495" lon="11.3699567"><ele>494.66666666666663</ele><time>2026-03-22T11:06:16.225Z</time></trkpt><trkpt lat="43.6004117" lon="11.3699267"><ele>493.3333333333333</ele><time>2026-03-22T11:06:17.226Z</time></trkpt><trkpt lat="43.6003417" lon="11.3698817"><ele>492.0</ele><time>2026-03-22T11:06:18.224Z</time></trkpt><trkpt lat="43.6002683" lon="11.3698067"><ele>492.0</ele><time>2026-03-22T11:06:19.226Z</time></trkpt><trkpt lat="43.600195" lon="11.369715"><ele>492.00000000000006</ele><time>2026-03-22T11:06:20.225Z</time></trkpt><trkpt lat="43.6001133" lon="11.3696433"><ele>492.00000000000006</ele><time>2026-03-22T11:06:21.225Z</time></trkpt><trkpt lat="43.6000267" lon="11.3695917"><ele>492.0</ele><time>2026-03-22T11:06:22.225Z</time></trkpt><trkpt lat="43.59993" lon="11.36956"><ele>492.0</ele><time>2026-03-22T11:06:23.225Z</time></trkpt><trkpt lat="43.5998283" lon="11.36956"><ele>492.0</ele><time>2026-03-22T11:06:24.225Z</time></trkpt><trkpt lat="43.5997317" lon="11.3695967"><ele>492.00000000000006</ele><time>2026-03-22T11:06:25.225Z</time></trkpt><trkpt lat="43.5996417" lon="11.3696733"><ele>492.00000000000006</ele><time>2026-03-22T11:06:26.225Z</time></trkpt><trkpt lat="43.5995783" lon="11.3697833"><ele>492.0</ele><time>2026-03-22T11:06:27.225Z</time></trkpt><trkpt lat="43.599535" lon="11.3699083"><ele>492.0</ele><time>2026-03-22T11:06:28.224Z</time></trkpt><trkpt lat="43.5995083" lon="11.3700483"><ele>491.8</ele><time>2026-03-22T11:06:29.227Z</time></trkpt><trkpt lat="43.599485" lon="11.3701933"><ele>491.6</ele><time>2026-03-22T11:06:30.224Z</time></trkpt><trkpt lat="43.599465" lon="11.37033"><ele>491.40000000000003</ele><time>2026-03-22T11:06:31.227Z</time></trkpt><trkpt lat="43.5994267" lon="11.3704567"><ele>491.20000000000005</ele><time>2026-03-22T11:06:32.225Z</time></trkpt><trkpt lat="43.599365" lon="11.3705517"><ele>491.0</ele><time>2026-03-22T11:06:33.225Z</time></trkpt><trkpt lat="43.59928" lon="11.370615"><ele>489.6</ele><time>2026-03-22T11:06:34.224Z</time></trkpt><trkpt lat="43.599185" lon="11.3706367"><ele>488.20000000000005</ele><time>2026-03-22T11:06:35.227Z</time></trkpt><trkpt lat="43.59909" lon="11.3706167"><ele>486.79999999999995</ele><time>2026-03-22T11:06:36.225Z</time></trkpt><trkpt lat="43.5989933" lon="11.3705733"><ele>485.4</ele><time>2026-03-22T11:06:37.225Z</time></trkpt><trkpt lat="43.5988933" lon="11.37054"><ele>484.0</ele><time>2026-03-22T11:06:38.226Z</time></trkpt><trkpt lat="43.598795" lon="11.3705383"><ele>484.0</ele><time>2026-03-22T11:06:39.225Z</time></trkpt><trkpt lat="43.5987017" lon="11.370575"><ele>484.0</ele><time>2026-03-22T11:06:40.226Z</time></trkpt><trkpt lat="43.59861" lon="11.3706417"><ele>484.0</ele><time>2026-03-22T11:06:41.225Z</time></trkpt><trkpt lat="43.59852" lon="11.370725"><ele>484.0</ele><time>2026-03-22T11:06:42.225Z</time></trkpt><trkpt lat="43.5984367" lon="11.3708133"><ele>484.0</ele><time>2026-03-22T11:06:43.225Z</time></trkpt><trkpt lat="43.5983567" lon="11.3709133"><ele>483.6</ele><time>2026-03-22T11:06:44.225Z</time></trkpt><trkpt lat="43.5982833" lon="11.3710317"><ele>483.2</ele><time>2026-03-22T11:06:45.225Z</time></trkpt><trkpt lat="43.5982217" lon="11.37116"><ele>482.80000000000007</ele><time>2026-03-22T11:06:46.225Z</time></trkpt><trkpt lat="43.5981733" lon="11.371295"><ele>482.40000000000003</ele><time>2026-03-22T11:06:47.228Z</time></trkpt><trkpt lat="43.5981367" lon="11.37144"><ele>482.0</ele><time>2026-03-22T11:06:48.23Z</time></trkpt><trkpt lat="43.5981083" lon="11.37159"><ele>480.6</ele><time>2026-03-22T11:06:49.228Z</time></trkpt><trkpt lat="43.5980933" lon="11.3717317"><ele>479.20000000000005</ele><time>2026-03-22T11:06:50.228Z</time></trkpt><trkpt lat="43.5980883" lon="11.3718617"><ele>477.8</ele><time>2026-03-22T11:06:51.227Z</time></trkpt><trkpt lat="43.5981" lon="11.3719833"><ele>476.4</ele><time>2026-03-22T11:06:52.226Z</time></trkpt><trkpt lat="43.5981317" lon="11.3720883"><ele>475.0</ele><time>2026-03-22T11:06:53.225Z</time></trkpt><trkpt lat="43.5981983" lon="11.3721683"><ele>475.0</ele><time>2026-03-22T11:06:54.227Z</time></trkpt><trkpt lat="43.5982883" lon="11.372175"><ele>475.0</ele><time>2026-03-22T11:06:55.226Z</time></trkpt><trkpt lat="43.598375" lon="11.3721667"><ele>475.0</ele><time>2026-03-22T11:06:56.227Z</time></trkpt><trkpt lat="43.5984633" lon="11.372145"><ele>475.0</ele><time>2026-03-22T11:06:57.226Z</time></trkpt><trkpt lat="43.598565" lon="11.3721317"><ele>475.0</ele><time>2026-03-22T11:06:58.227Z</time></trkpt><trkpt lat="43.5986733" lon="11.3721567"><ele>474.0</ele><time>2026-03-22T11:06:59.227Z</time></trkpt><trkpt lat="43.598775" lon="11.3722"><ele>473.0</ele><time>2026-03-22T11:07:00.226Z</time></trkpt><trkpt lat="43.598855" lon="11.3722717"><ele>472.0</ele><time>2026-03-22T11:07:01.226Z</time></trkpt><trkpt lat="43.5989067" lon="11.372375"><ele>471.0</ele><time>2026-03-22T11:07:02.226Z</time></trkpt><trkpt lat="43.598935" lon="11.3724967"><ele>470.0</ele><time>2026-03-22T11:07:03.226Z</time></trkpt><trkpt lat="43.5989417" lon="11.37263"><ele>470.0</ele><time>2026-03-22T11:07:04.227Z</time></trkpt><trkpt lat="43.5989333" lon="11.3727633"><ele>470.0</ele><time>2026-03-22T11:07:05.227Z</time></trkpt><trkpt lat="43.5989133" lon="11.3728933"><ele>470.0</ele><time>2026-03-22T11:07:06.226Z</time></trkpt><trkpt lat="43.598895" lon="11.3730167"><ele>470.0</ele><time>2026-03-22T11:07:07.228Z</time></trkpt><trkpt lat="43.59888" lon="11.3731383"><ele>470.0</ele><time>2026-03-22T11:07:08.226Z</time></trkpt><trkpt lat="43.5988733" lon="11.3732517"><ele>470.3333333333333</ele><time>2026-03-22T11:07:09.226Z</time></trkpt><trkpt lat="43.59889" lon="11.3733433"><ele>470.66666666666663</ele><time>2026-03-22T11:07:10.227Z</time></trkpt><trkpt lat="43.59894" lon="11.3734083"><ele>471.0</ele><time>2026-03-22T11:07:11.227Z</time></trkpt><trkpt lat="43.599025" lon="11.373455"><ele>471.33333333333337</ele><time>2026-03-22T11:07:12.228Z</time></trkpt><trkpt lat="43.5991283" lon="11.3734767"><ele>471.6666666666667</ele><time>2026-03-22T11:07:13.227Z</time></trkpt><trkpt lat="43.59924" lon="11.37349"><ele>472.0</ele><time>2026-03-22T11:07:14.228Z</time></trkpt><trkpt lat="43.599345" lon="11.3734983"><ele>472.0</ele><time>2026-03-22T11:07:15.228Z</time></trkpt><trkpt lat="43.5994483" lon="11.373495"><ele>472.00000000000006</ele><time>2026-03-22T11:07:16.226Z</time></trkpt><trkpt lat="43.59955" lon="11.3734983"><ele>472.00000000000006</ele><time>2026-03-22T11:07:17.227Z</time></trkpt><trkpt lat="43.5996483" lon="11.3734933"><ele>472.0</ele><time>2026-03-22T11:07:18.227Z</time></trkpt><trkpt lat="43.5997467" lon="11.37352"><ele>472.0</ele><time>2026-03-22T11:07:19.228Z</time></trkpt><trkpt lat="43.599835" lon="11.3735767"><ele>470.1666666666667</ele><time>2026-03-22T11:07:20.227Z</time></trkpt><trkpt lat="43.5999083" lon="11.373655"><ele>468.33333333333337</ele><time>2026-03-22T11:07:21.228Z</time></trkpt><trkpt lat="43.5999683" lon="11.37375"><ele>466.5</ele><time>2026-03-22T11:07:22.226Z</time></trkpt><trkpt lat="43.6000083" lon="11.3738483"><ele>464.66666666666663</ele><time>2026-03-22T11:07:23.227Z</time></trkpt><trkpt lat="43.60003" lon="11.3739667"><ele>462.8333333333333</ele><time>2026-03-22T11:07:24.227Z</time></trkpt><trkpt lat="43.6000267" lon="11.3740917"><ele>461.0</ele><time>2026-03-22T11:07:25.225Z</time></trkpt><trkpt lat="43.60001" lon="11.3742067"><ele>460.99999999999994</ele><time>2026-03-22T11:07:26.229Z</time></trkpt><trkpt lat="43.6000033" lon="11.3743183"><ele>461.0</ele><time>2026-03-22T11:07:27.229Z</time></trkpt><trkpt lat="43.60001" lon="11.3744233"><ele>461.0</ele><time>2026-03-22T11:07:28.228Z</time></trkpt><trkpt lat="43.6000383" lon="11.3745117"><ele>461.0</ele><time>2026-03-22T11:07:29.229Z</time></trkpt><trkpt lat="43.6000767" lon="11.3745833"><ele>460.99999999999994</ele><time>2026-03-22T11:07:30.227Z</time></trkpt><trkpt lat="43.60014" lon="11.37461"><ele>461.0</ele><time>2026-03-22T11:07:31.226Z</time></trkpt><trkpt lat="43.6002267" lon="11.3745183"><ele>461.0</ele><time>2026-03-22T11:07:32.227Z</time></trkpt><trkpt lat="43.6002883" lon="11.3744317"><ele>461.0</ele><time>2026-03-22T11:07:33.227Z</time></trkpt><trkpt lat="43.6003483" lon="11.37433"><ele>461.0</ele><time>2026-03-22T11:07:34.227Z</time></trkpt><trkpt lat="43.6004117" lon="11.374225"><ele>461.0</ele><time>2026-03-22T11:07:35.228Z</time></trkpt><trkpt lat="43.600485" lon="11.3741283"><ele>461.0</ele><time>2026-03-22T11:07:36.227Z</time></trkpt><trkpt lat="43.600565" lon="11.3740483"><ele>459.0</ele><time>2026-03-22T11:07:37.228Z</time></trkpt><trkpt lat="43.6006567" lon="11.3739767"><ele>457.0</ele><time>2026-03-22T11:07:38.227Z</time></trkpt><trkpt lat="43.600755" lon="11.37393"><ele>455.0</ele><time>2026-03-22T11:07:39.226Z</time></trkpt><trkpt lat="43.600855" lon="11.3738917"><ele>453.0</ele><time>2026-03-22T11:07:40.227Z</time></trkpt><trkpt lat="43.6009467" lon="11.3738417"><ele>451.0</ele><time>2026-03-22T11:07:41.226Z</time></trkpt><trkpt lat="43.601025" lon="11.3737717"><ele>451.00000000000006</ele><time>2026-03-22T11:07:42.228Z</time></trkpt><trkpt lat="43.601085" lon="11.3736917"><ele>451.0</ele><time>2026-03-22T11:07:43.225Z</time></trkpt><trkpt lat="43.6011267" lon="11.3735983"><ele>451.0</ele><time>2026-03-22T11:07:44.229Z</time></trkpt><trkpt lat="43.6011217" lon="11.37348"><ele>451.0</ele><time>2026-03-22T11:07:45.228Z</time></trkpt><trkpt lat="43.6011017" lon="11.3733783"><ele>451.00000000000006</ele><time>2026-03-22T11:07:46.226Z</time></trkpt><trkpt lat="43.6010383" lon="11.3732833"><ele>451.0</ele><time>2026-03-22T11:07:47.226Z</time></trkpt><trkpt lat="43.6009583" lon="11.3732017"><ele>451.0</ele><time>2026-03-22T11:07:48.229Z</time></trkpt><trkpt lat="43.600905" lon="11.3731167"><ele>451.0</ele><time>2026-03-22T11:07:49.227Z</time></trkpt><trkpt lat="43.600865" lon="11.3730117"><ele>451.0</ele><time>2026-03-22T11:07:50.227Z</time></trkpt><trkpt lat="43.6008583" lon="11.3728883"><ele>451.0</ele><time>2026-03-22T11:07:51.227Z</time></trkpt><trkpt lat="43.6008883" lon="11.37276"><ele>451.0</ele><time>2026-03-22T11:07:52.227Z</time></trkpt><trkpt lat="43.60094" lon="11.3726433"><ele>451.20000000000005</ele><time>2026-03-22T11:07:53.228Z</time></trkpt><trkpt lat="43.601" lon="11.3725417"><ele>451.40000000000003</ele><time>2026-03-22T11:07:54.229Z</time></trkpt><trkpt lat="43.6010767" lon="11.3724583"><ele>451.6</ele><time>2026-03-22T11:07:55.228Z</time></trkpt><trkpt lat="43.6011633" lon="11.372415"><ele>451.8</ele><time>2026-03-22T11:07:56.226Z</time></trkpt><trkpt lat="43.601265" lon="11.3724133"><ele>452.0</ele><time>2026-03-22T11:07:57.226Z</time></trkpt><trkpt lat="43.6013767" lon="11.37243"><ele>449.0</ele><time>2026-03-22T11:07:58.226Z</time></trkpt><trkpt lat="43.6014883" lon="11.3724517"><ele>446.0</ele><time>2026-03-22T11:07:59.225Z</time></trkpt><trkpt lat="43.6016" lon="11.3724567"><ele>443.0</ele><time>2026-03-22T11:08:00.227Z</time></trkpt><trkpt lat="43.6017083" lon="11.3724517"><ele>440.0</ele><time>2026-03-22T11:08:01.228Z</time></trkpt><trkpt lat="43.6018233" lon="11.3724217"><ele>440.0</ele><time>2026-03-22T11:08:02.227Z</time></trkpt><trkpt lat="43.6019333" lon="11.37238"><ele>440.0</ele><time>2026-03-22T11:08:03.226Z</time></trkpt><trkpt lat="43.6020317" lon="11.3723267"><ele>440.0</ele><time>2026-03-22T11:08:04.226Z</time></trkpt><trkpt lat="43.6021183" lon="11.372285"><ele>440.0</ele><time>2026-03-22T11:08:05.228Z</time></trkpt><trkpt lat="43.6022" lon="11.37226"><ele>440.0</ele><time>2026-03-22T11:08:06.227Z</time></trkpt><trkpt lat="43.6022867" lon="11.3722917"><ele>439.0</ele><time>2026-03-22T11:08:07.226Z</time></trkpt><trkpt lat="43.60237" lon="11.3723417"><ele>438.0</ele><time>2026-03-22T11:08:08.228Z</time></trkpt><trkpt lat="43.6024217" lon="11.37245"><ele>437.0</ele><time>2026-03-22T11:08:09.227Z</time></trkpt><trkpt lat="43.6024683" lon="11.372585"><ele>436.0</ele><time>2026-03-22T11:08:10.228Z</time></trkpt><trkpt lat="43.6024967" lon="11.3727133"><ele>435.0</ele><time>2026-03-22T11:08:11.226Z</time></trkpt><trkpt lat="43.602525" lon="11.372835"><ele>435.0</ele><time>2026-03-22T11:08:12.227Z</time></trkpt><trkpt lat="43.6025617" lon="11.372945"><ele>435.0</ele><time>2026-03-22T11:08:13.226Z</time></trkpt><trkpt lat="43.6026183" lon="11.3730267"><ele>435.0</ele><time>2026-03-22T11:08:14.225Z</time></trkpt><trkpt lat="43.6026917" lon="11.37308"><ele>435.0</ele><time>2026-03-22T11:08:15.227Z</time></trkpt><trkpt lat="43.6027733" lon="11.373105"><ele>435.0</ele><time>2026-03-22T11:08:16.227Z</time></trkpt><trkpt lat="43.6028533" lon="11.373115"><ele>435.0</ele><time>2026-03-22T11:08:17.227Z</time></trkpt><trkpt lat="43.602935" lon="11.3731383"><ele>431.8</ele><time>2026-03-22T11:08:18.227Z</time></trkpt><trkpt lat="43.6030117" lon="11.373175"><ele>428.6</ele><time>2026-03-22T11:08:19.227Z</time></trkpt><trkpt lat="43.60307" lon="11.3732467"><ele>425.4</ele><time>2026-03-22T11:08:20.229Z</time></trkpt><trkpt lat="43.603075" lon="11.373385"><ele>422.2</ele><time>2026-03-22T11:08:21.227Z</time></trkpt><trkpt lat="43.603075" lon="11.373515"><ele>419.0</ele><time>2026-03-22T11:08:22.228Z</time></trkpt><trkpt lat="43.6030533" lon="11.37365"><ele>419.0</ele><time>2026-03-22T11:08:23.228Z</time></trkpt><trkpt lat="43.6030183" lon="11.3737867"><ele>419.0</ele><time>2026-03-22T11:08:24.227Z</time></trkpt><trkpt lat="43.602975" lon="11.373925"><ele>419.0</ele><time>2026-03-22T11:08:25.227Z</time></trkpt><trkpt lat="43.6029333" lon="11.3740733"><ele>419.0</ele><time>2026-03-22T11:08:26.229Z</time></trkpt><trkpt lat="43.6028883" lon="11.3742167"><ele>419.0</ele><time>2026-03-22T11:08:27.227Z</time></trkpt><trkpt lat="43.602845" lon="11.37437"><ele>418.5</ele><time>2026-03-22T11:08:28.228Z</time></trkpt><trkpt lat="43.6028017" lon="11.3745367"><ele>418.0</ele><time>2026-03-22T11:08:29.227Z</time></trkpt><trkpt lat="43.6027533" lon="11.3746967"><ele>417.5</ele><time>2026-03-22T11:08:30.226Z</time></trkpt><trkpt lat="43.6027033" lon="11.3748567"><ele>417.0</ele><time>2026-03-22T11:08:31.226Z</time></trkpt><trkpt lat="43.60266" lon="11.37502"><ele>416.75</ele><time>2026-03-22T11:08:32.228Z</time></trkpt><trkpt lat="43.6026133" lon="11.3751933"><ele>416.5</ele><time>2026-03-22T11:08:33.226Z</time></trkpt><trkpt lat="43.6025667" lon="11.3753683"><ele>416.25</ele><time>2026-03-22T11:08:34.226Z</time></trkpt><trkpt lat="43.60252" lon="11.3755467"><ele>416.0</ele><time>2026-03-22T11:08:35.227Z</time></trkpt><trkpt lat="43.6024733" lon="11.3757217"><ele>415.5</ele><time>2026-03-22T11:08:36.226Z</time></trkpt><trkpt lat="43.6024217" lon="11.3758967"><ele>415.0</ele><time>2026-03-22T11:08:37.228Z</time></trkpt><trkpt lat="43.60237" lon="11.3760733"><ele>414.5</ele><time>2026-03-22T11:08:38.227Z</time></trkpt><trkpt lat="43.6023167" lon="11.376255"><ele>414.0</ele><time>2026-03-22T11:08:39.226Z</time></trkpt><trkpt lat="43.60226" lon="11.3764383"><ele>412.5</ele><time>2026-03-22T11:08:40.226Z</time></trkpt><trkpt lat="43.6022067" lon="11.3766233"><ele>411.0</ele><time>2026-03-22T11:08:41.226Z</time></trkpt><trkpt lat="43.602155" lon="11.3768117"><ele>409.5</ele><time>2026-03-22T11:08:42.227Z</time></trkpt><trkpt lat="43.6021067" lon="11.3770033"><ele>408.0</ele><time>2026-03-22T11:08:43.226Z</time></trkpt><trkpt lat="43.6020567" lon="11.377195"><ele>407.25</ele><time>2026-03-22T11:08:44.227Z</time></trkpt><trkpt lat="43.602005" lon="11.3773917"><ele>406.5</ele><time>2026-03-22T11:08:45.226Z</time></trkpt><trkpt lat="43.6019483" lon="11.37758"><ele>405.75</ele><time>2026-03-22T11:08:46.226Z</time></trkpt><trkpt lat="43.6018967" lon="11.37777"><ele>405.0</ele><time>2026-03-22T11:08:47.227Z</time></trkpt><trkpt lat="43.601845" lon="11.3779617"><ele>403.75</ele><time>2026-03-22T11:08:48.226Z</time></trkpt><trkpt lat="43.6017983" lon="11.37815"><ele>402.5</ele><time>2026-03-22T11:08:49.226Z</time></trkpt><trkpt lat="43.6017567" lon="11.37834"><ele>401.25</ele><time>2026-03-22T11:08:50.227Z</time></trkpt><trkpt lat="43.6017233" lon="11.3785317"><ele>400.0</ele><time>2026-03-22T11:08:51.226Z</time></trkpt><trkpt lat="43.6017017" lon="11.3787217"><ele>399.75</ele><time>2026-03-22T11:08:52.226Z</time></trkpt><trkpt lat="43.6016883" lon="11.3789117"><ele>399.5</ele><time>2026-03-22T11:08:53.226Z</time></trkpt><trkpt lat="43.601685" lon="11.3791033"><ele>399.25</ele><time>2026-03-22T11:08:54.227Z</time></trkpt><trkpt lat="43.6016933" lon="11.3793"><ele>399.0</ele><time>2026-03-22T11:08:55.227Z</time></trkpt><trkpt lat="43.6016933" lon="11.379495"><ele>399.0</ele><time>2026-03-22T11:08:56.227Z</time></trkpt><trkpt lat="43.6016767" lon="11.37969"><ele>399.0</ele><time>2026-03-22T11:08:57.226Z</time></trkpt><trkpt lat="43.6016367" lon="11.3798883"><ele>399.0</ele><time>2026-03-22T11:08:58.227Z</time></trkpt><trkpt lat="43.6015717" lon="11.380075"><ele>399.0</ele><time>2026-03-22T11:08:59.226Z</time></trkpt><trkpt lat="43.6014867" lon="11.3802417"><ele>399.0</ele><time>2026-03-22T11:09:00.226Z</time></trkpt><trkpt lat="43.601395" lon="11.38041"><ele>399.0</ele><time>2026-03-22T11:09:01.226Z</time></trkpt><trkpt lat="43.6013" lon="11.3805883"><ele>399.0</ele><time>2026-03-22T11:09:02.227Z</time></trkpt><trkpt lat="43.6012033" lon="11.3807717"><ele>394.33333333333337</ele><time>2026-03-22T11:09:03.225Z</time></trkpt><trkpt lat="43.6011067" lon="11.38095"><ele>389.6666666666667</ele><time>2026-03-22T11:09:04.225Z</time></trkpt><trkpt lat="43.6010117" lon="11.3811317"><ele>385.0</ele><time>2026-03-22T11:09:05.226Z</time></trkpt><trkpt lat="43.600915" lon="11.3813117"><ele>384.6666666666667</ele><time>2026-03-22T11:09:06.226Z</time></trkpt><trkpt lat="43.6008067" lon="11.3814817"><ele>384.33333333333337</ele><time>2026-03-22T11:09:07.227Z</time></trkpt><trkpt lat="43.6006917" lon="11.3816417"><ele>384.0</ele><time>2026-03-22T11:09:08.227Z</time></trkpt><trkpt lat="43.60058" lon="11.3818"><ele>384.0</ele><time>2026-03-22T11:09:09.227Z</time></trkpt><trkpt lat="43.6004667" lon="11.3819517"><ele>384.0</ele><time>2026-03-22T11:09:10.227Z</time></trkpt><trkpt lat="43.600355" lon="11.382095"><ele>384.0</ele><time>2026-03-22T11:09:11.227Z</time></trkpt><trkpt lat="43.600255" lon="11.382245"><ele>380.75</ele><time>2026-03-22T11:09:12.229Z</time></trkpt><trkpt lat="43.600165" lon="11.3823967"><ele>377.5</ele><time>2026-03-22T11:09:13.226Z</time></trkpt><trkpt lat="43.60009" lon="11.3825567"><ele>374.25</ele><time>2026-03-22T11:09:14.227Z</time></trkpt><trkpt lat="43.6000217" lon="11.3827167"><ele>371.0</ele><time>2026-03-22T11:09:15.226Z</time></trkpt><trkpt lat="43.5999567" lon="11.3828767"><ele>372.5</ele><time>2026-03-22T11:09:16.226Z</time></trkpt><trkpt lat="43.59988" lon="11.38303"><ele>374.0</ele><time>2026-03-22T11:09:17.228Z</time></trkpt><trkpt lat="43.599795" lon="11.383165"><ele>375.5</ele><time>2026-03-22T11:09:18.228Z</time></trkpt><trkpt lat="43.5996983" lon="11.3832767"><ele>377.0</ele><time>2026-03-22T11:09:19.229Z</time></trkpt><trkpt lat="43.5996" lon="11.3833767"><ele>377.0</ele><time>2026-03-22T11:09:20.227Z</time></trkpt><trkpt lat="43.5995033" lon="11.3834683"><ele>377.0</ele><time>2026-03-22T11:09:21.227Z</time></trkpt><trkpt lat="43.5994017" lon="11.3835383"><ele>377.0</ele><time>2026-03-22T11:09:22.227Z</time></trkpt><trkpt lat="43.5993033" lon="11.3836133"><ele>377.0</ele><time>2026-03-22T11:09:23.227Z</time></trkpt><trkpt lat="43.5992183" lon="11.383685"><ele>377.0</ele><time>2026-03-22T11:09:24.227Z</time></trkpt><trkpt lat="43.5991317" lon="11.3837533"><ele>376.20000000000005</ele><time>2026-03-22T11:09:25.227Z</time></trkpt><trkpt lat="43.59905" lon="11.383815"><ele>375.4</ele><time>2026-03-22T11:09:26.227Z</time></trkpt><trkpt lat="43.5989683" lon="11.38388"><ele>374.6</ele><time>2026-03-22T11:09:27.227Z</time></trkpt><trkpt lat="43.5988883" lon="11.3839483"><ele>373.79999999999995</ele><time>2026-03-22T11:09:28.229Z</time></trkpt><trkpt lat="43.5988067" lon="11.3840167"><ele>373.0</ele><time>2026-03-22T11:09:29.226Z</time></trkpt><trkpt lat="43.5987183" lon="11.38409"><ele>371.5</ele><time>2026-03-22T11:09:30.227Z</time></trkpt><trkpt lat="43.5986283" lon="11.3841617"><ele>370.0</ele><time>2026-03-22T11:09:31.228Z</time></trkpt><trkpt lat="43.5985233" lon="11.3842217"><ele>368.5</ele><time>2026-03-22T11:09:32.228Z</time></trkpt><trkpt lat="43.59841" lon="11.3842833"><ele>367.0</ele><time>2026-03-22T11:09:33.227Z</time></trkpt><trkpt lat="43.5982967" lon="11.384335"><ele>367.0</ele><time>2026-03-22T11:09:34.227Z</time></trkpt><trkpt lat="43.59818" lon="11.3843967"><ele>367.0</ele><time>2026-03-22T11:09:35.227Z</time></trkpt><trkpt lat="43.5980767" lon="11.3844817"><ele>367.0</ele><time>2026-03-22T11:09:36.228Z</time></trkpt><trkpt lat="43.597975" lon="11.3845767"><ele>367.0</ele><time>2026-03-22T11:09:37.226Z</time></trkpt><trkpt lat="43.5978733" lon="11.3846833"><ele>365.25</ele><time>2026-03-22T11:09:38.229Z</time></trkpt><trkpt lat="43.5977683" lon="11.38478"><ele>363.5</ele><time>2026-03-22T11:09:39.228Z</time></trkpt><trkpt lat="43.5976617" lon="11.38484"><ele>361.75</ele><time>2026-03-22T11:09:40.227Z</time></trkpt><trkpt lat="43.597545" lon="11.3848783"><ele>360.0</ele><time>2026-03-22T11:09:41.228Z</time></trkpt><trkpt lat="43.5974167" lon="11.3848933"><ele>360.0</ele><time>2026-03-22T11:09:42.228Z</time></trkpt><trkpt lat="43.5972883" lon="11.3848917"><ele>360.0</ele><time>2026-03-22T11:09:43.229Z</time></trkpt><trkpt lat="43.59716" lon="11.38489"><ele>360.0</ele><time>2026-03-22T11:09:44.227Z</time></trkpt><trkpt lat="43.5970383" lon="11.3848933"><ele>360.0</ele><time>2026-03-22T11:09:45.229Z</time></trkpt><trkpt lat="43.59692" lon="11.3849167"><ele>357.25</ele><time>2026-03-22T11:09:46.227Z</time></trkpt><trkpt lat="43.5968083" lon="11.384975"><ele>354.5</ele><time>2026-03-22T11:09:47.228Z</time></trkpt><trkpt lat="43.5967017" lon="11.3850667"><ele>351.75</ele><time>2026-03-22T11:09:48.227Z</time></trkpt><trkpt lat="43.596605" lon="11.3851833"><ele>349.0</ele><time>2026-03-22T11:09:49.228Z</time></trkpt><trkpt lat="43.59652" lon="11.38531"><ele>349.0</ele><time>2026-03-22T11:09:50.227Z</time></trkpt><trkpt lat="43.596435" lon="11.38545"><ele>349.0</ele><time>2026-03-22T11:09:51.227Z</time></trkpt><trkpt lat="43.5963467" lon="11.38559"><ele>349.0</ele><time>2026-03-22T11:09:52.225Z</time></trkpt><trkpt lat="43.5962583" lon="11.385735"><ele>349.0</ele><time>2026-03-22T11:09:53.229Z</time></trkpt><trkpt lat="43.5961733" lon="11.3858933"><ele>347.25</ele><time>2026-03-22T11:09:54.228Z</time></trkpt><trkpt lat="43.5961067" lon="11.3860683"><ele>345.5</ele><time>2026-03-22T11:09:55.228Z</time></trkpt><trkpt lat="43.5960433" lon="11.3862517"><ele>343.75</ele><time>2026-03-22T11:09:56.228Z</time></trkpt><trkpt lat="43.5959833" lon="11.38644"><ele>342.0</ele><time>2026-03-22T11:09:57.228Z</time></trkpt><trkpt lat="43.5959283" lon="11.3866333"><ele>341.6666666666667</ele><time>2026-03-22T11:09:58.226Z</time></trkpt><trkpt lat="43.5958767" lon="11.3868333"><ele>341.33333333333337</ele><time>2026-03-22T11:09:59.228Z</time></trkpt><trkpt lat="43.5958233" lon="11.387035"><ele>341.0</ele><time>2026-03-22T11:10:00.227Z</time></trkpt><trkpt lat="43.59577" lon="11.3872367"><ele>341.0</ele><time>2026-03-22T11:10:01.227Z</time></trkpt><trkpt lat="43.5957067" lon="11.3874383"><ele>341.0</ele><time>2026-03-22T11:10:02.227Z</time></trkpt><trkpt lat="43.59565" lon="11.3876367"><ele>341.0</ele><time>2026-03-22T11:10:03.227Z</time></trkpt><trkpt lat="43.595595" lon="11.38784"><ele>340.75</ele><time>2026-03-22T11:10:04.229Z</time></trkpt><trkpt lat="43.595555" lon="11.3880367"><ele>340.5</ele><time>2026-03-22T11:10:05.226Z</time></trkpt><trkpt lat="43.5955367" lon="11.3882367"><ele>340.25</ele><time>2026-03-22T11:10:06.227Z</time></trkpt><trkpt lat="43.59554" lon="11.3884367"><ele>340.0</ele><time>2026-03-22T11:10:07.227Z</time></trkpt><trkpt lat="43.5955667" lon="11.38863"><ele>340.0</ele><time>2026-03-22T11:10:08.228Z</time></trkpt><trkpt lat="43.5955967" lon="11.3888233"><ele>340.0</ele><time>2026-03-22T11:10:09.227Z</time></trkpt><trkpt lat="43.5956283" lon="11.3890133"><ele>340.0</ele><time>2026-03-22T11:10:10.227Z</time></trkpt><trkpt lat="43.595665" lon="11.3891983"><ele>340.0</ele><time>2026-03-22T11:10:11.226Z</time></trkpt><trkpt lat="43.5957067" lon="11.3893767"><ele>340.25</ele><time>2026-03-22T11:10:12.226Z</time></trkpt><trkpt lat="43.59576" lon="11.38955"><ele>340.5</ele><time>2026-03-22T11:10:13.227Z</time></trkpt><trkpt lat="43.59581" lon="11.38972"><ele>340.75</ele><time>2026-03-22T11:10:14.229Z</time></trkpt><trkpt lat="43.595865" lon="11.389885"><ele>341.0</ele><time>2026-03-22T11:10:15.227Z</time></trkpt><trkpt lat="43.595915" lon="11.3900467"><ele>340.5</ele><time>2026-03-22T11:10:16.226Z</time></trkpt><trkpt lat="43.5959633" lon="11.3902033"><ele>340.0</ele><time>2026-03-22T11:10:17.227Z</time></trkpt><trkpt lat="43.59601" lon="11.3903583"><ele>339.5</ele><time>2026-03-22T11:10:18.227Z</time></trkpt><trkpt lat="43.5960583" lon="11.3905083"><ele>339.0</ele><time>2026-03-22T11:10:19.229Z</time></trkpt><trkpt lat="43.5960983" lon="11.39066"><ele>338.0</ele><time>2026-03-22T11:10:20.228Z</time></trkpt><trkpt lat="43.5961433" lon="11.3908033"><ele>337.0</ele><time>2026-03-22T11:10:21.227Z</time></trkpt><trkpt lat="43.59619" lon="11.3909483"><ele>336.0</ele><time>2026-03-22T11:10:22.229Z</time></trkpt><trkpt lat="43.596235" lon="11.391095"><ele>335.0</ele><time>2026-03-22T11:10:23.226Z</time></trkpt><trkpt lat="43.5962867" lon="11.391235"><ele>337.0</ele><time>2026-03-22T11:10:24.228Z</time></trkpt><trkpt lat="43.5963383" lon="11.39137"><ele>339.0</ele><time>2026-03-22T11:10:25.227Z</time></trkpt><trkpt lat="43.5963967" lon="11.391505"><ele>341.0</ele><time>2026-03-22T11:10:26.229Z</time></trkpt><trkpt lat="43.59646" lon="11.3916417"><ele>343.0</ele><time>2026-03-22T11:10:27.228Z</time></trkpt><trkpt lat="43.5965217" lon="11.391775"><ele>343.0</ele><time>2026-03-22T11:10:28.229Z</time></trkpt><trkpt lat="43.5965817" lon="11.3919033"><ele>343.0</ele><time>2026-03-22T11:10:29.229Z</time></trkpt><trkpt lat="43.5966433" lon="11.3920317"><ele>343.0</ele><time>2026-03-22T11:10:30.229Z</time></trkpt><trkpt lat="43.5966983" lon="11.3921733"><ele>343.0</ele><time>2026-03-22T11:10:31.228Z</time></trkpt><trkpt lat="43.5967483" lon="11.39232"><ele>340.5</ele><time>2026-03-22T11:10:32.227Z</time></trkpt><trkpt lat="43.5968183" lon="11.3924583"><ele>338.0</ele><time>2026-03-22T11:10:33.227Z</time></trkpt><trkpt lat="43.596885" lon="11.3926"><ele>335.5</ele><time>2026-03-22T11:10:34.228Z</time></trkpt><trkpt lat="43.5969433" lon="11.392745"><ele>333.0</ele><time>2026-03-22T11:10:35.227Z</time></trkpt><trkpt lat="43.596985" lon="11.3928967"><ele>332.75</ele><time>2026-03-22T11:10:36.23Z</time></trkpt><trkpt lat="43.5970433" lon="11.3930317"><ele>332.5</ele><time>2026-03-22T11:10:37.228Z</time></trkpt><trkpt lat="43.5971167" lon="11.3931567"><ele>332.25</ele><time>2026-03-22T11:10:38.229Z</time></trkpt><trkpt lat="43.5972183" lon="11.3932483"><ele>332.0</ele><time>2026-03-22T11:10:39.227Z</time></trkpt><trkpt lat="43.5973067" lon="11.3933383"><ele>332.0</ele><time>2026-03-22T11:10:40.227Z</time></trkpt><trkpt lat="43.5974" lon="11.3934283"><ele>332.0</ele><time>2026-03-22T11:10:41.227Z</time></trkpt><trkpt lat="43.5975" lon="11.3935033"><ele>332.0</ele><time>2026-03-22T11:10:42.226Z</time></trkpt><trkpt lat="43.5975917" lon="11.3935767"><ele>332.0</ele><time>2026-03-22T11:10:43.227Z</time></trkpt><trkpt lat="43.5976867" lon="11.39365"><ele>332.0</ele><time>2026-03-22T11:10:44.226Z</time></trkpt><trkpt lat="43.5977833" lon="11.3937283"><ele>331.20000000000005</ele><time>2026-03-22T11:10:45.226Z</time></trkpt><trkpt lat="43.597865" lon="11.3938233"><ele>330.4</ele><time>2026-03-22T11:10:46.229Z</time></trkpt><trkpt lat="43.597915" lon="11.39396"><ele>329.6</ele><time>2026-03-22T11:10:47.228Z</time></trkpt><trkpt lat="43.5979483" lon="11.3941067"><ele>328.79999999999995</ele><time>2026-03-22T11:10:48.227Z</time></trkpt><trkpt lat="43.597965" lon="11.3942683"><ele>328.0</ele><time>2026-03-22T11:10:49.228Z</time></trkpt><trkpt lat="43.597975" lon="11.3944267"><ele>328.0</ele><time>2026-03-22T11:10:50.226Z</time></trkpt><trkpt lat="43.597985" lon="11.3945817"><ele>328.0</ele><time>2026-03-22T11:10:51.227Z</time></trkpt><trkpt lat="43.5979933" lon="11.3947267"><ele>328.0</ele><time>2026-03-22T11:10:52.227Z</time></trkpt><trkpt lat="43.5980067" lon="11.39487"><ele>328.0</ele><time>2026-03-22T11:10:53.227Z</time></trkpt><trkpt lat="43.598025" lon="11.3950067"><ele>328.0</ele><time>2026-03-22T11:10:54.227Z</time></trkpt><trkpt lat="43.5980467" lon="11.3951333"><ele>328.0</ele><time>2026-03-22T11:10:55.227Z</time></trkpt><trkpt lat="43.5980767" lon="11.395255"><ele>328.0</ele><time>2026-03-22T11:10:56.227Z</time></trkpt><trkpt lat="43.598115" lon="11.3953767"><ele>328.0</ele><time>2026-03-22T11:10:57.227Z</time></trkpt><trkpt lat="43.5981533" lon="11.3954983"><ele>328.0</ele><time>2026-03-22T11:10:58.228Z</time></trkpt><trkpt lat="43.5981983" lon="11.3956133"><ele>328.0</ele><time>2026-03-22T11:10:59.229Z</time></trkpt><trkpt lat="43.59824" lon="11.3957267"><ele>327.0</ele><time>2026-03-22T11:11:00.228Z</time></trkpt><trkpt lat="43.59829" lon="11.3958317"><ele>326.0</ele><time>2026-03-22T11:11:01.228Z</time></trkpt><trkpt lat="43.59835" lon="11.3959367"><ele>325.0</ele><time>2026-03-22T11:11:02.228Z</time></trkpt><trkpt lat="43.598415" lon="11.3960383"><ele>324.0</ele><time>2026-03-22T11:11:03.227Z</time></trkpt><trkpt lat="43.5984817" lon="11.3961417"><ele>323.0</ele><time>2026-03-22T11:11:04.228Z</time></trkpt><trkpt lat="43.5985483" lon="11.3962467"><ele>322.59999999999997</ele><time>2026-03-22T11:11:05.228Z</time></trkpt><trkpt lat="43.598615" lon="11.396355"><ele>322.2</ele><time>2026-03-22T11:11:06.228Z</time></trkpt><trkpt lat="43.5986733" lon="11.3964617"><ele>321.8</ele><time>2026-03-22T11:11:07.227Z</time></trkpt><trkpt lat="43.598735" lon="11.396565"><ele>321.4</ele><time>2026-03-22T11:11:08.228Z</time></trkpt><trkpt lat="43.5988017" lon="11.3966667"><ele>321.0</ele><time>2026-03-22T11:11:09.226Z</time></trkpt><trkpt lat="43.5988567" lon="11.3967667"><ele>321.3333333333333</ele><time>2026-03-22T11:11:10.225Z</time></trkpt><trkpt lat="43.5989183" lon="11.396865"><ele>321.6666666666667</ele><time>2026-03-22T11:11:11.227Z</time></trkpt><trkpt lat="43.5989817" lon="11.39696"><ele>322.0</ele><time>2026-03-22T11:11:12.227Z</time></trkpt><trkpt lat="43.599045" lon="11.3970383"><ele>322.33333333333337</ele><time>2026-03-22T11:11:13.225Z</time></trkpt><trkpt lat="43.599115" lon="11.3971033"><ele>322.6666666666667</ele><time>2026-03-22T11:11:14.228Z</time></trkpt><trkpt lat="43.5991967" lon="11.397155"><ele>323.0</ele><time>2026-03-22T11:11:15.229Z</time></trkpt><trkpt lat="43.59927" lon="11.3972067"><ele>323.0</ele><time>2026-03-22T11:11:16.226Z</time></trkpt><trkpt lat="43.5993433" lon="11.397265"><ele>323.0</ele><time>2026-03-22T11:11:17.228Z</time></trkpt><trkpt lat="43.5994133" lon="11.3973217"><ele>323.0</ele><time>2026-03-22T11:11:18.227Z</time></trkpt><trkpt lat="43.5994817" lon="11.397375"><ele>323.0</ele><time>2026-03-22T11:11:19.227Z</time></trkpt><trkpt lat="43.5995567" lon="11.397425"><ele>323.0</ele><time>2026-03-22T11:11:20.227Z</time></trkpt><trkpt lat="43.5996317" lon="11.3974833"><ele>323.0</ele><time>2026-03-22T11:11:21.226Z</time></trkpt><trkpt lat="43.599695" lon="11.3975367"><ele>324.33333333333337</ele><time>2026-03-22T11:11:22.227Z</time></trkpt><trkpt lat="43.599755" lon="11.39759"><ele>325.6666666666667</ele><time>2026-03-22T11:11:23.228Z</time></trkpt><trkpt lat="43.5998267" lon="11.3976317"><ele>327.0</ele><time>2026-03-22T11:11:24.228Z</time></trkpt><trkpt lat="43.59989" lon="11.3976933"><ele>328.3333333333333</ele><time>2026-03-22T11:11:25.227Z</time></trkpt><trkpt lat="43.5999517" lon="11.3977733"><ele>329.66666666666663</ele><time>2026-03-22T11:11:26.228Z</time></trkpt><trkpt lat="43.6000117" lon="11.3978533"><ele>331.0</ele><time>2026-03-22T11:11:27.225Z</time></trkpt><trkpt lat="43.6000667" lon="11.3979383"><ele>330.8333333333333</ele><time>2026-03-22T11:11:28.224Z</time></trkpt><trkpt lat="43.6001267" lon="11.3980167"><ele>330.66666666666663</ele><time>2026-03-22T11:11:29.225Z</time></trkpt><trkpt lat="43.6001933" lon="11.3980967"><ele>330.5</ele><time>2026-03-22T11:11:30.226Z</time></trkpt><trkpt lat="43.600255" lon="11.3981833"><ele>330.3333333333333</ele><time>2026-03-22T11:11:31.226Z</time></trkpt><trkpt lat="43.6003183" lon="11.39827"><ele>330.1666666666667</ele><time>2026-03-22T11:11:32.226Z</time></trkpt><trkpt lat="43.6003833" lon="11.3983617"><ele>330.0</ele><time>2026-03-22T11:11:33.226Z</time></trkpt><trkpt lat="43.600445" lon="11.3984517"><ele>330.0</ele><time>2026-03-22T11:11:34.227Z</time></trkpt><trkpt lat="43.6004983" lon="11.3985517"><ele>330.0</ele><time>2026-03-22T11:11:35.226Z</time></trkpt><trkpt lat="43.6005533" lon="11.398655"><ele>330.0</ele><time>2026-03-22T11:11:36.224Z</time></trkpt><trkpt lat="43.6006167" lon="11.398745"><ele>330.0</ele><time>2026-03-22T11:11:37.225Z</time></trkpt><trkpt lat="43.6006667" lon="11.398845"><ele>330.0</ele><time>2026-03-22T11:11:38.224Z</time></trkpt><trkpt lat="43.6007117" lon="11.3989483"><ele>330.0</ele><time>2026-03-22T11:11:39.226Z</time></trkpt><trkpt lat="43.6007517" lon="11.3990583"><ele>328.8333333333333</ele><time>2026-03-22T11:11:40.224Z</time></trkpt><trkpt lat="43.60079" lon="11.399165"><ele>327.6666666666667</ele><time>2026-03-22T11:11:41.227Z</time></trkpt><trkpt lat="43.6008267" lon="11.3992733"><ele>326.5</ele><time>2026-03-22T11:11:42.224Z</time></trkpt><trkpt lat="43.600845" lon="11.3993917"><ele>325.33333333333337</ele><time>2026-03-22T11:11:43.226Z</time></trkpt><trkpt lat="43.6008667" lon="11.399505"><ele>324.1666666666667</ele><time>2026-03-22T11:11:44.225Z</time></trkpt><trkpt lat="43.6008867" lon="11.39962"><ele>323.0</ele><time>2026-03-22T11:11:45.227Z</time></trkpt><trkpt lat="43.6008833" lon="11.3997533"><ele>322.2</ele><time>2026-03-22T11:11:46.226Z</time></trkpt><trkpt lat="43.6008567" lon="11.399875"><ele>321.4</ele><time>2026-03-22T11:11:47.227Z</time></trkpt><trkpt lat="43.60084" lon="11.3999933"><ele>320.59999999999997</ele><time>2026-03-22T11:11:48.225Z</time></trkpt><trkpt lat="43.6008167" lon="11.4001267"><ele>319.79999999999995</ele><time>2026-03-22T11:11:49.225Z</time></trkpt><trkpt lat="43.600795" lon="11.4002817"><ele>319.0</ele><time>2026-03-22T11:11:50.226Z</time></trkpt><trkpt lat="43.6007933" lon="11.4004183"><ele>318.8</ele><time>2026-03-22T11:11:51.224Z</time></trkpt><trkpt lat="43.6007767" lon="11.4005617"><ele>318.59999999999997</ele><time>2026-03-22T11:11:52.225Z</time></trkpt><trkpt lat="43.6007467" lon="11.4007017"><ele>318.4</ele><time>2026-03-22T11:11:53.225Z</time></trkpt><trkpt lat="43.6007183" lon="11.4008367"><ele>318.2</ele><time>2026-03-22T11:11:54.226Z</time></trkpt><trkpt lat="43.6006967" lon="11.4009817"><ele>318.0</ele><time>2026-03-22T11:11:55.226Z</time></trkpt><trkpt lat="43.6006767" lon="11.4011217"><ele>318.0</ele><time>2026-03-22T11:11:56.227Z</time></trkpt><trkpt lat="43.60065" lon="11.40127"><ele>318.0</ele><time>2026-03-22T11:11:57.225Z</time></trkpt><trkpt lat="43.6006317" lon="11.40141"><ele>318.0</ele><time>2026-03-22T11:11:58.225Z</time></trkpt><trkpt lat="43.6006033" lon="11.4015567"><ele>318.0</ele><time>2026-03-22T11:11:59.226Z</time></trkpt><trkpt lat="43.6005733" lon="11.4016967"><ele>318.0</ele><time>2026-03-22T11:12:00.226Z</time></trkpt><trkpt lat="43.6005417" lon="11.401835"><ele>318.6</ele><time>2026-03-22T11:12:01.226Z</time></trkpt><trkpt lat="43.60051" lon="11.4019783"><ele>319.20000000000005</ele><time>2026-03-22T11:12:02.226Z</time></trkpt><trkpt lat="43.60049" lon="11.4021133"><ele>319.8</ele><time>2026-03-22T11:12:03.226Z</time></trkpt><trkpt lat="43.60046" lon="11.4022417"><ele>320.40000000000003</ele><time>2026-03-22T11:12:04.225Z</time></trkpt><trkpt lat="43.6004283" lon="11.4023633"><ele>321.0</ele><time>2026-03-22T11:12:05.225Z</time></trkpt><trkpt lat="43.600385" lon="11.402485"><ele>321.20000000000005</ele><time>2026-03-22T11:12:06.225Z</time></trkpt><trkpt lat="43.6003033" lon="11.4025933"><ele>321.40000000000003</ele><time>2026-03-22T11:12:07.226Z</time></trkpt><trkpt lat="43.6002383" lon="11.402685"><ele>321.6</ele><time>2026-03-22T11:12:08.225Z</time></trkpt><trkpt lat="43.6001683" lon="11.4027617"><ele>321.8</ele><time>2026-03-22T11:12:09.225Z</time></trkpt><trkpt lat="43.6001033" lon="11.4028217"><ele>322.0</ele><time>2026-03-22T11:12:10.225Z</time></trkpt><trkpt lat="43.6000317" lon="11.4028883"><ele>322.0</ele><time>2026-03-22T11:12:11.224Z</time></trkpt><trkpt lat="43.599955" lon="11.402955"><ele>322.0</ele><time>2026-03-22T11:12:12.226Z</time></trkpt><trkpt lat="43.5998767" lon="11.403025"><ele>322.0</ele><time>2026-03-22T11:12:13.224Z</time></trkpt><trkpt lat="43.599795" lon="11.4031"><ele>322.0</ele><time>2026-03-22T11:12:14.225Z</time></trkpt><trkpt lat="43.5997167" lon="11.4031683"><ele>322.0</ele><time>2026-03-22T11:12:15.224Z</time></trkpt><trkpt lat="43.5996333" lon="11.4032383"><ele>322.8</ele><time>2026-03-22T11:12:16.224Z</time></trkpt><trkpt lat="43.5995483" lon="11.4033067"><ele>323.6</ele><time>2026-03-22T11:12:17.225Z</time></trkpt><trkpt lat="43.5994617" lon="11.4033783"><ele>324.40000000000003</ele><time>2026-03-22T11:12:18.225Z</time></trkpt><trkpt lat="43.5993817" lon="11.4034467"><ele>325.20000000000005</ele><time>2026-03-22T11:12:19.228Z</time></trkpt><trkpt lat="43.5993067" lon="11.4035083"><ele>326.0</ele><time>2026-03-22T11:12:20.226Z</time></trkpt><trkpt lat="43.5992283" lon="11.4035717"><ele>323.6</ele><time>2026-03-22T11:12:21.226Z</time></trkpt><trkpt lat="43.59915" lon="11.4036417"><ele>321.20000000000005</ele><time>2026-03-22T11:12:22.225Z</time></trkpt><trkpt lat="43.5990783" lon="11.403725"><ele>318.79999999999995</ele><time>2026-03-22T11:12:23.225Z</time></trkpt><trkpt lat="43.59903" lon="11.40383"><ele>316.4</ele><time>2026-03-22T11:12:24.226Z</time></trkpt><trkpt lat="43.5990067" lon="11.4039483"><ele>314.0</ele><time>2026-03-22T11:12:25.226Z</time></trkpt><trkpt lat="43.5990633" lon="11.4041"><ele>313.8</ele><time>2026-03-22T11:12:26.225Z</time></trkpt><trkpt lat="43.5991183" lon="11.4042233"><ele>313.59999999999997</ele><time>2026-03-22T11:12:27.225Z</time></trkpt><trkpt lat="43.5991917" lon="11.4043367"><ele>313.4</ele><time>2026-03-22T11:12:28.225Z</time></trkpt><trkpt lat="43.5992583" lon="11.404445"><ele>313.2</ele><time>2026-03-22T11:12:29.226Z</time></trkpt><trkpt lat="43.5993283" lon="11.4045583"><ele>313.0</ele><time>2026-03-22T11:12:30.225Z</time></trkpt><trkpt lat="43.5993967" lon="11.4046683"><ele>313.0</ele><time>2026-03-22T11:12:31.225Z</time></trkpt><trkpt lat="43.599465" lon="11.4047767"><ele>313.0</ele><time>2026-03-22T11:12:32.226Z</time></trkpt><trkpt lat="43.5995283" lon="11.4048833"><ele>313.0</ele><time>2026-03-22T11:12:33.225Z</time></trkpt><trkpt lat="43.5995867" lon="11.4049933"><ele>313.0</ele><time>2026-03-22T11:12:34.225Z</time></trkpt><trkpt lat="43.5996467" lon="11.4050983"><ele>313.0</ele><time>2026-03-22T11:12:35.226Z</time></trkpt><trkpt lat="43.5997083" lon="11.4051983"><ele>312.4</ele><time>2026-03-22T11:12:36.225Z</time></trkpt><trkpt lat="43.5997667" lon="11.4052983"><ele>311.8</ele><time>2026-03-22T11:12:37.227Z</time></trkpt><trkpt lat="43.5998283" lon="11.4053983"><ele>311.2</ele><time>2026-03-22T11:12:38.225Z</time></trkpt><trkpt lat="43.599895" lon="11.4054917"><ele>310.6</ele><time>2026-03-22T11:12:39.227Z</time></trkpt><trkpt lat="43.5999667" lon="11.405575"><ele>310.0</ele><time>2026-03-22T11:12:40.224Z</time></trkpt><trkpt lat="43.6000417" lon="11.405645"><ele>310.0</ele><time>2026-03-22T11:12:41.226Z</time></trkpt><trkpt lat="43.600115" lon="11.4057083"><ele>310.0</ele><time>2026-03-22T11:12:42.225Z</time></trkpt><trkpt lat="43.6001933" lon="11.4057667"><ele>310.0</ele><time>2026-03-22T11:12:43.226Z</time></trkpt><trkpt lat="43.6002683" lon="11.4058267"><ele>310.0</ele><time>2026-03-22T11:12:44.225Z</time></trkpt><trkpt lat="43.6003483" lon="11.4058833"><ele>310.0</ele><time>2026-03-22T11:12:45.227Z</time></trkpt><trkpt lat="43.6004283" lon="11.405945"><ele>310.0</ele><time>2026-03-22T11:12:46.223Z</time></trkpt><trkpt lat="43.600495" lon="11.406015"><ele>310.5</ele><time>2026-03-22T11:12:47.225Z</time></trkpt><trkpt lat="43.6005583" lon="11.406095"><ele>311.0</ele><time>2026-03-22T11:12:48.226Z</time></trkpt><trkpt lat="43.6006183" lon="11.4061867"><ele>311.5</ele><time>2026-03-22T11:12:49.224Z</time></trkpt><trkpt lat="43.6006667" lon="11.4062833"><ele>312.0</ele><time>2026-03-22T11:12:50.225Z</time></trkpt><trkpt lat="43.600715" lon="11.4063783"><ele>312.5</ele><time>2026-03-22T11:12:51.225Z</time></trkpt><trkpt lat="43.6007533" lon="11.4064817"><ele>313.0</ele><time>2026-03-22T11:12:52.225Z</time></trkpt><trkpt lat="43.6007983" lon="11.4065817"><ele>313.0</ele><time>2026-03-22T11:12:53.226Z</time></trkpt><trkpt lat="43.6008367" lon="11.40669"><ele>313.0</ele><time>2026-03-22T11:12:54.225Z</time></trkpt><trkpt lat="43.60087" lon="11.4068067"><ele>313.0</ele><time>2026-03-22T11:12:55.225Z</time></trkpt><trkpt lat="43.6009083" lon="11.4069267"><ele>313.0</ele><time>2026-03-22T11:12:56.227Z</time></trkpt><trkpt lat="43.6009417" lon="11.40705"><ele>313.0</ele><time>2026-03-22T11:12:57.226Z</time></trkpt><trkpt lat="43.600975" lon="11.4071733"><ele>311.8</ele><time>2026-03-22T11:12:58.224Z</time></trkpt><trkpt lat="43.60101" lon="11.4073"><ele>310.6</ele><time>2026-03-22T11:12:59.226Z</time></trkpt><trkpt lat="43.6010367" lon="11.4074333"><ele>309.4</ele><time>2026-03-22T11:13:00.225Z</time></trkpt><trkpt lat="43.6010517" lon="11.4075767"><ele>308.2</ele><time>2026-03-22T11:13:01.224Z</time></trkpt><trkpt lat="43.6010567" lon="11.4077117"><ele>307.0</ele><time>2026-03-22T11:13:02.226Z</time></trkpt><trkpt lat="43.6010317" lon="11.40785"><ele>307.0</ele><time>2026-03-22T11:13:03.226Z</time></trkpt><trkpt lat="43.6009767" lon="11.40798"><ele>307.0</ele><time>2026-03-22T11:13:04.226Z</time></trkpt><trkpt lat="43.6009067" lon="11.4080917"><ele>307.0</ele><time>2026-03-22T11:13:05.227Z</time></trkpt><trkpt lat="43.6008267" lon="11.4081733"><ele>307.0</ele><time>2026-03-22T11:13:06.225Z</time></trkpt><trkpt lat="43.60075" lon="11.4082417"><ele>307.0</ele><time>2026-03-22T11:13:07.226Z</time></trkpt><trkpt lat="43.600675" lon="11.40829"><ele>307.8333333333333</ele><time>2026-03-22T11:13:08.227Z</time></trkpt><trkpt lat="43.600595" lon="11.40833"><ele>308.66666666666663</ele><time>2026-03-22T11:13:09.224Z</time></trkpt><trkpt lat="43.6005183" lon="11.4083767"><ele>309.5</ele><time>2026-03-22T11:13:10.225Z</time></trkpt><trkpt lat="43.60045" lon="11.408435"><ele>310.3333333333333</ele><time>2026-03-22T11:13:11.225Z</time></trkpt><trkpt lat="43.6003967" lon="11.40851"><ele>311.1666666666667</ele><time>2026-03-22T11:13:12.225Z</time></trkpt><trkpt lat="43.600365" lon="11.4086"><ele>312.0</ele><time>2026-03-22T11:13:13.225Z</time></trkpt><trkpt lat="43.6003483" lon="11.4086933"><ele>312.0</ele><time>2026-03-22T11:13:14.226Z</time></trkpt><trkpt lat="43.600355" lon="11.40879"><ele>312.0</ele><time>2026-03-22T11:13:15.225Z</time></trkpt><trkpt lat="43.600375" lon="11.4088867"><ele>312.0</ele><time>2026-03-22T11:13:16.225Z</time></trkpt><trkpt lat="43.60041" lon="11.4089817"><ele>312.0</ele><time>2026-03-22T11:13:17.225Z</time></trkpt><trkpt lat="43.600445" lon="11.4090833"><ele>312.0</ele><time>2026-03-22T11:13:18.224Z</time></trkpt><trkpt lat="43.600485" lon="11.4091883"><ele>312.0</ele><time>2026-03-22T11:13:19.224Z</time></trkpt><trkpt lat="43.6005217" lon="11.4092933"><ele>311.6666666666667</ele><time>2026-03-22T11:13:20.227Z</time></trkpt><trkpt lat="43.60056" lon="11.4093983"><ele>311.3333333333333</ele><time>2026-03-22T11:13:21.225Z</time></trkpt><trkpt lat="43.6006" lon="11.4095067"><ele>311.0</ele><time>2026-03-22T11:13:22.226Z</time></trkpt><trkpt lat="43.6006533" lon="11.4096133"><ele>310.66666666666663</ele><time>2026-03-22T11:13:23.225Z</time></trkpt><trkpt lat="43.6006933" lon="11.409715"><ele>310.3333333333333</ele><time>2026-03-22T11:13:24.225Z</time></trkpt><trkpt lat="43.600725" lon="11.4098267"><ele>310.0</ele><time>2026-03-22T11:13:25.225Z</time></trkpt><trkpt lat="43.6007517" lon="11.4099417"><ele>310.0</ele><time>2026-03-22T11:13:26.226Z</time></trkpt><trkpt lat="43.6007767" lon="11.41006"><ele>310.0</ele><time>2026-03-22T11:13:27.225Z</time></trkpt><trkpt lat="43.60079" lon="11.4101817"><ele>310.0</ele><time>2026-03-22T11:13:28.225Z</time></trkpt><trkpt lat="43.60079" lon="11.4103017"><ele>310.0</ele><time>2026-03-22T11:13:29.225Z</time></trkpt><trkpt lat="43.60078" lon="11.4104183"><ele>310.0</ele><time>2026-03-22T11:13:30.224Z</time></trkpt><trkpt lat="43.6007617" lon="11.4105367"><ele>310.0</ele><time>2026-03-22T11:13:31.225Z</time></trkpt><trkpt lat="43.6007367" lon="11.41065"><ele>309.3333333333333</ele><time>2026-03-22T11:13:32.225Z</time></trkpt><trkpt lat="43.6007117" lon="11.410765"><ele>308.66666666666663</ele><time>2026-03-22T11:13:33.225Z</time></trkpt><trkpt lat="43.6006883" lon="11.4108783"><ele>308.0</ele><time>2026-03-22T11:13:34.224Z</time></trkpt><trkpt lat="43.600655" lon="11.4109917"><ele>307.3333333333333</ele><time>2026-03-22T11:13:35.227Z</time></trkpt><trkpt lat="43.600615" lon="11.4110967"><ele>306.6666666666667</ele><time>2026-03-22T11:13:36.226Z</time></trkpt><trkpt lat="43.6005667" lon="11.4112017"><ele>306.0</ele><time>2026-03-22T11:13:37.224Z</time></trkpt><trkpt lat="43.6005283" lon="11.4113133"><ele>304.6666666666667</ele><time>2026-03-22T11:13:38.225Z</time></trkpt><trkpt lat="43.600505" lon="11.4114367"><ele>303.3333333333333</ele><time>2026-03-22T11:13:39.225Z</time></trkpt><trkpt lat="43.600495" lon="11.4115583"><ele>302.0</ele><time>2026-03-22T11:13:40.225Z</time></trkpt><trkpt lat="43.600495" lon="11.4116817"><ele>300.66666666666663</ele><time>2026-03-22T11:13:41.226Z</time></trkpt><trkpt lat="43.6005183" lon="11.4118"><ele>299.3333333333333</ele><time>2026-03-22T11:13:42.224Z</time></trkpt><trkpt lat="43.6005583" lon="11.4119083"><ele>298.0</ele><time>2026-03-22T11:13:43.225Z</time></trkpt><trkpt lat="43.6005967" lon="11.412"><ele>298.0</ele><time>2026-03-22T11:13:44.226Z</time></trkpt><trkpt lat="43.6006483" lon="11.4120767"><ele>298.0</ele><time>2026-03-22T11:13:45.227Z</time></trkpt><trkpt lat="43.6007117" lon="11.4121367"><ele>298.0</ele><time>2026-03-22T11:13:46.225Z</time></trkpt><trkpt lat="43.600775" lon="11.41217"><ele>298.0</ele><time>2026-03-22T11:13:47.226Z</time></trkpt><trkpt lat="43.6008417" lon="11.41216"><ele>298.0</ele><time>2026-03-22T11:13:48.225Z</time></trkpt><trkpt lat="43.60092" lon="11.412125"><ele>298.0</ele><time>2026-03-22T11:13:49.225Z</time></trkpt><trkpt lat="43.6010033" lon="11.4120867"><ele>298.0</ele><time>2026-03-22T11:13:50.225Z</time></trkpt><trkpt lat="43.601085" lon="11.412035"><ele>298.0</ele><time>2026-03-22T11:13:51.225Z</time></trkpt><trkpt lat="43.6011683" lon="11.4119867"><ele>298.0</ele><time>2026-03-22T11:13:52.225Z</time></trkpt><trkpt lat="43.6012417" lon="11.4119333"><ele>298.0</ele><time>2026-03-22T11:13:53.225Z</time></trkpt><trkpt lat="43.6013117" lon="11.4119117"><ele>298.0</ele><time>2026-03-22T11:13:54.225Z</time></trkpt><trkpt lat="43.6014167" lon="11.412"><ele>298.0</ele><time>2026-03-22T11:13:56.227Z</time></trkpt><trkpt lat="43.601445" lon="11.41208"><ele>298.0</ele><time>2026-03-22T11:13:57.226Z</time></trkpt><trkpt lat="43.601435" lon="11.4121867"><ele>298.0</ele><time>2026-03-22T11:13:58.227Z</time></trkpt><trkpt lat="43.601405" lon="11.4122967"><ele>298.0</ele><time>2026-03-22T11:13:59.225Z</time></trkpt><trkpt lat="43.60137" lon="11.4123983"><ele>298.0</ele><time>2026-03-22T11:14:00.226Z</time></trkpt><trkpt lat="43.60134" lon="11.412505"><ele>298.0</ele><time>2026-03-22T11:14:01.226Z</time></trkpt><trkpt lat="43.6013133" lon="11.4126167"><ele>297.8333333333333</ele><time>2026-03-22T11:14:02.225Z</time></trkpt><trkpt lat="43.6013133" lon="11.41273"><ele>297.66666666666663</ele><time>2026-03-22T11:14:03.227Z</time></trkpt><trkpt lat="43.6013317" lon="11.4128183"><ele>297.5</ele><time>2026-03-22T11:14:04.225Z</time></trkpt><trkpt lat="43.6013683" lon="11.4128983"><ele>297.3333333333333</ele><time>2026-03-22T11:14:05.226Z</time></trkpt><trkpt lat="43.6014483" lon="11.41292"><ele>297.1666666666667</ele><time>2026-03-22T11:14:06.225Z</time></trkpt><trkpt lat="43.601515" lon="11.4129383"><ele>297.0</ele><time>2026-03-22T11:14:07.226Z</time></trkpt><trkpt lat="43.601605" lon="11.41293"><ele>297.0</ele><time>2026-03-22T11:14:08.225Z</time></trkpt><trkpt lat="43.60169" lon="11.4129383"><ele>297.0</ele><time>2026-03-22T11:14:09.227Z</time></trkpt><trkpt lat="43.6017817" lon="11.4129667"><ele>297.0</ele><time>2026-03-22T11:14:10.224Z</time></trkpt><trkpt lat="43.6018667" lon="11.413"><ele>297.0</ele><time>2026-03-22T11:14:11.225Z</time></trkpt><trkpt lat="43.6019183" lon="11.4130667"><ele>297.0</ele><time>2026-03-22T11:14:12.227Z</time></trkpt><trkpt lat="43.6019533" lon="11.4131433"><ele>297.0</ele><time>2026-03-22T11:14:13.225Z</time></trkpt><trkpt lat="43.601965" lon="11.413235"><ele>296.6</ele><time>2026-03-22T11:14:14.225Z</time></trkpt><trkpt lat="43.6019633" lon="11.4133267"><ele>296.2</ele><time>2026-03-22T11:14:15.225Z</time></trkpt><trkpt lat="43.6019517" lon="11.4134767"><ele>295.8</ele><time>2026-03-22T11:14:17.226Z</time></trkpt><trkpt lat="43.60193" lon="11.4136267"><ele>295.4</ele><time>2026-03-22T11:14:19.227Z</time></trkpt><trkpt lat="43.6019183" lon="11.413765"><ele>295.0</ele><time>2026-03-22T11:14:21.226Z</time></trkpt><trkpt lat="43.6019133" lon="11.4138917"><ele>295.66666666666663</ele><time>2026-03-22T11:14:23.227Z</time></trkpt><trkpt lat="43.6019233" lon="11.4140217"><ele>296.3333333333333</ele><time>2026-03-22T11:14:25.226Z</time></trkpt><trkpt lat="43.6019383" lon="11.4141433"><ele>297.0</ele><time>2026-03-22T11:14:27.225Z</time></trkpt><trkpt lat="43.6019567" lon="11.414265"><ele>297.6666666666667</ele><time>2026-03-22T11:14:29.225Z</time></trkpt><trkpt lat="43.601975" lon="11.4143767"><ele>298.33333333333337</ele><time>2026-03-22T11:14:31.224Z</time></trkpt><trkpt lat="43.60199" lon="11.4144883"><ele>299.0</ele><time>2026-03-22T11:14:33.224Z</time></trkpt><trkpt lat="43.6020083" lon="11.41459"><ele>300.0</ele><time>2026-03-22T11:14:35.223Z</time></trkpt><trkpt lat="43.6020033" lon="11.4147467"><ele>301.0</ele><time>2026-03-22T11:14:38.225Z</time></trkpt><trkpt lat="43.602" lon="11.4148533"><ele>302.0</ele><time>2026-03-22T11:14:40.225Z</time></trkpt><trkpt lat="43.6019867" lon="11.4149567"><ele>303.0</ele><time>2026-03-22T11:14:42.225Z</time></trkpt><trkpt lat="43.6019767" lon="11.41507"><ele>304.0</ele><time>2026-03-22T11:14:44.225Z</time></trkpt><trkpt lat="43.601965" lon="11.4151983"><ele>305.0</ele><time>2026-03-22T11:14:46.226Z</time></trkpt><trkpt lat="43.6019533" lon="11.4153367"><ele>305.0</ele><time>2026-03-22T11:14:48.226Z</time></trkpt><trkpt lat="43.601935" lon="11.4154817"><ele>305.0</ele><time>2026-03-22T11:14:50.226Z</time></trkpt><trkpt lat="43.60192" lon="11.4156333"><ele>305.0</ele><time>2026-03-22T11:14:52.225Z</time></trkpt><trkpt lat="43.6019083" lon="11.4158033"><ele>305.0</ele><time>2026-03-22T11:14:54.224Z</time></trkpt><trkpt lat="43.6019033" lon="11.415975"><ele>305.14285714285717</ele><time>2026-03-22T11:14:56.225Z</time></trkpt><trkpt lat="43.6018967" lon="11.4160617"><ele>305.2857142857143</ele><time>2026-03-22T11:14:57.225Z</time></trkpt><trkpt lat="43.6018867" lon="11.416155"><ele>305.42857142857144</ele><time>2026-03-22T11:14:58.225Z</time></trkpt><trkpt lat="43.6018733" lon="11.41625"><ele>305.57142857142856</ele><time>2026-03-22T11:14:59.225Z</time></trkpt><trkpt lat="43.601865" lon="11.416345"><ele>305.7142857142857</ele><time>2026-03-22T11:15:00.225Z</time></trkpt><trkpt lat="43.601855" lon="11.4164467"><ele>305.85714285714283</ele><time>2026-03-22T11:15:01.227Z</time></trkpt><trkpt lat="43.6018417" lon="11.4165417"><ele>306.0</ele><time>2026-03-22T11:15:02.226Z</time></trkpt><trkpt lat="43.6018317" lon="11.416635"><ele>306.0</ele><time>2026-03-22T11:15:03.227Z</time></trkpt><trkpt lat="43.6018267" lon="11.4167283"><ele>306.0</ele><time>2026-03-22T11:15:04.225Z</time></trkpt><trkpt lat="43.6018217" lon="11.41682"><ele>306.0</ele><time>2026-03-22T11:15:05.225Z</time></trkpt><trkpt lat="43.60182" lon="11.4169183"><ele>306.0</ele><time>2026-03-22T11:15:06.224Z</time></trkpt><trkpt lat="43.6018267" lon="11.4170167"><ele>306.0</ele><time>2026-03-22T11:15:07.225Z</time></trkpt><trkpt lat="43.6018467" lon="11.4171183"><ele>306.0</ele><time>2026-03-22T11:15:08.226Z</time></trkpt><trkpt lat="43.6018767" lon="11.4172167"><ele>306.0</ele><time>2026-03-22T11:15:09.228Z</time></trkpt><trkpt lat="43.601925" lon="11.4172967"><ele>305.6666666666667</ele><time>2026-03-22T11:15:10.226Z</time></trkpt><trkpt lat="43.60199" lon="11.4173617"><ele>305.3333333333333</ele><time>2026-03-22T11:15:11.225Z</time></trkpt><trkpt lat="43.602055" lon="11.4174183"><ele>305.0</ele><time>2026-03-22T11:15:12.225Z</time></trkpt><trkpt lat="43.602135" lon="11.4174483"><ele>304.66666666666663</ele><time>2026-03-22T11:15:13.227Z</time></trkpt><trkpt lat="43.6022217" lon="11.4174583"><ele>304.3333333333333</ele><time>2026-03-22T11:15:14.226Z</time></trkpt><trkpt lat="43.6023117" lon="11.4174583"><ele>304.0</ele><time>2026-03-22T11:15:15.228Z</time></trkpt><trkpt lat="43.6024067" lon="11.4174533"><ele>304.0</ele><time>2026-03-22T11:15:16.225Z</time></trkpt><trkpt lat="43.6025117" lon="11.4174483"><ele>304.0</ele><time>2026-03-22T11:15:17.225Z</time></trkpt><trkpt lat="43.602625" lon="11.4174433"><ele>304.0</ele><time>2026-03-22T11:15:18.225Z</time></trkpt><trkpt lat="43.60274" lon="11.4174417"><ele>304.0</ele><time>2026-03-22T11:15:19.225Z</time></trkpt><trkpt lat="43.602855" lon="11.417435"><ele>304.0</ele><time>2026-03-22T11:15:20.228Z</time></trkpt><trkpt lat="43.6029683" lon="11.4174283"><ele>302.5</ele><time>2026-03-22T11:15:21.225Z</time></trkpt><trkpt lat="43.6030867" lon="11.4174233"><ele>301.0</ele><time>2026-03-22T11:15:22.225Z</time></trkpt><trkpt lat="43.603205" lon="11.4174233"><ele>299.5</ele><time>2026-03-22T11:15:23.226Z</time></trkpt><trkpt lat="43.60332" lon="11.417435"><ele>298.0</ele><time>2026-03-22T11:15:24.226Z</time></trkpt><trkpt lat="43.6034333" lon="11.4174617"><ele>298.0</ele><time>2026-03-22T11:15:25.225Z</time></trkpt><trkpt lat="43.6035433" lon="11.4175083"><ele>298.0</ele><time>2026-03-22T11:15:26.225Z</time></trkpt><trkpt lat="43.60365" lon="11.4175817"><ele>298.0</ele><time>2026-03-22T11:15:27.226Z</time></trkpt><trkpt lat="43.60375" lon="11.4176717"><ele>298.0</ele><time>2026-03-22T11:15:28.226Z</time></trkpt><trkpt lat="43.6038367" lon="11.4177917"><ele>297.0</ele><time>2026-03-22T11:15:29.226Z</time></trkpt><trkpt lat="43.6039083" lon="11.41793"><ele>296.0</ele><time>2026-03-22T11:15:30.226Z</time></trkpt><trkpt lat="43.6039583" lon="11.4180883"><ele>295.0</ele><time>2026-03-22T11:15:31.225Z</time></trkpt><trkpt lat="43.6039967" lon="11.41826"><ele>294.0</ele><time>2026-03-22T11:15:32.226Z</time></trkpt><trkpt lat="43.6040317" lon="11.4184383"><ele>292.75</ele><time>2026-03-22T11:15:33.227Z</time></trkpt><trkpt lat="43.60406" lon="11.4186167"><ele>291.5</ele><time>2026-03-22T11:15:34.226Z</time></trkpt><trkpt lat="43.6040933" lon="11.4188"><ele>290.25</ele><time>2026-03-22T11:15:35.227Z</time></trkpt><trkpt lat="43.6041267" lon="11.418985"><ele>289.0</ele><time>2026-03-22T11:15:36.226Z</time></trkpt><trkpt lat="43.60416" lon="11.4191717"><ele>288.0</ele><time>2026-03-22T11:15:37.227Z</time></trkpt><trkpt lat="43.60419" lon="11.4193633"><ele>287.0</ele><time>2026-03-22T11:15:38.225Z</time></trkpt><trkpt lat="43.60422" lon="11.4195617"><ele>286.0</ele><time>2026-03-22T11:15:39.225Z</time></trkpt><trkpt lat="43.6042567" lon="11.4197583"><ele>285.0</ele><time>2026-03-22T11:15:40.225Z</time></trkpt><trkpt lat="43.604295" lon="11.4199467"><ele>284.75</ele><time>2026-03-22T11:15:41.225Z</time></trkpt><trkpt lat="43.604335" lon="11.4201333"><ele>284.5</ele><time>2026-03-22T11:15:42.226Z</time></trkpt><trkpt lat="43.60439" lon="11.4203067"><ele>284.25</ele><time>2026-03-22T11:15:43.227Z</time></trkpt><trkpt lat="43.604455" lon="11.420475"><ele>284.0</ele><time>2026-03-22T11:15:44.226Z</time></trkpt><trkpt lat="43.6045283" lon="11.4206467"><ele>278.6666666666667</ele><time>2026-03-22T11:15:45.225Z</time></trkpt><trkpt lat="43.6046083" lon="11.420815"><ele>273.3333333333333</ele><time>2026-03-22T11:15:46.228Z</time></trkpt><trkpt lat="43.604685" lon="11.4209983"><ele>268.0</ele><time>2026-03-22T11:15:47.226Z</time></trkpt><trkpt lat="43.6047583" lon="11.4211867"><ele>268.3333333333333</ele><time>2026-03-22T11:15:48.225Z</time></trkpt><trkpt lat="43.6048117" lon="11.4213833"><ele>268.6666666666667</ele><time>2026-03-22T11:15:49.226Z</time></trkpt><trkpt lat="43.6048433" lon="11.421595"><ele>269.0</ele><time>2026-03-22T11:15:50.226Z</time></trkpt><trkpt lat="43.6048667" lon="11.42182"><ele>269.0</ele><time>2026-03-22T11:15:51.228Z</time></trkpt><trkpt lat="43.6049" lon="11.42204"><ele>269.0</ele><time>2026-03-22T11:15:52.226Z</time></trkpt><trkpt lat="43.6049417" lon="11.4222567"><ele>269.0</ele><time>2026-03-22T11:15:53.225Z</time></trkpt><trkpt lat="43.604985" lon="11.422475"><ele>268.33333333333337</ele><time>2026-03-22T11:15:54.226Z</time></trkpt><trkpt lat="43.6050417" lon="11.4226817"><ele>267.6666666666667</ele><time>2026-03-22T11:15:55.225Z</time></trkpt><trkpt lat="43.6051117" lon="11.4228783"><ele>267.0</ele><time>2026-03-22T11:15:56.229Z</time></trkpt><trkpt lat="43.6051833" lon="11.4230733"><ele>265.3333333333333</ele><time>2026-03-22T11:15:57.227Z</time></trkpt><trkpt lat="43.60526" lon="11.423265"><ele>263.66666666666663</ele><time>2026-03-22T11:15:58.227Z</time></trkpt><trkpt lat="43.60535" lon="11.423445"><ele>262.0</ele><time>2026-03-22T11:15:59.226Z</time></trkpt><trkpt lat="43.6054633" lon="11.423605"><ele>261.75</ele><time>2026-03-22T11:16:00.225Z</time></trkpt><trkpt lat="43.605565" lon="11.4237633"><ele>261.5</ele><time>2026-03-22T11:16:01.228Z</time></trkpt><trkpt lat="43.6056617" lon="11.4239183"><ele>261.25</ele><time>2026-03-22T11:16:02.225Z</time></trkpt><trkpt lat="43.605745" lon="11.42407"><ele>261.0</ele><time>2026-03-22T11:16:03.225Z</time></trkpt><trkpt lat="43.6058133" lon="11.4242217"><ele>261.0</ele><time>2026-03-22T11:16:04.227Z</time></trkpt><trkpt lat="43.6058667" lon="11.4243617"><ele>261.0</ele><time>2026-03-22T11:16:05.225Z</time></trkpt><trkpt lat="43.6059117" lon="11.4244883"><ele>261.0</ele><time>2026-03-22T11:16:06.226Z</time></trkpt><trkpt lat="43.6059567" lon="11.4246083"><ele>261.0</ele><time>2026-03-22T11:16:07.227Z</time></trkpt><trkpt lat="43.606005" lon="11.4247233"><ele>261.0</ele><time>2026-03-22T11:16:08.227Z</time></trkpt><trkpt lat="43.6060517" lon="11.4248333"><ele>262.0</ele><time>2026-03-22T11:16:09.226Z</time></trkpt><trkpt lat="43.606095" lon="11.4249333"><ele>263.0</ele><time>2026-03-22T11:16:10.227Z</time></trkpt><trkpt lat="43.60614" lon="11.4250233"><ele>264.0</ele><time>2026-03-22T11:16:11.227Z</time></trkpt><trkpt lat="43.606185" lon="11.4251083"><ele>265.0</ele><time>2026-03-22T11:16:12.226Z</time></trkpt><trkpt lat="43.60623" lon="11.4251883"><ele>266.0</ele><time>2026-03-22T11:16:13.226Z</time></trkpt><trkpt lat="43.6062683" lon="11.4252717"><ele>267.0</ele><time>2026-03-22T11:16:14.225Z</time></trkpt><trkpt lat="43.6063083" lon="11.4253533"><ele>267.0</ele><time>2026-03-22T11:16:15.227Z</time></trkpt><trkpt lat="43.6063483" lon="11.42543"><ele>267.0</ele><time>2026-03-22T11:16:16.225Z</time></trkpt><trkpt lat="43.6063883" lon="11.4255017"><ele>267.0</ele><time>2026-03-22T11:16:17.226Z</time></trkpt><trkpt lat="43.6064217" lon="11.4255767"><ele>267.0</ele><time>2026-03-22T11:16:18.228Z</time></trkpt><trkpt lat="43.60649" lon="11.4257167"><ele>267.0</ele><time>2026-03-22T11:16:20.226Z</time></trkpt><trkpt lat="43.6065567" lon="11.4258483"><ele>267.0</ele><time>2026-03-22T11:16:22.223Z</time></trkpt><trkpt lat="43.60663" lon="11.425975"><ele>267.0</ele><time>2026-03-22T11:16:24.228Z</time></trkpt><trkpt lat="43.6066767" lon="11.426115"><ele>267.0</ele><time>2026-03-22T11:16:26.226Z</time></trkpt><trkpt lat="43.6067133" lon="11.426265"><ele>267.0</ele><time>2026-03-22T11:16:28.225Z</time></trkpt><trkpt lat="43.6067417" lon="11.426415"><ele>267.0</ele><time>2026-03-22T11:16:30.226Z</time></trkpt><trkpt lat="43.6067683" lon="11.4265567"><ele>267.0</ele><time>2026-03-22T11:16:32.226Z</time></trkpt><trkpt lat="43.6067767" lon="11.4266933"><ele>267.0</ele><time>2026-03-22T11:16:34.225Z</time></trkpt><trkpt lat="43.6067833" lon="11.426835"><ele>267.0</ele><time>2026-03-22T11:16:36.226Z</time></trkpt><trkpt lat="43.6067883" lon="11.426975"><ele>267.0</ele><time>2026-03-22T11:16:38.226Z</time></trkpt><trkpt lat="43.606795" lon="11.4271083"><ele>267.0</ele><time>2026-03-22T11:16:40.225Z</time></trkpt><trkpt lat="43.606805" lon="11.4272333"><ele>267.0</ele><time>2026-03-22T11:16:42.228Z</time></trkpt><trkpt lat="43.6068217" lon="11.4273533"><ele>267.1666666666667</ele><time>2026-03-22T11:16:44.226Z</time></trkpt><trkpt lat="43.6068283" lon="11.4274717"><ele>267.3333333333333</ele><time>2026-03-22T11:16:46.225Z</time></trkpt><trkpt lat="43.60683" lon="11.4275933"><ele>267.5</ele><time>2026-03-22T11:16:48.226Z</time></trkpt><trkpt lat="43.60684" lon="11.4277117"><ele>267.66666666666663</ele><time>2026-03-22T11:16:50.224Z</time></trkpt><trkpt lat="43.60685" lon="11.4278267"><ele>267.8333333333333</ele><time>2026-03-22T11:16:52.225Z</time></trkpt><trkpt lat="43.6068583" lon="11.4279533"><ele>268.0</ele><time>2026-03-22T11:16:54.226Z</time></trkpt><trkpt lat="43.60687" lon="11.4281"><ele>268.0</ele><time>2026-03-22T11:16:56.227Z</time></trkpt><trkpt lat="43.606885" lon="11.4282433"><ele>268.0</ele><time>2026-03-22T11:16:58.225Z</time></trkpt><trkpt lat="43.6068967" lon="11.42839"><ele>268.0</ele><time>2026-03-22T11:17:00.226Z</time></trkpt><trkpt lat="43.6069067" lon="11.4285433"><ele>268.0</ele><time>2026-03-22T11:17:02.227Z</time></trkpt><trkpt lat="43.60691" lon="11.4286983"><ele>268.0</ele><time>2026-03-22T11:17:04.225Z</time></trkpt><trkpt lat="43.606915" lon="11.42886"><ele>268.0</ele><time>2026-03-22T11:17:06.227Z</time></trkpt><trkpt lat="43.6069183" lon="11.42903"><ele>268.0</ele><time>2026-03-22T11:17:08.226Z</time></trkpt><trkpt lat="43.606925" lon="11.4291167"><ele>268.0</ele><time>2026-03-22T11:17:09.226Z</time></trkpt><trkpt lat="43.6069317" lon="11.4292067"><ele>268.0</ele><time>2026-03-22T11:17:10.225Z</time></trkpt><trkpt lat="43.6069367" lon="11.4292983"><ele>268.0</ele><time>2026-03-22T11:17:11.227Z</time></trkpt><trkpt lat="43.6069417" lon="11.42939"><ele>268.0</ele><time>2026-03-22T11:17:12.225Z</time></trkpt><trkpt lat="43.6069533" lon="11.4294817"><ele>268.0</ele><time>2026-03-22T11:17:13.226Z</time></trkpt><trkpt lat="43.6069633" lon="11.429575"><ele>268.0</ele><time>2026-03-22T11:17:14.226Z</time></trkpt><trkpt lat="43.60697" lon="11.4296733"><ele>268.0</ele><time>2026-03-22T11:17:15.225Z</time></trkpt><trkpt lat="43.6069733" lon="11.4297717"><ele>268.0</ele><time>2026-03-22T11:17:16.223Z</time></trkpt><trkpt lat="43.6069767" lon="11.4298717"><ele>268.0</ele><time>2026-03-22T11:17:17.226Z</time></trkpt><trkpt lat="43.6069783" lon="11.4299767"><ele>268.0</ele><time>2026-03-22T11:17:18.225Z</time></trkpt><trkpt lat="43.6069717" lon="11.4300783"><ele>268.0</ele><time>2026-03-22T11:17:19.225Z</time></trkpt><trkpt lat="43.6069533" lon="11.4301833"><ele>268.16666666666663</ele><time>2026-03-22T11:17:20.226Z</time></trkpt><trkpt lat="43.606925" lon="11.4302917"><ele>268.3333333333333</ele><time>2026-03-22T11:17:21.225Z</time></trkpt><trkpt lat="43.6068867" lon="11.4303917"><ele>268.5</ele><time>2026-03-22T11:17:22.226Z</time></trkpt><trkpt lat="43.6068433" lon="11.4304867"><ele>268.6666666666667</ele><time>2026-03-22T11:17:23.226Z</time></trkpt><trkpt lat="43.6067917" lon="11.43058"><ele>268.83333333333337</ele><time>2026-03-22T11:17:24.226Z</time></trkpt><trkpt lat="43.606735" lon="11.430665"><ele>269.0</ele><time>2026-03-22T11:17:25.225Z</time></trkpt><trkpt lat="43.606675" lon="11.4307483"><ele>269.0</ele><time>2026-03-22T11:17:26.227Z</time></trkpt><trkpt lat="43.606615" lon="11.4308283"><ele>269.0</ele><time>2026-03-22T11:17:27.225Z</time></trkpt><trkpt lat="43.6065567" lon="11.4309083"><ele>269.0</ele><time>2026-03-22T11:17:28.227Z</time></trkpt><trkpt lat="43.6064967" lon="11.4309883"><ele>269.0</ele><time>2026-03-22T11:17:29.227Z</time></trkpt><trkpt lat="43.6064383" lon="11.4310683"><ele>269.0</ele><time>2026-03-22T11:17:30.224Z</time></trkpt><trkpt lat="43.6063783" lon="11.43115"><ele>269.0</ele><time>2026-03-22T11:17:31.226Z</time></trkpt><trkpt lat="43.6063233" lon="11.43123"><ele>268.83333333333337</ele><time>2026-03-22T11:17:32.227Z</time></trkpt><trkpt lat="43.6062667" lon="11.4313117"><ele>268.6666666666667</ele><time>2026-03-22T11:17:33.226Z</time></trkpt><trkpt lat="43.60621" lon="11.4313933"><ele>268.5</ele><time>2026-03-22T11:17:34.227Z</time></trkpt><trkpt lat="43.6061483" lon="11.431475"><ele>268.3333333333333</ele><time>2026-03-22T11:17:35.227Z</time></trkpt><trkpt lat="43.6060833" lon="11.4315583"><ele>268.16666666666663</ele><time>2026-03-22T11:17:36.226Z</time></trkpt><trkpt lat="43.6060233" lon="11.43164"><ele>268.0</ele><time>2026-03-22T11:17:37.226Z</time></trkpt><trkpt lat="43.6059583" lon="11.431725"><ele>268.0</ele><time>2026-03-22T11:17:38.226Z</time></trkpt><trkpt lat="43.6059" lon="11.4318083"><ele>268.0</ele><time>2026-03-22T11:17:39.225Z</time></trkpt><trkpt lat="43.6058367" lon="11.431895"><ele>268.0</ele><time>2026-03-22T11:17:40.227Z</time></trkpt><trkpt lat="43.605775" lon="11.4319833"><ele>268.0</ele><time>2026-03-22T11:17:41.226Z</time></trkpt><trkpt lat="43.60572" lon="11.432075"><ele>268.0</ele><time>2026-03-22T11:17:42.228Z</time></trkpt><trkpt lat="43.6056733" lon="11.4321767"><ele>268.0</ele><time>2026-03-22T11:17:43.226Z</time></trkpt><trkpt lat="43.605645" lon="11.43228"><ele>268.0</ele><time>2026-03-22T11:17:44.226Z</time></trkpt><trkpt lat="43.60563" lon="11.4323933"><ele>268.0</ele><time>2026-03-22T11:17:45.227Z</time></trkpt><trkpt lat="43.60564" lon="11.4325133"><ele>268.0</ele><time>2026-03-22T11:17:46.228Z</time></trkpt><trkpt lat="43.605665" lon="11.43263"><ele>268.0</ele><time>2026-03-22T11:17:47.226Z</time></trkpt><trkpt lat="43.6057017" lon="11.4327417"><ele>268.0</ele><time>2026-03-22T11:17:48.225Z</time></trkpt><trkpt lat="43.6057483" lon="11.4328433"><ele>268.0</ele><time>2026-03-22T11:17:49.227Z</time></trkpt><trkpt lat="43.6058033" lon="11.43294"><ele>268.16666666666663</ele><time>2026-03-22T11:17:50.228Z</time></trkpt><trkpt lat="43.6058517" lon="11.4330333"><ele>268.3333333333333</ele><time>2026-03-22T11:17:51.226Z</time></trkpt><trkpt lat="43.6059" lon="11.4331317"><ele>268.5</ele><time>2026-03-22T11:17:52.226Z</time></trkpt><trkpt lat="43.6059483" lon="11.4332283"><ele>268.6666666666667</ele><time>2026-03-22T11:17:53.227Z</time></trkpt><trkpt lat="43.6059983" lon="11.4333267"><ele>268.83333333333337</ele><time>2026-03-22T11:17:54.226Z</time></trkpt><trkpt lat="43.6060517" lon="11.4334283"><ele>269.0</ele><time>2026-03-22T11:17:55.226Z</time></trkpt><trkpt lat="43.606105" lon="11.4335333"><ele>269.0</ele><time>2026-03-22T11:17:56.228Z</time></trkpt><trkpt lat="43.6061583" lon="11.43364"><ele>269.0</ele><time>2026-03-22T11:17:57.227Z</time></trkpt><trkpt lat="43.60621" lon="11.4337467"><ele>269.0</ele><time>2026-03-22T11:17:58.225Z</time></trkpt><trkpt lat="43.6062617" lon="11.4338567"><ele>269.0</ele><time>2026-03-22T11:17:59.225Z</time></trkpt><trkpt lat="43.6063133" lon="11.4339617"><ele>269.0</ele><time>2026-03-22T11:18:00.225Z</time></trkpt><trkpt lat="43.606365" lon="11.4340633"><ele>269.0</ele><time>2026-03-22T11:18:01.223Z</time></trkpt><trkpt lat="43.6064183" lon="11.43417"><ele>269.0</ele><time>2026-03-22T11:18:02.225Z</time></trkpt><trkpt lat="43.60647" lon="11.4342767"><ele>269.0</ele><time>2026-03-22T11:18:03.225Z</time></trkpt><trkpt lat="43.60652" lon="11.434385"><ele>269.0</ele><time>2026-03-22T11:18:04.223Z</time></trkpt><trkpt lat="43.60657" lon="11.4344883"><ele>269.0</ele><time>2026-03-22T11:18:05.225Z</time></trkpt><trkpt lat="43.6066167" lon="11.43459"><ele>269.0</ele><time>2026-03-22T11:18:06.225Z</time></trkpt><trkpt lat="43.6066583" lon="11.434695"><ele>269.0</ele><time>2026-03-22T11:18:07.224Z</time></trkpt><trkpt lat="43.6067" lon="11.4348"><ele>269.0</ele><time>2026-03-22T11:18:08.225Z</time></trkpt><trkpt lat="43.606745" lon="11.4349017"><ele>269.0</ele><time>2026-03-22T11:18:09.224Z</time></trkpt><trkpt lat="43.606785" lon="11.4350033"><ele>269.0</ele><time>2026-03-22T11:18:10.226Z</time></trkpt><trkpt lat="43.606825" lon="11.4351017"><ele>269.0</ele><time>2026-03-22T11:18:11.225Z</time></trkpt><trkpt lat="43.60687" lon="11.4351933"><ele>269.0</ele><time>2026-03-22T11:18:12.225Z</time></trkpt><trkpt lat="43.606915" lon="11.4352883"><ele>269.0</ele><time>2026-03-22T11:18:13.226Z</time></trkpt><trkpt lat="43.606965" lon="11.4353767"><ele>269.0</ele><time>2026-03-22T11:18:14.225Z</time></trkpt><trkpt lat="43.6070067" lon="11.4354733"><ele>269.0</ele><time>2026-03-22T11:18:15.225Z</time></trkpt><trkpt lat="43.6070533" lon="11.4355667"><ele>269.0</ele><time>2026-03-22T11:18:16.225Z</time></trkpt><trkpt lat="43.6070967" lon="11.4356667"><ele>269.0</ele><time>2026-03-22T11:18:17.224Z</time></trkpt><trkpt lat="43.607145" lon="11.4357683"><ele>268.2</ele><time>2026-03-22T11:18:18.225Z</time></trkpt><trkpt lat="43.6071967" lon="11.43587"><ele>267.4</ele><time>2026-03-22T11:18:19.225Z</time></trkpt><trkpt lat="43.6072483" lon="11.4359733"><ele>266.6</ele><time>2026-03-22T11:18:20.226Z</time></trkpt><trkpt lat="43.6073017" lon="11.4360783"><ele>265.8</ele><time>2026-03-22T11:18:21.227Z</time></trkpt><trkpt lat="43.6073567" lon="11.436185"><ele>265.0</ele><time>2026-03-22T11:18:22.224Z</time></trkpt><trkpt lat="43.607405" lon="11.4362967"><ele>265.0</ele><time>2026-03-22T11:18:23.225Z</time></trkpt><trkpt lat="43.6074567" lon="11.43641"><ele>265.0</ele><time>2026-03-22T11:18:24.225Z</time></trkpt><trkpt lat="43.60751" lon="11.4365217"><ele>265.0</ele><time>2026-03-22T11:18:25.227Z</time></trkpt><trkpt lat="43.6075717" lon="11.4366267"><ele>265.0</ele><time>2026-03-22T11:18:26.225Z</time></trkpt><trkpt lat="43.6076383" lon="11.4367267"><ele>265.0</ele><time>2026-03-22T11:18:27.226Z</time></trkpt><trkpt lat="43.6077167" lon="11.4368267"><ele>265.0</ele><time>2026-03-22T11:18:28.224Z</time></trkpt><trkpt lat="43.6078033" lon="11.4369183"><ele>265.0</ele><time>2026-03-22T11:18:29.225Z</time></trkpt><trkpt lat="43.6079" lon="11.436995"><ele>265.0</ele><time>2026-03-22T11:18:30.224Z</time></trkpt><trkpt lat="43.6080067" lon="11.4370667"><ele>265.0</ele><time>2026-03-22T11:18:31.226Z</time></trkpt><trkpt lat="43.608115" lon="11.4371333"><ele>263.5</ele><time>2026-03-22T11:18:32.226Z</time></trkpt><trkpt lat="43.608225" lon="11.437195"><ele>262.0</ele><time>2026-03-22T11:18:33.228Z</time></trkpt><trkpt lat="43.60834" lon="11.4372617"><ele>260.5</ele><time>2026-03-22T11:18:34.224Z</time></trkpt><trkpt lat="43.6084567" lon="11.43733"><ele>259.0</ele><time>2026-03-22T11:18:35.225Z</time></trkpt><trkpt lat="43.608575" lon="11.43741"><ele>258.25</ele><time>2026-03-22T11:18:36.225Z</time></trkpt><trkpt lat="43.6086933" lon="11.4375"><ele>257.5</ele><time>2026-03-22T11:18:37.225Z</time></trkpt><trkpt lat="43.6087967" lon="11.4376083"><ele>256.75</ele><time>2026-03-22T11:18:38.227Z</time></trkpt><trkpt lat="43.60889" lon="11.4377317"><ele>256.0</ele><time>2026-03-22T11:18:39.226Z</time></trkpt><trkpt lat="43.6089733" lon="11.43786"><ele>255.5</ele><time>2026-03-22T11:18:40.227Z</time></trkpt><trkpt lat="43.6090483" lon="11.43799"><ele>255.0</ele><time>2026-03-22T11:18:41.225Z</time></trkpt><trkpt lat="43.6091233" lon="11.438115"><ele>254.5</ele><time>2026-03-22T11:18:42.225Z</time></trkpt><trkpt lat="43.6092" lon="11.4382433"><ele>254.0</ele><time>2026-03-22T11:18:43.225Z</time></trkpt><trkpt lat="43.6092717" lon="11.4383733"><ele>254.0</ele><time>2026-03-22T11:18:44.224Z</time></trkpt><trkpt lat="43.609345" lon="11.4384983"><ele>254.0</ele><time>2026-03-22T11:18:45.225Z</time></trkpt><trkpt lat="43.6094167" lon="11.4386183"><ele>254.0</ele><time>2026-03-22T11:18:46.225Z</time></trkpt><trkpt lat="43.60949" lon="11.438735"><ele>254.0</ele><time>2026-03-22T11:18:47.224Z</time></trkpt><trkpt lat="43.609565" lon="11.43885"><ele>253.39999999999998</ele><time>2026-03-22T11:18:48.225Z</time></trkpt><trkpt lat="43.6096467" lon="11.4389567"><ele>252.79999999999998</ele><time>2026-03-22T11:18:49.225Z</time></trkpt><trkpt lat="43.60973" lon="11.4390533"><ele>252.20000000000002</ele><time>2026-03-22T11:18:50.225Z</time></trkpt><trkpt lat="43.60982" lon="11.4391417"><ele>251.60000000000002</ele><time>2026-03-22T11:18:51.224Z</time></trkpt><trkpt lat="43.60991" lon="11.43922"><ele>251.0</ele><time>2026-03-22T11:18:52.225Z</time></trkpt><trkpt lat="43.6100033" lon="11.4392933"><ele>251.0</ele><time>2026-03-22T11:18:53.225Z</time></trkpt><trkpt lat="43.6100983" lon="11.439355"><ele>251.00000000000003</ele><time>2026-03-22T11:18:54.226Z</time></trkpt><trkpt lat="43.61019" lon="11.439405"><ele>251.00000000000003</ele><time>2026-03-22T11:18:55.226Z</time></trkpt><trkpt lat="43.6102817" lon="11.439455"><ele>251.0</ele><time>2026-03-22T11:18:56.225Z</time></trkpt><trkpt lat="43.6103783" lon="11.439505"><ele>251.0</ele><time>2026-03-22T11:18:57.224Z</time></trkpt><trkpt lat="43.6104733" lon="11.4395533"><ele>251.20000000000002</ele><time>2026-03-22T11:18:58.225Z</time></trkpt><trkpt lat="43.6105633" lon="11.439605"><ele>251.40000000000003</ele><time>2026-03-22T11:18:59.225Z</time></trkpt><trkpt lat="43.61065" lon="11.4396717"><ele>251.6</ele><time>2026-03-22T11:19:00.225Z</time></trkpt><trkpt lat="43.6107367" lon="11.4397517"><ele>251.8</ele><time>2026-03-22T11:19:01.225Z</time></trkpt><trkpt lat="43.610815" lon="11.4398433"><ele>252.0</ele><time>2026-03-22T11:19:02.226Z</time></trkpt><trkpt lat="43.6108783" lon="11.4399567"><ele>252.0</ele><time>2026-03-22T11:19:03.225Z</time></trkpt><trkpt lat="43.61093" lon="11.44008"><ele>252.0</ele><time>2026-03-22T11:19:04.225Z</time></trkpt><trkpt lat="43.6109717" lon="11.4402133"><ele>252.0</ele><time>2026-03-22T11:19:05.226Z</time></trkpt><trkpt lat="43.6109967" lon="11.4403517"><ele>252.0</ele><time>2026-03-22T11:19:06.228Z</time></trkpt><trkpt lat="43.611005" lon="11.4405"><ele>252.0</ele><time>2026-03-22T11:19:07.225Z</time></trkpt><trkpt lat="43.6110133" lon="11.4406467"><ele>251.8</ele><time>2026-03-22T11:19:08.224Z</time></trkpt><trkpt lat="43.6110317" lon="11.4407883"><ele>251.6</ele><time>2026-03-22T11:19:09.226Z</time></trkpt><trkpt lat="43.6110483" lon="11.4409283"><ele>251.40000000000003</ele><time>2026-03-22T11:19:10.225Z</time></trkpt><trkpt lat="43.61107" lon="11.44107"><ele>251.20000000000002</ele><time>2026-03-22T11:19:11.227Z</time></trkpt><trkpt lat="43.6110767" lon="11.4412217"><ele>251.0</ele><time>2026-03-22T11:19:12.225Z</time></trkpt><trkpt lat="43.61109" lon="11.44137"><ele>250.8</ele><time>2026-03-22T11:19:13.225Z</time></trkpt><trkpt lat="43.6111067" lon="11.4415167"><ele>250.60000000000002</ele><time>2026-03-22T11:19:14.225Z</time></trkpt><trkpt lat="43.6111217" lon="11.4416667"><ele>250.4</ele><time>2026-03-22T11:19:15.224Z</time></trkpt><trkpt lat="43.6111467" lon="11.4418133"><ele>250.2</ele><time>2026-03-22T11:19:16.225Z</time></trkpt><trkpt lat="43.611175" lon="11.44196"><ele>250.0</ele><time>2026-03-22T11:19:17.226Z</time></trkpt><trkpt lat="43.6112117" lon="11.4421033"><ele>249.0</ele><time>2026-03-22T11:19:18.225Z</time></trkpt><trkpt lat="43.611255" lon="11.4422483"><ele>248.0</ele><time>2026-03-22T11:19:19.227Z</time></trkpt><trkpt lat="43.6113083" lon="11.4423917"><ele>247.0</ele><time>2026-03-22T11:19:20.226Z</time></trkpt><trkpt lat="43.61137" lon="11.442535"><ele>246.0</ele><time>2026-03-22T11:19:21.227Z</time></trkpt><trkpt lat="43.6114383" lon="11.44267"><ele>246.0</ele><time>2026-03-22T11:19:22.225Z</time></trkpt><trkpt lat="43.6115" lon="11.44281"><ele>246.0</ele><time>2026-03-22T11:19:23.225Z</time></trkpt><trkpt lat="43.611555" lon="11.4429567"><ele>246.0</ele><time>2026-03-22T11:19:24.225Z</time></trkpt><trkpt lat="43.6115983" lon="11.4431167"><ele>246.0</ele><time>2026-03-22T11:19:25.225Z</time></trkpt><trkpt lat="43.61163" lon="11.44328"><ele>244.75</ele><time>2026-03-22T11:19:26.225Z</time></trkpt><trkpt lat="43.611655" lon="11.4434483"><ele>243.5</ele><time>2026-03-22T11:19:27.225Z</time></trkpt><trkpt lat="43.6116817" lon="11.4436167"><ele>242.25</ele><time>2026-03-22T11:19:28.224Z</time></trkpt><trkpt lat="43.6116933" lon="11.4437867"><ele>241.0</ele><time>2026-03-22T11:19:29.225Z</time></trkpt><trkpt lat="43.6116983" lon="11.4439517"><ele>239.75</ele><time>2026-03-22T11:19:30.224Z</time></trkpt><trkpt lat="43.6117117" lon="11.4441117"><ele>238.5</ele><time>2026-03-22T11:19:31.226Z</time></trkpt><trkpt lat="43.6117483" lon="11.4442633"><ele>237.25</ele><time>2026-03-22T11:19:32.226Z</time></trkpt><trkpt lat="43.6118083" lon="11.4444"><ele>236.0</ele><time>2026-03-22T11:19:33.224Z</time></trkpt><trkpt lat="43.6118883" lon="11.44452"><ele>235.25</ele><time>2026-03-22T11:19:34.225Z</time></trkpt><trkpt lat="43.6119667" lon="11.4446367"><ele>234.5</ele><time>2026-03-22T11:19:35.225Z</time></trkpt><trkpt lat="43.612055" lon="11.4447417"><ele>233.75</ele><time>2026-03-22T11:19:36.225Z</time></trkpt><trkpt lat="43.612145" lon="11.4448467"><ele>233.0</ele><time>2026-03-22T11:19:37.226Z</time></trkpt><trkpt lat="43.612235" lon="11.4449533"><ele>232.5</ele><time>2026-03-22T11:19:38.227Z</time></trkpt><trkpt lat="43.6123283" lon="11.4450617"><ele>232.0</ele><time>2026-03-22T11:19:39.226Z</time></trkpt><trkpt lat="43.6124267" lon="11.4451683"><ele>231.5</ele><time>2026-03-22T11:19:40.225Z</time></trkpt><trkpt lat="43.6125233" lon="11.4452633"><ele>231.0</ele><time>2026-03-22T11:19:41.228Z</time></trkpt><trkpt lat="43.6126283" lon="11.4453467"><ele>231.0</ele><time>2026-03-22T11:19:42.225Z</time></trkpt><trkpt lat="43.61274" lon="11.4454067"><ele>231.0</ele><time>2026-03-22T11:19:43.225Z</time></trkpt><trkpt lat="43.6128533" lon="11.4454517"><ele>231.0</ele><time>2026-03-22T11:19:44.223Z</time></trkpt><trkpt lat="43.6129667" lon="11.445495"><ele>231.0</ele><time>2026-03-22T11:19:45.225Z</time></trkpt><trkpt lat="43.61308" lon="11.445555"><ele>230.25</ele><time>2026-03-22T11:19:46.224Z</time></trkpt><trkpt lat="43.6131883" lon="11.4456367"><ele>229.5</ele><time>2026-03-22T11:19:47.225Z</time></trkpt><trkpt lat="43.6132883" lon="11.4457333"><ele>228.75</ele><time>2026-03-22T11:19:48.225Z</time></trkpt><trkpt lat="43.61339" lon="11.4458267"><ele>228.0</ele><time>2026-03-22T11:19:49.225Z</time></trkpt><trkpt lat="43.6134983" lon="11.4459117"><ele>228.0</ele><time>2026-03-22T11:19:50.225Z</time></trkpt><trkpt lat="43.613605" lon="11.4459967"><ele>228.0</ele><time>2026-03-22T11:19:51.225Z</time></trkpt><trkpt lat="43.6137167" lon="11.4460633"><ele>228.0</ele><time>2026-03-22T11:19:52.225Z</time></trkpt><trkpt lat="43.6138317" lon="11.4461333"><ele>228.0</ele><time>2026-03-22T11:19:53.225Z</time></trkpt><trkpt lat="43.6139433" lon="11.4462067"><ele>228.75</ele><time>2026-03-22T11:19:54.224Z</time></trkpt><trkpt lat="43.61405" lon="11.4462817"><ele>229.5</ele><time>2026-03-22T11:19:55.224Z</time></trkpt><trkpt lat="43.6141567" lon="11.446345"><ele>230.25</ele><time>2026-03-22T11:19:56.224Z</time></trkpt><trkpt lat="43.614265" lon="11.446385"><ele>231.0</ele><time>2026-03-22T11:19:57.225Z</time></trkpt><trkpt lat="43.61437" lon="11.4464083"><ele>227.60000000000002</ele><time>2026-03-22T11:19:58.225Z</time></trkpt><trkpt lat="43.6144767" lon="11.4464"><ele>224.20000000000002</ele><time>2026-03-22T11:19:59.225Z</time></trkpt><trkpt lat="43.614585" lon="11.4463733"><ele>220.79999999999998</ele><time>2026-03-22T11:20:00.226Z</time></trkpt><trkpt lat="43.6147" lon="11.4463417"><ele>217.39999999999998</ele><time>2026-03-22T11:20:01.226Z</time></trkpt><trkpt lat="43.6148083" lon="11.4463183"><ele>214.0</ele><time>2026-03-22T11:20:02.225Z</time></trkpt><trkpt lat="43.6149133" lon="11.446325"><ele>214.0</ele><time>2026-03-22T11:20:03.225Z</time></trkpt><trkpt lat="43.615015" lon="11.4463667"><ele>213.99999999999997</ele><time>2026-03-22T11:20:04.224Z</time></trkpt><trkpt lat="43.615105" lon="11.4464533"><ele>213.99999999999997</ele><time>2026-03-22T11:20:05.225Z</time></trkpt><trkpt lat="43.6151633" lon="11.4465733"><ele>214.0</ele><time>2026-03-22T11:20:06.226Z</time></trkpt><trkpt lat="43.615215" lon="11.4467067"><ele>214.0</ele><time>2026-03-22T11:20:07.225Z</time></trkpt><trkpt lat="43.6152733" lon="11.4468317"><ele>213.2</ele><time>2026-03-22T11:20:08.227Z</time></trkpt><trkpt lat="43.6153467" lon="11.4469467"><ele>212.39999999999998</ele><time>2026-03-22T11:20:09.227Z</time></trkpt><trkpt lat="43.6154283" lon="11.4470517"><ele>211.6</ele><time>2026-03-22T11:20:10.225Z</time></trkpt><trkpt lat="43.6155117" lon="11.4471533"><ele>210.8</ele><time>2026-03-22T11:20:11.225Z</time></trkpt><trkpt lat="43.6155967" lon="11.4472533"><ele>210.0</ele><time>2026-03-22T11:20:12.225Z</time></trkpt><trkpt lat="43.61568" lon="11.4473633"><ele>210.0</ele><time>2026-03-22T11:20:13.227Z</time></trkpt><trkpt lat="43.6157567" lon="11.4474833"><ele>210.0</ele><time>2026-03-22T11:20:14.225Z</time></trkpt><trkpt lat="43.6158333" lon="11.4476083"><ele>210.0</ele><time>2026-03-22T11:20:15.225Z</time></trkpt><trkpt lat="43.6158983" lon="11.447745"><ele>210.0</ele><time>2026-03-22T11:20:16.224Z</time></trkpt><trkpt lat="43.61597" lon="11.447875"><ele>212.0</ele><time>2026-03-22T11:20:17.225Z</time></trkpt><trkpt lat="43.6160567" lon="11.4479917"><ele>214.0</ele><time>2026-03-22T11:20:18.224Z</time></trkpt><trkpt lat="43.616145" lon="11.4481067"><ele>216.0</ele><time>2026-03-22T11:20:19.224Z</time></trkpt><trkpt lat="43.6162433" lon="11.4482133"><ele>218.0</ele><time>2026-03-22T11:20:20.225Z</time></trkpt><trkpt lat="43.6163417" lon="11.4483183"><ele>218.0</ele><time>2026-03-22T11:20:21.224Z</time></trkpt><trkpt lat="43.616435" lon="11.4484283"><ele>218.0</ele><time>2026-03-22T11:20:22.225Z</time></trkpt><trkpt lat="43.6165283" lon="11.44854"><ele>218.0</ele><time>2026-03-22T11:20:23.224Z</time></trkpt><trkpt lat="43.6166017" lon="11.44866"><ele>218.0</ele><time>2026-03-22T11:20:24.226Z</time></trkpt><trkpt lat="43.6166583" lon="11.448785"><ele>215.60000000000002</ele><time>2026-03-22T11:20:25.224Z</time></trkpt><trkpt lat="43.616695" lon="11.4489233"><ele>213.20000000000002</ele><time>2026-03-22T11:20:26.225Z</time></trkpt><trkpt lat="43.6167083" lon="11.44907"><ele>210.8</ele><time>2026-03-22T11:20:27.224Z</time></trkpt><trkpt lat="43.6166867" lon="11.44922"><ele>208.4</ele><time>2026-03-22T11:20:28.224Z</time></trkpt><trkpt lat="43.6166467" lon="11.4493583"><ele>206.0</ele><time>2026-03-22T11:20:29.228Z</time></trkpt><trkpt lat="43.6165783" lon="11.4494883"><ele>206.0</ele><time>2026-03-22T11:20:30.224Z</time></trkpt><trkpt lat="43.6165117" lon="11.4495933"><ele>206.0</ele><time>2026-03-22T11:20:31.224Z</time></trkpt><trkpt lat="43.6164483" lon="11.4496933"><ele>206.0</ele><time>2026-03-22T11:20:32.225Z</time></trkpt><trkpt lat="43.6164067" lon="11.449795"><ele>206.0</ele><time>2026-03-22T11:20:33.225Z</time></trkpt><trkpt lat="43.6163817" lon="11.4499133"><ele>206.0</ele><time>2026-03-22T11:20:34.224Z</time></trkpt><trkpt lat="43.6163917" lon="11.4500333"><ele>204.20000000000002</ele><time>2026-03-22T11:20:35.227Z</time></trkpt><trkpt lat="43.6164283" lon="11.45015"><ele>202.4</ele><time>2026-03-22T11:20:36.225Z</time></trkpt><trkpt lat="43.6164883" lon="11.4502533"><ele>200.6</ele><time>2026-03-22T11:20:37.225Z</time></trkpt><trkpt lat="43.6165633" lon="11.4503383"><ele>198.8</ele><time>2026-03-22T11:20:38.225Z</time></trkpt><trkpt lat="43.616665" lon="11.4503883"><ele>197.0</ele><time>2026-03-22T11:20:39.227Z</time></trkpt><trkpt lat="43.6167717" lon="11.450425"><ele>197.0</ele><time>2026-03-22T11:20:40.224Z</time></trkpt><trkpt lat="43.6168733" lon="11.4504567"><ele>197.0</ele><time>2026-03-22T11:20:41.225Z</time></trkpt><trkpt lat="43.616965" lon="11.4505067"><ele>197.0</ele><time>2026-03-22T11:20:42.225Z</time></trkpt><trkpt lat="43.6170417" lon="11.4506"><ele>197.0</ele><time>2026-03-22T11:20:43.225Z</time></trkpt><trkpt lat="43.6170883" lon="11.4507283"><ele>197.0</ele><time>2026-03-22T11:20:44.225Z</time></trkpt><trkpt lat="43.6171117" lon="11.4508717"><ele>198.0</ele><time>2026-03-22T11:20:45.222Z</time></trkpt><trkpt lat="43.6171183" lon="11.4510167"><ele>199.0</ele><time>2026-03-22T11:20:46.223Z</time></trkpt><trkpt lat="43.6171133" lon="11.4511683"><ele>200.0</ele><time>2026-03-22T11:20:47.223Z</time></trkpt><trkpt lat="43.6171067" lon="11.4513217"><ele>201.0</ele><time>2026-03-22T11:20:48.222Z</time></trkpt><trkpt lat="43.617115" lon="11.4514733"><ele>202.0</ele><time>2026-03-22T11:20:49.223Z</time></trkpt><trkpt lat="43.6171467" lon="11.4516167"><ele>200.0</ele><time>2026-03-22T11:20:50.225Z</time></trkpt><trkpt lat="43.6172083" lon="11.45174"><ele>198.0</ele><time>2026-03-22T11:20:51.225Z</time></trkpt><trkpt lat="43.6172883" lon="11.4518433"><ele>196.0</ele><time>2026-03-22T11:20:52.224Z</time></trkpt><trkpt lat="43.6173617" lon="11.451945"><ele>194.0</ele><time>2026-03-22T11:20:53.225Z</time></trkpt><trkpt lat="43.617415" lon="11.4520533"><ele>192.0</ele><time>2026-03-22T11:20:54.229Z</time></trkpt><trkpt lat="43.61745" lon="11.4521633"><ele>192.0</ele><time>2026-03-22T11:20:55.224Z</time></trkpt><trkpt lat="43.6174533" lon="11.452285"><ele>192.0</ele><time>2026-03-22T11:20:56.226Z</time></trkpt><trkpt lat="43.61742" lon="11.4523967"><ele>192.0</ele><time>2026-03-22T11:20:57.224Z</time></trkpt><trkpt lat="43.6173433" lon="11.452495"><ele>192.0</ele><time>2026-03-22T11:20:58.224Z</time></trkpt><trkpt lat="43.617245" lon="11.4525767"><ele>192.0</ele><time>2026-03-22T11:20:59.226Z</time></trkpt><trkpt lat="43.6171483" lon="11.452665"><ele>192.0</ele><time>2026-03-22T11:21:00.225Z</time></trkpt><trkpt lat="43.6170483" lon="11.45276"><ele>192.0</ele><time>2026-03-22T11:21:01.225Z</time></trkpt><trkpt lat="43.6169533" lon="11.4528567"><ele>192.0</ele><time>2026-03-22T11:21:02.225Z</time></trkpt><trkpt lat="43.6168667" lon="11.4529567"><ele>192.0</ele><time>2026-03-22T11:21:03.226Z</time></trkpt><trkpt lat="43.6167783" lon="11.4530517"><ele>190.2</ele><time>2026-03-22T11:21:04.226Z</time></trkpt><trkpt lat="43.6166933" lon="11.4531383"><ele>188.39999999999998</ele><time>2026-03-22T11:21:05.225Z</time></trkpt><trkpt lat="43.61663" lon="11.45323"><ele>186.60000000000002</ele><time>2026-03-22T11:21:06.225Z</time></trkpt><trkpt lat="43.616575" lon="11.453325"><ele>184.8</ele><time>2026-03-22T11:21:07.227Z</time></trkpt><trkpt lat="43.61654" lon="11.453435"><ele>183.0</ele><time>2026-03-22T11:21:08.225Z</time></trkpt><trkpt lat="43.6165367" lon="11.45357"><ele>183.0</ele><time>2026-03-22T11:21:09.223Z</time></trkpt><trkpt lat="43.6165667" lon="11.4537067"><ele>183.0</ele><time>2026-03-22T11:21:10.225Z</time></trkpt><trkpt lat="43.6165967" lon="11.45385"><ele>183.0</ele><time>2026-03-22T11:21:11.225Z</time></trkpt><trkpt lat="43.6166183" lon="11.454"><ele>183.0</ele><time>2026-03-22T11:21:12.225Z</time></trkpt><trkpt lat="43.6166267" lon="11.4541533"><ele>183.0</ele><time>2026-03-22T11:21:13.225Z</time></trkpt><trkpt lat="43.6166133" lon="11.454305"><ele>181.0</ele><time>2026-03-22T11:21:14.226Z</time></trkpt><trkpt lat="43.6165833" lon="11.45445"><ele>179.0</ele><time>2026-03-22T11:21:15.226Z</time></trkpt><trkpt lat="43.616545" lon="11.454585"><ele>177.0</ele><time>2026-03-22T11:21:16.225Z</time></trkpt><trkpt lat="43.6165067" lon="11.4547133"><ele>175.0</ele><time>2026-03-22T11:21:17.227Z</time></trkpt><trkpt lat="43.6164867" lon="11.4548483"><ele>173.0</ele><time>2026-03-22T11:21:18.225Z</time></trkpt><trkpt lat="43.616485" lon="11.4549883"><ele>171.2</ele><time>2026-03-22T11:21:19.226Z</time></trkpt><trkpt lat="43.6165183" lon="11.455115"><ele>169.4</ele><time>2026-03-22T11:21:20.225Z</time></trkpt><trkpt lat="43.616575" lon="11.4552233"><ele>167.6</ele><time>2026-03-22T11:21:21.225Z</time></trkpt><trkpt lat="43.61666" lon="11.4552967"><ele>165.79999999999998</ele><time>2026-03-22T11:21:22.224Z</time></trkpt><trkpt lat="43.616755" lon="11.4553317"><ele>164.0</ele><time>2026-03-22T11:21:23.227Z</time></trkpt><trkpt lat="43.6168567" lon="11.45534"><ele>164.0</ele><time>2026-03-22T11:21:24.227Z</time></trkpt><trkpt lat="43.6169517" lon="11.4553117"><ele>164.0</ele><time>2026-03-22T11:21:25.226Z</time></trkpt><trkpt lat="43.6170383" lon="11.4552567"><ele>164.0</ele><time>2026-03-22T11:21:26.226Z</time></trkpt><trkpt lat="43.61712" lon="11.4551733"><ele>164.0</ele><time>2026-03-22T11:21:27.226Z</time></trkpt><trkpt lat="43.6171983" lon="11.45508"><ele>164.0</ele><time>2026-03-22T11:21:28.225Z</time></trkpt><trkpt lat="43.617275" lon="11.45499"><ele>163.79999999999998</ele><time>2026-03-22T11:21:29.226Z</time></trkpt><trkpt lat="43.6173483" lon="11.454895"><ele>163.6</ele><time>2026-03-22T11:21:30.225Z</time></trkpt><trkpt lat="43.6174233" lon="11.4548217"><ele>163.4</ele><time>2026-03-22T11:21:31.225Z</time></trkpt><trkpt lat="43.6175033" lon="11.4547783"><ele>163.2</ele><time>2026-03-22T11:21:32.227Z</time></trkpt><trkpt lat="43.61759" lon="11.454775"><ele>163.0</ele><time>2026-03-22T11:21:33.226Z</time></trkpt><trkpt lat="43.6176817" lon="11.4548017"><ele>163.0</ele><time>2026-03-22T11:21:34.224Z</time></trkpt><trkpt lat="43.6177533" lon="11.454875"><ele>163.0</ele><time>2026-03-22T11:21:35.226Z</time></trkpt><trkpt lat="43.6177917" lon="11.4549883"><ele>163.0</ele><time>2026-03-22T11:21:36.225Z</time></trkpt><trkpt lat="43.6178017" lon="11.4551217"><ele>163.0</ele><time>2026-03-22T11:21:37.225Z</time></trkpt><trkpt lat="43.617805" lon="11.45526"><ele>163.0</ele><time>2026-03-22T11:21:38.227Z</time></trkpt><trkpt lat="43.6178117" lon="11.4553983"><ele>161.20000000000002</ele><time>2026-03-22T11:21:39.227Z</time></trkpt><trkpt lat="43.6178333" lon="11.4555367"><ele>159.4</ele><time>2026-03-22T11:21:40.223Z</time></trkpt><trkpt lat="43.6178733" lon="11.4556667"><ele>157.60000000000002</ele><time>2026-03-22T11:21:41.225Z</time></trkpt><trkpt lat="43.6179333" lon="11.45578"><ele>155.8</ele><time>2026-03-22T11:21:42.227Z</time></trkpt><trkpt lat="43.6180133" lon="11.45587"><ele>154.0</ele><time>2026-03-22T11:21:43.225Z</time></trkpt><trkpt lat="43.618105" lon="11.4559433"><ele>154.0</ele><time>2026-03-22T11:21:44.226Z</time></trkpt><trkpt lat="43.6182133" lon="11.4559883"><ele>154.0</ele><time>2026-03-22T11:21:45.226Z</time></trkpt><trkpt lat="43.6183217" lon="11.4560317"><ele>154.0</ele><time>2026-03-22T11:21:46.225Z</time></trkpt><trkpt lat="43.6184317" lon="11.4560767"><ele>154.0</ele><time>2026-03-22T11:21:47.227Z</time></trkpt><trkpt lat="43.6185417" lon="11.45614"><ele>154.0</ele><time>2026-03-22T11:21:48.225Z</time></trkpt><trkpt lat="43.61865" lon="11.45621"><ele>154.0</ele><time>2026-03-22T11:21:49.223Z</time></trkpt><trkpt lat="43.6187583" lon="11.4562833"><ele>154.0</ele><time>2026-03-22T11:21:50.227Z</time></trkpt><trkpt lat="43.6188633" lon="11.456365"><ele>154.0</ele><time>2026-03-22T11:21:51.225Z</time></trkpt><trkpt lat="43.6189667" lon="11.45645"><ele>152.5</ele><time>2026-03-22T11:21:52.225Z</time></trkpt><trkpt lat="43.61907" lon="11.4565317"><ele>151.0</ele><time>2026-03-22T11:21:53.225Z</time></trkpt><trkpt lat="43.6191783" lon="11.4566083"><ele>149.5</ele><time>2026-03-22T11:21:54.225Z</time></trkpt><trkpt lat="43.6192833" lon="11.4566917"><ele>148.0</ele><time>2026-03-22T11:21:55.225Z</time></trkpt><trkpt lat="43.6193967" lon="11.45677"><ele>147.75</ele><time>2026-03-22T11:21:56.227Z</time></trkpt><trkpt lat="43.6195117" lon="11.45685"><ele>147.5</ele><time>2026-03-22T11:21:57.225Z</time></trkpt><trkpt lat="43.6196267" lon="11.4569317"><ele>147.25</ele><time>2026-03-22T11:21:58.223Z</time></trkpt><trkpt lat="43.6197367" lon="11.4570217"><ele>147.0</ele><time>2026-03-22T11:21:59.225Z</time></trkpt><trkpt lat="43.619845" lon="11.4571167"><ele>145.0</ele><time>2026-03-22T11:22:00.225Z</time></trkpt><trkpt lat="43.6199517" lon="11.4572183"><ele>143.0</ele><time>2026-03-22T11:22:01.225Z</time></trkpt><trkpt lat="43.6200567" lon="11.4573267"><ele>141.0</ele><time>2026-03-22T11:22:02.227Z</time></trkpt><trkpt lat="43.6201583" lon="11.4574367"><ele>139.0</ele><time>2026-03-22T11:22:03.225Z</time></trkpt><trkpt lat="43.6202617" lon="11.45755"><ele>138.75</ele><time>2026-03-22T11:22:04.227Z</time></trkpt><trkpt lat="43.6203617" lon="11.457665"><ele>138.5</ele><time>2026-03-22T11:22:05.225Z</time></trkpt><trkpt lat="43.6204633" lon="11.4577733"><ele>138.25</ele><time>2026-03-22T11:22:06.227Z</time></trkpt><trkpt lat="43.6205717" lon="11.4578767"><ele>138.0</ele><time>2026-03-22T11:22:07.225Z</time></trkpt><trkpt lat="43.6206867" lon="11.457965"><ele>136.5</ele><time>2026-03-22T11:22:08.225Z</time></trkpt><trkpt lat="43.62081" lon="11.458035"><ele>135.0</ele><time>2026-03-22T11:22:09.225Z</time></trkpt><trkpt lat="43.6209417" lon="11.4581033"><ele>133.5</ele><time>2026-03-22T11:22:10.224Z</time></trkpt><trkpt lat="43.6210717" lon="11.4581683"><ele>132.0</ele><time>2026-03-22T11:22:11.227Z</time></trkpt><trkpt lat="43.6211983" lon="11.4582483"><ele>131.75</ele><time>2026-03-22T11:22:12.225Z</time></trkpt><trkpt lat="43.6213167" lon="11.4583367"><ele>131.5</ele><time>2026-03-22T11:22:13.223Z</time></trkpt><trkpt lat="43.621425" lon="11.4584283"><ele>131.25</ele><time>2026-03-22T11:22:14.225Z</time></trkpt><trkpt lat="43.6215267" lon="11.4585083"><ele>131.0</ele><time>2026-03-22T11:22:15.223Z</time></trkpt><trkpt lat="43.6216183" lon="11.4585733"><ele>131.0</ele><time>2026-03-22T11:22:16.225Z</time></trkpt><trkpt lat="43.62171" lon="11.4586217"><ele>131.0</ele><time>2026-03-22T11:22:17.224Z</time></trkpt><trkpt lat="43.6217983" lon="11.4586617"><ele>131.0</ele><time>2026-03-22T11:22:18.225Z</time></trkpt><trkpt lat="43.6218833" lon="11.4587117"><ele>131.0</ele><time>2026-03-22T11:22:19.226Z</time></trkpt><trkpt lat="43.6219567" lon="11.4587817"><ele>131.0</ele><time>2026-03-22T11:22:20.226Z</time></trkpt><trkpt lat="43.622015" lon="11.4588683"><ele>130.5</ele><time>2026-03-22T11:22:21.225Z</time></trkpt><trkpt lat="43.62205" lon="11.45896"><ele>130.0</ele><time>2026-03-22T11:22:22.225Z</time></trkpt><trkpt lat="43.6220633" lon="11.45907"><ele>129.5</ele><time>2026-03-22T11:22:23.225Z</time></trkpt><trkpt lat="43.622065" lon="11.4591883"><ele>129.0</ele><time>2026-03-22T11:22:24.225Z</time></trkpt><trkpt lat="43.62207" lon="11.4593083"><ele>128.5</ele><time>2026-03-22T11:22:25.225Z</time></trkpt><trkpt lat="43.6220817" lon="11.45943"><ele>128.0</ele><time>2026-03-22T11:22:26.226Z</time></trkpt><trkpt lat="43.6221033" lon="11.4595483"><ele>127.83333333333333</ele><time>2026-03-22T11:22:27.227Z</time></trkpt><trkpt lat="43.6221417" lon="11.45966"><ele>127.66666666666666</ele><time>2026-03-22T11:22:28.225Z</time></trkpt><trkpt lat="43.62218" lon="11.4597683"><ele>127.5</ele><time>2026-03-22T11:22:29.227Z</time></trkpt><trkpt lat="43.6222167" lon="11.45988"><ele>127.33333333333334</ele><time>2026-03-22T11:22:30.225Z</time></trkpt><trkpt lat="43.6222533" lon="11.4599933"><ele>127.16666666666667</ele><time>2026-03-22T11:22:31.226Z</time></trkpt><trkpt lat="43.622285" lon="11.460105"><ele>127.0</ele><time>2026-03-22T11:22:32.224Z</time></trkpt><trkpt lat="43.622305" lon="11.46022"><ele>127.00000000000001</ele><time>2026-03-22T11:22:33.224Z</time></trkpt><trkpt lat="43.622315" lon="11.4603333"><ele>127.0</ele><time>2026-03-22T11:22:34.223Z</time></trkpt><trkpt lat="43.6223267" lon="11.4604433"><ele>127.0</ele><time>2026-03-22T11:22:35.224Z</time></trkpt><trkpt lat="43.622335" lon="11.46055"><ele>127.0</ele><time>2026-03-22T11:22:36.223Z</time></trkpt><trkpt lat="43.6223433" lon="11.46065"><ele>127.00000000000001</ele><time>2026-03-22T11:22:37.225Z</time></trkpt><trkpt lat="43.6223617" lon="11.4607483"><ele>127.0</ele><time>2026-03-22T11:22:38.227Z</time></trkpt><trkpt lat="43.622375" lon="11.46085"><ele>127.16666666666667</ele><time>2026-03-22T11:22:39.225Z</time></trkpt><trkpt lat="43.6223983" lon="11.4609517"><ele>127.33333333333334</ele><time>2026-03-22T11:22:40.224Z</time></trkpt><trkpt lat="43.6224333" lon="11.4610483"><ele>127.5</ele><time>2026-03-22T11:22:41.224Z</time></trkpt><trkpt lat="43.6224683" lon="11.461145"><ele>127.66666666666666</ele><time>2026-03-22T11:22:42.225Z</time></trkpt><trkpt lat="43.6225083" lon="11.4612433"><ele>127.83333333333333</ele><time>2026-03-22T11:22:43.225Z</time></trkpt><trkpt lat="43.6225433" lon="11.46134"><ele>128.0</ele><time>2026-03-22T11:22:44.226Z</time></trkpt><trkpt lat="43.62258" lon="11.4614383"><ele>127.66666666666666</ele><time>2026-03-22T11:22:45.225Z</time></trkpt><trkpt lat="43.62262" lon="11.4615367"><ele>127.33333333333333</ele><time>2026-03-22T11:22:46.226Z</time></trkpt><trkpt lat="43.622665" lon="11.461635"><ele>127.0</ele><time>2026-03-22T11:22:47.225Z</time></trkpt><trkpt lat="43.6227083" lon="11.461735"><ele>126.66666666666666</ele><time>2026-03-22T11:22:48.225Z</time></trkpt><trkpt lat="43.6227483" lon="11.4618333"><ele>126.33333333333333</ele><time>2026-03-22T11:22:49.227Z</time></trkpt><trkpt lat="43.62279" lon="11.4619333"><ele>126.0</ele><time>2026-03-22T11:22:50.226Z</time></trkpt><trkpt lat="43.6228267" lon="11.4620333"><ele>126.16666666666667</ele><time>2026-03-22T11:22:51.225Z</time></trkpt><trkpt lat="43.6228617" lon="11.4621367"><ele>126.33333333333334</ele><time>2026-03-22T11:22:52.225Z</time></trkpt><trkpt lat="43.6229017" lon="11.4622367"><ele>126.5</ele><time>2026-03-22T11:22:53.224Z</time></trkpt><trkpt lat="43.6229383" lon="11.4623383"><ele>126.66666666666667</ele><time>2026-03-22T11:22:54.226Z</time></trkpt><trkpt lat="43.62298" lon="11.4624383"><ele>126.83333333333334</ele><time>2026-03-22T11:22:55.225Z</time></trkpt><trkpt lat="43.6230183" lon="11.4625383"><ele>127.0</ele><time>2026-03-22T11:22:56.225Z</time></trkpt><trkpt lat="43.6230583" lon="11.462635"><ele>127.00000000000001</ele><time>2026-03-22T11:22:57.225Z</time></trkpt><trkpt lat="43.6231" lon="11.4627267"><ele>127.0</ele><time>2026-03-22T11:22:58.226Z</time></trkpt><trkpt lat="43.6231433" lon="11.462815"><ele>127.0</ele><time>2026-03-22T11:22:59.225Z</time></trkpt><trkpt lat="43.623185" lon="11.4628933"><ele>127.0</ele><time>2026-03-22T11:23:00.226Z</time></trkpt><trkpt lat="43.6232217" lon="11.462975"><ele>127.00000000000001</ele><time>2026-03-22T11:23:01.224Z</time></trkpt><trkpt lat="43.62326" lon="11.46305"><ele>127.0</ele><time>2026-03-22T11:23:02.226Z</time></trkpt><trkpt lat="43.62332" lon="11.4631567"><ele>126.83333333333334</ele><time>2026-03-22T11:23:04.224Z</time></trkpt><trkpt lat="43.6233767" lon="11.4632383"><ele>126.66666666666667</ele><time>2026-03-22T11:23:07.222Z</time></trkpt><trkpt lat="43.6234783" lon="11.4632217"><ele>126.5</ele><time>2026-03-22T11:26:21.226Z</time></trkpt><trkpt lat="43.623535" lon="11.4632717"><ele>126.33333333333334</ele><time>2026-03-22T11:28:34.221Z</time></trkpt><trkpt lat="43.6235633" lon="11.46336"><ele>126.16666666666667</ele><time>2026-03-22T11:28:37.223Z</time></trkpt><trkpt lat="43.62359" lon="11.4634667"><ele>126.0</ele><time>2026-03-22T11:28:43.223Z</time></trkpt><trkpt lat="43.623665" lon="11.4634833"><ele>126.0</ele><time>2026-03-22T11:28:46.224Z</time></trkpt><trkpt lat="43.6237383" lon="11.46348"><ele>126.0</ele><time>2026-03-22T11:28:48.225Z</time></trkpt><trkpt lat="43.623835" lon="11.4634633"><ele>126.0</ele><time>2026-03-22T11:28:50.225Z</time></trkpt><trkpt lat="43.623945" lon="11.4634433"><ele>126.0</ele><time>2026-03-22T11:28:52.223Z</time></trkpt><trkpt lat="43.6240717" lon="11.4634167"><ele>126.0</ele><time>2026-03-22T11:28:54.224Z</time></trkpt><trkpt lat="43.62414" lon="11.4634017"><ele>126.0</ele><time>2026-03-22T11:28:55.223Z</time></trkpt><trkpt lat="43.6242117" lon="11.4633883"><ele>126.0</ele><time>2026-03-22T11:28:56.225Z</time></trkpt><trkpt lat="43.6242833" lon="11.4633733"><ele>126.0</ele><time>2026-03-22T11:28:57.224Z</time></trkpt><trkpt lat="43.6243583" lon="11.463355"><ele>126.0</ele><time>2026-03-22T11:28:58.224Z</time></trkpt><trkpt lat="43.624435" lon="11.46334"><ele>126.0</ele><time>2026-03-22T11:28:59.225Z</time></trkpt><trkpt lat="43.62451" lon="11.4633283"><ele>126.0</ele><time>2026-03-22T11:29:00.229Z</time></trkpt><trkpt lat="43.6245883" lon="11.4633117"><ele>125.83333333333333</ele><time>2026-03-22T11:29:01.225Z</time></trkpt><trkpt lat="43.6246633" lon="11.4632983"><ele>125.66666666666666</ele><time>2026-03-22T11:29:02.225Z</time></trkpt><trkpt lat="43.6247367" lon="11.463285"><ele>125.5</ele><time>2026-03-22T11:29:03.224Z</time></trkpt><trkpt lat="43.6248117" lon="11.46327"><ele>125.33333333333333</ele><time>2026-03-22T11:29:04.224Z</time></trkpt><trkpt lat="43.6248867" lon="11.4632517"><ele>125.16666666666666</ele><time>2026-03-22T11:29:05.227Z</time></trkpt><trkpt lat="43.6249633" lon="11.4632367"><ele>125.0</ele><time>2026-03-22T11:29:06.224Z</time></trkpt><trkpt lat="43.6250383" lon="11.4632183"><ele>124.99999999999999</ele><time>2026-03-22T11:29:07.224Z</time></trkpt><trkpt lat="43.62511" lon="11.4632033"><ele>125.0</ele><time>2026-03-22T11:29:08.225Z</time></trkpt><trkpt lat="43.6251817" lon="11.4631883"><ele>125.0</ele><time>2026-03-22T11:29:09.223Z</time></trkpt><trkpt lat="43.6252483" lon="11.4631767"><ele>125.0</ele><time>2026-03-22T11:29:10.224Z</time></trkpt><trkpt lat="43.6253117" lon="11.4631733"><ele>124.99999999999999</ele><time>2026-03-22T11:29:11.225Z</time></trkpt><trkpt lat="43.6254317" lon="11.463185"><ele>125.0</ele><time>2026-03-22T11:29:13.229Z</time></trkpt><trkpt lat="43.62553" lon="11.4632517"><ele>124.5</ele><time>2026-03-22T11:29:15.224Z</time></trkpt><trkpt lat="43.6255783" lon="11.4633783"><ele>124.0</ele><time>2026-03-22T11:29:17.223Z</time></trkpt><trkpt lat="43.6255617" lon="11.4635333"><ele>123.5</ele><time>2026-03-22T11:29:19.223Z</time></trkpt><trkpt lat="43.6255067" lon="11.463675"><ele>123.0</ele><time>2026-03-22T11:29:21.225Z</time></trkpt><trkpt lat="43.6254383" lon="11.4638217"><ele>123.0</ele><time>2026-03-22T11:29:23.224Z</time></trkpt><trkpt lat="43.6254033" lon="11.4639017"><ele>123.0</ele><time>2026-03-22T11:29:24.226Z</time></trkpt><trkpt lat="43.6253683" lon="11.4639817"><ele>123.0</ele><time>2026-03-22T11:29:25.224Z</time></trkpt><trkpt lat="43.6253367" lon="11.46406"><ele>123.0</ele><time>2026-03-22T11:29:26.225Z</time></trkpt><trkpt lat="43.6252833" lon="11.4642133"><ele>123.0</ele><time>2026-03-22T11:29:28.225Z</time></trkpt><trkpt lat="43.6252283" lon="11.4643617"><ele>123.0</ele><time>2026-03-22T11:29:30.225Z</time></trkpt><trkpt lat="43.6251733" lon="11.4645"><ele>123.33333333333333</ele><time>2026-03-22T11:29:32.225Z</time></trkpt><trkpt lat="43.6251233" lon="11.4646517"><ele>123.66666666666666</ele><time>2026-03-22T11:29:34.224Z</time></trkpt><trkpt lat="43.6250783" lon="11.4648"><ele>124.0</ele><time>2026-03-22T11:29:36.225Z</time></trkpt><trkpt lat="43.6250517" lon="11.46488"><ele>124.33333333333333</ele><time>2026-03-22T11:29:37.225Z</time></trkpt><trkpt lat="43.6250217" lon="11.4649633"><ele>124.66666666666666</ele><time>2026-03-22T11:29:38.225Z</time></trkpt><trkpt lat="43.62499" lon="11.465055"><ele>125.0</ele><time>2026-03-22T11:29:39.224Z</time></trkpt><trkpt lat="43.6249583" lon="11.4651483"><ele>124.99999999999999</ele><time>2026-03-22T11:29:40.226Z</time></trkpt><trkpt lat="43.624925" lon="11.4652467"><ele>125.0</ele><time>2026-03-22T11:29:41.224Z</time></trkpt><trkpt lat="43.6248917" lon="11.465345"><ele>125.0</ele><time>2026-03-22T11:29:42.226Z</time></trkpt><trkpt lat="43.6248567" lon="11.465445"><ele>125.0</ele><time>2026-03-22T11:29:43.224Z</time></trkpt><trkpt lat="43.6248217" lon="11.465545"><ele>124.99999999999999</ele><time>2026-03-22T11:29:44.225Z</time></trkpt><trkpt lat="43.6247867" lon="11.46565"><ele>125.0</ele><time>2026-03-22T11:29:45.223Z</time></trkpt><trkpt lat="43.6247533" lon="11.4657533"><ele>124.83333333333333</ele><time>2026-03-22T11:29:46.225Z</time></trkpt><trkpt lat="43.6247217" lon="11.46586"><ele>124.66666666666666</ele><time>2026-03-22T11:29:47.225Z</time></trkpt><trkpt lat="43.6246883" lon="11.465965"><ele>124.5</ele><time>2026-03-22T11:29:48.226Z</time></trkpt><trkpt lat="43.6246567" lon="11.4660667"><ele>124.33333333333334</ele><time>2026-03-22T11:29:49.223Z</time></trkpt><trkpt lat="43.6246233" lon="11.46617"><ele>124.16666666666667</ele><time>2026-03-22T11:29:50.225Z</time></trkpt><trkpt lat="43.6245883" lon="11.4662683"><ele>124.0</ele><time>2026-03-22T11:29:51.224Z</time></trkpt><trkpt lat="43.6245567" lon="11.46637"><ele>123.83333333333334</ele><time>2026-03-22T11:29:52.225Z</time></trkpt><trkpt lat="43.6245183" lon="11.4664667"><ele>123.66666666666667</ele><time>2026-03-22T11:29:53.225Z</time></trkpt><trkpt lat="43.624475" lon="11.4665583"><ele>123.5</ele><time>2026-03-22T11:29:54.225Z</time></trkpt><trkpt lat="43.6244233" lon="11.4666317"><ele>123.33333333333334</ele><time>2026-03-22T11:29:55.224Z</time></trkpt><trkpt lat="43.62436" lon="11.4666817"><ele>123.16666666666667</ele><time>2026-03-22T11:29:56.224Z</time></trkpt><trkpt lat="43.6242983" lon="11.4667167"><ele>123.0</ele><time>2026-03-22T11:29:57.226Z</time></trkpt><trkpt lat="43.6242217" lon="11.4667733"><ele>123.0</ele><time>2026-03-22T11:29:59.224Z</time></trkpt><trkpt lat="43.624235" lon="11.4668867"><ele>123.00000000000001</ele><time>2026-03-22T11:30:02.225Z</time></trkpt><trkpt lat="43.6243" lon="11.4669383"><ele>123.00000000000001</ele><time>2026-03-22T11:30:04.226Z</time></trkpt><trkpt lat="43.6243817" lon="11.466985"><ele>123.0</ele><time>2026-03-22T11:30:06.228Z</time></trkpt><trkpt lat="43.6244967" lon="11.4670183"><ele>123.0</ele><time>2026-03-22T11:30:08.224Z</time></trkpt><trkpt lat="43.6246183" lon="11.46708"><ele>122.57142857142858</ele><time>2026-03-22T11:30:10.224Z</time></trkpt><trkpt lat="43.6246817" lon="11.46712"><ele>122.14285714285714</ele><time>2026-03-22T11:30:11.228Z</time></trkpt><trkpt lat="43.6247483" lon="11.4671617"><ele>121.71428571428572</ele><time>2026-03-22T11:30:12.224Z</time></trkpt><trkpt lat="43.62482" lon="11.4672017"><ele>121.28571428571429</ele><time>2026-03-22T11:30:13.225Z</time></trkpt><trkpt lat="43.624895" lon="11.4672367"><ele>120.85714285714286</ele><time>2026-03-22T11:30:14.225Z</time></trkpt><trkpt lat="43.6249667" lon="11.467265"><ele>120.42857142857143</ele><time>2026-03-22T11:30:15.226Z</time></trkpt><trkpt lat="43.62503" lon="11.4672983"><ele>120.0</ele><time>2026-03-22T11:30:16.225Z</time></trkpt><trkpt lat="43.625095" lon="11.4673333"><ele>120.0</ele><time>2026-03-22T11:30:17.224Z</time></trkpt><trkpt lat="43.625165" lon="11.4673783"><ele>120.0</ele><time>2026-03-22T11:30:18.226Z</time></trkpt><trkpt lat="43.6252317" lon="11.4674233"><ele>120.0</ele><time>2026-03-22T11:30:19.224Z</time></trkpt><trkpt lat="43.6252983" lon="11.4674617"><ele>120.0</ele><time>2026-03-22T11:30:20.224Z</time></trkpt><trkpt lat="43.6253617" lon="11.4675017"><ele>120.0</ele><time>2026-03-22T11:30:21.226Z</time></trkpt><trkpt lat="43.6254283" lon="11.467545"><ele>120.0</ele><time>2026-03-22T11:30:22.223Z</time></trkpt><trkpt lat="43.6254917" lon="11.4675833"><ele>120.0</ele><time>2026-03-22T11:30:23.224Z</time></trkpt><trkpt lat="43.6255583" lon="11.4676267"><ele>120.14285714285714</ele><time>2026-03-22T11:30:24.229Z</time></trkpt><trkpt lat="43.6256217" lon="11.467675"><ele>120.28571428571428</ele><time>2026-03-22T11:30:25.224Z</time></trkpt><trkpt lat="43.6256767" lon="11.4677367"><ele>120.42857142857142</ele><time>2026-03-22T11:30:26.224Z</time></trkpt><trkpt lat="43.625725" lon="11.4678067"><ele>120.57142857142857</ele><time>2026-03-22T11:30:27.225Z</time></trkpt><trkpt lat="43.6257633" lon="11.4678917"><ele>120.7142857142857</ele><time>2026-03-22T11:30:28.224Z</time></trkpt><trkpt lat="43.625795" lon="11.4679883"><ele>120.85714285714285</ele><time>2026-03-22T11:30:29.225Z</time></trkpt><trkpt lat="43.6258183" lon="11.46809"><ele>121.0</ele><time>2026-03-22T11:30:30.224Z</time></trkpt><trkpt lat="43.6258283" lon="11.4682"><ele>121.00000000000001</ele><time>2026-03-22T11:30:31.226Z</time></trkpt><trkpt lat="43.6258283" lon="11.468315"><ele>121.0</ele><time>2026-03-22T11:30:32.225Z</time></trkpt><trkpt lat="43.6258333" lon="11.4684383"><ele>121.0</ele><time>2026-03-22T11:30:33.226Z</time></trkpt><trkpt lat="43.6258433" lon="11.4685583"><ele>121.0</ele><time>2026-03-22T11:30:34.224Z</time></trkpt><trkpt lat="43.6258567" lon="11.46868"><ele>121.00000000000001</ele><time>2026-03-22T11:30:35.228Z</time></trkpt><trkpt lat="43.625875" lon="11.468805"><ele>121.0</ele><time>2026-03-22T11:30:36.225Z</time></trkpt><trkpt lat="43.6259017" lon="11.4689317"><ele>120.8</ele><time>2026-03-22T11:30:37.226Z</time></trkpt><trkpt lat="43.6259317" lon="11.4690583"><ele>120.6</ele><time>2026-03-22T11:30:38.225Z</time></trkpt><trkpt lat="43.6259617" lon="11.4691867"><ele>120.4</ele><time>2026-03-22T11:30:39.224Z</time></trkpt><trkpt lat="43.6259983" lon="11.469315"><ele>120.2</ele><time>2026-03-22T11:30:40.223Z</time></trkpt><trkpt lat="43.6260333" lon="11.46945"><ele>120.0</ele><time>2026-03-22T11:30:41.225Z</time></trkpt><trkpt lat="43.6260583" lon="11.4695883"><ele>120.2</ele><time>2026-03-22T11:30:42.225Z</time></trkpt><trkpt lat="43.626055" lon="11.469735"><ele>120.4</ele><time>2026-03-22T11:30:43.224Z</time></trkpt><trkpt lat="43.6260683" lon="11.4698617"><ele>120.6</ele><time>2026-03-22T11:30:44.225Z</time></trkpt><trkpt lat="43.626105" lon="11.469975"><ele>120.8</ele><time>2026-03-22T11:30:45.224Z</time></trkpt><trkpt lat="43.6261433" lon="11.47009"><ele>121.0</ele><time>2026-03-22T11:30:46.225Z</time></trkpt><trkpt lat="43.6261883" lon="11.470205"><ele>121.00000000000001</ele><time>2026-03-22T11:30:47.225Z</time></trkpt><trkpt lat="43.6262183" lon="11.4703217"><ele>121.0</ele><time>2026-03-22T11:30:48.224Z</time></trkpt><trkpt lat="43.6262383" lon="11.47044"><ele>121.0</ele><time>2026-03-22T11:30:49.224Z</time></trkpt><trkpt lat="43.626255" lon="11.47056"><ele>121.0</ele><time>2026-03-22T11:30:50.225Z</time></trkpt><trkpt lat="43.626275" lon="11.4706783"><ele>121.00000000000001</ele><time>2026-03-22T11:30:51.229Z</time></trkpt><trkpt lat="43.626285" lon="11.470795"><ele>121.0</ele><time>2026-03-22T11:30:52.223Z</time></trkpt><trkpt lat="43.626295" lon="11.4709133"><ele>121.00000000000001</ele><time>2026-03-22T11:30:53.226Z</time></trkpt><trkpt lat="43.6262983" lon="11.47103"><ele>121.0</ele><time>2026-03-22T11:30:54.224Z</time></trkpt><trkpt lat="43.6263017" lon="11.4711417"><ele>121.0</ele><time>2026-03-22T11:30:55.225Z</time></trkpt><trkpt lat="43.6263017" lon="11.4712517"><ele>121.0</ele><time>2026-03-22T11:30:56.225Z</time></trkpt><trkpt lat="43.6262917" lon="11.4713683"><ele>121.00000000000001</ele><time>2026-03-22T11:30:57.224Z</time></trkpt><trkpt lat="43.626285" lon="11.4714817"><ele>121.0</ele><time>2026-03-22T11:30:58.225Z</time></trkpt><trkpt lat="43.6262733" lon="11.471595"><ele>121.00000000000001</ele><time>2026-03-22T11:30:59.224Z</time></trkpt><trkpt lat="43.62626" lon="11.4717133"><ele>121.0</ele><time>2026-03-22T11:31:00.224Z</time></trkpt><trkpt lat="43.6262367" lon="11.471835"><ele>121.0</ele><time>2026-03-22T11:31:01.225Z</time></trkpt><trkpt lat="43.6262117" lon="11.4719517"><ele>121.0</ele><time>2026-03-22T11:31:02.224Z</time></trkpt><trkpt lat="43.62618" lon="11.4720667"><ele>121.00000000000001</ele><time>2026-03-22T11:31:03.224Z</time></trkpt><trkpt lat="43.62614" lon="11.4721833"><ele>121.0</ele><time>2026-03-22T11:31:04.225Z</time></trkpt><trkpt lat="43.6260967" lon="11.4722983"><ele>121.19999999999999</ele><time>2026-03-22T11:31:05.224Z</time></trkpt><trkpt lat="43.626055" lon="11.47241"><ele>121.39999999999999</ele><time>2026-03-22T11:31:06.227Z</time></trkpt><trkpt lat="43.6260067" lon="11.4725167"><ele>121.6</ele><time>2026-03-22T11:31:07.226Z</time></trkpt><trkpt lat="43.625955" lon="11.47262"><ele>121.8</ele><time>2026-03-22T11:31:08.225Z</time></trkpt><trkpt lat="43.6259067" lon="11.4727233"><ele>122.0</ele><time>2026-03-22T11:31:09.225Z</time></trkpt><trkpt lat="43.6258533" lon="11.47283"><ele>121.99999999999999</ele><time>2026-03-22T11:31:10.226Z</time></trkpt><trkpt lat="43.6258067" lon="11.4729383"><ele>122.0</ele><time>2026-03-22T11:31:11.224Z</time></trkpt><trkpt lat="43.6257583" lon="11.4730417"><ele>122.0</ele><time>2026-03-22T11:31:12.225Z</time></trkpt><trkpt lat="43.6257117" lon="11.4731433"><ele>122.0</ele><time>2026-03-22T11:31:13.228Z</time></trkpt><trkpt lat="43.625665" lon="11.4732467"><ele>121.99999999999999</ele><time>2026-03-22T11:31:14.228Z</time></trkpt><trkpt lat="43.6256183" lon="11.4733467"><ele>122.0</ele><time>2026-03-22T11:31:15.223Z</time></trkpt><trkpt lat="43.62557" lon="11.4734467"><ele>122.16666666666666</ele><time>2026-03-22T11:31:16.225Z</time></trkpt><trkpt lat="43.6255167" lon="11.4735467"><ele>122.33333333333333</ele><time>2026-03-22T11:31:17.225Z</time></trkpt><trkpt lat="43.6254667" lon="11.4736483"><ele>122.5</ele><time>2026-03-22T11:31:18.23Z</time></trkpt><trkpt lat="43.6254183" lon="11.47375"><ele>122.66666666666666</ele><time>2026-03-22T11:31:19.224Z</time></trkpt><trkpt lat="43.6253733" lon="11.47385"><ele>122.83333333333333</ele><time>2026-03-22T11:31:20.226Z</time></trkpt><trkpt lat="43.625325" lon="11.4739483"><ele>123.0</ele><time>2026-03-22T11:31:21.224Z</time></trkpt><trkpt lat="43.6252733" lon="11.4740483"><ele>123.0</ele><time>2026-03-22T11:31:22.227Z</time></trkpt><trkpt lat="43.6252233" lon="11.4741533"><ele>123.0</ele><time>2026-03-22T11:31:23.225Z</time></trkpt><trkpt lat="43.6251767" lon="11.4742583"><ele>123.0</ele><time>2026-03-22T11:31:24.226Z</time></trkpt><trkpt lat="43.625125" lon="11.4743617"><ele>123.0</ele><time>2026-03-22T11:31:25.224Z</time></trkpt><trkpt lat="43.625075" lon="11.4744633"><ele>123.0</ele><time>2026-03-22T11:31:26.225Z</time></trkpt><trkpt lat="43.62503" lon="11.4745633"><ele>123.0</ele><time>2026-03-22T11:31:27.225Z</time></trkpt><trkpt lat="43.6249817" lon="11.4746617"><ele>123.0</ele><time>2026-03-22T11:31:28.224Z</time></trkpt><trkpt lat="43.6249383" lon="11.4747633"><ele>123.0</ele><time>2026-03-22T11:31:29.226Z</time></trkpt><trkpt lat="43.624895" lon="11.47486"><ele>123.0</ele><time>2026-03-22T11:31:30.225Z</time></trkpt><trkpt lat="43.62485" lon="11.4749567"><ele>123.0</ele><time>2026-03-22T11:31:31.228Z</time></trkpt><trkpt lat="43.6248033" lon="11.475055"><ele>123.0</ele><time>2026-03-22T11:31:32.224Z</time></trkpt><trkpt lat="43.6247583" lon="11.4751517"><ele>123.0</ele><time>2026-03-22T11:31:33.224Z</time></trkpt><trkpt lat="43.6247133" lon="11.4752483"><ele>123.0</ele><time>2026-03-22T11:31:34.226Z</time></trkpt><trkpt lat="43.624665" lon="11.4753467"><ele>123.0</ele><time>2026-03-22T11:31:35.224Z</time></trkpt><trkpt lat="43.62462" lon="11.475445"><ele>123.0</ele><time>2026-03-22T11:31:36.226Z</time></trkpt><trkpt lat="43.6245733" lon="11.475545"><ele>123.0</ele><time>2026-03-22T11:31:37.224Z</time></trkpt><trkpt lat="43.6245267" lon="11.4756467"><ele>123.0</ele><time>2026-03-22T11:31:38.226Z</time></trkpt><trkpt lat="43.6244783" lon="11.475745"><ele>123.0</ele><time>2026-03-22T11:31:39.224Z</time></trkpt><trkpt lat="43.6244283" lon="11.4758433"><ele>123.0</ele><time>2026-03-22T11:31:40.224Z</time></trkpt><trkpt lat="43.6243783" lon="11.4759417"><ele>123.0</ele><time>2026-03-22T11:31:41.225Z</time></trkpt><trkpt lat="43.6243283" lon="11.4760333"><ele>123.0</ele><time>2026-03-22T11:31:42.225Z</time></trkpt><trkpt lat="43.6242783" lon="11.4761283"><ele>123.0</ele><time>2026-03-22T11:31:43.224Z</time></trkpt><trkpt lat="43.6242267" lon="11.4762233"><ele>123.0</ele><time>2026-03-22T11:31:44.226Z</time></trkpt><trkpt lat="43.6241733" lon="11.4763183"><ele>123.0</ele><time>2026-03-22T11:31:45.224Z</time></trkpt><trkpt lat="43.6241183" lon="11.4764117"><ele>122.83333333333333</ele><time>2026-03-22T11:31:46.224Z</time></trkpt><trkpt lat="43.6240567" lon="11.476505"><ele>122.66666666666666</ele><time>2026-03-22T11:31:47.228Z</time></trkpt><trkpt lat="43.6239983" lon="11.4766"><ele>122.5</ele><time>2026-03-22T11:31:48.224Z</time></trkpt><trkpt lat="43.6239367" lon="11.4766933"><ele>122.33333333333333</ele><time>2026-03-22T11:31:49.224Z</time></trkpt><trkpt lat="43.6238783" lon="11.476785"><ele>122.16666666666666</ele><time>2026-03-22T11:31:50.224Z</time></trkpt><trkpt lat="43.62382" lon="11.476875"><ele>122.0</ele><time>2026-03-22T11:31:51.225Z</time></trkpt><trkpt lat="43.62376" lon="11.4769617"><ele>121.99999999999999</ele><time>2026-03-22T11:31:52.224Z</time></trkpt><trkpt lat="43.6236983" lon="11.4770467"><ele>122.0</ele><time>2026-03-22T11:31:53.225Z</time></trkpt><trkpt lat="43.6236367" lon="11.4771267"><ele>122.0</ele><time>2026-03-22T11:31:54.227Z</time></trkpt><trkpt lat="43.6235783" lon="11.4772083"><ele>122.0</ele><time>2026-03-22T11:31:55.225Z</time></trkpt><trkpt lat="43.623515" lon="11.4772917"><ele>121.99999999999999</ele><time>2026-03-22T11:31:56.227Z</time></trkpt><trkpt lat="43.6234517" lon="11.477375"><ele>122.0</ele><time>2026-03-22T11:31:57.224Z</time></trkpt><trkpt lat="43.6233883" lon="11.477455"><ele>122.19999999999999</ele><time>2026-03-22T11:31:58.224Z</time></trkpt><trkpt lat="43.6233167" lon="11.477535"><ele>122.39999999999999</ele><time>2026-03-22T11:31:59.224Z</time></trkpt><trkpt lat="43.6232483" lon="11.4776167"><ele>122.60000000000001</ele><time>2026-03-22T11:32:00.224Z</time></trkpt><trkpt lat="43.6231783" lon="11.4776967"><ele>122.80000000000001</ele><time>2026-03-22T11:32:01.224Z</time></trkpt><trkpt lat="43.623105" lon="11.477775"><ele>123.0</ele><time>2026-03-22T11:32:02.225Z</time></trkpt><trkpt lat="43.6230283" lon="11.4778517"><ele>123.0</ele><time>2026-03-22T11:32:03.226Z</time></trkpt><trkpt lat="43.6229533" lon="11.4779267"><ele>123.0</ele><time>2026-03-22T11:32:04.225Z</time></trkpt><trkpt lat="43.6228783" lon="11.478"><ele>123.0</ele><time>2026-03-22T11:32:05.225Z</time></trkpt><trkpt lat="43.6228133" lon="11.4780683"><ele>123.0</ele><time>2026-03-22T11:32:06.225Z</time></trkpt><trkpt lat="43.6227467" lon="11.478135"><ele>123.0</ele><time>2026-03-22T11:32:07.224Z</time></trkpt><trkpt lat="43.6226933" lon="11.478195"><ele>123.0</ele><time>2026-03-22T11:32:08.225Z</time></trkpt><trkpt lat="43.6226333" lon="11.4782417"><ele>123.0</ele><time>2026-03-22T11:32:09.225Z</time></trkpt><trkpt lat="43.6225233" lon="11.47831"><ele>123.00000000000001</ele><time>2026-03-22T11:32:11.225Z</time></trkpt><trkpt lat="43.6224" lon="11.4783333"><ele>123.00000000000001</ele><time>2026-03-22T11:32:13.225Z</time></trkpt><trkpt lat="43.6223367" lon="11.4783483"><ele>123.0</ele><time>2026-03-22T11:32:14.226Z</time></trkpt><trkpt lat="43.6222767" lon="11.4783767"><ele>123.0</ele><time>2026-03-22T11:32:15.224Z</time></trkpt><trkpt lat="43.6222017" lon="11.4784933"><ele>123.0</ele><time>2026-03-22T11:32:17.224Z</time></trkpt><trkpt lat="43.62224" lon="11.478655"><ele>123.0</ele><time>2026-03-22T11:32:19.224Z</time></trkpt><trkpt lat="43.62228" lon="11.4787267"><ele>123.0</ele><time>2026-03-22T11:32:20.226Z</time></trkpt><trkpt lat="43.6223583" lon="11.4788567"><ele>123.0</ele><time>2026-03-22T11:32:22.225Z</time></trkpt><trkpt lat="43.6223983" lon="11.4789283"><ele>123.0</ele><time>2026-03-22T11:32:23.224Z</time></trkpt><trkpt lat="43.62244" lon="11.4789983"><ele>123.0</ele><time>2026-03-22T11:32:24.224Z</time></trkpt><trkpt lat="43.6224883" lon="11.4790733"><ele>122.85714285714288</ele><time>2026-03-22T11:32:25.226Z</time></trkpt><trkpt lat="43.6225317" lon="11.4791517"><ele>122.71428571428572</ele><time>2026-03-22T11:32:26.225Z</time></trkpt><trkpt lat="43.62258" lon="11.4792283"><ele>122.57142857142857</ele><time>2026-03-22T11:32:27.226Z</time></trkpt><trkpt lat="43.6226317" lon="11.4793017"><ele>122.42857142857143</ele><time>2026-03-22T11:32:28.225Z</time></trkpt><trkpt lat="43.6226733" lon="11.4793767"><ele>122.28571428571428</ele><time>2026-03-22T11:32:29.224Z</time></trkpt><trkpt lat="43.6227117" lon="11.4794483"><ele>122.14285714285712</ele><time>2026-03-22T11:32:30.224Z</time></trkpt><trkpt lat="43.6227567" lon="11.4795233"><ele>121.99999999999999</ele><time>2026-03-22T11:32:31.225Z</time></trkpt><trkpt lat="43.6228" lon="11.4795967"><ele>121.7142857142857</ele><time>2026-03-22T11:32:32.225Z</time></trkpt><trkpt lat="43.6228467" lon="11.47967"><ele>121.42857142857142</ele><time>2026-03-22T11:32:33.223Z</time></trkpt><trkpt lat="43.6228933" lon="11.4797483"><ele>121.14285714285714</ele><time>2026-03-22T11:32:34.223Z</time></trkpt><trkpt lat="43.62294" lon="11.4798283"><ele>120.85714285714285</ele><time>2026-03-22T11:32:35.225Z</time></trkpt><trkpt lat="43.62299" lon="11.479905"><ele>120.57142857142856</ele><time>2026-03-22T11:32:36.23Z</time></trkpt><trkpt lat="43.6230383" lon="11.4799767"><ele>120.28571428571429</ele><time>2026-03-22T11:32:37.224Z</time></trkpt><trkpt lat="43.623085" lon="11.48005"><ele>120.0</ele><time>2026-03-22T11:32:38.226Z</time></trkpt><trkpt lat="43.6231333" lon="11.4801233"><ele>120.0</ele><time>2026-03-22T11:32:39.225Z</time></trkpt><trkpt lat="43.6231833" lon="11.4801983"><ele>120.0</ele><time>2026-03-22T11:32:40.225Z</time></trkpt><trkpt lat="43.6232283" lon="11.4802717"><ele>120.0</ele><time>2026-03-22T11:32:41.224Z</time></trkpt><trkpt lat="43.6232783" lon="11.4803483"><ele>120.0</ele><time>2026-03-22T11:32:42.224Z</time></trkpt><trkpt lat="43.62332" lon="11.4804267"><ele>120.0</ele><time>2026-03-22T11:32:43.227Z</time></trkpt><trkpt lat="43.623365" lon="11.48051"><ele>120.0</ele><time>2026-03-22T11:32:44.226Z</time></trkpt><trkpt lat="43.623415" lon="11.4805967"><ele>120.0</ele><time>2026-03-22T11:32:45.227Z</time></trkpt><trkpt lat="43.6234667" lon="11.4806917"><ele>120.5</ele><time>2026-03-22T11:32:46.225Z</time></trkpt><trkpt lat="43.6235217" lon="11.4807817"><ele>121.0</ele><time>2026-03-22T11:32:47.224Z</time></trkpt><trkpt lat="43.6235767" lon="11.4808733"><ele>121.5</ele><time>2026-03-22T11:32:48.224Z</time></trkpt><trkpt lat="43.6236333" lon="11.4809567"><ele>122.0</ele><time>2026-03-22T11:32:49.224Z</time></trkpt><trkpt lat="43.6236867" lon="11.4810417"><ele>122.5</ele><time>2026-03-22T11:32:50.225Z</time></trkpt><trkpt lat="43.6237433" lon="11.48113"><ele>123.0</ele><time>2026-03-22T11:32:51.224Z</time></trkpt><trkpt lat="43.6238117" lon="11.4812317"><ele>124.0</ele><time>2026-03-22T11:32:52.224Z</time></trkpt><trkpt lat="43.6238367" lon="11.481355"><ele>125.00000000000001</ele><time>2026-03-22T11:32:53.227Z</time></trkpt><trkpt lat="43.62384" lon="11.4814817"><ele>126.00000000000001</ele><time>2026-03-22T11:32:54.225Z</time></trkpt><trkpt lat="43.6238467" lon="11.4816"><ele>127.0</ele><time>2026-03-22T11:32:55.224Z</time></trkpt><trkpt lat="43.623855" lon="11.48173"><ele>128.0</ele><time>2026-03-22T11:32:56.225Z</time></trkpt><trkpt lat="43.6238817" lon="11.481865"><ele>128.0</ele><time>2026-03-22T11:32:57.224Z</time></trkpt><trkpt lat="43.6239033" lon="11.481975"><ele>127.99999999999999</ele><time>2026-03-22T11:32:58.224Z</time></trkpt><trkpt lat="43.6239167" lon="11.4820867"><ele>128.0</ele><time>2026-03-22T11:32:59.224Z</time></trkpt><trkpt lat="43.62392" lon="11.482185"><ele>128.0</ele><time>2026-03-22T11:33:00.226Z</time></trkpt><trkpt lat="43.62392" lon="11.4822733"><ele>127.99999999999999</ele><time>2026-03-22T11:33:01.223Z</time></trkpt><trkpt lat="43.6239017" lon="11.48236"><ele>128.0</ele><time>2026-03-22T11:33:02.225Z</time></trkpt><trkpt lat="43.6238733" lon="11.4824583"><ele>128.0</ele><time>2026-03-22T11:33:03.229Z</time></trkpt><trkpt lat="43.623845" lon="11.4825533"><ele>127.66666666666666</ele><time>2026-03-22T11:33:04.228Z</time></trkpt><trkpt lat="43.6238017" lon="11.4826433"><ele>127.33333333333333</ele><time>2026-03-22T11:33:05.228Z</time></trkpt><trkpt lat="43.6237533" lon="11.4827433"><ele>127.0</ele><time>2026-03-22T11:33:06.226Z</time></trkpt><trkpt lat="43.623705" lon="11.48284"><ele>126.66666666666666</ele><time>2026-03-22T11:33:07.223Z</time></trkpt><trkpt lat="43.6236533" lon="11.48294"><ele>126.33333333333333</ele><time>2026-03-22T11:33:08.23Z</time></trkpt><trkpt lat="43.623605" lon="11.4830417"><ele>126.0</ele><time>2026-03-22T11:33:09.224Z</time></trkpt><trkpt lat="43.6235533" lon="11.483145"><ele>125.6</ele><time>2026-03-22T11:33:10.224Z</time></trkpt><trkpt lat="43.6235" lon="11.48325"><ele>125.19999999999999</ele><time>2026-03-22T11:33:11.225Z</time></trkpt><trkpt lat="43.6234483" lon="11.4833583"><ele>124.80000000000001</ele><time>2026-03-22T11:33:12.226Z</time></trkpt><trkpt lat="43.6234" lon="11.483465"><ele>124.4</ele><time>2026-03-22T11:33:13.224Z</time></trkpt><trkpt lat="43.6233517" lon="11.4835733"><ele>124.0</ele><time>2026-03-22T11:33:14.225Z</time></trkpt><trkpt lat="43.6233033" lon="11.4836783"><ele>124.0</ele><time>2026-03-22T11:33:15.224Z</time></trkpt><trkpt lat="43.6232533" lon="11.4837817"><ele>124.0</ele><time>2026-03-22T11:33:16.224Z</time></trkpt><trkpt lat="43.6232017" lon="11.4838833"><ele>124.0</ele><time>2026-03-22T11:33:17.225Z</time></trkpt><trkpt lat="43.62315" lon="11.4839833"><ele>124.0</ele><time>2026-03-22T11:33:18.225Z</time></trkpt><trkpt lat="43.6230933" lon="11.4840933"><ele>124.0</ele><time>2026-03-22T11:33:19.224Z</time></trkpt><trkpt lat="43.62304" lon="11.484195"><ele>124.0</ele><time>2026-03-22T11:33:20.225Z</time></trkpt><trkpt lat="43.6229867" lon="11.4842983"><ele>124.0</ele><time>2026-03-22T11:33:21.225Z</time></trkpt><trkpt lat="43.622935" lon="11.4844033"><ele>124.0</ele><time>2026-03-22T11:33:22.225Z</time></trkpt><trkpt lat="43.622885" lon="11.484505"><ele>124.0</ele><time>2026-03-22T11:33:23.226Z</time></trkpt><trkpt lat="43.62283" lon="11.4846067"><ele>124.0</ele><time>2026-03-22T11:33:24.225Z</time></trkpt><trkpt lat="43.6227767" lon="11.4847117"><ele>123.80000000000001</ele><time>2026-03-22T11:33:25.226Z</time></trkpt><trkpt lat="43.6227183" lon="11.4848133"><ele>123.60000000000001</ele><time>2026-03-22T11:33:26.225Z</time></trkpt><trkpt lat="43.622665" lon="11.4849167"><ele>123.4</ele><time>2026-03-22T11:33:27.223Z</time></trkpt><trkpt lat="43.62261" lon="11.4850217"><ele>123.2</ele><time>2026-03-22T11:33:28.223Z</time></trkpt><trkpt lat="43.622555" lon="11.4851267"><ele>123.0</ele><time>2026-03-22T11:33:29.223Z</time></trkpt><trkpt lat="43.6225033" lon="11.4852317"><ele>123.0</ele><time>2026-03-22T11:33:30.224Z</time></trkpt><trkpt lat="43.6224417" lon="11.48533"><ele>123.00000000000001</ele><time>2026-03-22T11:33:31.226Z</time></trkpt><trkpt lat="43.62239" lon="11.4854417"><ele>123.00000000000001</ele><time>2026-03-22T11:33:32.224Z</time></trkpt><trkpt lat="43.62233" lon="11.4855517"><ele>123.0</ele><time>2026-03-22T11:33:33.224Z</time></trkpt><trkpt lat="43.622275" lon="11.4856617"><ele>123.0</ele><time>2026-03-22T11:33:34.223Z</time></trkpt><trkpt lat="43.6222233" lon="11.4857717"><ele>123.2</ele><time>2026-03-22T11:33:35.224Z</time></trkpt><trkpt lat="43.6221667" lon="11.48588"><ele>123.4</ele><time>2026-03-22T11:33:36.225Z</time></trkpt><trkpt lat="43.62211" lon="11.48599"><ele>123.60000000000001</ele><time>2026-03-22T11:33:37.223Z</time></trkpt><trkpt lat="43.62206" lon="11.4860983"><ele>123.80000000000001</ele><time>2026-03-22T11:33:38.224Z</time></trkpt><trkpt lat="43.62201" lon="11.486205"><ele>124.0</ele><time>2026-03-22T11:33:39.224Z</time></trkpt><trkpt lat="43.6219567" lon="11.486315"><ele>124.0</ele><time>2026-03-22T11:33:40.223Z</time></trkpt><trkpt lat="43.621905" lon="11.4864217"><ele>124.0</ele><time>2026-03-22T11:33:41.223Z</time></trkpt><trkpt lat="43.6218567" lon="11.4865267"><ele>124.0</ele><time>2026-03-22T11:33:42.224Z</time></trkpt><trkpt lat="43.6218033" lon="11.4866333"><ele>124.0</ele><time>2026-03-22T11:33:43.224Z</time></trkpt><trkpt lat="43.6217567" lon="11.486745"><ele>124.0</ele><time>2026-03-22T11:33:44.224Z</time></trkpt><trkpt lat="43.621715" lon="11.4868567"><ele>124.0</ele><time>2026-03-22T11:33:45.225Z</time></trkpt><trkpt lat="43.621675" lon="11.48697"><ele>124.0</ele><time>2026-03-22T11:33:46.224Z</time></trkpt><trkpt lat="43.6216383" lon="11.4870867"><ele>124.0</ele><time>2026-03-22T11:33:47.225Z</time></trkpt><trkpt lat="43.6216133" lon="11.487205"><ele>124.0</ele><time>2026-03-22T11:33:48.228Z</time></trkpt><trkpt lat="43.6215883" lon="11.4873233"><ele>124.0</ele><time>2026-03-22T11:33:49.225Z</time></trkpt><trkpt lat="43.6215667" lon="11.4874467"><ele>124.2</ele><time>2026-03-22T11:33:50.224Z</time></trkpt><trkpt lat="43.6215517" lon="11.48757"><ele>124.4</ele><time>2026-03-22T11:33:51.223Z</time></trkpt><trkpt lat="43.6215433" lon="11.4876983"><ele>124.6</ele><time>2026-03-22T11:33:52.222Z</time></trkpt><trkpt lat="43.6215383" lon="11.4878217"><ele>124.8</ele><time>2026-03-22T11:33:53.224Z</time></trkpt><trkpt lat="43.6215417" lon="11.4879467"><ele>125.0</ele><time>2026-03-22T11:33:54.225Z</time></trkpt><trkpt lat="43.6215483" lon="11.48807"><ele>124.6</ele><time>2026-03-22T11:33:55.223Z</time></trkpt><trkpt lat="43.6215567" lon="11.4881967"><ele>124.2</ele><time>2026-03-22T11:33:56.225Z</time></trkpt><trkpt lat="43.6215683" lon="11.4883217"><ele>123.80000000000001</ele><time>2026-03-22T11:33:57.223Z</time></trkpt><trkpt lat="43.621585" lon="11.4884467"><ele>123.4</ele><time>2026-03-22T11:33:58.225Z</time></trkpt><trkpt lat="43.6216083" lon="11.4885717"><ele>123.0</ele><time>2026-03-22T11:33:59.224Z</time></trkpt><trkpt lat="43.6216333" lon="11.4886933"><ele>123.0</ele><time>2026-03-22T11:34:00.225Z</time></trkpt><trkpt lat="43.6216567" lon="11.4888167"><ele>123.00000000000001</ele><time>2026-03-22T11:34:01.224Z</time></trkpt><trkpt lat="43.621685" lon="11.4889367"><ele>123.00000000000001</ele><time>2026-03-22T11:34:02.225Z</time></trkpt><trkpt lat="43.6217217" lon="11.4890567"><ele>123.0</ele><time>2026-03-22T11:34:03.223Z</time></trkpt><trkpt lat="43.6217567" lon="11.4891733"><ele>123.0</ele><time>2026-03-22T11:34:04.222Z</time></trkpt><trkpt lat="43.6217917" lon="11.4892917"><ele>123.0</ele><time>2026-03-22T11:34:05.223Z</time></trkpt><trkpt lat="43.6218267" lon="11.4894117"><ele>123.0</ele><time>2026-03-22T11:34:06.224Z</time></trkpt><trkpt lat="43.6218567" lon="11.4895283"><ele>123.0</ele><time>2026-03-22T11:34:07.223Z</time></trkpt><trkpt lat="43.6218867" lon="11.4896417"><ele>123.0</ele><time>2026-03-22T11:34:08.225Z</time></trkpt><trkpt lat="43.6219167" lon="11.489755"><ele>123.0</ele><time>2026-03-22T11:34:09.224Z</time></trkpt><trkpt lat="43.621945" lon="11.4898683"><ele>123.0</ele><time>2026-03-22T11:34:10.223Z</time></trkpt><trkpt lat="43.62197" lon="11.4899833"><ele>123.0</ele><time>2026-03-22T11:34:11.228Z</time></trkpt><trkpt lat="43.621995" lon="11.4900983"><ele>123.0</ele><time>2026-03-22T11:34:12.225Z</time></trkpt><trkpt lat="43.62202" lon="11.4902133"><ele>123.0</ele><time>2026-03-22T11:34:13.224Z</time></trkpt><trkpt lat="43.622045" lon="11.4903317"><ele>123.0</ele><time>2026-03-22T11:34:14.225Z</time></trkpt><trkpt lat="43.6220733" lon="11.4904467"><ele>123.0</ele><time>2026-03-22T11:34:15.225Z</time></trkpt><trkpt lat="43.6221" lon="11.4905633"><ele>123.0</ele><time>2026-03-22T11:34:16.225Z</time></trkpt><trkpt lat="43.6221317" lon="11.4906783"><ele>123.0</ele><time>2026-03-22T11:34:17.225Z</time></trkpt><trkpt lat="43.62216" lon="11.4907983"><ele>123.00000000000001</ele><time>2026-03-22T11:34:18.225Z</time></trkpt><trkpt lat="43.6221883" lon="11.49092"><ele>123.00000000000001</ele><time>2026-03-22T11:34:19.224Z</time></trkpt><trkpt lat="43.6222183" lon="11.4910383"><ele>123.0</ele><time>2026-03-22T11:34:20.224Z</time></trkpt><trkpt lat="43.6222483" lon="11.4911567"><ele>123.0</ele><time>2026-03-22T11:34:21.224Z</time></trkpt><trkpt lat="43.6222783" lon="11.4912733"><ele>123.0</ele><time>2026-03-22T11:34:22.223Z</time></trkpt><trkpt lat="43.6223067" lon="11.49139"><ele>123.0</ele><time>2026-03-22T11:34:23.225Z</time></trkpt><trkpt lat="43.622335" lon="11.4915083"><ele>123.0</ele><time>2026-03-22T11:34:24.23Z</time></trkpt><trkpt lat="43.6223583" lon="11.4916267"><ele>123.0</ele><time>2026-03-22T11:34:25.225Z</time></trkpt><trkpt lat="43.6223817" lon="11.4917483"><ele>123.0</ele><time>2026-03-22T11:34:26.223Z</time></trkpt><trkpt lat="43.6224033" lon="11.4918667"><ele>123.0</ele><time>2026-03-22T11:34:27.224Z</time></trkpt><trkpt lat="43.62243" lon="11.4919817"><ele>123.0</ele><time>2026-03-22T11:34:28.228Z</time></trkpt><trkpt lat="43.6224567" lon="11.4920983"><ele>123.0</ele><time>2026-03-22T11:34:29.225Z</time></trkpt><trkpt lat="43.6224883" lon="11.4922117"><ele>123.0</ele><time>2026-03-22T11:34:30.227Z</time></trkpt><trkpt lat="43.622515" lon="11.49233"><ele>123.0</ele><time>2026-03-22T11:34:31.224Z</time></trkpt><trkpt lat="43.6225433" lon="11.4924467"><ele>123.0</ele><time>2026-03-22T11:34:32.224Z</time></trkpt><trkpt lat="43.6225733" lon="11.4925633"><ele>123.0</ele><time>2026-03-22T11:34:33.223Z</time></trkpt><trkpt lat="43.6226017" lon="11.4926817"><ele>123.0</ele><time>2026-03-22T11:34:34.224Z</time></trkpt><trkpt lat="43.6226217" lon="11.492805"><ele>123.0</ele><time>2026-03-22T11:34:35.224Z</time></trkpt><trkpt lat="43.62264" lon="11.49293"><ele>123.0</ele><time>2026-03-22T11:34:36.226Z</time></trkpt><trkpt lat="43.622655" lon="11.4930483"><ele>123.0</ele><time>2026-03-22T11:34:37.224Z</time></trkpt><trkpt lat="43.622665" lon="11.4931683"><ele>123.0</ele><time>2026-03-22T11:34:38.225Z</time></trkpt><trkpt lat="43.6226767" lon="11.4932833"><ele>123.0</ele><time>2026-03-22T11:34:39.227Z</time></trkpt><trkpt lat="43.6226767" lon="11.493405"><ele>123.0</ele><time>2026-03-22T11:34:40.224Z</time></trkpt><trkpt lat="43.6226783" lon="11.4935217"><ele>123.0</ele><time>2026-03-22T11:34:41.223Z</time></trkpt><trkpt lat="43.62267" lon="11.4936417"><ele>123.0</ele><time>2026-03-22T11:34:42.224Z</time></trkpt><trkpt lat="43.6226533" lon="11.4937617"><ele>123.0</ele><time>2026-03-22T11:34:43.224Z</time></trkpt><trkpt lat="43.6226333" lon="11.4938817"><ele>123.0</ele><time>2026-03-22T11:34:44.224Z</time></trkpt><trkpt lat="43.6226133" lon="11.4939983"><ele>123.0</ele><time>2026-03-22T11:34:45.223Z</time></trkpt><trkpt lat="43.622585" lon="11.494115"><ele>123.0</ele><time>2026-03-22T11:34:46.225Z</time></trkpt><trkpt lat="43.6225533" lon="11.4942333"><ele>123.00000000000001</ele><time>2026-03-22T11:34:47.223Z</time></trkpt><trkpt lat="43.6225167" lon="11.49435"><ele>123.00000000000001</ele><time>2026-03-22T11:34:48.224Z</time></trkpt><trkpt lat="43.6224767" lon="11.4944683"><ele>123.0</ele><time>2026-03-22T11:34:49.224Z</time></trkpt><trkpt lat="43.6224333" lon="11.4945833"><ele>123.0</ele><time>2026-03-22T11:34:50.225Z</time></trkpt><trkpt lat="43.6223833" lon="11.4946967"><ele>123.66666666666667</ele><time>2026-03-22T11:34:51.226Z</time></trkpt><trkpt lat="43.6223333" lon="11.4948033"><ele>124.33333333333334</ele><time>2026-03-22T11:34:52.224Z</time></trkpt><trkpt lat="43.6222767" lon="11.4949033"><ele>125.0</ele><time>2026-03-22T11:34:53.225Z</time></trkpt><trkpt lat="43.6222233" lon="11.4949967"><ele>125.66666666666667</ele><time>2026-03-22T11:34:54.226Z</time></trkpt><trkpt lat="43.6221667" lon="11.49509"><ele>126.33333333333334</ele><time>2026-03-22T11:34:55.224Z</time></trkpt><trkpt lat="43.6221033" lon="11.4951783"><ele>127.0</ele><time>2026-03-22T11:34:56.224Z</time></trkpt><trkpt lat="43.6220417" lon="11.4952583"><ele>127.00000000000001</ele><time>2026-03-22T11:34:57.224Z</time></trkpt><trkpt lat="43.621975" lon="11.495335"><ele>127.0</ele><time>2026-03-22T11:34:58.223Z</time></trkpt><trkpt lat="43.6219017" lon="11.4954067"><ele>127.0</ele><time>2026-03-22T11:34:59.223Z</time></trkpt><trkpt lat="43.6218283" lon="11.495475"><ele>127.0</ele><time>2026-03-22T11:35:00.225Z</time></trkpt><trkpt lat="43.6217517" lon="11.4955367"><ele>127.00000000000001</ele><time>2026-03-22T11:35:01.224Z</time></trkpt><trkpt lat="43.62167" lon="11.4955933"><ele>127.0</ele><time>2026-03-22T11:35:02.227Z</time></trkpt><trkpt lat="43.6215917" lon="11.49565"><ele>127.00000000000001</ele><time>2026-03-22T11:35:03.223Z</time></trkpt><trkpt lat="43.621515" lon="11.4956983"><ele>127.0</ele><time>2026-03-22T11:35:04.228Z</time></trkpt><trkpt lat="43.6214333" lon="11.4957417"><ele>127.0</ele><time>2026-03-22T11:35:05.226Z</time></trkpt><trkpt lat="43.6213517" lon="11.4957883"><ele>127.0</ele><time>2026-03-22T11:35:06.224Z</time></trkpt><trkpt lat="43.6212683" lon="11.49584"><ele>127.00000000000001</ele><time>2026-03-22T11:35:07.224Z</time></trkpt><trkpt lat="43.6211867" lon="11.49589"><ele>127.0</ele><time>2026-03-22T11:35:08.225Z</time></trkpt><trkpt lat="43.621105" lon="11.4959367"><ele>126.66666666666667</ele><time>2026-03-22T11:35:09.223Z</time></trkpt><trkpt lat="43.6210217" lon="11.4959783"><ele>126.33333333333334</ele><time>2026-03-22T11:35:10.222Z</time></trkpt><trkpt lat="43.62094" lon="11.4960217"><ele>126.0</ele><time>2026-03-22T11:35:11.225Z</time></trkpt><trkpt lat="43.6208533" lon="11.4960533"><ele>125.66666666666666</ele><time>2026-03-22T11:35:12.229Z</time></trkpt><trkpt lat="43.620765" lon="11.49608"><ele>125.33333333333333</ele><time>2026-03-22T11:35:13.223Z</time></trkpt><trkpt lat="43.6206783" lon="11.4961"><ele>125.0</ele><time>2026-03-22T11:35:14.226Z</time></trkpt><trkpt lat="43.6205883" lon="11.4961183"><ele>125.0</ele><time>2026-03-22T11:35:15.224Z</time></trkpt><trkpt lat="43.6205" lon="11.4961317"><ele>125.0</ele><time>2026-03-22T11:35:16.224Z</time></trkpt><trkpt lat="43.6204133" lon="11.4961433"><ele>125.0</ele><time>2026-03-22T11:35:17.224Z</time></trkpt><trkpt lat="43.62032" lon="11.4961467"><ele>125.0</ele><time>2026-03-22T11:35:18.225Z</time></trkpt><trkpt lat="43.6202283" lon="11.49615"><ele>125.0</ele><time>2026-03-22T11:35:19.223Z</time></trkpt><trkpt lat="43.6201367" lon="11.4961583"><ele>125.0</ele><time>2026-03-22T11:35:20.225Z</time></trkpt><trkpt lat="43.6200467" lon="11.496175"><ele>125.0</ele><time>2026-03-22T11:35:21.224Z</time></trkpt><trkpt lat="43.6199567" lon="11.496185"><ele>125.0</ele><time>2026-03-22T11:35:22.224Z</time></trkpt><trkpt lat="43.6198667" lon="11.496195"><ele>125.0</ele><time>2026-03-22T11:35:23.223Z</time></trkpt><trkpt lat="43.6197767" lon="11.4962117"><ele>125.0</ele><time>2026-03-22T11:35:24.225Z</time></trkpt><trkpt lat="43.619685" lon="11.4962233"><ele>125.0</ele><time>2026-03-22T11:35:25.223Z</time></trkpt><trkpt lat="43.6195933" lon="11.4962333"><ele>125.0</ele><time>2026-03-22T11:35:26.225Z</time></trkpt><trkpt lat="43.6195033" lon="11.49625"><ele>125.0</ele><time>2026-03-22T11:35:27.225Z</time></trkpt><trkpt lat="43.6194133" lon="11.4962667"><ele>125.0</ele><time>2026-03-22T11:35:28.224Z</time></trkpt><trkpt lat="43.6193217" lon="11.4962817"><ele>125.0</ele><time>2026-03-22T11:35:29.225Z</time></trkpt><trkpt lat="43.6192317" lon="11.496295"><ele>126.0</ele><time>2026-03-22T11:35:30.226Z</time></trkpt><trkpt lat="43.6191333" lon="11.4963017"><ele>127.0</ele><time>2026-03-22T11:35:31.227Z</time></trkpt><trkpt lat="43.6190367" lon="11.496315"><ele>128.0</ele><time>2026-03-22T11:35:32.226Z</time></trkpt><trkpt lat="43.6189467" lon="11.49633"><ele>129.0</ele><time>2026-03-22T11:35:33.224Z</time></trkpt><trkpt lat="43.6188567" lon="11.4963417"><ele>130.0</ele><time>2026-03-22T11:35:34.223Z</time></trkpt><trkpt lat="43.6187617" lon="11.4963483"><ele>130.0</ele><time>2026-03-22T11:35:35.227Z</time></trkpt><trkpt lat="43.6186683" lon="11.496365"><ele>130.0</ele><time>2026-03-22T11:35:36.225Z</time></trkpt><trkpt lat="43.6185783" lon="11.4963867"><ele>130.0</ele><time>2026-03-22T11:35:37.225Z</time></trkpt><trkpt lat="43.61849" lon="11.4964133"><ele>130.0</ele><time>2026-03-22T11:35:38.224Z</time></trkpt><trkpt lat="43.6184017" lon="11.4964417"><ele>130.0</ele><time>2026-03-22T11:35:39.224Z</time></trkpt><trkpt lat="43.6183067" lon="11.496475"><ele>129.0</ele><time>2026-03-22T11:35:40.225Z</time></trkpt><trkpt lat="43.618215" lon="11.4965117"><ele>128.0</ele><time>2026-03-22T11:35:41.224Z</time></trkpt><trkpt lat="43.6181217" lon="11.4965483"><ele>127.0</ele><time>2026-03-22T11:35:42.224Z</time></trkpt><trkpt lat="43.6180283" lon="11.4965967"><ele>126.0</ele><time>2026-03-22T11:35:43.225Z</time></trkpt><trkpt lat="43.61794" lon="11.4966483"><ele>125.0</ele><time>2026-03-22T11:35:44.225Z</time></trkpt><trkpt lat="43.6178583" lon="11.4967067"><ele>124.6</ele><time>2026-03-22T11:35:45.224Z</time></trkpt><trkpt lat="43.6177833" lon="11.4967717"><ele>124.2</ele><time>2026-03-22T11:35:46.225Z</time></trkpt><trkpt lat="43.6177067" lon="11.49684"><ele>123.80000000000001</ele><time>2026-03-22T11:35:47.223Z</time></trkpt><trkpt lat="43.617635" lon="11.4969117"><ele>123.4</ele><time>2026-03-22T11:35:48.225Z</time></trkpt><trkpt lat="43.617555" lon="11.4969867"><ele>123.0</ele><time>2026-03-22T11:35:49.227Z</time></trkpt><trkpt lat="43.6174767" lon="11.4970617"><ele>123.60000000000001</ele><time>2026-03-22T11:35:50.224Z</time></trkpt><trkpt lat="43.6173967" lon="11.4971367"><ele>124.20000000000002</ele><time>2026-03-22T11:35:51.224Z</time></trkpt><trkpt lat="43.6173183" lon="11.49722"><ele>124.8</ele><time>2026-03-22T11:35:52.224Z</time></trkpt><trkpt lat="43.6172383" lon="11.497305"><ele>125.4</ele><time>2026-03-22T11:35:53.224Z</time></trkpt><trkpt lat="43.6171667" lon="11.4973967"><ele>126.0</ele><time>2026-03-22T11:35:54.227Z</time></trkpt><trkpt lat="43.6170933" lon="11.4974867"><ele>126.0</ele><time>2026-03-22T11:35:55.225Z</time></trkpt><trkpt lat="43.617015" lon="11.497575"><ele>126.0</ele><time>2026-03-22T11:35:56.224Z</time></trkpt><trkpt lat="43.616935" lon="11.4976617"><ele>126.0</ele><time>2026-03-22T11:35:57.224Z</time></trkpt><trkpt lat="43.6168617" lon="11.4977483"><ele>126.0</ele><time>2026-03-22T11:35:58.225Z</time></trkpt><trkpt lat="43.6167833" lon="11.4978367"><ele>126.0</ele><time>2026-03-22T11:35:59.224Z</time></trkpt><trkpt lat="43.6167117" lon="11.497925"><ele>125.8</ele><time>2026-03-22T11:36:00.225Z</time></trkpt><trkpt lat="43.6166383" lon="11.4980117"><ele>125.6</ele><time>2026-03-22T11:36:01.224Z</time></trkpt><trkpt lat="43.616565" lon="11.4980917"><ele>125.4</ele><time>2026-03-22T11:36:02.225Z</time></trkpt><trkpt lat="43.61649" lon="11.4981717"><ele>125.2</ele><time>2026-03-22T11:36:03.226Z</time></trkpt><trkpt lat="43.6164133" lon="11.4982567"><ele>125.0</ele><time>2026-03-22T11:36:04.223Z</time></trkpt><trkpt lat="43.61634" lon="11.4983433"><ele>125.0</ele><time>2026-03-22T11:36:05.225Z</time></trkpt><trkpt lat="43.6162683" lon="11.4984267"><ele>125.0</ele><time>2026-03-22T11:36:06.226Z</time></trkpt><trkpt lat="43.6161983" lon="11.49851"><ele>125.0</ele><time>2026-03-22T11:36:07.225Z</time></trkpt><trkpt lat="43.61612" lon="11.4985967"><ele>125.0</ele><time>2026-03-22T11:36:08.224Z</time></trkpt><trkpt lat="43.61605" lon="11.4986833"><ele>125.0</ele><time>2026-03-22T11:36:09.224Z</time></trkpt><trkpt lat="43.6159783" lon="11.4987683"><ele>125.0</ele><time>2026-03-22T11:36:10.224Z</time></trkpt><trkpt lat="43.6159067" lon="11.498855"><ele>125.0</ele><time>2026-03-22T11:36:11.225Z</time></trkpt><trkpt lat="43.6158367" lon="11.4989383"><ele>125.0</ele><time>2026-03-22T11:36:12.225Z</time></trkpt><trkpt lat="43.6157633" lon="11.49902"><ele>125.0</ele><time>2026-03-22T11:36:13.226Z</time></trkpt><trkpt lat="43.6156867" lon="11.4991033"><ele>125.0</ele><time>2026-03-22T11:36:14.225Z</time></trkpt><trkpt lat="43.615615" lon="11.49919"><ele>125.0</ele><time>2026-03-22T11:36:15.224Z</time></trkpt><trkpt lat="43.6155433" lon="11.49927"><ele>125.0</ele><time>2026-03-22T11:36:16.223Z</time></trkpt><trkpt lat="43.615475" lon="11.499355"><ele>125.0</ele><time>2026-03-22T11:36:17.225Z</time></trkpt><trkpt lat="43.6154117" lon="11.49945"><ele>125.0</ele><time>2026-03-22T11:36:18.226Z</time></trkpt><trkpt lat="43.6153483" lon="11.4995483"><ele>125.0</ele><time>2026-03-22T11:36:19.223Z</time></trkpt><trkpt lat="43.61529" lon="11.4996467"><ele>124.99999999999999</ele><time>2026-03-22T11:36:20.224Z</time></trkpt><trkpt lat="43.6152267" lon="11.499745"><ele>125.0</ele><time>2026-03-22T11:36:21.225Z</time></trkpt><trkpt lat="43.61517" lon="11.4998467"><ele>125.0</ele><time>2026-03-22T11:36:22.226Z</time></trkpt><trkpt lat="43.6151167" lon="11.4999467"><ele>125.0</ele><time>2026-03-22T11:36:23.224Z</time></trkpt><trkpt lat="43.615075" lon="11.50005"><ele>124.99999999999999</ele><time>2026-03-22T11:36:24.224Z</time></trkpt><trkpt lat="43.6150317" lon="11.5001517"><ele>125.0</ele><time>2026-03-22T11:36:25.224Z</time></trkpt><trkpt lat="43.61499" lon="11.5002533"><ele>124.99999999999999</ele><time>2026-03-22T11:36:26.224Z</time></trkpt><trkpt lat="43.61495" lon="11.5003633"><ele>125.0</ele><time>2026-03-22T11:36:27.228Z</time></trkpt><trkpt lat="43.614915" lon="11.5004783"><ele>125.0</ele><time>2026-03-22T11:36:28.224Z</time></trkpt><trkpt lat="43.61489" lon="11.5005967"><ele>125.0</ele><time>2026-03-22T11:36:29.225Z</time></trkpt><trkpt lat="43.61487" lon="11.500715"><ele>124.99999999999999</ele><time>2026-03-22T11:36:30.224Z</time></trkpt><trkpt lat="43.614855" lon="11.500835"><ele>125.0</ele><time>2026-03-22T11:36:31.225Z</time></trkpt><trkpt lat="43.6148433" lon="11.5009567"><ele>125.16666666666666</ele><time>2026-03-22T11:36:32.224Z</time></trkpt><trkpt lat="43.6148333" lon="11.5010817"><ele>125.33333333333333</ele><time>2026-03-22T11:36:33.228Z</time></trkpt><trkpt lat="43.614825" lon="11.5012"><ele>125.5</ele><time>2026-03-22T11:36:34.224Z</time></trkpt><trkpt lat="43.6148183" lon="11.5013217"><ele>125.66666666666666</ele><time>2026-03-22T11:36:35.225Z</time></trkpt><trkpt lat="43.61482" lon="11.5014417"><ele>125.83333333333333</ele><time>2026-03-22T11:36:36.224Z</time></trkpt><trkpt lat="43.6148217" lon="11.50156"><ele>126.0</ele><time>2026-03-22T11:36:37.223Z</time></trkpt><trkpt lat="43.6148267" lon="11.5016783"><ele>126.16666666666667</ele><time>2026-03-22T11:36:38.224Z</time></trkpt><trkpt lat="43.614835" lon="11.5017967"><ele>126.33333333333334</ele><time>2026-03-22T11:36:39.224Z</time></trkpt><trkpt lat="43.614845" lon="11.5019133"><ele>126.5</ele><time>2026-03-22T11:36:40.225Z</time></trkpt><trkpt lat="43.6148567" lon="11.50203"><ele>126.66666666666667</ele><time>2026-03-22T11:36:41.224Z</time></trkpt><trkpt lat="43.61487" lon="11.502145"><ele>126.83333333333334</ele><time>2026-03-22T11:36:42.224Z</time></trkpt><trkpt lat="43.6148833" lon="11.5022583"><ele>127.0</ele><time>2026-03-22T11:36:43.224Z</time></trkpt><trkpt lat="43.6149017" lon="11.5023683"><ele>127.00000000000001</ele><time>2026-03-22T11:36:44.226Z</time></trkpt><trkpt lat="43.6149233" lon="11.5024783"><ele>127.0</ele><time>2026-03-22T11:36:45.225Z</time></trkpt><trkpt lat="43.61495" lon="11.502585"><ele>127.0</ele><time>2026-03-22T11:36:46.226Z</time></trkpt><trkpt lat="43.6149817" lon="11.5026933"><ele>127.0</ele><time>2026-03-22T11:36:47.224Z</time></trkpt><trkpt lat="43.6150133" lon="11.5027983"><ele>127.00000000000001</ele><time>2026-03-22T11:36:48.224Z</time></trkpt><trkpt lat="43.61505" lon="11.5029033"><ele>127.0</ele><time>2026-03-22T11:36:49.224Z</time></trkpt><trkpt lat="43.6150917" lon="11.5030067"><ele>127.33333333333334</ele><time>2026-03-22T11:36:50.225Z</time></trkpt><trkpt lat="43.6151283" lon="11.5031067"><ele>127.66666666666667</ele><time>2026-03-22T11:36:51.224Z</time></trkpt><trkpt lat="43.6151717" lon="11.5031983"><ele>128.0</ele><time>2026-03-22T11:36:52.224Z</time></trkpt><trkpt lat="43.6152183" lon="11.5032883"><ele>128.33333333333334</ele><time>2026-03-22T11:36:53.225Z</time></trkpt><trkpt lat="43.6152667" lon="11.5033733"><ele>128.66666666666666</ele><time>2026-03-22T11:36:54.225Z</time></trkpt><trkpt lat="43.6153217" lon="11.5034567"><ele>129.0</ele><time>2026-03-22T11:36:55.227Z</time></trkpt><trkpt lat="43.615375" lon="11.5035383"><ele>129.16666666666666</ele><time>2026-03-22T11:36:56.224Z</time></trkpt><trkpt lat="43.61543" lon="11.503615"><ele>129.33333333333334</ele><time>2026-03-22T11:36:57.224Z</time></trkpt><trkpt lat="43.615485" lon="11.5036917"><ele>129.5</ele><time>2026-03-22T11:36:58.225Z</time></trkpt><trkpt lat="43.6155417" lon="11.50377"><ele>129.66666666666669</ele><time>2026-03-22T11:36:59.224Z</time></trkpt><trkpt lat="43.6156" lon="11.503845"><ele>129.83333333333334</ele><time>2026-03-22T11:37:00.224Z</time></trkpt><trkpt lat="43.61566" lon="11.5039167"><ele>130.0</ele><time>2026-03-22T11:37:01.227Z</time></trkpt><trkpt lat="43.6157233" lon="11.5039833"><ele>129.66666666666669</ele><time>2026-03-22T11:37:02.226Z</time></trkpt><trkpt lat="43.615785" lon="11.50405"><ele>129.33333333333334</ele><time>2026-03-22T11:37:03.224Z</time></trkpt><trkpt lat="43.6158533" lon="11.5041117"><ele>129.0</ele><time>2026-03-22T11:37:04.224Z</time></trkpt><trkpt lat="43.6159217" lon="11.50417"><ele>128.66666666666666</ele><time>2026-03-22T11:37:05.225Z</time></trkpt><trkpt lat="43.6159883" lon="11.5042283"><ele>128.33333333333331</ele><time>2026-03-22T11:37:06.224Z</time></trkpt><trkpt lat="43.616055" lon="11.5042833"><ele>128.0</ele><time>2026-03-22T11:37:07.225Z</time></trkpt><trkpt lat="43.616125" lon="11.504335"><ele>129.16666666666666</ele><time>2026-03-22T11:37:08.225Z</time></trkpt><trkpt lat="43.6161933" lon="11.5043833"><ele>130.33333333333331</ele><time>2026-03-22T11:37:09.224Z</time></trkpt><trkpt lat="43.616265" lon="11.504425"><ele>131.5</ele><time>2026-03-22T11:37:10.225Z</time></trkpt><trkpt lat="43.6163383" lon="11.5044617"><ele>132.66666666666666</ele><time>2026-03-22T11:37:11.223Z</time></trkpt><trkpt lat="43.61641" lon="11.5044917"><ele>133.83333333333334</ele><time>2026-03-22T11:37:12.225Z</time></trkpt><trkpt lat="43.6164833" lon="11.5045283"><ele>135.0</ele><time>2026-03-22T11:37:13.224Z</time></trkpt><trkpt lat="43.6165617" lon="11.5045633"><ele>134.66666666666666</ele><time>2026-03-22T11:37:14.224Z</time></trkpt><trkpt lat="43.6166383" lon="11.5045983"><ele>134.33333333333334</ele><time>2026-03-22T11:37:15.226Z</time></trkpt><trkpt lat="43.6167183" lon="11.5046333"><ele>134.0</ele><time>2026-03-22T11:37:16.226Z</time></trkpt><trkpt lat="43.616795" lon="11.5046667"><ele>133.66666666666669</ele><time>2026-03-22T11:37:17.224Z</time></trkpt><trkpt lat="43.6168717" lon="11.5047033"><ele>133.33333333333334</ele><time>2026-03-22T11:37:18.224Z</time></trkpt><trkpt lat="43.61695" lon="11.504745"><ele>133.0</ele><time>2026-03-22T11:37:19.224Z</time></trkpt><trkpt lat="43.617025" lon="11.5047817"><ele>133.0</ele><time>2026-03-22T11:37:20.223Z</time></trkpt><trkpt lat="43.6171" lon="11.5048183"><ele>133.0</ele><time>2026-03-22T11:37:21.226Z</time></trkpt><trkpt lat="43.61717" lon="11.5048483"><ele>133.0</ele><time>2026-03-22T11:37:22.226Z</time></trkpt><trkpt lat="43.6172467" lon="11.5048817"><ele>133.0</ele><time>2026-03-22T11:37:23.225Z</time></trkpt><trkpt lat="43.6173267" lon="11.5049117"><ele>133.0</ele><time>2026-03-22T11:37:24.224Z</time></trkpt><trkpt lat="43.6174017" lon="11.504945"><ele>133.0</ele><time>2026-03-22T11:37:25.227Z</time></trkpt><trkpt lat="43.6174733" lon="11.5049867"><ele>133.0</ele><time>2026-03-22T11:37:26.223Z</time></trkpt><trkpt lat="43.617545" lon="11.5050317"><ele>133.0</ele><time>2026-03-22T11:37:27.226Z</time></trkpt><trkpt lat="43.61762" lon="11.505055"><ele>133.0</ele><time>2026-03-22T11:37:28.225Z</time></trkpt><trkpt lat="43.6176933" lon="11.505085"><ele>133.0</ele><time>2026-03-22T11:37:29.225Z</time></trkpt><trkpt lat="43.6177633" lon="11.5051117"><ele>133.0</ele><time>2026-03-22T11:37:30.228Z</time></trkpt><trkpt lat="43.617835" lon="11.5051433"><ele>133.0</ele><time>2026-03-22T11:37:31.225Z</time></trkpt><trkpt lat="43.6179133" lon="11.5051767"><ele>134.16666666666669</ele><time>2026-03-22T11:37:32.229Z</time></trkpt><trkpt lat="43.6179883" lon="11.505205"><ele>135.33333333333334</ele><time>2026-03-22T11:37:33.225Z</time></trkpt><trkpt lat="43.61806" lon="11.5052367"><ele>136.5</ele><time>2026-03-22T11:37:34.224Z</time></trkpt><trkpt lat="43.6181333" lon="11.5052683"><ele>137.66666666666666</ele><time>2026-03-22T11:37:35.225Z</time></trkpt><trkpt lat="43.618205" lon="11.5053"><ele>138.83333333333331</ele><time>2026-03-22T11:37:36.225Z</time></trkpt><trkpt lat="43.6182783" lon="11.50533"><ele>140.0</ele><time>2026-03-22T11:37:37.224Z</time></trkpt><trkpt lat="43.618355" lon="11.505365"><ele>140.0</ele><time>2026-03-22T11:37:38.224Z</time></trkpt><trkpt lat="43.61843" lon="11.505395"><ele>140.0</ele><time>2026-03-22T11:37:39.225Z</time></trkpt><trkpt lat="43.618505" lon="11.505425"><ele>140.0</ele><time>2026-03-22T11:37:40.223Z</time></trkpt><trkpt lat="43.6185817" lon="11.5054483"><ele>140.0</ele><time>2026-03-22T11:37:41.224Z</time></trkpt><trkpt lat="43.6186633" lon="11.505465"><ele>140.0</ele><time>2026-03-22T11:37:42.224Z</time></trkpt><trkpt lat="43.61874" lon="11.5054783"><ele>140.0</ele><time>2026-03-22T11:37:43.225Z</time></trkpt><trkpt lat="43.6188217" lon="11.5054917"><ele>138.5</ele><time>2026-03-22T11:37:44.225Z</time></trkpt><trkpt lat="43.6189017" lon="11.5055017"><ele>137.0</ele><time>2026-03-22T11:37:45.225Z</time></trkpt><trkpt lat="43.6189833" lon="11.5055083"><ele>135.5</ele><time>2026-03-22T11:37:46.224Z</time></trkpt><trkpt lat="43.6190683" lon="11.50551"><ele>134.0</ele><time>2026-03-22T11:37:47.225Z</time></trkpt><trkpt lat="43.619155" lon="11.5055083"><ele>132.5</ele><time>2026-03-22T11:37:48.226Z</time></trkpt><trkpt lat="43.61924" lon="11.5055033"><ele>131.0</ele><time>2026-03-22T11:37:49.226Z</time></trkpt><trkpt lat="43.619325" lon="11.5054967"><ele>131.0</ele><time>2026-03-22T11:37:50.226Z</time></trkpt><trkpt lat="43.6194117" lon="11.50549"><ele>131.0</ele><time>2026-03-22T11:37:51.225Z</time></trkpt><trkpt lat="43.619495" lon="11.5054833"><ele>131.0</ele><time>2026-03-22T11:37:52.225Z</time></trkpt><trkpt lat="43.61958" lon="11.5054767"><ele>131.0</ele><time>2026-03-22T11:37:53.224Z</time></trkpt><trkpt lat="43.6196667" lon="11.5054683"><ele>131.0</ele><time>2026-03-22T11:37:54.225Z</time></trkpt><trkpt lat="43.6197517" lon="11.5054617"><ele>131.0</ele><time>2026-03-22T11:37:55.223Z</time></trkpt><trkpt lat="43.6198367" lon="11.5054567"><ele>131.16666666666666</ele><time>2026-03-22T11:37:56.226Z</time></trkpt><trkpt lat="43.6199217" lon="11.505455"><ele>131.33333333333331</ele><time>2026-03-22T11:37:57.224Z</time></trkpt><trkpt lat="43.6200083" lon="11.5054617"><ele>131.5</ele><time>2026-03-22T11:37:58.223Z</time></trkpt><trkpt lat="43.6200983" lon="11.5054767"><ele>131.66666666666666</ele><time>2026-03-22T11:37:59.223Z</time></trkpt><trkpt lat="43.6201833" lon="11.5054867"><ele>131.83333333333334</ele><time>2026-03-22T11:38:00.222Z</time></trkpt><trkpt lat="43.6202683" lon="11.505495"><ele>132.0</ele><time>2026-03-22T11:38:01.223Z</time></trkpt><trkpt lat="43.6203517" lon="11.505505"><ele>132.16666666666666</ele><time>2026-03-22T11:38:02.223Z</time></trkpt><trkpt lat="43.6204367" lon="11.5055167"><ele>132.33333333333334</ele><time>2026-03-22T11:38:03.222Z</time></trkpt><trkpt lat="43.6205233" lon="11.5055417"><ele>132.5</ele><time>2026-03-22T11:38:04.222Z</time></trkpt><trkpt lat="43.6206083" lon="11.5055717"><ele>132.66666666666669</ele><time>2026-03-22T11:38:05.224Z</time></trkpt><trkpt lat="43.6206933" lon="11.5056017"><ele>132.83333333333334</ele><time>2026-03-22T11:38:06.228Z</time></trkpt><trkpt lat="43.6207783" lon="11.5056367"><ele>133.0</ele><time>2026-03-22T11:38:07.225Z</time></trkpt><trkpt lat="43.6208617" lon="11.5056783"><ele>133.0</ele><time>2026-03-22T11:38:08.225Z</time></trkpt><trkpt lat="43.6209417" lon="11.5057267"><ele>133.0</ele><time>2026-03-22T11:38:09.227Z</time></trkpt><trkpt lat="43.62102" lon="11.5057767"><ele>133.0</ele><time>2026-03-22T11:38:10.225Z</time></trkpt><trkpt lat="43.6210967" lon="11.5058217"><ele>133.0</ele><time>2026-03-22T11:38:11.225Z</time></trkpt><trkpt lat="43.6211717" lon="11.505875"><ele>133.0</ele><time>2026-03-22T11:38:12.224Z</time></trkpt><trkpt lat="43.6212467" lon="11.5059317"><ele>133.0</ele><time>2026-03-22T11:38:13.225Z</time></trkpt><trkpt lat="43.6213167" lon="11.505985"><ele>133.0</ele><time>2026-03-22T11:38:14.224Z</time></trkpt><trkpt lat="43.6213833" lon="11.5060317"><ele>133.0</ele><time>2026-03-22T11:38:15.224Z</time></trkpt><trkpt lat="43.6214583" lon="11.50608"><ele>133.0</ele><time>2026-03-22T11:38:16.224Z</time></trkpt><trkpt lat="43.6215333" lon="11.5061333"><ele>133.0</ele><time>2026-03-22T11:38:17.225Z</time></trkpt><trkpt lat="43.6216067" lon="11.5061867"><ele>133.0</ele><time>2026-03-22T11:38:18.224Z</time></trkpt><trkpt lat="43.62168" lon="11.5062333"><ele>133.0</ele><time>2026-03-22T11:38:19.225Z</time></trkpt><trkpt lat="43.621755" lon="11.5062833"><ele>133.0</ele><time>2026-03-22T11:38:20.226Z</time></trkpt><trkpt lat="43.621825" lon="11.50634"><ele>133.0</ele><time>2026-03-22T11:38:21.225Z</time></trkpt><trkpt lat="43.6218983" lon="11.5063883"><ele>133.0</ele><time>2026-03-22T11:38:22.225Z</time></trkpt><trkpt lat="43.62197" lon="11.506445"><ele>133.0</ele><time>2026-03-22T11:38:23.225Z</time></trkpt><trkpt lat="43.6220417" lon="11.5065067"><ele>133.0</ele><time>2026-03-22T11:38:24.225Z</time></trkpt><trkpt lat="43.622115" lon="11.5065633"><ele>133.0</ele><time>2026-03-22T11:38:25.224Z</time></trkpt><trkpt lat="43.6221883" lon="11.5066283"><ele>133.16666666666669</ele><time>2026-03-22T11:38:26.225Z</time></trkpt><trkpt lat="43.6222617" lon="11.5066833"><ele>133.33333333333334</ele><time>2026-03-22T11:38:27.225Z</time></trkpt><trkpt lat="43.622335" lon="11.5067383"><ele>133.5</ele><time>2026-03-22T11:38:28.223Z</time></trkpt><trkpt lat="43.62241" lon="11.5067967"><ele>133.66666666666666</ele><time>2026-03-22T11:38:29.225Z</time></trkpt><trkpt lat="43.622485" lon="11.5068517"><ele>133.83333333333331</ele><time>2026-03-22T11:38:30.225Z</time></trkpt><trkpt lat="43.6225617" lon="11.50691"><ele>134.0</ele><time>2026-03-22T11:38:31.224Z</time></trkpt><trkpt lat="43.6226383" lon="11.50696"><ele>134.0</ele><time>2026-03-22T11:38:32.231Z</time></trkpt><trkpt lat="43.62271" lon="11.507005"><ele>134.0</ele><time>2026-03-22T11:38:33.226Z</time></trkpt><trkpt lat="43.6227833" lon="11.5070583"><ele>134.0</ele><time>2026-03-22T11:38:34.224Z</time></trkpt><trkpt lat="43.622855" lon="11.5071083"><ele>134.0</ele><time>2026-03-22T11:38:35.225Z</time></trkpt><trkpt lat="43.6229283" lon="11.5071633"><ele>134.0</ele><time>2026-03-22T11:38:36.229Z</time></trkpt><trkpt lat="43.6230033" lon="11.5072167"><ele>134.0</ele><time>2026-03-22T11:38:37.226Z</time></trkpt><trkpt lat="43.6230717" lon="11.5072717"><ele>133.83333333333331</ele><time>2026-03-22T11:38:38.225Z</time></trkpt><trkpt lat="43.6231417" lon="11.5073317"><ele>133.66666666666666</ele><time>2026-03-22T11:38:39.231Z</time></trkpt><trkpt lat="43.6232133" lon="11.507395"><ele>133.5</ele><time>2026-03-22T11:38:40.224Z</time></trkpt><trkpt lat="43.62328" lon="11.5074633"><ele>133.33333333333334</ele><time>2026-03-22T11:38:41.224Z</time></trkpt><trkpt lat="43.6233483" lon="11.5075367"><ele>133.16666666666669</ele><time>2026-03-22T11:38:42.224Z</time></trkpt><trkpt lat="43.6234117" lon="11.5076133"><ele>133.0</ele><time>2026-03-22T11:38:43.225Z</time></trkpt><trkpt lat="43.6234733" lon="11.507695"><ele>133.0</ele><time>2026-03-22T11:38:44.225Z</time></trkpt><trkpt lat="43.6235333" lon="11.5077767"><ele>133.0</ele><time>2026-03-22T11:38:45.225Z</time></trkpt><trkpt lat="43.6235917" lon="11.507865"><ele>133.0</ele><time>2026-03-22T11:38:46.225Z</time></trkpt><trkpt lat="43.6236483" lon="11.5079517"><ele>133.0</ele><time>2026-03-22T11:38:47.225Z</time></trkpt><trkpt lat="43.6237033" lon="11.5080383"><ele>133.0</ele><time>2026-03-22T11:38:48.226Z</time></trkpt><trkpt lat="43.623755" lon="11.5081317"><ele>133.0</ele><time>2026-03-22T11:38:49.224Z</time></trkpt><trkpt lat="43.6238017" lon="11.5082267"><ele>133.33333333333334</ele><time>2026-03-22T11:38:50.225Z</time></trkpt><trkpt lat="43.6238433" lon="11.5083233"><ele>133.66666666666669</ele><time>2026-03-22T11:38:51.224Z</time></trkpt><trkpt lat="43.6238883" lon="11.5084283"><ele>134.0</ele><time>2026-03-22T11:38:52.224Z</time></trkpt><trkpt lat="43.6239333" lon="11.508535"><ele>134.33333333333334</ele><time>2026-03-22T11:38:53.226Z</time></trkpt><trkpt lat="43.623975" lon="11.5086383"><ele>134.66666666666666</ele><time>2026-03-22T11:38:54.225Z</time></trkpt><trkpt lat="43.62401" lon="11.50874"><ele>135.0</ele><time>2026-03-22T11:38:55.225Z</time></trkpt><trkpt lat="43.6240433" lon="11.5088417"><ele>135.16666666666666</ele><time>2026-03-22T11:38:56.225Z</time></trkpt><trkpt lat="43.6240733" lon="11.5089467"><ele>135.33333333333334</ele><time>2026-03-22T11:38:57.225Z</time></trkpt><trkpt lat="43.6241033" lon="11.5090583"><ele>135.5</ele><time>2026-03-22T11:38:58.224Z</time></trkpt><trkpt lat="43.6241367" lon="11.5091733"><ele>135.66666666666669</ele><time>2026-03-22T11:38:59.226Z</time></trkpt><trkpt lat="43.624165" lon="11.5092867"><ele>135.83333333333334</ele><time>2026-03-22T11:39:00.225Z</time></trkpt><trkpt lat="43.6241917" lon="11.5093967"><ele>136.0</ele><time>2026-03-22T11:39:01.224Z</time></trkpt><trkpt lat="43.624215" lon="11.5094983"><ele>136.16666666666669</ele><time>2026-03-22T11:39:02.225Z</time></trkpt><trkpt lat="43.6242433" lon="11.5096017"><ele>136.33333333333334</ele><time>2026-03-22T11:39:03.228Z</time></trkpt><trkpt lat="43.62427" lon="11.5097083"><ele>136.5</ele><time>2026-03-22T11:39:04.225Z</time></trkpt><trkpt lat="43.6242983" lon="11.5098183"><ele>136.66666666666666</ele><time>2026-03-22T11:39:05.227Z</time></trkpt><trkpt lat="43.6243183" lon="11.50993"><ele>136.83333333333331</ele><time>2026-03-22T11:39:06.233Z</time></trkpt><trkpt lat="43.6243433" lon="11.51004"><ele>137.0</ele><time>2026-03-22T11:39:07.226Z</time></trkpt><trkpt lat="43.6243583" lon="11.510155"><ele>137.0</ele><time>2026-03-22T11:39:08.225Z</time></trkpt><trkpt lat="43.6243817" lon="11.51026"><ele>137.0</ele><time>2026-03-22T11:39:09.225Z</time></trkpt><trkpt lat="43.6244117" lon="11.510365"><ele>137.0</ele><time>2026-03-22T11:39:10.224Z</time></trkpt><trkpt lat="43.6244417" lon="11.5104667"><ele>137.0</ele><time>2026-03-22T11:39:11.226Z</time></trkpt><trkpt lat="43.6244683" lon="11.5105733"><ele>137.0</ele><time>2026-03-22T11:39:12.224Z</time></trkpt><trkpt lat="43.6244967" lon="11.5106717"><ele>137.0</ele><time>2026-03-22T11:39:13.227Z</time></trkpt><trkpt lat="43.624525" lon="11.5107667"><ele>137.16666666666666</ele><time>2026-03-22T11:39:14.225Z</time></trkpt><trkpt lat="43.62455" lon="11.5108517"><ele>137.33333333333331</ele><time>2026-03-22T11:39:15.223Z</time></trkpt><trkpt lat="43.6245783" lon="11.5109417"><ele>137.5</ele><time>2026-03-22T11:39:16.224Z</time></trkpt><trkpt lat="43.6246117" lon="11.5110333"><ele>137.66666666666666</ele><time>2026-03-22T11:39:17.224Z</time></trkpt><trkpt lat="43.62464" lon="11.511135"><ele>137.83333333333334</ele><time>2026-03-22T11:39:18.226Z</time></trkpt><trkpt lat="43.6246767" lon="11.51124"><ele>138.0</ele><time>2026-03-22T11:39:19.225Z</time></trkpt><trkpt lat="43.6247133" lon="11.5113483"><ele>138.0</ele><time>2026-03-22T11:39:20.224Z</time></trkpt><trkpt lat="43.6247617" lon="11.5114517"><ele>138.0</ele><time>2026-03-22T11:39:21.225Z</time></trkpt><trkpt lat="43.624825" lon="11.5115383"><ele>138.0</ele><time>2026-03-22T11:39:22.225Z</time></trkpt><trkpt lat="43.624895" lon="11.5116133"><ele>138.0</ele><time>2026-03-22T11:39:23.224Z</time></trkpt><trkpt lat="43.62496" lon="11.511685"><ele>138.0</ele><time>2026-03-22T11:39:24.225Z</time></trkpt><trkpt lat="43.6250233" lon="11.5117517"><ele>138.0</ele><time>2026-03-22T11:39:25.225Z</time></trkpt><trkpt lat="43.6250833" lon="11.5118133"><ele>138.0</ele><time>2026-03-22T11:39:26.226Z</time></trkpt><trkpt lat="43.62515" lon="11.51187"><ele>138.0</ele><time>2026-03-22T11:39:27.224Z</time></trkpt><trkpt lat="43.6252167" lon="11.5119317"><ele>138.0</ele><time>2026-03-22T11:39:28.225Z</time></trkpt><trkpt lat="43.62528" lon="11.5119917"><ele>138.0</ele><time>2026-03-22T11:39:29.224Z</time></trkpt><trkpt lat="43.62534" lon="11.5120533"><ele>138.0</ele><time>2026-03-22T11:39:30.225Z</time></trkpt><trkpt lat="43.6253983" lon="11.51211"><ele>138.0</ele><time>2026-03-22T11:39:31.223Z</time></trkpt><trkpt lat="43.6254617" lon="11.5121617"><ele>138.28571428571428</ele><time>2026-03-22T11:39:32.233Z</time></trkpt><trkpt lat="43.6255233" lon="11.512215"><ele>138.57142857142858</ele><time>2026-03-22T11:39:33.224Z</time></trkpt><trkpt lat="43.6255867" lon="11.51227"><ele>138.85714285714286</ele><time>2026-03-22T11:39:34.224Z</time></trkpt><trkpt lat="43.6256517" lon="11.5123183"><ele>139.14285714285714</ele><time>2026-03-22T11:39:35.225Z</time></trkpt><trkpt lat="43.6257233" lon="11.51236"><ele>139.42857142857144</ele><time>2026-03-22T11:39:36.226Z</time></trkpt><trkpt lat="43.6257933" lon="11.512395"><ele>139.71428571428572</ele><time>2026-03-22T11:39:37.224Z</time></trkpt><trkpt lat="43.6258617" lon="11.512425"><ele>140.0</ele><time>2026-03-22T11:39:38.225Z</time></trkpt><trkpt lat="43.6259317" lon="11.5124517"><ele>140.0</ele><time>2026-03-22T11:39:39.225Z</time></trkpt><trkpt lat="43.626" lon="11.5124783"><ele>140.0</ele><time>2026-03-22T11:39:40.224Z</time></trkpt><trkpt lat="43.6260667" lon="11.5125033"><ele>140.0</ele><time>2026-03-22T11:39:41.225Z</time></trkpt><trkpt lat="43.6261317" lon="11.5125283"><ele>140.0</ele><time>2026-03-22T11:39:42.228Z</time></trkpt><trkpt lat="43.6261983" lon="11.5125517"><ele>140.0</ele><time>2026-03-22T11:39:43.227Z</time></trkpt><trkpt lat="43.6262633" lon="11.5125767"><ele>140.0</ele><time>2026-03-22T11:39:44.226Z</time></trkpt><trkpt lat="43.62633" lon="11.5126033"><ele>140.0</ele><time>2026-03-22T11:39:45.224Z</time></trkpt><trkpt lat="43.626395" lon="11.5126267"><ele>140.2</ele><time>2026-03-22T11:39:46.224Z</time></trkpt><trkpt lat="43.6265083" lon="11.5126733"><ele>140.4</ele><time>2026-03-22T11:39:48.225Z</time></trkpt><trkpt lat="43.6265683" lon="11.5127033"><ele>140.6</ele><time>2026-03-22T11:39:49.224Z</time></trkpt><trkpt lat="43.6266783" lon="11.5127733"><ele>140.8</ele><time>2026-03-22T11:39:51.226Z</time></trkpt><trkpt lat="43.62678" lon="11.51287"><ele>141.0</ele><time>2026-03-22T11:39:53.224Z</time></trkpt><trkpt lat="43.626885" lon="11.512955"><ele>141.0</ele><time>2026-03-22T11:39:55.227Z</time></trkpt><trkpt lat="43.6269467" lon="11.5129833"><ele>141.0</ele><time>2026-03-22T11:39:56.226Z</time></trkpt><trkpt lat="43.6270083" lon="11.5130067"><ele>141.0</ele><time>2026-03-22T11:39:57.224Z</time></trkpt><trkpt lat="43.6270717" lon="11.5130283"><ele>141.0</ele><time>2026-03-22T11:39:58.224Z</time></trkpt><trkpt lat="43.627135" lon="11.5130517"><ele>141.0</ele><time>2026-03-22T11:39:59.227Z</time></trkpt><trkpt lat="43.6271983" lon="11.513075"><ele>141.0</ele><time>2026-03-22T11:40:00.225Z</time></trkpt><trkpt lat="43.6272633" lon="11.5131033"><ele>141.0</ele><time>2026-03-22T11:40:01.226Z</time></trkpt><trkpt lat="43.62738" lon="11.5131417"><ele>141.2</ele><time>2026-03-22T11:40:03.227Z</time></trkpt><trkpt lat="43.6274833" lon="11.5131933"><ele>141.39999999999998</ele><time>2026-03-22T11:40:05.225Z</time></trkpt><trkpt lat="43.6275733" lon="11.5132683"><ele>141.6</ele><time>2026-03-22T11:40:07.229Z</time></trkpt><trkpt lat="43.6276133" lon="11.513395"><ele>141.79999999999998</ele><time>2026-03-22T11:40:09.225Z</time></trkpt><trkpt lat="43.6276317" lon="11.5135283"><ele>142.0</ele><time>2026-03-22T11:40:11.224Z</time></trkpt><trkpt lat="43.6276567" lon="11.5136583"><ele>142.6</ele><time>2026-03-22T11:40:13.228Z</time></trkpt><trkpt lat="43.62768" lon="11.513795"><ele>143.2</ele><time>2026-03-22T11:40:15.224Z</time></trkpt><trkpt lat="43.6277017" lon="11.5139267"><ele>143.8</ele><time>2026-03-22T11:40:17.225Z</time></trkpt><trkpt lat="43.6277217" lon="11.51404"><ele>144.4</ele><time>2026-03-22T11:40:19.227Z</time></trkpt><trkpt lat="43.6277317" lon="11.5141633"><ele>145.0</ele><time>2026-03-22T11:40:21.225Z</time></trkpt><trkpt lat="43.6277417" lon="11.5142983"><ele>145.0</ele><time>2026-03-22T11:40:23.225Z</time></trkpt><trkpt lat="43.6277517" lon="11.5144417"><ele>145.0</ele><time>2026-03-22T11:40:25.225Z</time></trkpt><trkpt lat="43.6277617" lon="11.5145867"><ele>145.0</ele><time>2026-03-22T11:40:27.224Z</time></trkpt><trkpt lat="43.6277767" lon="11.51473"><ele>145.0</ele><time>2026-03-22T11:40:29.225Z</time></trkpt><trkpt lat="43.627795" lon="11.5148867"><ele>145.0</ele><time>2026-03-22T11:40:31.225Z</time></trkpt><trkpt lat="43.6277967" lon="11.51503"><ele>145.0</ele><time>2026-03-22T11:40:33.225Z</time></trkpt><trkpt lat="43.6278067" lon="11.51517"><ele>145.0</ele><time>2026-03-22T11:40:35.226Z</time></trkpt><trkpt lat="43.6278017" lon="11.5153183"><ele>145.0</ele><time>2026-03-22T11:40:37.228Z</time></trkpt><trkpt lat="43.6277983" lon="11.5154683"><ele>145.0</ele><time>2026-03-22T11:40:39.227Z</time></trkpt><trkpt lat="43.6277967" lon="11.515615"><ele>145.0</ele><time>2026-03-22T11:40:41.226Z</time></trkpt><trkpt lat="43.6278033" lon="11.5157683"><ele>145.0</ele><time>2026-03-22T11:40:43.224Z</time></trkpt><trkpt lat="43.62781" lon="11.5159233"><ele>145.0</ele><time>2026-03-22T11:40:45.225Z</time></trkpt><trkpt lat="43.6278083" lon="11.5160767"><ele>145.0</ele><time>2026-03-22T11:40:47.225Z</time></trkpt><trkpt lat="43.6278083" lon="11.51623"><ele>145.0</ele><time>2026-03-22T11:40:49.225Z</time></trkpt><trkpt lat="43.6278017" lon="11.516395"><ele>145.4</ele><time>2026-03-22T11:40:51.226Z</time></trkpt><trkpt lat="43.6277983" lon="11.516555"><ele>145.8</ele><time>2026-03-22T11:40:53.225Z</time></trkpt><trkpt lat="43.6278" lon="11.5167117"><ele>146.2</ele><time>2026-03-22T11:40:55.225Z</time></trkpt><trkpt lat="43.627795" lon="11.5168583"><ele>146.6</ele><time>2026-03-22T11:40:57.224Z</time></trkpt><trkpt lat="43.6277917" lon="11.5169967"><ele>147.0</ele><time>2026-03-22T11:40:59.225Z</time></trkpt><trkpt lat="43.627775" lon="11.5171367"><ele>147.5</ele><time>2026-03-22T11:41:01.224Z</time></trkpt><trkpt lat="43.627755" lon="11.5172517"><ele>148.0</ele><time>2026-03-22T11:41:03.224Z</time></trkpt><trkpt lat="43.6277083" lon="11.51733"><ele>148.5</ele><time>2026-03-22T11:41:05.226Z</time></trkpt><trkpt lat="43.627645" lon="11.517385"><ele>149.0</ele><time>2026-03-22T11:41:07.223Z</time></trkpt><trkpt lat="43.6275567" lon="11.5174033"><ele>149.5</ele><time>2026-03-22T11:41:09.225Z</time></trkpt><trkpt lat="43.6274733" lon="11.517355"><ele>150.0</ele><time>2026-03-22T11:41:11.224Z</time></trkpt><trkpt lat="43.6274283" lon="11.5172133"><ele>149.4</ele><time>2026-03-22T11:41:13.225Z</time></trkpt><trkpt lat="43.6274483" lon="11.5170483"><ele>148.8</ele><time>2026-03-22T11:41:15.224Z</time></trkpt><trkpt lat="43.6274667" lon="11.5168783"><ele>148.2</ele><time>2026-03-22T11:41:17.223Z</time></trkpt><trkpt lat="43.6274567" lon="11.51674"><ele>147.6</ele><time>2026-03-22T11:41:19.224Z</time></trkpt><trkpt lat="43.6274467" lon="11.51663"><ele>147.0</ele><time>2026-03-22T11:41:22.224Z</time></trkpt><trkpt lat="43.627455" lon="11.516525"><ele>147.0</ele><time>2026-03-22T11:41:25.224Z</time></trkpt><trkpt lat="43.6274667" lon="11.5164183"><ele>147.0</ele><time>2026-03-22T11:41:28.224Z</time></trkpt></trkseg></trk></gpx>